<?xml version="1.0" encoding="UTF-8" standalone="no" ?>
<gpx xmlns="http://www.topografix.com/GPX/1/1" xmlns:xsi="http://www.w3.org/2001/XMLSchema-instance" xsi:schemaLocation="http://www.topografix.com/GPX/1/1 http://www.topografix.com/GPX/1/1/gpx.xsd" version="1.1" creator="VisuGPX - https://www.visugpx.com">
  <metadata>
    <name>Saint-Martin de Boscherville- Forêt de Roumare. Test concluant de la tige de selle télescopique.</name>
  </metadata>
  <trk>
    <name><![CDATA[Saint-Martin de Boscherville- Forêt de Roumare. Test concluant de la tige de selle télescopique.]]></name>
    <trkseg>
      <trkpt lat="49.44465" lon="0.96246">
        <ele>9.8</ele>
        <time>2020-06-21T06:35:04Z</time>
      </trkpt>
      <trkpt lat="49.44464" lon="0.96253">
        <ele>9.8</ele>
        <time>2020-06-21T06:35:06Z</time>
      </trkpt>
      <trkpt lat="49.44463" lon="0.96252">
        <ele>9.8</ele>
        <time>2020-06-21T06:35:08Z</time>
      </trkpt>
      <trkpt lat="49.44462" lon="0.96251">
        <ele>9.8</ele>
        <time>2020-06-21T06:35:09Z</time>
      </trkpt>
      <trkpt lat="49.44466" lon="0.96258">
        <ele>9.9</ele>
        <time>2020-06-21T06:35:11Z</time>
      </trkpt>
      <trkpt lat="49.44468" lon="0.96261">
        <ele>9.9</ele>
        <time>2020-06-21T06:35:12Z</time>
      </trkpt>
      <trkpt lat="49.4447" lon="0.96263">
        <ele>9.9</ele>
        <time>2020-06-21T06:35:14Z</time>
      </trkpt>
      <trkpt lat="49.44472" lon="0.96266">
        <ele>10</ele>
        <time>2020-06-21T06:35:16Z</time>
      </trkpt>
      <trkpt lat="49.44474" lon="0.96269">
        <ele>10</ele>
        <time>2020-06-21T06:35:18Z</time>
      </trkpt>
      <trkpt lat="49.44476" lon="0.96272">
        <ele>10</ele>
        <time>2020-06-21T06:35:20Z</time>
      </trkpt>
      <trkpt lat="49.44478" lon="0.96275">
        <ele>10</ele>
        <time>2020-06-21T06:35:22Z</time>
      </trkpt>
      <trkpt lat="49.4448" lon="0.96277">
        <ele>10</ele>
        <time>2020-06-21T06:35:24Z</time>
      </trkpt>
      <trkpt lat="49.44482" lon="0.9628">
        <ele>10</ele>
        <time>2020-06-21T06:35:25Z</time>
      </trkpt>
      <trkpt lat="49.44483" lon="0.96282">
        <ele>10</ele>
        <time>2020-06-21T06:35:26Z</time>
      </trkpt>
      <trkpt lat="49.44484" lon="0.96282">
        <ele>10</ele>
        <time>2020-06-21T06:35:28Z</time>
      </trkpt>
      <trkpt lat="49.44483" lon="0.96282">
        <ele>10</ele>
        <time>2020-06-21T06:35:30Z</time>
      </trkpt>
      <trkpt lat="49.44487" lon="0.96286">
        <ele>10</ele>
        <time>2020-06-21T06:35:32Z</time>
      </trkpt>
      <trkpt lat="49.44461" lon="0.9625">
        <ele>9.8</ele>
        <time>2020-06-21T06:35:33Z</time>
      </trkpt>
      <trkpt lat="49.4446" lon="0.96248">
        <ele>9.8</ele>
        <time>2020-06-21T06:35:34Z</time>
      </trkpt>
      <trkpt lat="49.4446" lon="0.96249">
        <ele>9.8</ele>
        <time>2020-06-21T06:35:36Z</time>
      </trkpt>
      <trkpt lat="49.44462" lon="0.96251">
        <ele>9.8</ele>
        <time>2020-06-21T06:35:37Z</time>
      </trkpt>
      <trkpt lat="49.44464" lon="0.96254">
        <ele>9.8</ele>
        <time>2020-06-21T06:35:38Z</time>
      </trkpt>
      <trkpt lat="49.44466" lon="0.96256">
        <ele>9.8</ele>
        <time>2020-06-21T06:35:39Z</time>
      </trkpt>
      <trkpt lat="49.44468" lon="0.96259">
        <ele>9.8</ele>
        <time>2020-06-21T06:35:40Z</time>
      </trkpt>
      <trkpt lat="49.4447" lon="0.96261">
        <ele>9.9</ele>
        <time>2020-06-21T06:35:42Z</time>
      </trkpt>
      <trkpt lat="49.44472" lon="0.96263">
        <ele>9.9</ele>
        <time>2020-06-21T06:35:44Z</time>
      </trkpt>
      <trkpt lat="49.44474" lon="0.96266">
        <ele>9.9</ele>
        <time>2020-06-21T06:35:45Z</time>
      </trkpt>
      <trkpt lat="49.44476" lon="0.96268">
        <ele>9.9</ele>
        <time>2020-06-21T06:35:46Z</time>
      </trkpt>
      <trkpt lat="49.44477" lon="0.96271">
        <ele>9.9</ele>
        <time>2020-06-21T06:35:48Z</time>
      </trkpt>
      <trkpt lat="49.44479" lon="0.96273">
        <ele>9.9</ele>
        <time>2020-06-21T06:35:49Z</time>
      </trkpt>
      <trkpt lat="49.44481" lon="0.96275">
        <ele>9.9</ele>
        <time>2020-06-21T06:35:51Z</time>
      </trkpt>
      <trkpt lat="49.44483" lon="0.96278">
        <ele>9.9</ele>
        <time>2020-06-21T06:35:53Z</time>
      </trkpt>
      <trkpt lat="49.44485" lon="0.9628">
        <ele>9.9</ele>
        <time>2020-06-21T06:35:55Z</time>
      </trkpt>
      <trkpt lat="49.44487" lon="0.96283">
        <ele>9.9</ele>
        <time>2020-06-21T06:35:56Z</time>
      </trkpt>
      <trkpt lat="49.44489" lon="0.96285">
        <ele>9.9</ele>
        <time>2020-06-21T06:35:58Z</time>
      </trkpt>
      <trkpt lat="49.44491" lon="0.96288">
        <ele>10</ele>
        <time>2020-06-21T06:36:00Z</time>
      </trkpt>
      <trkpt lat="49.44493" lon="0.9629">
        <ele>10</ele>
        <time>2020-06-21T06:36:02Z</time>
      </trkpt>
      <trkpt lat="49.44494" lon="0.96292">
        <ele>10</ele>
        <time>2020-06-21T06:36:03Z</time>
      </trkpt>
      <trkpt lat="49.44492" lon="0.9629">
        <ele>10</ele>
        <time>2020-06-21T06:36:04Z</time>
      </trkpt>
      <trkpt lat="49.4449" lon="0.96287">
        <ele>10</ele>
        <time>2020-06-21T06:36:05Z</time>
      </trkpt>
      <trkpt lat="49.4446" lon="0.96235">
        <ele>9.4</ele>
        <time>2020-06-21T06:36:06Z</time>
      </trkpt>
      <trkpt lat="49.4446" lon="0.96235">
        <ele>9.4</ele>
        <time>2020-06-21T06:36:07Z</time>
      </trkpt>
      <trkpt lat="49.44458" lon="0.96234">
        <ele>9.4</ele>
        <time>2020-06-21T06:36:08Z</time>
      </trkpt>
      <trkpt lat="49.44458" lon="0.96235">
        <ele>9.4</ele>
        <time>2020-06-21T06:36:10Z</time>
      </trkpt>
      <trkpt lat="49.44461" lon="0.96238">
        <ele>9.5</ele>
        <time>2020-06-21T06:36:11Z</time>
      </trkpt>
      <trkpt lat="49.4446" lon="0.96237">
        <ele>9.6</ele>
        <time>2020-06-21T06:36:13Z</time>
      </trkpt>
      <trkpt lat="49.4446" lon="0.96236">
        <ele>9.6</ele>
        <time>2020-06-21T06:36:14Z</time>
      </trkpt>
      <trkpt lat="49.44462" lon="0.96241">
        <ele>9.7</ele>
        <time>2020-06-21T06:36:16Z</time>
      </trkpt>
      <trkpt lat="49.44463" lon="0.96243">
        <ele>9.7</ele>
        <time>2020-06-21T06:36:17Z</time>
      </trkpt>
      <trkpt lat="49.44464" lon="0.96245">
        <ele>9.8</ele>
        <time>2020-06-21T06:36:19Z</time>
      </trkpt>
      <trkpt lat="49.44465" lon="0.96247">
        <ele>9.8</ele>
        <time>2020-06-21T06:36:20Z</time>
      </trkpt>
      <trkpt lat="49.44466" lon="0.96249">
        <ele>9.9</ele>
        <time>2020-06-21T06:36:21Z</time>
      </trkpt>
      <trkpt lat="49.44465" lon="0.96248">
        <ele>9.9</ele>
        <time>2020-06-21T06:36:22Z</time>
      </trkpt>
      <trkpt lat="49.44462" lon="0.96244">
        <ele>10</ele>
        <time>2020-06-21T06:36:24Z</time>
      </trkpt>
      <trkpt lat="49.44459" lon="0.96241">
        <ele>10.1</ele>
        <time>2020-06-21T06:36:25Z</time>
      </trkpt>
      <trkpt lat="49.44459" lon="0.96243">
        <ele>10.2</ele>
        <time>2020-06-21T06:36:27Z</time>
      </trkpt>
      <trkpt lat="49.44457" lon="0.96244">
        <ele>10.3</ele>
        <time>2020-06-21T06:36:28Z</time>
      </trkpt>
      <trkpt lat="49.44453" lon="0.96243">
        <ele>10.4</ele>
        <time>2020-06-21T06:36:30Z</time>
      </trkpt>
      <trkpt lat="49.4445" lon="0.9624">
        <ele>10.5</ele>
        <time>2020-06-21T06:36:31Z</time>
      </trkpt>
      <trkpt lat="49.44448" lon="0.96242">
        <ele>10.6</ele>
        <time>2020-06-21T06:36:32Z</time>
      </trkpt>
      <trkpt lat="49.44445" lon="0.96245">
        <ele>10.7</ele>
        <time>2020-06-21T06:36:34Z</time>
      </trkpt>
      <trkpt lat="49.44442" lon="0.9625">
        <ele>10.8</ele>
        <time>2020-06-21T06:36:36Z</time>
      </trkpt>
      <trkpt lat="49.44438" lon="0.96257">
        <ele>11</ele>
        <time>2020-06-21T06:36:38Z</time>
      </trkpt>
      <trkpt lat="49.44437" lon="0.96261">
        <ele>11.1</ele>
        <time>2020-06-21T06:36:39Z</time>
      </trkpt>
      <trkpt lat="49.44435" lon="0.96267">
        <ele>11.3</ele>
        <time>2020-06-21T06:36:40Z</time>
      </trkpt>
      <trkpt lat="49.44434" lon="0.96274">
        <ele>11.4</ele>
        <time>2020-06-21T06:36:42Z</time>
      </trkpt>
      <trkpt lat="49.44433" lon="0.96277">
        <ele>11.5</ele>
        <time>2020-06-21T06:36:43Z</time>
      </trkpt>
      <trkpt lat="49.44433" lon="0.96282">
        <ele>11.6</ele>
        <time>2020-06-21T06:36:45Z</time>
      </trkpt>
      <trkpt lat="49.44432" lon="0.96286">
        <ele>11.7</ele>
        <time>2020-06-21T06:36:46Z</time>
      </trkpt>
      <trkpt lat="49.44432" lon="0.96288">
        <ele>11.8</ele>
        <time>2020-06-21T06:36:47Z</time>
      </trkpt>
      <trkpt lat="49.44432" lon="0.96291">
        <ele>11.8</ele>
        <time>2020-06-21T06:36:48Z</time>
      </trkpt>
      <trkpt lat="49.44432" lon="0.96294">
        <ele>11.9</ele>
        <time>2020-06-21T06:36:49Z</time>
      </trkpt>
      <trkpt lat="49.44432" lon="0.96298">
        <ele>12</ele>
        <time>2020-06-21T06:36:51Z</time>
      </trkpt>
      <trkpt lat="49.44433" lon="0.96303">
        <ele>12.1</ele>
        <time>2020-06-21T06:36:53Z</time>
      </trkpt>
      <trkpt lat="49.44434" lon="0.96306">
        <ele>12.2</ele>
        <time>2020-06-21T06:36:54Z</time>
      </trkpt>
      <trkpt lat="49.44435" lon="0.96309">
        <ele>12.2</ele>
        <time>2020-06-21T06:36:56Z</time>
      </trkpt>
      <trkpt lat="49.44436" lon="0.96312">
        <ele>12.3</ele>
        <time>2020-06-21T06:36:57Z</time>
      </trkpt>
      <trkpt lat="49.44436" lon="0.96317">
        <ele>12.4</ele>
        <time>2020-06-21T06:36:59Z</time>
      </trkpt>
      <trkpt lat="49.44437" lon="0.96321">
        <ele>12.4</ele>
        <time>2020-06-21T06:37:00Z</time>
      </trkpt>
      <trkpt lat="49.44437" lon="0.96323">
        <ele>12.5</ele>
        <time>2020-06-21T06:37:01Z</time>
      </trkpt>
      <trkpt lat="49.44437" lon="0.96326">
        <ele>12.5</ele>
        <time>2020-06-21T06:37:02Z</time>
      </trkpt>
      <trkpt lat="49.44437" lon="0.96332">
        <ele>12.6</ele>
        <time>2020-06-21T06:37:04Z</time>
      </trkpt>
      <trkpt lat="49.44436" lon="0.96337">
        <ele>13.9</ele>
        <time>2020-06-21T06:37:06Z</time>
      </trkpt>
      <trkpt lat="49.44434" lon="0.96345">
        <ele>14.2</ele>
        <time>2020-06-21T06:37:07Z</time>
      </trkpt>
      <trkpt lat="49.44433" lon="0.96351">
        <ele>14.4</ele>
        <time>2020-06-21T06:37:08Z</time>
      </trkpt>
      <trkpt lat="49.4443" lon="0.96358">
        <ele>14.7</ele>
        <time>2020-06-21T06:37:10Z</time>
      </trkpt>
      <trkpt lat="49.44428" lon="0.96364">
        <ele>14.9</ele>
        <time>2020-06-21T06:37:12Z</time>
      </trkpt>
      <trkpt lat="49.44426" lon="0.96368">
        <ele>15.2</ele>
        <time>2020-06-21T06:37:13Z</time>
      </trkpt>
      <trkpt lat="49.44426" lon="0.96369">
        <ele>15.3</ele>
        <time>2020-06-21T06:37:14Z</time>
      </trkpt>
      <trkpt lat="49.44422" lon="0.96374">
        <ele>15.4</ele>
        <time>2020-06-21T06:37:16Z</time>
      </trkpt>
      <trkpt lat="49.44421" lon="0.96377">
        <ele>15.5</ele>
        <time>2020-06-21T06:37:17Z</time>
      </trkpt>
      <trkpt lat="49.44418" lon="0.96379">
        <ele>15.6</ele>
        <time>2020-06-21T06:37:19Z</time>
      </trkpt>
      <trkpt lat="49.44415" lon="0.96379">
        <ele>15.7</ele>
        <time>2020-06-21T06:37:20Z</time>
      </trkpt>
      <trkpt lat="49.44414" lon="0.96379">
        <ele>15.7</ele>
        <time>2020-06-21T06:37:21Z</time>
      </trkpt>
      <trkpt lat="49.44409" lon="0.96378">
        <ele>15.9</ele>
        <time>2020-06-21T06:37:23Z</time>
      </trkpt>
      <trkpt lat="49.44408" lon="0.96378">
        <ele>15.9</ele>
        <time>2020-06-21T06:37:24Z</time>
      </trkpt>
      <trkpt lat="49.44406" lon="0.96378">
        <ele>16</ele>
        <time>2020-06-21T06:37:25Z</time>
      </trkpt>
      <trkpt lat="49.44403" lon="0.96378">
        <ele>16.1</ele>
        <time>2020-06-21T06:37:27Z</time>
      </trkpt>
      <trkpt lat="49.44399" lon="0.96377">
        <ele>16.2</ele>
        <time>2020-06-21T06:37:28Z</time>
      </trkpt>
      <trkpt lat="49.44396" lon="0.96377">
        <ele>16.3</ele>
        <time>2020-06-21T06:37:29Z</time>
      </trkpt>
      <trkpt lat="49.44392" lon="0.96376">
        <ele>16.3</ele>
        <time>2020-06-21T06:37:30Z</time>
      </trkpt>
      <trkpt lat="49.44388" lon="0.96376">
        <ele>16.4</ele>
        <time>2020-06-21T06:37:32Z</time>
      </trkpt>
      <trkpt lat="49.44384" lon="0.96376">
        <ele>16.5</ele>
        <time>2020-06-21T06:37:34Z</time>
      </trkpt>
      <trkpt lat="49.4438" lon="0.96377">
        <ele>16.5</ele>
        <time>2020-06-21T06:37:35Z</time>
      </trkpt>
      <trkpt lat="49.44379" lon="0.96377">
        <ele>16.5</ele>
        <time>2020-06-21T06:37:36Z</time>
      </trkpt>
      <trkpt lat="49.44374" lon="0.96377">
        <ele>16.6</ele>
        <time>2020-06-21T06:37:38Z</time>
      </trkpt>
      <trkpt lat="49.44372" lon="0.96377">
        <ele>16.6</ele>
        <time>2020-06-21T06:37:39Z</time>
      </trkpt>
      <trkpt lat="49.44371" lon="0.96377">
        <ele>16.6</ele>
        <time>2020-06-21T06:37:40Z</time>
      </trkpt>
      <trkpt lat="49.44367" lon="0.9638">
        <ele>16.7</ele>
        <time>2020-06-21T06:37:42Z</time>
      </trkpt>
      <trkpt lat="49.44367" lon="0.96382">
        <ele>16.7</ele>
        <time>2020-06-21T06:37:43Z</time>
      </trkpt>
      <trkpt lat="49.44366" lon="0.96384">
        <ele>16.8</ele>
        <time>2020-06-21T06:37:44Z</time>
      </trkpt>
      <trkpt lat="49.44366" lon="0.96388">
        <ele>16.9</ele>
        <time>2020-06-21T06:37:45Z</time>
      </trkpt>
      <trkpt lat="49.44366" lon="0.96389">
        <ele>16.9</ele>
        <time>2020-06-21T06:37:46Z</time>
      </trkpt>
      <trkpt lat="49.44365" lon="0.96393">
        <ele>17</ele>
        <time>2020-06-21T06:37:47Z</time>
      </trkpt>
      <trkpt lat="49.44365" lon="0.96396">
        <ele>17</ele>
        <time>2020-06-21T06:37:49Z</time>
      </trkpt>
      <trkpt lat="49.44364" lon="0.96403">
        <ele>17.2</ele>
        <time>2020-06-21T06:37:50Z</time>
      </trkpt>
      <trkpt lat="49.44364" lon="0.96405">
        <ele>17.3</ele>
        <time>2020-06-21T06:37:51Z</time>
      </trkpt>
      <trkpt lat="49.44364" lon="0.96411">
        <ele>17.4</ele>
        <time>2020-06-21T06:37:52Z</time>
      </trkpt>
      <trkpt lat="49.44363" lon="0.96417">
        <ele>17.6</ele>
        <time>2020-06-21T06:37:53Z</time>
      </trkpt>
      <trkpt lat="49.44362" lon="0.96423">
        <ele>17.7</ele>
        <time>2020-06-21T06:37:54Z</time>
      </trkpt>
      <trkpt lat="49.44362" lon="0.96428">
        <ele>17.9</ele>
        <time>2020-06-21T06:37:55Z</time>
      </trkpt>
      <trkpt lat="49.44362" lon="0.96435">
        <ele>18.1</ele>
        <time>2020-06-21T06:37:57Z</time>
      </trkpt>
      <trkpt lat="49.44362" lon="0.96443">
        <ele>18.3</ele>
        <time>2020-06-21T06:37:59Z</time>
      </trkpt>
      <trkpt lat="49.44362" lon="0.9645">
        <ele>18.5</ele>
        <time>2020-06-21T06:38:00Z</time>
      </trkpt>
      <trkpt lat="49.44362" lon="0.96453">
        <ele>18.6</ele>
        <time>2020-06-21T06:38:01Z</time>
      </trkpt>
      <trkpt lat="49.44362" lon="0.96458">
        <ele>18.8</ele>
        <time>2020-06-21T06:38:03Z</time>
      </trkpt>
      <trkpt lat="49.44362" lon="0.96465">
        <ele>19.1</ele>
        <time>2020-06-21T06:38:05Z</time>
      </trkpt>
      <trkpt lat="49.44362" lon="0.9647">
        <ele>19.2</ele>
        <time>2020-06-21T06:38:06Z</time>
      </trkpt>
      <trkpt lat="49.44361" lon="0.96472">
        <ele>19.3</ele>
        <time>2020-06-21T06:38:07Z</time>
      </trkpt>
      <trkpt lat="49.44361" lon="0.96474">
        <ele>19.4</ele>
        <time>2020-06-21T06:38:08Z</time>
      </trkpt>
      <trkpt lat="49.44361" lon="0.96479">
        <ele>19.6</ele>
        <time>2020-06-21T06:38:10Z</time>
      </trkpt>
      <trkpt lat="49.44361" lon="0.96482">
        <ele>19.7</ele>
        <time>2020-06-21T06:38:12Z</time>
      </trkpt>
      <trkpt lat="49.44361" lon="0.96483">
        <ele>19.7</ele>
        <time>2020-06-21T06:38:13Z</time>
      </trkpt>
      <trkpt lat="49.44361" lon="0.96484">
        <ele>19.8</ele>
        <time>2020-06-21T06:38:14Z</time>
      </trkpt>
      <trkpt lat="49.44361" lon="0.96486">
        <ele>19.9</ele>
        <time>2020-06-21T06:38:16Z</time>
      </trkpt>
      <trkpt lat="49.44361" lon="0.9649">
        <ele>20</ele>
        <time>2020-06-21T06:38:18Z</time>
      </trkpt>
      <trkpt lat="49.44361" lon="0.96491">
        <ele>20.1</ele>
        <time>2020-06-21T06:38:19Z</time>
      </trkpt>
      <trkpt lat="49.44361" lon="0.96496">
        <ele>20.2</ele>
        <time>2020-06-21T06:38:21Z</time>
      </trkpt>
      <trkpt lat="49.4436" lon="0.96498">
        <ele>20.3</ele>
        <time>2020-06-21T06:38:22Z</time>
      </trkpt>
      <trkpt lat="49.4436" lon="0.96504">
        <ele>20.5</ele>
        <time>2020-06-21T06:38:24Z</time>
      </trkpt>
      <trkpt lat="49.44359" lon="0.96536">
        <ele>21.7</ele>
        <time>2020-06-21T06:38:26Z</time>
      </trkpt>
      <trkpt lat="49.44359" lon="0.96543">
        <ele>21.9</ele>
        <time>2020-06-21T06:38:28Z</time>
      </trkpt>
      <trkpt lat="49.44359" lon="0.96542">
        <ele>22</ele>
        <time>2020-06-21T06:38:29Z</time>
      </trkpt>
      <trkpt lat="49.44359" lon="0.96544">
        <ele>22</ele>
        <time>2020-06-21T06:38:31Z</time>
      </trkpt>
      <trkpt lat="49.44359" lon="0.96546">
        <ele>22.1</ele>
        <time>2020-06-21T06:38:32Z</time>
      </trkpt>
      <trkpt lat="49.44358" lon="0.96548">
        <ele>22.2</ele>
        <time>2020-06-21T06:38:34Z</time>
      </trkpt>
      <trkpt lat="49.44358" lon="0.9655">
        <ele>22.3</ele>
        <time>2020-06-21T06:38:35Z</time>
      </trkpt>
      <trkpt lat="49.44358" lon="0.9656">
        <ele>22.7</ele>
        <time>2020-06-21T06:38:37Z</time>
      </trkpt>
      <trkpt lat="49.44358" lon="0.96571">
        <ele>23.1</ele>
        <time>2020-06-21T06:38:38Z</time>
      </trkpt>
      <trkpt lat="49.44358" lon="0.96577">
        <ele>23.4</ele>
        <time>2020-06-21T06:38:39Z</time>
      </trkpt>
      <trkpt lat="49.44357" lon="0.96585">
        <ele>23.8</ele>
        <time>2020-06-21T06:38:41Z</time>
      </trkpt>
      <trkpt lat="49.44357" lon="0.9659">
        <ele>24</ele>
        <time>2020-06-21T06:38:42Z</time>
      </trkpt>
      <trkpt lat="49.44357" lon="0.96598">
        <ele>24.4</ele>
        <time>2020-06-21T06:38:44Z</time>
      </trkpt>
      <trkpt lat="49.44357" lon="0.96604">
        <ele>24.7</ele>
        <time>2020-06-21T06:38:46Z</time>
      </trkpt>
      <trkpt lat="49.44357" lon="0.96609">
        <ele>24.9</ele>
        <time>2020-06-21T06:38:47Z</time>
      </trkpt>
      <trkpt lat="49.44356" lon="0.96613">
        <ele>25.1</ele>
        <time>2020-06-21T06:38:48Z</time>
      </trkpt>
      <trkpt lat="49.44356" lon="0.96618">
        <ele>25.4</ele>
        <time>2020-06-21T06:38:49Z</time>
      </trkpt>
      <trkpt lat="49.44355" lon="0.96622">
        <ele>25.6</ele>
        <time>2020-06-21T06:38:50Z</time>
      </trkpt>
      <trkpt lat="49.44355" lon="0.9663">
        <ele>25.9</ele>
        <time>2020-06-21T06:38:52Z</time>
      </trkpt>
      <trkpt lat="49.44354" lon="0.96634">
        <ele>26.2</ele>
        <time>2020-06-21T06:38:53Z</time>
      </trkpt>
      <trkpt lat="49.44354" lon="0.9664">
        <ele>26.5</ele>
        <time>2020-06-21T06:38:55Z</time>
      </trkpt>
      <trkpt lat="49.44353" lon="0.96647">
        <ele>26.8</ele>
        <time>2020-06-21T06:38:57Z</time>
      </trkpt>
      <trkpt lat="49.44352" lon="0.9665">
        <ele>27</ele>
        <time>2020-06-21T06:38:58Z</time>
      </trkpt>
      <trkpt lat="49.44352" lon="0.96656">
        <ele>27.3</ele>
        <time>2020-06-21T06:39:00Z</time>
      </trkpt>
      <trkpt lat="49.44351" lon="0.96662">
        <ele>27.6</ele>
        <time>2020-06-21T06:39:02Z</time>
      </trkpt>
      <trkpt lat="49.4435" lon="0.96669">
        <ele>28</ele>
        <time>2020-06-21T06:39:04Z</time>
      </trkpt>
      <trkpt lat="49.44349" lon="0.96672">
        <ele>28.1</ele>
        <time>2020-06-21T06:39:05Z</time>
      </trkpt>
      <trkpt lat="49.44348" lon="0.96677">
        <ele>28.4</ele>
        <time>2020-06-21T06:39:07Z</time>
      </trkpt>
      <trkpt lat="49.44348" lon="0.96682">
        <ele>28.6</ele>
        <time>2020-06-21T06:39:08Z</time>
      </trkpt>
      <trkpt lat="49.44348" lon="0.96687">
        <ele>28.9</ele>
        <time>2020-06-21T06:39:09Z</time>
      </trkpt>
      <trkpt lat="49.44347" lon="0.96689">
        <ele>29</ele>
        <time>2020-06-21T06:39:10Z</time>
      </trkpt>
      <trkpt lat="49.44346" lon="0.96694">
        <ele>29.3</ele>
        <time>2020-06-21T06:39:12Z</time>
      </trkpt>
      <trkpt lat="49.44346" lon="0.96698">
        <ele>29.5</ele>
        <time>2020-06-21T06:39:13Z</time>
      </trkpt>
      <trkpt lat="49.44345" lon="0.96703">
        <ele>29.8</ele>
        <time>2020-06-21T06:39:15Z</time>
      </trkpt>
      <trkpt lat="49.44344" lon="0.96708">
        <ele>30</ele>
        <time>2020-06-21T06:39:16Z</time>
      </trkpt>
      <trkpt lat="49.44344" lon="0.96709">
        <ele>30.1</ele>
        <time>2020-06-21T06:39:17Z</time>
      </trkpt>
      <trkpt lat="49.44344" lon="0.96713">
        <ele>30.3</ele>
        <time>2020-06-21T06:39:18Z</time>
      </trkpt>
      <trkpt lat="49.44343" lon="0.96718">
        <ele>30.5</ele>
        <time>2020-06-21T06:39:20Z</time>
      </trkpt>
      <trkpt lat="49.44343" lon="0.96722">
        <ele>30.8</ele>
        <time>2020-06-21T06:39:21Z</time>
      </trkpt>
      <trkpt lat="49.44342" lon="0.96723">
        <ele>30.8</ele>
        <time>2020-06-21T06:39:22Z</time>
      </trkpt>
      <trkpt lat="49.44342" lon="0.96726">
        <ele>31</ele>
        <time>2020-06-21T06:39:23Z</time>
      </trkpt>
      <trkpt lat="49.44341" lon="0.96732">
        <ele>31.3</ele>
        <time>2020-06-21T06:39:25Z</time>
      </trkpt>
      <trkpt lat="49.44341" lon="0.96735">
        <ele>31.5</ele>
        <time>2020-06-21T06:39:26Z</time>
      </trkpt>
      <trkpt lat="49.4434" lon="0.96741">
        <ele>31.8</ele>
        <time>2020-06-21T06:39:28Z</time>
      </trkpt>
      <trkpt lat="49.44339" lon="0.96744">
        <ele>32</ele>
        <time>2020-06-21T06:39:29Z</time>
      </trkpt>
      <trkpt lat="49.44338" lon="0.96747">
        <ele>32.2</ele>
        <time>2020-06-21T06:39:31Z</time>
      </trkpt>
      <trkpt lat="49.44337" lon="0.96752">
        <ele>32.4</ele>
        <time>2020-06-21T06:39:32Z</time>
      </trkpt>
      <trkpt lat="49.44335" lon="0.96756">
        <ele>32.8</ele>
        <time>2020-06-21T06:39:33Z</time>
      </trkpt>
      <trkpt lat="49.44333" lon="0.96763">
        <ele>33.1</ele>
        <time>2020-06-21T06:39:35Z</time>
      </trkpt>
      <trkpt lat="49.44333" lon="0.96766">
        <ele>33.3</ele>
        <time>2020-06-21T06:39:37Z</time>
      </trkpt>
      <trkpt lat="49.44333" lon="0.96769">
        <ele>33.4</ele>
        <time>2020-06-21T06:39:38Z</time>
      </trkpt>
      <trkpt lat="49.44332" lon="0.96772">
        <ele>33.6</ele>
        <time>2020-06-21T06:39:39Z</time>
      </trkpt>
      <trkpt lat="49.44332" lon="0.96777">
        <ele>33.9</ele>
        <time>2020-06-21T06:39:40Z</time>
      </trkpt>
      <trkpt lat="49.44332" lon="0.96779">
        <ele>34</ele>
        <time>2020-06-21T06:39:41Z</time>
      </trkpt>
      <trkpt lat="49.44332" lon="0.96786">
        <ele>34.4</ele>
        <time>2020-06-21T06:39:43Z</time>
      </trkpt>
      <trkpt lat="49.44333" lon="0.96788">
        <ele>34.5</ele>
        <time>2020-06-21T06:39:44Z</time>
      </trkpt>
      <trkpt lat="49.44333" lon="0.9679">
        <ele>34.7</ele>
        <time>2020-06-21T06:39:45Z</time>
      </trkpt>
      <trkpt lat="49.44333" lon="0.96796">
        <ele>35</ele>
        <time>2020-06-21T06:39:47Z</time>
      </trkpt>
      <trkpt lat="49.44334" lon="0.96798">
        <ele>35.1</ele>
        <time>2020-06-21T06:39:48Z</time>
      </trkpt>
      <trkpt lat="49.44334" lon="0.96801">
        <ele>35.2</ele>
        <time>2020-06-21T06:39:49Z</time>
      </trkpt>
      <trkpt lat="49.44334" lon="0.96807">
        <ele>35.6</ele>
        <time>2020-06-21T06:39:51Z</time>
      </trkpt>
      <trkpt lat="49.44334" lon="0.96811">
        <ele>35.8</ele>
        <time>2020-06-21T06:39:52Z</time>
      </trkpt>
      <trkpt lat="49.44334" lon="0.96815">
        <ele>36</ele>
        <time>2020-06-21T06:39:53Z</time>
      </trkpt>
      <trkpt lat="49.44334" lon="0.96819">
        <ele>36.2</ele>
        <time>2020-06-21T06:39:55Z</time>
      </trkpt>
      <trkpt lat="49.44334" lon="0.96825">
        <ele>36.5</ele>
        <time>2020-06-21T06:39:56Z</time>
      </trkpt>
      <trkpt lat="49.44334" lon="0.96827">
        <ele>36.6</ele>
        <time>2020-06-21T06:39:57Z</time>
      </trkpt>
      <trkpt lat="49.44334" lon="0.96832">
        <ele>36.9</ele>
        <time>2020-06-21T06:39:59Z</time>
      </trkpt>
      <trkpt lat="49.44334" lon="0.96837">
        <ele>37.2</ele>
        <time>2020-06-21T06:40:00Z</time>
      </trkpt>
      <trkpt lat="49.44335" lon="0.9684">
        <ele>37.4</ele>
        <time>2020-06-21T06:40:01Z</time>
      </trkpt>
      <trkpt lat="49.44335" lon="0.96845">
        <ele>37.6</ele>
        <time>2020-06-21T06:40:03Z</time>
      </trkpt>
      <trkpt lat="49.44334" lon="0.9685">
        <ele>37.9</ele>
        <time>2020-06-21T06:40:04Z</time>
      </trkpt>
      <trkpt lat="49.44334" lon="0.96853">
        <ele>38.1</ele>
        <time>2020-06-21T06:40:05Z</time>
      </trkpt>
      <trkpt lat="49.44335" lon="0.96858">
        <ele>38.4</ele>
        <time>2020-06-21T06:40:07Z</time>
      </trkpt>
      <trkpt lat="49.44335" lon="0.9686">
        <ele>38.5</ele>
        <time>2020-06-21T06:40:08Z</time>
      </trkpt>
      <trkpt lat="49.44335" lon="0.96863">
        <ele>38.7</ele>
        <time>2020-06-21T06:40:09Z</time>
      </trkpt>
      <trkpt lat="49.44333" lon="0.96869">
        <ele>39.1</ele>
        <time>2020-06-21T06:40:11Z</time>
      </trkpt>
      <trkpt lat="49.44333" lon="0.96872">
        <ele>39.3</ele>
        <time>2020-06-21T06:40:12Z</time>
      </trkpt>
      <trkpt lat="49.44332" lon="0.96874">
        <ele>39.4</ele>
        <time>2020-06-21T06:40:13Z</time>
      </trkpt>
      <trkpt lat="49.44331" lon="0.9688">
        <ele>39.8</ele>
        <time>2020-06-21T06:40:15Z</time>
      </trkpt>
      <trkpt lat="49.44331" lon="0.96883">
        <ele>39.9</ele>
        <time>2020-06-21T06:40:16Z</time>
      </trkpt>
      <trkpt lat="49.44331" lon="0.96888">
        <ele>40.2</ele>
        <time>2020-06-21T06:40:18Z</time>
      </trkpt>
      <trkpt lat="49.44331" lon="0.96892">
        <ele>40.5</ele>
        <time>2020-06-21T06:40:20Z</time>
      </trkpt>
      <trkpt lat="49.44331" lon="0.96896">
        <ele>40.7</ele>
        <time>2020-06-21T06:40:21Z</time>
      </trkpt>
      <trkpt lat="49.44332" lon="0.96901">
        <ele>41</ele>
        <time>2020-06-21T06:40:23Z</time>
      </trkpt>
      <trkpt lat="49.44332" lon="0.96904">
        <ele>41.2</ele>
        <time>2020-06-21T06:40:24Z</time>
      </trkpt>
      <trkpt lat="49.44332" lon="0.96909">
        <ele>41.5</ele>
        <time>2020-06-21T06:40:26Z</time>
      </trkpt>
      <trkpt lat="49.44332" lon="0.96914">
        <ele>41.8</ele>
        <time>2020-06-21T06:40:28Z</time>
      </trkpt>
      <trkpt lat="49.44331" lon="0.96918">
        <ele>42</ele>
        <time>2020-06-21T06:40:29Z</time>
      </trkpt>
      <trkpt lat="49.4433" lon="0.96924">
        <ele>42.4</ele>
        <time>2020-06-21T06:40:31Z</time>
      </trkpt>
      <trkpt lat="49.44329" lon="0.96931">
        <ele>42.8</ele>
        <time>2020-06-21T06:40:33Z</time>
      </trkpt>
      <trkpt lat="49.44329" lon="0.96935">
        <ele>43.1</ele>
        <time>2020-06-21T06:40:34Z</time>
      </trkpt>
      <trkpt lat="49.44329" lon="0.9694">
        <ele>43.4</ele>
        <time>2020-06-21T06:40:36Z</time>
      </trkpt>
      <trkpt lat="49.44329" lon="0.96943">
        <ele>43.6</ele>
        <time>2020-06-21T06:40:37Z</time>
      </trkpt>
      <trkpt lat="49.44329" lon="0.9695">
        <ele>44</ele>
        <time>2020-06-21T06:40:39Z</time>
      </trkpt>
      <trkpt lat="49.44328" lon="0.96953">
        <ele>44.1</ele>
        <time>2020-06-21T06:40:40Z</time>
      </trkpt>
      <trkpt lat="49.44328" lon="0.96955">
        <ele>44.3</ele>
        <time>2020-06-21T06:40:41Z</time>
      </trkpt>
      <trkpt lat="49.44328" lon="0.96959">
        <ele>44.5</ele>
        <time>2020-06-21T06:40:43Z</time>
      </trkpt>
      <trkpt lat="49.44328" lon="0.96962">
        <ele>44.7</ele>
        <time>2020-06-21T06:40:45Z</time>
      </trkpt>
      <trkpt lat="49.44328" lon="0.96966">
        <ele>45</ele>
        <time>2020-06-21T06:40:46Z</time>
      </trkpt>
      <trkpt lat="49.44327" lon="0.96968">
        <ele>45.1</ele>
        <time>2020-06-21T06:40:47Z</time>
      </trkpt>
      <trkpt lat="49.44326" lon="0.96971">
        <ele>45.3</ele>
        <time>2020-06-21T06:40:49Z</time>
      </trkpt>
      <trkpt lat="49.44326" lon="0.96973">
        <ele>45.4</ele>
        <time>2020-06-21T06:40:50Z</time>
      </trkpt>
      <trkpt lat="49.44325" lon="0.96977">
        <ele>45.7</ele>
        <time>2020-06-21T06:40:52Z</time>
      </trkpt>
      <trkpt lat="49.44324" lon="0.96978">
        <ele>45.7</ele>
        <time>2020-06-21T06:40:53Z</time>
      </trkpt>
      <trkpt lat="49.44322" lon="0.96985">
        <ele>46.2</ele>
        <time>2020-06-21T06:40:56Z</time>
      </trkpt>
      <trkpt lat="49.44321" lon="0.96987">
        <ele>46.3</ele>
        <time>2020-06-21T06:40:57Z</time>
      </trkpt>
      <trkpt lat="49.4432" lon="0.96989">
        <ele>46.5</ele>
        <time>2020-06-21T06:40:58Z</time>
      </trkpt>
      <trkpt lat="49.44319" lon="0.96991">
        <ele>46.6</ele>
        <time>2020-06-21T06:40:59Z</time>
      </trkpt>
      <trkpt lat="49.44318" lon="0.96993">
        <ele>46.8</ele>
        <time>2020-06-21T06:41:01Z</time>
      </trkpt>
      <trkpt lat="49.44316" lon="0.96996">
        <ele>47.1</ele>
        <time>2020-06-21T06:41:02Z</time>
      </trkpt>
      <trkpt lat="49.44313" lon="0.96999">
        <ele>47.3</ele>
        <time>2020-06-21T06:41:03Z</time>
      </trkpt>
      <trkpt lat="49.44312" lon="0.97003">
        <ele>47.6</ele>
        <time>2020-06-21T06:41:04Z</time>
      </trkpt>
      <trkpt lat="49.4431" lon="0.97006">
        <ele>47.9</ele>
        <time>2020-06-21T06:41:05Z</time>
      </trkpt>
      <trkpt lat="49.44308" lon="0.9701">
        <ele>48.2</ele>
        <time>2020-06-21T06:41:06Z</time>
      </trkpt>
      <trkpt lat="49.44306" lon="0.97016">
        <ele>48.5</ele>
        <time>2020-06-21T06:41:08Z</time>
      </trkpt>
      <trkpt lat="49.44305" lon="0.97019">
        <ele>48.7</ele>
        <time>2020-06-21T06:41:09Z</time>
      </trkpt>
      <trkpt lat="49.44304" lon="0.97023">
        <ele>49</ele>
        <time>2020-06-21T06:41:10Z</time>
      </trkpt>
      <trkpt lat="49.44304" lon="0.97025">
        <ele>49.1</ele>
        <time>2020-06-21T06:41:12Z</time>
      </trkpt>
      <trkpt lat="49.44304" lon="0.97027">
        <ele>49.3</ele>
        <time>2020-06-21T06:41:13Z</time>
      </trkpt>
      <trkpt lat="49.44303" lon="0.97029">
        <ele>49.4</ele>
        <time>2020-06-21T06:41:14Z</time>
      </trkpt>
      <trkpt lat="49.44303" lon="0.97034">
        <ele>49.6</ele>
        <time>2020-06-21T06:41:16Z</time>
      </trkpt>
      <trkpt lat="49.44302" lon="0.97035">
        <ele>49.7</ele>
        <time>2020-06-21T06:41:17Z</time>
      </trkpt>
      <trkpt lat="49.44302" lon="0.97037">
        <ele>49.9</ele>
        <time>2020-06-21T06:41:18Z</time>
      </trkpt>
      <trkpt lat="49.44301" lon="0.97043">
        <ele>50.2</ele>
        <time>2020-06-21T06:41:20Z</time>
      </trkpt>
      <trkpt lat="49.44301" lon="0.97045">
        <ele>50.3</ele>
        <time>2020-06-21T06:41:21Z</time>
      </trkpt>
      <trkpt lat="49.44301" lon="0.97048">
        <ele>50.5</ele>
        <time>2020-06-21T06:41:22Z</time>
      </trkpt>
      <trkpt lat="49.443" lon="0.97052">
        <ele>50.7</ele>
        <time>2020-06-21T06:41:24Z</time>
      </trkpt>
      <trkpt lat="49.443" lon="0.97057">
        <ele>51</ele>
        <time>2020-06-21T06:41:26Z</time>
      </trkpt>
      <trkpt lat="49.443" lon="0.9706">
        <ele>51.2</ele>
        <time>2020-06-21T06:41:27Z</time>
      </trkpt>
      <trkpt lat="49.443" lon="0.97064">
        <ele>51.4</ele>
        <time>2020-06-21T06:41:29Z</time>
      </trkpt>
      <trkpt lat="49.44301" lon="0.97069">
        <ele>51.7</ele>
        <time>2020-06-21T06:41:30Z</time>
      </trkpt>
      <trkpt lat="49.443" lon="0.9707">
        <ele>51.8</ele>
        <time>2020-06-21T06:41:31Z</time>
      </trkpt>
      <trkpt lat="49.44301" lon="0.97073">
        <ele>51.9</ele>
        <time>2020-06-21T06:41:32Z</time>
      </trkpt>
      <trkpt lat="49.44301" lon="0.97075">
        <ele>52.1</ele>
        <time>2020-06-21T06:41:33Z</time>
      </trkpt>
      <trkpt lat="49.44301" lon="0.97078">
        <ele>52.2</ele>
        <time>2020-06-21T06:41:34Z</time>
      </trkpt>
      <trkpt lat="49.443" lon="0.9708">
        <ele>52.4</ele>
        <time>2020-06-21T06:41:36Z</time>
      </trkpt>
      <trkpt lat="49.443" lon="0.97083">
        <ele>52.5</ele>
        <time>2020-06-21T06:41:37Z</time>
      </trkpt>
      <trkpt lat="49.44299" lon="0.97087">
        <ele>52.7</ele>
        <time>2020-06-21T06:41:39Z</time>
      </trkpt>
      <trkpt lat="49.44298" lon="0.9709">
        <ele>52.9</ele>
        <time>2020-06-21T06:41:40Z</time>
      </trkpt>
      <trkpt lat="49.44297" lon="0.97093">
        <ele>53.1</ele>
        <time>2020-06-21T06:41:42Z</time>
      </trkpt>
      <trkpt lat="49.44296" lon="0.97095">
        <ele>53.2</ele>
        <time>2020-06-21T06:41:43Z</time>
      </trkpt>
      <trkpt lat="49.44295" lon="0.97098">
        <ele>53.5</ele>
        <time>2020-06-21T06:41:45Z</time>
      </trkpt>
      <trkpt lat="49.44294" lon="0.97101">
        <ele>53.6</ele>
        <time>2020-06-21T06:41:47Z</time>
      </trkpt>
      <trkpt lat="49.44294" lon="0.97105">
        <ele>53.8</ele>
        <time>2020-06-21T06:41:49Z</time>
      </trkpt>
      <trkpt lat="49.44294" lon="0.9711">
        <ele>54.1</ele>
        <time>2020-06-21T06:41:51Z</time>
      </trkpt>
      <trkpt lat="49.44293" lon="0.97113">
        <ele>54.3</ele>
        <time>2020-06-21T06:41:52Z</time>
      </trkpt>
      <trkpt lat="49.44293" lon="0.97116">
        <ele>54.4</ele>
        <time>2020-06-21T06:41:54Z</time>
      </trkpt>
      <trkpt lat="49.44293" lon="0.97122">
        <ele>54.7</ele>
        <time>2020-06-21T06:41:55Z</time>
      </trkpt>
      <trkpt lat="49.44292" lon="0.97123">
        <ele>54.8</ele>
        <time>2020-06-21T06:41:56Z</time>
      </trkpt>
      <trkpt lat="49.44292" lon="0.97128">
        <ele>55</ele>
        <time>2020-06-21T06:41:58Z</time>
      </trkpt>
      <trkpt lat="49.44292" lon="0.97134">
        <ele>55.3</ele>
        <time>2020-06-21T06:41:59Z</time>
      </trkpt>
      <trkpt lat="49.44293" lon="0.97136">
        <ele>55.4</ele>
        <time>2020-06-21T06:42:00Z</time>
      </trkpt>
      <trkpt lat="49.44293" lon="0.97143">
        <ele>55.8</ele>
        <time>2020-06-21T06:42:02Z</time>
      </trkpt>
      <trkpt lat="49.44293" lon="0.97145">
        <ele>55.9</ele>
        <time>2020-06-21T06:42:03Z</time>
      </trkpt>
      <trkpt lat="49.44293" lon="0.97147">
        <ele>56</ele>
        <time>2020-06-21T06:42:04Z</time>
      </trkpt>
      <trkpt lat="49.44293" lon="0.9715">
        <ele>56.2</ele>
        <time>2020-06-21T06:42:05Z</time>
      </trkpt>
      <trkpt lat="49.44293" lon="0.97154">
        <ele>56.4</ele>
        <time>2020-06-21T06:42:07Z</time>
      </trkpt>
      <trkpt lat="49.44293" lon="0.97159">
        <ele>56.6</ele>
        <time>2020-06-21T06:42:08Z</time>
      </trkpt>
      <trkpt lat="49.44293" lon="0.9716">
        <ele>56.7</ele>
        <time>2020-06-21T06:42:09Z</time>
      </trkpt>
      <trkpt lat="49.44293" lon="0.97164">
        <ele>56.9</ele>
        <time>2020-06-21T06:42:10Z</time>
      </trkpt>
      <trkpt lat="49.44293" lon="0.97167">
        <ele>57.1</ele>
        <time>2020-06-21T06:42:12Z</time>
      </trkpt>
      <trkpt lat="49.44293" lon="0.9717">
        <ele>57.2</ele>
        <time>2020-06-21T06:42:13Z</time>
      </trkpt>
      <trkpt lat="49.44293" lon="0.97172">
        <ele>57.4</ele>
        <time>2020-06-21T06:42:14Z</time>
      </trkpt>
      <trkpt lat="49.44292" lon="0.97175">
        <ele>57.6</ele>
        <time>2020-06-21T06:42:15Z</time>
      </trkpt>
      <trkpt lat="49.44292" lon="0.97179">
        <ele>57.8</ele>
        <time>2020-06-21T06:42:17Z</time>
      </trkpt>
      <trkpt lat="49.44292" lon="0.97182">
        <ele>58</ele>
        <time>2020-06-21T06:42:18Z</time>
      </trkpt>
      <trkpt lat="49.44291" lon="0.97186">
        <ele>58.2</ele>
        <time>2020-06-21T06:42:20Z</time>
      </trkpt>
      <trkpt lat="49.44291" lon="0.97189">
        <ele>58.4</ele>
        <time>2020-06-21T06:42:22Z</time>
      </trkpt>
      <trkpt lat="49.44291" lon="0.97191">
        <ele>58.6</ele>
        <time>2020-06-21T06:42:23Z</time>
      </trkpt>
      <trkpt lat="49.44291" lon="0.97194">
        <ele>58.7</ele>
        <time>2020-06-21T06:42:24Z</time>
      </trkpt>
      <trkpt lat="49.44291" lon="0.97198">
        <ele>59</ele>
        <time>2020-06-21T06:42:26Z</time>
      </trkpt>
      <trkpt lat="49.44291" lon="0.97203">
        <ele>59.3</ele>
        <time>2020-06-21T06:42:27Z</time>
      </trkpt>
      <trkpt lat="49.4429" lon="0.97204">
        <ele>59.4</ele>
        <time>2020-06-21T06:42:28Z</time>
      </trkpt>
      <trkpt lat="49.4429" lon="0.97209">
        <ele>59.7</ele>
        <time>2020-06-21T06:42:29Z</time>
      </trkpt>
      <trkpt lat="49.4429" lon="0.97211">
        <ele>59.8</ele>
        <time>2020-06-21T06:42:30Z</time>
      </trkpt>
      <trkpt lat="49.4429" lon="0.97216">
        <ele>60.1</ele>
        <time>2020-06-21T06:42:32Z</time>
      </trkpt>
      <trkpt lat="49.4429" lon="0.97217">
        <ele>60.2</ele>
        <time>2020-06-21T06:42:33Z</time>
      </trkpt>
      <trkpt lat="49.44291" lon="0.97222">
        <ele>60.5</ele>
        <time>2020-06-21T06:42:35Z</time>
      </trkpt>
      <trkpt lat="49.44291" lon="0.97225">
        <ele>60.7</ele>
        <time>2020-06-21T06:42:36Z</time>
      </trkpt>
      <trkpt lat="49.44291" lon="0.97228">
        <ele>60.9</ele>
        <time>2020-06-21T06:42:37Z</time>
      </trkpt>
      <trkpt lat="49.44291" lon="0.97234">
        <ele>61.3</ele>
        <time>2020-06-21T06:42:39Z</time>
      </trkpt>
      <trkpt lat="49.44291" lon="0.97235">
        <ele>61.4</ele>
        <time>2020-06-21T06:42:40Z</time>
      </trkpt>
      <trkpt lat="49.44289" lon="0.97238">
        <ele>61.6</ele>
        <time>2020-06-21T06:42:41Z</time>
      </trkpt>
      <trkpt lat="49.44288" lon="0.97241">
        <ele>61.8</ele>
        <time>2020-06-21T06:42:43Z</time>
      </trkpt>
      <trkpt lat="49.44287" lon="0.97244">
        <ele>62</ele>
        <time>2020-06-21T06:42:44Z</time>
      </trkpt>
      <trkpt lat="49.44285" lon="0.97247">
        <ele>62.3</ele>
        <time>2020-06-21T06:42:46Z</time>
      </trkpt>
      <trkpt lat="49.44283" lon="0.9725">
        <ele>62.5</ele>
        <time>2020-06-21T06:42:47Z</time>
      </trkpt>
      <trkpt lat="49.44281" lon="0.97254">
        <ele>62.8</ele>
        <time>2020-06-21T06:42:49Z</time>
      </trkpt>
      <trkpt lat="49.44279" lon="0.97257">
        <ele>63.1</ele>
        <time>2020-06-21T06:42:51Z</time>
      </trkpt>
      <trkpt lat="49.44278" lon="0.9726">
        <ele>63.3</ele>
        <time>2020-06-21T06:42:52Z</time>
      </trkpt>
      <trkpt lat="49.44277" lon="0.97262">
        <ele>63.5</ele>
        <time>2020-06-21T06:42:53Z</time>
      </trkpt>
      <trkpt lat="49.44276" lon="0.97264">
        <ele>63.7</ele>
        <time>2020-06-21T06:42:54Z</time>
      </trkpt>
      <trkpt lat="49.44275" lon="0.97268">
        <ele>63.9</ele>
        <time>2020-06-21T06:42:56Z</time>
      </trkpt>
      <trkpt lat="49.44274" lon="0.97273">
        <ele>64.2</ele>
        <time>2020-06-21T06:42:58Z</time>
      </trkpt>
      <trkpt lat="49.44274" lon="0.97274">
        <ele>64.3</ele>
        <time>2020-06-21T06:42:59Z</time>
      </trkpt>
      <trkpt lat="49.44272" lon="0.97277">
        <ele>64.6</ele>
        <time>2020-06-21T06:43:00Z</time>
      </trkpt>
      <trkpt lat="49.44271" lon="0.97281">
        <ele>64.8</ele>
        <time>2020-06-21T06:43:02Z</time>
      </trkpt>
      <trkpt lat="49.4427" lon="0.97284">
        <ele>65</ele>
        <time>2020-06-21T06:43:04Z</time>
      </trkpt>
      <trkpt lat="49.44269" lon="0.97289">
        <ele>65.4</ele>
        <time>2020-06-21T06:43:05Z</time>
      </trkpt>
      <trkpt lat="49.44268" lon="0.97292">
        <ele>65.6</ele>
        <time>2020-06-21T06:43:07Z</time>
      </trkpt>
      <trkpt lat="49.44268" lon="0.97294">
        <ele>65.7</ele>
        <time>2020-06-21T06:43:08Z</time>
      </trkpt>
      <trkpt lat="49.44267" lon="0.973">
        <ele>66.1</ele>
        <time>2020-06-21T06:43:10Z</time>
      </trkpt>
      <trkpt lat="49.44267" lon="0.97304">
        <ele>66.3</ele>
        <time>2020-06-21T06:43:11Z</time>
      </trkpt>
      <trkpt lat="49.44267" lon="0.97306">
        <ele>66.5</ele>
        <time>2020-06-21T06:43:13Z</time>
      </trkpt>
      <trkpt lat="49.44267" lon="0.97311">
        <ele>66.8</ele>
        <time>2020-06-21T06:43:14Z</time>
      </trkpt>
      <trkpt lat="49.44267" lon="0.97313">
        <ele>66.9</ele>
        <time>2020-06-21T06:43:15Z</time>
      </trkpt>
      <trkpt lat="49.44267" lon="0.97316">
        <ele>67.1</ele>
        <time>2020-06-21T06:43:16Z</time>
      </trkpt>
      <trkpt lat="49.44267" lon="0.97318">
        <ele>67.3</ele>
        <time>2020-06-21T06:43:17Z</time>
      </trkpt>
      <trkpt lat="49.44267" lon="0.97324">
        <ele>67.7</ele>
        <time>2020-06-21T06:43:19Z</time>
      </trkpt>
      <trkpt lat="49.44266" lon="0.97326">
        <ele>67.8</ele>
        <time>2020-06-21T06:43:20Z</time>
      </trkpt>
      <trkpt lat="49.44266" lon="0.9733">
        <ele>68.1</ele>
        <time>2020-06-21T06:43:21Z</time>
      </trkpt>
      <trkpt lat="49.44265" lon="0.97331">
        <ele>68.2</ele>
        <time>2020-06-21T06:43:22Z</time>
      </trkpt>
      <trkpt lat="49.44264" lon="0.97334">
        <ele>68.4</ele>
        <time>2020-06-21T06:43:23Z</time>
      </trkpt>
      <trkpt lat="49.44263" lon="0.97338">
        <ele>68.6</ele>
        <time>2020-06-21T06:43:25Z</time>
      </trkpt>
      <trkpt lat="49.44262" lon="0.97342">
        <ele>69</ele>
        <time>2020-06-21T06:43:26Z</time>
      </trkpt>
      <trkpt lat="49.44261" lon="0.97343">
        <ele>69.1</ele>
        <time>2020-06-21T06:43:27Z</time>
      </trkpt>
      <trkpt lat="49.4426" lon="0.97346">
        <ele>69.3</ele>
        <time>2020-06-21T06:43:28Z</time>
      </trkpt>
      <trkpt lat="49.44258" lon="0.97352">
        <ele>69.7</ele>
        <time>2020-06-21T06:43:31Z</time>
      </trkpt>
      <trkpt lat="49.44257" lon="0.97355">
        <ele>69.9</ele>
        <time>2020-06-21T06:43:32Z</time>
      </trkpt>
      <trkpt lat="49.44256" lon="0.97357">
        <ele>70</ele>
        <time>2020-06-21T06:43:33Z</time>
      </trkpt>
      <trkpt lat="49.44256" lon="0.97358">
        <ele>70.2</ele>
        <time>2020-06-21T06:43:34Z</time>
      </trkpt>
      <trkpt lat="49.44255" lon="0.97362">
        <ele>70.4</ele>
        <time>2020-06-21T06:43:36Z</time>
      </trkpt>
      <trkpt lat="49.44253" lon="0.97365">
        <ele>70.7</ele>
        <time>2020-06-21T06:43:38Z</time>
      </trkpt>
      <trkpt lat="49.44253" lon="0.97369">
        <ele>70.9</ele>
        <time>2020-06-21T06:43:39Z</time>
      </trkpt>
      <trkpt lat="49.44252" lon="0.97371">
        <ele>71</ele>
        <time>2020-06-21T06:43:40Z</time>
      </trkpt>
      <trkpt lat="49.44252" lon="0.97373">
        <ele>71.2</ele>
        <time>2020-06-21T06:43:41Z</time>
      </trkpt>
      <trkpt lat="49.44252" lon="0.97376">
        <ele>71.4</ele>
        <time>2020-06-21T06:43:42Z</time>
      </trkpt>
      <trkpt lat="49.44251" lon="0.97381">
        <ele>71.6</ele>
        <time>2020-06-21T06:43:43Z</time>
      </trkpt>
      <trkpt lat="49.44251" lon="0.97382">
        <ele>71.7</ele>
        <time>2020-06-21T06:43:44Z</time>
      </trkpt>
      <trkpt lat="49.44249" lon="0.97387">
        <ele>72.1</ele>
        <time>2020-06-21T06:43:46Z</time>
      </trkpt>
      <trkpt lat="49.44249" lon="0.97389">
        <ele>72.2</ele>
        <time>2020-06-21T06:43:47Z</time>
      </trkpt>
      <trkpt lat="49.44249" lon="0.97394">
        <ele>72.5</ele>
        <time>2020-06-21T06:43:49Z</time>
      </trkpt>
      <trkpt lat="49.44248" lon="0.97397">
        <ele>72.7</ele>
        <time>2020-06-21T06:43:50Z</time>
      </trkpt>
      <trkpt lat="49.44248" lon="0.974">
        <ele>72.8</ele>
        <time>2020-06-21T06:43:51Z</time>
      </trkpt>
      <trkpt lat="49.44248" lon="0.97403">
        <ele>73</ele>
        <time>2020-06-21T06:43:53Z</time>
      </trkpt>
      <trkpt lat="49.44248" lon="0.97406">
        <ele>73.2</ele>
        <time>2020-06-21T06:43:54Z</time>
      </trkpt>
      <trkpt lat="49.44248" lon="0.97411">
        <ele>73.5</ele>
        <time>2020-06-21T06:43:56Z</time>
      </trkpt>
      <trkpt lat="49.44248" lon="0.97413">
        <ele>73.6</ele>
        <time>2020-06-21T06:43:57Z</time>
      </trkpt>
      <trkpt lat="49.44248" lon="0.97417">
        <ele>73.8</ele>
        <time>2020-06-21T06:43:59Z</time>
      </trkpt>
      <trkpt lat="49.44248" lon="0.97422">
        <ele>74.1</ele>
        <time>2020-06-21T06:44:00Z</time>
      </trkpt>
      <trkpt lat="49.44247" lon="0.97425">
        <ele>74.2</ele>
        <time>2020-06-21T06:44:01Z</time>
      </trkpt>
      <trkpt lat="49.44247" lon="0.97428">
        <ele>74.4</ele>
        <time>2020-06-21T06:44:03Z</time>
      </trkpt>
      <trkpt lat="49.44246" lon="0.97432">
        <ele>74.6</ele>
        <time>2020-06-21T06:44:04Z</time>
      </trkpt>
      <trkpt lat="49.44245" lon="0.97438">
        <ele>74.9</ele>
        <time>2020-06-21T06:44:06Z</time>
      </trkpt>
      <trkpt lat="49.44244" lon="0.97444">
        <ele>75.3</ele>
        <time>2020-06-21T06:44:08Z</time>
      </trkpt>
      <trkpt lat="49.44244" lon="0.97445">
        <ele>75.4</ele>
        <time>2020-06-21T06:44:09Z</time>
      </trkpt>
      <trkpt lat="49.44243" lon="0.97447">
        <ele>75.5</ele>
        <time>2020-06-21T06:44:10Z</time>
      </trkpt>
      <trkpt lat="49.44241" lon="0.97452">
        <ele>75.9</ele>
        <time>2020-06-21T06:44:11Z</time>
      </trkpt>
      <trkpt lat="49.4424" lon="0.97454">
        <ele>76</ele>
        <time>2020-06-21T06:44:12Z</time>
      </trkpt>
      <trkpt lat="49.44239" lon="0.97459">
        <ele>76.3</ele>
        <time>2020-06-21T06:44:14Z</time>
      </trkpt>
      <trkpt lat="49.44238" lon="0.9746">
        <ele>76.4</ele>
        <time>2020-06-21T06:44:15Z</time>
      </trkpt>
      <trkpt lat="49.44238" lon="0.97463">
        <ele>76.5</ele>
        <time>2020-06-21T06:44:16Z</time>
      </trkpt>
      <trkpt lat="49.44236" lon="0.97468">
        <ele>76.8</ele>
        <time>2020-06-21T06:44:18Z</time>
      </trkpt>
      <trkpt lat="49.44236" lon="0.97472">
        <ele>77</ele>
        <time>2020-06-21T06:44:19Z</time>
      </trkpt>
      <trkpt lat="49.44235" lon="0.97477">
        <ele>77.3</ele>
        <time>2020-06-21T06:44:21Z</time>
      </trkpt>
      <trkpt lat="49.44234" lon="0.97479">
        <ele>77.4</ele>
        <time>2020-06-21T06:44:22Z</time>
      </trkpt>
      <trkpt lat="49.44234" lon="0.97485">
        <ele>77.8</ele>
        <time>2020-06-21T06:44:24Z</time>
      </trkpt>
      <trkpt lat="49.44233" lon="0.97488">
        <ele>77.9</ele>
        <time>2020-06-21T06:44:25Z</time>
      </trkpt>
      <trkpt lat="49.44233" lon="0.97492">
        <ele>78.2</ele>
        <time>2020-06-21T06:44:27Z</time>
      </trkpt>
      <trkpt lat="49.44233" lon="0.97494">
        <ele>78.3</ele>
        <time>2020-06-21T06:44:28Z</time>
      </trkpt>
      <trkpt lat="49.44231" lon="0.97499">
        <ele>78.5</ele>
        <time>2020-06-21T06:44:29Z</time>
      </trkpt>
      <trkpt lat="49.44231" lon="0.975">
        <ele>78.6</ele>
        <time>2020-06-21T06:44:30Z</time>
      </trkpt>
      <trkpt lat="49.4423" lon="0.97504">
        <ele>78.9</ele>
        <time>2020-06-21T06:44:31Z</time>
      </trkpt>
      <trkpt lat="49.4423" lon="0.97507">
        <ele>79</ele>
        <time>2020-06-21T06:44:32Z</time>
      </trkpt>
      <trkpt lat="49.44229" lon="0.97511">
        <ele>79.2</ele>
        <time>2020-06-21T06:44:34Z</time>
      </trkpt>
      <trkpt lat="49.44228" lon="0.97515">
        <ele>79.5</ele>
        <time>2020-06-21T06:44:35Z</time>
      </trkpt>
      <trkpt lat="49.44227" lon="0.97521">
        <ele>79.8</ele>
        <time>2020-06-21T06:44:37Z</time>
      </trkpt>
      <trkpt lat="49.44226" lon="0.97524">
        <ele>80</ele>
        <time>2020-06-21T06:44:38Z</time>
      </trkpt>
      <trkpt lat="49.44225" lon="0.97529">
        <ele>80.2</ele>
        <time>2020-06-21T06:44:40Z</time>
      </trkpt>
      <trkpt lat="49.44222" lon="0.97535">
        <ele>80.6</ele>
        <time>2020-06-21T06:44:41Z</time>
      </trkpt>
      <trkpt lat="49.44219" lon="0.97541">
        <ele>81</ele>
        <time>2020-06-21T06:44:42Z</time>
      </trkpt>
      <trkpt lat="49.44217" lon="0.97546">
        <ele>81.3</ele>
        <time>2020-06-21T06:44:43Z</time>
      </trkpt>
      <trkpt lat="49.44216" lon="0.9755">
        <ele>81.6</ele>
        <time>2020-06-21T06:44:45Z</time>
      </trkpt>
      <trkpt lat="49.44214" lon="0.97554">
        <ele>81.8</ele>
        <time>2020-06-21T06:44:46Z</time>
      </trkpt>
      <trkpt lat="49.44213" lon="0.97559">
        <ele>82.1</ele>
        <time>2020-06-21T06:44:47Z</time>
      </trkpt>
      <trkpt lat="49.44213" lon="0.97561">
        <ele>82.2</ele>
        <time>2020-06-21T06:44:48Z</time>
      </trkpt>
      <trkpt lat="49.44212" lon="0.97566">
        <ele>82.5</ele>
        <time>2020-06-21T06:44:49Z</time>
      </trkpt>
      <trkpt lat="49.44211" lon="0.97568">
        <ele>82.6</ele>
        <time>2020-06-21T06:44:50Z</time>
      </trkpt>
      <trkpt lat="49.4421" lon="0.97572">
        <ele>82.9</ele>
        <time>2020-06-21T06:44:52Z</time>
      </trkpt>
      <trkpt lat="49.44209" lon="0.97573">
        <ele>83</ele>
        <time>2020-06-21T06:44:53Z</time>
      </trkpt>
      <trkpt lat="49.44209" lon="0.97579">
        <ele>83.2</ele>
        <time>2020-06-21T06:44:54Z</time>
      </trkpt>
      <trkpt lat="49.44208" lon="0.97582">
        <ele>83.4</ele>
        <time>2020-06-21T06:44:56Z</time>
      </trkpt>
      <trkpt lat="49.44208" lon="0.97586">
        <ele>83.6</ele>
        <time>2020-06-21T06:44:58Z</time>
      </trkpt>
      <trkpt lat="49.44206" lon="0.97587">
        <ele>83.7</ele>
        <time>2020-06-21T06:44:59Z</time>
      </trkpt>
      <trkpt lat="49.44205" lon="0.97586">
        <ele>83.8</ele>
        <time>2020-06-21T06:45:01Z</time>
      </trkpt>
      <trkpt lat="49.44205" lon="0.97586">
        <ele>83.9</ele>
        <time>2020-06-21T06:45:02Z</time>
      </trkpt>
      <trkpt lat="49.44204" lon="0.97585">
        <ele>84</ele>
        <time>2020-06-21T06:45:03Z</time>
      </trkpt>
      <trkpt lat="49.44203" lon="0.97582">
        <ele>86.6</ele>
        <time>2020-06-21T06:45:05Z</time>
      </trkpt>
      <trkpt lat="49.44202" lon="0.9758">
        <ele>86.6</ele>
        <time>2020-06-21T06:45:06Z</time>
      </trkpt>
      <trkpt lat="49.442" lon="0.97578">
        <ele>86.6</ele>
        <time>2020-06-21T06:45:08Z</time>
      </trkpt>
      <trkpt lat="49.44199" lon="0.97577">
        <ele>86.6</ele>
        <time>2020-06-21T06:45:09Z</time>
      </trkpt>
      <trkpt lat="49.44197" lon="0.97576">
        <ele>86.6</ele>
        <time>2020-06-21T06:45:10Z</time>
      </trkpt>
      <trkpt lat="49.44195" lon="0.97575">
        <ele>86.6</ele>
        <time>2020-06-21T06:45:11Z</time>
      </trkpt>
      <trkpt lat="49.44193" lon="0.97573">
        <ele>86.6</ele>
        <time>2020-06-21T06:45:13Z</time>
      </trkpt>
      <trkpt lat="49.44189" lon="0.9757">
        <ele>86.5</ele>
        <time>2020-06-21T06:45:14Z</time>
      </trkpt>
      <trkpt lat="49.44187" lon="0.97568">
        <ele>86.5</ele>
        <time>2020-06-21T06:45:15Z</time>
      </trkpt>
      <trkpt lat="49.44185" lon="0.97567">
        <ele>86.6</ele>
        <time>2020-06-21T06:45:16Z</time>
      </trkpt>
      <trkpt lat="49.44181" lon="0.97565">
        <ele>86.6</ele>
        <time>2020-06-21T06:45:18Z</time>
      </trkpt>
      <trkpt lat="49.44178" lon="0.97562">
        <ele>86.6</ele>
        <time>2020-06-21T06:45:19Z</time>
      </trkpt>
      <trkpt lat="49.44173" lon="0.9756">
        <ele>86.7</ele>
        <time>2020-06-21T06:45:20Z</time>
      </trkpt>
      <trkpt lat="49.44169" lon="0.97557">
        <ele>86.8</ele>
        <time>2020-06-21T06:45:22Z</time>
      </trkpt>
      <trkpt lat="49.44163" lon="0.97553">
        <ele>86.8</ele>
        <time>2020-06-21T06:45:23Z</time>
      </trkpt>
      <trkpt lat="49.44158" lon="0.9755">
        <ele>86.9</ele>
        <time>2020-06-21T06:45:25Z</time>
      </trkpt>
      <trkpt lat="49.44155" lon="0.97548">
        <ele>87</ele>
        <time>2020-06-21T06:45:26Z</time>
      </trkpt>
      <trkpt lat="49.44151" lon="0.97547">
        <ele>87</ele>
        <time>2020-06-21T06:45:28Z</time>
      </trkpt>
      <trkpt lat="49.44148" lon="0.97547">
        <ele>87.1</ele>
        <time>2020-06-21T06:45:29Z</time>
      </trkpt>
      <trkpt lat="49.44144" lon="0.97547">
        <ele>87.1</ele>
        <time>2020-06-21T06:45:30Z</time>
      </trkpt>
      <trkpt lat="49.44142" lon="0.97547">
        <ele>87.2</ele>
        <time>2020-06-21T06:45:31Z</time>
      </trkpt>
      <trkpt lat="49.44138" lon="0.97546">
        <ele>87.2</ele>
        <time>2020-06-21T06:45:33Z</time>
      </trkpt>
      <trkpt lat="49.44136" lon="0.97546">
        <ele>87.3</ele>
        <time>2020-06-21T06:45:34Z</time>
      </trkpt>
      <trkpt lat="49.44134" lon="0.97546">
        <ele>87.3</ele>
        <time>2020-06-21T06:45:35Z</time>
      </trkpt>
      <trkpt lat="49.44128" lon="0.97544">
        <ele>87.4</ele>
        <time>2020-06-21T06:45:37Z</time>
      </trkpt>
      <trkpt lat="49.44125" lon="0.97543">
        <ele>87.5</ele>
        <time>2020-06-21T06:45:38Z</time>
      </trkpt>
      <trkpt lat="49.44122" lon="0.97542">
        <ele>87.5</ele>
        <time>2020-06-21T06:45:39Z</time>
      </trkpt>
      <trkpt lat="49.44118" lon="0.97541">
        <ele>87.6</ele>
        <time>2020-06-21T06:45:41Z</time>
      </trkpt>
      <trkpt lat="49.44114" lon="0.97541">
        <ele>87.6</ele>
        <time>2020-06-21T06:45:42Z</time>
      </trkpt>
      <trkpt lat="49.44108" lon="0.9754">
        <ele>87.7</ele>
        <time>2020-06-21T06:45:43Z</time>
      </trkpt>
      <trkpt lat="49.44105" lon="0.97538">
        <ele>87.7</ele>
        <time>2020-06-21T06:45:45Z</time>
      </trkpt>
      <trkpt lat="49.44102" lon="0.97537">
        <ele>87.8</ele>
        <time>2020-06-21T06:45:46Z</time>
      </trkpt>
      <trkpt lat="49.44097" lon="0.97536">
        <ele>87.8</ele>
        <time>2020-06-21T06:45:47Z</time>
      </trkpt>
      <trkpt lat="49.44092" lon="0.97535">
        <ele>87.8</ele>
        <time>2020-06-21T06:45:48Z</time>
      </trkpt>
      <trkpt lat="49.44085" lon="0.97534">
        <ele>87.8</ele>
        <time>2020-06-21T06:45:50Z</time>
      </trkpt>
      <trkpt lat="49.4408" lon="0.97533">
        <ele>87.9</ele>
        <time>2020-06-21T06:45:51Z</time>
      </trkpt>
      <trkpt lat="49.44077" lon="0.97534">
        <ele>87.9</ele>
        <time>2020-06-21T06:45:52Z</time>
      </trkpt>
      <trkpt lat="49.44074" lon="0.97534">
        <ele>87.9</ele>
        <time>2020-06-21T06:45:53Z</time>
      </trkpt>
      <trkpt lat="49.44069" lon="0.97534">
        <ele>87.9</ele>
        <time>2020-06-21T06:45:55Z</time>
      </trkpt>
      <trkpt lat="49.44065" lon="0.97533">
        <ele>87.9</ele>
        <time>2020-06-21T06:45:56Z</time>
      </trkpt>
      <trkpt lat="49.44062" lon="0.97533">
        <ele>87.9</ele>
        <time>2020-06-21T06:45:57Z</time>
      </trkpt>
      <trkpt lat="49.44059" lon="0.97533">
        <ele>87.9</ele>
        <time>2020-06-21T06:45:58Z</time>
      </trkpt>
      <trkpt lat="49.44056" lon="0.97533">
        <ele>87.9</ele>
        <time>2020-06-21T06:46:00Z</time>
      </trkpt>
      <trkpt lat="49.44053" lon="0.97533">
        <ele>87.9</ele>
        <time>2020-06-21T06:46:01Z</time>
      </trkpt>
      <trkpt lat="49.44047" lon="0.97533">
        <ele>88</ele>
        <time>2020-06-21T06:46:02Z</time>
      </trkpt>
      <trkpt lat="49.44042" lon="0.97533">
        <ele>88</ele>
        <time>2020-06-21T06:46:03Z</time>
      </trkpt>
      <trkpt lat="49.44035" lon="0.97533">
        <ele>88</ele>
        <time>2020-06-21T06:46:05Z</time>
      </trkpt>
      <trkpt lat="49.4403" lon="0.97534">
        <ele>88</ele>
        <time>2020-06-21T06:46:06Z</time>
      </trkpt>
      <trkpt lat="49.44025" lon="0.97535">
        <ele>88</ele>
        <time>2020-06-21T06:46:07Z</time>
      </trkpt>
      <trkpt lat="49.44021" lon="0.97534">
        <ele>88</ele>
        <time>2020-06-21T06:46:08Z</time>
      </trkpt>
      <trkpt lat="49.44017" lon="0.97532">
        <ele>88.1</ele>
        <time>2020-06-21T06:46:09Z</time>
      </trkpt>
      <trkpt lat="49.44013" lon="0.9753">
        <ele>88.1</ele>
        <time>2020-06-21T06:46:11Z</time>
      </trkpt>
      <trkpt lat="49.44008" lon="0.9753">
        <ele>88.1</ele>
        <time>2020-06-21T06:46:12Z</time>
      </trkpt>
      <trkpt lat="49.44003" lon="0.97531">
        <ele>88.1</ele>
        <time>2020-06-21T06:46:13Z</time>
      </trkpt>
      <trkpt lat="49.44" lon="0.97531">
        <ele>88.1</ele>
        <time>2020-06-21T06:46:15Z</time>
      </trkpt>
      <trkpt lat="49.43996" lon="0.9753">
        <ele>88.1</ele>
        <time>2020-06-21T06:46:16Z</time>
      </trkpt>
      <trkpt lat="49.43994" lon="0.9753">
        <ele>88.1</ele>
        <time>2020-06-21T06:46:18Z</time>
      </trkpt>
      <trkpt lat="49.43994" lon="0.97529">
        <ele>88.1</ele>
        <time>2020-06-21T06:46:19Z</time>
      </trkpt>
      <trkpt lat="49.43993" lon="0.97529">
        <ele>88.1</ele>
        <time>2020-06-21T06:46:21Z</time>
      </trkpt>
      <trkpt lat="49.43992" lon="0.97528">
        <ele>88.1</ele>
        <time>2020-06-21T06:46:23Z</time>
      </trkpt>
      <trkpt lat="49.43992" lon="0.97528">
        <ele>88.1</ele>
        <time>2020-06-21T06:46:24Z</time>
      </trkpt>
      <trkpt lat="49.43991" lon="0.97528">
        <ele>88.1</ele>
        <time>2020-06-21T06:46:26Z</time>
      </trkpt>
      <trkpt lat="49.43991" lon="0.97528">
        <ele>88.1</ele>
        <time>2020-06-21T06:46:27Z</time>
      </trkpt>
      <trkpt lat="49.43992" lon="0.97527">
        <ele>88.1</ele>
        <time>2020-06-21T06:46:29Z</time>
      </trkpt>
      <trkpt lat="49.43992" lon="0.97526">
        <ele>88.1</ele>
        <time>2020-06-21T06:46:30Z</time>
      </trkpt>
      <trkpt lat="49.43993" lon="0.97527">
        <ele>88.1</ele>
        <time>2020-06-21T06:46:32Z</time>
      </trkpt>
      <trkpt lat="49.43993" lon="0.97527">
        <ele>88.1</ele>
        <time>2020-06-21T06:46:33Z</time>
      </trkpt>
      <trkpt lat="49.43993" lon="0.97527">
        <ele>88.1</ele>
        <time>2020-06-21T06:46:35Z</time>
      </trkpt>
      <trkpt lat="49.43995" lon="0.97526">
        <ele>88.1</ele>
        <time>2020-06-21T06:46:37Z</time>
      </trkpt>
      <trkpt lat="49.43995" lon="0.97526">
        <ele>88.1</ele>
        <time>2020-06-21T06:46:38Z</time>
      </trkpt>
      <trkpt lat="49.43994" lon="0.97526">
        <ele>88.1</ele>
        <time>2020-06-21T06:46:40Z</time>
      </trkpt>
      <trkpt lat="49.43993" lon="0.97527">
        <ele>88.1</ele>
        <time>2020-06-21T06:46:41Z</time>
      </trkpt>
      <trkpt lat="49.43992" lon="0.97527">
        <ele>88.1</ele>
        <time>2020-06-21T06:46:42Z</time>
      </trkpt>
      <trkpt lat="49.43991" lon="0.97527">
        <ele>88</ele>
        <time>2020-06-21T06:46:43Z</time>
      </trkpt>
      <trkpt lat="49.43988" lon="0.97529">
        <ele>88</ele>
        <time>2020-06-21T06:46:45Z</time>
      </trkpt>
      <trkpt lat="49.43987" lon="0.97529">
        <ele>88</ele>
        <time>2020-06-21T06:46:46Z</time>
      </trkpt>
      <trkpt lat="49.43984" lon="0.9753">
        <ele>88</ele>
        <time>2020-06-21T06:46:47Z</time>
      </trkpt>
      <trkpt lat="49.4398" lon="0.9753">
        <ele>88</ele>
        <time>2020-06-21T06:46:49Z</time>
      </trkpt>
      <trkpt lat="49.43975" lon="0.97531">
        <ele>88</ele>
        <time>2020-06-21T06:46:50Z</time>
      </trkpt>
      <trkpt lat="49.43972" lon="0.97531">
        <ele>88</ele>
        <time>2020-06-21T06:46:52Z</time>
      </trkpt>
      <trkpt lat="49.43969" lon="0.9753">
        <ele>88</ele>
        <time>2020-06-21T06:46:53Z</time>
      </trkpt>
      <trkpt lat="49.43957" lon="0.97531">
        <ele>88.1</ele>
        <time>2020-06-21T06:46:55Z</time>
      </trkpt>
      <trkpt lat="49.43952" lon="0.9753">
        <ele>88.1</ele>
        <time>2020-06-21T06:46:56Z</time>
      </trkpt>
      <trkpt lat="49.43948" lon="0.9753">
        <ele>88.2</ele>
        <time>2020-06-21T06:46:57Z</time>
      </trkpt>
      <trkpt lat="49.43944" lon="0.97529">
        <ele>88.2</ele>
        <time>2020-06-21T06:46:58Z</time>
      </trkpt>
      <trkpt lat="49.43941" lon="0.97529">
        <ele>88.2</ele>
        <time>2020-06-21T06:46:59Z</time>
      </trkpt>
      <trkpt lat="49.43936" lon="0.9753">
        <ele>88.2</ele>
        <time>2020-06-21T06:47:01Z</time>
      </trkpt>
      <trkpt lat="49.43931" lon="0.9753">
        <ele>88.2</ele>
        <time>2020-06-21T06:47:02Z</time>
      </trkpt>
      <trkpt lat="49.43928" lon="0.9753">
        <ele>88.2</ele>
        <time>2020-06-21T06:47:03Z</time>
      </trkpt>
      <trkpt lat="49.43921" lon="0.97529">
        <ele>88.2</ele>
        <time>2020-06-21T06:47:05Z</time>
      </trkpt>
      <trkpt lat="49.43918" lon="0.97529">
        <ele>88.2</ele>
        <time>2020-06-21T06:47:06Z</time>
      </trkpt>
      <trkpt lat="49.43911" lon="0.9753">
        <ele>88.2</ele>
        <time>2020-06-21T06:47:08Z</time>
      </trkpt>
      <trkpt lat="49.43907" lon="0.97529">
        <ele>88.2</ele>
        <time>2020-06-21T06:47:09Z</time>
      </trkpt>
      <trkpt lat="49.43902" lon="0.97528">
        <ele>88.2</ele>
        <time>2020-06-21T06:47:11Z</time>
      </trkpt>
      <trkpt lat="49.43897" lon="0.97526">
        <ele>88.2</ele>
        <time>2020-06-21T06:47:13Z</time>
      </trkpt>
      <trkpt lat="49.43894" lon="0.97524">
        <ele>88.2</ele>
        <time>2020-06-21T06:47:14Z</time>
      </trkpt>
      <trkpt lat="49.43892" lon="0.97523">
        <ele>88.2</ele>
        <time>2020-06-21T06:47:15Z</time>
      </trkpt>
      <trkpt lat="49.43889" lon="0.97522">
        <ele>88.2</ele>
        <time>2020-06-21T06:47:16Z</time>
      </trkpt>
      <trkpt lat="49.43882" lon="0.97519">
        <ele>88.2</ele>
        <time>2020-06-21T06:47:18Z</time>
      </trkpt>
      <trkpt lat="49.43875" lon="0.97519">
        <ele>88.3</ele>
        <time>2020-06-21T06:47:20Z</time>
      </trkpt>
      <trkpt lat="49.43872" lon="0.97519">
        <ele>88.3</ele>
        <time>2020-06-21T06:47:21Z</time>
      </trkpt>
      <trkpt lat="49.43865" lon="0.9752">
        <ele>88.3</ele>
        <time>2020-06-21T06:47:23Z</time>
      </trkpt>
      <trkpt lat="49.43858" lon="0.97522">
        <ele>88.3</ele>
        <time>2020-06-21T06:47:25Z</time>
      </trkpt>
      <trkpt lat="49.43851" lon="0.97523">
        <ele>88.3</ele>
        <time>2020-06-21T06:47:27Z</time>
      </trkpt>
      <trkpt lat="49.43841" lon="0.97522">
        <ele>88.4</ele>
        <time>2020-06-21T06:47:29Z</time>
      </trkpt>
      <trkpt lat="49.43834" lon="0.9752">
        <ele>88.4</ele>
        <time>2020-06-21T06:47:31Z</time>
      </trkpt>
      <trkpt lat="49.43828" lon="0.97517">
        <ele>88.4</ele>
        <time>2020-06-21T06:47:33Z</time>
      </trkpt>
      <trkpt lat="49.43824" lon="0.97515">
        <ele>88.4</ele>
        <time>2020-06-21T06:47:34Z</time>
      </trkpt>
      <trkpt lat="49.43816" lon="0.97514">
        <ele>88.4</ele>
        <time>2020-06-21T06:47:36Z</time>
      </trkpt>
      <trkpt lat="49.43813" lon="0.97514">
        <ele>88.5</ele>
        <time>2020-06-21T06:47:37Z</time>
      </trkpt>
      <trkpt lat="49.43808" lon="0.97514">
        <ele>88.5</ele>
        <time>2020-06-21T06:47:38Z</time>
      </trkpt>
      <trkpt lat="49.43804" lon="0.97514">
        <ele>88.5</ele>
        <time>2020-06-21T06:47:39Z</time>
      </trkpt>
      <trkpt lat="49.43799" lon="0.97514">
        <ele>88.6</ele>
        <time>2020-06-21T06:47:41Z</time>
      </trkpt>
      <trkpt lat="49.43795" lon="0.97513">
        <ele>88.6</ele>
        <time>2020-06-21T06:47:42Z</time>
      </trkpt>
      <trkpt lat="49.43787" lon="0.97511">
        <ele>88.7</ele>
        <time>2020-06-21T06:47:44Z</time>
      </trkpt>
      <trkpt lat="49.43782" lon="0.97511">
        <ele>88.7</ele>
        <time>2020-06-21T06:47:45Z</time>
      </trkpt>
      <trkpt lat="49.43777" lon="0.9751">
        <ele>88.8</ele>
        <time>2020-06-21T06:47:46Z</time>
      </trkpt>
      <trkpt lat="49.43768" lon="0.97509">
        <ele>88.8</ele>
        <time>2020-06-21T06:47:48Z</time>
      </trkpt>
      <trkpt lat="49.43765" lon="0.97508">
        <ele>88.8</ele>
        <time>2020-06-21T06:47:49Z</time>
      </trkpt>
      <trkpt lat="49.43757" lon="0.97507">
        <ele>88.9</ele>
        <time>2020-06-21T06:47:51Z</time>
      </trkpt>
      <trkpt lat="49.43753" lon="0.97507">
        <ele>88.9</ele>
        <time>2020-06-21T06:47:52Z</time>
      </trkpt>
      <trkpt lat="49.43748" lon="0.97506">
        <ele>88.9</ele>
        <time>2020-06-21T06:47:53Z</time>
      </trkpt>
      <trkpt lat="49.4374" lon="0.97505">
        <ele>89</ele>
        <time>2020-06-21T06:47:55Z</time>
      </trkpt>
      <trkpt lat="49.43734" lon="0.97505">
        <ele>89</ele>
        <time>2020-06-21T06:47:56Z</time>
      </trkpt>
      <trkpt lat="49.43729" lon="0.97505">
        <ele>89.1</ele>
        <time>2020-06-21T06:47:57Z</time>
      </trkpt>
      <trkpt lat="49.43726" lon="0.97506">
        <ele>89.1</ele>
        <time>2020-06-21T06:47:59Z</time>
      </trkpt>
      <trkpt lat="49.43721" lon="0.97508">
        <ele>89.2</ele>
        <time>2020-06-21T06:48:00Z</time>
      </trkpt>
      <trkpt lat="49.43717" lon="0.9751">
        <ele>89.2</ele>
        <time>2020-06-21T06:48:01Z</time>
      </trkpt>
      <trkpt lat="49.43713" lon="0.97512">
        <ele>89.3</ele>
        <time>2020-06-21T06:48:02Z</time>
      </trkpt>
      <trkpt lat="49.43711" lon="0.97515">
        <ele>89.3</ele>
        <time>2020-06-21T06:48:04Z</time>
      </trkpt>
      <trkpt lat="49.43708" lon="0.97517">
        <ele>89.3</ele>
        <time>2020-06-21T06:48:05Z</time>
      </trkpt>
      <trkpt lat="49.43703" lon="0.97521">
        <ele>89.3</ele>
        <time>2020-06-21T06:48:07Z</time>
      </trkpt>
      <trkpt lat="49.437" lon="0.9752">
        <ele>89.4</ele>
        <time>2020-06-21T06:48:08Z</time>
      </trkpt>
      <trkpt lat="49.43695" lon="0.97517">
        <ele>89.4</ele>
        <time>2020-06-21T06:48:10Z</time>
      </trkpt>
      <trkpt lat="49.43691" lon="0.97516">
        <ele>89.4</ele>
        <time>2020-06-21T06:48:11Z</time>
      </trkpt>
      <trkpt lat="49.43687" lon="0.97516">
        <ele>89.3</ele>
        <time>2020-06-21T06:48:12Z</time>
      </trkpt>
      <trkpt lat="49.43683" lon="0.97515">
        <ele>89.3</ele>
        <time>2020-06-21T06:48:13Z</time>
      </trkpt>
      <trkpt lat="49.4368" lon="0.97515">
        <ele>89.3</ele>
        <time>2020-06-21T06:48:14Z</time>
      </trkpt>
      <trkpt lat="49.43675" lon="0.97517">
        <ele>89.3</ele>
        <time>2020-06-21T06:48:16Z</time>
      </trkpt>
      <trkpt lat="49.43672" lon="0.97519">
        <ele>89.3</ele>
        <time>2020-06-21T06:48:17Z</time>
      </trkpt>
      <trkpt lat="49.43668" lon="0.97522">
        <ele>89.3</ele>
        <time>2020-06-21T06:48:18Z</time>
      </trkpt>
      <trkpt lat="49.43664" lon="0.97525">
        <ele>89.3</ele>
        <time>2020-06-21T06:48:19Z</time>
      </trkpt>
      <trkpt lat="49.43661" lon="0.97528">
        <ele>89.3</ele>
        <time>2020-06-21T06:48:20Z</time>
      </trkpt>
      <trkpt lat="49.43655" lon="0.97532">
        <ele>89.3</ele>
        <time>2020-06-21T06:48:21Z</time>
      </trkpt>
      <trkpt lat="49.43651" lon="0.97535">
        <ele>89.3</ele>
        <time>2020-06-21T06:48:22Z</time>
      </trkpt>
      <trkpt lat="49.43645" lon="0.9754">
        <ele>89.4</ele>
        <time>2020-06-21T06:48:24Z</time>
      </trkpt>
      <trkpt lat="49.43641" lon="0.97542">
        <ele>89.4</ele>
        <time>2020-06-21T06:48:25Z</time>
      </trkpt>
      <trkpt lat="49.43636" lon="0.97546">
        <ele>89.4</ele>
        <time>2020-06-21T06:48:26Z</time>
      </trkpt>
      <trkpt lat="49.43631" lon="0.9755">
        <ele>89.5</ele>
        <time>2020-06-21T06:48:28Z</time>
      </trkpt>
      <trkpt lat="49.43628" lon="0.97551">
        <ele>89.5</ele>
        <time>2020-06-21T06:48:29Z</time>
      </trkpt>
      <trkpt lat="49.43624" lon="0.97555">
        <ele>89.6</ele>
        <time>2020-06-21T06:48:31Z</time>
      </trkpt>
      <trkpt lat="49.4362" lon="0.97559">
        <ele>89.6</ele>
        <time>2020-06-21T06:48:32Z</time>
      </trkpt>
      <trkpt lat="49.43615" lon="0.97563">
        <ele>89.6</ele>
        <time>2020-06-21T06:48:33Z</time>
      </trkpt>
      <trkpt lat="49.43611" lon="0.97568">
        <ele>89.6</ele>
        <time>2020-06-21T06:48:35Z</time>
      </trkpt>
      <trkpt lat="49.43606" lon="0.97573">
        <ele>89.6</ele>
        <time>2020-06-21T06:48:36Z</time>
      </trkpt>
      <trkpt lat="49.43602" lon="0.97577">
        <ele>89.6</ele>
        <time>2020-06-21T06:48:37Z</time>
      </trkpt>
      <trkpt lat="49.43596" lon="0.97582">
        <ele>89.6</ele>
        <time>2020-06-21T06:48:39Z</time>
      </trkpt>
      <trkpt lat="49.43591" lon="0.97586">
        <ele>89.6</ele>
        <time>2020-06-21T06:48:40Z</time>
      </trkpt>
      <trkpt lat="49.43588" lon="0.97588">
        <ele>89.6</ele>
        <time>2020-06-21T06:48:41Z</time>
      </trkpt>
      <trkpt lat="49.43583" lon="0.97591">
        <ele>89.6</ele>
        <time>2020-06-21T06:48:42Z</time>
      </trkpt>
      <trkpt lat="49.43579" lon="0.97594">
        <ele>89.6</ele>
        <time>2020-06-21T06:48:43Z</time>
      </trkpt>
      <trkpt lat="49.43571" lon="0.976">
        <ele>89.5</ele>
        <time>2020-06-21T06:48:45Z</time>
      </trkpt>
      <trkpt lat="49.43565" lon="0.97605">
        <ele>89.5</ele>
        <time>2020-06-21T06:48:46Z</time>
      </trkpt>
      <trkpt lat="49.4356" lon="0.97609">
        <ele>89.5</ele>
        <time>2020-06-21T06:48:48Z</time>
      </trkpt>
      <trkpt lat="49.43553" lon="0.97615">
        <ele>89.4</ele>
        <time>2020-06-21T06:48:50Z</time>
      </trkpt>
      <trkpt lat="49.43549" lon="0.97618">
        <ele>89.4</ele>
        <time>2020-06-21T06:48:51Z</time>
      </trkpt>
      <trkpt lat="49.43542" lon="0.97625">
        <ele>89.4</ele>
        <time>2020-06-21T06:48:53Z</time>
      </trkpt>
      <trkpt lat="49.43539" lon="0.9763">
        <ele>89.4</ele>
        <time>2020-06-21T06:48:54Z</time>
      </trkpt>
      <trkpt lat="49.43537" lon="0.97634">
        <ele>89.3</ele>
        <time>2020-06-21T06:48:55Z</time>
      </trkpt>
      <trkpt lat="49.43531" lon="0.97643">
        <ele>89.3</ele>
        <time>2020-06-21T06:48:57Z</time>
      </trkpt>
      <trkpt lat="49.43525" lon="0.97649">
        <ele>89</ele>
        <time>2020-06-21T06:48:59Z</time>
      </trkpt>
      <trkpt lat="49.43519" lon="0.97647">
        <ele>89</ele>
        <time>2020-06-21T06:49:01Z</time>
      </trkpt>
      <trkpt lat="49.43517" lon="0.97643">
        <ele>88.9</ele>
        <time>2020-06-21T06:49:02Z</time>
      </trkpt>
      <trkpt lat="49.43515" lon="0.97641">
        <ele>88.9</ele>
        <time>2020-06-21T06:49:03Z</time>
      </trkpt>
      <trkpt lat="49.43512" lon="0.97635">
        <ele>88.8</ele>
        <time>2020-06-21T06:49:05Z</time>
      </trkpt>
      <trkpt lat="49.43509" lon="0.9763">
        <ele>88.7</ele>
        <time>2020-06-21T06:49:06Z</time>
      </trkpt>
      <trkpt lat="49.43503" lon="0.97621">
        <ele>88.6</ele>
        <time>2020-06-21T06:49:08Z</time>
      </trkpt>
      <trkpt lat="49.435" lon="0.97615">
        <ele>88.5</ele>
        <time>2020-06-21T06:49:10Z</time>
      </trkpt>
      <trkpt lat="49.43494" lon="0.97608">
        <ele>88.4</ele>
        <time>2020-06-21T06:49:12Z</time>
      </trkpt>
      <trkpt lat="49.43488" lon="0.97601">
        <ele>88.3</ele>
        <time>2020-06-21T06:49:14Z</time>
      </trkpt>
      <trkpt lat="49.43485" lon="0.97598">
        <ele>88.3</ele>
        <time>2020-06-21T06:49:15Z</time>
      </trkpt>
      <trkpt lat="49.43479" lon="0.97591">
        <ele>88.2</ele>
        <time>2020-06-21T06:49:17Z</time>
      </trkpt>
      <trkpt lat="49.43476" lon="0.97586">
        <ele>88.2</ele>
        <time>2020-06-21T06:49:18Z</time>
      </trkpt>
      <trkpt lat="49.43471" lon="0.97578">
        <ele>88.1</ele>
        <time>2020-06-21T06:49:20Z</time>
      </trkpt>
      <trkpt lat="49.43464" lon="0.97567">
        <ele>88</ele>
        <time>2020-06-21T06:49:22Z</time>
      </trkpt>
      <trkpt lat="49.43461" lon="0.97562">
        <ele>87.9</ele>
        <time>2020-06-21T06:49:23Z</time>
      </trkpt>
      <trkpt lat="49.43458" lon="0.97559">
        <ele>87.9</ele>
        <time>2020-06-21T06:49:24Z</time>
      </trkpt>
      <trkpt lat="49.43452" lon="0.97551">
        <ele>87.8</ele>
        <time>2020-06-21T06:49:26Z</time>
      </trkpt>
      <trkpt lat="49.43447" lon="0.97541">
        <ele>87.7</ele>
        <time>2020-06-21T06:49:28Z</time>
      </trkpt>
      <trkpt lat="49.43444" lon="0.97535">
        <ele>87.7</ele>
        <time>2020-06-21T06:49:29Z</time>
      </trkpt>
      <trkpt lat="49.43438" lon="0.97524">
        <ele>87.6</ele>
        <time>2020-06-21T06:49:31Z</time>
      </trkpt>
      <trkpt lat="49.43434" lon="0.97519">
        <ele>87.6</ele>
        <time>2020-06-21T06:49:32Z</time>
      </trkpt>
      <trkpt lat="49.43428" lon="0.97512">
        <ele>87.6</ele>
        <time>2020-06-21T06:49:34Z</time>
      </trkpt>
      <trkpt lat="49.43423" lon="0.97505">
        <ele>87.5</ele>
        <time>2020-06-21T06:49:36Z</time>
      </trkpt>
      <trkpt lat="49.4342" lon="0.975">
        <ele>87.5</ele>
        <time>2020-06-21T06:49:37Z</time>
      </trkpt>
      <trkpt lat="49.43416" lon="0.97495">
        <ele>87.4</ele>
        <time>2020-06-21T06:49:38Z</time>
      </trkpt>
      <trkpt lat="49.43409" lon="0.97486">
        <ele>87.4</ele>
        <time>2020-06-21T06:49:40Z</time>
      </trkpt>
      <trkpt lat="49.43405" lon="0.9748">
        <ele>87.3</ele>
        <time>2020-06-21T06:49:41Z</time>
      </trkpt>
      <trkpt lat="49.43398" lon="0.97468">
        <ele>87.2</ele>
        <time>2020-06-21T06:49:43Z</time>
      </trkpt>
      <trkpt lat="49.4339" lon="0.97455">
        <ele>87.1</ele>
        <time>2020-06-21T06:49:45Z</time>
      </trkpt>
      <trkpt lat="49.4338" lon="0.97443">
        <ele>87.1</ele>
        <time>2020-06-21T06:49:47Z</time>
      </trkpt>
      <trkpt lat="49.43376" lon="0.97438">
        <ele>87.1</ele>
        <time>2020-06-21T06:49:48Z</time>
      </trkpt>
      <trkpt lat="49.43374" lon="0.97434">
        <ele>87.1</ele>
        <time>2020-06-21T06:49:49Z</time>
      </trkpt>
      <trkpt lat="49.43369" lon="0.97424">
        <ele>87.1</ele>
        <time>2020-06-21T06:49:51Z</time>
      </trkpt>
      <trkpt lat="49.43367" lon="0.97419">
        <ele>87.1</ele>
        <time>2020-06-21T06:49:52Z</time>
      </trkpt>
      <trkpt lat="49.43365" lon="0.97415">
        <ele>87.1</ele>
        <time>2020-06-21T06:49:53Z</time>
      </trkpt>
      <trkpt lat="49.43364" lon="0.97414">
        <ele>87.1</ele>
        <time>2020-06-21T06:49:54Z</time>
      </trkpt>
      <trkpt lat="49.4336" lon="0.9741">
        <ele>87</ele>
        <time>2020-06-21T06:49:56Z</time>
      </trkpt>
      <trkpt lat="49.43351" lon="0.97408">
        <ele>87</ele>
        <time>2020-06-21T06:49:58Z</time>
      </trkpt>
      <trkpt lat="49.43344" lon="0.97408">
        <ele>88.3</ele>
        <time>2020-06-21T06:50:00Z</time>
      </trkpt>
      <trkpt lat="49.43341" lon="0.97408">
        <ele>88.2</ele>
        <time>2020-06-21T06:50:01Z</time>
      </trkpt>
      <trkpt lat="49.43335" lon="0.97409">
        <ele>88.2</ele>
        <time>2020-06-21T06:50:03Z</time>
      </trkpt>
      <trkpt lat="49.4333" lon="0.97412">
        <ele>88.1</ele>
        <time>2020-06-21T06:50:05Z</time>
      </trkpt>
      <trkpt lat="49.43325" lon="0.97414">
        <ele>88.1</ele>
        <time>2020-06-21T06:50:06Z</time>
      </trkpt>
      <trkpt lat="49.4332" lon="0.97415">
        <ele>88.1</ele>
        <time>2020-06-21T06:50:08Z</time>
      </trkpt>
      <trkpt lat="49.43315" lon="0.97414">
        <ele>88.1</ele>
        <time>2020-06-21T06:50:09Z</time>
      </trkpt>
      <trkpt lat="49.4331" lon="0.97414">
        <ele>88.1</ele>
        <time>2020-06-21T06:50:10Z</time>
      </trkpt>
      <trkpt lat="49.43299" lon="0.97415">
        <ele>88</ele>
        <time>2020-06-21T06:50:12Z</time>
      </trkpt>
      <trkpt lat="49.43287" lon="0.97418">
        <ele>87.7</ele>
        <time>2020-06-21T06:50:14Z</time>
      </trkpt>
      <trkpt lat="49.43281" lon="0.97419">
        <ele>87.6</ele>
        <time>2020-06-21T06:50:15Z</time>
      </trkpt>
      <trkpt lat="49.43275" lon="0.97422">
        <ele>87.4</ele>
        <time>2020-06-21T06:50:16Z</time>
      </trkpt>
      <trkpt lat="49.4327" lon="0.97423">
        <ele>87.3</ele>
        <time>2020-06-21T06:50:17Z</time>
      </trkpt>
      <trkpt lat="49.43266" lon="0.97424">
        <ele>87.2</ele>
        <time>2020-06-21T06:50:19Z</time>
      </trkpt>
      <trkpt lat="49.43262" lon="0.97425">
        <ele>87.1</ele>
        <time>2020-06-21T06:50:20Z</time>
      </trkpt>
      <trkpt lat="49.43254" lon="0.97428">
        <ele>86.9</ele>
        <time>2020-06-21T06:50:22Z</time>
      </trkpt>
      <trkpt lat="49.43244" lon="0.97431">
        <ele>86.6</ele>
        <time>2020-06-21T06:50:23Z</time>
      </trkpt>
      <trkpt lat="49.43237" lon="0.97434">
        <ele>86.4</ele>
        <time>2020-06-21T06:50:25Z</time>
      </trkpt>
      <trkpt lat="49.4323" lon="0.97436">
        <ele>86.2</ele>
        <time>2020-06-21T06:50:26Z</time>
      </trkpt>
      <trkpt lat="49.43221" lon="0.97439">
        <ele>85.9</ele>
        <time>2020-06-21T06:50:28Z</time>
      </trkpt>
      <trkpt lat="49.43216" lon="0.97443">
        <ele>85.8</ele>
        <time>2020-06-21T06:50:29Z</time>
      </trkpt>
      <trkpt lat="49.43212" lon="0.97446">
        <ele>85.7</ele>
        <time>2020-06-21T06:50:30Z</time>
      </trkpt>
      <trkpt lat="49.43208" lon="0.97447">
        <ele>85.7</ele>
        <time>2020-06-21T06:50:31Z</time>
      </trkpt>
      <trkpt lat="49.43203" lon="0.97448">
        <ele>85.6</ele>
        <time>2020-06-21T06:50:32Z</time>
      </trkpt>
      <trkpt lat="49.43194" lon="0.97452">
        <ele>85.4</ele>
        <time>2020-06-21T06:50:34Z</time>
      </trkpt>
      <trkpt lat="49.43187" lon="0.97454">
        <ele>85.3</ele>
        <time>2020-06-21T06:50:36Z</time>
      </trkpt>
      <trkpt lat="49.43181" lon="0.97458">
        <ele>85.2</ele>
        <time>2020-06-21T06:50:37Z</time>
      </trkpt>
      <trkpt lat="49.43176" lon="0.97462">
        <ele>85.1</ele>
        <time>2020-06-21T06:50:39Z</time>
      </trkpt>
      <trkpt lat="49.4317" lon="0.97467">
        <ele>84.9</ele>
        <time>2020-06-21T06:50:40Z</time>
      </trkpt>
      <trkpt lat="49.43166" lon="0.97471">
        <ele>84.8</ele>
        <time>2020-06-21T06:50:41Z</time>
      </trkpt>
      <trkpt lat="49.43162" lon="0.97474">
        <ele>84.7</ele>
        <time>2020-06-21T06:50:42Z</time>
      </trkpt>
      <trkpt lat="49.43158" lon="0.97477">
        <ele>84.6</ele>
        <time>2020-06-21T06:50:44Z</time>
      </trkpt>
      <trkpt lat="49.43151" lon="0.97481">
        <ele>84.5</ele>
        <time>2020-06-21T06:50:45Z</time>
      </trkpt>
      <trkpt lat="49.43146" lon="0.97484">
        <ele>84.5</ele>
        <time>2020-06-21T06:50:46Z</time>
      </trkpt>
      <trkpt lat="49.43139" lon="0.97486">
        <ele>84.4</ele>
        <time>2020-06-21T06:50:48Z</time>
      </trkpt>
      <trkpt lat="49.43134" lon="0.97489">
        <ele>84.4</ele>
        <time>2020-06-21T06:50:49Z</time>
      </trkpt>
      <trkpt lat="49.43126" lon="0.97492">
        <ele>84.4</ele>
        <time>2020-06-21T06:50:50Z</time>
      </trkpt>
      <trkpt lat="49.43119" lon="0.97497">
        <ele>84.3</ele>
        <time>2020-06-21T06:50:52Z</time>
      </trkpt>
      <trkpt lat="49.43112" lon="0.97503">
        <ele>84.3</ele>
        <time>2020-06-21T06:50:54Z</time>
      </trkpt>
      <trkpt lat="49.43107" lon="0.97506">
        <ele>84.3</ele>
        <time>2020-06-21T06:50:55Z</time>
      </trkpt>
      <trkpt lat="49.43102" lon="0.97509">
        <ele>84.3</ele>
        <time>2020-06-21T06:50:56Z</time>
      </trkpt>
      <trkpt lat="49.43097" lon="0.97509">
        <ele>84.3</ele>
        <time>2020-06-21T06:50:57Z</time>
      </trkpt>
      <trkpt lat="49.4309" lon="0.97512">
        <ele>84.3</ele>
        <time>2020-06-21T06:50:59Z</time>
      </trkpt>
      <trkpt lat="49.43086" lon="0.97514">
        <ele>84.3</ele>
        <time>2020-06-21T06:51:00Z</time>
      </trkpt>
      <trkpt lat="49.4308" lon="0.97516">
        <ele>84.4</ele>
        <time>2020-06-21T06:51:01Z</time>
      </trkpt>
      <trkpt lat="49.43074" lon="0.9752">
        <ele>84.4</ele>
        <time>2020-06-21T06:51:03Z</time>
      </trkpt>
      <trkpt lat="49.43067" lon="0.97525">
        <ele>84.4</ele>
        <time>2020-06-21T06:51:05Z</time>
      </trkpt>
      <trkpt lat="49.43061" lon="0.97527">
        <ele>84.5</ele>
        <time>2020-06-21T06:51:06Z</time>
      </trkpt>
      <trkpt lat="49.43055" lon="0.9753">
        <ele>84.5</ele>
        <time>2020-06-21T06:51:07Z</time>
      </trkpt>
      <trkpt lat="49.43051" lon="0.97532">
        <ele>84.5</ele>
        <time>2020-06-21T06:51:09Z</time>
      </trkpt>
      <trkpt lat="49.43048" lon="0.97533">
        <ele>84.6</ele>
        <time>2020-06-21T06:51:10Z</time>
      </trkpt>
      <trkpt lat="49.43045" lon="0.97535">
        <ele>84.6</ele>
        <time>2020-06-21T06:51:11Z</time>
      </trkpt>
      <trkpt lat="49.43041" lon="0.97537">
        <ele>84.6</ele>
        <time>2020-06-21T06:51:13Z</time>
      </trkpt>
      <trkpt lat="49.43037" lon="0.97539">
        <ele>84.6</ele>
        <time>2020-06-21T06:51:15Z</time>
      </trkpt>
      <trkpt lat="49.43034" lon="0.9754">
        <ele>84.6</ele>
        <time>2020-06-21T06:51:16Z</time>
      </trkpt>
      <trkpt lat="49.4303" lon="0.97542">
        <ele>84.7</ele>
        <time>2020-06-21T06:51:18Z</time>
      </trkpt>
      <trkpt lat="49.43027" lon="0.97544">
        <ele>84.7</ele>
        <time>2020-06-21T06:51:19Z</time>
      </trkpt>
      <trkpt lat="49.43024" lon="0.97546">
        <ele>84.8</ele>
        <time>2020-06-21T06:51:20Z</time>
      </trkpt>
      <trkpt lat="49.43018" lon="0.97548">
        <ele>84.8</ele>
        <time>2020-06-21T06:51:21Z</time>
      </trkpt>
      <trkpt lat="49.43011" lon="0.97549">
        <ele>84.9</ele>
        <time>2020-06-21T06:51:23Z</time>
      </trkpt>
      <trkpt lat="49.43007" lon="0.9755">
        <ele>85</ele>
        <time>2020-06-21T06:51:24Z</time>
      </trkpt>
      <trkpt lat="49.42999" lon="0.97552">
        <ele>85.1</ele>
        <time>2020-06-21T06:51:26Z</time>
      </trkpt>
      <trkpt lat="49.42995" lon="0.97553">
        <ele>85.1</ele>
        <time>2020-06-21T06:51:27Z</time>
      </trkpt>
      <trkpt lat="49.42989" lon="0.9756">
        <ele>85.2</ele>
        <time>2020-06-21T06:51:29Z</time>
      </trkpt>
      <trkpt lat="49.42986" lon="0.97566">
        <ele>85.3</ele>
        <time>2020-06-21T06:51:31Z</time>
      </trkpt>
      <trkpt lat="49.42983" lon="0.97571">
        <ele>85.3</ele>
        <time>2020-06-21T06:51:32Z</time>
      </trkpt>
      <trkpt lat="49.4298" lon="0.97575">
        <ele>85.3</ele>
        <time>2020-06-21T06:51:33Z</time>
      </trkpt>
      <trkpt lat="49.42976" lon="0.97572">
        <ele>85.4</ele>
        <time>2020-06-21T06:51:35Z</time>
      </trkpt>
      <trkpt lat="49.42973" lon="0.9757">
        <ele>85.4</ele>
        <time>2020-06-21T06:51:36Z</time>
      </trkpt>
      <trkpt lat="49.42968" lon="0.9757">
        <ele>85.5</ele>
        <time>2020-06-21T06:51:38Z</time>
      </trkpt>
      <trkpt lat="49.42966" lon="0.97573">
        <ele>85.5</ele>
        <time>2020-06-21T06:51:39Z</time>
      </trkpt>
      <trkpt lat="49.42965" lon="0.97574">
        <ele>85.6</ele>
        <time>2020-06-21T06:51:40Z</time>
      </trkpt>
      <trkpt lat="49.42963" lon="0.97578">
        <ele>85.6</ele>
        <time>2020-06-21T06:51:41Z</time>
      </trkpt>
      <trkpt lat="49.42962" lon="0.9758">
        <ele>85.6</ele>
        <time>2020-06-21T06:51:42Z</time>
      </trkpt>
      <trkpt lat="49.42961" lon="0.97584">
        <ele>85.6</ele>
        <time>2020-06-21T06:51:43Z</time>
      </trkpt>
      <trkpt lat="49.42959" lon="0.97587">
        <ele>85.6</ele>
        <time>2020-06-21T06:51:45Z</time>
      </trkpt>
      <trkpt lat="49.42959" lon="0.97587">
        <ele>85.6</ele>
        <time>2020-06-21T06:51:46Z</time>
      </trkpt>
      <trkpt lat="49.42958" lon="0.97589">
        <ele>85.6</ele>
        <time>2020-06-21T06:51:48Z</time>
      </trkpt>
      <trkpt lat="49.42957" lon="0.97592">
        <ele>85.5</ele>
        <time>2020-06-21T06:51:49Z</time>
      </trkpt>
      <trkpt lat="49.42954" lon="0.97595">
        <ele>85.5</ele>
        <time>2020-06-21T06:51:50Z</time>
      </trkpt>
      <trkpt lat="49.42952" lon="0.97597">
        <ele>85.4</ele>
        <time>2020-06-21T06:51:51Z</time>
      </trkpt>
      <trkpt lat="49.42949" lon="0.97602">
        <ele>85.3</ele>
        <time>2020-06-21T06:51:53Z</time>
      </trkpt>
      <trkpt lat="49.42946" lon="0.97607">
        <ele>85.2</ele>
        <time>2020-06-21T06:51:54Z</time>
      </trkpt>
      <trkpt lat="49.42944" lon="0.97609">
        <ele>85.1</ele>
        <time>2020-06-21T06:51:55Z</time>
      </trkpt>
      <trkpt lat="49.42941" lon="0.97612">
        <ele>85</ele>
        <time>2020-06-21T06:51:56Z</time>
      </trkpt>
      <trkpt lat="49.42938" lon="0.97615">
        <ele>84.9</ele>
        <time>2020-06-21T06:51:57Z</time>
      </trkpt>
      <trkpt lat="49.42935" lon="0.97619">
        <ele>84.8</ele>
        <time>2020-06-21T06:51:59Z</time>
      </trkpt>
      <trkpt lat="49.4293" lon="0.97625">
        <ele>84.7</ele>
        <time>2020-06-21T06:52:00Z</time>
      </trkpt>
      <trkpt lat="49.42927" lon="0.9763">
        <ele>84.6</ele>
        <time>2020-06-21T06:52:01Z</time>
      </trkpt>
      <trkpt lat="49.42923" lon="0.97635">
        <ele>84.5</ele>
        <time>2020-06-21T06:52:02Z</time>
      </trkpt>
      <trkpt lat="49.42919" lon="0.97642">
        <ele>84.3</ele>
        <time>2020-06-21T06:52:04Z</time>
      </trkpt>
      <trkpt lat="49.42915" lon="0.97648">
        <ele>84.2</ele>
        <time>2020-06-21T06:52:06Z</time>
      </trkpt>
      <trkpt lat="49.42911" lon="0.97653">
        <ele>84.1</ele>
        <time>2020-06-21T06:52:07Z</time>
      </trkpt>
      <trkpt lat="49.42909" lon="0.97657">
        <ele>84</ele>
        <time>2020-06-21T06:52:08Z</time>
      </trkpt>
      <trkpt lat="49.42905" lon="0.97663">
        <ele>84</ele>
        <time>2020-06-21T06:52:09Z</time>
      </trkpt>
      <trkpt lat="49.42902" lon="0.97668">
        <ele>83.9</ele>
        <time>2020-06-21T06:52:11Z</time>
      </trkpt>
      <trkpt lat="49.42898" lon="0.97674">
        <ele>83.9</ele>
        <time>2020-06-21T06:52:13Z</time>
      </trkpt>
      <trkpt lat="49.42895" lon="0.97679">
        <ele>83.8</ele>
        <time>2020-06-21T06:52:14Z</time>
      </trkpt>
      <trkpt lat="49.42892" lon="0.97682">
        <ele>83.8</ele>
        <time>2020-06-21T06:52:15Z</time>
      </trkpt>
      <trkpt lat="49.42891" lon="0.97686">
        <ele>83.7</ele>
        <time>2020-06-21T06:52:16Z</time>
      </trkpt>
      <trkpt lat="49.42888" lon="0.97689">
        <ele>83.7</ele>
        <time>2020-06-21T06:52:17Z</time>
      </trkpt>
      <trkpt lat="49.42885" lon="0.97694">
        <ele>83.6</ele>
        <time>2020-06-21T06:52:19Z</time>
      </trkpt>
      <trkpt lat="49.42882" lon="0.97699">
        <ele>83.5</ele>
        <time>2020-06-21T06:52:20Z</time>
      </trkpt>
      <trkpt lat="49.4288" lon="0.97702">
        <ele>83.4</ele>
        <time>2020-06-21T06:52:21Z</time>
      </trkpt>
      <trkpt lat="49.42878" lon="0.97705">
        <ele>83.3</ele>
        <time>2020-06-21T06:52:23Z</time>
      </trkpt>
      <trkpt lat="49.42876" lon="0.97709">
        <ele>83.2</ele>
        <time>2020-06-21T06:52:24Z</time>
      </trkpt>
      <trkpt lat="49.42874" lon="0.97714">
        <ele>83.2</ele>
        <time>2020-06-21T06:52:25Z</time>
      </trkpt>
      <trkpt lat="49.4287" lon="0.9772">
        <ele>83</ele>
        <time>2020-06-21T06:52:26Z</time>
      </trkpt>
      <trkpt lat="49.42867" lon="0.97725">
        <ele>82.9</ele>
        <time>2020-06-21T06:52:27Z</time>
      </trkpt>
      <trkpt lat="49.42864" lon="0.97731">
        <ele>82.8</ele>
        <time>2020-06-21T06:52:29Z</time>
      </trkpt>
      <trkpt lat="49.42859" lon="0.97739">
        <ele>82.6</ele>
        <time>2020-06-21T06:52:30Z</time>
      </trkpt>
      <trkpt lat="49.42856" lon="0.97743">
        <ele>82.6</ele>
        <time>2020-06-21T06:52:32Z</time>
      </trkpt>
      <trkpt lat="49.42853" lon="0.97748">
        <ele>82.5</ele>
        <time>2020-06-21T06:52:33Z</time>
      </trkpt>
      <trkpt lat="49.4285" lon="0.97753">
        <ele>82.4</ele>
        <time>2020-06-21T06:52:34Z</time>
      </trkpt>
      <trkpt lat="49.42846" lon="0.97759">
        <ele>82.3</ele>
        <time>2020-06-21T06:52:35Z</time>
      </trkpt>
      <trkpt lat="49.42842" lon="0.97764">
        <ele>82.2</ele>
        <time>2020-06-21T06:52:37Z</time>
      </trkpt>
      <trkpt lat="49.42839" lon="0.97768">
        <ele>82.1</ele>
        <time>2020-06-21T06:52:38Z</time>
      </trkpt>
      <trkpt lat="49.42837" lon="0.97773">
        <ele>82.1</ele>
        <time>2020-06-21T06:52:39Z</time>
      </trkpt>
      <trkpt lat="49.42834" lon="0.97778">
        <ele>82</ele>
        <time>2020-06-21T06:52:40Z</time>
      </trkpt>
      <trkpt lat="49.42832" lon="0.97782">
        <ele>81.9</ele>
        <time>2020-06-21T06:52:41Z</time>
      </trkpt>
      <trkpt lat="49.4283" lon="0.97786">
        <ele>81.8</ele>
        <time>2020-06-21T06:52:42Z</time>
      </trkpt>
      <trkpt lat="49.42826" lon="0.97794">
        <ele>81.7</ele>
        <time>2020-06-21T06:52:44Z</time>
      </trkpt>
      <trkpt lat="49.42822" lon="0.97799">
        <ele>81.6</ele>
        <time>2020-06-21T06:52:45Z</time>
      </trkpt>
      <trkpt lat="49.42818" lon="0.97806">
        <ele>81.4</ele>
        <time>2020-06-21T06:52:47Z</time>
      </trkpt>
      <trkpt lat="49.42813" lon="0.97812">
        <ele>81.3</ele>
        <time>2020-06-21T06:52:48Z</time>
      </trkpt>
      <trkpt lat="49.42806" lon="0.97823">
        <ele>81.1</ele>
        <time>2020-06-21T06:52:50Z</time>
      </trkpt>
      <trkpt lat="49.428" lon="0.97831">
        <ele>80.9</ele>
        <time>2020-06-21T06:52:51Z</time>
      </trkpt>
      <trkpt lat="49.42794" lon="0.9784">
        <ele>80.7</ele>
        <time>2020-06-21T06:52:53Z</time>
      </trkpt>
      <trkpt lat="49.4279" lon="0.97846">
        <ele>80.5</ele>
        <time>2020-06-21T06:52:54Z</time>
      </trkpt>
      <trkpt lat="49.42787" lon="0.97851">
        <ele>80.4</ele>
        <time>2020-06-21T06:52:55Z</time>
      </trkpt>
      <trkpt lat="49.42783" lon="0.97857">
        <ele>80.3</ele>
        <time>2020-06-21T06:52:57Z</time>
      </trkpt>
      <trkpt lat="49.4278" lon="0.97862">
        <ele>80.2</ele>
        <time>2020-06-21T06:52:58Z</time>
      </trkpt>
      <trkpt lat="49.42779" lon="0.97866">
        <ele>80.2</ele>
        <time>2020-06-21T06:52:59Z</time>
      </trkpt>
      <trkpt lat="49.42778" lon="0.97868">
        <ele>80.2</ele>
        <time>2020-06-21T06:53:00Z</time>
      </trkpt>
      <trkpt lat="49.42776" lon="0.97873">
        <ele>80.1</ele>
        <time>2020-06-21T06:53:02Z</time>
      </trkpt>
      <trkpt lat="49.42775" lon="0.97876">
        <ele>80.1</ele>
        <time>2020-06-21T06:53:03Z</time>
      </trkpt>
      <trkpt lat="49.42773" lon="0.9788">
        <ele>80</ele>
        <time>2020-06-21T06:53:05Z</time>
      </trkpt>
      <trkpt lat="49.4277" lon="0.97883">
        <ele>80</ele>
        <time>2020-06-21T06:53:06Z</time>
      </trkpt>
      <trkpt lat="49.42768" lon="0.97884">
        <ele>80</ele>
        <time>2020-06-21T06:53:07Z</time>
      </trkpt>
      <trkpt lat="49.42765" lon="0.97884">
        <ele>80.1</ele>
        <time>2020-06-21T06:53:09Z</time>
      </trkpt>
      <trkpt lat="49.42761" lon="0.97882">
        <ele>80.3</ele>
        <time>2020-06-21T06:53:10Z</time>
      </trkpt>
      <trkpt lat="49.42758" lon="0.97879">
        <ele>80.4</ele>
        <time>2020-06-21T06:53:11Z</time>
      </trkpt>
      <trkpt lat="49.42755" lon="0.97876">
        <ele>80.5</ele>
        <time>2020-06-21T06:53:12Z</time>
      </trkpt>
      <trkpt lat="49.42752" lon="0.97871">
        <ele>80.7</ele>
        <time>2020-06-21T06:53:13Z</time>
      </trkpt>
      <trkpt lat="49.42749" lon="0.97867">
        <ele>80.8</ele>
        <time>2020-06-21T06:53:14Z</time>
      </trkpt>
      <trkpt lat="49.42747" lon="0.97861">
        <ele>80.9</ele>
        <time>2020-06-21T06:53:16Z</time>
      </trkpt>
      <trkpt lat="49.42744" lon="0.97855">
        <ele>81</ele>
        <time>2020-06-21T06:53:17Z</time>
      </trkpt>
      <trkpt lat="49.42742" lon="0.9785">
        <ele>81.1</ele>
        <time>2020-06-21T06:53:18Z</time>
      </trkpt>
      <trkpt lat="49.42739" lon="0.97844">
        <ele>81.3</ele>
        <time>2020-06-21T06:53:19Z</time>
      </trkpt>
      <trkpt lat="49.42736" lon="0.97835">
        <ele>81.5</ele>
        <time>2020-06-21T06:53:21Z</time>
      </trkpt>
      <trkpt lat="49.42732" lon="0.97828">
        <ele>81.7</ele>
        <time>2020-06-21T06:53:22Z</time>
      </trkpt>
      <trkpt lat="49.42727" lon="0.97819">
        <ele>81.9</ele>
        <time>2020-06-21T06:53:24Z</time>
      </trkpt>
      <trkpt lat="49.42725" lon="0.97815">
        <ele>82</ele>
        <time>2020-06-21T06:53:25Z</time>
      </trkpt>
      <trkpt lat="49.42721" lon="0.9781">
        <ele>82.2</ele>
        <time>2020-06-21T06:53:26Z</time>
      </trkpt>
      <trkpt lat="49.42717" lon="0.97806">
        <ele>82.4</ele>
        <time>2020-06-21T06:53:28Z</time>
      </trkpt>
      <trkpt lat="49.42715" lon="0.97801">
        <ele>82.5</ele>
        <time>2020-06-21T06:53:29Z</time>
      </trkpt>
      <trkpt lat="49.42713" lon="0.97796">
        <ele>82.6</ele>
        <time>2020-06-21T06:53:30Z</time>
      </trkpt>
      <trkpt lat="49.4271" lon="0.97789">
        <ele>82.8</ele>
        <time>2020-06-21T06:53:31Z</time>
      </trkpt>
      <trkpt lat="49.42707" lon="0.97784">
        <ele>83</ele>
        <time>2020-06-21T06:53:33Z</time>
      </trkpt>
      <trkpt lat="49.42705" lon="0.97778">
        <ele>83.1</ele>
        <time>2020-06-21T06:53:34Z</time>
      </trkpt>
      <trkpt lat="49.42702" lon="0.97773">
        <ele>83.3</ele>
        <time>2020-06-21T06:53:35Z</time>
      </trkpt>
      <trkpt lat="49.42699" lon="0.97767">
        <ele>83.4</ele>
        <time>2020-06-21T06:53:36Z</time>
      </trkpt>
      <trkpt lat="49.42696" lon="0.9776">
        <ele>83.6</ele>
        <time>2020-06-21T06:53:38Z</time>
      </trkpt>
      <trkpt lat="49.42693" lon="0.97753">
        <ele>83.7</ele>
        <time>2020-06-21T06:53:39Z</time>
      </trkpt>
      <trkpt lat="49.4269" lon="0.97748">
        <ele>83.9</ele>
        <time>2020-06-21T06:53:41Z</time>
      </trkpt>
      <trkpt lat="49.42687" lon="0.97743">
        <ele>84</ele>
        <time>2020-06-21T06:53:42Z</time>
      </trkpt>
      <trkpt lat="49.42685" lon="0.97739">
        <ele>84.1</ele>
        <time>2020-06-21T06:53:43Z</time>
      </trkpt>
      <trkpt lat="49.42682" lon="0.97734">
        <ele>84.3</ele>
        <time>2020-06-21T06:53:44Z</time>
      </trkpt>
      <trkpt lat="49.4268" lon="0.97729">
        <ele>84.4</ele>
        <time>2020-06-21T06:53:45Z</time>
      </trkpt>
      <trkpt lat="49.42677" lon="0.97724">
        <ele>84.6</ele>
        <time>2020-06-21T06:53:46Z</time>
      </trkpt>
      <trkpt lat="49.42674" lon="0.97719">
        <ele>84.7</ele>
        <time>2020-06-21T06:53:47Z</time>
      </trkpt>
      <trkpt lat="49.42671" lon="0.97712">
        <ele>84.9</ele>
        <time>2020-06-21T06:53:48Z</time>
      </trkpt>
      <trkpt lat="49.42668" lon="0.97705">
        <ele>85.1</ele>
        <time>2020-06-21T06:53:50Z</time>
      </trkpt>
      <trkpt lat="49.42664" lon="0.97697">
        <ele>85.3</ele>
        <time>2020-06-21T06:53:52Z</time>
      </trkpt>
      <trkpt lat="49.42662" lon="0.97691">
        <ele>85.5</ele>
        <time>2020-06-21T06:53:53Z</time>
      </trkpt>
      <trkpt lat="49.42659" lon="0.97685">
        <ele>85.6</ele>
        <time>2020-06-21T06:53:54Z</time>
      </trkpt>
      <trkpt lat="49.42656" lon="0.97678">
        <ele>85.8</ele>
        <time>2020-06-21T06:53:55Z</time>
      </trkpt>
      <trkpt lat="49.42652" lon="0.9767">
        <ele>85.9</ele>
        <time>2020-06-21T06:53:57Z</time>
      </trkpt>
      <trkpt lat="49.4265" lon="0.97664">
        <ele>85.9</ele>
        <time>2020-06-21T06:53:58Z</time>
      </trkpt>
      <trkpt lat="49.42645" lon="0.97655">
        <ele>85.9</ele>
        <time>2020-06-21T06:54:00Z</time>
      </trkpt>
      <trkpt lat="49.42642" lon="0.97651">
        <ele>85.9</ele>
        <time>2020-06-21T06:54:01Z</time>
      </trkpt>
      <trkpt lat="49.4264" lon="0.97647">
        <ele>85.9</ele>
        <time>2020-06-21T06:54:02Z</time>
      </trkpt>
      <trkpt lat="49.42636" lon="0.97641">
        <ele>85.8</ele>
        <time>2020-06-21T06:54:03Z</time>
      </trkpt>
      <trkpt lat="49.42634" lon="0.97636">
        <ele>85.8</ele>
        <time>2020-06-21T06:54:05Z</time>
      </trkpt>
      <trkpt lat="49.4263" lon="0.97629">
        <ele>85.8</ele>
        <time>2020-06-21T06:54:06Z</time>
      </trkpt>
      <trkpt lat="49.42626" lon="0.97623">
        <ele>85.8</ele>
        <time>2020-06-21T06:54:08Z</time>
      </trkpt>
      <trkpt lat="49.42623" lon="0.97616">
        <ele>85.8</ele>
        <time>2020-06-21T06:54:09Z</time>
      </trkpt>
      <trkpt lat="49.42621" lon="0.97608">
        <ele>85.7</ele>
        <time>2020-06-21T06:54:10Z</time>
      </trkpt>
      <trkpt lat="49.42618" lon="0.97603">
        <ele>85.7</ele>
        <time>2020-06-21T06:54:11Z</time>
      </trkpt>
      <trkpt lat="49.42613" lon="0.97592">
        <ele>85.7</ele>
        <time>2020-06-21T06:54:13Z</time>
      </trkpt>
      <trkpt lat="49.42611" lon="0.97586">
        <ele>85.7</ele>
        <time>2020-06-21T06:54:14Z</time>
      </trkpt>
      <trkpt lat="49.42607" lon="0.97578">
        <ele>85.7</ele>
        <time>2020-06-21T06:54:16Z</time>
      </trkpt>
      <trkpt lat="49.42604" lon="0.97572">
        <ele>85.6</ele>
        <time>2020-06-21T06:54:17Z</time>
      </trkpt>
      <trkpt lat="49.42598" lon="0.97561">
        <ele>85.6</ele>
        <time>2020-06-21T06:54:19Z</time>
      </trkpt>
      <trkpt lat="49.42592" lon="0.9755">
        <ele>85.6</ele>
        <time>2020-06-21T06:54:21Z</time>
      </trkpt>
      <trkpt lat="49.4259" lon="0.97545">
        <ele>85.6</ele>
        <time>2020-06-21T06:54:22Z</time>
      </trkpt>
      <trkpt lat="49.42587" lon="0.97541">
        <ele>85.5</ele>
        <time>2020-06-21T06:54:23Z</time>
      </trkpt>
      <trkpt lat="49.42585" lon="0.97535">
        <ele>85.5</ele>
        <time>2020-06-21T06:54:24Z</time>
      </trkpt>
      <trkpt lat="49.4258" lon="0.97526">
        <ele>85.5</ele>
        <time>2020-06-21T06:54:26Z</time>
      </trkpt>
      <trkpt lat="49.42578" lon="0.97521">
        <ele>85.5</ele>
        <time>2020-06-21T06:54:27Z</time>
      </trkpt>
      <trkpt lat="49.42573" lon="0.97511">
        <ele>85.5</ele>
        <time>2020-06-21T06:54:29Z</time>
      </trkpt>
      <trkpt lat="49.42571" lon="0.97506">
        <ele>85.4</ele>
        <time>2020-06-21T06:54:30Z</time>
      </trkpt>
      <trkpt lat="49.42566" lon="0.97495">
        <ele>85.4</ele>
        <time>2020-06-21T06:54:32Z</time>
      </trkpt>
      <trkpt lat="49.42564" lon="0.97491">
        <ele>85.4</ele>
        <time>2020-06-21T06:54:33Z</time>
      </trkpt>
      <trkpt lat="49.4256" lon="0.97481">
        <ele>85.4</ele>
        <time>2020-06-21T06:54:35Z</time>
      </trkpt>
      <trkpt lat="49.42557" lon="0.97476">
        <ele>85.4</ele>
        <time>2020-06-21T06:54:36Z</time>
      </trkpt>
      <trkpt lat="49.42556" lon="0.97472">
        <ele>85.3</ele>
        <time>2020-06-21T06:54:37Z</time>
      </trkpt>
      <trkpt lat="49.42552" lon="0.97463">
        <ele>85.3</ele>
        <time>2020-06-21T06:54:39Z</time>
      </trkpt>
      <trkpt lat="49.42547" lon="0.97454">
        <ele>85.3</ele>
        <time>2020-06-21T06:54:41Z</time>
      </trkpt>
      <trkpt lat="49.42544" lon="0.97447">
        <ele>85.3</ele>
        <time>2020-06-21T06:54:43Z</time>
      </trkpt>
      <trkpt lat="49.42541" lon="0.97441">
        <ele>85.3</ele>
        <time>2020-06-21T06:54:44Z</time>
      </trkpt>
      <trkpt lat="49.42536" lon="0.97432">
        <ele>85.2</ele>
        <time>2020-06-21T06:54:46Z</time>
      </trkpt>
      <trkpt lat="49.42533" lon="0.97426">
        <ele>85.2</ele>
        <time>2020-06-21T06:54:47Z</time>
      </trkpt>
      <trkpt lat="49.4253" lon="0.9742">
        <ele>85.2</ele>
        <time>2020-06-21T06:54:48Z</time>
      </trkpt>
      <trkpt lat="49.42527" lon="0.97414">
        <ele>85.2</ele>
        <time>2020-06-21T06:54:49Z</time>
      </trkpt>
      <trkpt lat="49.42524" lon="0.97408">
        <ele>85.2</ele>
        <time>2020-06-21T06:54:50Z</time>
      </trkpt>
      <trkpt lat="49.42521" lon="0.97403">
        <ele>85.1</ele>
        <time>2020-06-21T06:54:51Z</time>
      </trkpt>
      <trkpt lat="49.42519" lon="0.97398">
        <ele>85.1</ele>
        <time>2020-06-21T06:54:52Z</time>
      </trkpt>
      <trkpt lat="49.42516" lon="0.97393">
        <ele>85.1</ele>
        <time>2020-06-21T06:54:54Z</time>
      </trkpt>
      <trkpt lat="49.42513" lon="0.97387">
        <ele>85.1</ele>
        <time>2020-06-21T06:54:55Z</time>
      </trkpt>
      <trkpt lat="49.42509" lon="0.97379">
        <ele>85.1</ele>
        <time>2020-06-21T06:54:57Z</time>
      </trkpt>
      <trkpt lat="49.42506" lon="0.97372">
        <ele>85.1</ele>
        <time>2020-06-21T06:54:58Z</time>
      </trkpt>
      <trkpt lat="49.42503" lon="0.97367">
        <ele>85</ele>
        <time>2020-06-21T06:54:59Z</time>
      </trkpt>
      <trkpt lat="49.42501" lon="0.97362">
        <ele>85</ele>
        <time>2020-06-21T06:55:00Z</time>
      </trkpt>
      <trkpt lat="49.42498" lon="0.97356">
        <ele>85</ele>
        <time>2020-06-21T06:55:01Z</time>
      </trkpt>
      <trkpt lat="49.42495" lon="0.97349">
        <ele>85</ele>
        <time>2020-06-21T06:55:03Z</time>
      </trkpt>
      <trkpt lat="49.42492" lon="0.97344">
        <ele>85</ele>
        <time>2020-06-21T06:55:04Z</time>
      </trkpt>
      <trkpt lat="49.4249" lon="0.97339">
        <ele>85</ele>
        <time>2020-06-21T06:55:05Z</time>
      </trkpt>
      <trkpt lat="49.42486" lon="0.97331">
        <ele>84.9</ele>
        <time>2020-06-21T06:55:07Z</time>
      </trkpt>
      <trkpt lat="49.42483" lon="0.97326">
        <ele>84.9</ele>
        <time>2020-06-21T06:55:08Z</time>
      </trkpt>
      <trkpt lat="49.4248" lon="0.97321">
        <ele>84.9</ele>
        <time>2020-06-21T06:55:09Z</time>
      </trkpt>
      <trkpt lat="49.42474" lon="0.9731">
        <ele>84.9</ele>
        <time>2020-06-21T06:55:11Z</time>
      </trkpt>
      <trkpt lat="49.42471" lon="0.97302">
        <ele>84.9</ele>
        <time>2020-06-21T06:55:13Z</time>
      </trkpt>
      <trkpt lat="49.42468" lon="0.97297">
        <ele>84.8</ele>
        <time>2020-06-21T06:55:14Z</time>
      </trkpt>
      <trkpt lat="49.42466" lon="0.97292">
        <ele>84.8</ele>
        <time>2020-06-21T06:55:15Z</time>
      </trkpt>
      <trkpt lat="49.42464" lon="0.97288">
        <ele>84.8</ele>
        <time>2020-06-21T06:55:16Z</time>
      </trkpt>
      <trkpt lat="49.42461" lon="0.97282">
        <ele>84.8</ele>
        <time>2020-06-21T06:55:17Z</time>
      </trkpt>
      <trkpt lat="49.42459" lon="0.97277">
        <ele>84.8</ele>
        <time>2020-06-21T06:55:18Z</time>
      </trkpt>
      <trkpt lat="49.42456" lon="0.97271">
        <ele>84.8</ele>
        <time>2020-06-21T06:55:20Z</time>
      </trkpt>
      <trkpt lat="49.42453" lon="0.97266">
        <ele>84.7</ele>
        <time>2020-06-21T06:55:21Z</time>
      </trkpt>
      <trkpt lat="49.4245" lon="0.9726">
        <ele>84.7</ele>
        <time>2020-06-21T06:55:22Z</time>
      </trkpt>
      <trkpt lat="49.42448" lon="0.97255">
        <ele>84.7</ele>
        <time>2020-06-21T06:55:23Z</time>
      </trkpt>
      <trkpt lat="49.42446" lon="0.9725">
        <ele>84.7</ele>
        <time>2020-06-21T06:55:24Z</time>
      </trkpt>
      <trkpt lat="49.42443" lon="0.97242">
        <ele>84.7</ele>
        <time>2020-06-21T06:55:25Z</time>
      </trkpt>
      <trkpt lat="49.4244" lon="0.97235">
        <ele>84.7</ele>
        <time>2020-06-21T06:55:27Z</time>
      </trkpt>
      <trkpt lat="49.42436" lon="0.97228">
        <ele>84.6</ele>
        <time>2020-06-21T06:55:28Z</time>
      </trkpt>
      <trkpt lat="49.42431" lon="0.97216">
        <ele>84.6</ele>
        <time>2020-06-21T06:55:30Z</time>
      </trkpt>
      <trkpt lat="49.42426" lon="0.97205">
        <ele>84.6</ele>
        <time>2020-06-21T06:55:32Z</time>
      </trkpt>
      <trkpt lat="49.42422" lon="0.97198">
        <ele>84.6</ele>
        <time>2020-06-21T06:55:33Z</time>
      </trkpt>
      <trkpt lat="49.42418" lon="0.97191">
        <ele>84.5</ele>
        <time>2020-06-21T06:55:34Z</time>
      </trkpt>
      <trkpt lat="49.42415" lon="0.97186">
        <ele>84.5</ele>
        <time>2020-06-21T06:55:35Z</time>
      </trkpt>
      <trkpt lat="49.42411" lon="0.97178">
        <ele>84.5</ele>
        <time>2020-06-21T06:55:37Z</time>
      </trkpt>
      <trkpt lat="49.42407" lon="0.97171">
        <ele>84.5</ele>
        <time>2020-06-21T06:55:38Z</time>
      </trkpt>
      <trkpt lat="49.42405" lon="0.97166">
        <ele>84.5</ele>
        <time>2020-06-21T06:55:39Z</time>
      </trkpt>
      <trkpt lat="49.424" lon="0.97157">
        <ele>84.4</ele>
        <time>2020-06-21T06:55:41Z</time>
      </trkpt>
      <trkpt lat="49.42397" lon="0.97151">
        <ele>84.4</ele>
        <time>2020-06-21T06:55:42Z</time>
      </trkpt>
      <trkpt lat="49.42392" lon="0.9714">
        <ele>84.4</ele>
        <time>2020-06-21T06:55:44Z</time>
      </trkpt>
      <trkpt lat="49.42388" lon="0.97132">
        <ele>84.4</ele>
        <time>2020-06-21T06:55:46Z</time>
      </trkpt>
      <trkpt lat="49.42385" lon="0.97125">
        <ele>84.3</ele>
        <time>2020-06-21T06:55:47Z</time>
      </trkpt>
      <trkpt lat="49.4238" lon="0.97116">
        <ele>84.3</ele>
        <time>2020-06-21T06:55:49Z</time>
      </trkpt>
      <trkpt lat="49.42378" lon="0.97111">
        <ele>84.3</ele>
        <time>2020-06-21T06:55:50Z</time>
      </trkpt>
      <trkpt lat="49.42375" lon="0.97105">
        <ele>84.3</ele>
        <time>2020-06-21T06:55:51Z</time>
      </trkpt>
      <trkpt lat="49.42371" lon="0.97095">
        <ele>84.3</ele>
        <time>2020-06-21T06:55:53Z</time>
      </trkpt>
      <trkpt lat="49.42367" lon="0.97086">
        <ele>84.2</ele>
        <time>2020-06-21T06:55:54Z</time>
      </trkpt>
      <trkpt lat="49.42364" lon="0.97078">
        <ele>84.2</ele>
        <time>2020-06-21T06:55:56Z</time>
      </trkpt>
      <trkpt lat="49.42361" lon="0.97072">
        <ele>84.2</ele>
        <time>2020-06-21T06:55:57Z</time>
      </trkpt>
      <trkpt lat="49.42359" lon="0.97066">
        <ele>84.2</ele>
        <time>2020-06-21T06:55:58Z</time>
      </trkpt>
      <trkpt lat="49.42354" lon="0.97057">
        <ele>84.1</ele>
        <time>2020-06-21T06:56:00Z</time>
      </trkpt>
      <trkpt lat="49.42352" lon="0.97051">
        <ele>84.1</ele>
        <time>2020-06-21T06:56:01Z</time>
      </trkpt>
      <trkpt lat="49.42348" lon="0.97044">
        <ele>84.1</ele>
        <time>2020-06-21T06:56:02Z</time>
      </trkpt>
      <trkpt lat="49.42342" lon="0.97031">
        <ele>84.1</ele>
        <time>2020-06-21T06:56:04Z</time>
      </trkpt>
      <trkpt lat="49.42337" lon="0.9702">
        <ele>84</ele>
        <time>2020-06-21T06:56:06Z</time>
      </trkpt>
      <trkpt lat="49.42334" lon="0.97013">
        <ele>84</ele>
        <time>2020-06-21T06:56:08Z</time>
      </trkpt>
      <trkpt lat="49.42331" lon="0.97007">
        <ele>84</ele>
        <time>2020-06-21T06:56:09Z</time>
      </trkpt>
      <trkpt lat="49.4233" lon="0.97002">
        <ele>84</ele>
        <time>2020-06-21T06:56:10Z</time>
      </trkpt>
      <trkpt lat="49.4233" lon="0.96996">
        <ele>84</ele>
        <time>2020-06-21T06:56:11Z</time>
      </trkpt>
      <trkpt lat="49.42331" lon="0.96986">
        <ele>85.1</ele>
        <time>2020-06-21T06:56:13Z</time>
      </trkpt>
      <trkpt lat="49.42332" lon="0.96977">
        <ele>86.4</ele>
        <time>2020-06-21T06:56:14Z</time>
      </trkpt>
      <trkpt lat="49.42333" lon="0.96968">
        <ele>87.2</ele>
        <time>2020-06-21T06:56:15Z</time>
      </trkpt>
      <trkpt lat="49.42335" lon="0.96958">
        <ele>87.8</ele>
        <time>2020-06-21T06:56:17Z</time>
      </trkpt>
      <trkpt lat="49.42337" lon="0.9695">
        <ele>87.7</ele>
        <time>2020-06-21T06:56:18Z</time>
      </trkpt>
      <trkpt lat="49.42339" lon="0.96943">
        <ele>87.6</ele>
        <time>2020-06-21T06:56:19Z</time>
      </trkpt>
      <trkpt lat="49.4234" lon="0.96936">
        <ele>87.1</ele>
        <time>2020-06-21T06:56:20Z</time>
      </trkpt>
      <trkpt lat="49.42344" lon="0.96923">
        <ele>85.9</ele>
        <time>2020-06-21T06:56:22Z</time>
      </trkpt>
      <trkpt lat="49.42345" lon="0.96914">
        <ele>85</ele>
        <time>2020-06-21T06:56:23Z</time>
      </trkpt>
      <trkpt lat="49.42347" lon="0.96905">
        <ele>84.4</ele>
        <time>2020-06-21T06:56:25Z</time>
      </trkpt>
      <trkpt lat="49.42348" lon="0.96897">
        <ele>84.2</ele>
        <time>2020-06-21T06:56:26Z</time>
      </trkpt>
      <trkpt lat="49.42347" lon="0.96889">
        <ele>84.4</ele>
        <time>2020-06-21T06:56:27Z</time>
      </trkpt>
      <trkpt lat="49.42348" lon="0.96876">
        <ele>84.9</ele>
        <time>2020-06-21T06:56:29Z</time>
      </trkpt>
      <trkpt lat="49.42349" lon="0.96867">
        <ele>84.8</ele>
        <time>2020-06-21T06:56:30Z</time>
      </trkpt>
      <trkpt lat="49.4235" lon="0.96857">
        <ele>84.5</ele>
        <time>2020-06-21T06:56:31Z</time>
      </trkpt>
      <trkpt lat="49.42351" lon="0.96847">
        <ele>83.6</ele>
        <time>2020-06-21T06:56:33Z</time>
      </trkpt>
      <trkpt lat="49.42351" lon="0.96837">
        <ele>82.8</ele>
        <time>2020-06-21T06:56:34Z</time>
      </trkpt>
      <trkpt lat="49.42352" lon="0.96828">
        <ele>82.1</ele>
        <time>2020-06-21T06:56:35Z</time>
      </trkpt>
      <trkpt lat="49.42354" lon="0.96814">
        <ele>81.1</ele>
        <time>2020-06-21T06:56:36Z</time>
      </trkpt>
      <trkpt lat="49.42356" lon="0.96797">
        <ele>79.8</ele>
        <time>2020-06-21T06:56:38Z</time>
      </trkpt>
      <trkpt lat="49.42357" lon="0.9679">
        <ele>79.2</ele>
        <time>2020-06-21T06:56:39Z</time>
      </trkpt>
      <trkpt lat="49.42359" lon="0.96782">
        <ele>78.6</ele>
        <time>2020-06-21T06:56:40Z</time>
      </trkpt>
      <trkpt lat="49.42361" lon="0.96767">
        <ele>78</ele>
        <time>2020-06-21T06:56:42Z</time>
      </trkpt>
      <trkpt lat="49.42362" lon="0.9676">
        <ele>77.7</ele>
        <time>2020-06-21T06:56:43Z</time>
      </trkpt>
      <trkpt lat="49.42363" lon="0.96752">
        <ele>77.5</ele>
        <time>2020-06-21T06:56:44Z</time>
      </trkpt>
      <trkpt lat="49.42364" lon="0.96744">
        <ele>77.5</ele>
        <time>2020-06-21T06:56:45Z</time>
      </trkpt>
      <trkpt lat="49.42365" lon="0.96737">
        <ele>77.5</ele>
        <time>2020-06-21T06:56:47Z</time>
      </trkpt>
      <trkpt lat="49.42365" lon="0.9673">
        <ele>77.4</ele>
        <time>2020-06-21T06:56:48Z</time>
      </trkpt>
      <trkpt lat="49.42366" lon="0.96711">
        <ele>77.6</ele>
        <time>2020-06-21T06:56:50Z</time>
      </trkpt>
      <trkpt lat="49.42368" lon="0.96704">
        <ele>77.6</ele>
        <time>2020-06-21T06:56:51Z</time>
      </trkpt>
      <trkpt lat="49.4237" lon="0.96692">
        <ele>77.6</ele>
        <time>2020-06-21T06:56:53Z</time>
      </trkpt>
      <trkpt lat="49.42375" lon="0.96671">
        <ele>76.9</ele>
        <time>2020-06-21T06:56:54Z</time>
      </trkpt>
      <trkpt lat="49.42376" lon="0.9666">
        <ele>76</ele>
        <time>2020-06-21T06:56:55Z</time>
      </trkpt>
      <trkpt lat="49.4238" lon="0.96643">
        <ele>74.9</ele>
        <time>2020-06-21T06:56:57Z</time>
      </trkpt>
      <trkpt lat="49.42381" lon="0.96633">
        <ele>74.5</ele>
        <time>2020-06-21T06:56:58Z</time>
      </trkpt>
      <trkpt lat="49.42383" lon="0.96622">
        <ele>73.9</ele>
        <time>2020-06-21T06:57:00Z</time>
      </trkpt>
      <trkpt lat="49.42384" lon="0.96614">
        <ele>73.4</ele>
        <time>2020-06-21T06:57:01Z</time>
      </trkpt>
      <trkpt lat="49.42387" lon="0.96602">
        <ele>73.2</ele>
        <time>2020-06-21T06:57:03Z</time>
      </trkpt>
      <trkpt lat="49.42388" lon="0.96593">
        <ele>72.9</ele>
        <time>2020-06-21T06:57:04Z</time>
      </trkpt>
      <trkpt lat="49.42389" lon="0.96584">
        <ele>72.9</ele>
        <time>2020-06-21T06:57:05Z</time>
      </trkpt>
      <trkpt lat="49.4239" lon="0.96577">
        <ele>73</ele>
        <time>2020-06-21T06:57:06Z</time>
      </trkpt>
      <trkpt lat="49.42391" lon="0.96562">
        <ele>73</ele>
        <time>2020-06-21T06:57:08Z</time>
      </trkpt>
      <trkpt lat="49.42391" lon="0.9655">
        <ele>73.3</ele>
        <time>2020-06-21T06:57:09Z</time>
      </trkpt>
      <trkpt lat="49.42392" lon="0.9654">
        <ele>73.5</ele>
        <time>2020-06-21T06:57:10Z</time>
      </trkpt>
      <trkpt lat="49.42394" lon="0.96528">
        <ele>73.6</ele>
        <time>2020-06-21T06:57:12Z</time>
      </trkpt>
      <trkpt lat="49.42396" lon="0.96515">
        <ele>74</ele>
        <time>2020-06-21T06:57:13Z</time>
      </trkpt>
      <trkpt lat="49.42397" lon="0.96507">
        <ele>74.1</ele>
        <time>2020-06-21T06:57:15Z</time>
      </trkpt>
      <trkpt lat="49.42398" lon="0.96497">
        <ele>74.6</ele>
        <time>2020-06-21T06:57:16Z</time>
      </trkpt>
      <trkpt lat="49.42397" lon="0.96486">
        <ele>75.2</ele>
        <time>2020-06-21T06:57:18Z</time>
      </trkpt>
      <trkpt lat="49.42397" lon="0.96478">
        <ele>75.6</ele>
        <time>2020-06-21T06:57:19Z</time>
      </trkpt>
      <trkpt lat="49.42397" lon="0.96467">
        <ele>75.9</ele>
        <time>2020-06-21T06:57:20Z</time>
      </trkpt>
      <trkpt lat="49.42399" lon="0.96457">
        <ele>75.8</ele>
        <time>2020-06-21T06:57:22Z</time>
      </trkpt>
      <trkpt lat="49.424" lon="0.96448">
        <ele>76.1</ele>
        <time>2020-06-21T06:57:23Z</time>
      </trkpt>
      <trkpt lat="49.424" lon="0.96442">
        <ele>76.3</ele>
        <time>2020-06-21T06:57:24Z</time>
      </trkpt>
      <trkpt lat="49.42401" lon="0.96435">
        <ele>76.4</ele>
        <time>2020-06-21T06:57:26Z</time>
      </trkpt>
      <trkpt lat="49.42401" lon="0.96429">
        <ele>76.5</ele>
        <time>2020-06-21T06:57:27Z</time>
      </trkpt>
      <trkpt lat="49.42403" lon="0.96423">
        <ele>76.7</ele>
        <time>2020-06-21T06:57:28Z</time>
      </trkpt>
      <trkpt lat="49.42404" lon="0.96418">
        <ele>77</ele>
        <time>2020-06-21T06:57:29Z</time>
      </trkpt>
      <trkpt lat="49.42405" lon="0.9641">
        <ele>76.9</ele>
        <time>2020-06-21T06:57:31Z</time>
      </trkpt>
      <trkpt lat="49.42406" lon="0.96402">
        <ele>77</ele>
        <time>2020-06-21T06:57:32Z</time>
      </trkpt>
      <trkpt lat="49.42407" lon="0.96395">
        <ele>76.7</ele>
        <time>2020-06-21T06:57:33Z</time>
      </trkpt>
      <trkpt lat="49.42409" lon="0.96381">
        <ele>76.8</ele>
        <time>2020-06-21T06:57:35Z</time>
      </trkpt>
      <trkpt lat="49.4241" lon="0.96374">
        <ele>76.5</ele>
        <time>2020-06-21T06:57:36Z</time>
      </trkpt>
      <trkpt lat="49.42411" lon="0.96365">
        <ele>76.7</ele>
        <time>2020-06-21T06:57:38Z</time>
      </trkpt>
      <trkpt lat="49.42409" lon="0.9636">
        <ele>77.2</ele>
        <time>2020-06-21T06:57:39Z</time>
      </trkpt>
      <trkpt lat="49.42407" lon="0.96357">
        <ele>77.3</ele>
        <time>2020-06-21T06:57:40Z</time>
      </trkpt>
      <trkpt lat="49.42405" lon="0.96355">
        <ele>77.7</ele>
        <time>2020-06-21T06:57:41Z</time>
      </trkpt>
      <trkpt lat="49.42401" lon="0.96352">
        <ele>78.5</ele>
        <time>2020-06-21T06:57:43Z</time>
      </trkpt>
      <trkpt lat="49.42396" lon="0.96348">
        <ele>79.4</ele>
        <time>2020-06-21T06:57:45Z</time>
      </trkpt>
      <trkpt lat="49.42391" lon="0.96343">
        <ele>80</ele>
        <time>2020-06-21T06:57:46Z</time>
      </trkpt>
      <trkpt lat="49.42385" lon="0.96339">
        <ele>80.9</ele>
        <time>2020-06-21T06:57:47Z</time>
      </trkpt>
      <trkpt lat="49.42381" lon="0.96335">
        <ele>81.6</ele>
        <time>2020-06-21T06:57:49Z</time>
      </trkpt>
      <trkpt lat="49.42378" lon="0.96332">
        <ele>82.1</ele>
        <time>2020-06-21T06:57:50Z</time>
      </trkpt>
      <trkpt lat="49.42375" lon="0.96328">
        <ele>82.2</ele>
        <time>2020-06-21T06:57:51Z</time>
      </trkpt>
      <trkpt lat="49.42372" lon="0.96325">
        <ele>82.7</ele>
        <time>2020-06-21T06:57:53Z</time>
      </trkpt>
      <trkpt lat="49.4237" lon="0.96323">
        <ele>83.1</ele>
        <time>2020-06-21T06:57:54Z</time>
      </trkpt>
      <trkpt lat="49.42365" lon="0.96319">
        <ele>83.5</ele>
        <time>2020-06-21T06:57:56Z</time>
      </trkpt>
      <trkpt lat="49.42363" lon="0.96316">
        <ele>83.5</ele>
        <time>2020-06-21T06:57:57Z</time>
      </trkpt>
      <trkpt lat="49.42359" lon="0.96313">
        <ele>83.8</ele>
        <time>2020-06-21T06:57:58Z</time>
      </trkpt>
      <trkpt lat="49.42356" lon="0.96311">
        <ele>83.7</ele>
        <time>2020-06-21T06:58:00Z</time>
      </trkpt>
      <trkpt lat="49.42352" lon="0.96308">
        <ele>83.8</ele>
        <time>2020-06-21T06:58:01Z</time>
      </trkpt>
      <trkpt lat="49.42347" lon="0.96305">
        <ele>83.8</ele>
        <time>2020-06-21T06:58:03Z</time>
      </trkpt>
      <trkpt lat="49.42344" lon="0.96302">
        <ele>84</ele>
        <time>2020-06-21T06:58:04Z</time>
      </trkpt>
      <trkpt lat="49.42342" lon="0.96299">
        <ele>83.8</ele>
        <time>2020-06-21T06:58:05Z</time>
      </trkpt>
      <trkpt lat="49.42338" lon="0.96297">
        <ele>84</ele>
        <time>2020-06-21T06:58:06Z</time>
      </trkpt>
      <trkpt lat="49.42337" lon="0.96296">
        <ele>84</ele>
        <time>2020-06-21T06:58:07Z</time>
      </trkpt>
      <trkpt lat="49.42334" lon="0.96293">
        <ele>84.1</ele>
        <time>2020-06-21T06:58:09Z</time>
      </trkpt>
      <trkpt lat="49.42332" lon="0.96292">
        <ele>84.1</ele>
        <time>2020-06-21T06:58:10Z</time>
      </trkpt>
      <trkpt lat="49.42328" lon="0.96289">
        <ele>84.1</ele>
        <time>2020-06-21T06:58:11Z</time>
      </trkpt>
      <trkpt lat="49.42324" lon="0.96286">
        <ele>84</ele>
        <time>2020-06-21T06:58:13Z</time>
      </trkpt>
      <trkpt lat="49.42317" lon="0.96281">
        <ele>83.8</ele>
        <time>2020-06-21T06:58:15Z</time>
      </trkpt>
      <trkpt lat="49.42313" lon="0.96279">
        <ele>83.8</ele>
        <time>2020-06-21T06:58:16Z</time>
      </trkpt>
      <trkpt lat="49.4231" lon="0.96276">
        <ele>83.7</ele>
        <time>2020-06-21T06:58:18Z</time>
      </trkpt>
      <trkpt lat="49.42308" lon="0.96274">
        <ele>83.5</ele>
        <time>2020-06-21T06:58:19Z</time>
      </trkpt>
      <trkpt lat="49.42305" lon="0.96272">
        <ele>83.4</ele>
        <time>2020-06-21T06:58:20Z</time>
      </trkpt>
      <trkpt lat="49.42301" lon="0.9627">
        <ele>83.3</ele>
        <time>2020-06-21T06:58:22Z</time>
      </trkpt>
      <trkpt lat="49.42299" lon="0.96268">
        <ele>83.1</ele>
        <time>2020-06-21T06:58:23Z</time>
      </trkpt>
      <trkpt lat="49.42295" lon="0.96265">
        <ele>83</ele>
        <time>2020-06-21T06:58:24Z</time>
      </trkpt>
      <trkpt lat="49.42291" lon="0.96263">
        <ele>82.8</ele>
        <time>2020-06-21T06:58:25Z</time>
      </trkpt>
      <trkpt lat="49.42288" lon="0.9626">
        <ele>82.7</ele>
        <time>2020-06-21T06:58:26Z</time>
      </trkpt>
      <trkpt lat="49.42285" lon="0.96258">
        <ele>82.7</ele>
        <time>2020-06-21T06:58:27Z</time>
      </trkpt>
      <trkpt lat="49.4228" lon="0.96253">
        <ele>82.6</ele>
        <time>2020-06-21T06:58:29Z</time>
      </trkpt>
      <trkpt lat="49.42276" lon="0.9625">
        <ele>82.5</ele>
        <time>2020-06-21T06:58:30Z</time>
      </trkpt>
      <trkpt lat="49.42271" lon="0.96246">
        <ele>82.5</ele>
        <time>2020-06-21T06:58:32Z</time>
      </trkpt>
      <trkpt lat="49.42267" lon="0.96243">
        <ele>82.6</ele>
        <time>2020-06-21T06:58:34Z</time>
      </trkpt>
      <trkpt lat="49.42263" lon="0.9624">
        <ele>82.5</ele>
        <time>2020-06-21T06:58:35Z</time>
      </trkpt>
      <trkpt lat="49.42259" lon="0.96237">
        <ele>82.5</ele>
        <time>2020-06-21T06:58:36Z</time>
      </trkpt>
      <trkpt lat="49.42252" lon="0.9623">
        <ele>82.4</ele>
        <time>2020-06-21T06:58:38Z</time>
      </trkpt>
      <trkpt lat="49.42248" lon="0.96228">
        <ele>82.2</ele>
        <time>2020-06-21T06:58:39Z</time>
      </trkpt>
      <trkpt lat="49.42246" lon="0.96227">
        <ele>82.1</ele>
        <time>2020-06-21T06:58:40Z</time>
      </trkpt>
      <trkpt lat="49.42245" lon="0.96226">
        <ele>82</ele>
        <time>2020-06-21T06:58:41Z</time>
      </trkpt>
      <trkpt lat="49.42241" lon="0.96223">
        <ele>81.8</ele>
        <time>2020-06-21T06:58:43Z</time>
      </trkpt>
      <trkpt lat="49.42238" lon="0.96222">
        <ele>81.7</ele>
        <time>2020-06-21T06:58:44Z</time>
      </trkpt>
      <trkpt lat="49.42232" lon="0.96219">
        <ele>81.3</ele>
        <time>2020-06-21T06:58:45Z</time>
      </trkpt>
      <trkpt lat="49.42228" lon="0.96216">
        <ele>80.9</ele>
        <time>2020-06-21T06:58:46Z</time>
      </trkpt>
      <trkpt lat="49.42222" lon="0.96214">
        <ele>80.7</ele>
        <time>2020-06-21T06:58:48Z</time>
      </trkpt>
      <trkpt lat="49.42218" lon="0.96212">
        <ele>80.6</ele>
        <time>2020-06-21T06:58:49Z</time>
      </trkpt>
      <trkpt lat="49.42211" lon="0.96209">
        <ele>80.1</ele>
        <time>2020-06-21T06:58:50Z</time>
      </trkpt>
      <trkpt lat="49.42207" lon="0.96207">
        <ele>79.8</ele>
        <time>2020-06-21T06:58:52Z</time>
      </trkpt>
      <trkpt lat="49.42205" lon="0.96205">
        <ele>79.8</ele>
        <time>2020-06-21T06:58:53Z</time>
      </trkpt>
      <trkpt lat="49.42201" lon="0.96202">
        <ele>79.5</ele>
        <time>2020-06-21T06:58:54Z</time>
      </trkpt>
      <trkpt lat="49.42195" lon="0.96198">
        <ele>79.2</ele>
        <time>2020-06-21T06:58:56Z</time>
      </trkpt>
      <trkpt lat="49.42191" lon="0.96196">
        <ele>79.2</ele>
        <time>2020-06-21T06:58:57Z</time>
      </trkpt>
      <trkpt lat="49.42185" lon="0.96193">
        <ele>79.1</ele>
        <time>2020-06-21T06:58:58Z</time>
      </trkpt>
      <trkpt lat="49.42182" lon="0.96191">
        <ele>79.2</ele>
        <time>2020-06-21T06:59:00Z</time>
      </trkpt>
      <trkpt lat="49.42179" lon="0.96188">
        <ele>79.1</ele>
        <time>2020-06-21T06:59:01Z</time>
      </trkpt>
      <trkpt lat="49.42174" lon="0.96184">
        <ele>79.2</ele>
        <time>2020-06-21T06:59:02Z</time>
      </trkpt>
      <trkpt lat="49.42171" lon="0.9618">
        <ele>79.2</ele>
        <time>2020-06-21T06:59:04Z</time>
      </trkpt>
      <trkpt lat="49.42168" lon="0.96177">
        <ele>79.3</ele>
        <time>2020-06-21T06:59:05Z</time>
      </trkpt>
      <trkpt lat="49.42165" lon="0.96174">
        <ele>79.4</ele>
        <time>2020-06-21T06:59:06Z</time>
      </trkpt>
      <trkpt lat="49.42163" lon="0.96171">
        <ele>79.4</ele>
        <time>2020-06-21T06:59:07Z</time>
      </trkpt>
      <trkpt lat="49.4216" lon="0.96167">
        <ele>79.5</ele>
        <time>2020-06-21T06:59:09Z</time>
      </trkpt>
      <trkpt lat="49.42157" lon="0.96165">
        <ele>79.5</ele>
        <time>2020-06-21T06:59:10Z</time>
      </trkpt>
      <trkpt lat="49.42154" lon="0.96162">
        <ele>79.6</ele>
        <time>2020-06-21T06:59:11Z</time>
      </trkpt>
      <trkpt lat="49.42149" lon="0.96159">
        <ele>79.7</ele>
        <time>2020-06-21T06:59:12Z</time>
      </trkpt>
      <trkpt lat="49.42145" lon="0.96156">
        <ele>79.7</ele>
        <time>2020-06-21T06:59:13Z</time>
      </trkpt>
      <trkpt lat="49.42142" lon="0.96154">
        <ele>79.7</ele>
        <time>2020-06-21T06:59:15Z</time>
      </trkpt>
      <trkpt lat="49.4214" lon="0.96152">
        <ele>79.8</ele>
        <time>2020-06-21T06:59:16Z</time>
      </trkpt>
      <trkpt lat="49.42138" lon="0.9615">
        <ele>79.8</ele>
        <time>2020-06-21T06:59:18Z</time>
      </trkpt>
      <trkpt lat="49.42138" lon="0.9615">
        <ele>79.8</ele>
        <time>2020-06-21T06:59:19Z</time>
      </trkpt>
      <trkpt lat="49.42138" lon="0.96149">
        <ele>79.8</ele>
        <time>2020-06-21T06:59:20Z</time>
      </trkpt>
      <trkpt lat="49.42137" lon="0.96148">
        <ele>79.8</ele>
        <time>2020-06-21T06:59:22Z</time>
      </trkpt>
      <trkpt lat="49.42137" lon="0.96148">
        <ele>79.8</ele>
        <time>2020-06-21T06:59:24Z</time>
      </trkpt>
      <trkpt lat="49.42137" lon="0.96147">
        <ele>79.8</ele>
        <time>2020-06-21T06:59:25Z</time>
      </trkpt>
      <trkpt lat="49.42137" lon="0.96147">
        <ele>79.8</ele>
        <time>2020-06-21T06:59:27Z</time>
      </trkpt>
      <trkpt lat="49.42137" lon="0.96147">
        <ele>79.8</ele>
        <time>2020-06-21T06:59:29Z</time>
      </trkpt>
      <trkpt lat="49.42137" lon="0.96147">
        <ele>79.8</ele>
        <time>2020-06-21T06:59:30Z</time>
      </trkpt>
      <trkpt lat="49.42137" lon="0.96146">
        <ele>79.8</ele>
        <time>2020-06-21T06:59:32Z</time>
      </trkpt>
      <trkpt lat="49.42137" lon="0.96146">
        <ele>79.8</ele>
        <time>2020-06-21T06:59:34Z</time>
      </trkpt>
      <trkpt lat="49.42137" lon="0.96145">
        <ele>79.8</ele>
        <time>2020-06-21T06:59:35Z</time>
      </trkpt>
      <trkpt lat="49.42138" lon="0.96145">
        <ele>79.8</ele>
        <time>2020-06-21T06:59:36Z</time>
      </trkpt>
      <trkpt lat="49.42138" lon="0.96145">
        <ele>79.8</ele>
        <time>2020-06-21T06:59:37Z</time>
      </trkpt>
      <trkpt lat="49.42138" lon="0.96145">
        <ele>79.8</ele>
        <time>2020-06-21T06:59:38Z</time>
      </trkpt>
      <trkpt lat="49.42137" lon="0.96144">
        <ele>79.8</ele>
        <time>2020-06-21T06:59:40Z</time>
      </trkpt>
      <trkpt lat="49.42137" lon="0.96144">
        <ele>79.8</ele>
        <time>2020-06-21T06:59:41Z</time>
      </trkpt>
      <trkpt lat="49.42137" lon="0.96144">
        <ele>79.8</ele>
        <time>2020-06-21T06:59:42Z</time>
      </trkpt>
      <trkpt lat="49.42137" lon="0.96144">
        <ele>79.8</ele>
        <time>2020-06-21T06:59:44Z</time>
      </trkpt>
      <trkpt lat="49.42137" lon="0.96144">
        <ele>79.8</ele>
        <time>2020-06-21T06:59:46Z</time>
      </trkpt>
      <trkpt lat="49.42137" lon="0.96144">
        <ele>79.8</ele>
        <time>2020-06-21T06:59:48Z</time>
      </trkpt>
      <trkpt lat="49.42137" lon="0.96144">
        <ele>79.8</ele>
        <time>2020-06-21T06:59:49Z</time>
      </trkpt>
      <trkpt lat="49.42137" lon="0.96143">
        <ele>79.8</ele>
        <time>2020-06-21T06:59:51Z</time>
      </trkpt>
      <trkpt lat="49.42137" lon="0.96143">
        <ele>79.8</ele>
        <time>2020-06-21T06:59:53Z</time>
      </trkpt>
      <trkpt lat="49.42136" lon="0.96143">
        <ele>79.8</ele>
        <time>2020-06-21T06:59:55Z</time>
      </trkpt>
      <trkpt lat="49.42136" lon="0.96143">
        <ele>79.8</ele>
        <time>2020-06-21T06:59:56Z</time>
      </trkpt>
      <trkpt lat="49.42136" lon="0.96143">
        <ele>79.8</ele>
        <time>2020-06-21T06:59:57Z</time>
      </trkpt>
      <trkpt lat="49.42135" lon="0.96143">
        <ele>79.8</ele>
        <time>2020-06-21T06:59:59Z</time>
      </trkpt>
      <trkpt lat="49.42135" lon="0.96143">
        <ele>79.8</ele>
        <time>2020-06-21T07:00:00Z</time>
      </trkpt>
      <trkpt lat="49.42135" lon="0.96143">
        <ele>79.8</ele>
        <time>2020-06-21T07:00:01Z</time>
      </trkpt>
      <trkpt lat="49.42134" lon="0.96143">
        <ele>79.8</ele>
        <time>2020-06-21T07:00:02Z</time>
      </trkpt>
      <trkpt lat="49.42133" lon="0.96142">
        <ele>79.8</ele>
        <time>2020-06-21T07:00:04Z</time>
      </trkpt>
      <trkpt lat="49.42131" lon="0.96141">
        <ele>79.8</ele>
        <time>2020-06-21T07:00:06Z</time>
      </trkpt>
      <trkpt lat="49.42129" lon="0.96138">
        <ele>79.8</ele>
        <time>2020-06-21T07:00:07Z</time>
      </trkpt>
      <trkpt lat="49.42127" lon="0.96131">
        <ele>79.8</ele>
        <time>2020-06-21T07:00:09Z</time>
      </trkpt>
      <trkpt lat="49.42128" lon="0.96127">
        <ele>79.8</ele>
        <time>2020-06-21T07:00:10Z</time>
      </trkpt>
      <trkpt lat="49.42129" lon="0.96118">
        <ele>79.8</ele>
        <time>2020-06-21T07:00:12Z</time>
      </trkpt>
      <trkpt lat="49.42131" lon="0.96113">
        <ele>79.8</ele>
        <time>2020-06-21T07:00:13Z</time>
      </trkpt>
      <trkpt lat="49.42133" lon="0.96101">
        <ele>79.7</ele>
        <time>2020-06-21T07:00:15Z</time>
      </trkpt>
      <trkpt lat="49.42133" lon="0.96098">
        <ele>79.6</ele>
        <time>2020-06-21T07:00:16Z</time>
      </trkpt>
      <trkpt lat="49.42134" lon="0.96088">
        <ele>79.5</ele>
        <time>2020-06-21T07:00:18Z</time>
      </trkpt>
      <trkpt lat="49.42134" lon="0.96082">
        <ele>79.4</ele>
        <time>2020-06-21T07:00:19Z</time>
      </trkpt>
      <trkpt lat="49.42136" lon="0.9607">
        <ele>79.3</ele>
        <time>2020-06-21T07:00:21Z</time>
      </trkpt>
      <trkpt lat="49.42136" lon="0.9607">
        <ele>79.3</ele>
        <time>2020-06-21T07:00:23Z</time>
      </trkpt>
      <trkpt lat="49.42136" lon="0.96065">
        <ele>79.2</ele>
        <time>2020-06-21T07:00:24Z</time>
      </trkpt>
      <trkpt lat="49.42138" lon="0.96054">
        <ele>79.1</ele>
        <time>2020-06-21T07:00:25Z</time>
      </trkpt>
      <trkpt lat="49.42139" lon="0.96047">
        <ele>79</ele>
        <time>2020-06-21T07:00:27Z</time>
      </trkpt>
      <trkpt lat="49.42141" lon="0.96038">
        <ele>78.9</ele>
        <time>2020-06-21T07:00:28Z</time>
      </trkpt>
      <trkpt lat="49.42144" lon="0.96029">
        <ele>78.8</ele>
        <time>2020-06-21T07:00:30Z</time>
      </trkpt>
      <trkpt lat="49.42145" lon="0.96023">
        <ele>78.7</ele>
        <time>2020-06-21T07:00:31Z</time>
      </trkpt>
      <trkpt lat="49.42148" lon="0.96013">
        <ele>78.4</ele>
        <time>2020-06-21T07:00:32Z</time>
      </trkpt>
      <trkpt lat="49.42151" lon="0.96002">
        <ele>78.1</ele>
        <time>2020-06-21T07:00:34Z</time>
      </trkpt>
      <trkpt lat="49.42154" lon="0.95989">
        <ele>77.7</ele>
        <time>2020-06-21T07:00:36Z</time>
      </trkpt>
      <trkpt lat="49.42157" lon="0.95976">
        <ele>77.2</ele>
        <time>2020-06-21T07:00:38Z</time>
      </trkpt>
      <trkpt lat="49.42157" lon="0.9597">
        <ele>77</ele>
        <time>2020-06-21T07:00:39Z</time>
      </trkpt>
      <trkpt lat="49.42159" lon="0.95961">
        <ele>76.8</ele>
        <time>2020-06-21T07:00:41Z</time>
      </trkpt>
      <trkpt lat="49.42159" lon="0.95957">
        <ele>76.7</ele>
        <time>2020-06-21T07:00:42Z</time>
      </trkpt>
      <trkpt lat="49.4216" lon="0.95951">
        <ele>76.6</ele>
        <time>2020-06-21T07:00:43Z</time>
      </trkpt>
      <trkpt lat="49.42161" lon="0.9594">
        <ele>75.9</ele>
        <time>2020-06-21T07:00:45Z</time>
      </trkpt>
      <trkpt lat="49.42163" lon="0.95929">
        <ele>75.1</ele>
        <time>2020-06-21T07:00:47Z</time>
      </trkpt>
      <trkpt lat="49.42163" lon="0.95925">
        <ele>74.6</ele>
        <time>2020-06-21T07:00:48Z</time>
      </trkpt>
      <trkpt lat="49.42164" lon="0.95918">
        <ele>73.5</ele>
        <time>2020-06-21T07:00:50Z</time>
      </trkpt>
      <trkpt lat="49.42165" lon="0.95914">
        <ele>72.8</ele>
        <time>2020-06-21T07:00:51Z</time>
      </trkpt>
      <trkpt lat="49.42166" lon="0.95907">
        <ele>71.3</ele>
        <time>2020-06-21T07:00:53Z</time>
      </trkpt>
      <trkpt lat="49.42167" lon="0.95904">
        <ele>71.3</ele>
        <time>2020-06-21T07:00:54Z</time>
      </trkpt>
      <trkpt lat="49.42167" lon="0.95897">
        <ele>69.4</ele>
        <time>2020-06-21T07:00:56Z</time>
      </trkpt>
      <trkpt lat="49.42168" lon="0.95891">
        <ele>68.3</ele>
        <time>2020-06-21T07:00:58Z</time>
      </trkpt>
      <trkpt lat="49.42169" lon="0.95881">
        <ele>64.7</ele>
        <time>2020-06-21T07:01:00Z</time>
      </trkpt>
      <trkpt lat="49.4217" lon="0.95876">
        <ele>63.5</ele>
        <time>2020-06-21T07:01:01Z</time>
      </trkpt>
      <trkpt lat="49.42171" lon="0.95867">
        <ele>60.7</ele>
        <time>2020-06-21T07:01:03Z</time>
      </trkpt>
      <trkpt lat="49.42172" lon="0.95861">
        <ele>59.4</ele>
        <time>2020-06-21T07:01:05Z</time>
      </trkpt>
      <trkpt lat="49.42175" lon="0.95856">
        <ele>58.1</ele>
        <time>2020-06-21T07:01:06Z</time>
      </trkpt>
      <trkpt lat="49.42176" lon="0.95855">
        <ele>56.4</ele>
        <time>2020-06-21T07:01:07Z</time>
      </trkpt>
      <trkpt lat="49.4218" lon="0.95848">
        <ele>55.2</ele>
        <time>2020-06-21T07:01:09Z</time>
      </trkpt>
      <trkpt lat="49.42182" lon="0.95845">
        <ele>54</ele>
        <time>2020-06-21T07:01:10Z</time>
      </trkpt>
      <trkpt lat="49.42185" lon="0.95841">
        <ele>53</ele>
        <time>2020-06-21T07:01:12Z</time>
      </trkpt>
      <trkpt lat="49.42187" lon="0.9584">
        <ele>53.6</ele>
        <time>2020-06-21T07:01:13Z</time>
      </trkpt>
      <trkpt lat="49.42189" lon="0.95833">
        <ele>50.9</ele>
        <time>2020-06-21T07:01:15Z</time>
      </trkpt>
      <trkpt lat="49.42189" lon="0.95831">
        <ele>51.7</ele>
        <time>2020-06-21T07:01:16Z</time>
      </trkpt>
      <trkpt lat="49.4219" lon="0.9583">
        <ele>50.4</ele>
        <time>2020-06-21T07:01:18Z</time>
      </trkpt>
      <trkpt lat="49.4219" lon="0.95828">
        <ele>50.4</ele>
        <time>2020-06-21T07:01:20Z</time>
      </trkpt>
      <trkpt lat="49.42189" lon="0.95822">
        <ele>49.1</ele>
        <time>2020-06-21T07:01:22Z</time>
      </trkpt>
      <trkpt lat="49.4219" lon="0.95815">
        <ele>46.4</ele>
        <time>2020-06-21T07:01:24Z</time>
      </trkpt>
      <trkpt lat="49.42192" lon="0.95808">
        <ele>43.5</ele>
        <time>2020-06-21T07:01:26Z</time>
      </trkpt>
      <trkpt lat="49.42192" lon="0.95807">
        <ele>43.5</ele>
        <time>2020-06-21T07:01:27Z</time>
      </trkpt>
      <trkpt lat="49.42191" lon="0.95803">
        <ele>41.9</ele>
        <time>2020-06-21T07:01:29Z</time>
      </trkpt>
      <trkpt lat="49.4219" lon="0.95803">
        <ele>41.9</ele>
        <time>2020-06-21T07:01:31Z</time>
      </trkpt>
      <trkpt lat="49.4219" lon="0.95803">
        <ele>41.9</ele>
        <time>2020-06-21T07:01:32Z</time>
      </trkpt>
      <trkpt lat="49.42186" lon="0.95798">
        <ele>38.9</ele>
        <time>2020-06-21T07:01:34Z</time>
      </trkpt>
      <trkpt lat="49.42184" lon="0.95794">
        <ele>37.5</ele>
        <time>2020-06-21T07:01:36Z</time>
      </trkpt>
      <trkpt lat="49.4218" lon="0.95793">
        <ele>36.6</ele>
        <time>2020-06-21T07:01:37Z</time>
      </trkpt>
      <trkpt lat="49.42175" lon="0.95791">
        <ele>35.3</ele>
        <time>2020-06-21T07:01:39Z</time>
      </trkpt>
      <trkpt lat="49.42172" lon="0.95789">
        <ele>35.4</ele>
        <time>2020-06-21T07:01:41Z</time>
      </trkpt>
      <trkpt lat="49.42168" lon="0.95789">
        <ele>35.6</ele>
        <time>2020-06-21T07:01:42Z</time>
      </trkpt>
      <trkpt lat="49.42157" lon="0.95786">
        <ele>36.2</ele>
        <time>2020-06-21T07:01:44Z</time>
      </trkpt>
      <trkpt lat="49.42146" lon="0.95782">
        <ele>36.2</ele>
        <time>2020-06-21T07:01:46Z</time>
      </trkpt>
      <trkpt lat="49.42142" lon="0.95781">
        <ele>36</ele>
        <time>2020-06-21T07:01:47Z</time>
      </trkpt>
      <trkpt lat="49.42137" lon="0.95779">
        <ele>35.4</ele>
        <time>2020-06-21T07:01:49Z</time>
      </trkpt>
      <trkpt lat="49.42131" lon="0.95779">
        <ele>34.6</ele>
        <time>2020-06-21T07:01:51Z</time>
      </trkpt>
      <trkpt lat="49.42129" lon="0.9578">
        <ele>34.1</ele>
        <time>2020-06-21T07:01:52Z</time>
      </trkpt>
      <trkpt lat="49.42124" lon="0.95783">
        <ele>34.2</ele>
        <time>2020-06-21T07:01:54Z</time>
      </trkpt>
      <trkpt lat="49.42122" lon="0.95785">
        <ele>33.8</ele>
        <time>2020-06-21T07:01:55Z</time>
      </trkpt>
      <trkpt lat="49.42117" lon="0.95789">
        <ele>34</ele>
        <time>2020-06-21T07:01:57Z</time>
      </trkpt>
      <trkpt lat="49.42114" lon="0.95791">
        <ele>33.7</ele>
        <time>2020-06-21T07:01:58Z</time>
      </trkpt>
      <trkpt lat="49.4211" lon="0.95791">
        <ele>33.3</ele>
        <time>2020-06-21T07:02:00Z</time>
      </trkpt>
      <trkpt lat="49.42106" lon="0.95787">
        <ele>33.1</ele>
        <time>2020-06-21T07:02:02Z</time>
      </trkpt>
      <trkpt lat="49.42104" lon="0.95786">
        <ele>32.5</ele>
        <time>2020-06-21T07:02:03Z</time>
      </trkpt>
      <trkpt lat="49.421" lon="0.95787">
        <ele>32.8</ele>
        <time>2020-06-21T07:02:05Z</time>
      </trkpt>
      <trkpt lat="49.42097" lon="0.9579">
        <ele>32.6</ele>
        <time>2020-06-21T07:02:06Z</time>
      </trkpt>
      <trkpt lat="49.42096" lon="0.95792">
        <ele>32.7</ele>
        <time>2020-06-21T07:02:07Z</time>
      </trkpt>
      <trkpt lat="49.42093" lon="0.95795">
        <ele>32.7</ele>
        <time>2020-06-21T07:02:09Z</time>
      </trkpt>
      <trkpt lat="49.42092" lon="0.95797">
        <ele>32.4</ele>
        <time>2020-06-21T07:02:10Z</time>
      </trkpt>
      <trkpt lat="49.42089" lon="0.95802">
        <ele>32</ele>
        <time>2020-06-21T07:02:12Z</time>
      </trkpt>
      <trkpt lat="49.42085" lon="0.95806">
        <ele>31.6</ele>
        <time>2020-06-21T07:02:13Z</time>
      </trkpt>
      <trkpt lat="49.42082" lon="0.95809">
        <ele>31.6</ele>
        <time>2020-06-21T07:02:15Z</time>
      </trkpt>
      <trkpt lat="49.42074" lon="0.95815">
        <ele>32.3</ele>
        <time>2020-06-21T07:02:17Z</time>
      </trkpt>
      <trkpt lat="49.42075" lon="0.95816">
        <ele>32.1</ele>
        <time>2020-06-21T07:02:19Z</time>
      </trkpt>
      <trkpt lat="49.42074" lon="0.95817">
        <ele>32.3</ele>
        <time>2020-06-21T07:02:20Z</time>
      </trkpt>
      <trkpt lat="49.42072" lon="0.9582">
        <ele>33.2</ele>
        <time>2020-06-21T07:02:22Z</time>
      </trkpt>
      <trkpt lat="49.42069" lon="0.95823">
        <ele>34.8</ele>
        <time>2020-06-21T07:02:23Z</time>
      </trkpt>
      <trkpt lat="49.42068" lon="0.95825">
        <ele>34.7</ele>
        <time>2020-06-21T07:02:24Z</time>
      </trkpt>
      <trkpt lat="49.42064" lon="0.95829">
        <ele>36.8</ele>
        <time>2020-06-21T07:02:25Z</time>
      </trkpt>
      <trkpt lat="49.42063" lon="0.9583">
        <ele>39.1</ele>
        <time>2020-06-21T07:02:26Z</time>
      </trkpt>
      <trkpt lat="49.42057" lon="0.95836">
        <ele>41.9</ele>
        <time>2020-06-21T07:02:28Z</time>
      </trkpt>
      <trkpt lat="49.42054" lon="0.9584">
        <ele>44.1</ele>
        <time>2020-06-21T07:02:29Z</time>
      </trkpt>
      <trkpt lat="49.42053" lon="0.95841">
        <ele>44.1</ele>
        <time>2020-06-21T07:02:30Z</time>
      </trkpt>
      <trkpt lat="49.42049" lon="0.95844">
        <ele>46.1</ele>
        <time>2020-06-21T07:02:31Z</time>
      </trkpt>
      <trkpt lat="49.42043" lon="0.95849">
        <ele>47.4</ele>
        <time>2020-06-21T07:02:32Z</time>
      </trkpt>
      <trkpt lat="49.4204" lon="0.95852">
        <ele>48.4</ele>
        <time>2020-06-21T07:02:34Z</time>
      </trkpt>
      <trkpt lat="49.42038" lon="0.95854">
        <ele>48.4</ele>
        <time>2020-06-21T07:02:35Z</time>
      </trkpt>
      <trkpt lat="49.42034" lon="0.95858">
        <ele>48.6</ele>
        <time>2020-06-21T07:02:36Z</time>
      </trkpt>
      <trkpt lat="49.42032" lon="0.95859">
        <ele>48.3</ele>
        <time>2020-06-21T07:02:37Z</time>
      </trkpt>
      <trkpt lat="49.42026" lon="0.95863">
        <ele>47.9</ele>
        <time>2020-06-21T07:02:38Z</time>
      </trkpt>
      <trkpt lat="49.42022" lon="0.95867">
        <ele>47.8</ele>
        <time>2020-06-21T07:02:39Z</time>
      </trkpt>
      <trkpt lat="49.42018" lon="0.95871">
        <ele>47</ele>
        <time>2020-06-21T07:02:41Z</time>
      </trkpt>
      <trkpt lat="49.42015" lon="0.95875">
        <ele>46.9</ele>
        <time>2020-06-21T07:02:42Z</time>
      </trkpt>
      <trkpt lat="49.42012" lon="0.95879">
        <ele>46.9</ele>
        <time>2020-06-21T07:02:43Z</time>
      </trkpt>
      <trkpt lat="49.42008" lon="0.95884">
        <ele>46.8</ele>
        <time>2020-06-21T07:02:44Z</time>
      </trkpt>
      <trkpt lat="49.42005" lon="0.95886">
        <ele>46.1</ele>
        <time>2020-06-21T07:02:46Z</time>
      </trkpt>
      <trkpt lat="49.42002" lon="0.95886">
        <ele>46</ele>
        <time>2020-06-21T07:02:47Z</time>
      </trkpt>
      <trkpt lat="49.41998" lon="0.95888">
        <ele>44.5</ele>
        <time>2020-06-21T07:02:49Z</time>
      </trkpt>
      <trkpt lat="49.41994" lon="0.95889">
        <ele>43.8</ele>
        <time>2020-06-21T07:02:50Z</time>
      </trkpt>
      <trkpt lat="49.41991" lon="0.9589">
        <ele>43.7</ele>
        <time>2020-06-21T07:02:51Z</time>
      </trkpt>
      <trkpt lat="49.41987" lon="0.95893">
        <ele>42.4</ele>
        <time>2020-06-21T07:02:52Z</time>
      </trkpt>
      <trkpt lat="49.41984" lon="0.95895">
        <ele>42.4</ele>
        <time>2020-06-21T07:02:53Z</time>
      </trkpt>
      <trkpt lat="49.41981" lon="0.95899">
        <ele>42.4</ele>
        <time>2020-06-21T07:02:54Z</time>
      </trkpt>
      <trkpt lat="49.41977" lon="0.95903">
        <ele>41.6</ele>
        <time>2020-06-21T07:02:55Z</time>
      </trkpt>
      <trkpt lat="49.41973" lon="0.95908">
        <ele>41.4</ele>
        <time>2020-06-21T07:02:57Z</time>
      </trkpt>
      <trkpt lat="49.4197" lon="0.95911">
        <ele>40.5</ele>
        <time>2020-06-21T07:02:58Z</time>
      </trkpt>
      <trkpt lat="49.41968" lon="0.95914">
        <ele>40.2</ele>
        <time>2020-06-21T07:02:59Z</time>
      </trkpt>
      <trkpt lat="49.41964" lon="0.9592">
        <ele>40.5</ele>
        <time>2020-06-21T07:03:01Z</time>
      </trkpt>
      <trkpt lat="49.41963" lon="0.95923">
        <ele>39.6</ele>
        <time>2020-06-21T07:03:02Z</time>
      </trkpt>
      <trkpt lat="49.41959" lon="0.95927">
        <ele>39.4</ele>
        <time>2020-06-21T07:03:04Z</time>
      </trkpt>
      <trkpt lat="49.41956" lon="0.95931">
        <ele>39.1</ele>
        <time>2020-06-21T07:03:05Z</time>
      </trkpt>
      <trkpt lat="49.41954" lon="0.95936">
        <ele>39</ele>
        <time>2020-06-21T07:03:06Z</time>
      </trkpt>
      <trkpt lat="49.41953" lon="0.95942">
        <ele>39.7</ele>
        <time>2020-06-21T07:03:07Z</time>
      </trkpt>
      <trkpt lat="49.41953" lon="0.95947">
        <ele>40.9</ele>
        <time>2020-06-21T07:03:09Z</time>
      </trkpt>
      <trkpt lat="49.41951" lon="0.9595">
        <ele>40.6</ele>
        <time>2020-06-21T07:03:10Z</time>
      </trkpt>
      <trkpt lat="49.4195" lon="0.95954">
        <ele>40.6</ele>
        <time>2020-06-21T07:03:11Z</time>
      </trkpt>
      <trkpt lat="49.41947" lon="0.95963">
        <ele>40.6</ele>
        <time>2020-06-21T07:03:13Z</time>
      </trkpt>
      <trkpt lat="49.41943" lon="0.95974">
        <ele>39.8</ele>
        <time>2020-06-21T07:03:15Z</time>
      </trkpt>
      <trkpt lat="49.4194" lon="0.95983">
        <ele>39.6</ele>
        <time>2020-06-21T07:03:16Z</time>
      </trkpt>
      <trkpt lat="49.41938" lon="0.95989">
        <ele>40.5</ele>
        <time>2020-06-21T07:03:17Z</time>
      </trkpt>
      <trkpt lat="49.41937" lon="0.95997">
        <ele>40.1</ele>
        <time>2020-06-21T07:03:19Z</time>
      </trkpt>
      <trkpt lat="49.41936" lon="0.96001">
        <ele>40.6</ele>
        <time>2020-06-21T07:03:20Z</time>
      </trkpt>
      <trkpt lat="49.41934" lon="0.96006">
        <ele>40.1</ele>
        <time>2020-06-21T07:03:21Z</time>
      </trkpt>
      <trkpt lat="49.41932" lon="0.9601">
        <ele>40.6</ele>
        <time>2020-06-21T07:03:23Z</time>
      </trkpt>
      <trkpt lat="49.41932" lon="0.96012">
        <ele>40</ele>
        <time>2020-06-21T07:03:24Z</time>
      </trkpt>
      <trkpt lat="49.41931" lon="0.96014">
        <ele>39.9</ele>
        <time>2020-06-21T07:03:25Z</time>
      </trkpt>
      <trkpt lat="49.41931" lon="0.96019">
        <ele>40.3</ele>
        <time>2020-06-21T07:03:27Z</time>
      </trkpt>
      <trkpt lat="49.41931" lon="0.96025">
        <ele>40.7</ele>
        <time>2020-06-21T07:03:28Z</time>
      </trkpt>
      <trkpt lat="49.41931" lon="0.96027">
        <ele>40.7</ele>
        <time>2020-06-21T07:03:29Z</time>
      </trkpt>
      <trkpt lat="49.41931" lon="0.96032">
        <ele>41.1</ele>
        <time>2020-06-21T07:03:31Z</time>
      </trkpt>
      <trkpt lat="49.41931" lon="0.96034">
        <ele>41</ele>
        <time>2020-06-21T07:03:32Z</time>
      </trkpt>
      <trkpt lat="49.4193" lon="0.96041">
        <ele>41.5</ele>
        <time>2020-06-21T07:03:33Z</time>
      </trkpt>
      <trkpt lat="49.41929" lon="0.96045">
        <ele>40.7</ele>
        <time>2020-06-21T07:03:34Z</time>
      </trkpt>
      <trkpt lat="49.41928" lon="0.96052">
        <ele>41</ele>
        <time>2020-06-21T07:03:36Z</time>
      </trkpt>
      <trkpt lat="49.41927" lon="0.96058">
        <ele>41.6</ele>
        <time>2020-06-21T07:03:38Z</time>
      </trkpt>
      <trkpt lat="49.41927" lon="0.96067">
        <ele>42.3</ele>
        <time>2020-06-21T07:03:40Z</time>
      </trkpt>
      <trkpt lat="49.41927" lon="0.96074">
        <ele>42.5</ele>
        <time>2020-06-21T07:03:42Z</time>
      </trkpt>
      <trkpt lat="49.41929" lon="0.96081">
        <ele>42.7</ele>
        <time>2020-06-21T07:03:44Z</time>
      </trkpt>
      <trkpt lat="49.4193" lon="0.96085">
        <ele>43.8</ele>
        <time>2020-06-21T07:03:45Z</time>
      </trkpt>
      <trkpt lat="49.41932" lon="0.96092">
        <ele>43.8</ele>
        <time>2020-06-21T07:03:47Z</time>
      </trkpt>
      <trkpt lat="49.41933" lon="0.96096">
        <ele>44.9</ele>
        <time>2020-06-21T07:03:48Z</time>
      </trkpt>
      <trkpt lat="49.41934" lon="0.96098">
        <ele>44.8</ele>
        <time>2020-06-21T07:03:49Z</time>
      </trkpt>
      <trkpt lat="49.41935" lon="0.96104">
        <ele>44.9</ele>
        <time>2020-06-21T07:03:51Z</time>
      </trkpt>
      <trkpt lat="49.41935" lon="0.96112">
        <ele>46.2</ele>
        <time>2020-06-21T07:03:53Z</time>
      </trkpt>
      <trkpt lat="49.41935" lon="0.96118">
        <ele>46.3</ele>
        <time>2020-06-21T07:03:54Z</time>
      </trkpt>
      <trkpt lat="49.41935" lon="0.96126">
        <ele>46.5</ele>
        <time>2020-06-21T07:03:56Z</time>
      </trkpt>
      <trkpt lat="49.41935" lon="0.96131">
        <ele>46.6</ele>
        <time>2020-06-21T07:03:57Z</time>
      </trkpt>
      <trkpt lat="49.41935" lon="0.96141">
        <ele>45.6</ele>
        <time>2020-06-21T07:03:59Z</time>
      </trkpt>
      <trkpt lat="49.41935" lon="0.96145">
        <ele>45.7</ele>
        <time>2020-06-21T07:04:00Z</time>
      </trkpt>
      <trkpt lat="49.41935" lon="0.96153">
        <ele>47</ele>
        <time>2020-06-21T07:04:02Z</time>
      </trkpt>
      <trkpt lat="49.41936" lon="0.96158">
        <ele>47</ele>
        <time>2020-06-21T07:04:04Z</time>
      </trkpt>
      <trkpt lat="49.41936" lon="0.96166">
        <ele>46.8</ele>
        <time>2020-06-21T07:04:06Z</time>
      </trkpt>
      <trkpt lat="49.41937" lon="0.96169">
        <ele>46.8</ele>
        <time>2020-06-21T07:04:07Z</time>
      </trkpt>
      <trkpt lat="49.41936" lon="0.96176">
        <ele>46.6</ele>
        <time>2020-06-21T07:04:09Z</time>
      </trkpt>
      <trkpt lat="49.41936" lon="0.96183">
        <ele>46.4</ele>
        <time>2020-06-21T07:04:11Z</time>
      </trkpt>
      <trkpt lat="49.41936" lon="0.9619">
        <ele>46.4</ele>
        <time>2020-06-21T07:04:12Z</time>
      </trkpt>
      <trkpt lat="49.41937" lon="0.96197">
        <ele>46.3</ele>
        <time>2020-06-21T07:04:13Z</time>
      </trkpt>
      <trkpt lat="49.41937" lon="0.96205">
        <ele>46.2</ele>
        <time>2020-06-21T07:04:15Z</time>
      </trkpt>
      <trkpt lat="49.41937" lon="0.96212">
        <ele>46.1</ele>
        <time>2020-06-21T07:04:16Z</time>
      </trkpt>
      <trkpt lat="49.41935" lon="0.96222">
        <ele>46.1</ele>
        <time>2020-06-21T07:04:18Z</time>
      </trkpt>
      <trkpt lat="49.41935" lon="0.96226">
        <ele>44.8</ele>
        <time>2020-06-21T07:04:19Z</time>
      </trkpt>
      <trkpt lat="49.41935" lon="0.96233">
        <ele>44.8</ele>
        <time>2020-06-21T07:04:21Z</time>
      </trkpt>
      <trkpt lat="49.41935" lon="0.96239">
        <ele>46</ele>
        <time>2020-06-21T07:04:22Z</time>
      </trkpt>
      <trkpt lat="49.41935" lon="0.96244">
        <ele>46</ele>
        <time>2020-06-21T07:04:23Z</time>
      </trkpt>
      <trkpt lat="49.41935" lon="0.96249">
        <ele>46</ele>
        <time>2020-06-21T07:04:24Z</time>
      </trkpt>
      <trkpt lat="49.41934" lon="0.96257">
        <ele>44.7</ele>
        <time>2020-06-21T07:04:26Z</time>
      </trkpt>
      <trkpt lat="49.41933" lon="0.96261">
        <ele>44.6</ele>
        <time>2020-06-21T07:04:27Z</time>
      </trkpt>
      <trkpt lat="49.41932" lon="0.96266">
        <ele>43.3</ele>
        <time>2020-06-21T07:04:28Z</time>
      </trkpt>
      <trkpt lat="49.41931" lon="0.96274">
        <ele>43</ele>
        <time>2020-06-21T07:04:30Z</time>
      </trkpt>
      <trkpt lat="49.4193" lon="0.96279">
        <ele>42.8</ele>
        <time>2020-06-21T07:04:31Z</time>
      </trkpt>
      <trkpt lat="49.41929" lon="0.96286">
        <ele>41.2</ele>
        <time>2020-06-21T07:04:32Z</time>
      </trkpt>
      <trkpt lat="49.41929" lon="0.96292">
        <ele>41</ele>
        <time>2020-06-21T07:04:34Z</time>
      </trkpt>
      <trkpt lat="49.4193" lon="0.96297">
        <ele>42.2</ele>
        <time>2020-06-21T07:04:35Z</time>
      </trkpt>
      <trkpt lat="49.4193" lon="0.96308">
        <ele>42</ele>
        <time>2020-06-21T07:04:37Z</time>
      </trkpt>
      <trkpt lat="49.4193" lon="0.96312">
        <ele>41.9</ele>
        <time>2020-06-21T07:04:38Z</time>
      </trkpt>
      <trkpt lat="49.4193" lon="0.96313">
        <ele>41.9</ele>
        <time>2020-06-21T07:04:39Z</time>
      </trkpt>
      <trkpt lat="49.41929" lon="0.96317">
        <ele>40.7</ele>
        <time>2020-06-21T07:04:40Z</time>
      </trkpt>
      <trkpt lat="49.41929" lon="0.96323">
        <ele>40.6</ele>
        <time>2020-06-21T07:04:42Z</time>
      </trkpt>
      <trkpt lat="49.41929" lon="0.96327">
        <ele>40.6</ele>
        <time>2020-06-21T07:04:43Z</time>
      </trkpt>
      <trkpt lat="49.41929" lon="0.96329">
        <ele>41.9</ele>
        <time>2020-06-21T07:04:44Z</time>
      </trkpt>
      <trkpt lat="49.4193" lon="0.96334">
        <ele>41.8</ele>
        <time>2020-06-21T07:04:46Z</time>
      </trkpt>
      <trkpt lat="49.4193" lon="0.96336">
        <ele>41.8</ele>
        <time>2020-06-21T07:04:47Z</time>
      </trkpt>
      <trkpt lat="49.4193" lon="0.9634">
        <ele>41.8</ele>
        <time>2020-06-21T07:04:49Z</time>
      </trkpt>
      <trkpt lat="49.41932" lon="0.9635">
        <ele>41.6</ele>
        <time>2020-06-21T07:04:51Z</time>
      </trkpt>
      <trkpt lat="49.41933" lon="0.96356">
        <ele>42.7</ele>
        <time>2020-06-21T07:04:52Z</time>
      </trkpt>
      <trkpt lat="49.41933" lon="0.96363">
        <ele>42.6</ele>
        <time>2020-06-21T07:04:54Z</time>
      </trkpt>
      <trkpt lat="49.41932" lon="0.96367">
        <ele>42.5</ele>
        <time>2020-06-21T07:04:55Z</time>
      </trkpt>
      <trkpt lat="49.41933" lon="0.9637">
        <ele>42.5</ele>
        <time>2020-06-21T07:04:56Z</time>
      </trkpt>
      <trkpt lat="49.41933" lon="0.96374">
        <ele>42.5</ele>
        <time>2020-06-21T07:04:58Z</time>
      </trkpt>
      <trkpt lat="49.41934" lon="0.9638">
        <ele>42.6</ele>
        <time>2020-06-21T07:04:59Z</time>
      </trkpt>
      <trkpt lat="49.41934" lon="0.96381">
        <ele>42.6</ele>
        <time>2020-06-21T07:05:00Z</time>
      </trkpt>
      <trkpt lat="49.41935" lon="0.96386">
        <ele>42.7</ele>
        <time>2020-06-21T07:05:01Z</time>
      </trkpt>
      <trkpt lat="49.41935" lon="0.96387">
        <ele>42.7</ele>
        <time>2020-06-21T07:05:02Z</time>
      </trkpt>
      <trkpt lat="49.41935" lon="0.96392">
        <ele>44</ele>
        <time>2020-06-21T07:05:03Z</time>
      </trkpt>
      <trkpt lat="49.41935" lon="0.964">
        <ele>44.1</ele>
        <time>2020-06-21T07:05:05Z</time>
      </trkpt>
      <trkpt lat="49.41935" lon="0.96404">
        <ele>44.1</ele>
        <time>2020-06-21T07:05:06Z</time>
      </trkpt>
      <trkpt lat="49.41934" lon="0.9642">
        <ele>42.9</ele>
        <time>2020-06-21T07:05:08Z</time>
      </trkpt>
      <trkpt lat="49.41934" lon="0.96431">
        <ele>42.7</ele>
        <time>2020-06-21T07:05:09Z</time>
      </trkpt>
      <trkpt lat="49.41934" lon="0.96436">
        <ele>42.4</ele>
        <time>2020-06-21T07:05:11Z</time>
      </trkpt>
      <trkpt lat="49.41934" lon="0.96437">
        <ele>42.4</ele>
        <time>2020-06-21T07:05:12Z</time>
      </trkpt>
      <trkpt lat="49.41934" lon="0.96442">
        <ele>42.3</ele>
        <time>2020-06-21T07:05:13Z</time>
      </trkpt>
      <trkpt lat="49.41934" lon="0.96446">
        <ele>42.2</ele>
        <time>2020-06-21T07:05:14Z</time>
      </trkpt>
      <trkpt lat="49.41935" lon="0.96453">
        <ele>42</ele>
        <time>2020-06-21T07:05:15Z</time>
      </trkpt>
      <trkpt lat="49.41936" lon="0.96459">
        <ele>43.1</ele>
        <time>2020-06-21T07:05:17Z</time>
      </trkpt>
      <trkpt lat="49.41937" lon="0.96463">
        <ele>43</ele>
        <time>2020-06-21T07:05:18Z</time>
      </trkpt>
      <trkpt lat="49.41939" lon="0.96469">
        <ele>44.2</ele>
        <time>2020-06-21T07:05:19Z</time>
      </trkpt>
      <trkpt lat="49.4194" lon="0.96474">
        <ele>44.2</ele>
        <time>2020-06-21T07:05:21Z</time>
      </trkpt>
      <trkpt lat="49.41939" lon="0.96477">
        <ele>44.3</ele>
        <time>2020-06-21T07:05:22Z</time>
      </trkpt>
      <trkpt lat="49.41938" lon="0.96482">
        <ele>43.1</ele>
        <time>2020-06-21T07:05:24Z</time>
      </trkpt>
      <trkpt lat="49.41937" lon="0.96486">
        <ele>43.2</ele>
        <time>2020-06-21T07:05:25Z</time>
      </trkpt>
      <trkpt lat="49.41937" lon="0.96488">
        <ele>43.3</ele>
        <time>2020-06-21T07:05:26Z</time>
      </trkpt>
      <trkpt lat="49.41936" lon="0.96492">
        <ele>43.4</ele>
        <time>2020-06-21T07:05:27Z</time>
      </trkpt>
      <trkpt lat="49.41937" lon="0.96496">
        <ele>43.5</ele>
        <time>2020-06-21T07:05:29Z</time>
      </trkpt>
      <trkpt lat="49.41937" lon="0.96502">
        <ele>43.7</ele>
        <time>2020-06-21T07:05:30Z</time>
      </trkpt>
      <trkpt lat="49.41938" lon="0.96503">
        <ele>44.9</ele>
        <time>2020-06-21T07:05:31Z</time>
      </trkpt>
      <trkpt lat="49.41938" lon="0.96509">
        <ele>45.2</ele>
        <time>2020-06-21T07:05:33Z</time>
      </trkpt>
      <trkpt lat="49.41939" lon="0.96512">
        <ele>45.2</ele>
        <time>2020-06-21T07:05:34Z</time>
      </trkpt>
      <trkpt lat="49.41939" lon="0.96517">
        <ele>45.5</ele>
        <time>2020-06-21T07:05:36Z</time>
      </trkpt>
      <trkpt lat="49.41939" lon="0.96523">
        <ele>45.7</ele>
        <time>2020-06-21T07:05:37Z</time>
      </trkpt>
      <trkpt lat="49.41939" lon="0.96524">
        <ele>45.7</ele>
        <time>2020-06-21T07:05:38Z</time>
      </trkpt>
      <trkpt lat="49.41939" lon="0.96529">
        <ele>45.8</ele>
        <time>2020-06-21T07:05:40Z</time>
      </trkpt>
      <trkpt lat="49.41938" lon="0.96535">
        <ele>46.1</ele>
        <time>2020-06-21T07:05:41Z</time>
      </trkpt>
      <trkpt lat="49.41938" lon="0.96538">
        <ele>46.3</ele>
        <time>2020-06-21T07:05:42Z</time>
      </trkpt>
      <trkpt lat="49.41938" lon="0.96543">
        <ele>46.5</ele>
        <time>2020-06-21T07:05:44Z</time>
      </trkpt>
      <trkpt lat="49.41938" lon="0.96548">
        <ele>45.5</ele>
        <time>2020-06-21T07:05:45Z</time>
      </trkpt>
      <trkpt lat="49.41938" lon="0.96553">
        <ele>45.8</ele>
        <time>2020-06-21T07:05:46Z</time>
      </trkpt>
      <trkpt lat="49.41938" lon="0.96558">
        <ele>47.3</ele>
        <time>2020-06-21T07:05:48Z</time>
      </trkpt>
      <trkpt lat="49.41938" lon="0.96562">
        <ele>47.7</ele>
        <time>2020-06-21T07:05:49Z</time>
      </trkpt>
      <trkpt lat="49.41939" lon="0.9657">
        <ele>48.3</ele>
        <time>2020-06-21T07:05:50Z</time>
      </trkpt>
      <trkpt lat="49.4194" lon="0.96574">
        <ele>48.5</ele>
        <time>2020-06-21T07:05:51Z</time>
      </trkpt>
      <trkpt lat="49.41941" lon="0.96581">
        <ele>50</ele>
        <time>2020-06-21T07:05:53Z</time>
      </trkpt>
      <trkpt lat="49.41941" lon="0.96583">
        <ele>50.2</ele>
        <time>2020-06-21T07:05:54Z</time>
      </trkpt>
      <trkpt lat="49.41941" lon="0.96585">
        <ele>50.2</ele>
        <time>2020-06-21T07:05:55Z</time>
      </trkpt>
      <trkpt lat="49.41941" lon="0.9659">
        <ele>50.7</ele>
        <time>2020-06-21T07:05:56Z</time>
      </trkpt>
      <trkpt lat="49.41941" lon="0.96595">
        <ele>51</ele>
        <time>2020-06-21T07:05:57Z</time>
      </trkpt>
      <trkpt lat="49.41941" lon="0.96602">
        <ele>51.3</ele>
        <time>2020-06-21T07:05:59Z</time>
      </trkpt>
      <trkpt lat="49.41941" lon="0.96606">
        <ele>51.7</ele>
        <time>2020-06-21T07:06:00Z</time>
      </trkpt>
      <trkpt lat="49.4194" lon="0.96614">
        <ele>51.2</ele>
        <time>2020-06-21T07:06:01Z</time>
      </trkpt>
      <trkpt lat="49.4194" lon="0.96618">
        <ele>51.7</ele>
        <time>2020-06-21T07:06:02Z</time>
      </trkpt>
      <trkpt lat="49.4194" lon="0.96622">
        <ele>52.1</ele>
        <time>2020-06-21T07:06:04Z</time>
      </trkpt>
      <trkpt lat="49.41939" lon="0.96627">
        <ele>52.5</ele>
        <time>2020-06-21T07:06:05Z</time>
      </trkpt>
      <trkpt lat="49.41938" lon="0.9663">
        <ele>52.9</ele>
        <time>2020-06-21T07:06:06Z</time>
      </trkpt>
      <trkpt lat="49.41938" lon="0.96635">
        <ele>53.2</ele>
        <time>2020-06-21T07:06:08Z</time>
      </trkpt>
      <trkpt lat="49.41938" lon="0.96637">
        <ele>53.6</ele>
        <time>2020-06-21T07:06:09Z</time>
      </trkpt>
      <trkpt lat="49.41938" lon="0.96643">
        <ele>53.9</ele>
        <time>2020-06-21T07:06:11Z</time>
      </trkpt>
      <trkpt lat="49.41937" lon="0.96648">
        <ele>52.9</ele>
        <time>2020-06-21T07:06:12Z</time>
      </trkpt>
      <trkpt lat="49.41937" lon="0.9665">
        <ele>52.9</ele>
        <time>2020-06-21T07:06:13Z</time>
      </trkpt>
      <trkpt lat="49.41936" lon="0.96653">
        <ele>53.2</ele>
        <time>2020-06-21T07:06:14Z</time>
      </trkpt>
      <trkpt lat="49.41936" lon="0.96657">
        <ele>53.5</ele>
        <time>2020-06-21T07:06:16Z</time>
      </trkpt>
      <trkpt lat="49.41937" lon="0.96663">
        <ele>54.2</ele>
        <time>2020-06-21T07:06:17Z</time>
      </trkpt>
      <trkpt lat="49.41937" lon="0.96665">
        <ele>54.2</ele>
        <time>2020-06-21T07:06:18Z</time>
      </trkpt>
      <trkpt lat="49.41937" lon="0.9667">
        <ele>54.5</ele>
        <time>2020-06-21T07:06:20Z</time>
      </trkpt>
      <trkpt lat="49.41937" lon="0.96676">
        <ele>55.1</ele>
        <time>2020-06-21T07:06:22Z</time>
      </trkpt>
      <trkpt lat="49.41938" lon="0.96681">
        <ele>55.6</ele>
        <time>2020-06-21T07:06:23Z</time>
      </trkpt>
      <trkpt lat="49.41938" lon="0.96683">
        <ele>57</ele>
        <time>2020-06-21T07:06:24Z</time>
      </trkpt>
      <trkpt lat="49.41939" lon="0.9669">
        <ele>57.7</ele>
        <time>2020-06-21T07:06:25Z</time>
      </trkpt>
      <trkpt lat="49.4194" lon="0.96697">
        <ele>58.1</ele>
        <time>2020-06-21T07:06:27Z</time>
      </trkpt>
      <trkpt lat="49.4194" lon="0.96699">
        <ele>58.5</ele>
        <time>2020-06-21T07:06:28Z</time>
      </trkpt>
      <trkpt lat="49.4194" lon="0.96702">
        <ele>58.9</ele>
        <time>2020-06-21T07:06:29Z</time>
      </trkpt>
      <trkpt lat="49.41941" lon="0.96707">
        <ele>61</ele>
        <time>2020-06-21T07:06:31Z</time>
      </trkpt>
      <trkpt lat="49.41941" lon="0.96708">
        <ele>61</ele>
        <time>2020-06-21T07:06:32Z</time>
      </trkpt>
      <trkpt lat="49.41941" lon="0.96712">
        <ele>61.6</ele>
        <time>2020-06-21T07:06:33Z</time>
      </trkpt>
      <trkpt lat="49.41942" lon="0.96714">
        <ele>62.3</ele>
        <time>2020-06-21T07:06:35Z</time>
      </trkpt>
      <trkpt lat="49.41942" lon="0.96716">
        <ele>62.3</ele>
        <time>2020-06-21T07:06:36Z</time>
      </trkpt>
      <trkpt lat="49.41942" lon="0.96716">
        <ele>62.3</ele>
        <time>2020-06-21T07:06:37Z</time>
      </trkpt>
      <trkpt lat="49.41941" lon="0.96717">
        <ele>62.3</ele>
        <time>2020-06-21T07:06:39Z</time>
      </trkpt>
      <trkpt lat="49.41941" lon="0.96718">
        <ele>62.3</ele>
        <time>2020-06-21T07:06:40Z</time>
      </trkpt>
      <trkpt lat="49.4194" lon="0.96719">
        <ele>60.9</ele>
        <time>2020-06-21T07:06:41Z</time>
      </trkpt>
      <trkpt lat="49.4194" lon="0.96719">
        <ele>60.9</ele>
        <time>2020-06-21T07:06:42Z</time>
      </trkpt>
      <trkpt lat="49.41939" lon="0.96719">
        <ele>60.9</ele>
        <time>2020-06-21T07:06:43Z</time>
      </trkpt>
      <trkpt lat="49.41938" lon="0.96719">
        <ele>59</ele>
        <time>2020-06-21T07:06:45Z</time>
      </trkpt>
      <trkpt lat="49.41937" lon="0.96718">
        <ele>58.7</ele>
        <time>2020-06-21T07:06:46Z</time>
      </trkpt>
      <trkpt lat="49.41936" lon="0.96717">
        <ele>58.7</ele>
        <time>2020-06-21T07:06:48Z</time>
      </trkpt>
      <trkpt lat="49.41934" lon="0.96716">
        <ele>57</ele>
        <time>2020-06-21T07:06:50Z</time>
      </trkpt>
      <trkpt lat="49.41934" lon="0.96715">
        <ele>57</ele>
        <time>2020-06-21T07:06:51Z</time>
      </trkpt>
      <trkpt lat="49.41932" lon="0.96714">
        <ele>55.2</ele>
        <time>2020-06-21T07:06:52Z</time>
      </trkpt>
      <trkpt lat="49.41932" lon="0.96717">
        <ele>55.4</ele>
        <time>2020-06-21T07:06:54Z</time>
      </trkpt>
      <trkpt lat="49.41932" lon="0.96719">
        <ele>55.5</ele>
        <time>2020-06-21T07:06:55Z</time>
      </trkpt>
      <trkpt lat="49.41932" lon="0.9672">
        <ele>55.5</ele>
        <time>2020-06-21T07:06:56Z</time>
      </trkpt>
      <trkpt lat="49.41936" lon="0.9673">
        <ele>59.7</ele>
        <time>2020-06-21T07:06:57Z</time>
      </trkpt>
      <trkpt lat="49.41934" lon="0.96733">
        <ele>57.8</ele>
        <time>2020-06-21T07:06:59Z</time>
      </trkpt>
      <trkpt lat="49.41933" lon="0.96734">
        <ele>57.8</ele>
        <time>2020-06-21T07:07:00Z</time>
      </trkpt>
      <trkpt lat="49.41932" lon="0.96737">
        <ele>57.9</ele>
        <time>2020-06-21T07:07:01Z</time>
      </trkpt>
      <trkpt lat="49.41934" lon="0.96744">
        <ele>58.1</ele>
        <time>2020-06-21T07:07:03Z</time>
      </trkpt>
      <trkpt lat="49.41938" lon="0.96754">
        <ele>63.4</ele>
        <time>2020-06-21T07:07:04Z</time>
      </trkpt>
      <trkpt lat="49.41941" lon="0.96763">
        <ele>66</ele>
        <time>2020-06-21T07:07:06Z</time>
      </trkpt>
      <trkpt lat="49.41941" lon="0.96769">
        <ele>65.9</ele>
        <time>2020-06-21T07:07:07Z</time>
      </trkpt>
      <trkpt lat="49.41943" lon="0.96775">
        <ele>65.7</ele>
        <time>2020-06-21T07:07:09Z</time>
      </trkpt>
      <trkpt lat="49.41944" lon="0.9678">
        <ele>68</ele>
        <time>2020-06-21T07:07:10Z</time>
      </trkpt>
      <trkpt lat="49.41943" lon="0.96786">
        <ele>65.4</ele>
        <time>2020-06-21T07:07:12Z</time>
      </trkpt>
      <trkpt lat="49.41942" lon="0.96792">
        <ele>65.1</ele>
        <time>2020-06-21T07:07:13Z</time>
      </trkpt>
      <trkpt lat="49.41942" lon="0.96794">
        <ele>65.1</ele>
        <time>2020-06-21T07:07:14Z</time>
      </trkpt>
      <trkpt lat="49.41942" lon="0.968">
        <ele>64.8</ele>
        <time>2020-06-21T07:07:16Z</time>
      </trkpt>
      <trkpt lat="49.41942" lon="0.96803">
        <ele>64.8</ele>
        <time>2020-06-21T07:07:17Z</time>
      </trkpt>
      <trkpt lat="49.41941" lon="0.96807">
        <ele>64.5</ele>
        <time>2020-06-21T07:07:19Z</time>
      </trkpt>
      <trkpt lat="49.41941" lon="0.9681">
        <ele>64.2</ele>
        <time>2020-06-21T07:07:20Z</time>
      </trkpt>
      <trkpt lat="49.41941" lon="0.96815">
        <ele>63.8</ele>
        <time>2020-06-21T07:07:22Z</time>
      </trkpt>
      <trkpt lat="49.4194" lon="0.96817">
        <ele>61</ele>
        <time>2020-06-21T07:07:23Z</time>
      </trkpt>
      <trkpt lat="49.4194" lon="0.96821">
        <ele>61</ele>
        <time>2020-06-21T07:07:24Z</time>
      </trkpt>
      <trkpt lat="49.4194" lon="0.96825">
        <ele>60.4</ele>
        <time>2020-06-21T07:07:26Z</time>
      </trkpt>
      <trkpt lat="49.4194" lon="0.96827">
        <ele>59.6</ele>
        <time>2020-06-21T07:07:27Z</time>
      </trkpt>
      <trkpt lat="49.4194" lon="0.96831">
        <ele>58.7</ele>
        <time>2020-06-21T07:07:28Z</time>
      </trkpt>
      <trkpt lat="49.4194" lon="0.96833">
        <ele>58.7</ele>
        <time>2020-06-21T07:07:29Z</time>
      </trkpt>
      <trkpt lat="49.41941" lon="0.96836">
        <ele>59.7</ele>
        <time>2020-06-21T07:07:31Z</time>
      </trkpt>
      <trkpt lat="49.41941" lon="0.96838">
        <ele>59.7</ele>
        <time>2020-06-21T07:07:32Z</time>
      </trkpt>
      <trkpt lat="49.41941" lon="0.96842">
        <ele>58.7</ele>
        <time>2020-06-21T07:07:33Z</time>
      </trkpt>
      <trkpt lat="49.41941" lon="0.96844">
        <ele>57.9</ele>
        <time>2020-06-21T07:07:34Z</time>
      </trkpt>
      <trkpt lat="49.41942" lon="0.96846">
        <ele>57.9</ele>
        <time>2020-06-21T07:07:35Z</time>
      </trkpt>
      <trkpt lat="49.41943" lon="0.9685">
        <ele>57.2</ele>
        <time>2020-06-21T07:07:37Z</time>
      </trkpt>
      <trkpt lat="49.41944" lon="0.96853">
        <ele>58.2</ele>
        <time>2020-06-21T07:07:38Z</time>
      </trkpt>
      <trkpt lat="49.41946" lon="0.96857">
        <ele>57.6</ele>
        <time>2020-06-21T07:07:40Z</time>
      </trkpt>
      <trkpt lat="49.41948" lon="0.96861">
        <ele>58.9</ele>
        <time>2020-06-21T07:07:41Z</time>
      </trkpt>
      <trkpt lat="49.41949" lon="0.96867">
        <ele>60.2</ele>
        <time>2020-06-21T07:07:42Z</time>
      </trkpt>
      <trkpt lat="49.41952" lon="0.96874">
        <ele>60.8</ele>
        <time>2020-06-21T07:07:44Z</time>
      </trkpt>
      <trkpt lat="49.41954" lon="0.96878">
        <ele>60</ele>
        <time>2020-06-21T07:07:45Z</time>
      </trkpt>
      <trkpt lat="49.41956" lon="0.96882">
        <ele>60.8</ele>
        <time>2020-06-21T07:07:46Z</time>
      </trkpt>
      <trkpt lat="49.41958" lon="0.96885">
        <ele>62.4</ele>
        <time>2020-06-21T07:07:47Z</time>
      </trkpt>
      <trkpt lat="49.4196" lon="0.96889">
        <ele>62.8</ele>
        <time>2020-06-21T07:07:48Z</time>
      </trkpt>
      <trkpt lat="49.41963" lon="0.96894">
        <ele>63.1</ele>
        <time>2020-06-21T07:07:50Z</time>
      </trkpt>
      <trkpt lat="49.41963" lon="0.96899">
        <ele>60.7</ele>
        <time>2020-06-21T07:07:51Z</time>
      </trkpt>
      <trkpt lat="49.41963" lon="0.969">
        <ele>60.7</ele>
        <time>2020-06-21T07:07:52Z</time>
      </trkpt>
      <trkpt lat="49.41963" lon="0.96904">
        <ele>59.4</ele>
        <time>2020-06-21T07:07:53Z</time>
      </trkpt>
      <trkpt lat="49.41963" lon="0.96905">
        <ele>59.4</ele>
        <time>2020-06-21T07:07:55Z</time>
      </trkpt>
      <trkpt lat="49.41963" lon="0.96907">
        <ele>59.4</ele>
        <time>2020-06-21T07:07:56Z</time>
      </trkpt>
      <trkpt lat="49.41963" lon="0.96909">
        <ele>58.2</ele>
        <time>2020-06-21T07:07:57Z</time>
      </trkpt>
      <trkpt lat="49.41963" lon="0.96913">
        <ele>57</ele>
        <time>2020-06-21T07:07:59Z</time>
      </trkpt>
      <trkpt lat="49.41964" lon="0.96916">
        <ele>57</ele>
        <time>2020-06-21T07:08:00Z</time>
      </trkpt>
      <trkpt lat="49.41964" lon="0.96919">
        <ele>55.8</ele>
        <time>2020-06-21T07:08:02Z</time>
      </trkpt>
      <trkpt lat="49.41964" lon="0.96924">
        <ele>54.5</ele>
        <time>2020-06-21T07:08:03Z</time>
      </trkpt>
      <trkpt lat="49.41965" lon="0.96928">
        <ele>53.3</ele>
        <time>2020-06-21T07:08:05Z</time>
      </trkpt>
      <trkpt lat="49.41965" lon="0.96929">
        <ele>52.2</ele>
        <time>2020-06-21T07:08:06Z</time>
      </trkpt>
      <trkpt lat="49.41966" lon="0.96937">
        <ele>52.1</ele>
        <time>2020-06-21T07:08:07Z</time>
      </trkpt>
      <trkpt lat="49.41966" lon="0.96941">
        <ele>51</ele>
        <time>2020-06-21T07:08:08Z</time>
      </trkpt>
      <trkpt lat="49.41965" lon="0.96948">
        <ele>47.9</ele>
        <time>2020-06-21T07:08:10Z</time>
      </trkpt>
      <trkpt lat="49.41965" lon="0.96949">
        <ele>47.9</ele>
        <time>2020-06-21T07:08:11Z</time>
      </trkpt>
      <trkpt lat="49.41965" lon="0.96949">
        <ele>47.9</ele>
        <time>2020-06-21T07:08:12Z</time>
      </trkpt>
      <trkpt lat="49.41965" lon="0.96949">
        <ele>47.9</ele>
        <time>2020-06-21T07:08:14Z</time>
      </trkpt>
      <trkpt lat="49.41965" lon="0.96949">
        <ele>47.9</ele>
        <time>2020-06-21T07:08:16Z</time>
      </trkpt>
      <trkpt lat="49.41975" lon="0.96961">
        <ele>48.6</ele>
        <time>2020-06-21T07:08:18Z</time>
      </trkpt>
      <trkpt lat="49.4198" lon="0.96966">
        <ele>49.3</ele>
        <time>2020-06-21T07:08:19Z</time>
      </trkpt>
      <trkpt lat="49.41981" lon="0.96967">
        <ele>48</ele>
        <time>2020-06-21T07:08:20Z</time>
      </trkpt>
      <trkpt lat="49.41987" lon="0.96972">
        <ele>49.9</ele>
        <time>2020-06-21T07:08:22Z</time>
      </trkpt>
      <trkpt lat="49.41997" lon="0.96979">
        <ele>51.1</ele>
        <time>2020-06-21T07:08:24Z</time>
      </trkpt>
      <trkpt lat="49.42" lon="0.96981">
        <ele>50.9</ele>
        <time>2020-06-21T07:08:25Z</time>
      </trkpt>
      <trkpt lat="49.42006" lon="0.96987">
        <ele>51.8</ele>
        <time>2020-06-21T07:08:27Z</time>
      </trkpt>
      <trkpt lat="49.42014" lon="0.96994">
        <ele>52.4</ele>
        <time>2020-06-21T07:08:29Z</time>
      </trkpt>
      <trkpt lat="49.4202" lon="0.97001">
        <ele>53.2</ele>
        <time>2020-06-21T07:08:31Z</time>
      </trkpt>
      <trkpt lat="49.42025" lon="0.97014">
        <ele>51.3</ele>
        <time>2020-06-21T07:08:33Z</time>
      </trkpt>
      <trkpt lat="49.42026" lon="0.97019">
        <ele>48.8</ele>
        <time>2020-06-21T07:08:35Z</time>
      </trkpt>
      <trkpt lat="49.42027" lon="0.97021">
        <ele>48.8</ele>
        <time>2020-06-21T07:08:36Z</time>
      </trkpt>
      <trkpt lat="49.42028" lon="0.97026">
        <ele>48.5</ele>
        <time>2020-06-21T07:08:38Z</time>
      </trkpt>
      <trkpt lat="49.42031" lon="0.97031">
        <ele>48.3</ele>
        <time>2020-06-21T07:08:40Z</time>
      </trkpt>
      <trkpt lat="49.42031" lon="0.97033">
        <ele>47.4</ele>
        <time>2020-06-21T07:08:41Z</time>
      </trkpt>
      <trkpt lat="49.42034" lon="0.97038">
        <ele>47.3</ele>
        <time>2020-06-21T07:08:43Z</time>
      </trkpt>
      <trkpt lat="49.42037" lon="0.97045">
        <ele>46.4</ele>
        <time>2020-06-21T07:08:45Z</time>
      </trkpt>
      <trkpt lat="49.4204" lon="0.97049">
        <ele>46.3</ele>
        <time>2020-06-21T07:08:47Z</time>
      </trkpt>
      <trkpt lat="49.42043" lon="0.97053">
        <ele>47</ele>
        <time>2020-06-21T07:08:48Z</time>
      </trkpt>
      <trkpt lat="49.42044" lon="0.97054">
        <ele>46.8</ele>
        <time>2020-06-21T07:08:49Z</time>
      </trkpt>
      <trkpt lat="49.42049" lon="0.97062">
        <ele>46.7</ele>
        <time>2020-06-21T07:08:51Z</time>
      </trkpt>
      <trkpt lat="49.42052" lon="0.97066">
        <ele>45.9</ele>
        <time>2020-06-21T07:08:53Z</time>
      </trkpt>
      <trkpt lat="49.42055" lon="0.97066">
        <ele>47.3</ele>
        <time>2020-06-21T07:08:55Z</time>
      </trkpt>
      <trkpt lat="49.42056" lon="0.97067">
        <ele>47.2</ele>
        <time>2020-06-21T07:08:56Z</time>
      </trkpt>
      <trkpt lat="49.42057" lon="0.97068">
        <ele>47.2</ele>
        <time>2020-06-21T07:08:57Z</time>
      </trkpt>
      <trkpt lat="49.42062" lon="0.9707">
        <ele>47.9</ele>
        <time>2020-06-21T07:08:59Z</time>
      </trkpt>
      <trkpt lat="49.42065" lon="0.97072">
        <ele>48.4</ele>
        <time>2020-06-21T07:09:00Z</time>
      </trkpt>
      <trkpt lat="49.42071" lon="0.97079">
        <ele>48.8</ele>
        <time>2020-06-21T07:09:02Z</time>
      </trkpt>
      <trkpt lat="49.42073" lon="0.97081">
        <ele>48.7</ele>
        <time>2020-06-21T07:09:03Z</time>
      </trkpt>
      <trkpt lat="49.42076" lon="0.97085">
        <ele>48.6</ele>
        <time>2020-06-21T07:09:05Z</time>
      </trkpt>
      <trkpt lat="49.42077" lon="0.97088">
        <ele>48</ele>
        <time>2020-06-21T07:09:06Z</time>
      </trkpt>
      <trkpt lat="49.42079" lon="0.97091">
        <ele>48.7</ele>
        <time>2020-06-21T07:09:08Z</time>
      </trkpt>
      <trkpt lat="49.4208" lon="0.97093">
        <ele>48.1</ele>
        <time>2020-06-21T07:09:09Z</time>
      </trkpt>
      <trkpt lat="49.42082" lon="0.97097">
        <ele>48.2</ele>
        <time>2020-06-21T07:09:11Z</time>
      </trkpt>
      <trkpt lat="49.42081" lon="0.97099">
        <ele>48.2</ele>
        <time>2020-06-21T07:09:12Z</time>
      </trkpt>
      <trkpt lat="49.42082" lon="0.97104">
        <ele>47.7</ele>
        <time>2020-06-21T07:09:14Z</time>
      </trkpt>
      <trkpt lat="49.42083" lon="0.97108">
        <ele>47.8</ele>
        <time>2020-06-21T07:09:16Z</time>
      </trkpt>
      <trkpt lat="49.42084" lon="0.97113">
        <ele>47.3</ele>
        <time>2020-06-21T07:09:18Z</time>
      </trkpt>
      <trkpt lat="49.42084" lon="0.97115">
        <ele>46.9</ele>
        <time>2020-06-21T07:09:19Z</time>
      </trkpt>
      <trkpt lat="49.42087" lon="0.97122">
        <ele>47.2</ele>
        <time>2020-06-21T07:09:21Z</time>
      </trkpt>
      <trkpt lat="49.42088" lon="0.97124">
        <ele>47</ele>
        <time>2020-06-21T07:09:22Z</time>
      </trkpt>
      <trkpt lat="49.42089" lon="0.97126">
        <ele>47.4</ele>
        <time>2020-06-21T07:09:23Z</time>
      </trkpt>
      <trkpt lat="49.42089" lon="0.97129">
        <ele>47.4</ele>
        <time>2020-06-21T07:09:24Z</time>
      </trkpt>
      <trkpt lat="49.42092" lon="0.97137">
        <ele>47.9</ele>
        <time>2020-06-21T07:09:26Z</time>
      </trkpt>
      <trkpt lat="49.42092" lon="0.97143">
        <ele>47.8</ele>
        <time>2020-06-21T07:09:28Z</time>
      </trkpt>
      <trkpt lat="49.42091" lon="0.97144">
        <ele>47.7</ele>
        <time>2020-06-21T07:09:29Z</time>
      </trkpt>
      <trkpt lat="49.42091" lon="0.97146">
        <ele>47.1</ele>
        <time>2020-06-21T07:09:31Z</time>
      </trkpt>
      <trkpt lat="49.42091" lon="0.97147">
        <ele>47.1</ele>
        <time>2020-06-21T07:09:33Z</time>
      </trkpt>
      <trkpt lat="49.42091" lon="0.97149">
        <ele>47</ele>
        <time>2020-06-21T07:09:34Z</time>
      </trkpt>
      <trkpt lat="49.42093" lon="0.97157">
        <ele>47.4</ele>
        <time>2020-06-21T07:09:36Z</time>
      </trkpt>
      <trkpt lat="49.42095" lon="0.97164">
        <ele>47.8</ele>
        <time>2020-06-21T07:09:38Z</time>
      </trkpt>
      <trkpt lat="49.42097" lon="0.97172">
        <ele>48</ele>
        <time>2020-06-21T07:09:40Z</time>
      </trkpt>
      <trkpt lat="49.42097" lon="0.97182">
        <ele>47.4</ele>
        <time>2020-06-21T07:09:42Z</time>
      </trkpt>
      <trkpt lat="49.42098" lon="0.9719">
        <ele>47.1</ele>
        <time>2020-06-21T07:09:44Z</time>
      </trkpt>
      <trkpt lat="49.42099" lon="0.97194">
        <ele>46.9</ele>
        <time>2020-06-21T07:09:45Z</time>
      </trkpt>
      <trkpt lat="49.42102" lon="0.97202">
        <ele>47.1</ele>
        <time>2020-06-21T07:09:47Z</time>
      </trkpt>
      <trkpt lat="49.42103" lon="0.97215">
        <ele>47.1</ele>
        <time>2020-06-21T07:09:49Z</time>
      </trkpt>
      <trkpt lat="49.42105" lon="0.97222">
        <ele>46.6</ele>
        <time>2020-06-21T07:09:50Z</time>
      </trkpt>
      <trkpt lat="49.42105" lon="0.97236">
        <ele>46.5</ele>
        <time>2020-06-21T07:09:52Z</time>
      </trkpt>
      <trkpt lat="49.42106" lon="0.97242">
        <ele>45.9</ele>
        <time>2020-06-21T07:09:53Z</time>
      </trkpt>
      <trkpt lat="49.42106" lon="0.97253">
        <ele>45.3</ele>
        <time>2020-06-21T07:09:55Z</time>
      </trkpt>
      <trkpt lat="49.42106" lon="0.97263">
        <ele>44.9</ele>
        <time>2020-06-21T07:09:57Z</time>
      </trkpt>
      <trkpt lat="49.42105" lon="0.97268">
        <ele>44.6</ele>
        <time>2020-06-21T07:09:58Z</time>
      </trkpt>
      <trkpt lat="49.42104" lon="0.97284">
        <ele>43.6</ele>
        <time>2020-06-21T07:10:00Z</time>
      </trkpt>
      <trkpt lat="49.42103" lon="0.97292">
        <ele>43.4</ele>
        <time>2020-06-21T07:10:01Z</time>
      </trkpt>
      <trkpt lat="49.42102" lon="0.973">
        <ele>42.3</ele>
        <time>2020-06-21T07:10:02Z</time>
      </trkpt>
      <trkpt lat="49.42103" lon="0.97306">
        <ele>42.9</ele>
        <time>2020-06-21T07:10:03Z</time>
      </trkpt>
      <trkpt lat="49.42103" lon="0.97317">
        <ele>42.2</ele>
        <time>2020-06-21T07:10:05Z</time>
      </trkpt>
      <trkpt lat="49.42103" lon="0.97323">
        <ele>42</ele>
        <time>2020-06-21T07:10:06Z</time>
      </trkpt>
      <trkpt lat="49.42103" lon="0.97332">
        <ele>41.6</ele>
        <time>2020-06-21T07:10:08Z</time>
      </trkpt>
      <trkpt lat="49.42103" lon="0.97337">
        <ele>41.5</ele>
        <time>2020-06-21T07:10:09Z</time>
      </trkpt>
      <trkpt lat="49.42104" lon="0.97347">
        <ele>41.4</ele>
        <time>2020-06-21T07:10:11Z</time>
      </trkpt>
      <trkpt lat="49.42105" lon="0.97351">
        <ele>41.3</ele>
        <time>2020-06-21T07:10:12Z</time>
      </trkpt>
      <trkpt lat="49.42106" lon="0.97355">
        <ele>41.9</ele>
        <time>2020-06-21T07:10:13Z</time>
      </trkpt>
      <trkpt lat="49.42107" lon="0.9736">
        <ele>41.8</ele>
        <time>2020-06-21T07:10:15Z</time>
      </trkpt>
      <trkpt lat="49.42108" lon="0.97368">
        <ele>42.2</ele>
        <time>2020-06-21T07:10:17Z</time>
      </trkpt>
      <trkpt lat="49.42109" lon="0.97376">
        <ele>41.8</ele>
        <time>2020-06-21T07:10:19Z</time>
      </trkpt>
      <trkpt lat="49.42109" lon="0.97386">
        <ele>41.3</ele>
        <time>2020-06-21T07:10:21Z</time>
      </trkpt>
      <trkpt lat="49.42109" lon="0.9739">
        <ele>41.1</ele>
        <time>2020-06-21T07:10:23Z</time>
      </trkpt>
      <trkpt lat="49.42109" lon="0.97392">
        <ele>40.9</ele>
        <time>2020-06-21T07:10:24Z</time>
      </trkpt>
      <trkpt lat="49.42109" lon="0.97393">
        <ele>40.9</ele>
        <time>2020-06-21T07:10:26Z</time>
      </trkpt>
      <trkpt lat="49.42109" lon="0.97394">
        <ele>40.9</ele>
        <time>2020-06-21T07:10:27Z</time>
      </trkpt>
      <trkpt lat="49.42109" lon="0.97398">
        <ele>40.7</ele>
        <time>2020-06-21T07:10:29Z</time>
      </trkpt>
      <trkpt lat="49.42109" lon="0.97401">
        <ele>40.7</ele>
        <time>2020-06-21T07:10:30Z</time>
      </trkpt>
      <trkpt lat="49.42108" lon="0.97406">
        <ele>40.3</ele>
        <time>2020-06-21T07:10:32Z</time>
      </trkpt>
      <trkpt lat="49.42108" lon="0.97408">
        <ele>39.8</ele>
        <time>2020-06-21T07:10:33Z</time>
      </trkpt>
      <trkpt lat="49.42106" lon="0.97414">
        <ele>39.5</ele>
        <time>2020-06-21T07:10:35Z</time>
      </trkpt>
      <trkpt lat="49.42105" lon="0.97415">
        <ele>39.1</ele>
        <time>2020-06-21T07:10:36Z</time>
      </trkpt>
      <trkpt lat="49.42102" lon="0.97419">
        <ele>38.6</ele>
        <time>2020-06-21T07:10:38Z</time>
      </trkpt>
      <trkpt lat="49.42099" lon="0.97418">
        <ele>38.4</ele>
        <time>2020-06-21T07:10:40Z</time>
      </trkpt>
      <trkpt lat="49.42096" lon="0.97413">
        <ele>38.2</ele>
        <time>2020-06-21T07:10:42Z</time>
      </trkpt>
      <trkpt lat="49.42094" lon="0.9741">
        <ele>37.8</ele>
        <time>2020-06-21T07:10:43Z</time>
      </trkpt>
      <trkpt lat="49.4209" lon="0.97402">
        <ele>37.5</ele>
        <time>2020-06-21T07:10:45Z</time>
      </trkpt>
      <trkpt lat="49.42089" lon="0.97397">
        <ele>37.6</ele>
        <time>2020-06-21T07:10:46Z</time>
      </trkpt>
      <trkpt lat="49.42087" lon="0.97388">
        <ele>37.2</ele>
        <time>2020-06-21T07:10:48Z</time>
      </trkpt>
      <trkpt lat="49.42087" lon="0.97382">
        <ele>37.3</ele>
        <time>2020-06-21T07:10:49Z</time>
      </trkpt>
      <trkpt lat="49.42086" lon="0.97372">
        <ele>36.9</ele>
        <time>2020-06-21T07:10:51Z</time>
      </trkpt>
      <trkpt lat="49.42084" lon="0.97367">
        <ele>36.9</ele>
        <time>2020-06-21T07:10:52Z</time>
      </trkpt>
      <trkpt lat="49.42077" lon="0.97352">
        <ele>35.9</ele>
        <time>2020-06-21T07:10:54Z</time>
      </trkpt>
      <trkpt lat="49.42072" lon="0.97337">
        <ele>35.2</ele>
        <time>2020-06-21T07:10:56Z</time>
      </trkpt>
      <trkpt lat="49.4207" lon="0.97331">
        <ele>35.1</ele>
        <time>2020-06-21T07:10:57Z</time>
      </trkpt>
      <trkpt lat="49.42068" lon="0.97325">
        <ele>34.8</ele>
        <time>2020-06-21T07:10:58Z</time>
      </trkpt>
      <trkpt lat="49.42068" lon="0.97316">
        <ele>34.8</ele>
        <time>2020-06-21T07:11:00Z</time>
      </trkpt>
      <trkpt lat="49.42068" lon="0.97305">
        <ele>34.6</ele>
        <time>2020-06-21T07:11:02Z</time>
      </trkpt>
      <trkpt lat="49.42069" lon="0.97299">
        <ele>34.5</ele>
        <time>2020-06-21T07:11:03Z</time>
      </trkpt>
      <trkpt lat="49.4207" lon="0.97289">
        <ele>34.8</ele>
        <time>2020-06-21T07:11:05Z</time>
      </trkpt>
      <trkpt lat="49.42071" lon="0.97285">
        <ele>34.8</ele>
        <time>2020-06-21T07:11:06Z</time>
      </trkpt>
      <trkpt lat="49.42071" lon="0.9728">
        <ele>34.8</ele>
        <time>2020-06-21T07:11:08Z</time>
      </trkpt>
      <trkpt lat="49.4207" lon="0.97279">
        <ele>34.8</ele>
        <time>2020-06-21T07:11:09Z</time>
      </trkpt>
      <trkpt lat="49.42071" lon="0.97277">
        <ele>34.8</ele>
        <time>2020-06-21T07:11:10Z</time>
      </trkpt>
      <trkpt lat="49.42071" lon="0.97272">
        <ele>35</ele>
        <time>2020-06-21T07:11:12Z</time>
      </trkpt>
      <trkpt lat="49.42071" lon="0.97269">
        <ele>35</ele>
        <time>2020-06-21T07:11:13Z</time>
      </trkpt>
      <trkpt lat="49.42068" lon="0.97269">
        <ele>34.5</ele>
        <time>2020-06-21T07:11:15Z</time>
      </trkpt>
      <trkpt lat="49.42065" lon="0.97273">
        <ele>34</ele>
        <time>2020-06-21T07:11:17Z</time>
      </trkpt>
      <trkpt lat="49.42062" lon="0.9728">
        <ele>33.5</ele>
        <time>2020-06-21T07:11:19Z</time>
      </trkpt>
      <trkpt lat="49.4206" lon="0.97283">
        <ele>33.1</ele>
        <time>2020-06-21T07:11:20Z</time>
      </trkpt>
      <trkpt lat="49.42058" lon="0.97285">
        <ele>32.7</ele>
        <time>2020-06-21T07:11:21Z</time>
      </trkpt>
      <trkpt lat="49.42054" lon="0.97288">
        <ele>32.4</ele>
        <time>2020-06-21T07:11:23Z</time>
      </trkpt>
      <trkpt lat="49.42052" lon="0.97291">
        <ele>32.1</ele>
        <time>2020-06-21T07:11:24Z</time>
      </trkpt>
      <trkpt lat="49.42049" lon="0.97293">
        <ele>32.1</ele>
        <time>2020-06-21T07:11:25Z</time>
      </trkpt>
      <trkpt lat="49.42044" lon="0.97295">
        <ele>31.8</ele>
        <time>2020-06-21T07:11:27Z</time>
      </trkpt>
      <trkpt lat="49.42039" lon="0.97296">
        <ele>31.5</ele>
        <time>2020-06-21T07:11:29Z</time>
      </trkpt>
      <trkpt lat="49.42035" lon="0.97298">
        <ele>31.2</ele>
        <time>2020-06-21T07:11:31Z</time>
      </trkpt>
      <trkpt lat="49.4203" lon="0.973">
        <ele>31.2</ele>
        <time>2020-06-21T07:11:33Z</time>
      </trkpt>
      <trkpt lat="49.42028" lon="0.97301">
        <ele>31</ele>
        <time>2020-06-21T07:11:34Z</time>
      </trkpt>
      <trkpt lat="49.42023" lon="0.97303">
        <ele>31</ele>
        <time>2020-06-21T07:11:36Z</time>
      </trkpt>
      <trkpt lat="49.42019" lon="0.97303">
        <ele>30.9</ele>
        <time>2020-06-21T07:11:38Z</time>
      </trkpt>
      <trkpt lat="49.42015" lon="0.97302">
        <ele>30.9</ele>
        <time>2020-06-21T07:11:40Z</time>
      </trkpt>
      <trkpt lat="49.42014" lon="0.97302">
        <ele>30.7</ele>
        <time>2020-06-21T07:11:41Z</time>
      </trkpt>
      <trkpt lat="49.4201" lon="0.97301">
        <ele>30.7</ele>
        <time>2020-06-21T07:11:43Z</time>
      </trkpt>
      <trkpt lat="49.42008" lon="0.973">
        <ele>30.6</ele>
        <time>2020-06-21T07:11:44Z</time>
      </trkpt>
      <trkpt lat="49.42005" lon="0.973">
        <ele>30.6</ele>
        <time>2020-06-21T07:11:46Z</time>
      </trkpt>
      <trkpt lat="49.42002" lon="0.97299">
        <ele>30.5</ele>
        <time>2020-06-21T07:11:47Z</time>
      </trkpt>
      <trkpt lat="49.42001" lon="0.97299">
        <ele>30.5</ele>
        <time>2020-06-21T07:11:49Z</time>
      </trkpt>
      <trkpt lat="49.41999" lon="0.97299">
        <ele>30.5</ele>
        <time>2020-06-21T07:11:50Z</time>
      </trkpt>
      <trkpt lat="49.41998" lon="0.97299">
        <ele>30.5</ele>
        <time>2020-06-21T07:11:51Z</time>
      </trkpt>
      <trkpt lat="49.41996" lon="0.97298">
        <ele>30.5</ele>
        <time>2020-06-21T07:11:53Z</time>
      </trkpt>
      <trkpt lat="49.41992" lon="0.97298">
        <ele>30.6</ele>
        <time>2020-06-21T07:11:55Z</time>
      </trkpt>
      <trkpt lat="49.4199" lon="0.97299">
        <ele>30.6</ele>
        <time>2020-06-21T07:11:56Z</time>
      </trkpt>
      <trkpt lat="49.4199" lon="0.97299">
        <ele>30.6</ele>
        <time>2020-06-21T07:11:57Z</time>
      </trkpt>
      <trkpt lat="49.41989" lon="0.973">
        <ele>30.6</ele>
        <time>2020-06-21T07:11:58Z</time>
      </trkpt>
      <trkpt lat="49.41987" lon="0.97301">
        <ele>30.8</ele>
        <time>2020-06-21T07:12:00Z</time>
      </trkpt>
      <trkpt lat="49.41986" lon="0.97302">
        <ele>31.1</ele>
        <time>2020-06-21T07:12:01Z</time>
      </trkpt>
      <trkpt lat="49.41985" lon="0.97304">
        <ele>31.3</ele>
        <time>2020-06-21T07:12:03Z</time>
      </trkpt>
      <trkpt lat="49.41984" lon="0.97305">
        <ele>31.3</ele>
        <time>2020-06-21T07:12:04Z</time>
      </trkpt>
      <trkpt lat="49.41984" lon="0.97307">
        <ele>31.7</ele>
        <time>2020-06-21T07:12:05Z</time>
      </trkpt>
      <trkpt lat="49.41983" lon="0.97311">
        <ele>31.7</ele>
        <time>2020-06-21T07:12:06Z</time>
      </trkpt>
      <trkpt lat="49.41983" lon="0.97313">
        <ele>32.1</ele>
        <time>2020-06-21T07:12:08Z</time>
      </trkpt>
      <trkpt lat="49.41982" lon="0.97315">
        <ele>32.9</ele>
        <time>2020-06-21T07:12:09Z</time>
      </trkpt>
      <trkpt lat="49.41982" lon="0.97317">
        <ele>32.9</ele>
        <time>2020-06-21T07:12:10Z</time>
      </trkpt>
      <trkpt lat="49.41981" lon="0.97321">
        <ele>33.4</ele>
        <time>2020-06-21T07:12:11Z</time>
      </trkpt>
      <trkpt lat="49.41981" lon="0.97325">
        <ele>34</ele>
        <time>2020-06-21T07:12:13Z</time>
      </trkpt>
      <trkpt lat="49.4198" lon="0.97331">
        <ele>34.6</ele>
        <time>2020-06-21T07:12:14Z</time>
      </trkpt>
      <trkpt lat="49.4198" lon="0.97332">
        <ele>35.3</ele>
        <time>2020-06-21T07:12:15Z</time>
      </trkpt>
      <trkpt lat="49.41981" lon="0.97338">
        <ele>35.3</ele>
        <time>2020-06-21T07:12:17Z</time>
      </trkpt>
      <trkpt lat="49.41981" lon="0.97343">
        <ele>35.4</ele>
        <time>2020-06-21T07:12:18Z</time>
      </trkpt>
      <trkpt lat="49.41982" lon="0.97344">
        <ele>35.4</ele>
        <time>2020-06-21T07:12:19Z</time>
      </trkpt>
      <trkpt lat="49.41982" lon="0.97348">
        <ele>35.4</ele>
        <time>2020-06-21T07:12:20Z</time>
      </trkpt>
      <trkpt lat="49.41983" lon="0.97353">
        <ele>35.5</ele>
        <time>2020-06-21T07:12:22Z</time>
      </trkpt>
      <trkpt lat="49.41983" lon="0.97357">
        <ele>35.5</ele>
        <time>2020-06-21T07:12:23Z</time>
      </trkpt>
      <trkpt lat="49.41984" lon="0.9736">
        <ele>35.5</ele>
        <time>2020-06-21T07:12:24Z</time>
      </trkpt>
      <trkpt lat="49.41985" lon="0.97362">
        <ele>35.5</ele>
        <time>2020-06-21T07:12:25Z</time>
      </trkpt>
      <trkpt lat="49.41987" lon="0.97368">
        <ele>35.5</ele>
        <time>2020-06-21T07:12:27Z</time>
      </trkpt>
      <trkpt lat="49.41988" lon="0.97369">
        <ele>35.5</ele>
        <time>2020-06-21T07:12:28Z</time>
      </trkpt>
      <trkpt lat="49.41989" lon="0.97371">
        <ele>35.6</ele>
        <time>2020-06-21T07:12:29Z</time>
      </trkpt>
      <trkpt lat="49.41991" lon="0.97375">
        <ele>35.6</ele>
        <time>2020-06-21T07:12:30Z</time>
      </trkpt>
      <trkpt lat="49.41992" lon="0.97377">
        <ele>35.6</ele>
        <time>2020-06-21T07:12:31Z</time>
      </trkpt>
      <trkpt lat="49.41994" lon="0.97382">
        <ele>35.6</ele>
        <time>2020-06-21T07:12:33Z</time>
      </trkpt>
      <trkpt lat="49.41995" lon="0.97384">
        <ele>35.6</ele>
        <time>2020-06-21T07:12:34Z</time>
      </trkpt>
      <trkpt lat="49.41998" lon="0.97391">
        <ele>35.7</ele>
        <time>2020-06-21T07:12:35Z</time>
      </trkpt>
      <trkpt lat="49.42" lon="0.97399">
        <ele>35.7</ele>
        <time>2020-06-21T07:12:36Z</time>
      </trkpt>
      <trkpt lat="49.42003" lon="0.97411">
        <ele>35.8</ele>
        <time>2020-06-21T07:12:37Z</time>
      </trkpt>
      <trkpt lat="49.42004" lon="0.97421">
        <ele>35.8</ele>
        <time>2020-06-21T07:12:39Z</time>
      </trkpt>
      <trkpt lat="49.42005" lon="0.9743">
        <ele>35.9</ele>
        <time>2020-06-21T07:12:40Z</time>
      </trkpt>
      <trkpt lat="49.42007" lon="0.97436">
        <ele>36</ele>
        <time>2020-06-21T07:12:41Z</time>
      </trkpt>
      <trkpt lat="49.42008" lon="0.9744">
        <ele>36.1</ele>
        <time>2020-06-21T07:12:43Z</time>
      </trkpt>
      <trkpt lat="49.42009" lon="0.97445">
        <ele>36.1</ele>
        <time>2020-06-21T07:12:44Z</time>
      </trkpt>
      <trkpt lat="49.4201" lon="0.97451">
        <ele>36.2</ele>
        <time>2020-06-21T07:12:45Z</time>
      </trkpt>
      <trkpt lat="49.42012" lon="0.97459">
        <ele>36.4</ele>
        <time>2020-06-21T07:12:47Z</time>
      </trkpt>
      <trkpt lat="49.42014" lon="0.97464">
        <ele>36.4</ele>
        <time>2020-06-21T07:12:48Z</time>
      </trkpt>
      <trkpt lat="49.42015" lon="0.97468">
        <ele>36.5</ele>
        <time>2020-06-21T07:12:50Z</time>
      </trkpt>
      <trkpt lat="49.42016" lon="0.97472">
        <ele>36.5</ele>
        <time>2020-06-21T07:12:51Z</time>
      </trkpt>
      <trkpt lat="49.42017" lon="0.97476">
        <ele>36.6</ele>
        <time>2020-06-21T07:12:52Z</time>
      </trkpt>
      <trkpt lat="49.42019" lon="0.97481">
        <ele>36.7</ele>
        <time>2020-06-21T07:12:54Z</time>
      </trkpt>
      <trkpt lat="49.42021" lon="0.97485">
        <ele>36.7</ele>
        <time>2020-06-21T07:12:55Z</time>
      </trkpt>
      <trkpt lat="49.42024" lon="0.97492">
        <ele>36.8</ele>
        <time>2020-06-21T07:12:57Z</time>
      </trkpt>
      <trkpt lat="49.42025" lon="0.97497">
        <ele>36.9</ele>
        <time>2020-06-21T07:12:58Z</time>
      </trkpt>
      <trkpt lat="49.42026" lon="0.975">
        <ele>37</ele>
        <time>2020-06-21T07:12:59Z</time>
      </trkpt>
      <trkpt lat="49.42027" lon="0.97502">
        <ele>37</ele>
        <time>2020-06-21T07:13:01Z</time>
      </trkpt>
      <trkpt lat="49.42028" lon="0.97505">
        <ele>37.1</ele>
        <time>2020-06-21T07:13:02Z</time>
      </trkpt>
      <trkpt lat="49.42028" lon="0.97506">
        <ele>37.1</ele>
        <time>2020-06-21T07:13:03Z</time>
      </trkpt>
      <trkpt lat="49.42028" lon="0.97508">
        <ele>37.2</ele>
        <time>2020-06-21T07:13:04Z</time>
      </trkpt>
      <trkpt lat="49.42027" lon="0.97512">
        <ele>37.3</ele>
        <time>2020-06-21T07:13:06Z</time>
      </trkpt>
      <trkpt lat="49.42028" lon="0.97518">
        <ele>37.4</ele>
        <time>2020-06-21T07:13:07Z</time>
      </trkpt>
      <trkpt lat="49.42031" lon="0.97527">
        <ele>37.6</ele>
        <time>2020-06-21T07:13:09Z</time>
      </trkpt>
      <trkpt lat="49.42032" lon="0.97536">
        <ele>37.7</ele>
        <time>2020-06-21T07:13:11Z</time>
      </trkpt>
      <trkpt lat="49.42032" lon="0.97541">
        <ele>37.8</ele>
        <time>2020-06-21T07:13:12Z</time>
      </trkpt>
      <trkpt lat="49.42032" lon="0.97546">
        <ele>37.9</ele>
        <time>2020-06-21T07:13:13Z</time>
      </trkpt>
      <trkpt lat="49.42032" lon="0.97551">
        <ele>37.9</ele>
        <time>2020-06-21T07:13:14Z</time>
      </trkpt>
      <trkpt lat="49.42032" lon="0.97559">
        <ele>38</ele>
        <time>2020-06-21T07:13:16Z</time>
      </trkpt>
      <trkpt lat="49.42032" lon="0.97565">
        <ele>38.1</ele>
        <time>2020-06-21T07:13:17Z</time>
      </trkpt>
      <trkpt lat="49.42031" lon="0.97566">
        <ele>38.1</ele>
        <time>2020-06-21T07:13:18Z</time>
      </trkpt>
      <trkpt lat="49.42031" lon="0.97569">
        <ele>38.2</ele>
        <time>2020-06-21T07:13:19Z</time>
      </trkpt>
      <trkpt lat="49.4203" lon="0.97575">
        <ele>38.2</ele>
        <time>2020-06-21T07:13:21Z</time>
      </trkpt>
      <trkpt lat="49.42031" lon="0.9758">
        <ele>38.3</ele>
        <time>2020-06-21T07:13:22Z</time>
      </trkpt>
      <trkpt lat="49.42031" lon="0.97583">
        <ele>38.3</ele>
        <time>2020-06-21T07:13:23Z</time>
      </trkpt>
      <trkpt lat="49.42032" lon="0.97591">
        <ele>38.5</ele>
        <time>2020-06-21T07:13:25Z</time>
      </trkpt>
      <trkpt lat="49.42033" lon="0.97598">
        <ele>38.5</ele>
        <time>2020-06-21T07:13:27Z</time>
      </trkpt>
      <trkpt lat="49.42033" lon="0.97604">
        <ele>38.6</ele>
        <time>2020-06-21T07:13:29Z</time>
      </trkpt>
      <trkpt lat="49.42034" lon="0.97607">
        <ele>38.6</ele>
        <time>2020-06-21T07:13:30Z</time>
      </trkpt>
      <trkpt lat="49.42036" lon="0.97615">
        <ele>38.7</ele>
        <time>2020-06-21T07:13:32Z</time>
      </trkpt>
      <trkpt lat="49.42038" lon="0.97624">
        <ele>38.7</ele>
        <time>2020-06-21T07:13:34Z</time>
      </trkpt>
      <trkpt lat="49.42038" lon="0.97628">
        <ele>38.7</ele>
        <time>2020-06-21T07:13:35Z</time>
      </trkpt>
      <trkpt lat="49.42039" lon="0.97637">
        <ele>38.7</ele>
        <time>2020-06-21T07:13:37Z</time>
      </trkpt>
      <trkpt lat="49.42041" lon="0.97642">
        <ele>38.6</ele>
        <time>2020-06-21T07:13:38Z</time>
      </trkpt>
      <trkpt lat="49.42041" lon="0.97643">
        <ele>38.6</ele>
        <time>2020-06-21T07:13:39Z</time>
      </trkpt>
      <trkpt lat="49.42045" lon="0.97653">
        <ele>38.6</ele>
        <time>2020-06-21T07:13:41Z</time>
      </trkpt>
      <trkpt lat="49.42049" lon="0.9766">
        <ele>38.6</ele>
        <time>2020-06-21T07:13:43Z</time>
      </trkpt>
      <trkpt lat="49.42053" lon="0.97668">
        <ele>38.6</ele>
        <time>2020-06-21T07:13:45Z</time>
      </trkpt>
      <trkpt lat="49.42059" lon="0.97676">
        <ele>38.5</ele>
        <time>2020-06-21T07:13:47Z</time>
      </trkpt>
      <trkpt lat="49.42061" lon="0.9768">
        <ele>38.5</ele>
        <time>2020-06-21T07:13:48Z</time>
      </trkpt>
      <trkpt lat="49.42063" lon="0.97684">
        <ele>38.5</ele>
        <time>2020-06-21T07:13:49Z</time>
      </trkpt>
      <trkpt lat="49.42067" lon="0.97694">
        <ele>38.5</ele>
        <time>2020-06-21T07:13:51Z</time>
      </trkpt>
      <trkpt lat="49.42069" lon="0.97698">
        <ele>38.6</ele>
        <time>2020-06-21T07:13:52Z</time>
      </trkpt>
      <trkpt lat="49.4207" lon="0.97702">
        <ele>38.6</ele>
        <time>2020-06-21T07:13:53Z</time>
      </trkpt>
      <trkpt lat="49.42072" lon="0.97708">
        <ele>38.6</ele>
        <time>2020-06-21T07:13:55Z</time>
      </trkpt>
      <trkpt lat="49.42077" lon="0.97714">
        <ele>38.7</ele>
        <time>2020-06-21T07:13:57Z</time>
      </trkpt>
      <trkpt lat="49.4208" lon="0.97719">
        <ele>38.7</ele>
        <time>2020-06-21T07:13:59Z</time>
      </trkpt>
      <trkpt lat="49.42084" lon="0.97725">
        <ele>38.8</ele>
        <time>2020-06-21T07:14:01Z</time>
      </trkpt>
      <trkpt lat="49.4209" lon="0.9773">
        <ele>38.8</ele>
        <time>2020-06-21T07:14:03Z</time>
      </trkpt>
      <trkpt lat="49.42096" lon="0.97736">
        <ele>38.8</ele>
        <time>2020-06-21T07:14:05Z</time>
      </trkpt>
      <trkpt lat="49.42105" lon="0.97744">
        <ele>38.7</ele>
        <time>2020-06-21T07:14:07Z</time>
      </trkpt>
      <trkpt lat="49.42117" lon="0.97757">
        <ele>38.4</ele>
        <time>2020-06-21T07:14:09Z</time>
      </trkpt>
      <trkpt lat="49.42121" lon="0.97763">
        <ele>38.3</ele>
        <time>2020-06-21T07:14:10Z</time>
      </trkpt>
      <trkpt lat="49.42124" lon="0.97768">
        <ele>38.3</ele>
        <time>2020-06-21T07:14:11Z</time>
      </trkpt>
      <trkpt lat="49.4213" lon="0.97777">
        <ele>38.2</ele>
        <time>2020-06-21T07:14:13Z</time>
      </trkpt>
      <trkpt lat="49.42133" lon="0.97781">
        <ele>38.2</ele>
        <time>2020-06-21T07:14:14Z</time>
      </trkpt>
      <trkpt lat="49.4214" lon="0.97788">
        <ele>38.3</ele>
        <time>2020-06-21T07:14:16Z</time>
      </trkpt>
      <trkpt lat="49.42147" lon="0.97793">
        <ele>38.5</ele>
        <time>2020-06-21T07:14:18Z</time>
      </trkpt>
      <trkpt lat="49.42155" lon="0.97798">
        <ele>38.6</ele>
        <time>2020-06-21T07:14:20Z</time>
      </trkpt>
      <trkpt lat="49.42161" lon="0.97806">
        <ele>38.7</ele>
        <time>2020-06-21T07:14:22Z</time>
      </trkpt>
      <trkpt lat="49.42164" lon="0.9781">
        <ele>38.7</ele>
        <time>2020-06-21T07:14:23Z</time>
      </trkpt>
      <trkpt lat="49.42167" lon="0.97816">
        <ele>38.9</ele>
        <time>2020-06-21T07:14:25Z</time>
      </trkpt>
      <trkpt lat="49.4217" lon="0.9782">
        <ele>38.9</ele>
        <time>2020-06-21T07:14:26Z</time>
      </trkpt>
      <trkpt lat="49.42173" lon="0.97824">
        <ele>39</ele>
        <time>2020-06-21T07:14:27Z</time>
      </trkpt>
      <trkpt lat="49.42176" lon="0.97827">
        <ele>39.1</ele>
        <time>2020-06-21T07:14:28Z</time>
      </trkpt>
      <trkpt lat="49.4218" lon="0.97832">
        <ele>39.2</ele>
        <time>2020-06-21T07:14:30Z</time>
      </trkpt>
      <trkpt lat="49.42182" lon="0.97834">
        <ele>39.2</ele>
        <time>2020-06-21T07:14:31Z</time>
      </trkpt>
      <trkpt lat="49.42186" lon="0.97838">
        <ele>39.3</ele>
        <time>2020-06-21T07:14:33Z</time>
      </trkpt>
      <trkpt lat="49.42188" lon="0.9784">
        <ele>39.3</ele>
        <time>2020-06-21T07:14:34Z</time>
      </trkpt>
      <trkpt lat="49.42193" lon="0.97845">
        <ele>39.3</ele>
        <time>2020-06-21T07:14:36Z</time>
      </trkpt>
      <trkpt lat="49.42198" lon="0.97849">
        <ele>39.3</ele>
        <time>2020-06-21T07:14:38Z</time>
      </trkpt>
      <trkpt lat="49.42202" lon="0.97854">
        <ele>39.3</ele>
        <time>2020-06-21T07:14:40Z</time>
      </trkpt>
      <trkpt lat="49.42204" lon="0.97857">
        <ele>39.2</ele>
        <time>2020-06-21T07:14:41Z</time>
      </trkpt>
      <trkpt lat="49.42209" lon="0.97862">
        <ele>39.1</ele>
        <time>2020-06-21T07:14:43Z</time>
      </trkpt>
      <trkpt lat="49.42212" lon="0.97866">
        <ele>39.1</ele>
        <time>2020-06-21T07:14:44Z</time>
      </trkpt>
      <trkpt lat="49.42218" lon="0.97872">
        <ele>38.9</ele>
        <time>2020-06-21T07:14:45Z</time>
      </trkpt>
      <trkpt lat="49.42224" lon="0.97878">
        <ele>38.7</ele>
        <time>2020-06-21T07:14:46Z</time>
      </trkpt>
      <trkpt lat="49.42235" lon="0.97894">
        <ele>38.4</ele>
        <time>2020-06-21T07:14:48Z</time>
      </trkpt>
      <trkpt lat="49.4224" lon="0.97905">
        <ele>38.3</ele>
        <time>2020-06-21T07:14:50Z</time>
      </trkpt>
      <trkpt lat="49.42244" lon="0.97916">
        <ele>38.2</ele>
        <time>2020-06-21T07:14:52Z</time>
      </trkpt>
      <trkpt lat="49.42246" lon="0.97925">
        <ele>38.2</ele>
        <time>2020-06-21T07:14:54Z</time>
      </trkpt>
      <trkpt lat="49.42248" lon="0.97934">
        <ele>38.3</ele>
        <time>2020-06-21T07:14:56Z</time>
      </trkpt>
      <trkpt lat="49.42249" lon="0.97942">
        <ele>38.4</ele>
        <time>2020-06-21T07:14:58Z</time>
      </trkpt>
      <trkpt lat="49.4225" lon="0.97945">
        <ele>38.2</ele>
        <time>2020-06-21T07:14:59Z</time>
      </trkpt>
      <trkpt lat="49.42255" lon="0.97946">
        <ele>37.8</ele>
        <time>2020-06-21T07:15:01Z</time>
      </trkpt>
      <trkpt lat="49.42261" lon="0.97945">
        <ele>37.4</ele>
        <time>2020-06-21T07:15:03Z</time>
      </trkpt>
      <trkpt lat="49.42266" lon="0.97944">
        <ele>36.9</ele>
        <time>2020-06-21T07:15:05Z</time>
      </trkpt>
      <trkpt lat="49.42269" lon="0.97944">
        <ele>36.7</ele>
        <time>2020-06-21T07:15:06Z</time>
      </trkpt>
      <trkpt lat="49.42273" lon="0.97944">
        <ele>36.3</ele>
        <time>2020-06-21T07:15:08Z</time>
      </trkpt>
      <trkpt lat="49.42276" lon="0.97944">
        <ele>36.1</ele>
        <time>2020-06-21T07:15:09Z</time>
      </trkpt>
      <trkpt lat="49.42279" lon="0.97945">
        <ele>35.8</ele>
        <time>2020-06-21T07:15:11Z</time>
      </trkpt>
      <trkpt lat="49.42281" lon="0.97946">
        <ele>35.7</ele>
        <time>2020-06-21T07:15:12Z</time>
      </trkpt>
      <trkpt lat="49.42286" lon="0.97951">
        <ele>35.3</ele>
        <time>2020-06-21T07:15:14Z</time>
      </trkpt>
      <trkpt lat="49.42289" lon="0.97955">
        <ele>35.1</ele>
        <time>2020-06-21T07:15:15Z</time>
      </trkpt>
      <trkpt lat="49.42293" lon="0.97962">
        <ele>34.7</ele>
        <time>2020-06-21T07:15:17Z</time>
      </trkpt>
      <trkpt lat="49.42297" lon="0.97971">
        <ele>34.4</ele>
        <time>2020-06-21T07:15:19Z</time>
      </trkpt>
      <trkpt lat="49.42301" lon="0.97978">
        <ele>34.1</ele>
        <time>2020-06-21T07:15:21Z</time>
      </trkpt>
      <trkpt lat="49.42306" lon="0.97984">
        <ele>33.9</ele>
        <time>2020-06-21T07:15:23Z</time>
      </trkpt>
      <trkpt lat="49.42312" lon="0.97989">
        <ele>33.7</ele>
        <time>2020-06-21T07:15:25Z</time>
      </trkpt>
      <trkpt lat="49.42318" lon="0.97994">
        <ele>33.5</ele>
        <time>2020-06-21T07:15:27Z</time>
      </trkpt>
      <trkpt lat="49.42322" lon="0.97996">
        <ele>33.4</ele>
        <time>2020-06-21T07:15:28Z</time>
      </trkpt>
      <trkpt lat="49.42328" lon="0.98002">
        <ele>33.3</ele>
        <time>2020-06-21T07:15:30Z</time>
      </trkpt>
      <trkpt lat="49.42331" lon="0.98004">
        <ele>33.2</ele>
        <time>2020-06-21T07:15:31Z</time>
      </trkpt>
      <trkpt lat="49.42334" lon="0.98007">
        <ele>33.1</ele>
        <time>2020-06-21T07:15:32Z</time>
      </trkpt>
      <trkpt lat="49.42336" lon="0.98011">
        <ele>33.1</ele>
        <time>2020-06-21T07:15:34Z</time>
      </trkpt>
      <trkpt lat="49.4234" lon="0.98014">
        <ele>33</ele>
        <time>2020-06-21T07:15:36Z</time>
      </trkpt>
      <trkpt lat="49.42345" lon="0.98019">
        <ele>32.9</ele>
        <time>2020-06-21T07:15:38Z</time>
      </trkpt>
      <trkpt lat="49.4235" lon="0.98026">
        <ele>32.9</ele>
        <time>2020-06-21T07:15:40Z</time>
      </trkpt>
      <trkpt lat="49.42354" lon="0.9803">
        <ele>32.8</ele>
        <time>2020-06-21T07:15:41Z</time>
      </trkpt>
      <trkpt lat="49.4236" lon="0.98036">
        <ele>32.8</ele>
        <time>2020-06-21T07:15:43Z</time>
      </trkpt>
      <trkpt lat="49.42362" lon="0.98039">
        <ele>32.7</ele>
        <time>2020-06-21T07:15:45Z</time>
      </trkpt>
      <trkpt lat="49.42364" lon="0.98038">
        <ele>32.7</ele>
        <time>2020-06-21T07:15:46Z</time>
      </trkpt>
      <trkpt lat="49.42367" lon="0.98037">
        <ele>32.8</ele>
        <time>2020-06-21T07:15:48Z</time>
      </trkpt>
      <trkpt lat="49.4237" lon="0.98038">
        <ele>32.8</ele>
        <time>2020-06-21T07:15:49Z</time>
      </trkpt>
      <trkpt lat="49.42377" lon="0.98042">
        <ele>32.9</ele>
        <time>2020-06-21T07:15:51Z</time>
      </trkpt>
      <trkpt lat="49.42378" lon="0.98044">
        <ele>32.9</ele>
        <time>2020-06-21T07:15:52Z</time>
      </trkpt>
      <trkpt lat="49.42382" lon="0.98048">
        <ele>32.9</ele>
        <time>2020-06-21T07:15:54Z</time>
      </trkpt>
      <trkpt lat="49.42386" lon="0.98051">
        <ele>33</ele>
        <time>2020-06-21T07:15:56Z</time>
      </trkpt>
      <trkpt lat="49.4239" lon="0.98054">
        <ele>33</ele>
        <time>2020-06-21T07:15:58Z</time>
      </trkpt>
      <trkpt lat="49.42393" lon="0.98055">
        <ele>33</ele>
        <time>2020-06-21T07:15:59Z</time>
      </trkpt>
      <trkpt lat="49.42397" lon="0.98058">
        <ele>33</ele>
        <time>2020-06-21T07:16:01Z</time>
      </trkpt>
      <trkpt lat="49.42398" lon="0.98061">
        <ele>33</ele>
        <time>2020-06-21T07:16:02Z</time>
      </trkpt>
      <trkpt lat="49.42398" lon="0.98064">
        <ele>33</ele>
        <time>2020-06-21T07:16:04Z</time>
      </trkpt>
      <trkpt lat="49.42398" lon="0.9807">
        <ele>33</ele>
        <time>2020-06-21T07:16:05Z</time>
      </trkpt>
      <trkpt lat="49.42397" lon="0.98072">
        <ele>33</ele>
        <time>2020-06-21T07:16:06Z</time>
      </trkpt>
      <trkpt lat="49.42397" lon="0.98078">
        <ele>33.1</ele>
        <time>2020-06-21T07:16:07Z</time>
      </trkpt>
      <trkpt lat="49.42397" lon="0.98083">
        <ele>33.1</ele>
        <time>2020-06-21T07:16:09Z</time>
      </trkpt>
      <trkpt lat="49.42398" lon="0.98089">
        <ele>33.1</ele>
        <time>2020-06-21T07:16:10Z</time>
      </trkpt>
      <trkpt lat="49.42399" lon="0.98097">
        <ele>33.2</ele>
        <time>2020-06-21T07:16:12Z</time>
      </trkpt>
      <trkpt lat="49.42399" lon="0.98103">
        <ele>33.3</ele>
        <time>2020-06-21T07:16:13Z</time>
      </trkpt>
      <trkpt lat="49.424" lon="0.98109">
        <ele>33.3</ele>
        <time>2020-06-21T07:16:15Z</time>
      </trkpt>
      <trkpt lat="49.424" lon="0.98115">
        <ele>33.4</ele>
        <time>2020-06-21T07:16:16Z</time>
      </trkpt>
      <trkpt lat="49.424" lon="0.9812">
        <ele>33.4</ele>
        <time>2020-06-21T07:16:17Z</time>
      </trkpt>
      <trkpt lat="49.42401" lon="0.98129">
        <ele>33.5</ele>
        <time>2020-06-21T07:16:19Z</time>
      </trkpt>
      <trkpt lat="49.42402" lon="0.98133">
        <ele>33.5</ele>
        <time>2020-06-21T07:16:20Z</time>
      </trkpt>
      <trkpt lat="49.42403" lon="0.98138">
        <ele>33.6</ele>
        <time>2020-06-21T07:16:21Z</time>
      </trkpt>
      <trkpt lat="49.42404" lon="0.98142">
        <ele>33.6</ele>
        <time>2020-06-21T07:16:22Z</time>
      </trkpt>
      <trkpt lat="49.42405" lon="0.98148">
        <ele>33.7</ele>
        <time>2020-06-21T07:16:23Z</time>
      </trkpt>
      <trkpt lat="49.42406" lon="0.9815">
        <ele>33.7</ele>
        <time>2020-06-21T07:16:24Z</time>
      </trkpt>
      <trkpt lat="49.42407" lon="0.98154">
        <ele>33.7</ele>
        <time>2020-06-21T07:16:25Z</time>
      </trkpt>
      <trkpt lat="49.42408" lon="0.98158">
        <ele>33.8</ele>
        <time>2020-06-21T07:16:27Z</time>
      </trkpt>
      <trkpt lat="49.4241" lon="0.98163">
        <ele>33.8</ele>
        <time>2020-06-21T07:16:28Z</time>
      </trkpt>
      <trkpt lat="49.42412" lon="0.9817">
        <ele>33.9</ele>
        <time>2020-06-21T07:16:30Z</time>
      </trkpt>
      <trkpt lat="49.42413" lon="0.98174">
        <ele>33.9</ele>
        <time>2020-06-21T07:16:31Z</time>
      </trkpt>
      <trkpt lat="49.42415" lon="0.98179">
        <ele>33.9</ele>
        <time>2020-06-21T07:16:32Z</time>
      </trkpt>
      <trkpt lat="49.42415" lon="0.98181">
        <ele>34</ele>
        <time>2020-06-21T07:16:33Z</time>
      </trkpt>
      <trkpt lat="49.42418" lon="0.98186">
        <ele>34</ele>
        <time>2020-06-21T07:16:35Z</time>
      </trkpt>
      <trkpt lat="49.4242" lon="0.98192">
        <ele>34.1</ele>
        <time>2020-06-21T07:16:36Z</time>
      </trkpt>
      <trkpt lat="49.42421" lon="0.98194">
        <ele>34.1</ele>
        <time>2020-06-21T07:16:37Z</time>
      </trkpt>
      <trkpt lat="49.42423" lon="0.982">
        <ele>34.2</ele>
        <time>2020-06-21T07:16:39Z</time>
      </trkpt>
      <trkpt lat="49.42424" lon="0.98205">
        <ele>34.2</ele>
        <time>2020-06-21T07:16:41Z</time>
      </trkpt>
      <trkpt lat="49.42425" lon="0.98209">
        <ele>34.3</ele>
        <time>2020-06-21T07:16:42Z</time>
      </trkpt>
      <trkpt lat="49.42426" lon="0.98213">
        <ele>34.3</ele>
        <time>2020-06-21T07:16:43Z</time>
      </trkpt>
      <trkpt lat="49.42427" lon="0.98216">
        <ele>34.4</ele>
        <time>2020-06-21T07:16:44Z</time>
      </trkpt>
      <trkpt lat="49.42428" lon="0.98218">
        <ele>34.4</ele>
        <time>2020-06-21T07:16:46Z</time>
      </trkpt>
      <trkpt lat="49.4243" lon="0.98224">
        <ele>34.5</ele>
        <time>2020-06-21T07:16:47Z</time>
      </trkpt>
      <trkpt lat="49.42431" lon="0.98226">
        <ele>34.5</ele>
        <time>2020-06-21T07:16:48Z</time>
      </trkpt>
      <trkpt lat="49.42434" lon="0.98232">
        <ele>34.6</ele>
        <time>2020-06-21T07:16:50Z</time>
      </trkpt>
      <trkpt lat="49.42437" lon="0.98238">
        <ele>34.7</ele>
        <time>2020-06-21T07:16:52Z</time>
      </trkpt>
      <trkpt lat="49.4244" lon="0.98243">
        <ele>34.8</ele>
        <time>2020-06-21T07:16:54Z</time>
      </trkpt>
      <trkpt lat="49.42444" lon="0.98248">
        <ele>34.8</ele>
        <time>2020-06-21T07:16:56Z</time>
      </trkpt>
      <trkpt lat="49.42446" lon="0.98253">
        <ele>34.9</ele>
        <time>2020-06-21T07:16:58Z</time>
      </trkpt>
      <trkpt lat="49.42448" lon="0.98257">
        <ele>34.9</ele>
        <time>2020-06-21T07:16:59Z</time>
      </trkpt>
      <trkpt lat="49.4245" lon="0.98261">
        <ele>35</ele>
        <time>2020-06-21T07:17:00Z</time>
      </trkpt>
      <trkpt lat="49.42451" lon="0.98263">
        <ele>35</ele>
        <time>2020-06-21T07:17:01Z</time>
      </trkpt>
      <trkpt lat="49.42454" lon="0.98268">
        <ele>35.1</ele>
        <time>2020-06-21T07:17:02Z</time>
      </trkpt>
      <trkpt lat="49.42455" lon="0.98271">
        <ele>35.1</ele>
        <time>2020-06-21T07:17:03Z</time>
      </trkpt>
      <trkpt lat="49.42458" lon="0.98276">
        <ele>35.2</ele>
        <time>2020-06-21T07:17:05Z</time>
      </trkpt>
      <trkpt lat="49.42461" lon="0.98281">
        <ele>35.3</ele>
        <time>2020-06-21T07:17:07Z</time>
      </trkpt>
      <trkpt lat="49.42463" lon="0.98285">
        <ele>35.3</ele>
        <time>2020-06-21T07:17:08Z</time>
      </trkpt>
      <trkpt lat="49.42465" lon="0.9829">
        <ele>35.3</ele>
        <time>2020-06-21T07:17:09Z</time>
      </trkpt>
      <trkpt lat="49.42466" lon="0.98292">
        <ele>35.4</ele>
        <time>2020-06-21T07:17:10Z</time>
      </trkpt>
      <trkpt lat="49.42468" lon="0.98296">
        <ele>35.4</ele>
        <time>2020-06-21T07:17:12Z</time>
      </trkpt>
      <trkpt lat="49.4247" lon="0.98302">
        <ele>35.4</ele>
        <time>2020-06-21T07:17:14Z</time>
      </trkpt>
      <trkpt lat="49.42471" lon="0.98307">
        <ele>35.4</ele>
        <time>2020-06-21T07:17:15Z</time>
      </trkpt>
      <trkpt lat="49.42474" lon="0.98312">
        <ele>35.4</ele>
        <time>2020-06-21T07:17:16Z</time>
      </trkpt>
      <trkpt lat="49.42477" lon="0.98318">
        <ele>35.4</ele>
        <time>2020-06-21T07:17:17Z</time>
      </trkpt>
      <trkpt lat="49.42482" lon="0.98321">
        <ele>35.3</ele>
        <time>2020-06-21T07:17:19Z</time>
      </trkpt>
      <trkpt lat="49.42487" lon="0.98328">
        <ele>35.3</ele>
        <time>2020-06-21T07:17:20Z</time>
      </trkpt>
      <trkpt lat="49.4249" lon="0.9833">
        <ele>35.3</ele>
        <time>2020-06-21T07:17:22Z</time>
      </trkpt>
      <trkpt lat="49.42493" lon="0.98332">
        <ele>35.3</ele>
        <time>2020-06-21T07:17:23Z</time>
      </trkpt>
      <trkpt lat="49.42496" lon="0.98334">
        <ele>35.2</ele>
        <time>2020-06-21T07:17:24Z</time>
      </trkpt>
      <trkpt lat="49.42498" lon="0.98336">
        <ele>35.2</ele>
        <time>2020-06-21T07:17:25Z</time>
      </trkpt>
      <trkpt lat="49.42501" lon="0.98339">
        <ele>35.2</ele>
        <time>2020-06-21T07:17:26Z</time>
      </trkpt>
      <trkpt lat="49.42504" lon="0.98342">
        <ele>35.2</ele>
        <time>2020-06-21T07:17:27Z</time>
      </trkpt>
      <trkpt lat="49.42506" lon="0.98343">
        <ele>35.2</ele>
        <time>2020-06-21T07:17:28Z</time>
      </trkpt>
      <trkpt lat="49.42509" lon="0.98346">
        <ele>35.3</ele>
        <time>2020-06-21T07:17:30Z</time>
      </trkpt>
      <trkpt lat="49.42511" lon="0.98347">
        <ele>35.3</ele>
        <time>2020-06-21T07:17:31Z</time>
      </trkpt>
      <trkpt lat="49.42514" lon="0.9835">
        <ele>35.3</ele>
        <time>2020-06-21T07:17:33Z</time>
      </trkpt>
      <trkpt lat="49.42517" lon="0.98352">
        <ele>35.3</ele>
        <time>2020-06-21T07:17:34Z</time>
      </trkpt>
      <trkpt lat="49.4252" lon="0.98355">
        <ele>35.4</ele>
        <time>2020-06-21T07:17:36Z</time>
      </trkpt>
      <trkpt lat="49.42523" lon="0.98358">
        <ele>35.4</ele>
        <time>2020-06-21T07:17:37Z</time>
      </trkpt>
      <trkpt lat="49.42527" lon="0.9836">
        <ele>35.5</ele>
        <time>2020-06-21T07:17:38Z</time>
      </trkpt>
      <trkpt lat="49.42532" lon="0.98363">
        <ele>35.6</ele>
        <time>2020-06-21T07:17:40Z</time>
      </trkpt>
      <trkpt lat="49.42536" lon="0.98365">
        <ele>35.7</ele>
        <time>2020-06-21T07:17:41Z</time>
      </trkpt>
      <trkpt lat="49.42539" lon="0.98366">
        <ele>35.7</ele>
        <time>2020-06-21T07:17:42Z</time>
      </trkpt>
      <trkpt lat="49.42541" lon="0.98366">
        <ele>35.8</ele>
        <time>2020-06-21T07:17:43Z</time>
      </trkpt>
      <trkpt lat="49.42544" lon="0.98368">
        <ele>35.8</ele>
        <time>2020-06-21T07:17:45Z</time>
      </trkpt>
      <trkpt lat="49.42547" lon="0.98369">
        <ele>35.9</ele>
        <time>2020-06-21T07:17:46Z</time>
      </trkpt>
      <trkpt lat="49.42551" lon="0.98373">
        <ele>36</ele>
        <time>2020-06-21T07:17:47Z</time>
      </trkpt>
      <trkpt lat="49.42556" lon="0.98376">
        <ele>36.1</ele>
        <time>2020-06-21T07:17:49Z</time>
      </trkpt>
      <trkpt lat="49.42559" lon="0.98379">
        <ele>36.1</ele>
        <time>2020-06-21T07:17:50Z</time>
      </trkpt>
      <trkpt lat="49.42561" lon="0.9838">
        <ele>36.2</ele>
        <time>2020-06-21T07:17:51Z</time>
      </trkpt>
      <trkpt lat="49.42566" lon="0.98383">
        <ele>36.3</ele>
        <time>2020-06-21T07:17:53Z</time>
      </trkpt>
      <trkpt lat="49.4257" lon="0.98386">
        <ele>36.4</ele>
        <time>2020-06-21T07:17:54Z</time>
      </trkpt>
      <trkpt lat="49.42574" lon="0.98388">
        <ele>36.5</ele>
        <time>2020-06-21T07:17:56Z</time>
      </trkpt>
      <trkpt lat="49.42577" lon="0.9839">
        <ele>36.5</ele>
        <time>2020-06-21T07:17:57Z</time>
      </trkpt>
      <trkpt lat="49.42581" lon="0.98392">
        <ele>36.6</ele>
        <time>2020-06-21T07:17:59Z</time>
      </trkpt>
      <trkpt lat="49.42584" lon="0.98394">
        <ele>36.7</ele>
        <time>2020-06-21T07:18:00Z</time>
      </trkpt>
      <trkpt lat="49.42587" lon="0.98397">
        <ele>36.7</ele>
        <time>2020-06-21T07:18:01Z</time>
      </trkpt>
      <trkpt lat="49.4259" lon="0.984">
        <ele>36.8</ele>
        <time>2020-06-21T07:18:03Z</time>
      </trkpt>
      <trkpt lat="49.42594" lon="0.98403">
        <ele>36.9</ele>
        <time>2020-06-21T07:18:05Z</time>
      </trkpt>
      <trkpt lat="49.42599" lon="0.98407">
        <ele>36.9</ele>
        <time>2020-06-21T07:18:06Z</time>
      </trkpt>
      <trkpt lat="49.42603" lon="0.9841">
        <ele>37</ele>
        <time>2020-06-21T07:18:08Z</time>
      </trkpt>
      <trkpt lat="49.42605" lon="0.98412">
        <ele>37</ele>
        <time>2020-06-21T07:18:09Z</time>
      </trkpt>
      <trkpt lat="49.42609" lon="0.98416">
        <ele>37.1</ele>
        <time>2020-06-21T07:18:11Z</time>
      </trkpt>
      <trkpt lat="49.42612" lon="0.9842">
        <ele>37.1</ele>
        <time>2020-06-21T07:18:12Z</time>
      </trkpt>
      <trkpt lat="49.42615" lon="0.98423">
        <ele>37.1</ele>
        <time>2020-06-21T07:18:13Z</time>
      </trkpt>
      <trkpt lat="49.42619" lon="0.98427">
        <ele>37.1</ele>
        <time>2020-06-21T07:18:15Z</time>
      </trkpt>
      <trkpt lat="49.42624" lon="0.98433">
        <ele>37.1</ele>
        <time>2020-06-21T07:18:17Z</time>
      </trkpt>
      <trkpt lat="49.42628" lon="0.98438">
        <ele>37.1</ele>
        <time>2020-06-21T07:18:18Z</time>
      </trkpt>
      <trkpt lat="49.42635" lon="0.98446">
        <ele>37.2</ele>
        <time>2020-06-21T07:18:20Z</time>
      </trkpt>
      <trkpt lat="49.42642" lon="0.98453">
        <ele>37.3</ele>
        <time>2020-06-21T07:18:21Z</time>
      </trkpt>
      <trkpt lat="49.42648" lon="0.98458">
        <ele>37.3</ele>
        <time>2020-06-21T07:18:22Z</time>
      </trkpt>
      <trkpt lat="49.42654" lon="0.98465">
        <ele>37.5</ele>
        <time>2020-06-21T07:18:24Z</time>
      </trkpt>
      <trkpt lat="49.42658" lon="0.98469">
        <ele>37.5</ele>
        <time>2020-06-21T07:18:25Z</time>
      </trkpt>
      <trkpt lat="49.4266" lon="0.98471">
        <ele>37.6</ele>
        <time>2020-06-21T07:18:26Z</time>
      </trkpt>
      <trkpt lat="49.42663" lon="0.98473">
        <ele>37.7</ele>
        <time>2020-06-21T07:18:27Z</time>
      </trkpt>
      <trkpt lat="49.42667" lon="0.98477">
        <ele>37.8</ele>
        <time>2020-06-21T07:18:29Z</time>
      </trkpt>
      <trkpt lat="49.42671" lon="0.9848">
        <ele>37.9</ele>
        <time>2020-06-21T07:18:30Z</time>
      </trkpt>
      <trkpt lat="49.42672" lon="0.98481">
        <ele>37.9</ele>
        <time>2020-06-21T07:18:31Z</time>
      </trkpt>
      <trkpt lat="49.42676" lon="0.98484">
        <ele>38.1</ele>
        <time>2020-06-21T07:18:32Z</time>
      </trkpt>
      <trkpt lat="49.4268" lon="0.98487">
        <ele>38.2</ele>
        <time>2020-06-21T07:18:34Z</time>
      </trkpt>
      <trkpt lat="49.42683" lon="0.98488">
        <ele>38.3</ele>
        <time>2020-06-21T07:18:35Z</time>
      </trkpt>
      <trkpt lat="49.42688" lon="0.98492">
        <ele>38.4</ele>
        <time>2020-06-21T07:18:37Z</time>
      </trkpt>
      <trkpt lat="49.42689" lon="0.98493">
        <ele>38.4</ele>
        <time>2020-06-21T07:18:38Z</time>
      </trkpt>
      <trkpt lat="49.42691" lon="0.98494">
        <ele>38.5</ele>
        <time>2020-06-21T07:18:39Z</time>
      </trkpt>
      <trkpt lat="49.42694" lon="0.98497">
        <ele>38.5</ele>
        <time>2020-06-21T07:18:41Z</time>
      </trkpt>
      <trkpt lat="49.42695" lon="0.98498">
        <ele>38.5</ele>
        <time>2020-06-21T07:18:42Z</time>
      </trkpt>
      <trkpt lat="49.42698" lon="0.98501">
        <ele>38.6</ele>
        <time>2020-06-21T07:18:43Z</time>
      </trkpt>
      <trkpt lat="49.42699" lon="0.98502">
        <ele>38.7</ele>
        <time>2020-06-21T07:18:44Z</time>
      </trkpt>
      <trkpt lat="49.42701" lon="0.98505">
        <ele>38.7</ele>
        <time>2020-06-21T07:18:46Z</time>
      </trkpt>
      <trkpt lat="49.42705" lon="0.98509">
        <ele>38.8</ele>
        <time>2020-06-21T07:18:48Z</time>
      </trkpt>
      <trkpt lat="49.42708" lon="0.98512">
        <ele>38.9</ele>
        <time>2020-06-21T07:18:49Z</time>
      </trkpt>
      <trkpt lat="49.42712" lon="0.98515">
        <ele>39</ele>
        <time>2020-06-21T07:18:51Z</time>
      </trkpt>
      <trkpt lat="49.42713" lon="0.98516">
        <ele>39.1</ele>
        <time>2020-06-21T07:18:52Z</time>
      </trkpt>
      <trkpt lat="49.42717" lon="0.98518">
        <ele>39.1</ele>
        <time>2020-06-21T07:18:54Z</time>
      </trkpt>
      <trkpt lat="49.42722" lon="0.98522">
        <ele>39.3</ele>
        <time>2020-06-21T07:18:55Z</time>
      </trkpt>
      <trkpt lat="49.42725" lon="0.98524">
        <ele>39.3</ele>
        <time>2020-06-21T07:18:57Z</time>
      </trkpt>
      <trkpt lat="49.42729" lon="0.98526">
        <ele>39.4</ele>
        <time>2020-06-21T07:18:58Z</time>
      </trkpt>
      <trkpt lat="49.42732" lon="0.98529">
        <ele>39.5</ele>
        <time>2020-06-21T07:18:59Z</time>
      </trkpt>
      <trkpt lat="49.42736" lon="0.98531">
        <ele>39.7</ele>
        <time>2020-06-21T07:19:00Z</time>
      </trkpt>
      <trkpt lat="49.4274" lon="0.98533">
        <ele>39.8</ele>
        <time>2020-06-21T07:19:02Z</time>
      </trkpt>
      <trkpt lat="49.42746" lon="0.98536">
        <ele>40</ele>
        <time>2020-06-21T07:19:03Z</time>
      </trkpt>
      <trkpt lat="49.42754" lon="0.98541">
        <ele>40.3</ele>
        <time>2020-06-21T07:19:04Z</time>
      </trkpt>
      <trkpt lat="49.42759" lon="0.98544">
        <ele>40.5</ele>
        <time>2020-06-21T07:19:06Z</time>
      </trkpt>
      <trkpt lat="49.42763" lon="0.98548">
        <ele>40.6</ele>
        <time>2020-06-21T07:19:07Z</time>
      </trkpt>
      <trkpt lat="49.42766" lon="0.98551">
        <ele>40.7</ele>
        <time>2020-06-21T07:19:08Z</time>
      </trkpt>
      <trkpt lat="49.4277" lon="0.98555">
        <ele>40.8</ele>
        <time>2020-06-21T07:19:09Z</time>
      </trkpt>
      <trkpt lat="49.42773" lon="0.98557">
        <ele>40.9</ele>
        <time>2020-06-21T07:19:10Z</time>
      </trkpt>
      <trkpt lat="49.42776" lon="0.9856">
        <ele>40.9</ele>
        <time>2020-06-21T07:19:12Z</time>
      </trkpt>
      <trkpt lat="49.42782" lon="0.98564">
        <ele>40.9</ele>
        <time>2020-06-21T07:19:14Z</time>
      </trkpt>
      <trkpt lat="49.42787" lon="0.98568">
        <ele>40.9</ele>
        <time>2020-06-21T07:19:15Z</time>
      </trkpt>
      <trkpt lat="49.42793" lon="0.98572">
        <ele>40.9</ele>
        <time>2020-06-21T07:19:17Z</time>
      </trkpt>
      <trkpt lat="49.42797" lon="0.98576">
        <ele>40.9</ele>
        <time>2020-06-21T07:19:18Z</time>
      </trkpt>
      <trkpt lat="49.42802" lon="0.9858">
        <ele>40.9</ele>
        <time>2020-06-21T07:19:20Z</time>
      </trkpt>
      <trkpt lat="49.42808" lon="0.98585">
        <ele>40.9</ele>
        <time>2020-06-21T07:19:21Z</time>
      </trkpt>
      <trkpt lat="49.42812" lon="0.9859">
        <ele>40.9</ele>
        <time>2020-06-21T07:19:23Z</time>
      </trkpt>
      <trkpt lat="49.42816" lon="0.98595">
        <ele>41</ele>
        <time>2020-06-21T07:19:24Z</time>
      </trkpt>
      <trkpt lat="49.42818" lon="0.986">
        <ele>41</ele>
        <time>2020-06-21T07:19:25Z</time>
      </trkpt>
      <trkpt lat="49.42824" lon="0.98606">
        <ele>41</ele>
        <time>2020-06-21T07:19:27Z</time>
      </trkpt>
      <trkpt lat="49.4283" lon="0.98611">
        <ele>41.1</ele>
        <time>2020-06-21T07:19:28Z</time>
      </trkpt>
      <trkpt lat="49.42835" lon="0.98615">
        <ele>41.2</ele>
        <time>2020-06-21T07:19:29Z</time>
      </trkpt>
      <trkpt lat="49.42845" lon="0.98618">
        <ele>41.5</ele>
        <time>2020-06-21T07:19:30Z</time>
      </trkpt>
      <trkpt lat="49.42853" lon="0.98623">
        <ele>41.8</ele>
        <time>2020-06-21T07:19:32Z</time>
      </trkpt>
      <trkpt lat="49.4286" lon="0.98629">
        <ele>42.2</ele>
        <time>2020-06-21T07:19:34Z</time>
      </trkpt>
      <trkpt lat="49.42867" lon="0.98633">
        <ele>42.5</ele>
        <time>2020-06-21T07:19:36Z</time>
      </trkpt>
      <trkpt lat="49.42873" lon="0.98637">
        <ele>42.9</ele>
        <time>2020-06-21T07:19:38Z</time>
      </trkpt>
      <trkpt lat="49.42876" lon="0.9864">
        <ele>43.1</ele>
        <time>2020-06-21T07:19:39Z</time>
      </trkpt>
      <trkpt lat="49.42881" lon="0.98644">
        <ele>43.4</ele>
        <time>2020-06-21T07:19:41Z</time>
      </trkpt>
      <trkpt lat="49.42883" lon="0.98647">
        <ele>43.5</ele>
        <time>2020-06-21T07:19:42Z</time>
      </trkpt>
      <trkpt lat="49.42884" lon="0.98648">
        <ele>43.6</ele>
        <time>2020-06-21T07:19:43Z</time>
      </trkpt>
      <trkpt lat="49.42889" lon="0.98653">
        <ele>43.9</ele>
        <time>2020-06-21T07:19:45Z</time>
      </trkpt>
      <trkpt lat="49.42893" lon="0.98656">
        <ele>44.2</ele>
        <time>2020-06-21T07:19:47Z</time>
      </trkpt>
      <trkpt lat="49.42895" lon="0.98658">
        <ele>44.3</ele>
        <time>2020-06-21T07:19:48Z</time>
      </trkpt>
      <trkpt lat="49.42901" lon="0.98662">
        <ele>44.7</ele>
        <time>2020-06-21T07:19:50Z</time>
      </trkpt>
      <trkpt lat="49.42904" lon="0.98665">
        <ele>44.9</ele>
        <time>2020-06-21T07:19:51Z</time>
      </trkpt>
      <trkpt lat="49.42906" lon="0.98667">
        <ele>45</ele>
        <time>2020-06-21T07:19:52Z</time>
      </trkpt>
      <trkpt lat="49.4291" lon="0.98671">
        <ele>45.2</ele>
        <time>2020-06-21T07:19:54Z</time>
      </trkpt>
      <trkpt lat="49.42912" lon="0.98673">
        <ele>45.3</ele>
        <time>2020-06-21T07:19:55Z</time>
      </trkpt>
      <trkpt lat="49.42915" lon="0.98676">
        <ele>45.7</ele>
        <time>2020-06-21T07:19:57Z</time>
      </trkpt>
      <trkpt lat="49.4292" lon="0.98678">
        <ele>45.9</ele>
        <time>2020-06-21T07:19:59Z</time>
      </trkpt>
      <trkpt lat="49.42923" lon="0.9868">
        <ele>46.1</ele>
        <time>2020-06-21T07:20:00Z</time>
      </trkpt>
      <trkpt lat="49.42925" lon="0.98681">
        <ele>46.1</ele>
        <time>2020-06-21T07:20:01Z</time>
      </trkpt>
      <trkpt lat="49.42928" lon="0.98681">
        <ele>46.3</ele>
        <time>2020-06-21T07:20:03Z</time>
      </trkpt>
      <trkpt lat="49.42931" lon="0.98682">
        <ele>46.4</ele>
        <time>2020-06-21T07:20:04Z</time>
      </trkpt>
      <trkpt lat="49.42938" lon="0.98684">
        <ele>46.6</ele>
        <time>2020-06-21T07:20:06Z</time>
      </trkpt>
      <trkpt lat="49.42945" lon="0.98686">
        <ele>46.9</ele>
        <time>2020-06-21T07:20:08Z</time>
      </trkpt>
      <trkpt lat="49.42953" lon="0.98685">
        <ele>47.2</ele>
        <time>2020-06-21T07:20:10Z</time>
      </trkpt>
      <trkpt lat="49.4296" lon="0.98686">
        <ele>47.4</ele>
        <time>2020-06-21T07:20:12Z</time>
      </trkpt>
      <trkpt lat="49.42967" lon="0.9869">
        <ele>47.6</ele>
        <time>2020-06-21T07:20:14Z</time>
      </trkpt>
      <trkpt lat="49.42977" lon="0.98693">
        <ele>47.7</ele>
        <time>2020-06-21T07:20:16Z</time>
      </trkpt>
      <trkpt lat="49.42984" lon="0.98697">
        <ele>47.6</ele>
        <time>2020-06-21T07:20:18Z</time>
      </trkpt>
      <trkpt lat="49.42989" lon="0.987">
        <ele>47.6</ele>
        <time>2020-06-21T07:20:20Z</time>
      </trkpt>
      <trkpt lat="49.42993" lon="0.98701">
        <ele>47.5</ele>
        <time>2020-06-21T07:20:21Z</time>
      </trkpt>
      <trkpt lat="49.42996" lon="0.98702">
        <ele>47.5</ele>
        <time>2020-06-21T07:20:22Z</time>
      </trkpt>
      <trkpt lat="49.43001" lon="0.98705">
        <ele>47.3</ele>
        <time>2020-06-21T07:20:24Z</time>
      </trkpt>
      <trkpt lat="49.43004" lon="0.98705">
        <ele>47.3</ele>
        <time>2020-06-21T07:20:25Z</time>
      </trkpt>
      <trkpt lat="49.4301" lon="0.98708">
        <ele>47.1</ele>
        <time>2020-06-21T07:20:27Z</time>
      </trkpt>
      <trkpt lat="49.43014" lon="0.98708">
        <ele>46.9</ele>
        <time>2020-06-21T07:20:28Z</time>
      </trkpt>
      <trkpt lat="49.43019" lon="0.98708">
        <ele>46.8</ele>
        <time>2020-06-21T07:20:29Z</time>
      </trkpt>
      <trkpt lat="49.43025" lon="0.9871">
        <ele>46.6</ele>
        <time>2020-06-21T07:20:31Z</time>
      </trkpt>
      <trkpt lat="49.43034" lon="0.98712">
        <ele>46.3</ele>
        <time>2020-06-21T07:20:33Z</time>
      </trkpt>
      <trkpt lat="49.43038" lon="0.98713">
        <ele>46.2</ele>
        <time>2020-06-21T07:20:34Z</time>
      </trkpt>
      <trkpt lat="49.43045" lon="0.98716">
        <ele>46.1</ele>
        <time>2020-06-21T07:20:36Z</time>
      </trkpt>
      <trkpt lat="49.43054" lon="0.98719">
        <ele>46</ele>
        <time>2020-06-21T07:20:38Z</time>
      </trkpt>
      <trkpt lat="49.43058" lon="0.9872">
        <ele>46</ele>
        <time>2020-06-21T07:20:39Z</time>
      </trkpt>
      <trkpt lat="49.43065" lon="0.98724">
        <ele>46</ele>
        <time>2020-06-21T07:20:41Z</time>
      </trkpt>
      <trkpt lat="49.43075" lon="0.98725">
        <ele>46.1</ele>
        <time>2020-06-21T07:20:43Z</time>
      </trkpt>
      <trkpt lat="49.4308" lon="0.98726">
        <ele>46.2</ele>
        <time>2020-06-21T07:20:44Z</time>
      </trkpt>
      <trkpt lat="49.43083" lon="0.98728">
        <ele>46.3</ele>
        <time>2020-06-21T07:20:45Z</time>
      </trkpt>
      <trkpt lat="49.43088" lon="0.98729">
        <ele>46.4</ele>
        <time>2020-06-21T07:20:47Z</time>
      </trkpt>
      <trkpt lat="49.43091" lon="0.9873">
        <ele>46.6</ele>
        <time>2020-06-21T07:20:49Z</time>
      </trkpt>
      <trkpt lat="49.43095" lon="0.98732">
        <ele>46.7</ele>
        <time>2020-06-21T07:20:51Z</time>
      </trkpt>
      <trkpt lat="49.43102" lon="0.98735">
        <ele>46.9</ele>
        <time>2020-06-21T07:20:53Z</time>
      </trkpt>
      <trkpt lat="49.43105" lon="0.98737">
        <ele>47</ele>
        <time>2020-06-21T07:20:54Z</time>
      </trkpt>
      <trkpt lat="49.43107" lon="0.98738">
        <ele>47.1</ele>
        <time>2020-06-21T07:20:55Z</time>
      </trkpt>
      <trkpt lat="49.43113" lon="0.98739">
        <ele>47.3</ele>
        <time>2020-06-21T07:20:57Z</time>
      </trkpt>
      <trkpt lat="49.43117" lon="0.98741">
        <ele>47.3</ele>
        <time>2020-06-21T07:20:58Z</time>
      </trkpt>
      <trkpt lat="49.43118" lon="0.98742">
        <ele>47.4</ele>
        <time>2020-06-21T07:20:59Z</time>
      </trkpt>
      <trkpt lat="49.43121" lon="0.98744">
        <ele>47.4</ele>
        <time>2020-06-21T07:21:00Z</time>
      </trkpt>
      <trkpt lat="49.43127" lon="0.98746">
        <ele>47.5</ele>
        <time>2020-06-21T07:21:02Z</time>
      </trkpt>
      <trkpt lat="49.4313" lon="0.98747">
        <ele>47.6</ele>
        <time>2020-06-21T07:21:03Z</time>
      </trkpt>
      <trkpt lat="49.43136" lon="0.9875">
        <ele>47.7</ele>
        <time>2020-06-21T07:21:05Z</time>
      </trkpt>
      <trkpt lat="49.43138" lon="0.98751">
        <ele>47.7</ele>
        <time>2020-06-21T07:21:06Z</time>
      </trkpt>
      <trkpt lat="49.43144" lon="0.98754">
        <ele>47.8</ele>
        <time>2020-06-21T07:21:08Z</time>
      </trkpt>
      <trkpt lat="49.4315" lon="0.98757">
        <ele>47.8</ele>
        <time>2020-06-21T07:21:10Z</time>
      </trkpt>
      <trkpt lat="49.43156" lon="0.9876">
        <ele>47.8</ele>
        <time>2020-06-21T07:21:12Z</time>
      </trkpt>
      <trkpt lat="49.43161" lon="0.98762">
        <ele>47.9</ele>
        <time>2020-06-21T07:21:14Z</time>
      </trkpt>
      <trkpt lat="49.43169" lon="0.98764">
        <ele>47.9</ele>
        <time>2020-06-21T07:21:16Z</time>
      </trkpt>
      <trkpt lat="49.43178" lon="0.98767">
        <ele>47.9</ele>
        <time>2020-06-21T07:21:18Z</time>
      </trkpt>
      <trkpt lat="49.4319" lon="0.98768">
        <ele>47.8</ele>
        <time>2020-06-21T07:21:20Z</time>
      </trkpt>
      <trkpt lat="49.43195" lon="0.98768">
        <ele>47.8</ele>
        <time>2020-06-21T07:21:21Z</time>
      </trkpt>
      <trkpt lat="49.43199" lon="0.98769">
        <ele>47.8</ele>
        <time>2020-06-21T07:21:22Z</time>
      </trkpt>
      <trkpt lat="49.43204" lon="0.9877">
        <ele>47.8</ele>
        <time>2020-06-21T07:21:23Z</time>
      </trkpt>
      <trkpt lat="49.43213" lon="0.98772">
        <ele>47.8</ele>
        <time>2020-06-21T07:21:25Z</time>
      </trkpt>
      <trkpt lat="49.43223" lon="0.98774">
        <ele>47.9</ele>
        <time>2020-06-21T07:21:27Z</time>
      </trkpt>
      <trkpt lat="49.43227" lon="0.98775">
        <ele>47.9</ele>
        <time>2020-06-21T07:21:28Z</time>
      </trkpt>
      <trkpt lat="49.43232" lon="0.98776">
        <ele>49.6</ele>
        <time>2020-06-21T07:21:29Z</time>
      </trkpt>
      <trkpt lat="49.43239" lon="0.98777">
        <ele>50.5</ele>
        <time>2020-06-21T07:21:31Z</time>
      </trkpt>
      <trkpt lat="49.43242" lon="0.98778">
        <ele>51</ele>
        <time>2020-06-21T07:21:32Z</time>
      </trkpt>
      <trkpt lat="49.4325" lon="0.98782">
        <ele>51.5</ele>
        <time>2020-06-21T07:21:34Z</time>
      </trkpt>
      <trkpt lat="49.43258" lon="0.98785">
        <ele>51.7</ele>
        <time>2020-06-21T07:21:36Z</time>
      </trkpt>
      <trkpt lat="49.43268" lon="0.98788">
        <ele>51.9</ele>
        <time>2020-06-21T07:21:38Z</time>
      </trkpt>
      <trkpt lat="49.43276" lon="0.9879">
        <ele>52</ele>
        <time>2020-06-21T07:21:40Z</time>
      </trkpt>
      <trkpt lat="49.43279" lon="0.9879">
        <ele>52.1</ele>
        <time>2020-06-21T07:21:41Z</time>
      </trkpt>
      <trkpt lat="49.43286" lon="0.98792">
        <ele>52.2</ele>
        <time>2020-06-21T07:21:43Z</time>
      </trkpt>
      <trkpt lat="49.43289" lon="0.98793">
        <ele>52.3</ele>
        <time>2020-06-21T07:21:44Z</time>
      </trkpt>
      <trkpt lat="49.43292" lon="0.98794">
        <ele>52.3</ele>
        <time>2020-06-21T07:21:45Z</time>
      </trkpt>
      <trkpt lat="49.43295" lon="0.98795">
        <ele>52.4</ele>
        <time>2020-06-21T07:21:46Z</time>
      </trkpt>
      <trkpt lat="49.433" lon="0.98796">
        <ele>52.6</ele>
        <time>2020-06-21T07:21:48Z</time>
      </trkpt>
      <trkpt lat="49.43302" lon="0.98797">
        <ele>52.7</ele>
        <time>2020-06-21T07:21:49Z</time>
      </trkpt>
      <trkpt lat="49.43304" lon="0.98797">
        <ele>52.8</ele>
        <time>2020-06-21T07:21:50Z</time>
      </trkpt>
      <trkpt lat="49.43309" lon="0.98798">
        <ele>53</ele>
        <time>2020-06-21T07:21:52Z</time>
      </trkpt>
      <trkpt lat="49.43315" lon="0.988">
        <ele>53.3</ele>
        <time>2020-06-21T07:21:54Z</time>
      </trkpt>
      <trkpt lat="49.43323" lon="0.98802">
        <ele>53.7</ele>
        <time>2020-06-21T07:21:56Z</time>
      </trkpt>
      <trkpt lat="49.43326" lon="0.98803">
        <ele>53.8</ele>
        <time>2020-06-21T07:21:57Z</time>
      </trkpt>
      <trkpt lat="49.43328" lon="0.98804">
        <ele>53.9</ele>
        <time>2020-06-21T07:21:58Z</time>
      </trkpt>
      <trkpt lat="49.43334" lon="0.98805">
        <ele>54.2</ele>
        <time>2020-06-21T07:22:00Z</time>
      </trkpt>
      <trkpt lat="49.43337" lon="0.98806">
        <ele>54.4</ele>
        <time>2020-06-21T07:22:02Z</time>
      </trkpt>
      <trkpt lat="49.43341" lon="0.98807">
        <ele>54.7</ele>
        <time>2020-06-21T07:22:04Z</time>
      </trkpt>
      <trkpt lat="49.43343" lon="0.98808">
        <ele>54.7</ele>
        <time>2020-06-21T07:22:05Z</time>
      </trkpt>
      <trkpt lat="49.43347" lon="0.98809">
        <ele>55</ele>
        <time>2020-06-21T07:22:07Z</time>
      </trkpt>
      <trkpt lat="49.43349" lon="0.9881">
        <ele>55.1</ele>
        <time>2020-06-21T07:22:08Z</time>
      </trkpt>
      <trkpt lat="49.43351" lon="0.9881">
        <ele>55.2</ele>
        <time>2020-06-21T07:22:10Z</time>
      </trkpt>
      <trkpt lat="49.43352" lon="0.9881">
        <ele>55.3</ele>
        <time>2020-06-21T07:22:11Z</time>
      </trkpt>
      <trkpt lat="49.43356" lon="0.98812">
        <ele>55.5</ele>
        <time>2020-06-21T07:22:13Z</time>
      </trkpt>
      <trkpt lat="49.4336" lon="0.98813">
        <ele>55.6</ele>
        <time>2020-06-21T07:22:14Z</time>
      </trkpt>
      <trkpt lat="49.43361" lon="0.98814">
        <ele>55.6</ele>
        <time>2020-06-21T07:22:15Z</time>
      </trkpt>
      <trkpt lat="49.43365" lon="0.98815">
        <ele>55.8</ele>
        <time>2020-06-21T07:22:17Z</time>
      </trkpt>
      <trkpt lat="49.4337" lon="0.98816">
        <ele>55.9</ele>
        <time>2020-06-21T07:22:19Z</time>
      </trkpt>
      <trkpt lat="49.43375" lon="0.98818">
        <ele>55.9</ele>
        <time>2020-06-21T07:22:21Z</time>
      </trkpt>
      <trkpt lat="49.4338" lon="0.9882">
        <ele>55.9</ele>
        <time>2020-06-21T07:22:23Z</time>
      </trkpt>
      <trkpt lat="49.43386" lon="0.98821">
        <ele>55.9</ele>
        <time>2020-06-21T07:22:25Z</time>
      </trkpt>
      <trkpt lat="49.43389" lon="0.98821">
        <ele>55.9</ele>
        <time>2020-06-21T07:22:26Z</time>
      </trkpt>
      <trkpt lat="49.43394" lon="0.9882">
        <ele>55.9</ele>
        <time>2020-06-21T07:22:28Z</time>
      </trkpt>
      <trkpt lat="49.434" lon="0.98819">
        <ele>55.8</ele>
        <time>2020-06-21T07:22:30Z</time>
      </trkpt>
      <trkpt lat="49.43404" lon="0.98818">
        <ele>55.7</ele>
        <time>2020-06-21T07:22:31Z</time>
      </trkpt>
      <trkpt lat="49.43412" lon="0.98815">
        <ele>55.6</ele>
        <time>2020-06-21T07:22:33Z</time>
      </trkpt>
      <trkpt lat="49.43415" lon="0.98814">
        <ele>55.5</ele>
        <time>2020-06-21T07:22:34Z</time>
      </trkpt>
      <trkpt lat="49.43421" lon="0.98816">
        <ele>54.9</ele>
        <time>2020-06-21T07:22:36Z</time>
      </trkpt>
      <trkpt lat="49.43424" lon="0.98818">
        <ele>54.9</ele>
        <time>2020-06-21T07:22:37Z</time>
      </trkpt>
      <trkpt lat="49.43429" lon="0.98822">
        <ele>54.9</ele>
        <time>2020-06-21T07:22:39Z</time>
      </trkpt>
      <trkpt lat="49.43433" lon="0.98823">
        <ele>55.2</ele>
        <time>2020-06-21T07:22:40Z</time>
      </trkpt>
      <trkpt lat="49.43436" lon="0.98824">
        <ele>55.4</ele>
        <time>2020-06-21T07:22:41Z</time>
      </trkpt>
      <trkpt lat="49.43439" lon="0.98823">
        <ele>55.5</ele>
        <time>2020-06-21T07:22:42Z</time>
      </trkpt>
      <trkpt lat="49.43445" lon="0.98821">
        <ele>55.7</ele>
        <time>2020-06-21T07:22:44Z</time>
      </trkpt>
      <trkpt lat="49.4345" lon="0.98822">
        <ele>55.7</ele>
        <time>2020-06-21T07:22:45Z</time>
      </trkpt>
      <trkpt lat="49.43456" lon="0.9882">
        <ele>55.8</ele>
        <time>2020-06-21T07:22:47Z</time>
      </trkpt>
      <trkpt lat="49.43459" lon="0.98818">
        <ele>55.8</ele>
        <time>2020-06-21T07:22:48Z</time>
      </trkpt>
      <trkpt lat="49.43463" lon="0.98817">
        <ele>55.8</ele>
        <time>2020-06-21T07:22:49Z</time>
      </trkpt>
      <trkpt lat="49.43466" lon="0.98816">
        <ele>55.9</ele>
        <time>2020-06-21T07:22:50Z</time>
      </trkpt>
      <trkpt lat="49.43471" lon="0.98814">
        <ele>55.9</ele>
        <time>2020-06-21T07:22:52Z</time>
      </trkpt>
      <trkpt lat="49.43473" lon="0.98812">
        <ele>56</ele>
        <time>2020-06-21T07:22:53Z</time>
      </trkpt>
      <trkpt lat="49.43477" lon="0.9881">
        <ele>56</ele>
        <time>2020-06-21T07:22:55Z</time>
      </trkpt>
      <trkpt lat="49.4348" lon="0.98809">
        <ele>56</ele>
        <time>2020-06-21T07:22:56Z</time>
      </trkpt>
      <trkpt lat="49.43483" lon="0.98809">
        <ele>56.1</ele>
        <time>2020-06-21T07:22:57Z</time>
      </trkpt>
      <trkpt lat="49.43486" lon="0.98808">
        <ele>56.1</ele>
        <time>2020-06-21T07:22:58Z</time>
      </trkpt>
      <trkpt lat="49.4349" lon="0.98807">
        <ele>56.1</ele>
        <time>2020-06-21T07:23:00Z</time>
      </trkpt>
      <trkpt lat="49.43494" lon="0.98806">
        <ele>56.2</ele>
        <time>2020-06-21T07:23:01Z</time>
      </trkpt>
      <trkpt lat="49.43498" lon="0.98805">
        <ele>56.2</ele>
        <time>2020-06-21T07:23:02Z</time>
      </trkpt>
      <trkpt lat="49.43503" lon="0.98804">
        <ele>56.3</ele>
        <time>2020-06-21T07:23:04Z</time>
      </trkpt>
      <trkpt lat="49.43508" lon="0.98804">
        <ele>56.4</ele>
        <time>2020-06-21T07:23:06Z</time>
      </trkpt>
      <trkpt lat="49.43511" lon="0.98804">
        <ele>56.4</ele>
        <time>2020-06-21T07:23:07Z</time>
      </trkpt>
      <trkpt lat="49.43514" lon="0.98803">
        <ele>56.5</ele>
        <time>2020-06-21T07:23:08Z</time>
      </trkpt>
      <trkpt lat="49.43517" lon="0.98804">
        <ele>56.5</ele>
        <time>2020-06-21T07:23:10Z</time>
      </trkpt>
      <trkpt lat="49.43521" lon="0.98803">
        <ele>56.6</ele>
        <time>2020-06-21T07:23:11Z</time>
      </trkpt>
      <trkpt lat="49.43524" lon="0.98804">
        <ele>56.6</ele>
        <time>2020-06-21T07:23:12Z</time>
      </trkpt>
      <trkpt lat="49.43527" lon="0.98804">
        <ele>56.7</ele>
        <time>2020-06-21T07:23:13Z</time>
      </trkpt>
      <trkpt lat="49.43532" lon="0.98805">
        <ele>56.7</ele>
        <time>2020-06-21T07:23:14Z</time>
      </trkpt>
      <trkpt lat="49.43535" lon="0.98805">
        <ele>56.8</ele>
        <time>2020-06-21T07:23:16Z</time>
      </trkpt>
      <trkpt lat="49.43538" lon="0.98806">
        <ele>56.8</ele>
        <time>2020-06-21T07:23:17Z</time>
      </trkpt>
      <trkpt lat="49.43542" lon="0.98807">
        <ele>56.9</ele>
        <time>2020-06-21T07:23:19Z</time>
      </trkpt>
      <trkpt lat="49.43546" lon="0.98808">
        <ele>56.9</ele>
        <time>2020-06-21T07:23:20Z</time>
      </trkpt>
      <trkpt lat="49.43547" lon="0.98808">
        <ele>57</ele>
        <time>2020-06-21T07:23:21Z</time>
      </trkpt>
      <trkpt lat="49.4355" lon="0.98809">
        <ele>57</ele>
        <time>2020-06-21T07:23:22Z</time>
      </trkpt>
      <trkpt lat="49.43551" lon="0.9881">
        <ele>57</ele>
        <time>2020-06-21T07:23:23Z</time>
      </trkpt>
      <trkpt lat="49.43556" lon="0.98811">
        <ele>57.1</ele>
        <time>2020-06-21T07:23:25Z</time>
      </trkpt>
      <trkpt lat="49.43559" lon="0.98811">
        <ele>57.2</ele>
        <time>2020-06-21T07:23:26Z</time>
      </trkpt>
      <trkpt lat="49.43562" lon="0.98811">
        <ele>57.2</ele>
        <time>2020-06-21T07:23:27Z</time>
      </trkpt>
      <trkpt lat="49.43567" lon="0.98811">
        <ele>57.3</ele>
        <time>2020-06-21T07:23:28Z</time>
      </trkpt>
      <trkpt lat="49.43572" lon="0.98812">
        <ele>57.4</ele>
        <time>2020-06-21T07:23:30Z</time>
      </trkpt>
      <trkpt lat="49.43575" lon="0.98812">
        <ele>57.4</ele>
        <time>2020-06-21T07:23:31Z</time>
      </trkpt>
      <trkpt lat="49.43579" lon="0.98812">
        <ele>57.5</ele>
        <time>2020-06-21T07:23:33Z</time>
      </trkpt>
      <trkpt lat="49.43583" lon="0.98813">
        <ele>57.6</ele>
        <time>2020-06-21T07:23:34Z</time>
      </trkpt>
      <trkpt lat="49.43586" lon="0.98812">
        <ele>57.6</ele>
        <time>2020-06-21T07:23:35Z</time>
      </trkpt>
      <trkpt lat="49.43589" lon="0.98812">
        <ele>57.7</ele>
        <time>2020-06-21T07:23:36Z</time>
      </trkpt>
      <trkpt lat="49.43595" lon="0.98813">
        <ele>57.8</ele>
        <time>2020-06-21T07:23:38Z</time>
      </trkpt>
      <trkpt lat="49.43599" lon="0.98814">
        <ele>57.9</ele>
        <time>2020-06-21T07:23:39Z</time>
      </trkpt>
      <trkpt lat="49.43603" lon="0.98814">
        <ele>57.9</ele>
        <time>2020-06-21T07:23:40Z</time>
      </trkpt>
      <trkpt lat="49.43606" lon="0.98814">
        <ele>58</ele>
        <time>2020-06-21T07:23:42Z</time>
      </trkpt>
      <trkpt lat="49.43611" lon="0.98813">
        <ele>58</ele>
        <time>2020-06-21T07:23:43Z</time>
      </trkpt>
      <trkpt lat="49.43617" lon="0.98811">
        <ele>58.2</ele>
        <time>2020-06-21T07:23:45Z</time>
      </trkpt>
      <trkpt lat="49.4362" lon="0.9881">
        <ele>58.2</ele>
        <time>2020-06-21T07:23:46Z</time>
      </trkpt>
      <trkpt lat="49.43623" lon="0.9881">
        <ele>58.3</ele>
        <time>2020-06-21T07:23:47Z</time>
      </trkpt>
      <trkpt lat="49.43626" lon="0.98808">
        <ele>58.4</ele>
        <time>2020-06-21T07:23:48Z</time>
      </trkpt>
      <trkpt lat="49.43627" lon="0.98807">
        <ele>58.4</ele>
        <time>2020-06-21T07:23:49Z</time>
      </trkpt>
      <trkpt lat="49.4363" lon="0.98805">
        <ele>58.4</ele>
        <time>2020-06-21T07:23:50Z</time>
      </trkpt>
      <trkpt lat="49.43633" lon="0.98804">
        <ele>58.5</ele>
        <time>2020-06-21T07:23:52Z</time>
      </trkpt>
      <trkpt lat="49.43636" lon="0.98801">
        <ele>58.5</ele>
        <time>2020-06-21T07:23:53Z</time>
      </trkpt>
      <trkpt lat="49.4364" lon="0.98798">
        <ele>58.6</ele>
        <time>2020-06-21T07:23:55Z</time>
      </trkpt>
      <trkpt lat="49.43644" lon="0.98795">
        <ele>58.6</ele>
        <time>2020-06-21T07:23:56Z</time>
      </trkpt>
      <trkpt lat="49.4365" lon="0.98792">
        <ele>58.7</ele>
        <time>2020-06-21T07:23:58Z</time>
      </trkpt>
      <trkpt lat="49.43654" lon="0.9879">
        <ele>58.8</ele>
        <time>2020-06-21T07:23:59Z</time>
      </trkpt>
      <trkpt lat="49.43657" lon="0.98788">
        <ele>58.9</ele>
        <time>2020-06-21T07:24:00Z</time>
      </trkpt>
      <trkpt lat="49.43663" lon="0.98785">
        <ele>59</ele>
        <time>2020-06-21T07:24:01Z</time>
      </trkpt>
      <trkpt lat="49.43667" lon="0.98782">
        <ele>59</ele>
        <time>2020-06-21T07:24:03Z</time>
      </trkpt>
      <trkpt lat="49.43672" lon="0.9878">
        <ele>59.1</ele>
        <time>2020-06-21T07:24:04Z</time>
      </trkpt>
      <trkpt lat="49.43676" lon="0.98777">
        <ele>59.1</ele>
        <time>2020-06-21T07:24:05Z</time>
      </trkpt>
      <trkpt lat="49.43682" lon="0.98775">
        <ele>59.2</ele>
        <time>2020-06-21T07:24:07Z</time>
      </trkpt>
      <trkpt lat="49.43687" lon="0.98773">
        <ele>59.2</ele>
        <time>2020-06-21T07:24:08Z</time>
      </trkpt>
      <trkpt lat="49.43691" lon="0.98771">
        <ele>59.2</ele>
        <time>2020-06-21T07:24:09Z</time>
      </trkpt>
      <trkpt lat="49.43695" lon="0.98768">
        <ele>59.3</ele>
        <time>2020-06-21T07:24:10Z</time>
      </trkpt>
      <trkpt lat="49.43701" lon="0.98764">
        <ele>59.3</ele>
        <time>2020-06-21T07:24:12Z</time>
      </trkpt>
      <trkpt lat="49.43705" lon="0.98761">
        <ele>59.4</ele>
        <time>2020-06-21T07:24:13Z</time>
      </trkpt>
      <trkpt lat="49.43708" lon="0.98759">
        <ele>59.5</ele>
        <time>2020-06-21T07:24:14Z</time>
      </trkpt>
      <trkpt lat="49.43712" lon="0.98756">
        <ele>59.5</ele>
        <time>2020-06-21T07:24:16Z</time>
      </trkpt>
      <trkpt lat="49.43717" lon="0.98752">
        <ele>59.6</ele>
        <time>2020-06-21T07:24:18Z</time>
      </trkpt>
      <trkpt lat="49.4372" lon="0.98749">
        <ele>59.6</ele>
        <time>2020-06-21T07:24:19Z</time>
      </trkpt>
      <trkpt lat="49.43725" lon="0.98746">
        <ele>59.7</ele>
        <time>2020-06-21T07:24:21Z</time>
      </trkpt>
      <trkpt lat="49.43729" lon="0.98744">
        <ele>59.7</ele>
        <time>2020-06-21T07:24:22Z</time>
      </trkpt>
      <trkpt lat="49.43732" lon="0.98742">
        <ele>59.8</ele>
        <time>2020-06-21T07:24:23Z</time>
      </trkpt>
      <trkpt lat="49.43739" lon="0.98738">
        <ele>59.9</ele>
        <time>2020-06-21T07:24:25Z</time>
      </trkpt>
      <trkpt lat="49.43743" lon="0.98735">
        <ele>59.9</ele>
        <time>2020-06-21T07:24:26Z</time>
      </trkpt>
      <trkpt lat="49.43747" lon="0.98732">
        <ele>60</ele>
        <time>2020-06-21T07:24:28Z</time>
      </trkpt>
      <trkpt lat="49.43752" lon="0.98727">
        <ele>60.1</ele>
        <time>2020-06-21T07:24:29Z</time>
      </trkpt>
      <trkpt lat="49.43758" lon="0.98724">
        <ele>60.1</ele>
        <time>2020-06-21T07:24:31Z</time>
      </trkpt>
      <trkpt lat="49.43763" lon="0.98721">
        <ele>60.2</ele>
        <time>2020-06-21T07:24:32Z</time>
      </trkpt>
      <trkpt lat="49.4377" lon="0.98717">
        <ele>60.3</ele>
        <time>2020-06-21T07:24:34Z</time>
      </trkpt>
      <trkpt lat="49.43775" lon="0.98714">
        <ele>60.4</ele>
        <time>2020-06-21T07:24:35Z</time>
      </trkpt>
      <trkpt lat="49.43779" lon="0.98712">
        <ele>60.5</ele>
        <time>2020-06-21T07:24:36Z</time>
      </trkpt>
      <trkpt lat="49.43785" lon="0.98709">
        <ele>60.6</ele>
        <time>2020-06-21T07:24:38Z</time>
      </trkpt>
      <trkpt lat="49.4379" lon="0.98707">
        <ele>60.7</ele>
        <time>2020-06-21T07:24:39Z</time>
      </trkpt>
      <trkpt lat="49.43796" lon="0.98706">
        <ele>60.8</ele>
        <time>2020-06-21T07:24:40Z</time>
      </trkpt>
      <trkpt lat="49.43801" lon="0.98705">
        <ele>60.8</ele>
        <time>2020-06-21T07:24:42Z</time>
      </trkpt>
      <trkpt lat="49.43807" lon="0.98704">
        <ele>60.8</ele>
        <time>2020-06-21T07:24:43Z</time>
      </trkpt>
      <trkpt lat="49.43813" lon="0.98704">
        <ele>60.9</ele>
        <time>2020-06-21T07:24:45Z</time>
      </trkpt>
      <trkpt lat="49.43818" lon="0.98705">
        <ele>61</ele>
        <time>2020-06-21T07:24:46Z</time>
      </trkpt>
      <trkpt lat="49.43825" lon="0.98705">
        <ele>61.1</ele>
        <time>2020-06-21T07:24:48Z</time>
      </trkpt>
      <trkpt lat="49.4383" lon="0.98706">
        <ele>61.2</ele>
        <time>2020-06-21T07:24:49Z</time>
      </trkpt>
      <trkpt lat="49.43833" lon="0.98706">
        <ele>61.3</ele>
        <time>2020-06-21T07:24:50Z</time>
      </trkpt>
      <trkpt lat="49.4384" lon="0.98709">
        <ele>61.4</ele>
        <time>2020-06-21T07:24:52Z</time>
      </trkpt>
      <trkpt lat="49.43845" lon="0.9871">
        <ele>61.4</ele>
        <time>2020-06-21T07:24:53Z</time>
      </trkpt>
      <trkpt lat="49.4385" lon="0.98712">
        <ele>61.5</ele>
        <time>2020-06-21T07:24:55Z</time>
      </trkpt>
      <trkpt lat="49.43854" lon="0.98714">
        <ele>61.5</ele>
        <time>2020-06-21T07:24:56Z</time>
      </trkpt>
      <trkpt lat="49.43857" lon="0.98716">
        <ele>61.5</ele>
        <time>2020-06-21T07:24:57Z</time>
      </trkpt>
      <trkpt lat="49.43861" lon="0.98719">
        <ele>61.5</ele>
        <time>2020-06-21T07:24:58Z</time>
      </trkpt>
      <trkpt lat="49.43866" lon="0.98722">
        <ele>61.6</ele>
        <time>2020-06-21T07:25:00Z</time>
      </trkpt>
      <trkpt lat="49.43869" lon="0.98725">
        <ele>61.6</ele>
        <time>2020-06-21T07:25:01Z</time>
      </trkpt>
      <trkpt lat="49.43872" lon="0.98727">
        <ele>61.7</ele>
        <time>2020-06-21T07:25:02Z</time>
      </trkpt>
      <trkpt lat="49.43877" lon="0.98731">
        <ele>61.8</ele>
        <time>2020-06-21T07:25:04Z</time>
      </trkpt>
      <trkpt lat="49.43882" lon="0.98733">
        <ele>61.8</ele>
        <time>2020-06-21T07:25:05Z</time>
      </trkpt>
      <trkpt lat="49.43885" lon="0.98735">
        <ele>61.9</ele>
        <time>2020-06-21T07:25:06Z</time>
      </trkpt>
      <trkpt lat="49.43888" lon="0.98739">
        <ele>61.9</ele>
        <time>2020-06-21T07:25:07Z</time>
      </trkpt>
      <trkpt lat="49.43892" lon="0.98741">
        <ele>62</ele>
        <time>2020-06-21T07:25:09Z</time>
      </trkpt>
      <trkpt lat="49.43895" lon="0.98744">
        <ele>62</ele>
        <time>2020-06-21T07:25:10Z</time>
      </trkpt>
      <trkpt lat="49.43898" lon="0.98747">
        <ele>62.1</ele>
        <time>2020-06-21T07:25:11Z</time>
      </trkpt>
      <trkpt lat="49.43901" lon="0.9875">
        <ele>62.1</ele>
        <time>2020-06-21T07:25:12Z</time>
      </trkpt>
      <trkpt lat="49.43905" lon="0.98753">
        <ele>62.2</ele>
        <time>2020-06-21T07:25:14Z</time>
      </trkpt>
      <trkpt lat="49.43909" lon="0.98757">
        <ele>62.2</ele>
        <time>2020-06-21T07:25:15Z</time>
      </trkpt>
      <trkpt lat="49.43913" lon="0.98761">
        <ele>62.3</ele>
        <time>2020-06-21T07:25:17Z</time>
      </trkpt>
      <trkpt lat="49.43916" lon="0.98764">
        <ele>62.3</ele>
        <time>2020-06-21T07:25:18Z</time>
      </trkpt>
      <trkpt lat="49.4392" lon="0.98768">
        <ele>62.4</ele>
        <time>2020-06-21T07:25:20Z</time>
      </trkpt>
      <trkpt lat="49.43925" lon="0.98772">
        <ele>62.5</ele>
        <time>2020-06-21T07:25:21Z</time>
      </trkpt>
      <trkpt lat="49.4393" lon="0.98777">
        <ele>62.6</ele>
        <time>2020-06-21T07:25:23Z</time>
      </trkpt>
      <trkpt lat="49.43936" lon="0.98779">
        <ele>62.7</ele>
        <time>2020-06-21T07:25:24Z</time>
      </trkpt>
      <trkpt lat="49.43942" lon="0.9878">
        <ele>62.9</ele>
        <time>2020-06-21T07:25:25Z</time>
      </trkpt>
      <trkpt lat="49.4395" lon="0.98782">
        <ele>63</ele>
        <time>2020-06-21T07:25:27Z</time>
      </trkpt>
      <trkpt lat="49.43955" lon="0.98784">
        <ele>63.1</ele>
        <time>2020-06-21T07:25:28Z</time>
      </trkpt>
      <trkpt lat="49.43961" lon="0.98787">
        <ele>63.1</ele>
        <time>2020-06-21T07:25:29Z</time>
      </trkpt>
      <trkpt lat="49.43965" lon="0.9879">
        <ele>63.2</ele>
        <time>2020-06-21T07:25:31Z</time>
      </trkpt>
      <trkpt lat="49.43968" lon="0.98792">
        <ele>63.2</ele>
        <time>2020-06-21T07:25:32Z</time>
      </trkpt>
      <trkpt lat="49.43971" lon="0.98795">
        <ele>63.3</ele>
        <time>2020-06-21T07:25:33Z</time>
      </trkpt>
      <trkpt lat="49.43974" lon="0.98797">
        <ele>63.3</ele>
        <time>2020-06-21T07:25:34Z</time>
      </trkpt>
      <trkpt lat="49.43979" lon="0.98802">
        <ele>63.4</ele>
        <time>2020-06-21T07:25:35Z</time>
      </trkpt>
      <trkpt lat="49.43983" lon="0.98804">
        <ele>63.4</ele>
        <time>2020-06-21T07:25:36Z</time>
      </trkpt>
      <trkpt lat="49.43987" lon="0.98807">
        <ele>63.5</ele>
        <time>2020-06-21T07:25:37Z</time>
      </trkpt>
      <trkpt lat="49.43992" lon="0.9881">
        <ele>63.6</ele>
        <time>2020-06-21T07:25:39Z</time>
      </trkpt>
      <trkpt lat="49.43998" lon="0.98813">
        <ele>63.7</ele>
        <time>2020-06-21T07:25:40Z</time>
      </trkpt>
      <trkpt lat="49.44004" lon="0.98816">
        <ele>63.8</ele>
        <time>2020-06-21T07:25:41Z</time>
      </trkpt>
      <trkpt lat="49.44007" lon="0.98817">
        <ele>63.8</ele>
        <time>2020-06-21T07:25:43Z</time>
      </trkpt>
      <trkpt lat="49.44011" lon="0.98819">
        <ele>63.9</ele>
        <time>2020-06-21T07:25:44Z</time>
      </trkpt>
      <trkpt lat="49.44013" lon="0.98822">
        <ele>63.9</ele>
        <time>2020-06-21T07:25:45Z</time>
      </trkpt>
      <trkpt lat="49.44019" lon="0.98827">
        <ele>64</ele>
        <time>2020-06-21T07:25:47Z</time>
      </trkpt>
      <trkpt lat="49.44022" lon="0.98829">
        <ele>64</ele>
        <time>2020-06-21T07:25:48Z</time>
      </trkpt>
      <trkpt lat="49.44026" lon="0.98832">
        <ele>64.1</ele>
        <time>2020-06-21T07:25:49Z</time>
      </trkpt>
      <trkpt lat="49.44029" lon="0.98835">
        <ele>64.2</ele>
        <time>2020-06-21T07:25:50Z</time>
      </trkpt>
      <trkpt lat="49.44035" lon="0.98836">
        <ele>64.2</ele>
        <time>2020-06-21T07:25:52Z</time>
      </trkpt>
      <trkpt lat="49.44038" lon="0.98837">
        <ele>64.3</ele>
        <time>2020-06-21T07:25:53Z</time>
      </trkpt>
      <trkpt lat="49.44042" lon="0.98838">
        <ele>64.4</ele>
        <time>2020-06-21T07:25:54Z</time>
      </trkpt>
      <trkpt lat="49.44043" lon="0.98838">
        <ele>64.4</ele>
        <time>2020-06-21T07:25:55Z</time>
      </trkpt>
      <trkpt lat="49.44048" lon="0.9884">
        <ele>64.5</ele>
        <time>2020-06-21T07:25:57Z</time>
      </trkpt>
      <trkpt lat="49.44051" lon="0.98841">
        <ele>64.5</ele>
        <time>2020-06-21T07:25:58Z</time>
      </trkpt>
      <trkpt lat="49.44055" lon="0.98843">
        <ele>64.5</ele>
        <time>2020-06-21T07:25:59Z</time>
      </trkpt>
      <trkpt lat="49.4406" lon="0.98845">
        <ele>64.6</ele>
        <time>2020-06-21T07:26:00Z</time>
      </trkpt>
      <trkpt lat="49.44064" lon="0.98847">
        <ele>64.7</ele>
        <time>2020-06-21T07:26:01Z</time>
      </trkpt>
      <trkpt lat="49.44068" lon="0.98849">
        <ele>64.8</ele>
        <time>2020-06-21T07:26:03Z</time>
      </trkpt>
      <trkpt lat="49.44073" lon="0.9885">
        <ele>64.9</ele>
        <time>2020-06-21T07:26:04Z</time>
      </trkpt>
      <trkpt lat="49.44078" lon="0.98851">
        <ele>65</ele>
        <time>2020-06-21T07:26:05Z</time>
      </trkpt>
      <trkpt lat="49.44082" lon="0.98854">
        <ele>65.1</ele>
        <time>2020-06-21T07:26:06Z</time>
      </trkpt>
      <trkpt lat="49.44087" lon="0.98856">
        <ele>65.2</ele>
        <time>2020-06-21T07:26:08Z</time>
      </trkpt>
      <trkpt lat="49.44091" lon="0.98858">
        <ele>65.2</ele>
        <time>2020-06-21T07:26:09Z</time>
      </trkpt>
      <trkpt lat="49.44095" lon="0.9886">
        <ele>65.3</ele>
        <time>2020-06-21T07:26:10Z</time>
      </trkpt>
      <trkpt lat="49.44101" lon="0.98863">
        <ele>65.4</ele>
        <time>2020-06-21T07:26:11Z</time>
      </trkpt>
      <trkpt lat="49.44105" lon="0.98866">
        <ele>65.5</ele>
        <time>2020-06-21T07:26:13Z</time>
      </trkpt>
      <trkpt lat="49.44108" lon="0.9887">
        <ele>65.6</ele>
        <time>2020-06-21T07:26:14Z</time>
      </trkpt>
      <trkpt lat="49.44113" lon="0.98875">
        <ele>65.7</ele>
        <time>2020-06-21T07:26:15Z</time>
      </trkpt>
      <trkpt lat="49.44119" lon="0.98879">
        <ele>65.7</ele>
        <time>2020-06-21T07:26:16Z</time>
      </trkpt>
      <trkpt lat="49.44123" lon="0.98881">
        <ele>65.8</ele>
        <time>2020-06-21T07:26:17Z</time>
      </trkpt>
      <trkpt lat="49.44128" lon="0.98883">
        <ele>65.9</ele>
        <time>2020-06-21T07:26:18Z</time>
      </trkpt>
      <trkpt lat="49.44133" lon="0.98884">
        <ele>65.9</ele>
        <time>2020-06-21T07:26:20Z</time>
      </trkpt>
      <trkpt lat="49.44137" lon="0.98885">
        <ele>66</ele>
        <time>2020-06-21T07:26:21Z</time>
      </trkpt>
      <trkpt lat="49.44143" lon="0.98886">
        <ele>66.1</ele>
        <time>2020-06-21T07:26:23Z</time>
      </trkpt>
      <trkpt lat="49.44146" lon="0.98887">
        <ele>66.2</ele>
        <time>2020-06-21T07:26:24Z</time>
      </trkpt>
      <trkpt lat="49.4415" lon="0.98889">
        <ele>66.2</ele>
        <time>2020-06-21T07:26:25Z</time>
      </trkpt>
      <trkpt lat="49.44154" lon="0.9889">
        <ele>66.3</ele>
        <time>2020-06-21T07:26:27Z</time>
      </trkpt>
      <trkpt lat="49.44157" lon="0.98891">
        <ele>66.4</ele>
        <time>2020-06-21T07:26:28Z</time>
      </trkpt>
      <trkpt lat="49.44161" lon="0.98892">
        <ele>66.5</ele>
        <time>2020-06-21T07:26:30Z</time>
      </trkpt>
      <trkpt lat="49.44163" lon="0.98892">
        <ele>66.5</ele>
        <time>2020-06-21T07:26:31Z</time>
      </trkpt>
      <trkpt lat="49.44164" lon="0.98893">
        <ele>66.5</ele>
        <time>2020-06-21T07:26:32Z</time>
      </trkpt>
      <trkpt lat="49.44166" lon="0.98894">
        <ele>66.5</ele>
        <time>2020-06-21T07:26:33Z</time>
      </trkpt>
      <trkpt lat="49.44168" lon="0.98894">
        <ele>66.6</ele>
        <time>2020-06-21T07:26:35Z</time>
      </trkpt>
      <trkpt lat="49.44171" lon="0.98895">
        <ele>66.6</ele>
        <time>2020-06-21T07:26:36Z</time>
      </trkpt>
      <trkpt lat="49.44172" lon="0.98895">
        <ele>66.7</ele>
        <time>2020-06-21T07:26:37Z</time>
      </trkpt>
      <trkpt lat="49.44175" lon="0.98894">
        <ele>66.7</ele>
        <time>2020-06-21T07:26:38Z</time>
      </trkpt>
      <trkpt lat="49.44179" lon="0.98894">
        <ele>66.8</ele>
        <time>2020-06-21T07:26:40Z</time>
      </trkpt>
      <trkpt lat="49.44182" lon="0.98893">
        <ele>66.8</ele>
        <time>2020-06-21T07:26:41Z</time>
      </trkpt>
      <trkpt lat="49.44185" lon="0.98892">
        <ele>66.9</ele>
        <time>2020-06-21T07:26:43Z</time>
      </trkpt>
      <trkpt lat="49.44188" lon="0.98891">
        <ele>66.9</ele>
        <time>2020-06-21T07:26:44Z</time>
      </trkpt>
      <trkpt lat="49.44196" lon="0.98887">
        <ele>67</ele>
        <time>2020-06-21T07:26:45Z</time>
      </trkpt>
      <trkpt lat="49.44208" lon="0.9888">
        <ele>67.2</ele>
        <time>2020-06-21T07:26:47Z</time>
      </trkpt>
      <trkpt lat="49.44218" lon="0.98875">
        <ele>67.4</ele>
        <time>2020-06-21T07:26:48Z</time>
      </trkpt>
      <trkpt lat="49.44227" lon="0.9887">
        <ele>67.5</ele>
        <time>2020-06-21T07:26:50Z</time>
      </trkpt>
      <trkpt lat="49.44231" lon="0.98869">
        <ele>67.5</ele>
        <time>2020-06-21T07:26:51Z</time>
      </trkpt>
      <trkpt lat="49.44238" lon="0.98865">
        <ele>67.6</ele>
        <time>2020-06-21T07:26:52Z</time>
      </trkpt>
      <trkpt lat="49.44243" lon="0.98862">
        <ele>67.6</ele>
        <time>2020-06-21T07:26:54Z</time>
      </trkpt>
      <trkpt lat="49.44247" lon="0.98858">
        <ele>67.7</ele>
        <time>2020-06-21T07:26:55Z</time>
      </trkpt>
      <trkpt lat="49.4425" lon="0.98855">
        <ele>67.7</ele>
        <time>2020-06-21T07:26:56Z</time>
      </trkpt>
      <trkpt lat="49.44253" lon="0.98851">
        <ele>67.8</ele>
        <time>2020-06-21T07:26:57Z</time>
      </trkpt>
      <trkpt lat="49.44254" lon="0.9885">
        <ele>67.8</ele>
        <time>2020-06-21T07:26:59Z</time>
      </trkpt>
      <trkpt lat="49.44255" lon="0.98849">
        <ele>67.8</ele>
        <time>2020-06-21T07:27:00Z</time>
      </trkpt>
      <trkpt lat="49.44257" lon="0.98848">
        <ele>67.8</ele>
        <time>2020-06-21T07:27:01Z</time>
      </trkpt>
      <trkpt lat="49.44258" lon="0.98847">
        <ele>67.9</ele>
        <time>2020-06-21T07:27:02Z</time>
      </trkpt>
      <trkpt lat="49.44261" lon="0.98846">
        <ele>67.9</ele>
        <time>2020-06-21T07:27:04Z</time>
      </trkpt>
      <trkpt lat="49.44264" lon="0.98845">
        <ele>68</ele>
        <time>2020-06-21T07:27:05Z</time>
      </trkpt>
      <trkpt lat="49.44268" lon="0.98846">
        <ele>68.1</ele>
        <time>2020-06-21T07:27:07Z</time>
      </trkpt>
      <trkpt lat="49.44272" lon="0.98847">
        <ele>68.2</ele>
        <time>2020-06-21T07:27:08Z</time>
      </trkpt>
      <trkpt lat="49.44275" lon="0.98849">
        <ele>68.3</ele>
        <time>2020-06-21T07:27:09Z</time>
      </trkpt>
      <trkpt lat="49.44285" lon="0.98854">
        <ele>68.6</ele>
        <time>2020-06-21T07:27:10Z</time>
      </trkpt>
      <trkpt lat="49.44292" lon="0.98859">
        <ele>69.1</ele>
        <time>2020-06-21T07:27:12Z</time>
      </trkpt>
      <trkpt lat="49.44297" lon="0.98862">
        <ele>69.3</ele>
        <time>2020-06-21T07:27:13Z</time>
      </trkpt>
      <trkpt lat="49.44301" lon="0.98865">
        <ele>69.5</ele>
        <time>2020-06-21T07:27:14Z</time>
      </trkpt>
      <trkpt lat="49.44306" lon="0.9887">
        <ele>69.8</ele>
        <time>2020-06-21T07:27:16Z</time>
      </trkpt>
      <trkpt lat="49.44308" lon="0.98875">
        <ele>70</ele>
        <time>2020-06-21T07:27:17Z</time>
      </trkpt>
      <trkpt lat="49.44312" lon="0.9888">
        <ele>70.2</ele>
        <time>2020-06-21T07:27:19Z</time>
      </trkpt>
      <trkpt lat="49.44313" lon="0.98882">
        <ele>70.3</ele>
        <time>2020-06-21T07:27:20Z</time>
      </trkpt>
      <trkpt lat="49.44314" lon="0.98884">
        <ele>70.4</ele>
        <time>2020-06-21T07:27:21Z</time>
      </trkpt>
      <trkpt lat="49.44317" lon="0.98887">
        <ele>70.6</ele>
        <time>2020-06-21T07:27:22Z</time>
      </trkpt>
      <trkpt lat="49.44319" lon="0.98892">
        <ele>70.8</ele>
        <time>2020-06-21T07:27:23Z</time>
      </trkpt>
      <trkpt lat="49.44321" lon="0.98896">
        <ele>71</ele>
        <time>2020-06-21T07:27:25Z</time>
      </trkpt>
      <trkpt lat="49.44323" lon="0.989">
        <ele>71.2</ele>
        <time>2020-06-21T07:27:26Z</time>
      </trkpt>
      <trkpt lat="49.44325" lon="0.98905">
        <ele>71.4</ele>
        <time>2020-06-21T07:27:27Z</time>
      </trkpt>
      <trkpt lat="49.44328" lon="0.98911">
        <ele>71.6</ele>
        <time>2020-06-21T07:27:28Z</time>
      </trkpt>
      <trkpt lat="49.44332" lon="0.98916">
        <ele>71.9</ele>
        <time>2020-06-21T07:27:29Z</time>
      </trkpt>
      <trkpt lat="49.44337" lon="0.9892">
        <ele>72.2</ele>
        <time>2020-06-21T07:27:31Z</time>
      </trkpt>
      <trkpt lat="49.44342" lon="0.98924">
        <ele>72.5</ele>
        <time>2020-06-21T07:27:32Z</time>
      </trkpt>
      <trkpt lat="49.44347" lon="0.98928">
        <ele>72.8</ele>
        <time>2020-06-21T07:27:33Z</time>
      </trkpt>
      <trkpt lat="49.44352" lon="0.9893">
        <ele>73.1</ele>
        <time>2020-06-21T07:27:34Z</time>
      </trkpt>
      <trkpt lat="49.44355" lon="0.98933">
        <ele>73.2</ele>
        <time>2020-06-21T07:27:35Z</time>
      </trkpt>
      <trkpt lat="49.44359" lon="0.98936">
        <ele>73.5</ele>
        <time>2020-06-21T07:27:36Z</time>
      </trkpt>
      <trkpt lat="49.44362" lon="0.98938">
        <ele>73.6</ele>
        <time>2020-06-21T07:27:37Z</time>
      </trkpt>
      <trkpt lat="49.44365" lon="0.98942">
        <ele>73.9</ele>
        <time>2020-06-21T07:27:39Z</time>
      </trkpt>
      <trkpt lat="49.44367" lon="0.98944">
        <ele>74</ele>
        <time>2020-06-21T07:27:40Z</time>
      </trkpt>
      <trkpt lat="49.44369" lon="0.98948">
        <ele>74.2</ele>
        <time>2020-06-21T07:27:41Z</time>
      </trkpt>
      <trkpt lat="49.44372" lon="0.98953">
        <ele>74.4</ele>
        <time>2020-06-21T07:27:43Z</time>
      </trkpt>
      <trkpt lat="49.44375" lon="0.98957">
        <ele>74.6</ele>
        <time>2020-06-21T07:27:44Z</time>
      </trkpt>
      <trkpt lat="49.44377" lon="0.9896">
        <ele>74.7</ele>
        <time>2020-06-21T07:27:46Z</time>
      </trkpt>
      <trkpt lat="49.4438" lon="0.98964">
        <ele>75</ele>
        <time>2020-06-21T07:27:47Z</time>
      </trkpt>
      <trkpt lat="49.44382" lon="0.98968">
        <ele>75.1</ele>
        <time>2020-06-21T07:27:48Z</time>
      </trkpt>
      <trkpt lat="49.44386" lon="0.98974">
        <ele>75.4</ele>
        <time>2020-06-21T07:27:50Z</time>
      </trkpt>
      <trkpt lat="49.44387" lon="0.98977">
        <ele>75.5</ele>
        <time>2020-06-21T07:27:52Z</time>
      </trkpt>
      <trkpt lat="49.44388" lon="0.9898">
        <ele>75.6</ele>
        <time>2020-06-21T07:27:53Z</time>
      </trkpt>
      <trkpt lat="49.4439" lon="0.98982">
        <ele>75.7</ele>
        <time>2020-06-21T07:27:54Z</time>
      </trkpt>
      <trkpt lat="49.44391" lon="0.98985">
        <ele>75.8</ele>
        <time>2020-06-21T07:27:55Z</time>
      </trkpt>
      <trkpt lat="49.44393" lon="0.9899">
        <ele>76</ele>
        <time>2020-06-21T07:27:57Z</time>
      </trkpt>
      <trkpt lat="49.44395" lon="0.98994">
        <ele>76.1</ele>
        <time>2020-06-21T07:27:58Z</time>
      </trkpt>
      <trkpt lat="49.44396" lon="0.98997">
        <ele>76.2</ele>
        <time>2020-06-21T07:27:59Z</time>
      </trkpt>
      <trkpt lat="49.44398" lon="0.99">
        <ele>76.3</ele>
        <time>2020-06-21T07:28:01Z</time>
      </trkpt>
      <trkpt lat="49.444" lon="0.99003">
        <ele>76.4</ele>
        <time>2020-06-21T07:28:02Z</time>
      </trkpt>
      <trkpt lat="49.44402" lon="0.99008">
        <ele>76.5</ele>
        <time>2020-06-21T07:28:03Z</time>
      </trkpt>
      <trkpt lat="49.44403" lon="0.99011">
        <ele>76.6</ele>
        <time>2020-06-21T07:28:04Z</time>
      </trkpt>
      <trkpt lat="49.44405" lon="0.99015">
        <ele>76.7</ele>
        <time>2020-06-21T07:28:06Z</time>
      </trkpt>
      <trkpt lat="49.44406" lon="0.99017">
        <ele>76.8</ele>
        <time>2020-06-21T07:28:07Z</time>
      </trkpt>
      <trkpt lat="49.44409" lon="0.99022">
        <ele>76.9</ele>
        <time>2020-06-21T07:28:09Z</time>
      </trkpt>
      <trkpt lat="49.44411" lon="0.99025">
        <ele>77</ele>
        <time>2020-06-21T07:28:10Z</time>
      </trkpt>
      <trkpt lat="49.44414" lon="0.9903">
        <ele>77.1</ele>
        <time>2020-06-21T07:28:12Z</time>
      </trkpt>
      <trkpt lat="49.44416" lon="0.99033">
        <ele>77.2</ele>
        <time>2020-06-21T07:28:13Z</time>
      </trkpt>
      <trkpt lat="49.44417" lon="0.99035">
        <ele>77.3</ele>
        <time>2020-06-21T07:28:14Z</time>
      </trkpt>
      <trkpt lat="49.4442" lon="0.9904">
        <ele>77.4</ele>
        <time>2020-06-21T07:28:15Z</time>
      </trkpt>
      <trkpt lat="49.4442" lon="0.99042">
        <ele>77.4</ele>
        <time>2020-06-21T07:28:16Z</time>
      </trkpt>
      <trkpt lat="49.44423" lon="0.99046">
        <ele>77.5</ele>
        <time>2020-06-21T07:28:18Z</time>
      </trkpt>
      <trkpt lat="49.44425" lon="0.99051">
        <ele>77.6</ele>
        <time>2020-06-21T07:28:19Z</time>
      </trkpt>
      <trkpt lat="49.44426" lon="0.99054">
        <ele>77.7</ele>
        <time>2020-06-21T07:28:20Z</time>
      </trkpt>
      <trkpt lat="49.44429" lon="0.99059">
        <ele>77.8</ele>
        <time>2020-06-21T07:28:22Z</time>
      </trkpt>
      <trkpt lat="49.4443" lon="0.99063">
        <ele>77.9</ele>
        <time>2020-06-21T07:28:23Z</time>
      </trkpt>
      <trkpt lat="49.44433" lon="0.99068">
        <ele>78</ele>
        <time>2020-06-21T07:28:24Z</time>
      </trkpt>
      <trkpt lat="49.44435" lon="0.99073">
        <ele>78.1</ele>
        <time>2020-06-21T07:28:26Z</time>
      </trkpt>
      <trkpt lat="49.44437" lon="0.99077">
        <ele>78.1</ele>
        <time>2020-06-21T07:28:27Z</time>
      </trkpt>
      <trkpt lat="49.44442" lon="0.99084">
        <ele>78.3</ele>
        <time>2020-06-21T07:28:28Z</time>
      </trkpt>
      <trkpt lat="49.44449" lon="0.99093">
        <ele>78.4</ele>
        <time>2020-06-21T07:28:30Z</time>
      </trkpt>
      <trkpt lat="49.44452" lon="0.99098">
        <ele>78.5</ele>
        <time>2020-06-21T07:28:31Z</time>
      </trkpt>
      <trkpt lat="49.44456" lon="0.99104">
        <ele>78.6</ele>
        <time>2020-06-21T07:28:33Z</time>
      </trkpt>
      <trkpt lat="49.4446" lon="0.99107">
        <ele>78.7</ele>
        <time>2020-06-21T07:28:34Z</time>
      </trkpt>
      <trkpt lat="49.44465" lon="0.9911">
        <ele>78.8</ele>
        <time>2020-06-21T07:28:35Z</time>
      </trkpt>
      <trkpt lat="49.44468" lon="0.99113">
        <ele>78.8</ele>
        <time>2020-06-21T07:28:36Z</time>
      </trkpt>
      <trkpt lat="49.44472" lon="0.99117">
        <ele>78.9</ele>
        <time>2020-06-21T07:28:38Z</time>
      </trkpt>
      <trkpt lat="49.44477" lon="0.9912">
        <ele>79</ele>
        <time>2020-06-21T07:28:40Z</time>
      </trkpt>
      <trkpt lat="49.44479" lon="0.99123">
        <ele>79</ele>
        <time>2020-06-21T07:28:41Z</time>
      </trkpt>
      <trkpt lat="49.44481" lon="0.99127">
        <ele>78.7</ele>
        <time>2020-06-21T07:28:43Z</time>
      </trkpt>
      <trkpt lat="49.44483" lon="0.9913">
        <ele>78.6</ele>
        <time>2020-06-21T07:28:44Z</time>
      </trkpt>
      <trkpt lat="49.44486" lon="0.99137">
        <ele>78.2</ele>
        <time>2020-06-21T07:28:46Z</time>
      </trkpt>
      <trkpt lat="49.44487" lon="0.9914">
        <ele>78</ele>
        <time>2020-06-21T07:28:47Z</time>
      </trkpt>
      <trkpt lat="49.44486" lon="0.99144">
        <ele>77.8</ele>
        <time>2020-06-21T07:28:49Z</time>
      </trkpt>
      <trkpt lat="49.44485" lon="0.99144">
        <ele>77.7</ele>
        <time>2020-06-21T07:28:51Z</time>
      </trkpt>
      <trkpt lat="49.44485" lon="0.99144">
        <ele>77.7</ele>
        <time>2020-06-21T07:28:52Z</time>
      </trkpt>
      <trkpt lat="49.44484" lon="0.99141">
        <ele>77.5</ele>
        <time>2020-06-21T07:28:53Z</time>
      </trkpt>
      <trkpt lat="49.44484" lon="0.99139">
        <ele>77.4</ele>
        <time>2020-06-21T07:28:55Z</time>
      </trkpt>
      <trkpt lat="49.44482" lon="0.99136">
        <ele>77.2</ele>
        <time>2020-06-21T07:28:57Z</time>
      </trkpt>
      <trkpt lat="49.4448" lon="0.99135">
        <ele>77.1</ele>
        <time>2020-06-21T07:28:58Z</time>
      </trkpt>
      <trkpt lat="49.44479" lon="0.99134">
        <ele>76.9</ele>
        <time>2020-06-21T07:28:59Z</time>
      </trkpt>
      <trkpt lat="49.44478" lon="0.99132">
        <ele>76.8</ele>
        <time>2020-06-21T07:29:01Z</time>
      </trkpt>
      <trkpt lat="49.44477" lon="0.99131">
        <ele>76.7</ele>
        <time>2020-06-21T07:29:02Z</time>
      </trkpt>
      <trkpt lat="49.44476" lon="0.99129">
        <ele>76.5</ele>
        <time>2020-06-21T07:29:04Z</time>
      </trkpt>
      <trkpt lat="49.44473" lon="0.99125">
        <ele>76.3</ele>
        <time>2020-06-21T07:29:06Z</time>
      </trkpt>
      <trkpt lat="49.44472" lon="0.99122">
        <ele>76.1</ele>
        <time>2020-06-21T07:29:08Z</time>
      </trkpt>
      <trkpt lat="49.44472" lon="0.9912">
        <ele>76</ele>
        <time>2020-06-21T07:29:09Z</time>
      </trkpt>
      <trkpt lat="49.44472" lon="0.99117">
        <ele>75.9</ele>
        <time>2020-06-21T07:29:11Z</time>
      </trkpt>
      <trkpt lat="49.44472" lon="0.99116">
        <ele>75.9</ele>
        <time>2020-06-21T07:29:12Z</time>
      </trkpt>
      <trkpt lat="49.44471" lon="0.99114">
        <ele>75.8</ele>
        <time>2020-06-21T07:29:13Z</time>
      </trkpt>
      <trkpt lat="49.44471" lon="0.99111">
        <ele>75.7</ele>
        <time>2020-06-21T07:29:15Z</time>
      </trkpt>
      <trkpt lat="49.44472" lon="0.9911">
        <ele>75.6</ele>
        <time>2020-06-21T07:29:16Z</time>
      </trkpt>
      <trkpt lat="49.44472" lon="0.99109">
        <ele>75.5</ele>
        <time>2020-06-21T07:29:17Z</time>
      </trkpt>
      <trkpt lat="49.44472" lon="0.99102">
        <ele>75.2</ele>
        <time>2020-06-21T07:29:19Z</time>
      </trkpt>
      <trkpt lat="49.44472" lon="0.991">
        <ele>75.1</ele>
        <time>2020-06-21T07:29:20Z</time>
      </trkpt>
      <trkpt lat="49.44472" lon="0.99097">
        <ele>75.1</ele>
        <time>2020-06-21T07:29:21Z</time>
      </trkpt>
      <trkpt lat="49.44472" lon="0.99092">
        <ele>74.8</ele>
        <time>2020-06-21T07:29:23Z</time>
      </trkpt>
      <trkpt lat="49.44473" lon="0.99087">
        <ele>74.6</ele>
        <time>2020-06-21T07:29:24Z</time>
      </trkpt>
      <trkpt lat="49.44475" lon="0.99081">
        <ele>74.4</ele>
        <time>2020-06-21T07:29:26Z</time>
      </trkpt>
      <trkpt lat="49.44477" lon="0.99075">
        <ele>74.2</ele>
        <time>2020-06-21T07:29:27Z</time>
      </trkpt>
      <trkpt lat="49.4448" lon="0.99066">
        <ele>73.9</ele>
        <time>2020-06-21T07:29:28Z</time>
      </trkpt>
      <trkpt lat="49.44484" lon="0.9905">
        <ele>73.6</ele>
        <time>2020-06-21T07:29:29Z</time>
      </trkpt>
      <trkpt lat="49.44485" lon="0.99038">
        <ele>73.5</ele>
        <time>2020-06-21T07:29:30Z</time>
      </trkpt>
      <trkpt lat="49.44486" lon="0.99029">
        <ele>73.5</ele>
        <time>2020-06-21T07:29:31Z</time>
      </trkpt>
      <trkpt lat="49.44485" lon="0.99018">
        <ele>73.5</ele>
        <time>2020-06-21T07:29:33Z</time>
      </trkpt>
      <trkpt lat="49.44486" lon="0.9901">
        <ele>73.5</ele>
        <time>2020-06-21T07:29:34Z</time>
      </trkpt>
      <trkpt lat="49.44487" lon="0.99002">
        <ele>73.5</ele>
        <time>2020-06-21T07:29:35Z</time>
      </trkpt>
      <trkpt lat="49.44489" lon="0.98994">
        <ele>73.5</ele>
        <time>2020-06-21T07:29:37Z</time>
      </trkpt>
      <trkpt lat="49.44491" lon="0.9899">
        <ele>73.6</ele>
        <time>2020-06-21T07:29:38Z</time>
      </trkpt>
      <trkpt lat="49.44493" lon="0.98985">
        <ele>73.6</ele>
        <time>2020-06-21T07:29:40Z</time>
      </trkpt>
      <trkpt lat="49.44495" lon="0.98979">
        <ele>73.7</ele>
        <time>2020-06-21T07:29:42Z</time>
      </trkpt>
      <trkpt lat="49.44496" lon="0.98974">
        <ele>73.7</ele>
        <time>2020-06-21T07:29:43Z</time>
      </trkpt>
      <trkpt lat="49.44497" lon="0.98972">
        <ele>73.8</ele>
        <time>2020-06-21T07:29:44Z</time>
      </trkpt>
      <trkpt lat="49.44498" lon="0.98967">
        <ele>73.9</ele>
        <time>2020-06-21T07:29:46Z</time>
      </trkpt>
      <trkpt lat="49.445" lon="0.98962">
        <ele>74</ele>
        <time>2020-06-21T07:29:47Z</time>
      </trkpt>
      <trkpt lat="49.44502" lon="0.98956">
        <ele>74.1</ele>
        <time>2020-06-21T07:29:49Z</time>
      </trkpt>
      <trkpt lat="49.44503" lon="0.98949">
        <ele>74.3</ele>
        <time>2020-06-21T07:29:50Z</time>
      </trkpt>
      <trkpt lat="49.44504" lon="0.98946">
        <ele>74.4</ele>
        <time>2020-06-21T07:29:51Z</time>
      </trkpt>
      <trkpt lat="49.44505" lon="0.98941">
        <ele>74.5</ele>
        <time>2020-06-21T07:29:53Z</time>
      </trkpt>
      <trkpt lat="49.44506" lon="0.98936">
        <ele>74.7</ele>
        <time>2020-06-21T07:29:54Z</time>
      </trkpt>
      <trkpt lat="49.44508" lon="0.98928">
        <ele>74.9</ele>
        <time>2020-06-21T07:29:55Z</time>
      </trkpt>
      <trkpt lat="49.4451" lon="0.98915">
        <ele>75.4</ele>
        <time>2020-06-21T07:29:57Z</time>
      </trkpt>
      <trkpt lat="49.44511" lon="0.98908">
        <ele>75.6</ele>
        <time>2020-06-21T07:29:58Z</time>
      </trkpt>
      <trkpt lat="49.44513" lon="0.989">
        <ele>75.9</ele>
        <time>2020-06-21T07:29:59Z</time>
      </trkpt>
      <trkpt lat="49.44514" lon="0.98896">
        <ele>76</ele>
        <time>2020-06-21T07:30:00Z</time>
      </trkpt>
      <trkpt lat="49.44515" lon="0.98889">
        <ele>76.3</ele>
        <time>2020-06-21T07:30:02Z</time>
      </trkpt>
      <trkpt lat="49.44516" lon="0.98884">
        <ele>76.5</ele>
        <time>2020-06-21T07:30:03Z</time>
      </trkpt>
      <trkpt lat="49.44518" lon="0.98876">
        <ele>76.8</ele>
        <time>2020-06-21T07:30:05Z</time>
      </trkpt>
      <trkpt lat="49.44519" lon="0.98868">
        <ele>77.1</ele>
        <time>2020-06-21T07:30:06Z</time>
      </trkpt>
      <trkpt lat="49.4452" lon="0.98864">
        <ele>77.2</ele>
        <time>2020-06-21T07:30:07Z</time>
      </trkpt>
      <trkpt lat="49.4452" lon="0.9886">
        <ele>77.4</ele>
        <time>2020-06-21T07:30:09Z</time>
      </trkpt>
      <trkpt lat="49.44522" lon="0.98853">
        <ele>77.6</ele>
        <time>2020-06-21T07:30:11Z</time>
      </trkpt>
      <trkpt lat="49.44523" lon="0.9885">
        <ele>77.7</ele>
        <time>2020-06-21T07:30:13Z</time>
      </trkpt>
      <trkpt lat="49.44524" lon="0.98849">
        <ele>77.9</ele>
        <time>2020-06-21T07:30:14Z</time>
      </trkpt>
      <trkpt lat="49.44524" lon="0.98846">
        <ele>77.9</ele>
        <time>2020-06-21T07:30:16Z</time>
      </trkpt>
      <trkpt lat="49.44525" lon="0.98844">
        <ele>78</ele>
        <time>2020-06-21T07:30:17Z</time>
      </trkpt>
      <trkpt lat="49.44526" lon="0.98839">
        <ele>78.2</ele>
        <time>2020-06-21T07:30:19Z</time>
      </trkpt>
      <trkpt lat="49.44526" lon="0.98837">
        <ele>78.3</ele>
        <time>2020-06-21T07:30:20Z</time>
      </trkpt>
      <trkpt lat="49.44528" lon="0.98833">
        <ele>78.4</ele>
        <time>2020-06-21T07:30:21Z</time>
      </trkpt>
      <trkpt lat="49.44529" lon="0.98831">
        <ele>78.5</ele>
        <time>2020-06-21T07:30:22Z</time>
      </trkpt>
      <trkpt lat="49.4453" lon="0.98829">
        <ele>78.6</ele>
        <time>2020-06-21T07:30:23Z</time>
      </trkpt>
      <trkpt lat="49.44531" lon="0.98824">
        <ele>78.8</ele>
        <time>2020-06-21T07:30:25Z</time>
      </trkpt>
      <trkpt lat="49.44531" lon="0.98822">
        <ele>78.8</ele>
        <time>2020-06-21T07:30:26Z</time>
      </trkpt>
      <trkpt lat="49.44532" lon="0.98818">
        <ele>79</ele>
        <time>2020-06-21T07:30:27Z</time>
      </trkpt>
      <trkpt lat="49.44533" lon="0.98814">
        <ele>79.1</ele>
        <time>2020-06-21T07:30:28Z</time>
      </trkpt>
      <trkpt lat="49.44534" lon="0.98809">
        <ele>79.3</ele>
        <time>2020-06-21T07:30:29Z</time>
      </trkpt>
      <trkpt lat="49.44535" lon="0.98806">
        <ele>79.4</ele>
        <time>2020-06-21T07:30:30Z</time>
      </trkpt>
      <trkpt lat="49.44536" lon="0.988">
        <ele>79.5</ele>
        <time>2020-06-21T07:30:32Z</time>
      </trkpt>
      <trkpt lat="49.44537" lon="0.98796">
        <ele>79.6</ele>
        <time>2020-06-21T07:30:33Z</time>
      </trkpt>
      <trkpt lat="49.44538" lon="0.98794">
        <ele>79.7</ele>
        <time>2020-06-21T07:30:34Z</time>
      </trkpt>
      <trkpt lat="49.4454" lon="0.9879">
        <ele>79.8</ele>
        <time>2020-06-21T07:30:36Z</time>
      </trkpt>
      <trkpt lat="49.44541" lon="0.98788">
        <ele>79.8</ele>
        <time>2020-06-21T07:30:37Z</time>
      </trkpt>
      <trkpt lat="49.44542" lon="0.98783">
        <ele>80</ele>
        <time>2020-06-21T07:30:38Z</time>
      </trkpt>
      <trkpt lat="49.44543" lon="0.9878">
        <ele>80</ele>
        <time>2020-06-21T07:30:39Z</time>
      </trkpt>
      <trkpt lat="49.44544" lon="0.98775">
        <ele>80.2</ele>
        <time>2020-06-21T07:30:41Z</time>
      </trkpt>
      <trkpt lat="49.44545" lon="0.98771">
        <ele>80.3</ele>
        <time>2020-06-21T07:30:42Z</time>
      </trkpt>
      <trkpt lat="49.44547" lon="0.98765">
        <ele>80.5</ele>
        <time>2020-06-21T07:30:43Z</time>
      </trkpt>
      <trkpt lat="49.44547" lon="0.98763">
        <ele>80.5</ele>
        <time>2020-06-21T07:30:44Z</time>
      </trkpt>
      <trkpt lat="49.44548" lon="0.98758">
        <ele>80.6</ele>
        <time>2020-06-21T07:30:45Z</time>
      </trkpt>
      <trkpt lat="49.4455" lon="0.98751">
        <ele>80.8</ele>
        <time>2020-06-21T07:30:46Z</time>
      </trkpt>
      <trkpt lat="49.44552" lon="0.98747">
        <ele>80.9</ele>
        <time>2020-06-21T07:30:47Z</time>
      </trkpt>
      <trkpt lat="49.44554" lon="0.98741">
        <ele>81</ele>
        <time>2020-06-21T07:30:49Z</time>
      </trkpt>
      <trkpt lat="49.44556" lon="0.98738">
        <ele>81.1</ele>
        <time>2020-06-21T07:30:50Z</time>
      </trkpt>
      <trkpt lat="49.4456" lon="0.9873">
        <ele>81.3</ele>
        <time>2020-06-21T07:30:52Z</time>
      </trkpt>
      <trkpt lat="49.44562" lon="0.98726">
        <ele>81.4</ele>
        <time>2020-06-21T07:30:53Z</time>
      </trkpt>
      <trkpt lat="49.44564" lon="0.98722">
        <ele>81.5</ele>
        <time>2020-06-21T07:30:54Z</time>
      </trkpt>
      <trkpt lat="49.44566" lon="0.98716">
        <ele>81.7</ele>
        <time>2020-06-21T07:30:55Z</time>
      </trkpt>
      <trkpt lat="49.44568" lon="0.98712">
        <ele>81.8</ele>
        <time>2020-06-21T07:30:56Z</time>
      </trkpt>
      <trkpt lat="49.44571" lon="0.98704">
        <ele>82</ele>
        <time>2020-06-21T07:30:58Z</time>
      </trkpt>
      <trkpt lat="49.44573" lon="0.98697">
        <ele>82.1</ele>
        <time>2020-06-21T07:30:59Z</time>
      </trkpt>
      <trkpt lat="49.44575" lon="0.98692">
        <ele>82.3</ele>
        <time>2020-06-21T07:31:01Z</time>
      </trkpt>
      <trkpt lat="49.44578" lon="0.98684">
        <ele>82.4</ele>
        <time>2020-06-21T07:31:02Z</time>
      </trkpt>
      <trkpt lat="49.4458" lon="0.98679">
        <ele>82.6</ele>
        <time>2020-06-21T07:31:03Z</time>
      </trkpt>
      <trkpt lat="49.44582" lon="0.98674">
        <ele>82.7</ele>
        <time>2020-06-21T07:31:04Z</time>
      </trkpt>
      <trkpt lat="49.44585" lon="0.98662">
        <ele>83.1</ele>
        <time>2020-06-21T07:31:06Z</time>
      </trkpt>
      <trkpt lat="49.44585" lon="0.98641">
        <ele>83.6</ele>
        <time>2020-06-21T07:31:07Z</time>
      </trkpt>
      <trkpt lat="49.44586" lon="0.98631">
        <ele>83.8</ele>
        <time>2020-06-21T07:31:08Z</time>
      </trkpt>
      <trkpt lat="49.44587" lon="0.98621">
        <ele>84.1</ele>
        <time>2020-06-21T07:31:10Z</time>
      </trkpt>
      <trkpt lat="49.44589" lon="0.98605">
        <ele>84.4</ele>
        <time>2020-06-21T07:31:11Z</time>
      </trkpt>
      <trkpt lat="49.4459" lon="0.98594">
        <ele>84.7</ele>
        <time>2020-06-21T07:31:12Z</time>
      </trkpt>
      <trkpt lat="49.44593" lon="0.9858">
        <ele>85</ele>
        <time>2020-06-21T07:31:13Z</time>
      </trkpt>
      <trkpt lat="49.44594" lon="0.98571">
        <ele>85.2</ele>
        <time>2020-06-21T07:31:15Z</time>
      </trkpt>
      <trkpt lat="49.44595" lon="0.98565">
        <ele>85.3</ele>
        <time>2020-06-21T07:31:16Z</time>
      </trkpt>
      <trkpt lat="49.44598" lon="0.98559">
        <ele>85.4</ele>
        <time>2020-06-21T07:31:18Z</time>
      </trkpt>
      <trkpt lat="49.44601" lon="0.98556">
        <ele>85.4</ele>
        <time>2020-06-21T07:31:19Z</time>
      </trkpt>
      <trkpt lat="49.44603" lon="0.98552">
        <ele>85.5</ele>
        <time>2020-06-21T07:31:20Z</time>
      </trkpt>
      <trkpt lat="49.44605" lon="0.9855">
        <ele>85.5</ele>
        <time>2020-06-21T07:31:22Z</time>
      </trkpt>
      <trkpt lat="49.44606" lon="0.98551">
        <ele>85.6</ele>
        <time>2020-06-21T07:31:24Z</time>
      </trkpt>
      <trkpt lat="49.44605" lon="0.98551">
        <ele>85.6</ele>
        <time>2020-06-21T07:31:26Z</time>
      </trkpt>
      <trkpt lat="49.44605" lon="0.9855">
        <ele>85.6</ele>
        <time>2020-06-21T07:31:28Z</time>
      </trkpt>
      <trkpt lat="49.44604" lon="0.98549">
        <ele>85.6</ele>
        <time>2020-06-21T07:31:29Z</time>
      </trkpt>
      <trkpt lat="49.44603" lon="0.98546">
        <ele>85.7</ele>
        <time>2020-06-21T07:31:30Z</time>
      </trkpt>
      <trkpt lat="49.44602" lon="0.98543">
        <ele>85.7</ele>
        <time>2020-06-21T07:31:31Z</time>
      </trkpt>
      <trkpt lat="49.44601" lon="0.9854">
        <ele>85.8</ele>
        <time>2020-06-21T07:31:33Z</time>
      </trkpt>
      <trkpt lat="49.44599" lon="0.98536">
        <ele>85.9</ele>
        <time>2020-06-21T07:31:34Z</time>
      </trkpt>
      <trkpt lat="49.44599" lon="0.98534">
        <ele>85.9</ele>
        <time>2020-06-21T07:31:35Z</time>
      </trkpt>
      <trkpt lat="49.44599" lon="0.9853">
        <ele>86</ele>
        <time>2020-06-21T07:31:37Z</time>
      </trkpt>
      <trkpt lat="49.446" lon="0.98526">
        <ele>86.1</ele>
        <time>2020-06-21T07:31:38Z</time>
      </trkpt>
      <trkpt lat="49.44602" lon="0.98516">
        <ele>86.3</ele>
        <time>2020-06-21T07:31:40Z</time>
      </trkpt>
      <trkpt lat="49.44609" lon="0.98504">
        <ele>86.6</ele>
        <time>2020-06-21T07:31:41Z</time>
      </trkpt>
      <trkpt lat="49.44612" lon="0.98497">
        <ele>86.8</ele>
        <time>2020-06-21T07:31:43Z</time>
      </trkpt>
      <trkpt lat="49.44614" lon="0.9849">
        <ele>86.9</ele>
        <time>2020-06-21T07:31:44Z</time>
      </trkpt>
      <trkpt lat="49.44615" lon="0.98483">
        <ele>87</ele>
        <time>2020-06-21T07:31:45Z</time>
      </trkpt>
      <trkpt lat="49.44617" lon="0.98476">
        <ele>87.1</ele>
        <time>2020-06-21T07:31:47Z</time>
      </trkpt>
      <trkpt lat="49.44617" lon="0.98472">
        <ele>87.2</ele>
        <time>2020-06-21T07:31:48Z</time>
      </trkpt>
      <trkpt lat="49.44615" lon="0.98468">
        <ele>87.2</ele>
        <time>2020-06-21T07:31:50Z</time>
      </trkpt>
      <trkpt lat="49.44614" lon="0.98464">
        <ele>87.2</ele>
        <time>2020-06-21T07:31:51Z</time>
      </trkpt>
      <trkpt lat="49.44614" lon="0.9846">
        <ele>87.2</ele>
        <time>2020-06-21T07:31:53Z</time>
      </trkpt>
      <trkpt lat="49.44616" lon="0.98454">
        <ele>87.2</ele>
        <time>2020-06-21T07:31:54Z</time>
      </trkpt>
      <trkpt lat="49.44621" lon="0.98449">
        <ele>87.1</ele>
        <time>2020-06-21T07:31:56Z</time>
      </trkpt>
      <trkpt lat="49.44623" lon="0.98447">
        <ele>87.1</ele>
        <time>2020-06-21T07:31:57Z</time>
      </trkpt>
      <trkpt lat="49.44626" lon="0.98444">
        <ele>87</ele>
        <time>2020-06-21T07:31:59Z</time>
      </trkpt>
      <trkpt lat="49.44629" lon="0.98442">
        <ele>87</ele>
        <time>2020-06-21T07:32:00Z</time>
      </trkpt>
      <trkpt lat="49.4463" lon="0.98441">
        <ele>87</ele>
        <time>2020-06-21T07:32:01Z</time>
      </trkpt>
      <trkpt lat="49.44631" lon="0.98439">
        <ele>87</ele>
        <time>2020-06-21T07:32:02Z</time>
      </trkpt>
      <trkpt lat="49.44633" lon="0.98433">
        <ele>87</ele>
        <time>2020-06-21T07:32:04Z</time>
      </trkpt>
      <trkpt lat="49.44634" lon="0.98426">
        <ele>87</ele>
        <time>2020-06-21T07:32:05Z</time>
      </trkpt>
      <trkpt lat="49.44635" lon="0.9842">
        <ele>87</ele>
        <time>2020-06-21T07:32:07Z</time>
      </trkpt>
      <trkpt lat="49.44636" lon="0.98415">
        <ele>87</ele>
        <time>2020-06-21T07:32:08Z</time>
      </trkpt>
      <trkpt lat="49.44637" lon="0.98411">
        <ele>87.1</ele>
        <time>2020-06-21T07:32:10Z</time>
      </trkpt>
      <trkpt lat="49.44637" lon="0.98407">
        <ele>87.1</ele>
        <time>2020-06-21T07:32:11Z</time>
      </trkpt>
      <trkpt lat="49.44636" lon="0.98401">
        <ele>87.2</ele>
        <time>2020-06-21T07:32:13Z</time>
      </trkpt>
      <trkpt lat="49.44635" lon="0.98397">
        <ele>87.2</ele>
        <time>2020-06-21T07:32:14Z</time>
      </trkpt>
      <trkpt lat="49.44633" lon="0.98394">
        <ele>87.3</ele>
        <time>2020-06-21T07:32:15Z</time>
      </trkpt>
      <trkpt lat="49.44629" lon="0.98386">
        <ele>87.4</ele>
        <time>2020-06-21T07:32:17Z</time>
      </trkpt>
      <trkpt lat="49.44627" lon="0.98379">
        <ele>87.5</ele>
        <time>2020-06-21T07:32:19Z</time>
      </trkpt>
      <trkpt lat="49.44625" lon="0.98372">
        <ele>87.6</ele>
        <time>2020-06-21T07:32:21Z</time>
      </trkpt>
      <trkpt lat="49.44624" lon="0.98367">
        <ele>87.7</ele>
        <time>2020-06-21T07:32:22Z</time>
      </trkpt>
      <trkpt lat="49.44623" lon="0.98363">
        <ele>87.8</ele>
        <time>2020-06-21T07:32:23Z</time>
      </trkpt>
      <trkpt lat="49.44622" lon="0.98356">
        <ele>87.9</ele>
        <time>2020-06-21T07:32:24Z</time>
      </trkpt>
      <trkpt lat="49.44621" lon="0.98354">
        <ele>87.9</ele>
        <time>2020-06-21T07:32:25Z</time>
      </trkpt>
      <trkpt lat="49.4462" lon="0.9835">
        <ele>88</ele>
        <time>2020-06-21T07:32:27Z</time>
      </trkpt>
      <trkpt lat="49.44618" lon="0.98346">
        <ele>88.1</ele>
        <time>2020-06-21T07:32:28Z</time>
      </trkpt>
      <trkpt lat="49.44617" lon="0.98342">
        <ele>88.1</ele>
        <time>2020-06-21T07:32:29Z</time>
      </trkpt>
      <trkpt lat="49.44615" lon="0.98336">
        <ele>88.2</ele>
        <time>2020-06-21T07:32:31Z</time>
      </trkpt>
      <trkpt lat="49.44615" lon="0.98333">
        <ele>88.3</ele>
        <time>2020-06-21T07:32:32Z</time>
      </trkpt>
      <trkpt lat="49.44615" lon="0.98331">
        <ele>88.3</ele>
        <time>2020-06-21T07:32:33Z</time>
      </trkpt>
      <trkpt lat="49.44615" lon="0.98328">
        <ele>88.3</ele>
        <time>2020-06-21T07:32:34Z</time>
      </trkpt>
      <trkpt lat="49.44614" lon="0.98323">
        <ele>88.4</ele>
        <time>2020-06-21T07:32:36Z</time>
      </trkpt>
      <trkpt lat="49.44614" lon="0.98318">
        <ele>88.5</ele>
        <time>2020-06-21T07:32:37Z</time>
      </trkpt>
      <trkpt lat="49.44613" lon="0.98311">
        <ele>88.5</ele>
        <time>2020-06-21T07:32:39Z</time>
      </trkpt>
      <trkpt lat="49.44613" lon="0.98306">
        <ele>88.6</ele>
        <time>2020-06-21T07:32:40Z</time>
      </trkpt>
      <trkpt lat="49.44612" lon="0.98301">
        <ele>88.6</ele>
        <time>2020-06-21T07:32:41Z</time>
      </trkpt>
      <trkpt lat="49.44611" lon="0.98294">
        <ele>88.7</ele>
        <time>2020-06-21T07:32:42Z</time>
      </trkpt>
      <trkpt lat="49.44609" lon="0.9827">
        <ele>88.9</ele>
        <time>2020-06-21T07:32:44Z</time>
      </trkpt>
      <trkpt lat="49.44608" lon="0.98259">
        <ele>88.9</ele>
        <time>2020-06-21T07:32:45Z</time>
      </trkpt>
      <trkpt lat="49.44605" lon="0.98249">
        <ele>89</ele>
        <time>2020-06-21T07:32:47Z</time>
      </trkpt>
      <trkpt lat="49.44604" lon="0.98244">
        <ele>89</ele>
        <time>2020-06-21T07:32:48Z</time>
      </trkpt>
      <trkpt lat="49.44604" lon="0.98242">
        <ele>89</ele>
        <time>2020-06-21T07:32:49Z</time>
      </trkpt>
      <trkpt lat="49.44603" lon="0.98232">
        <ele>89</ele>
        <time>2020-06-21T07:32:50Z</time>
      </trkpt>
      <trkpt lat="49.44601" lon="0.98217">
        <ele>89</ele>
        <time>2020-06-21T07:32:52Z</time>
      </trkpt>
      <trkpt lat="49.446" lon="0.98204">
        <ele>89.1</ele>
        <time>2020-06-21T07:32:53Z</time>
      </trkpt>
      <trkpt lat="49.446" lon="0.98189">
        <ele>89.1</ele>
        <time>2020-06-21T07:32:55Z</time>
      </trkpt>
      <trkpt lat="49.44599" lon="0.98181">
        <ele>89.2</ele>
        <time>2020-06-21T07:32:56Z</time>
      </trkpt>
      <trkpt lat="49.44599" lon="0.98176">
        <ele>89.2</ele>
        <time>2020-06-21T07:32:57Z</time>
      </trkpt>
      <trkpt lat="49.44599" lon="0.9817">
        <ele>89.2</ele>
        <time>2020-06-21T07:32:59Z</time>
      </trkpt>
      <trkpt lat="49.44599" lon="0.98163">
        <ele>89.2</ele>
        <time>2020-06-21T07:33:00Z</time>
      </trkpt>
      <trkpt lat="49.44599" lon="0.98157">
        <ele>89.3</ele>
        <time>2020-06-21T07:33:01Z</time>
      </trkpt>
      <trkpt lat="49.44598" lon="0.98148">
        <ele>89.3</ele>
        <time>2020-06-21T07:33:02Z</time>
      </trkpt>
      <trkpt lat="49.44598" lon="0.98142">
        <ele>89.3</ele>
        <time>2020-06-21T07:33:03Z</time>
      </trkpt>
      <trkpt lat="49.44598" lon="0.98136">
        <ele>89.4</ele>
        <time>2020-06-21T07:33:05Z</time>
      </trkpt>
      <trkpt lat="49.44599" lon="0.98129">
        <ele>89.4</ele>
        <time>2020-06-21T07:33:06Z</time>
      </trkpt>
      <trkpt lat="49.44598" lon="0.98124">
        <ele>89.4</ele>
        <time>2020-06-21T07:33:07Z</time>
      </trkpt>
      <trkpt lat="49.44598" lon="0.98118">
        <ele>89.4</ele>
        <time>2020-06-21T07:33:08Z</time>
      </trkpt>
      <trkpt lat="49.44598" lon="0.9811">
        <ele>89.4</ele>
        <time>2020-06-21T07:33:10Z</time>
      </trkpt>
      <trkpt lat="49.44597" lon="0.98105">
        <ele>89.4</ele>
        <time>2020-06-21T07:33:11Z</time>
      </trkpt>
      <trkpt lat="49.44596" lon="0.981">
        <ele>89.3</ele>
        <time>2020-06-21T07:33:12Z</time>
      </trkpt>
      <trkpt lat="49.44595" lon="0.98094">
        <ele>89.3</ele>
        <time>2020-06-21T07:33:13Z</time>
      </trkpt>
      <trkpt lat="49.44592" lon="0.98083">
        <ele>89.3</ele>
        <time>2020-06-21T07:33:15Z</time>
      </trkpt>
      <trkpt lat="49.44591" lon="0.98075">
        <ele>89.3</ele>
        <time>2020-06-21T07:33:16Z</time>
      </trkpt>
      <trkpt lat="49.44589" lon="0.9807">
        <ele>89.3</ele>
        <time>2020-06-21T07:33:18Z</time>
      </trkpt>
      <trkpt lat="49.44587" lon="0.98065">
        <ele>89.3</ele>
        <time>2020-06-21T07:33:19Z</time>
      </trkpt>
      <trkpt lat="49.44584" lon="0.98061">
        <ele>89.3</ele>
        <time>2020-06-21T07:33:20Z</time>
      </trkpt>
      <trkpt lat="49.44581" lon="0.98058">
        <ele>89.3</ele>
        <time>2020-06-21T07:33:21Z</time>
      </trkpt>
      <trkpt lat="49.44577" lon="0.98054">
        <ele>89.3</ele>
        <time>2020-06-21T07:33:22Z</time>
      </trkpt>
      <trkpt lat="49.44574" lon="0.9805">
        <ele>89.3</ele>
        <time>2020-06-21T07:33:23Z</time>
      </trkpt>
      <trkpt lat="49.44567" lon="0.98042">
        <ele>89.3</ele>
        <time>2020-06-21T07:33:24Z</time>
      </trkpt>
      <trkpt lat="49.44562" lon="0.98036">
        <ele>89.4</ele>
        <time>2020-06-21T07:33:26Z</time>
      </trkpt>
      <trkpt lat="49.44556" lon="0.9803">
        <ele>89.4</ele>
        <time>2020-06-21T07:33:27Z</time>
      </trkpt>
      <trkpt lat="49.44551" lon="0.98022">
        <ele>89.4</ele>
        <time>2020-06-21T07:33:28Z</time>
      </trkpt>
      <trkpt lat="49.44545" lon="0.98013">
        <ele>89.4</ele>
        <time>2020-06-21T07:33:29Z</time>
      </trkpt>
      <trkpt lat="49.44531" lon="0.97992">
        <ele>89.4</ele>
        <time>2020-06-21T07:33:31Z</time>
      </trkpt>
      <trkpt lat="49.44518" lon="0.97973">
        <ele>89.5</ele>
        <time>2020-06-21T07:33:33Z</time>
      </trkpt>
      <trkpt lat="49.44513" lon="0.97966">
        <ele>89.5</ele>
        <time>2020-06-21T07:33:34Z</time>
      </trkpt>
      <trkpt lat="49.44507" lon="0.97958">
        <ele>89.5</ele>
        <time>2020-06-21T07:33:36Z</time>
      </trkpt>
      <trkpt lat="49.445" lon="0.9795">
        <ele>89.5</ele>
        <time>2020-06-21T07:33:37Z</time>
      </trkpt>
      <trkpt lat="49.44493" lon="0.97942">
        <ele>89.6</ele>
        <time>2020-06-21T07:33:39Z</time>
      </trkpt>
      <trkpt lat="49.44489" lon="0.97937">
        <ele>89.6</ele>
        <time>2020-06-21T07:33:40Z</time>
      </trkpt>
      <trkpt lat="49.44485" lon="0.97934">
        <ele>89.6</ele>
        <time>2020-06-21T07:33:41Z</time>
      </trkpt>
      <trkpt lat="49.44482" lon="0.9793">
        <ele>89.7</ele>
        <time>2020-06-21T07:33:42Z</time>
      </trkpt>
      <trkpt lat="49.4448" lon="0.97927">
        <ele>89.7</ele>
        <time>2020-06-21T07:33:43Z</time>
      </trkpt>
      <trkpt lat="49.44478" lon="0.97922">
        <ele>89.7</ele>
        <time>2020-06-21T07:33:45Z</time>
      </trkpt>
      <trkpt lat="49.44477" lon="0.97921">
        <ele>89.7</ele>
        <time>2020-06-21T07:33:46Z</time>
      </trkpt>
      <trkpt lat="49.44475" lon="0.97917">
        <ele>89.7</ele>
        <time>2020-06-21T07:33:47Z</time>
      </trkpt>
      <trkpt lat="49.44474" lon="0.97915">
        <ele>89.7</ele>
        <time>2020-06-21T07:33:48Z</time>
      </trkpt>
      <trkpt lat="49.44472" lon="0.97911">
        <ele>89.7</ele>
        <time>2020-06-21T07:33:50Z</time>
      </trkpt>
      <trkpt lat="49.4447" lon="0.97909">
        <ele>89.7</ele>
        <time>2020-06-21T07:33:51Z</time>
      </trkpt>
      <trkpt lat="49.44469" lon="0.97906">
        <ele>89.7</ele>
        <time>2020-06-21T07:33:53Z</time>
      </trkpt>
      <trkpt lat="49.44466" lon="0.97903">
        <ele>89.6</ele>
        <time>2020-06-21T07:33:54Z</time>
      </trkpt>
      <trkpt lat="49.44465" lon="0.97902">
        <ele>89.5</ele>
        <time>2020-06-21T07:33:55Z</time>
      </trkpt>
      <trkpt lat="49.44461" lon="0.97899">
        <ele>89.3</ele>
        <time>2020-06-21T07:33:57Z</time>
      </trkpt>
      <trkpt lat="49.4446" lon="0.97898">
        <ele>89.2</ele>
        <time>2020-06-21T07:33:58Z</time>
      </trkpt>
      <trkpt lat="49.44457" lon="0.97894">
        <ele>89.2</ele>
        <time>2020-06-21T07:34:00Z</time>
      </trkpt>
      <trkpt lat="49.44455" lon="0.97892">
        <ele>89.2</ele>
        <time>2020-06-21T07:34:01Z</time>
      </trkpt>
      <trkpt lat="49.44453" lon="0.9789">
        <ele>89.2</ele>
        <time>2020-06-21T07:34:02Z</time>
      </trkpt>
      <trkpt lat="49.4445" lon="0.97888">
        <ele>89.2</ele>
        <time>2020-06-21T07:34:04Z</time>
      </trkpt>
      <trkpt lat="49.44445" lon="0.97883">
        <ele>89.3</ele>
        <time>2020-06-21T07:34:06Z</time>
      </trkpt>
      <trkpt lat="49.44441" lon="0.9788">
        <ele>89.4</ele>
        <time>2020-06-21T07:34:07Z</time>
      </trkpt>
      <trkpt lat="49.4444" lon="0.97878">
        <ele>89.4</ele>
        <time>2020-06-21T07:34:08Z</time>
      </trkpt>
      <trkpt lat="49.44437" lon="0.97876">
        <ele>89.5</ele>
        <time>2020-06-21T07:34:10Z</time>
      </trkpt>
      <trkpt lat="49.44433" lon="0.97871">
        <ele>89.6</ele>
        <time>2020-06-21T07:34:11Z</time>
      </trkpt>
      <trkpt lat="49.4443" lon="0.97868">
        <ele>89.7</ele>
        <time>2020-06-21T07:34:12Z</time>
      </trkpt>
      <trkpt lat="49.44427" lon="0.97864">
        <ele>89.7</ele>
        <time>2020-06-21T07:34:13Z</time>
      </trkpt>
      <trkpt lat="49.44422" lon="0.97856">
        <ele>89.8</ele>
        <time>2020-06-21T07:34:15Z</time>
      </trkpt>
      <trkpt lat="49.44419" lon="0.97853">
        <ele>89.9</ele>
        <time>2020-06-21T07:34:16Z</time>
      </trkpt>
      <trkpt lat="49.44415" lon="0.9785">
        <ele>89.9</ele>
        <time>2020-06-21T07:34:18Z</time>
      </trkpt>
      <trkpt lat="49.44413" lon="0.97848">
        <ele>89.9</ele>
        <time>2020-06-21T07:34:19Z</time>
      </trkpt>
      <trkpt lat="49.44407" lon="0.97843">
        <ele>89.9</ele>
        <time>2020-06-21T07:34:21Z</time>
      </trkpt>
      <trkpt lat="49.44401" lon="0.97836">
        <ele>90</ele>
        <time>2020-06-21T07:34:22Z</time>
      </trkpt>
      <trkpt lat="49.44394" lon="0.97827">
        <ele>90</ele>
        <time>2020-06-21T07:34:23Z</time>
      </trkpt>
      <trkpt lat="49.4439" lon="0.97824">
        <ele>90</ele>
        <time>2020-06-21T07:34:24Z</time>
      </trkpt>
      <trkpt lat="49.44385" lon="0.97819">
        <ele>90</ele>
        <time>2020-06-21T07:34:25Z</time>
      </trkpt>
      <trkpt lat="49.44381" lon="0.97812">
        <ele>90</ele>
        <time>2020-06-21T07:34:27Z</time>
      </trkpt>
      <trkpt lat="49.44371" lon="0.978">
        <ele>90</ele>
        <time>2020-06-21T07:34:28Z</time>
      </trkpt>
      <trkpt lat="49.44367" lon="0.97796">
        <ele>90</ele>
        <time>2020-06-21T07:34:30Z</time>
      </trkpt>
      <trkpt lat="49.44361" lon="0.97793">
        <ele>90</ele>
        <time>2020-06-21T07:34:31Z</time>
      </trkpt>
      <trkpt lat="49.44355" lon="0.97781">
        <ele>89.9</ele>
        <time>2020-06-21T07:34:32Z</time>
      </trkpt>
      <trkpt lat="49.44345" lon="0.97764">
        <ele>89.9</ele>
        <time>2020-06-21T07:34:34Z</time>
      </trkpt>
      <trkpt lat="49.4434" lon="0.97756">
        <ele>89.8</ele>
        <time>2020-06-21T07:34:35Z</time>
      </trkpt>
      <trkpt lat="49.44336" lon="0.97749">
        <ele>89.7</ele>
        <time>2020-06-21T07:34:36Z</time>
      </trkpt>
      <trkpt lat="49.44332" lon="0.97741">
        <ele>89.6</ele>
        <time>2020-06-21T07:34:37Z</time>
      </trkpt>
      <trkpt lat="49.44325" lon="0.97733">
        <ele>89.5</ele>
        <time>2020-06-21T07:34:38Z</time>
      </trkpt>
      <trkpt lat="49.44313" lon="0.97719">
        <ele>89.3</ele>
        <time>2020-06-21T07:34:40Z</time>
      </trkpt>
      <trkpt lat="49.44303" lon="0.97707">
        <ele>89</ele>
        <time>2020-06-21T07:34:42Z</time>
      </trkpt>
      <trkpt lat="49.44297" lon="0.977">
        <ele>88.9</ele>
        <time>2020-06-21T07:34:44Z</time>
      </trkpt>
      <trkpt lat="49.44295" lon="0.97696">
        <ele>88.9</ele>
        <time>2020-06-21T07:34:45Z</time>
      </trkpt>
      <trkpt lat="49.44289" lon="0.9769">
        <ele>88.8</ele>
        <time>2020-06-21T07:34:47Z</time>
      </trkpt>
      <trkpt lat="49.44284" lon="0.97683">
        <ele>88.7</ele>
        <time>2020-06-21T07:34:48Z</time>
      </trkpt>
      <trkpt lat="49.4428" lon="0.97679">
        <ele>88.6</ele>
        <time>2020-06-21T07:34:49Z</time>
      </trkpt>
      <trkpt lat="49.44275" lon="0.97675">
        <ele>88.5</ele>
        <time>2020-06-21T07:34:51Z</time>
      </trkpt>
      <trkpt lat="49.44273" lon="0.9767">
        <ele>88.4</ele>
        <time>2020-06-21T07:34:52Z</time>
      </trkpt>
      <trkpt lat="49.44272" lon="0.97667">
        <ele>88.4</ele>
        <time>2020-06-21T07:34:53Z</time>
      </trkpt>
      <trkpt lat="49.4427" lon="0.97663">
        <ele>88.3</ele>
        <time>2020-06-21T07:34:54Z</time>
      </trkpt>
      <trkpt lat="49.44268" lon="0.97661">
        <ele>88.2</ele>
        <time>2020-06-21T07:34:56Z</time>
      </trkpt>
      <trkpt lat="49.44268" lon="0.9766">
        <ele>88.2</ele>
        <time>2020-06-21T07:34:57Z</time>
      </trkpt>
      <trkpt lat="49.44265" lon="0.97657">
        <ele>88.1</ele>
        <time>2020-06-21T07:34:58Z</time>
      </trkpt>
      <trkpt lat="49.44263" lon="0.97654">
        <ele>88</ele>
        <time>2020-06-21T07:35:00Z</time>
      </trkpt>
      <trkpt lat="49.44262" lon="0.97653">
        <ele>88</ele>
        <time>2020-06-21T07:35:01Z</time>
      </trkpt>
      <trkpt lat="49.44261" lon="0.97651">
        <ele>88</ele>
        <time>2020-06-21T07:35:02Z</time>
      </trkpt>
      <trkpt lat="49.44256" lon="0.97646">
        <ele>87.9</ele>
        <time>2020-06-21T07:35:04Z</time>
      </trkpt>
      <trkpt lat="49.44254" lon="0.97642">
        <ele>87.8</ele>
        <time>2020-06-21T07:35:05Z</time>
      </trkpt>
      <trkpt lat="49.44252" lon="0.97639">
        <ele>87.7</ele>
        <time>2020-06-21T07:35:06Z</time>
      </trkpt>
      <trkpt lat="49.44249" lon="0.97635">
        <ele>87.7</ele>
        <time>2020-06-21T07:35:07Z</time>
      </trkpt>
      <trkpt lat="49.44247" lon="0.9763">
        <ele>87.6</ele>
        <time>2020-06-21T07:35:08Z</time>
      </trkpt>
      <trkpt lat="49.44246" lon="0.97625">
        <ele>87.5</ele>
        <time>2020-06-21T07:35:10Z</time>
      </trkpt>
      <trkpt lat="49.44245" lon="0.97622">
        <ele>87.5</ele>
        <time>2020-06-21T07:35:11Z</time>
      </trkpt>
      <trkpt lat="49.44243" lon="0.97616">
        <ele>87.4</ele>
        <time>2020-06-21T07:35:13Z</time>
      </trkpt>
      <trkpt lat="49.44242" lon="0.97613">
        <ele>87.4</ele>
        <time>2020-06-21T07:35:15Z</time>
      </trkpt>
      <trkpt lat="49.44242" lon="0.97612">
        <ele>87.4</ele>
        <time>2020-06-21T07:35:16Z</time>
      </trkpt>
      <trkpt lat="49.44241" lon="0.97611">
        <ele>87.4</ele>
        <time>2020-06-21T07:35:17Z</time>
      </trkpt>
      <trkpt lat="49.4424" lon="0.9761">
        <ele>87.3</ele>
        <time>2020-06-21T07:35:19Z</time>
      </trkpt>
      <trkpt lat="49.4424" lon="0.97609">
        <ele>87.3</ele>
        <time>2020-06-21T07:35:20Z</time>
      </trkpt>
      <trkpt lat="49.44239" lon="0.97606">
        <ele>87.3</ele>
        <time>2020-06-21T07:35:21Z</time>
      </trkpt>
      <trkpt lat="49.44238" lon="0.97604">
        <ele>87.3</ele>
        <time>2020-06-21T07:35:22Z</time>
      </trkpt>
      <trkpt lat="49.44238" lon="0.97602">
        <ele>87.2</ele>
        <time>2020-06-21T07:35:23Z</time>
      </trkpt>
      <trkpt lat="49.44237" lon="0.97601">
        <ele>87.2</ele>
        <time>2020-06-21T07:35:24Z</time>
      </trkpt>
      <trkpt lat="49.44238" lon="0.97599">
        <ele>87.2</ele>
        <time>2020-06-21T07:35:25Z</time>
      </trkpt>
      <trkpt lat="49.44238" lon="0.97598">
        <ele>87.3</ele>
        <time>2020-06-21T07:35:26Z</time>
      </trkpt>
      <trkpt lat="49.44238" lon="0.97597">
        <ele>87.3</ele>
        <time>2020-06-21T07:35:28Z</time>
      </trkpt>
      <trkpt lat="49.44239" lon="0.97597">
        <ele>87.3</ele>
        <time>2020-06-21T07:35:29Z</time>
      </trkpt>
      <trkpt lat="49.44239" lon="0.97597">
        <ele>87.3</ele>
        <time>2020-06-21T07:35:30Z</time>
      </trkpt>
      <trkpt lat="49.44239" lon="0.97597">
        <ele>87.2</ele>
        <time>2020-06-21T07:35:32Z</time>
      </trkpt>
      <trkpt lat="49.44239" lon="0.97597">
        <ele>87.2</ele>
        <time>2020-06-21T07:35:34Z</time>
      </trkpt>
      <trkpt lat="49.4424" lon="0.97597">
        <ele>87.2</ele>
        <time>2020-06-21T07:35:36Z</time>
      </trkpt>
      <trkpt lat="49.4424" lon="0.97597">
        <ele>87.2</ele>
        <time>2020-06-21T07:35:37Z</time>
      </trkpt>
      <trkpt lat="49.4424" lon="0.97598">
        <ele>87.2</ele>
        <time>2020-06-21T07:35:39Z</time>
      </trkpt>
      <trkpt lat="49.4424" lon="0.97598">
        <ele>87.3</ele>
        <time>2020-06-21T07:35:41Z</time>
      </trkpt>
      <trkpt lat="49.44241" lon="0.97598">
        <ele>87.3</ele>
        <time>2020-06-21T07:35:42Z</time>
      </trkpt>
      <trkpt lat="49.44241" lon="0.97598">
        <ele>87.3</ele>
        <time>2020-06-21T07:35:43Z</time>
      </trkpt>
      <trkpt lat="49.44241" lon="0.97598">
        <ele>87.3</ele>
        <time>2020-06-21T07:35:44Z</time>
      </trkpt>
      <trkpt lat="49.44242" lon="0.97598">
        <ele>87.3</ele>
        <time>2020-06-21T07:35:46Z</time>
      </trkpt>
      <trkpt lat="49.44242" lon="0.97598">
        <ele>87.2</ele>
        <time>2020-06-21T07:35:47Z</time>
      </trkpt>
      <trkpt lat="49.44242" lon="0.97598">
        <ele>87.2</ele>
        <time>2020-06-21T07:35:49Z</time>
      </trkpt>
      <trkpt lat="49.44242" lon="0.97598">
        <ele>87.1</ele>
        <time>2020-06-21T07:35:51Z</time>
      </trkpt>
      <trkpt lat="49.44243" lon="0.97598">
        <ele>87.1</ele>
        <time>2020-06-21T07:35:53Z</time>
      </trkpt>
      <trkpt lat="49.44243" lon="0.97599">
        <ele>87.1</ele>
        <time>2020-06-21T07:35:54Z</time>
      </trkpt>
      <trkpt lat="49.44243" lon="0.97599">
        <ele>87.3</ele>
        <time>2020-06-21T07:35:55Z</time>
      </trkpt>
      <trkpt lat="49.44244" lon="0.97599">
        <ele>87.2</ele>
        <time>2020-06-21T07:35:57Z</time>
      </trkpt>
      <trkpt lat="49.44244" lon="0.97599">
        <ele>87.2</ele>
        <time>2020-06-21T07:35:58Z</time>
      </trkpt>
      <trkpt lat="49.44244" lon="0.97599">
        <ele>87.2</ele>
        <time>2020-06-21T07:36:00Z</time>
      </trkpt>
      <trkpt lat="49.44244" lon="0.97599">
        <ele>87.2</ele>
        <time>2020-06-21T07:36:01Z</time>
      </trkpt>
      <trkpt lat="49.44247" lon="0.97597">
        <ele>87.5</ele>
        <time>2020-06-21T07:36:03Z</time>
      </trkpt>
      <trkpt lat="49.4425" lon="0.97594">
        <ele>87.7</ele>
        <time>2020-06-21T07:36:05Z</time>
      </trkpt>
      <trkpt lat="49.4425" lon="0.97593">
        <ele>87.9</ele>
        <time>2020-06-21T07:36:06Z</time>
      </trkpt>
      <trkpt lat="49.44251" lon="0.97591">
        <ele>87.9</ele>
        <time>2020-06-21T07:36:07Z</time>
      </trkpt>
      <trkpt lat="49.44254" lon="0.97587">
        <ele>88.3</ele>
        <time>2020-06-21T07:36:09Z</time>
      </trkpt>
      <trkpt lat="49.44255" lon="0.97585">
        <ele>88.8</ele>
        <time>2020-06-21T07:36:10Z</time>
      </trkpt>
      <trkpt lat="49.44255" lon="0.97581">
        <ele>89.1</ele>
        <time>2020-06-21T07:36:12Z</time>
      </trkpt>
      <trkpt lat="49.44257" lon="0.97575">
        <ele>89.3</ele>
        <time>2020-06-21T07:36:13Z</time>
      </trkpt>
      <trkpt lat="49.44258" lon="0.97572">
        <ele>89.6</ele>
        <time>2020-06-21T07:36:14Z</time>
      </trkpt>
      <trkpt lat="49.44259" lon="0.97567">
        <ele>90</ele>
        <time>2020-06-21T07:36:15Z</time>
      </trkpt>
      <trkpt lat="49.44261" lon="0.9756">
        <ele>90.4</ele>
        <time>2020-06-21T07:36:16Z</time>
      </trkpt>
      <trkpt lat="49.44262" lon="0.97557">
        <ele>90.5</ele>
        <time>2020-06-21T07:36:17Z</time>
      </trkpt>
      <trkpt lat="49.44263" lon="0.97555">
        <ele>90.6</ele>
        <time>2020-06-21T07:36:19Z</time>
      </trkpt>
      <trkpt lat="49.44264" lon="0.97549">
        <ele>90.5</ele>
        <time>2020-06-21T07:36:20Z</time>
      </trkpt>
      <trkpt lat="49.44264" lon="0.97546">
        <ele>90.4</ele>
        <time>2020-06-21T07:36:22Z</time>
      </trkpt>
      <trkpt lat="49.44265" lon="0.97543">
        <ele>90.4</ele>
        <time>2020-06-21T07:36:23Z</time>
      </trkpt>
      <trkpt lat="49.44265" lon="0.9754">
        <ele>90.1</ele>
        <time>2020-06-21T07:36:25Z</time>
      </trkpt>
      <trkpt lat="49.44266" lon="0.97536">
        <ele>89.8</ele>
        <time>2020-06-21T07:36:26Z</time>
      </trkpt>
      <trkpt lat="49.44267" lon="0.97529">
        <ele>88.9</ele>
        <time>2020-06-21T07:36:28Z</time>
      </trkpt>
      <trkpt lat="49.44271" lon="0.97515">
        <ele>87.1</ele>
        <time>2020-06-21T07:36:29Z</time>
      </trkpt>
      <trkpt lat="49.44279" lon="0.97496">
        <ele>85.2</ele>
        <time>2020-06-21T07:36:31Z</time>
      </trkpt>
      <trkpt lat="49.44285" lon="0.97484">
        <ele>84.3</ele>
        <time>2020-06-21T07:36:32Z</time>
      </trkpt>
      <trkpt lat="49.4429" lon="0.97474">
        <ele>83.9</ele>
        <time>2020-06-21T07:36:33Z</time>
      </trkpt>
      <trkpt lat="49.44293" lon="0.97467">
        <ele>83.3</ele>
        <time>2020-06-21T07:36:34Z</time>
      </trkpt>
      <trkpt lat="49.44296" lon="0.97461">
        <ele>82.8</ele>
        <time>2020-06-21T07:36:36Z</time>
      </trkpt>
      <trkpt lat="49.44298" lon="0.97455">
        <ele>82.7</ele>
        <time>2020-06-21T07:36:37Z</time>
      </trkpt>
      <trkpt lat="49.443" lon="0.97449">
        <ele>82.6</ele>
        <time>2020-06-21T07:36:38Z</time>
      </trkpt>
      <trkpt lat="49.44304" lon="0.97444">
        <ele>82.5</ele>
        <time>2020-06-21T07:36:39Z</time>
      </trkpt>
      <trkpt lat="49.44306" lon="0.97439">
        <ele>82.5</ele>
        <time>2020-06-21T07:36:41Z</time>
      </trkpt>
      <trkpt lat="49.44308" lon="0.97435">
        <ele>82.5</ele>
        <time>2020-06-21T07:36:42Z</time>
      </trkpt>
      <trkpt lat="49.44308" lon="0.9743">
        <ele>81.9</ele>
        <time>2020-06-21T07:36:43Z</time>
      </trkpt>
      <trkpt lat="49.44309" lon="0.97428">
        <ele>81.8</ele>
        <time>2020-06-21T07:36:44Z</time>
      </trkpt>
      <trkpt lat="49.4431" lon="0.97424">
        <ele>81.5</ele>
        <time>2020-06-21T07:36:46Z</time>
      </trkpt>
      <trkpt lat="49.4431" lon="0.9742">
        <ele>81.1</ele>
        <time>2020-06-21T07:36:48Z</time>
      </trkpt>
      <trkpt lat="49.4431" lon="0.97415">
        <ele>80.9</ele>
        <time>2020-06-21T07:36:49Z</time>
      </trkpt>
      <trkpt lat="49.4431" lon="0.97409">
        <ele>80.2</ele>
        <time>2020-06-21T07:36:50Z</time>
      </trkpt>
      <trkpt lat="49.4431" lon="0.97403">
        <ele>80</ele>
        <time>2020-06-21T07:36:52Z</time>
      </trkpt>
      <trkpt lat="49.44309" lon="0.97393">
        <ele>79.3</ele>
        <time>2020-06-21T07:36:53Z</time>
      </trkpt>
      <trkpt lat="49.44306" lon="0.97378">
        <ele>78.3</ele>
        <time>2020-06-21T07:36:54Z</time>
      </trkpt>
      <trkpt lat="49.44304" lon="0.97366">
        <ele>77.1</ele>
        <time>2020-06-21T07:36:55Z</time>
      </trkpt>
      <trkpt lat="49.44304" lon="0.97358">
        <ele>76.5</ele>
        <time>2020-06-21T07:36:57Z</time>
      </trkpt>
      <trkpt lat="49.44305" lon="0.97351">
        <ele>76.4</ele>
        <time>2020-06-21T07:36:58Z</time>
      </trkpt>
      <trkpt lat="49.44306" lon="0.97341">
        <ele>76</ele>
        <time>2020-06-21T07:37:00Z</time>
      </trkpt>
      <trkpt lat="49.44308" lon="0.9733">
        <ele>75.7</ele>
        <time>2020-06-21T07:37:01Z</time>
      </trkpt>
      <trkpt lat="49.44311" lon="0.97321">
        <ele>75.3</ele>
        <time>2020-06-21T07:37:03Z</time>
      </trkpt>
      <trkpt lat="49.44312" lon="0.97316">
        <ele>75</ele>
        <time>2020-06-21T07:37:04Z</time>
      </trkpt>
      <trkpt lat="49.44315" lon="0.97305">
        <ele>74</ele>
        <time>2020-06-21T07:37:06Z</time>
      </trkpt>
      <trkpt lat="49.44317" lon="0.97294">
        <ele>73.3</ele>
        <time>2020-06-21T07:37:08Z</time>
      </trkpt>
      <trkpt lat="49.44319" lon="0.97286">
        <ele>72.7</ele>
        <time>2020-06-21T07:37:09Z</time>
      </trkpt>
      <trkpt lat="49.44321" lon="0.97278">
        <ele>72.2</ele>
        <time>2020-06-21T07:37:10Z</time>
      </trkpt>
      <trkpt lat="49.44325" lon="0.97267">
        <ele>71.6</ele>
        <time>2020-06-21T07:37:12Z</time>
      </trkpt>
      <trkpt lat="49.44329" lon="0.97255">
        <ele>71.1</ele>
        <time>2020-06-21T07:37:13Z</time>
      </trkpt>
      <trkpt lat="49.44332" lon="0.97248">
        <ele>70.5</ele>
        <time>2020-06-21T07:37:15Z</time>
      </trkpt>
      <trkpt lat="49.44335" lon="0.9724">
        <ele>70.5</ele>
        <time>2020-06-21T07:37:16Z</time>
      </trkpt>
      <trkpt lat="49.44338" lon="0.97232">
        <ele>70.2</ele>
        <time>2020-06-21T07:37:18Z</time>
      </trkpt>
      <trkpt lat="49.44343" lon="0.97222">
        <ele>70</ele>
        <time>2020-06-21T07:37:19Z</time>
      </trkpt>
      <trkpt lat="49.44346" lon="0.97216">
        <ele>69.9</ele>
        <time>2020-06-21T07:37:21Z</time>
      </trkpt>
      <trkpt lat="49.44348" lon="0.9721">
        <ele>69.9</ele>
        <time>2020-06-21T07:37:22Z</time>
      </trkpt>
      <trkpt lat="49.4435" lon="0.97207">
        <ele>70</ele>
        <time>2020-06-21T07:37:23Z</time>
      </trkpt>
      <trkpt lat="49.44352" lon="0.97201">
        <ele>70.1</ele>
        <time>2020-06-21T07:37:25Z</time>
      </trkpt>
      <trkpt lat="49.44354" lon="0.97194">
        <ele>69.4</ele>
        <time>2020-06-21T07:37:26Z</time>
      </trkpt>
      <trkpt lat="49.44356" lon="0.97187">
        <ele>69.5</ele>
        <time>2020-06-21T07:37:27Z</time>
      </trkpt>
      <trkpt lat="49.44359" lon="0.97179">
        <ele>69.3</ele>
        <time>2020-06-21T07:37:29Z</time>
      </trkpt>
      <trkpt lat="49.44361" lon="0.97176">
        <ele>69.5</ele>
        <time>2020-06-21T07:37:30Z</time>
      </trkpt>
      <trkpt lat="49.44363" lon="0.97172">
        <ele>69.2</ele>
        <time>2020-06-21T07:37:32Z</time>
      </trkpt>
      <trkpt lat="49.44365" lon="0.97168">
        <ele>69.3</ele>
        <time>2020-06-21T07:37:33Z</time>
      </trkpt>
      <trkpt lat="49.44367" lon="0.97164">
        <ele>69.4</ele>
        <time>2020-06-21T07:37:34Z</time>
      </trkpt>
      <trkpt lat="49.44369" lon="0.9716">
        <ele>69.8</ele>
        <time>2020-06-21T07:37:35Z</time>
      </trkpt>
      <trkpt lat="49.44373" lon="0.97153">
        <ele>69.7</ele>
        <time>2020-06-21T07:37:37Z</time>
      </trkpt>
      <trkpt lat="49.44375" lon="0.97148">
        <ele>69.8</ele>
        <time>2020-06-21T07:37:38Z</time>
      </trkpt>
      <trkpt lat="49.44377" lon="0.97142">
        <ele>69.7</ele>
        <time>2020-06-21T07:37:39Z</time>
      </trkpt>
      <trkpt lat="49.44378" lon="0.97138">
        <ele>69.4</ele>
        <time>2020-06-21T07:37:41Z</time>
      </trkpt>
      <trkpt lat="49.44378" lon="0.97137">
        <ele>69.4</ele>
        <time>2020-06-21T07:37:42Z</time>
      </trkpt>
      <trkpt lat="49.44377" lon="0.97132">
        <ele>68.6</ele>
        <time>2020-06-21T07:37:44Z</time>
      </trkpt>
      <trkpt lat="49.44377" lon="0.97126">
        <ele>68.8</ele>
        <time>2020-06-21T07:37:45Z</time>
      </trkpt>
      <trkpt lat="49.44379" lon="0.97118">
        <ele>68.1</ele>
        <time>2020-06-21T07:37:46Z</time>
      </trkpt>
      <trkpt lat="49.44382" lon="0.97107">
        <ele>67.2</ele>
        <time>2020-06-21T07:37:48Z</time>
      </trkpt>
      <trkpt lat="49.44385" lon="0.97101">
        <ele>67.3</ele>
        <time>2020-06-21T07:37:49Z</time>
      </trkpt>
      <trkpt lat="49.44387" lon="0.97095">
        <ele>66.9</ele>
        <time>2020-06-21T07:37:50Z</time>
      </trkpt>
      <trkpt lat="49.4439" lon="0.97087">
        <ele>66.7</ele>
        <time>2020-06-21T07:37:52Z</time>
      </trkpt>
      <trkpt lat="49.44391" lon="0.97082">
        <ele>66.3</ele>
        <time>2020-06-21T07:37:53Z</time>
      </trkpt>
      <trkpt lat="49.44393" lon="0.97073">
        <ele>66</ele>
        <time>2020-06-21T07:37:54Z</time>
      </trkpt>
      <trkpt lat="49.44395" lon="0.97066">
        <ele>65.6</ele>
        <time>2020-06-21T07:37:55Z</time>
      </trkpt>
      <trkpt lat="49.44397" lon="0.97059">
        <ele>65</ele>
        <time>2020-06-21T07:37:56Z</time>
      </trkpt>
      <trkpt lat="49.44398" lon="0.97048">
        <ele>63.6</ele>
        <time>2020-06-21T07:37:58Z</time>
      </trkpt>
      <trkpt lat="49.44399" lon="0.97039">
        <ele>62.5</ele>
        <time>2020-06-21T07:37:59Z</time>
      </trkpt>
      <trkpt lat="49.444" lon="0.97029">
        <ele>61.8</ele>
        <time>2020-06-21T07:38:00Z</time>
      </trkpt>
      <trkpt lat="49.44401" lon="0.97021">
        <ele>60.5</ele>
        <time>2020-06-21T07:38:02Z</time>
      </trkpt>
      <trkpt lat="49.44402" lon="0.97018">
        <ele>59.8</ele>
        <time>2020-06-21T07:38:03Z</time>
      </trkpt>
      <trkpt lat="49.44402" lon="0.97017">
        <ele>60.2</ele>
        <time>2020-06-21T07:38:04Z</time>
      </trkpt>
      <trkpt lat="49.44403" lon="0.97016">
        <ele>60.2</ele>
        <time>2020-06-21T07:38:05Z</time>
      </trkpt>
      <trkpt lat="49.44404" lon="0.97012">
        <ele>59.5</ele>
        <time>2020-06-21T07:38:06Z</time>
      </trkpt>
      <trkpt lat="49.44406" lon="0.97005">
        <ele>58.5</ele>
        <time>2020-06-21T07:38:07Z</time>
      </trkpt>
      <trkpt lat="49.44409" lon="0.96993">
        <ele>57.6</ele>
        <time>2020-06-21T07:38:09Z</time>
      </trkpt>
      <trkpt lat="49.44412" lon="0.96984">
        <ele>55.9</ele>
        <time>2020-06-21T07:38:10Z</time>
      </trkpt>
      <trkpt lat="49.44417" lon="0.96969">
        <ele>54.1</ele>
        <time>2020-06-21T07:38:12Z</time>
      </trkpt>
      <trkpt lat="49.4442" lon="0.96961">
        <ele>52.6</ele>
        <time>2020-06-21T07:38:13Z</time>
      </trkpt>
      <trkpt lat="49.44422" lon="0.96955">
        <ele>52.1</ele>
        <time>2020-06-21T07:38:14Z</time>
      </trkpt>
      <trkpt lat="49.44426" lon="0.96946">
        <ele>50.6</ele>
        <time>2020-06-21T07:38:15Z</time>
      </trkpt>
      <trkpt lat="49.44428" lon="0.96941">
        <ele>49</ele>
        <time>2020-06-21T07:38:17Z</time>
      </trkpt>
      <trkpt lat="49.4443" lon="0.96936">
        <ele>48.3</ele>
        <time>2020-06-21T07:38:18Z</time>
      </trkpt>
      <trkpt lat="49.44432" lon="0.96932">
        <ele>47.1</ele>
        <time>2020-06-21T07:38:19Z</time>
      </trkpt>
      <trkpt lat="49.44434" lon="0.96927">
        <ele>46.2</ele>
        <time>2020-06-21T07:38:21Z</time>
      </trkpt>
      <trkpt lat="49.44435" lon="0.96925">
        <ele>46.2</ele>
        <time>2020-06-21T07:38:23Z</time>
      </trkpt>
      <trkpt lat="49.44435" lon="0.96924">
        <ele>44.9</ele>
        <time>2020-06-21T07:38:25Z</time>
      </trkpt>
      <trkpt lat="49.44436" lon="0.96923">
        <ele>45.3</ele>
        <time>2020-06-21T07:38:26Z</time>
      </trkpt>
      <trkpt lat="49.44436" lon="0.96921">
        <ele>45.3</ele>
        <time>2020-06-21T07:38:28Z</time>
      </trkpt>
      <trkpt lat="49.44437" lon="0.9692">
        <ele>45.3</ele>
        <time>2020-06-21T07:38:30Z</time>
      </trkpt>
      <trkpt lat="49.44437" lon="0.96919">
        <ele>43.9</ele>
        <time>2020-06-21T07:38:31Z</time>
      </trkpt>
      <trkpt lat="49.44437" lon="0.96919">
        <ele>43.9</ele>
        <time>2020-06-21T07:38:33Z</time>
      </trkpt>
      <trkpt lat="49.44437" lon="0.96918">
        <ele>43.9</ele>
        <time>2020-06-21T07:38:34Z</time>
      </trkpt>
      <trkpt lat="49.44438" lon="0.96918">
        <ele>43.9</ele>
        <time>2020-06-21T07:38:36Z</time>
      </trkpt>
      <trkpt lat="49.44438" lon="0.96918">
        <ele>43.9</ele>
        <time>2020-06-21T07:38:37Z</time>
      </trkpt>
      <trkpt lat="49.44438" lon="0.96918">
        <ele>43.9</ele>
        <time>2020-06-21T07:38:38Z</time>
      </trkpt>
      <trkpt lat="49.44438" lon="0.96918">
        <ele>43.8</ele>
        <time>2020-06-21T07:38:40Z</time>
      </trkpt>
      <trkpt lat="49.44438" lon="0.96918">
        <ele>43.8</ele>
        <time>2020-06-21T07:38:41Z</time>
      </trkpt>
      <trkpt lat="49.44439" lon="0.96918">
        <ele>44.2</ele>
        <time>2020-06-21T07:38:43Z</time>
      </trkpt>
      <trkpt lat="49.44439" lon="0.96918">
        <ele>44.2</ele>
        <time>2020-06-21T07:38:44Z</time>
      </trkpt>
      <trkpt lat="49.44439" lon="0.96918">
        <ele>44.2</ele>
        <time>2020-06-21T07:38:45Z</time>
      </trkpt>
      <trkpt lat="49.44439" lon="0.96918">
        <ele>44.2</ele>
        <time>2020-06-21T07:38:46Z</time>
      </trkpt>
      <trkpt lat="49.44439" lon="0.96918">
        <ele>44.2</ele>
        <time>2020-06-21T07:38:48Z</time>
      </trkpt>
      <trkpt lat="49.44439" lon="0.96918">
        <ele>44.2</ele>
        <time>2020-06-21T07:38:49Z</time>
      </trkpt>
      <trkpt lat="49.44439" lon="0.96918">
        <ele>44.2</ele>
        <time>2020-06-21T07:38:50Z</time>
      </trkpt>
      <trkpt lat="49.44439" lon="0.96918">
        <ele>44.2</ele>
        <time>2020-06-21T07:38:52Z</time>
      </trkpt>
      <trkpt lat="49.44439" lon="0.96918">
        <ele>44.1</ele>
        <time>2020-06-21T07:38:54Z</time>
      </trkpt>
      <trkpt lat="49.44439" lon="0.96918">
        <ele>44.1</ele>
        <time>2020-06-21T07:38:55Z</time>
      </trkpt>
      <trkpt lat="49.44439" lon="0.96918">
        <ele>44.1</ele>
        <time>2020-06-21T07:38:57Z</time>
      </trkpt>
      <trkpt lat="49.44443" lon="0.96914">
        <ele>43.2</ele>
        <time>2020-06-21T07:38:59Z</time>
      </trkpt>
      <trkpt lat="49.44446" lon="0.96912">
        <ele>43.7</ele>
        <time>2020-06-21T07:39:00Z</time>
      </trkpt>
      <trkpt lat="49.44449" lon="0.96909">
        <ele>42.9</ele>
        <time>2020-06-21T07:39:01Z</time>
      </trkpt>
      <trkpt lat="49.44454" lon="0.96905">
        <ele>42.8</ele>
        <time>2020-06-21T07:39:03Z</time>
      </trkpt>
      <trkpt lat="49.4446" lon="0.96905">
        <ele>43.8</ele>
        <time>2020-06-21T07:39:05Z</time>
      </trkpt>
      <trkpt lat="49.44464" lon="0.96902">
        <ele>43.7</ele>
        <time>2020-06-21T07:39:06Z</time>
      </trkpt>
      <trkpt lat="49.44466" lon="0.96902">
        <ele>43.7</ele>
        <time>2020-06-21T07:39:07Z</time>
      </trkpt>
      <trkpt lat="49.44469" lon="0.96901">
        <ele>44.2</ele>
        <time>2020-06-21T07:39:09Z</time>
      </trkpt>
      <trkpt lat="49.44472" lon="0.96899">
        <ele>45.2</ele>
        <time>2020-06-21T07:39:10Z</time>
      </trkpt>
      <trkpt lat="49.44481" lon="0.969">
        <ele>46.4</ele>
        <time>2020-06-21T07:39:12Z</time>
      </trkpt>
      <trkpt lat="49.44488" lon="0.96902">
        <ele>47</ele>
        <time>2020-06-21T07:39:13Z</time>
      </trkpt>
      <trkpt lat="49.44495" lon="0.96905">
        <ele>48.4</ele>
        <time>2020-06-21T07:39:15Z</time>
      </trkpt>
      <trkpt lat="49.445" lon="0.96908">
        <ele>49.3</ele>
        <time>2020-06-21T07:39:16Z</time>
      </trkpt>
      <trkpt lat="49.44503" lon="0.9691">
        <ele>49.3</ele>
        <time>2020-06-21T07:39:18Z</time>
      </trkpt>
      <trkpt lat="49.44508" lon="0.96912">
        <ele>50.1</ele>
        <time>2020-06-21T07:39:20Z</time>
      </trkpt>
      <trkpt lat="49.4451" lon="0.96912">
        <ele>50</ele>
        <time>2020-06-21T07:39:21Z</time>
      </trkpt>
      <trkpt lat="49.44511" lon="0.96913">
        <ele>49.9</ele>
        <time>2020-06-21T07:39:22Z</time>
      </trkpt>
      <trkpt lat="49.44513" lon="0.96914">
        <ele>49.9</ele>
        <time>2020-06-21T07:39:23Z</time>
      </trkpt>
      <trkpt lat="49.44517" lon="0.96917">
        <ele>50.4</ele>
        <time>2020-06-21T07:39:25Z</time>
      </trkpt>
      <trkpt lat="49.4452" lon="0.9692">
        <ele>51</ele>
        <time>2020-06-21T07:39:26Z</time>
      </trkpt>
      <trkpt lat="49.44526" lon="0.96923">
        <ele>50.5</ele>
        <time>2020-06-21T07:39:28Z</time>
      </trkpt>
      <trkpt lat="49.44529" lon="0.96924">
        <ele>50.2</ele>
        <time>2020-06-21T07:39:29Z</time>
      </trkpt>
      <trkpt lat="49.44532" lon="0.96924">
        <ele>49.9</ele>
        <time>2020-06-21T07:39:30Z</time>
      </trkpt>
      <trkpt lat="49.44536" lon="0.96926">
        <ele>50.2</ele>
        <time>2020-06-21T07:39:32Z</time>
      </trkpt>
      <trkpt lat="49.44539" lon="0.96929">
        <ele>49.8</ele>
        <time>2020-06-21T07:39:33Z</time>
      </trkpt>
      <trkpt lat="49.44542" lon="0.96932">
        <ele>49.7</ele>
        <time>2020-06-21T07:39:34Z</time>
      </trkpt>
      <trkpt lat="49.44544" lon="0.96933">
        <ele>50.2</ele>
        <time>2020-06-21T07:39:35Z</time>
      </trkpt>
      <trkpt lat="49.44547" lon="0.96934">
        <ele>49.5</ele>
        <time>2020-06-21T07:39:37Z</time>
      </trkpt>
      <trkpt lat="49.44548" lon="0.96935">
        <ele>49.5</ele>
        <time>2020-06-21T07:39:38Z</time>
      </trkpt>
      <trkpt lat="49.44551" lon="0.96938">
        <ele>49.6</ele>
        <time>2020-06-21T07:39:39Z</time>
      </trkpt>
      <trkpt lat="49.44552" lon="0.96939">
        <ele>49.6</ele>
        <time>2020-06-21T07:39:40Z</time>
      </trkpt>
      <trkpt lat="49.44553" lon="0.96942">
        <ele>50.1</ele>
        <time>2020-06-21T07:39:41Z</time>
      </trkpt>
      <trkpt lat="49.44554" lon="0.96946">
        <ele>49.7</ele>
        <time>2020-06-21T07:39:43Z</time>
      </trkpt>
      <trkpt lat="49.44556" lon="0.96948">
        <ele>50.2</ele>
        <time>2020-06-21T07:39:45Z</time>
      </trkpt>
      <trkpt lat="49.44557" lon="0.9695">
        <ele>49.7</ele>
        <time>2020-06-21T07:39:46Z</time>
      </trkpt>
      <trkpt lat="49.44558" lon="0.96953">
        <ele>50.2</ele>
        <time>2020-06-21T07:39:47Z</time>
      </trkpt>
      <trkpt lat="49.44559" lon="0.96954">
        <ele>49.8</ele>
        <time>2020-06-21T07:39:49Z</time>
      </trkpt>
      <trkpt lat="49.4456" lon="0.96956">
        <ele>50.3</ele>
        <time>2020-06-21T07:39:50Z</time>
      </trkpt>
      <trkpt lat="49.44561" lon="0.96957">
        <ele>50.3</ele>
        <time>2020-06-21T07:39:51Z</time>
      </trkpt>
      <trkpt lat="49.44562" lon="0.96959">
        <ele>49.9</ele>
        <time>2020-06-21T07:39:52Z</time>
      </trkpt>
      <trkpt lat="49.44564" lon="0.96962">
        <ele>50.4</ele>
        <time>2020-06-21T07:39:53Z</time>
      </trkpt>
      <trkpt lat="49.44566" lon="0.96966">
        <ele>50.7</ele>
        <time>2020-06-21T07:39:54Z</time>
      </trkpt>
      <trkpt lat="49.44568" lon="0.96967">
        <ele>50.3</ele>
        <time>2020-06-21T07:39:56Z</time>
      </trkpt>
      <trkpt lat="49.44569" lon="0.96969">
        <ele>51</ele>
        <time>2020-06-21T07:39:57Z</time>
      </trkpt>
      <trkpt lat="49.4457" lon="0.9697">
        <ele>50.6</ele>
        <time>2020-06-21T07:39:58Z</time>
      </trkpt>
      <trkpt lat="49.44573" lon="0.96973">
        <ele>50.9</ele>
        <time>2020-06-21T07:40:00Z</time>
      </trkpt>
      <trkpt lat="49.44575" lon="0.96974">
        <ele>50.9</ele>
        <time>2020-06-21T07:40:01Z</time>
      </trkpt>
      <trkpt lat="49.44576" lon="0.96976">
        <ele>51.2</ele>
        <time>2020-06-21T07:40:03Z</time>
      </trkpt>
      <trkpt lat="49.44576" lon="0.96977">
        <ele>51.2</ele>
        <time>2020-06-21T07:40:04Z</time>
      </trkpt>
      <trkpt lat="49.44577" lon="0.96977">
        <ele>51.2</ele>
        <time>2020-06-21T07:40:06Z</time>
      </trkpt>
      <trkpt lat="49.44577" lon="0.9698">
        <ele>51.8</ele>
        <time>2020-06-21T07:40:08Z</time>
      </trkpt>
      <trkpt lat="49.44577" lon="0.96981">
        <ele>51.8</ele>
        <time>2020-06-21T07:40:09Z</time>
      </trkpt>
      <trkpt lat="49.44577" lon="0.96982">
        <ele>51.7</ele>
        <time>2020-06-21T07:40:11Z</time>
      </trkpt>
      <trkpt lat="49.44577" lon="0.96982">
        <ele>51.7</ele>
        <time>2020-06-21T07:40:13Z</time>
      </trkpt>
      <trkpt lat="49.44577" lon="0.96983">
        <ele>51.7</ele>
        <time>2020-06-21T07:40:14Z</time>
      </trkpt>
      <trkpt lat="49.44578" lon="0.96983">
        <ele>51.7</ele>
        <time>2020-06-21T07:40:16Z</time>
      </trkpt>
      <trkpt lat="49.44578" lon="0.96984">
        <ele>51.3</ele>
        <time>2020-06-21T07:40:17Z</time>
      </trkpt>
      <trkpt lat="49.44578" lon="0.96984">
        <ele>51.3</ele>
        <time>2020-06-21T07:40:18Z</time>
      </trkpt>
      <trkpt lat="49.44578" lon="0.96984">
        <ele>51.3</ele>
        <time>2020-06-21T07:40:20Z</time>
      </trkpt>
      <trkpt lat="49.44579" lon="0.96984">
        <ele>51.2</ele>
        <time>2020-06-21T07:40:21Z</time>
      </trkpt>
      <trkpt lat="49.44579" lon="0.96984">
        <ele>51.2</ele>
        <time>2020-06-21T07:40:22Z</time>
      </trkpt>
      <trkpt lat="49.4458" lon="0.96984">
        <ele>51.2</ele>
        <time>2020-06-21T07:40:23Z</time>
      </trkpt>
      <trkpt lat="49.4458" lon="0.96984">
        <ele>51.8</ele>
        <time>2020-06-21T07:40:25Z</time>
      </trkpt>
      <trkpt lat="49.44581" lon="0.96985">
        <ele>51.3</ele>
        <time>2020-06-21T07:40:26Z</time>
      </trkpt>
      <trkpt lat="49.44581" lon="0.96985">
        <ele>51.3</ele>
        <time>2020-06-21T07:40:27Z</time>
      </trkpt>
      <trkpt lat="49.44582" lon="0.96985">
        <ele>51.3</ele>
        <time>2020-06-21T07:40:29Z</time>
      </trkpt>
      <trkpt lat="49.44582" lon="0.96985">
        <ele>51.3</ele>
        <time>2020-06-21T07:40:31Z</time>
      </trkpt>
      <trkpt lat="49.44582" lon="0.96986">
        <ele>51.3</ele>
        <time>2020-06-21T07:40:33Z</time>
      </trkpt>
      <trkpt lat="49.44583" lon="0.96986">
        <ele>51.2</ele>
        <time>2020-06-21T07:40:34Z</time>
      </trkpt>
      <trkpt lat="49.44583" lon="0.96986">
        <ele>51.2</ele>
        <time>2020-06-21T07:40:35Z</time>
      </trkpt>
      <trkpt lat="49.44583" lon="0.96986">
        <ele>51.2</ele>
        <time>2020-06-21T07:40:36Z</time>
      </trkpt>
      <trkpt lat="49.44583" lon="0.96987">
        <ele>51.2</ele>
        <time>2020-06-21T07:40:37Z</time>
      </trkpt>
      <trkpt lat="49.44583" lon="0.96987">
        <ele>51.2</ele>
        <time>2020-06-21T07:40:38Z</time>
      </trkpt>
      <trkpt lat="49.44583" lon="0.96987">
        <ele>51.2</ele>
        <time>2020-06-21T07:40:39Z</time>
      </trkpt>
      <trkpt lat="49.44584" lon="0.96988">
        <ele>51.2</ele>
        <time>2020-06-21T07:40:41Z</time>
      </trkpt>
      <trkpt lat="49.44583" lon="0.96988">
        <ele>51.2</ele>
        <time>2020-06-21T07:40:42Z</time>
      </trkpt>
      <trkpt lat="49.44584" lon="0.96988">
        <ele>51.1</ele>
        <time>2020-06-21T07:40:43Z</time>
      </trkpt>
      <trkpt lat="49.44582" lon="0.96989">
        <ele>51.1</ele>
        <time>2020-06-21T07:40:45Z</time>
      </trkpt>
      <trkpt lat="49.44581" lon="0.96989">
        <ele>51.6</ele>
        <time>2020-06-21T07:40:47Z</time>
      </trkpt>
      <trkpt lat="49.4458" lon="0.96989">
        <ele>52.1</ele>
        <time>2020-06-21T07:40:49Z</time>
      </trkpt>
      <trkpt lat="49.44579" lon="0.96989">
        <ele>52.1</ele>
        <time>2020-06-21T07:40:50Z</time>
      </trkpt>
      <trkpt lat="49.44578" lon="0.96989">
        <ele>52</ele>
        <time>2020-06-21T07:40:51Z</time>
      </trkpt>
      <trkpt lat="49.44577" lon="0.96989">
        <ele>52.5</ele>
        <time>2020-06-21T07:40:53Z</time>
      </trkpt>
      <trkpt lat="49.44576" lon="0.96989">
        <ele>52.5</ele>
        <time>2020-06-21T07:40:54Z</time>
      </trkpt>
      <trkpt lat="49.44575" lon="0.96989">
        <ele>52.9</ele>
        <time>2020-06-21T07:40:55Z</time>
      </trkpt>
      <trkpt lat="49.44574" lon="0.96989">
        <ele>52.9</ele>
        <time>2020-06-21T07:40:57Z</time>
      </trkpt>
      <trkpt lat="49.44574" lon="0.96989">
        <ele>52.8</ele>
        <time>2020-06-21T07:40:58Z</time>
      </trkpt>
      <trkpt lat="49.44574" lon="0.96989">
        <ele>52.8</ele>
        <time>2020-06-21T07:41:00Z</time>
      </trkpt>
      <trkpt lat="49.44574" lon="0.96989">
        <ele>52.8</ele>
        <time>2020-06-21T07:41:01Z</time>
      </trkpt>
      <trkpt lat="49.44574" lon="0.96989">
        <ele>52.8</ele>
        <time>2020-06-21T07:41:02Z</time>
      </trkpt>
      <trkpt lat="49.44574" lon="0.96989">
        <ele>52.8</ele>
        <time>2020-06-21T07:41:04Z</time>
      </trkpt>
      <trkpt lat="49.44574" lon="0.96989">
        <ele>52.8</ele>
        <time>2020-06-21T07:41:06Z</time>
      </trkpt>
      <trkpt lat="49.44574" lon="0.96989">
        <ele>52.8</ele>
        <time>2020-06-21T07:41:07Z</time>
      </trkpt>
      <trkpt lat="49.44574" lon="0.96989">
        <ele>52.7</ele>
        <time>2020-06-21T07:41:09Z</time>
      </trkpt>
      <trkpt lat="49.44574" lon="0.96989">
        <ele>52.7</ele>
        <time>2020-06-21T07:41:10Z</time>
      </trkpt>
      <trkpt lat="49.44574" lon="0.96989">
        <ele>52.7</ele>
        <time>2020-06-21T07:41:11Z</time>
      </trkpt>
      <trkpt lat="49.44574" lon="0.96989">
        <ele>52.7</ele>
        <time>2020-06-21T07:41:12Z</time>
      </trkpt>
      <trkpt lat="49.44575" lon="0.96991">
        <ele>52.7</ele>
        <time>2020-06-21T07:41:14Z</time>
      </trkpt>
      <trkpt lat="49.44577" lon="0.96996">
        <ele>52.8</ele>
        <time>2020-06-21T07:41:16Z</time>
      </trkpt>
      <trkpt lat="49.44578" lon="0.97001">
        <ele>52.9</ele>
        <time>2020-06-21T07:41:17Z</time>
      </trkpt>
      <trkpt lat="49.44579" lon="0.97002">
        <ele>53.5</ele>
        <time>2020-06-21T07:41:18Z</time>
      </trkpt>
      <trkpt lat="49.44578" lon="0.97003">
        <ele>53.5</ele>
        <time>2020-06-21T07:41:19Z</time>
      </trkpt>
      <trkpt lat="49.44579" lon="0.97005">
        <ele>53.4</ele>
        <time>2020-06-21T07:41:21Z</time>
      </trkpt>
      <trkpt lat="49.44581" lon="0.97008">
        <ele>54</ele>
        <time>2020-06-21T07:41:23Z</time>
      </trkpt>
      <trkpt lat="49.44581" lon="0.9701">
        <ele>53.5</ele>
        <time>2020-06-21T07:41:24Z</time>
      </trkpt>
      <trkpt lat="49.44583" lon="0.97014">
        <ele>54.1</ele>
        <time>2020-06-21T07:41:26Z</time>
      </trkpt>
      <trkpt lat="49.44586" lon="0.97018">
        <ele>54.1</ele>
        <time>2020-06-21T07:41:27Z</time>
      </trkpt>
      <trkpt lat="49.44587" lon="0.9702">
        <ele>54.2</ele>
        <time>2020-06-21T07:41:28Z</time>
      </trkpt>
      <trkpt lat="49.44591" lon="0.97023">
        <ele>54.2</ele>
        <time>2020-06-21T07:41:30Z</time>
      </trkpt>
      <trkpt lat="49.44594" lon="0.97029">
        <ele>54.2</ele>
        <time>2020-06-21T07:41:32Z</time>
      </trkpt>
      <trkpt lat="49.44596" lon="0.97036">
        <ele>54.5</ele>
        <time>2020-06-21T07:41:34Z</time>
      </trkpt>
      <trkpt lat="49.44598" lon="0.97042">
        <ele>54.3</ele>
        <time>2020-06-21T07:41:35Z</time>
      </trkpt>
      <trkpt lat="49.44599" lon="0.97044">
        <ele>54.3</ele>
        <time>2020-06-21T07:41:36Z</time>
      </trkpt>
      <trkpt lat="49.44602" lon="0.9705">
        <ele>54.4</ele>
        <time>2020-06-21T07:41:37Z</time>
      </trkpt>
      <trkpt lat="49.44607" lon="0.97064">
        <ele>54.1</ele>
        <time>2020-06-21T07:41:39Z</time>
      </trkpt>
      <trkpt lat="49.44611" lon="0.97071">
        <ele>54.1</ele>
        <time>2020-06-21T07:41:40Z</time>
      </trkpt>
      <trkpt lat="49.44614" lon="0.97077">
        <ele>53.8</ele>
        <time>2020-06-21T07:41:41Z</time>
      </trkpt>
      <trkpt lat="49.44618" lon="0.97083">
        <ele>52.9</ele>
        <time>2020-06-21T07:41:43Z</time>
      </trkpt>
      <trkpt lat="49.4462" lon="0.97088">
        <ele>52.5</ele>
        <time>2020-06-21T07:41:44Z</time>
      </trkpt>
      <trkpt lat="49.44623" lon="0.97095">
        <ele>52</ele>
        <time>2020-06-21T07:41:46Z</time>
      </trkpt>
      <trkpt lat="49.44625" lon="0.97099">
        <ele>52.1</ele>
        <time>2020-06-21T07:41:47Z</time>
      </trkpt>
      <trkpt lat="49.44627" lon="0.97104">
        <ele>51.6</ele>
        <time>2020-06-21T07:41:48Z</time>
      </trkpt>
      <trkpt lat="49.44627" lon="0.97105">
        <ele>51.6</ele>
        <time>2020-06-21T07:41:49Z</time>
      </trkpt>
      <trkpt lat="49.44627" lon="0.9711">
        <ele>51.7</ele>
        <time>2020-06-21T07:41:51Z</time>
      </trkpt>
      <trkpt lat="49.44627" lon="0.97111">
        <ele>51.6</ele>
        <time>2020-06-21T07:41:52Z</time>
      </trkpt>
      <trkpt lat="49.44628" lon="0.97115">
        <ele>51.7</ele>
        <time>2020-06-21T07:41:54Z</time>
      </trkpt>
      <trkpt lat="49.44629" lon="0.9712">
        <ele>51.2</ele>
        <time>2020-06-21T07:41:55Z</time>
      </trkpt>
      <trkpt lat="49.44629" lon="0.97125">
        <ele>51.3</ele>
        <time>2020-06-21T07:41:57Z</time>
      </trkpt>
      <trkpt lat="49.44629" lon="0.97129">
        <ele>51.4</ele>
        <time>2020-06-21T07:41:58Z</time>
      </trkpt>
      <trkpt lat="49.4463" lon="0.97136">
        <ele>51.7</ele>
        <time>2020-06-21T07:42:00Z</time>
      </trkpt>
      <trkpt lat="49.44632" lon="0.97142">
        <ele>51.4</ele>
        <time>2020-06-21T07:42:01Z</time>
      </trkpt>
      <trkpt lat="49.44633" lon="0.97147">
        <ele>51.5</ele>
        <time>2020-06-21T07:42:03Z</time>
      </trkpt>
      <trkpt lat="49.44634" lon="0.97152">
        <ele>51</ele>
        <time>2020-06-21T07:42:04Z</time>
      </trkpt>
      <trkpt lat="49.44635" lon="0.97157">
        <ele>50.9</ele>
        <time>2020-06-21T07:42:05Z</time>
      </trkpt>
      <trkpt lat="49.44636" lon="0.97164">
        <ele>50.8</ele>
        <time>2020-06-21T07:42:06Z</time>
      </trkpt>
      <trkpt lat="49.44637" lon="0.9717">
        <ele>49.7</ele>
        <time>2020-06-21T07:42:07Z</time>
      </trkpt>
      <trkpt lat="49.44638" lon="0.97175">
        <ele>49.6</ele>
        <time>2020-06-21T07:42:09Z</time>
      </trkpt>
      <trkpt lat="49.44639" lon="0.97183">
        <ele>49.3</ele>
        <time>2020-06-21T07:42:11Z</time>
      </trkpt>
      <trkpt lat="49.4464" lon="0.97186">
        <ele>48.6</ele>
        <time>2020-06-21T07:42:12Z</time>
      </trkpt>
      <trkpt lat="49.44641" lon="0.97191">
        <ele>48.7</ele>
        <time>2020-06-21T07:42:14Z</time>
      </trkpt>
      <trkpt lat="49.44641" lon="0.97195">
        <ele>48.9</ele>
        <time>2020-06-21T07:42:15Z</time>
      </trkpt>
      <trkpt lat="49.4464" lon="0.97201">
        <ele>49</ele>
        <time>2020-06-21T07:42:16Z</time>
      </trkpt>
      <trkpt lat="49.4464" lon="0.97203">
        <ele>49.1</ele>
        <time>2020-06-21T07:42:17Z</time>
      </trkpt>
      <trkpt lat="49.4464" lon="0.97207">
        <ele>49.2</ele>
        <time>2020-06-21T07:42:18Z</time>
      </trkpt>
      <trkpt lat="49.4464" lon="0.97212">
        <ele>49.3</ele>
        <time>2020-06-21T07:42:20Z</time>
      </trkpt>
      <trkpt lat="49.4464" lon="0.97214">
        <ele>49.4</ele>
        <time>2020-06-21T07:42:21Z</time>
      </trkpt>
      <trkpt lat="49.4464" lon="0.9722">
        <ele>49.6</ele>
        <time>2020-06-21T07:42:23Z</time>
      </trkpt>
      <trkpt lat="49.4464" lon="0.97224">
        <ele>49.7</ele>
        <time>2020-06-21T07:42:24Z</time>
      </trkpt>
      <trkpt lat="49.4464" lon="0.97233">
        <ele>49.9</ele>
        <time>2020-06-21T07:42:26Z</time>
      </trkpt>
      <trkpt lat="49.4464" lon="0.97237">
        <ele>50</ele>
        <time>2020-06-21T07:42:27Z</time>
      </trkpt>
      <trkpt lat="49.4464" lon="0.97243">
        <ele>50.2</ele>
        <time>2020-06-21T07:42:29Z</time>
      </trkpt>
      <trkpt lat="49.44641" lon="0.97251">
        <ele>50.4</ele>
        <time>2020-06-21T07:42:31Z</time>
      </trkpt>
      <trkpt lat="49.44641" lon="0.97259">
        <ele>50.6</ele>
        <time>2020-06-21T07:42:32Z</time>
      </trkpt>
      <trkpt lat="49.44641" lon="0.97265">
        <ele>50.8</ele>
        <time>2020-06-21T07:42:33Z</time>
      </trkpt>
      <trkpt lat="49.44641" lon="0.9727">
        <ele>50.9</ele>
        <time>2020-06-21T07:42:34Z</time>
      </trkpt>
      <trkpt lat="49.44641" lon="0.97274">
        <ele>51</ele>
        <time>2020-06-21T07:42:36Z</time>
      </trkpt>
      <trkpt lat="49.44641" lon="0.97277">
        <ele>51.1</ele>
        <time>2020-06-21T07:42:37Z</time>
      </trkpt>
      <trkpt lat="49.4464" lon="0.9728">
        <ele>51.2</ele>
        <time>2020-06-21T07:42:38Z</time>
      </trkpt>
      <trkpt lat="49.4464" lon="0.97284">
        <ele>51.3</ele>
        <time>2020-06-21T07:42:39Z</time>
      </trkpt>
      <trkpt lat="49.4464" lon="0.97289">
        <ele>51.4</ele>
        <time>2020-06-21T07:42:41Z</time>
      </trkpt>
      <trkpt lat="49.44639" lon="0.97293">
        <ele>51.6</ele>
        <time>2020-06-21T07:42:42Z</time>
      </trkpt>
      <trkpt lat="49.44639" lon="0.97301">
        <ele>51.8</ele>
        <time>2020-06-21T07:42:43Z</time>
      </trkpt>
      <trkpt lat="49.44638" lon="0.97312">
        <ele>52</ele>
        <time>2020-06-21T07:42:45Z</time>
      </trkpt>
      <trkpt lat="49.44638" lon="0.9732">
        <ele>52.2</ele>
        <time>2020-06-21T07:42:46Z</time>
      </trkpt>
      <trkpt lat="49.44639" lon="0.97326">
        <ele>52.4</ele>
        <time>2020-06-21T07:42:47Z</time>
      </trkpt>
      <trkpt lat="49.44639" lon="0.97332">
        <ele>52.5</ele>
        <time>2020-06-21T07:42:48Z</time>
      </trkpt>
      <trkpt lat="49.44639" lon="0.97339">
        <ele>52.7</ele>
        <time>2020-06-21T07:42:49Z</time>
      </trkpt>
      <trkpt lat="49.44638" lon="0.97348">
        <ele>52.9</ele>
        <time>2020-06-21T07:42:51Z</time>
      </trkpt>
      <trkpt lat="49.44637" lon="0.97353">
        <ele>53</ele>
        <time>2020-06-21T07:42:52Z</time>
      </trkpt>
      <trkpt lat="49.44635" lon="0.97361">
        <ele>53.2</ele>
        <time>2020-06-21T07:42:54Z</time>
      </trkpt>
      <trkpt lat="49.44634" lon="0.97366">
        <ele>53.3</ele>
        <time>2020-06-21T07:42:55Z</time>
      </trkpt>
      <trkpt lat="49.44633" lon="0.9737">
        <ele>53.4</ele>
        <time>2020-06-21T07:42:56Z</time>
      </trkpt>
      <trkpt lat="49.44633" lon="0.97374">
        <ele>53.5</ele>
        <time>2020-06-21T07:42:57Z</time>
      </trkpt>
      <trkpt lat="49.44632" lon="0.97377">
        <ele>53.6</ele>
        <time>2020-06-21T07:42:59Z</time>
      </trkpt>
      <trkpt lat="49.44633" lon="0.97384">
        <ele>53.8</ele>
        <time>2020-06-21T07:43:01Z</time>
      </trkpt>
      <trkpt lat="49.44633" lon="0.9739">
        <ele>53.9</ele>
        <time>2020-06-21T07:43:02Z</time>
      </trkpt>
      <trkpt lat="49.44632" lon="0.97392">
        <ele>54</ele>
        <time>2020-06-21T07:43:03Z</time>
      </trkpt>
      <trkpt lat="49.44632" lon="0.97396">
        <ele>54.1</ele>
        <time>2020-06-21T07:43:05Z</time>
      </trkpt>
      <trkpt lat="49.44632" lon="0.97398">
        <ele>54.1</ele>
        <time>2020-06-21T07:43:06Z</time>
      </trkpt>
      <trkpt lat="49.44633" lon="0.97403">
        <ele>54.3</ele>
        <time>2020-06-21T07:43:07Z</time>
      </trkpt>
      <trkpt lat="49.44633" lon="0.97404">
        <ele>54.3</ele>
        <time>2020-06-21T07:43:08Z</time>
      </trkpt>
      <trkpt lat="49.44634" lon="0.9741">
        <ele>54.5</ele>
        <time>2020-06-21T07:43:10Z</time>
      </trkpt>
      <trkpt lat="49.44636" lon="0.97414">
        <ele>54.5</ele>
        <time>2020-06-21T07:43:12Z</time>
      </trkpt>
      <trkpt lat="49.44637" lon="0.97416">
        <ele>54.5</ele>
        <time>2020-06-21T07:43:13Z</time>
      </trkpt>
      <trkpt lat="49.44639" lon="0.97418">
        <ele>54.4</ele>
        <time>2020-06-21T07:43:15Z</time>
      </trkpt>
      <trkpt lat="49.4464" lon="0.97418">
        <ele>54.3</ele>
        <time>2020-06-21T07:43:16Z</time>
      </trkpt>
      <trkpt lat="49.44642" lon="0.97417">
        <ele>54.3</ele>
        <time>2020-06-21T07:43:17Z</time>
      </trkpt>
      <trkpt lat="49.44643" lon="0.97416">
        <ele>54.2</ele>
        <time>2020-06-21T07:43:18Z</time>
      </trkpt>
      <trkpt lat="49.44644" lon="0.97416">
        <ele>54.2</ele>
        <time>2020-06-21T07:43:20Z</time>
      </trkpt>
      <trkpt lat="49.44645" lon="0.97416">
        <ele>54.2</ele>
        <time>2020-06-21T07:43:21Z</time>
      </trkpt>
      <trkpt lat="49.44647" lon="0.97417">
        <ele>54.1</ele>
        <time>2020-06-21T07:43:22Z</time>
      </trkpt>
      <trkpt lat="49.44648" lon="0.97416">
        <ele>54.1</ele>
        <time>2020-06-21T07:43:23Z</time>
      </trkpt>
      <trkpt lat="49.44648" lon="0.97416">
        <ele>54</ele>
        <time>2020-06-21T07:43:25Z</time>
      </trkpt>
      <trkpt lat="49.44648" lon="0.97414">
        <ele>54</ele>
        <time>2020-06-21T07:43:27Z</time>
      </trkpt>
      <trkpt lat="49.44648" lon="0.97412">
        <ele>54</ele>
        <time>2020-06-21T07:43:28Z</time>
      </trkpt>
      <trkpt lat="49.44648" lon="0.97411">
        <ele>53.9</ele>
        <time>2020-06-21T07:43:30Z</time>
      </trkpt>
      <trkpt lat="49.44647" lon="0.97409">
        <ele>53.9</ele>
        <time>2020-06-21T07:43:31Z</time>
      </trkpt>
      <trkpt lat="49.44647" lon="0.97408">
        <ele>53.9</ele>
        <time>2020-06-21T07:43:32Z</time>
      </trkpt>
      <trkpt lat="49.44646" lon="0.97407">
        <ele>53.8</ele>
        <time>2020-06-21T07:43:33Z</time>
      </trkpt>
      <trkpt lat="49.44644" lon="0.97402">
        <ele>53.7</ele>
        <time>2020-06-21T07:43:34Z</time>
      </trkpt>
      <trkpt lat="49.44643" lon="0.97396">
        <ele>53.6</ele>
        <time>2020-06-21T07:43:36Z</time>
      </trkpt>
      <trkpt lat="49.44643" lon="0.97392">
        <ele>53.5</ele>
        <time>2020-06-21T07:43:37Z</time>
      </trkpt>
      <trkpt lat="49.44643" lon="0.9739">
        <ele>53.5</ele>
        <time>2020-06-21T07:43:38Z</time>
      </trkpt>
      <trkpt lat="49.44643" lon="0.97387">
        <ele>53.4</ele>
        <time>2020-06-21T07:43:39Z</time>
      </trkpt>
      <trkpt lat="49.44644" lon="0.97384">
        <ele>53.3</ele>
        <time>2020-06-21T07:43:41Z</time>
      </trkpt>
      <trkpt lat="49.44644" lon="0.9738">
        <ele>53.3</ele>
        <time>2020-06-21T07:43:42Z</time>
      </trkpt>
      <trkpt lat="49.44644" lon="0.97376">
        <ele>53.2</ele>
        <time>2020-06-21T07:43:44Z</time>
      </trkpt>
      <trkpt lat="49.44645" lon="0.9737">
        <ele>53.1</ele>
        <time>2020-06-21T07:43:45Z</time>
      </trkpt>
      <trkpt lat="49.44646" lon="0.97368">
        <ele>53.1</ele>
        <time>2020-06-21T07:43:46Z</time>
      </trkpt>
      <trkpt lat="49.44646" lon="0.97363">
        <ele>53</ele>
        <time>2020-06-21T07:43:48Z</time>
      </trkpt>
      <trkpt lat="49.44646" lon="0.97362">
        <ele>53</ele>
        <time>2020-06-21T07:43:49Z</time>
      </trkpt>
      <trkpt lat="49.44646" lon="0.97359">
        <ele>52.9</ele>
        <time>2020-06-21T07:43:50Z</time>
      </trkpt>
      <trkpt lat="49.44646" lon="0.97356">
        <ele>52.9</ele>
        <time>2020-06-21T07:43:51Z</time>
      </trkpt>
      <trkpt lat="49.44647" lon="0.97349">
        <ele>52.7</ele>
        <time>2020-06-21T07:43:52Z</time>
      </trkpt>
      <trkpt lat="49.44647" lon="0.9734">
        <ele>52.6</ele>
        <time>2020-06-21T07:43:54Z</time>
      </trkpt>
      <trkpt lat="49.44647" lon="0.97334">
        <ele>52.5</ele>
        <time>2020-06-21T07:43:55Z</time>
      </trkpt>
      <trkpt lat="49.44647" lon="0.97329">
        <ele>52.4</ele>
        <time>2020-06-21T07:43:56Z</time>
      </trkpt>
      <trkpt lat="49.44646" lon="0.97321">
        <ele>52.2</ele>
        <time>2020-06-21T07:43:58Z</time>
      </trkpt>
      <trkpt lat="49.44646" lon="0.97314">
        <ele>52.1</ele>
        <time>2020-06-21T07:43:59Z</time>
      </trkpt>
      <trkpt lat="49.44646" lon="0.97311">
        <ele>52</ele>
        <time>2020-06-21T07:44:00Z</time>
      </trkpt>
      <trkpt lat="49.44645" lon="0.97305">
        <ele>51.9</ele>
        <time>2020-06-21T07:44:02Z</time>
      </trkpt>
      <trkpt lat="49.44645" lon="0.97302">
        <ele>51.9</ele>
        <time>2020-06-21T07:44:03Z</time>
      </trkpt>
      <trkpt lat="49.44645" lon="0.97298">
        <ele>51.8</ele>
        <time>2020-06-21T07:44:05Z</time>
      </trkpt>
      <trkpt lat="49.44646" lon="0.97291">
        <ele>51.6</ele>
        <time>2020-06-21T07:44:07Z</time>
      </trkpt>
      <trkpt lat="49.44647" lon="0.97285">
        <ele>51.5</ele>
        <time>2020-06-21T07:44:08Z</time>
      </trkpt>
      <trkpt lat="49.44649" lon="0.97279">
        <ele>51.4</ele>
        <time>2020-06-21T07:44:09Z</time>
      </trkpt>
      <trkpt lat="49.4465" lon="0.97274">
        <ele>51.2</ele>
        <time>2020-06-21T07:44:11Z</time>
      </trkpt>
      <trkpt lat="49.4465" lon="0.97268">
        <ele>51.1</ele>
        <time>2020-06-21T07:44:12Z</time>
      </trkpt>
      <trkpt lat="49.4465" lon="0.97262">
        <ele>51</ele>
        <time>2020-06-21T07:44:14Z</time>
      </trkpt>
      <trkpt lat="49.44651" lon="0.97259">
        <ele>50.9</ele>
        <time>2020-06-21T07:44:15Z</time>
      </trkpt>
      <trkpt lat="49.44651" lon="0.97257">
        <ele>50.9</ele>
        <time>2020-06-21T07:44:17Z</time>
      </trkpt>
      <trkpt lat="49.44652" lon="0.97255">
        <ele>50.8</ele>
        <time>2020-06-21T07:44:19Z</time>
      </trkpt>
      <trkpt lat="49.44652" lon="0.97253">
        <ele>50.8</ele>
        <time>2020-06-21T07:44:20Z</time>
      </trkpt>
      <trkpt lat="49.44652" lon="0.97251">
        <ele>50.7</ele>
        <time>2020-06-21T07:44:22Z</time>
      </trkpt>
      <trkpt lat="49.44652" lon="0.97248">
        <ele>50.7</ele>
        <time>2020-06-21T07:44:23Z</time>
      </trkpt>
      <trkpt lat="49.44652" lon="0.97247">
        <ele>50.7</ele>
        <time>2020-06-21T07:44:24Z</time>
      </trkpt>
      <trkpt lat="49.44653" lon="0.9724">
        <ele>50.5</ele>
        <time>2020-06-21T07:44:26Z</time>
      </trkpt>
      <trkpt lat="49.44654" lon="0.97232">
        <ele>50.3</ele>
        <time>2020-06-21T07:44:27Z</time>
      </trkpt>
      <trkpt lat="49.44655" lon="0.97227">
        <ele>50.2</ele>
        <time>2020-06-21T07:44:28Z</time>
      </trkpt>
      <trkpt lat="49.44657" lon="0.97221">
        <ele>50.1</ele>
        <time>2020-06-21T07:44:30Z</time>
      </trkpt>
      <trkpt lat="49.44658" lon="0.97214">
        <ele>49.9</ele>
        <time>2020-06-21T07:44:32Z</time>
      </trkpt>
      <trkpt lat="49.44657" lon="0.97205">
        <ele>49.7</ele>
        <time>2020-06-21T07:44:33Z</time>
      </trkpt>
      <trkpt lat="49.44657" lon="0.97199">
        <ele>49.6</ele>
        <time>2020-06-21T07:44:34Z</time>
      </trkpt>
      <trkpt lat="49.44657" lon="0.97189">
        <ele>49.4</ele>
        <time>2020-06-21T07:44:36Z</time>
      </trkpt>
      <trkpt lat="49.44657" lon="0.97179">
        <ele>49.2</ele>
        <time>2020-06-21T07:44:37Z</time>
      </trkpt>
      <trkpt lat="49.44656" lon="0.97172">
        <ele>49</ele>
        <time>2020-06-21T07:44:38Z</time>
      </trkpt>
      <trkpt lat="49.44655" lon="0.97164">
        <ele>48.9</ele>
        <time>2020-06-21T07:44:39Z</time>
      </trkpt>
      <trkpt lat="49.44655" lon="0.97158">
        <ele>48.7</ele>
        <time>2020-06-21T07:44:41Z</time>
      </trkpt>
      <trkpt lat="49.44656" lon="0.97154">
        <ele>48.6</ele>
        <time>2020-06-21T07:44:42Z</time>
      </trkpt>
      <trkpt lat="49.44656" lon="0.9715">
        <ele>48.5</ele>
        <time>2020-06-21T07:44:43Z</time>
      </trkpt>
      <trkpt lat="49.44657" lon="0.97145">
        <ele>48.4</ele>
        <time>2020-06-21T07:44:45Z</time>
      </trkpt>
      <trkpt lat="49.44657" lon="0.97141">
        <ele>48.3</ele>
        <time>2020-06-21T07:44:46Z</time>
      </trkpt>
      <trkpt lat="49.44657" lon="0.97139">
        <ele>48.3</ele>
        <time>2020-06-21T07:44:47Z</time>
      </trkpt>
      <trkpt lat="49.44657" lon="0.97134">
        <ele>48.2</ele>
        <time>2020-06-21T07:44:48Z</time>
      </trkpt>
      <trkpt lat="49.44657" lon="0.97123">
        <ele>48</ele>
        <time>2020-06-21T07:44:50Z</time>
      </trkpt>
      <trkpt lat="49.44656" lon="0.97117">
        <ele>47.9</ele>
        <time>2020-06-21T07:44:51Z</time>
      </trkpt>
      <trkpt lat="49.44657" lon="0.9711">
        <ele>47.7</ele>
        <time>2020-06-21T07:44:53Z</time>
      </trkpt>
      <trkpt lat="49.44658" lon="0.97106">
        <ele>47.6</ele>
        <time>2020-06-21T07:44:54Z</time>
      </trkpt>
      <trkpt lat="49.44659" lon="0.97104">
        <ele>47.6</ele>
        <time>2020-06-21T07:44:55Z</time>
      </trkpt>
      <trkpt lat="49.4466" lon="0.97099">
        <ele>47.5</ele>
        <time>2020-06-21T07:44:56Z</time>
      </trkpt>
      <trkpt lat="49.4466" lon="0.97097">
        <ele>47.4</ele>
        <time>2020-06-21T07:44:57Z</time>
      </trkpt>
      <trkpt lat="49.44661" lon="0.97092">
        <ele>47.3</ele>
        <time>2020-06-21T07:44:59Z</time>
      </trkpt>
      <trkpt lat="49.44662" lon="0.97089">
        <ele>47.3</ele>
        <time>2020-06-21T07:45:00Z</time>
      </trkpt>
      <trkpt lat="49.44661" lon="0.97085">
        <ele>47.2</ele>
        <time>2020-06-21T07:45:02Z</time>
      </trkpt>
      <trkpt lat="49.4466" lon="0.97079">
        <ele>47.1</ele>
        <time>2020-06-21T07:45:03Z</time>
      </trkpt>
      <trkpt lat="49.4466" lon="0.97077">
        <ele>47</ele>
        <time>2020-06-21T07:45:04Z</time>
      </trkpt>
      <trkpt lat="49.4466" lon="0.9707">
        <ele>46.9</ele>
        <time>2020-06-21T07:45:06Z</time>
      </trkpt>
      <trkpt lat="49.44659" lon="0.97065">
        <ele>46.8</ele>
        <time>2020-06-21T07:45:08Z</time>
      </trkpt>
      <trkpt lat="49.44657" lon="0.9706">
        <ele>46.7</ele>
        <time>2020-06-21T07:45:09Z</time>
      </trkpt>
      <trkpt lat="49.44656" lon="0.97056">
        <ele>46.6</ele>
        <time>2020-06-21T07:45:10Z</time>
      </trkpt>
      <trkpt lat="49.44655" lon="0.97051">
        <ele>46.5</ele>
        <time>2020-06-21T07:45:11Z</time>
      </trkpt>
      <trkpt lat="49.44654" lon="0.97049">
        <ele>46.5</ele>
        <time>2020-06-21T07:45:12Z</time>
      </trkpt>
      <trkpt lat="49.44652" lon="0.97045">
        <ele>46.4</ele>
        <time>2020-06-21T07:45:14Z</time>
      </trkpt>
      <trkpt lat="49.4465" lon="0.97039">
        <ele>46.2</ele>
        <time>2020-06-21T07:45:15Z</time>
      </trkpt>
      <trkpt lat="49.44649" lon="0.97035">
        <ele>46.1</ele>
        <time>2020-06-21T07:45:16Z</time>
      </trkpt>
      <trkpt lat="49.44647" lon="0.97029">
        <ele>46</ele>
        <time>2020-06-21T07:45:17Z</time>
      </trkpt>
      <trkpt lat="49.44645" lon="0.97023">
        <ele>45.8</ele>
        <time>2020-06-21T07:45:19Z</time>
      </trkpt>
      <trkpt lat="49.44643" lon="0.97018">
        <ele>45.7</ele>
        <time>2020-06-21T07:45:20Z</time>
      </trkpt>
      <trkpt lat="49.4464" lon="0.9701">
        <ele>45.4</ele>
        <time>2020-06-21T07:45:21Z</time>
      </trkpt>
      <trkpt lat="49.44636" lon="0.96998">
        <ele>45.1</ele>
        <time>2020-06-21T07:45:23Z</time>
      </trkpt>
      <trkpt lat="49.44634" lon="0.96992">
        <ele>44.9</ele>
        <time>2020-06-21T07:45:24Z</time>
      </trkpt>
      <trkpt lat="49.44633" lon="0.96988">
        <ele>44.8</ele>
        <time>2020-06-21T07:45:25Z</time>
      </trkpt>
      <trkpt lat="49.44631" lon="0.96984">
        <ele>44.7</ele>
        <time>2020-06-21T07:45:26Z</time>
      </trkpt>
      <trkpt lat="49.44631" lon="0.96979">
        <ele>44.5</ele>
        <time>2020-06-21T07:45:28Z</time>
      </trkpt>
      <trkpt lat="49.4463" lon="0.96973">
        <ele>44.4</ele>
        <time>2020-06-21T07:45:29Z</time>
      </trkpt>
      <trkpt lat="49.4463" lon="0.96966">
        <ele>44.2</ele>
        <time>2020-06-21T07:45:30Z</time>
      </trkpt>
      <trkpt lat="49.4463" lon="0.9696">
        <ele>44.1</ele>
        <time>2020-06-21T07:45:32Z</time>
      </trkpt>
      <trkpt lat="49.44629" lon="0.96954">
        <ele>43.9</ele>
        <time>2020-06-21T07:45:33Z</time>
      </trkpt>
      <trkpt lat="49.44619" lon="0.96922">
        <ele>43.1</ele>
        <time>2020-06-21T07:45:35Z</time>
      </trkpt>
      <trkpt lat="49.44616" lon="0.9692">
        <ele>43</ele>
        <time>2020-06-21T07:45:36Z</time>
      </trkpt>
      <trkpt lat="49.4461" lon="0.96916">
        <ele>42.8</ele>
        <time>2020-06-21T07:45:38Z</time>
      </trkpt>
      <trkpt lat="49.44607" lon="0.96912">
        <ele>42.6</ele>
        <time>2020-06-21T07:45:39Z</time>
      </trkpt>
      <trkpt lat="49.44603" lon="0.96905">
        <ele>42.4</ele>
        <time>2020-06-21T07:45:41Z</time>
      </trkpt>
      <trkpt lat="49.44603" lon="0.96902">
        <ele>42.3</ele>
        <time>2020-06-21T07:45:42Z</time>
      </trkpt>
      <trkpt lat="49.44605" lon="0.96901">
        <ele>42.3</ele>
        <time>2020-06-21T07:45:44Z</time>
      </trkpt>
      <trkpt lat="49.44606" lon="0.96901">
        <ele>42.2</ele>
        <time>2020-06-21T07:45:45Z</time>
      </trkpt>
      <trkpt lat="49.44607" lon="0.969">
        <ele>42.2</ele>
        <time>2020-06-21T07:45:46Z</time>
      </trkpt>
      <trkpt lat="49.4461" lon="0.96901">
        <ele>42.1</ele>
        <time>2020-06-21T07:45:47Z</time>
      </trkpt>
      <trkpt lat="49.44614" lon="0.96902">
        <ele>41.9</ele>
        <time>2020-06-21T07:45:49Z</time>
      </trkpt>
      <trkpt lat="49.44617" lon="0.96902">
        <ele>41.8</ele>
        <time>2020-06-21T07:45:50Z</time>
      </trkpt>
      <trkpt lat="49.44621" lon="0.96905">
        <ele>41.7</ele>
        <time>2020-06-21T07:45:52Z</time>
      </trkpt>
      <trkpt lat="49.44629" lon="0.96907">
        <ele>41.4</ele>
        <time>2020-06-21T07:45:54Z</time>
      </trkpt>
      <trkpt lat="49.44634" lon="0.96906">
        <ele>41.2</ele>
        <time>2020-06-21T07:45:55Z</time>
      </trkpt>
      <trkpt lat="49.44638" lon="0.96906">
        <ele>41.1</ele>
        <time>2020-06-21T07:45:56Z</time>
      </trkpt>
      <trkpt lat="49.44642" lon="0.96906">
        <ele>40.9</ele>
        <time>2020-06-21T07:45:57Z</time>
      </trkpt>
      <trkpt lat="49.44646" lon="0.96906">
        <ele>40.7</ele>
        <time>2020-06-21T07:45:58Z</time>
      </trkpt>
      <trkpt lat="49.44648" lon="0.96905">
        <ele>40.6</ele>
        <time>2020-06-21T07:45:59Z</time>
      </trkpt>
      <trkpt lat="49.4465" lon="0.96905">
        <ele>40.5</ele>
        <time>2020-06-21T07:46:01Z</time>
      </trkpt>
      <trkpt lat="49.4465" lon="0.96905">
        <ele>40.5</ele>
        <time>2020-06-21T07:46:02Z</time>
      </trkpt>
      <trkpt lat="49.4465" lon="0.96905">
        <ele>40.5</ele>
        <time>2020-06-21T07:46:03Z</time>
      </trkpt>
      <trkpt lat="49.4465" lon="0.96906">
        <ele>40.5</ele>
        <time>2020-06-21T07:46:05Z</time>
      </trkpt>
      <trkpt lat="49.4465" lon="0.96906">
        <ele>40.5</ele>
        <time>2020-06-21T07:46:06Z</time>
      </trkpt>
      <trkpt lat="49.4465" lon="0.96906">
        <ele>40.5</ele>
        <time>2020-06-21T07:46:08Z</time>
      </trkpt>
      <trkpt lat="49.4465" lon="0.96906">
        <ele>40.5</ele>
        <time>2020-06-21T07:46:09Z</time>
      </trkpt>
      <trkpt lat="49.4465" lon="0.96906">
        <ele>40.5</ele>
        <time>2020-06-21T07:46:11Z</time>
      </trkpt>
      <trkpt lat="49.4465" lon="0.96906">
        <ele>40.5</ele>
        <time>2020-06-21T07:46:13Z</time>
      </trkpt>
      <trkpt lat="49.44651" lon="0.96906">
        <ele>40.5</ele>
        <time>2020-06-21T07:46:15Z</time>
      </trkpt>
      <trkpt lat="49.44651" lon="0.96906">
        <ele>40.5</ele>
        <time>2020-06-21T07:46:16Z</time>
      </trkpt>
      <trkpt lat="49.44651" lon="0.96906">
        <ele>40.5</ele>
        <time>2020-06-21T07:46:18Z</time>
      </trkpt>
      <trkpt lat="49.44651" lon="0.96906">
        <ele>40.5</ele>
        <time>2020-06-21T07:46:19Z</time>
      </trkpt>
      <trkpt lat="49.44651" lon="0.96906">
        <ele>40.5</ele>
        <time>2020-06-21T07:46:21Z</time>
      </trkpt>
      <trkpt lat="49.44651" lon="0.96906">
        <ele>40.5</ele>
        <time>2020-06-21T07:46:23Z</time>
      </trkpt>
      <trkpt lat="49.44651" lon="0.96906">
        <ele>40.5</ele>
        <time>2020-06-21T07:46:25Z</time>
      </trkpt>
      <trkpt lat="49.44651" lon="0.96906">
        <ele>40.5</ele>
        <time>2020-06-21T07:46:26Z</time>
      </trkpt>
      <trkpt lat="49.44651" lon="0.96906">
        <ele>40.5</ele>
        <time>2020-06-21T07:46:28Z</time>
      </trkpt>
      <trkpt lat="49.44651" lon="0.96906">
        <ele>40.5</ele>
        <time>2020-06-21T07:46:29Z</time>
      </trkpt>
      <trkpt lat="49.44651" lon="0.96906">
        <ele>40.5</ele>
        <time>2020-06-21T07:46:31Z</time>
      </trkpt>
      <trkpt lat="49.44651" lon="0.96906">
        <ele>40.5</ele>
        <time>2020-06-21T07:46:32Z</time>
      </trkpt>
      <trkpt lat="49.44651" lon="0.96907">
        <ele>40.5</ele>
        <time>2020-06-21T07:46:33Z</time>
      </trkpt>
      <trkpt lat="49.44651" lon="0.96907">
        <ele>40.5</ele>
        <time>2020-06-21T07:46:35Z</time>
      </trkpt>
      <trkpt lat="49.44651" lon="0.96907">
        <ele>40.5</ele>
        <time>2020-06-21T07:46:37Z</time>
      </trkpt>
      <trkpt lat="49.44651" lon="0.96907">
        <ele>40.5</ele>
        <time>2020-06-21T07:46:38Z</time>
      </trkpt>
      <trkpt lat="49.44651" lon="0.96907">
        <ele>40.4</ele>
        <time>2020-06-21T07:46:40Z</time>
      </trkpt>
      <trkpt lat="49.44651" lon="0.96907">
        <ele>40.4</ele>
        <time>2020-06-21T07:46:41Z</time>
      </trkpt>
      <trkpt lat="49.44651" lon="0.96907">
        <ele>40.4</ele>
        <time>2020-06-21T07:46:43Z</time>
      </trkpt>
      <trkpt lat="49.44651" lon="0.96907">
        <ele>40.4</ele>
        <time>2020-06-21T07:46:44Z</time>
      </trkpt>
      <trkpt lat="49.44651" lon="0.96907">
        <ele>40.4</ele>
        <time>2020-06-21T07:46:45Z</time>
      </trkpt>
      <trkpt lat="49.44651" lon="0.96907">
        <ele>40.4</ele>
        <time>2020-06-21T07:46:46Z</time>
      </trkpt>
      <trkpt lat="49.44651" lon="0.96907">
        <ele>40.4</ele>
        <time>2020-06-21T07:46:48Z</time>
      </trkpt>
      <trkpt lat="49.44651" lon="0.96907">
        <ele>40.4</ele>
        <time>2020-06-21T07:46:49Z</time>
      </trkpt>
      <trkpt lat="49.44651" lon="0.96907">
        <ele>40.4</ele>
        <time>2020-06-21T07:46:50Z</time>
      </trkpt>
      <trkpt lat="49.44651" lon="0.96907">
        <ele>40.4</ele>
        <time>2020-06-21T07:46:52Z</time>
      </trkpt>
      <trkpt lat="49.44652" lon="0.96907">
        <ele>40.4</ele>
        <time>2020-06-21T07:46:53Z</time>
      </trkpt>
      <trkpt lat="49.44652" lon="0.96907">
        <ele>40.4</ele>
        <time>2020-06-21T07:46:54Z</time>
      </trkpt>
      <trkpt lat="49.44652" lon="0.96907">
        <ele>40.4</ele>
        <time>2020-06-21T07:46:56Z</time>
      </trkpt>
      <trkpt lat="49.44652" lon="0.96907">
        <ele>40.4</ele>
        <time>2020-06-21T07:46:57Z</time>
      </trkpt>
      <trkpt lat="49.44652" lon="0.96908">
        <ele>40.4</ele>
        <time>2020-06-21T07:46:59Z</time>
      </trkpt>
      <trkpt lat="49.44652" lon="0.96908">
        <ele>40.4</ele>
        <time>2020-06-21T07:47:00Z</time>
      </trkpt>
      <trkpt lat="49.44652" lon="0.96908">
        <ele>40.4</ele>
        <time>2020-06-21T07:47:02Z</time>
      </trkpt>
      <trkpt lat="49.44652" lon="0.96908">
        <ele>40.4</ele>
        <time>2020-06-21T07:47:04Z</time>
      </trkpt>
      <trkpt lat="49.44652" lon="0.96908">
        <ele>40.4</ele>
        <time>2020-06-21T07:47:05Z</time>
      </trkpt>
      <trkpt lat="49.44652" lon="0.96908">
        <ele>40.4</ele>
        <time>2020-06-21T07:47:07Z</time>
      </trkpt>
      <trkpt lat="49.44652" lon="0.96908">
        <ele>40.4</ele>
        <time>2020-06-21T07:47:09Z</time>
      </trkpt>
      <trkpt lat="49.44652" lon="0.96908">
        <ele>40.4</ele>
        <time>2020-06-21T07:47:10Z</time>
      </trkpt>
      <trkpt lat="49.44652" lon="0.96908">
        <ele>40.4</ele>
        <time>2020-06-21T07:47:12Z</time>
      </trkpt>
      <trkpt lat="49.44652" lon="0.96908">
        <ele>40.4</ele>
        <time>2020-06-21T07:47:14Z</time>
      </trkpt>
      <trkpt lat="49.44652" lon="0.96908">
        <ele>40.4</ele>
        <time>2020-06-21T07:47:15Z</time>
      </trkpt>
      <trkpt lat="49.44652" lon="0.96908">
        <ele>40.4</ele>
        <time>2020-06-21T07:47:17Z</time>
      </trkpt>
      <trkpt lat="49.44652" lon="0.96908">
        <ele>40.4</ele>
        <time>2020-06-21T07:47:19Z</time>
      </trkpt>
      <trkpt lat="49.44652" lon="0.96908">
        <ele>40.4</ele>
        <time>2020-06-21T07:47:20Z</time>
      </trkpt>
      <trkpt lat="49.44652" lon="0.96908">
        <ele>40.4</ele>
        <time>2020-06-21T07:47:21Z</time>
      </trkpt>
      <trkpt lat="49.44652" lon="0.96908">
        <ele>40.4</ele>
        <time>2020-06-21T07:47:23Z</time>
      </trkpt>
      <trkpt lat="49.44652" lon="0.96908">
        <ele>40.4</ele>
        <time>2020-06-21T07:47:24Z</time>
      </trkpt>
      <trkpt lat="49.44652" lon="0.96909">
        <ele>40.4</ele>
        <time>2020-06-21T07:47:26Z</time>
      </trkpt>
      <trkpt lat="49.44652" lon="0.96909">
        <ele>40.4</ele>
        <time>2020-06-21T07:47:27Z</time>
      </trkpt>
      <trkpt lat="49.44652" lon="0.96909">
        <ele>40.4</ele>
        <time>2020-06-21T07:47:28Z</time>
      </trkpt>
      <trkpt lat="49.44652" lon="0.96909">
        <ele>40.4</ele>
        <time>2020-06-21T07:47:30Z</time>
      </trkpt>
      <trkpt lat="49.44653" lon="0.96909">
        <ele>40.3</ele>
        <time>2020-06-21T07:47:32Z</time>
      </trkpt>
      <trkpt lat="49.44653" lon="0.96909">
        <ele>40.3</ele>
        <time>2020-06-21T07:47:34Z</time>
      </trkpt>
      <trkpt lat="49.44653" lon="0.96909">
        <ele>40.3</ele>
        <time>2020-06-21T07:47:35Z</time>
      </trkpt>
      <trkpt lat="49.44653" lon="0.96909">
        <ele>40.3</ele>
        <time>2020-06-21T07:47:36Z</time>
      </trkpt>
      <trkpt lat="49.44653" lon="0.96909">
        <ele>40.3</ele>
        <time>2020-06-21T07:47:37Z</time>
      </trkpt>
      <trkpt lat="49.44653" lon="0.96909">
        <ele>40.3</ele>
        <time>2020-06-21T07:47:39Z</time>
      </trkpt>
      <trkpt lat="49.44653" lon="0.96909">
        <ele>40.3</ele>
        <time>2020-06-21T07:47:40Z</time>
      </trkpt>
      <trkpt lat="49.44653" lon="0.96909">
        <ele>40.3</ele>
        <time>2020-06-21T07:47:42Z</time>
      </trkpt>
      <trkpt lat="49.44653" lon="0.96909">
        <ele>40.3</ele>
        <time>2020-06-21T07:47:44Z</time>
      </trkpt>
      <trkpt lat="49.44653" lon="0.96909">
        <ele>40.3</ele>
        <time>2020-06-21T07:47:45Z</time>
      </trkpt>
      <trkpt lat="49.44653" lon="0.96909">
        <ele>40.3</ele>
        <time>2020-06-21T07:47:47Z</time>
      </trkpt>
      <trkpt lat="49.44653" lon="0.96909">
        <ele>40.3</ele>
        <time>2020-06-21T07:47:48Z</time>
      </trkpt>
      <trkpt lat="49.44652" lon="0.9691">
        <ele>40.3</ele>
        <time>2020-06-21T07:47:50Z</time>
      </trkpt>
      <trkpt lat="49.44652" lon="0.9691">
        <ele>40.3</ele>
        <time>2020-06-21T07:47:51Z</time>
      </trkpt>
      <trkpt lat="49.44653" lon="0.9691">
        <ele>40.2</ele>
        <time>2020-06-21T07:47:53Z</time>
      </trkpt>
      <trkpt lat="49.44653" lon="0.96909">
        <ele>40.2</ele>
        <time>2020-06-21T07:47:54Z</time>
      </trkpt>
      <trkpt lat="49.44653" lon="0.96909">
        <ele>40.2</ele>
        <time>2020-06-21T07:47:55Z</time>
      </trkpt>
      <trkpt lat="49.44654" lon="0.96908">
        <ele>40.2</ele>
        <time>2020-06-21T07:47:56Z</time>
      </trkpt>
      <trkpt lat="49.44654" lon="0.96907">
        <ele>40.1</ele>
        <time>2020-06-21T07:47:58Z</time>
      </trkpt>
      <trkpt lat="49.44654" lon="0.96907">
        <ele>40.1</ele>
        <time>2020-06-21T07:48:00Z</time>
      </trkpt>
      <trkpt lat="49.44654" lon="0.96907">
        <ele>40.1</ele>
        <time>2020-06-21T07:48:01Z</time>
      </trkpt>
      <trkpt lat="49.44654" lon="0.96906">
        <ele>40.1</ele>
        <time>2020-06-21T07:48:02Z</time>
      </trkpt>
      <trkpt lat="49.44654" lon="0.96904">
        <ele>40</ele>
        <time>2020-06-21T07:48:04Z</time>
      </trkpt>
      <trkpt lat="49.44654" lon="0.96905">
        <ele>40</ele>
        <time>2020-06-21T07:48:06Z</time>
      </trkpt>
      <trkpt lat="49.44653" lon="0.96905">
        <ele>40</ele>
        <time>2020-06-21T07:48:08Z</time>
      </trkpt>
      <trkpt lat="49.44653" lon="0.96906">
        <ele>40</ele>
        <time>2020-06-21T07:48:10Z</time>
      </trkpt>
      <trkpt lat="49.44653" lon="0.96906">
        <ele>40</ele>
        <time>2020-06-21T07:48:11Z</time>
      </trkpt>
      <trkpt lat="49.44653" lon="0.96906">
        <ele>40</ele>
        <time>2020-06-21T07:48:12Z</time>
      </trkpt>
      <trkpt lat="49.44652" lon="0.96906">
        <ele>40</ele>
        <time>2020-06-21T07:48:14Z</time>
      </trkpt>
      <trkpt lat="49.44652" lon="0.96906">
        <ele>40</ele>
        <time>2020-06-21T07:48:15Z</time>
      </trkpt>
      <trkpt lat="49.44653" lon="0.96906">
        <ele>39.9</ele>
        <time>2020-06-21T07:48:17Z</time>
      </trkpt>
      <trkpt lat="49.44653" lon="0.96907">
        <ele>39.9</ele>
        <time>2020-06-21T07:48:19Z</time>
      </trkpt>
      <trkpt lat="49.44653" lon="0.96907">
        <ele>39.9</ele>
        <time>2020-06-21T07:48:21Z</time>
      </trkpt>
      <trkpt lat="49.44653" lon="0.96907">
        <ele>39.9</ele>
        <time>2020-06-21T07:48:22Z</time>
      </trkpt>
      <trkpt lat="49.44653" lon="0.96907">
        <ele>39.9</ele>
        <time>2020-06-21T07:48:23Z</time>
      </trkpt>
      <trkpt lat="49.44653" lon="0.96907">
        <ele>39.9</ele>
        <time>2020-06-21T07:48:25Z</time>
      </trkpt>
      <trkpt lat="49.44653" lon="0.96904">
        <ele>39.8</ele>
        <time>2020-06-21T07:48:27Z</time>
      </trkpt>
      <trkpt lat="49.44653" lon="0.96904">
        <ele>39.8</ele>
        <time>2020-06-21T07:48:28Z</time>
      </trkpt>
      <trkpt lat="49.44653" lon="0.96905">
        <ele>39.8</ele>
        <time>2020-06-21T07:48:30Z</time>
      </trkpt>
      <trkpt lat="49.44653" lon="0.96903">
        <ele>39.8</ele>
        <time>2020-06-21T07:48:32Z</time>
      </trkpt>
      <trkpt lat="49.44653" lon="0.96902">
        <ele>39.7</ele>
        <time>2020-06-21T07:48:33Z</time>
      </trkpt>
      <trkpt lat="49.44653" lon="0.96901">
        <ele>39.7</ele>
        <time>2020-06-21T07:48:34Z</time>
      </trkpt>
      <trkpt lat="49.44653" lon="0.96901">
        <ele>39.7</ele>
        <time>2020-06-21T07:48:36Z</time>
      </trkpt>
      <trkpt lat="49.44653" lon="0.969">
        <ele>39.7</ele>
        <time>2020-06-21T07:48:37Z</time>
      </trkpt>
      <trkpt lat="49.44653" lon="0.96899">
        <ele>39.6</ele>
        <time>2020-06-21T07:48:38Z</time>
      </trkpt>
      <trkpt lat="49.44653" lon="0.96898">
        <ele>39.6</ele>
        <time>2020-06-21T07:48:40Z</time>
      </trkpt>
      <trkpt lat="49.44652" lon="0.96904">
        <ele>39.4</ele>
        <time>2020-06-21T07:48:41Z</time>
      </trkpt>
      <trkpt lat="49.44652" lon="0.96904">
        <ele>39.4</ele>
        <time>2020-06-21T07:48:42Z</time>
      </trkpt>
      <trkpt lat="49.44653" lon="0.96902">
        <ele>39.4</ele>
        <time>2020-06-21T07:48:43Z</time>
      </trkpt>
      <trkpt lat="49.44653" lon="0.96901">
        <ele>39.3</ele>
        <time>2020-06-21T07:48:44Z</time>
      </trkpt>
      <trkpt lat="49.44654" lon="0.969">
        <ele>39.3</ele>
        <time>2020-06-21T07:48:45Z</time>
      </trkpt>
      <trkpt lat="49.44654" lon="0.96899">
        <ele>39.3</ele>
        <time>2020-06-21T07:48:47Z</time>
      </trkpt>
      <trkpt lat="49.44653" lon="0.96904">
        <ele>39.1</ele>
        <time>2020-06-21T07:48:48Z</time>
      </trkpt>
      <trkpt lat="49.44653" lon="0.96904">
        <ele>39.1</ele>
        <time>2020-06-21T07:48:49Z</time>
      </trkpt>
      <trkpt lat="49.44653" lon="0.96904">
        <ele>39.1</ele>
        <time>2020-06-21T07:48:51Z</time>
      </trkpt>
      <trkpt lat="49.44653" lon="0.96904">
        <ele>39.1</ele>
        <time>2020-06-21T07:48:52Z</time>
      </trkpt>
      <trkpt lat="49.44653" lon="0.96904">
        <ele>39</ele>
        <time>2020-06-21T07:48:53Z</time>
      </trkpt>
      <trkpt lat="49.44653" lon="0.96904">
        <ele>39</ele>
        <time>2020-06-21T07:48:55Z</time>
      </trkpt>
      <trkpt lat="49.44653" lon="0.96904">
        <ele>39</ele>
        <time>2020-06-21T07:48:56Z</time>
      </trkpt>
      <trkpt lat="49.44654" lon="0.96904">
        <ele>39</ele>
        <time>2020-06-21T07:48:57Z</time>
      </trkpt>
      <trkpt lat="49.44654" lon="0.96904">
        <ele>39</ele>
        <time>2020-06-21T07:48:59Z</time>
      </trkpt>
      <trkpt lat="49.44654" lon="0.96904">
        <ele>39</ele>
        <time>2020-06-21T07:49:00Z</time>
      </trkpt>
      <trkpt lat="49.44654" lon="0.96903">
        <ele>39</ele>
        <time>2020-06-21T07:49:02Z</time>
      </trkpt>
      <trkpt lat="49.44654" lon="0.96903">
        <ele>39</ele>
        <time>2020-06-21T07:49:03Z</time>
      </trkpt>
      <trkpt lat="49.44655" lon="0.96903">
        <ele>39</ele>
        <time>2020-06-21T07:49:05Z</time>
      </trkpt>
      <trkpt lat="49.44655" lon="0.96903">
        <ele>39</ele>
        <time>2020-06-21T07:49:07Z</time>
      </trkpt>
      <trkpt lat="49.44655" lon="0.96903">
        <ele>38.9</ele>
        <time>2020-06-21T07:49:09Z</time>
      </trkpt>
      <trkpt lat="49.44655" lon="0.96903">
        <ele>38.9</ele>
        <time>2020-06-21T07:49:10Z</time>
      </trkpt>
      <trkpt lat="49.44655" lon="0.96903">
        <ele>38.9</ele>
        <time>2020-06-21T07:49:12Z</time>
      </trkpt>
      <trkpt lat="49.44656" lon="0.96903">
        <ele>38.9</ele>
        <time>2020-06-21T07:49:14Z</time>
      </trkpt>
      <trkpt lat="49.44656" lon="0.96903">
        <ele>38.9</ele>
        <time>2020-06-21T07:49:15Z</time>
      </trkpt>
      <trkpt lat="49.44656" lon="0.96903">
        <ele>38.9</ele>
        <time>2020-06-21T07:49:16Z</time>
      </trkpt>
      <trkpt lat="49.44656" lon="0.96903">
        <ele>38.9</ele>
        <time>2020-06-21T07:49:18Z</time>
      </trkpt>
      <trkpt lat="49.44656" lon="0.96902">
        <ele>38.9</ele>
        <time>2020-06-21T07:49:20Z</time>
      </trkpt>
      <trkpt lat="49.44656" lon="0.96902">
        <ele>38.9</ele>
        <time>2020-06-21T07:49:21Z</time>
      </trkpt>
      <trkpt lat="49.44657" lon="0.96902">
        <ele>38.8</ele>
        <time>2020-06-21T07:49:22Z</time>
      </trkpt>
      <trkpt lat="49.44657" lon="0.96902">
        <ele>38.8</ele>
        <time>2020-06-21T07:49:24Z</time>
      </trkpt>
      <trkpt lat="49.44657" lon="0.96902">
        <ele>38.8</ele>
        <time>2020-06-21T07:49:26Z</time>
      </trkpt>
      <trkpt lat="49.44657" lon="0.96902">
        <ele>38.8</ele>
        <time>2020-06-21T07:49:27Z</time>
      </trkpt>
      <trkpt lat="49.44657" lon="0.96902">
        <ele>38.8</ele>
        <time>2020-06-21T07:49:29Z</time>
      </trkpt>
      <trkpt lat="49.44658" lon="0.96902">
        <ele>38.8</ele>
        <time>2020-06-21T07:49:31Z</time>
      </trkpt>
      <trkpt lat="49.44658" lon="0.96902">
        <ele>38.8</ele>
        <time>2020-06-21T07:49:32Z</time>
      </trkpt>
      <trkpt lat="49.44658" lon="0.96902">
        <ele>38.8</ele>
        <time>2020-06-21T07:49:34Z</time>
      </trkpt>
      <trkpt lat="49.44658" lon="0.96901">
        <ele>38.8</ele>
        <time>2020-06-21T07:49:35Z</time>
      </trkpt>
      <trkpt lat="49.44658" lon="0.96901">
        <ele>38.8</ele>
        <time>2020-06-21T07:49:37Z</time>
      </trkpt>
      <trkpt lat="49.44658" lon="0.96901">
        <ele>38.8</ele>
        <time>2020-06-21T07:49:39Z</time>
      </trkpt>
      <trkpt lat="49.44659" lon="0.96901">
        <ele>38.7</ele>
        <time>2020-06-21T07:49:40Z</time>
      </trkpt>
      <trkpt lat="49.44659" lon="0.96901">
        <ele>38.7</ele>
        <time>2020-06-21T07:49:42Z</time>
      </trkpt>
      <trkpt lat="49.44659" lon="0.96901">
        <ele>38.7</ele>
        <time>2020-06-21T07:49:44Z</time>
      </trkpt>
      <trkpt lat="49.44659" lon="0.96901">
        <ele>38.7</ele>
        <time>2020-06-21T07:49:45Z</time>
      </trkpt>
      <trkpt lat="49.44659" lon="0.96901">
        <ele>38.7</ele>
        <time>2020-06-21T07:49:46Z</time>
      </trkpt>
      <trkpt lat="49.4466" lon="0.96901">
        <ele>38.7</ele>
        <time>2020-06-21T07:49:48Z</time>
      </trkpt>
      <trkpt lat="49.4466" lon="0.96901">
        <ele>38.7</ele>
        <time>2020-06-21T07:49:49Z</time>
      </trkpt>
      <trkpt lat="49.4466" lon="0.96901">
        <ele>38.7</ele>
        <time>2020-06-21T07:49:51Z</time>
      </trkpt>
      <trkpt lat="49.4466" lon="0.969">
        <ele>38.7</ele>
        <time>2020-06-21T07:49:53Z</time>
      </trkpt>
      <trkpt lat="49.4466" lon="0.969">
        <ele>38.6</ele>
        <time>2020-06-21T07:49:55Z</time>
      </trkpt>
      <trkpt lat="49.44661" lon="0.969">
        <ele>38.6</ele>
        <time>2020-06-21T07:49:56Z</time>
      </trkpt>
      <trkpt lat="49.44661" lon="0.969">
        <ele>38.6</ele>
        <time>2020-06-21T07:49:58Z</time>
      </trkpt>
      <trkpt lat="49.44661" lon="0.969">
        <ele>38.6</ele>
        <time>2020-06-21T07:50:00Z</time>
      </trkpt>
      <trkpt lat="49.44661" lon="0.969">
        <ele>38.6</ele>
        <time>2020-06-21T07:50:01Z</time>
      </trkpt>
      <trkpt lat="49.44661" lon="0.969">
        <ele>38.6</ele>
        <time>2020-06-21T07:50:03Z</time>
      </trkpt>
      <trkpt lat="49.44661" lon="0.969">
        <ele>38.6</ele>
        <time>2020-06-21T07:50:04Z</time>
      </trkpt>
      <trkpt lat="49.44662" lon="0.969">
        <ele>38.6</ele>
        <time>2020-06-21T07:50:05Z</time>
      </trkpt>
      <trkpt lat="49.44662" lon="0.969">
        <ele>38.6</ele>
        <time>2020-06-21T07:50:06Z</time>
      </trkpt>
      <trkpt lat="49.44662" lon="0.96899">
        <ele>38.6</ele>
        <time>2020-06-21T07:50:07Z</time>
      </trkpt>
      <trkpt lat="49.44662" lon="0.96899">
        <ele>38.5</ele>
        <time>2020-06-21T07:50:09Z</time>
      </trkpt>
      <trkpt lat="49.44662" lon="0.96899">
        <ele>38.5</ele>
        <time>2020-06-21T07:50:11Z</time>
      </trkpt>
      <trkpt lat="49.44663" lon="0.96899">
        <ele>38.5</ele>
        <time>2020-06-21T07:50:12Z</time>
      </trkpt>
      <trkpt lat="49.44663" lon="0.96899">
        <ele>38.5</ele>
        <time>2020-06-21T07:50:14Z</time>
      </trkpt>
      <trkpt lat="49.44663" lon="0.96899">
        <ele>38.5</ele>
        <time>2020-06-21T07:50:16Z</time>
      </trkpt>
      <trkpt lat="49.44663" lon="0.96899">
        <ele>38.5</ele>
        <time>2020-06-21T07:50:18Z</time>
      </trkpt>
      <trkpt lat="49.44663" lon="0.96899">
        <ele>38.5</ele>
        <time>2020-06-21T07:50:20Z</time>
      </trkpt>
      <trkpt lat="49.44663" lon="0.96899">
        <ele>38.5</ele>
        <time>2020-06-21T07:50:21Z</time>
      </trkpt>
      <trkpt lat="49.44664" lon="0.96899">
        <ele>38.5</ele>
        <time>2020-06-21T07:50:23Z</time>
      </trkpt>
      <trkpt lat="49.44664" lon="0.96898">
        <ele>38.5</ele>
        <time>2020-06-21T07:50:24Z</time>
      </trkpt>
      <trkpt lat="49.44664" lon="0.96898">
        <ele>38.4</ele>
        <time>2020-06-21T07:50:26Z</time>
      </trkpt>
      <trkpt lat="49.44664" lon="0.96898">
        <ele>38.4</ele>
        <time>2020-06-21T07:50:28Z</time>
      </trkpt>
      <trkpt lat="49.44664" lon="0.96898">
        <ele>38.4</ele>
        <time>2020-06-21T07:50:29Z</time>
      </trkpt>
      <trkpt lat="49.44665" lon="0.96898">
        <ele>38.4</ele>
        <time>2020-06-21T07:50:31Z</time>
      </trkpt>
      <trkpt lat="49.44665" lon="0.96898">
        <ele>38.4</ele>
        <time>2020-06-21T07:50:32Z</time>
      </trkpt>
      <trkpt lat="49.44665" lon="0.96898">
        <ele>38.4</ele>
        <time>2020-06-21T07:50:34Z</time>
      </trkpt>
      <trkpt lat="49.44665" lon="0.96898">
        <ele>38.4</ele>
        <time>2020-06-21T07:50:35Z</time>
      </trkpt>
      <trkpt lat="49.44665" lon="0.96898">
        <ele>38.4</ele>
        <time>2020-06-21T07:50:36Z</time>
      </trkpt>
      <trkpt lat="49.44666" lon="0.96898">
        <ele>38.4</ele>
        <time>2020-06-21T07:50:38Z</time>
      </trkpt>
      <trkpt lat="49.44666" lon="0.96898">
        <ele>38.4</ele>
        <time>2020-06-21T07:50:40Z</time>
      </trkpt>
      <trkpt lat="49.44666" lon="0.96897">
        <ele>38.3</ele>
        <time>2020-06-21T07:50:41Z</time>
      </trkpt>
      <trkpt lat="49.44666" lon="0.96897">
        <ele>38.3</ele>
        <time>2020-06-21T07:50:43Z</time>
      </trkpt>
      <trkpt lat="49.44666" lon="0.96897">
        <ele>38.3</ele>
        <time>2020-06-21T07:50:45Z</time>
      </trkpt>
      <trkpt lat="49.44666" lon="0.96897">
        <ele>38.3</ele>
        <time>2020-06-21T07:50:46Z</time>
      </trkpt>
      <trkpt lat="49.44667" lon="0.96897">
        <ele>38.3</ele>
        <time>2020-06-21T07:50:47Z</time>
      </trkpt>
      <trkpt lat="49.44667" lon="0.96897">
        <ele>38.3</ele>
        <time>2020-06-21T07:50:49Z</time>
      </trkpt>
      <trkpt lat="49.44667" lon="0.96897">
        <ele>38.3</ele>
        <time>2020-06-21T07:50:51Z</time>
      </trkpt>
      <trkpt lat="49.44667" lon="0.96897">
        <ele>38.3</ele>
        <time>2020-06-21T07:50:52Z</time>
      </trkpt>
      <trkpt lat="49.44667" lon="0.96897">
        <ele>38.3</ele>
        <time>2020-06-21T07:50:53Z</time>
      </trkpt>
      <trkpt lat="49.44668" lon="0.96897">
        <ele>38.3</ele>
        <time>2020-06-21T07:50:55Z</time>
      </trkpt>
      <trkpt lat="49.44668" lon="0.96896">
        <ele>38.3</ele>
        <time>2020-06-21T07:50:56Z</time>
      </trkpt>
      <trkpt lat="49.44668" lon="0.96896">
        <ele>38.2</ele>
        <time>2020-06-21T07:50:58Z</time>
      </trkpt>
      <trkpt lat="49.44668" lon="0.96896">
        <ele>38.2</ele>
        <time>2020-06-21T07:51:00Z</time>
      </trkpt>
      <trkpt lat="49.44668" lon="0.96896">
        <ele>38.2</ele>
        <time>2020-06-21T07:51:02Z</time>
      </trkpt>
      <trkpt lat="49.44668" lon="0.96896">
        <ele>38.2</ele>
        <time>2020-06-21T07:51:03Z</time>
      </trkpt>
      <trkpt lat="49.44669" lon="0.96896">
        <ele>38.2</ele>
        <time>2020-06-21T07:51:05Z</time>
      </trkpt>
      <trkpt lat="49.44669" lon="0.96896">
        <ele>38.2</ele>
        <time>2020-06-21T07:51:07Z</time>
      </trkpt>
      <trkpt lat="49.44669" lon="0.96896">
        <ele>38.2</ele>
        <time>2020-06-21T07:51:08Z</time>
      </trkpt>
      <trkpt lat="49.44669" lon="0.96896">
        <ele>38.2</ele>
        <time>2020-06-21T07:51:09Z</time>
      </trkpt>
      <trkpt lat="49.44669" lon="0.96896">
        <ele>38.2</ele>
        <time>2020-06-21T07:51:10Z</time>
      </trkpt>
      <trkpt lat="49.4467" lon="0.96896">
        <ele>38.2</ele>
        <time>2020-06-21T07:51:12Z</time>
      </trkpt>
      <trkpt lat="49.4467" lon="0.96895">
        <ele>38.1</ele>
        <time>2020-06-21T07:51:13Z</time>
      </trkpt>
      <trkpt lat="49.4467" lon="0.96895">
        <ele>38.1</ele>
        <time>2020-06-21T07:51:14Z</time>
      </trkpt>
      <trkpt lat="49.4467" lon="0.96895">
        <ele>38.1</ele>
        <time>2020-06-21T07:51:15Z</time>
      </trkpt>
      <trkpt lat="49.4467" lon="0.96895">
        <ele>38.1</ele>
        <time>2020-06-21T07:51:17Z</time>
      </trkpt>
      <trkpt lat="49.44671" lon="0.96895">
        <ele>38.1</ele>
        <time>2020-06-21T07:51:18Z</time>
      </trkpt>
      <trkpt lat="49.44671" lon="0.96895">
        <ele>38.1</ele>
        <time>2020-06-21T07:51:19Z</time>
      </trkpt>
      <trkpt lat="49.44671" lon="0.96895">
        <ele>38.1</ele>
        <time>2020-06-21T07:51:21Z</time>
      </trkpt>
      <trkpt lat="49.44671" lon="0.96895">
        <ele>38.1</ele>
        <time>2020-06-21T07:51:22Z</time>
      </trkpt>
      <trkpt lat="49.44671" lon="0.96895">
        <ele>38.1</ele>
        <time>2020-06-21T07:51:24Z</time>
      </trkpt>
      <trkpt lat="49.44679" lon="0.96891">
        <ele>37.7</ele>
        <time>2020-06-21T07:51:25Z</time>
      </trkpt>
      <trkpt lat="49.44687" lon="0.96888">
        <ele>37.3</ele>
        <time>2020-06-21T07:51:26Z</time>
      </trkpt>
      <trkpt lat="49.44702" lon="0.96889">
        <ele>36.6</ele>
        <time>2020-06-21T07:51:28Z</time>
      </trkpt>
      <trkpt lat="49.44716" lon="0.96896">
        <ele>36</ele>
        <time>2020-06-21T07:51:30Z</time>
      </trkpt>
      <trkpt lat="49.4473" lon="0.9691">
        <ele>35.4</ele>
        <time>2020-06-21T07:51:32Z</time>
      </trkpt>
      <trkpt lat="49.44736" lon="0.96919">
        <ele>35.1</ele>
        <time>2020-06-21T07:51:33Z</time>
      </trkpt>
      <trkpt lat="49.4474" lon="0.96929">
        <ele>34.8</ele>
        <time>2020-06-21T07:51:34Z</time>
      </trkpt>
      <trkpt lat="49.44744" lon="0.9694">
        <ele>34.5</ele>
        <time>2020-06-21T07:51:35Z</time>
      </trkpt>
      <trkpt lat="49.44749" lon="0.96964">
        <ele>33.8</ele>
        <time>2020-06-21T07:51:37Z</time>
      </trkpt>
      <trkpt lat="49.44752" lon="0.96989">
        <ele>33.1</ele>
        <time>2020-06-21T07:51:39Z</time>
      </trkpt>
      <trkpt lat="49.44754" lon="0.97001">
        <ele>32.8</ele>
        <time>2020-06-21T07:51:40Z</time>
      </trkpt>
      <trkpt lat="49.44757" lon="0.97025">
        <ele>32.1</ele>
        <time>2020-06-21T07:51:42Z</time>
      </trkpt>
      <trkpt lat="49.44757" lon="0.97049">
        <ele>31.4</ele>
        <time>2020-06-21T07:51:44Z</time>
      </trkpt>
      <trkpt lat="49.44759" lon="0.97062">
        <ele>31</ele>
        <time>2020-06-21T07:51:45Z</time>
      </trkpt>
      <trkpt lat="49.4476" lon="0.97074">
        <ele>30.7</ele>
        <time>2020-06-21T07:51:46Z</time>
      </trkpt>
      <trkpt lat="49.44761" lon="0.97086">
        <ele>30.3</ele>
        <time>2020-06-21T07:51:47Z</time>
      </trkpt>
      <trkpt lat="49.44763" lon="0.97111">
        <ele>29.6</ele>
        <time>2020-06-21T07:51:49Z</time>
      </trkpt>
      <trkpt lat="49.44766" lon="0.97135">
        <ele>29.2</ele>
        <time>2020-06-21T07:51:51Z</time>
      </trkpt>
      <trkpt lat="49.44772" lon="0.97156">
        <ele>28.7</ele>
        <time>2020-06-21T07:51:53Z</time>
      </trkpt>
      <trkpt lat="49.44777" lon="0.97165">
        <ele>28.3</ele>
        <time>2020-06-21T07:51:54Z</time>
      </trkpt>
      <trkpt lat="49.44788" lon="0.97177">
        <ele>27.7</ele>
        <time>2020-06-21T07:51:56Z</time>
      </trkpt>
      <trkpt lat="49.44798" lon="0.97184">
        <ele>27.2</ele>
        <time>2020-06-21T07:51:58Z</time>
      </trkpt>
      <trkpt lat="49.44806" lon="0.97193">
        <ele>26.7</ele>
        <time>2020-06-21T07:52:00Z</time>
      </trkpt>
      <trkpt lat="49.44807" lon="0.97197">
        <ele>27</ele>
        <time>2020-06-21T07:52:01Z</time>
      </trkpt>
      <trkpt lat="49.44807" lon="0.97199">
        <ele>27.1</ele>
        <time>2020-06-21T07:52:02Z</time>
      </trkpt>
      <trkpt lat="49.44807" lon="0.97201">
        <ele>27.2</ele>
        <time>2020-06-21T07:52:04Z</time>
      </trkpt>
      <trkpt lat="49.44807" lon="0.97202">
        <ele>27.3</ele>
        <time>2020-06-21T07:52:06Z</time>
      </trkpt>
      <trkpt lat="49.44806" lon="0.97204">
        <ele>27.4</ele>
        <time>2020-06-21T07:52:07Z</time>
      </trkpt>
      <trkpt lat="49.44806" lon="0.97205">
        <ele>27.5</ele>
        <time>2020-06-21T07:52:08Z</time>
      </trkpt>
      <trkpt lat="49.44801" lon="0.97215">
        <ele>28.4</ele>
        <time>2020-06-21T07:52:10Z</time>
      </trkpt>
      <trkpt lat="49.44796" lon="0.97224">
        <ele>29.1</ele>
        <time>2020-06-21T07:52:11Z</time>
      </trkpt>
      <trkpt lat="49.44794" lon="0.97229">
        <ele>29.5</ele>
        <time>2020-06-21T07:52:12Z</time>
      </trkpt>
      <trkpt lat="49.44797" lon="0.97223">
        <ele>30</ele>
        <time>2020-06-21T07:52:13Z</time>
      </trkpt>
      <trkpt lat="49.44801" lon="0.97215">
        <ele>30.6</ele>
        <time>2020-06-21T07:52:15Z</time>
      </trkpt>
      <trkpt lat="49.44804" lon="0.97208">
        <ele>31.2</ele>
        <time>2020-06-21T07:52:16Z</time>
      </trkpt>
      <trkpt lat="49.44808" lon="0.972">
        <ele>31.8</ele>
        <time>2020-06-21T07:52:17Z</time>
      </trkpt>
      <trkpt lat="49.44808" lon="0.972">
        <ele>31.8</ele>
        <time>2020-06-21T07:52:18Z</time>
      </trkpt>
      <trkpt lat="49.44808" lon="0.972">
        <ele>31.8</ele>
        <time>2020-06-21T07:52:20Z</time>
      </trkpt>
      <trkpt lat="49.44808" lon="0.972">
        <ele>31.8</ele>
        <time>2020-06-21T07:52:21Z</time>
      </trkpt>
      <trkpt lat="49.44808" lon="0.972">
        <ele>31.8</ele>
        <time>2020-06-21T07:52:22Z</time>
      </trkpt>
      <trkpt lat="49.44808" lon="0.97203">
        <ele>32</ele>
        <time>2020-06-21T07:52:24Z</time>
      </trkpt>
      <trkpt lat="49.44807" lon="0.97206">
        <ele>32.2</ele>
        <time>2020-06-21T07:52:25Z</time>
      </trkpt>
      <trkpt lat="49.44807" lon="0.97207">
        <ele>32.2</ele>
        <time>2020-06-21T07:52:27Z</time>
      </trkpt>
      <trkpt lat="49.44807" lon="0.97207">
        <ele>32.3</ele>
        <time>2020-06-21T07:52:29Z</time>
      </trkpt>
      <trkpt lat="49.44807" lon="0.97207">
        <ele>32.3</ele>
        <time>2020-06-21T07:52:30Z</time>
      </trkpt>
      <trkpt lat="49.44807" lon="0.97207">
        <ele>32.3</ele>
        <time>2020-06-21T07:52:32Z</time>
      </trkpt>
      <trkpt lat="49.44807" lon="0.97207">
        <ele>32.3</ele>
        <time>2020-06-21T07:52:34Z</time>
      </trkpt>
      <trkpt lat="49.44807" lon="0.97207">
        <ele>32.3</ele>
        <time>2020-06-21T07:52:36Z</time>
      </trkpt>
      <trkpt lat="49.44807" lon="0.97207">
        <ele>32.3</ele>
        <time>2020-06-21T07:52:37Z</time>
      </trkpt>
      <trkpt lat="49.44807" lon="0.97207">
        <ele>32.3</ele>
        <time>2020-06-21T07:52:39Z</time>
      </trkpt>
      <trkpt lat="49.44807" lon="0.97207">
        <ele>32.3</ele>
        <time>2020-06-21T07:52:40Z</time>
      </trkpt>
      <trkpt lat="49.44807" lon="0.97207">
        <ele>32.3</ele>
        <time>2020-06-21T07:52:41Z</time>
      </trkpt>
      <trkpt lat="49.44807" lon="0.97207">
        <ele>32.3</ele>
        <time>2020-06-21T07:52:43Z</time>
      </trkpt>
      <trkpt lat="49.44804" lon="0.97224">
        <ele>33.2</ele>
        <time>2020-06-21T07:52:45Z</time>
      </trkpt>
      <trkpt lat="49.44802" lon="0.97234">
        <ele>33.8</ele>
        <time>2020-06-21T07:52:47Z</time>
      </trkpt>
      <trkpt lat="49.44801" lon="0.97239">
        <ele>34.1</ele>
        <time>2020-06-21T07:52:49Z</time>
      </trkpt>
      <trkpt lat="49.44801" lon="0.9724">
        <ele>34.2</ele>
        <time>2020-06-21T07:52:50Z</time>
      </trkpt>
      <trkpt lat="49.44801" lon="0.97242">
        <ele>34.3</ele>
        <time>2020-06-21T07:52:52Z</time>
      </trkpt>
      <trkpt lat="49.448" lon="0.97245">
        <ele>34.5</ele>
        <time>2020-06-21T07:52:54Z</time>
      </trkpt>
      <trkpt lat="49.448" lon="0.97247">
        <ele>34.6</ele>
        <time>2020-06-21T07:52:55Z</time>
      </trkpt>
      <trkpt lat="49.448" lon="0.97252">
        <ele>34.9</ele>
        <time>2020-06-21T07:52:57Z</time>
      </trkpt>
      <trkpt lat="49.44799" lon="0.9726">
        <ele>35.4</ele>
        <time>2020-06-21T07:52:59Z</time>
      </trkpt>
      <trkpt lat="49.44797" lon="0.97267">
        <ele>35.9</ele>
        <time>2020-06-21T07:53:01Z</time>
      </trkpt>
      <trkpt lat="49.44797" lon="0.97274">
        <ele>36.2</ele>
        <time>2020-06-21T07:53:03Z</time>
      </trkpt>
      <trkpt lat="49.44797" lon="0.97276">
        <ele>36.4</ele>
        <time>2020-06-21T07:53:04Z</time>
      </trkpt>
      <trkpt lat="49.44797" lon="0.97282">
        <ele>36.8</ele>
        <time>2020-06-21T07:53:06Z</time>
      </trkpt>
      <trkpt lat="49.44797" lon="0.97285">
        <ele>36.9</ele>
        <time>2020-06-21T07:53:07Z</time>
      </trkpt>
      <trkpt lat="49.44796" lon="0.97289">
        <ele>37.2</ele>
        <time>2020-06-21T07:53:09Z</time>
      </trkpt>
      <trkpt lat="49.44796" lon="0.97294">
        <ele>37.6</ele>
        <time>2020-06-21T07:53:11Z</time>
      </trkpt>
      <trkpt lat="49.44795" lon="0.97296">
        <ele>37.7</ele>
        <time>2020-06-21T07:53:12Z</time>
      </trkpt>
      <trkpt lat="49.44794" lon="0.973">
        <ele>38</ele>
        <time>2020-06-21T07:53:14Z</time>
      </trkpt>
      <trkpt lat="49.44793" lon="0.97303">
        <ele>38.3</ele>
        <time>2020-06-21T07:53:15Z</time>
      </trkpt>
      <trkpt lat="49.44793" lon="0.97305">
        <ele>38.4</ele>
        <time>2020-06-21T07:53:16Z</time>
      </trkpt>
      <trkpt lat="49.44792" lon="0.97308">
        <ele>38.7</ele>
        <time>2020-06-21T07:53:18Z</time>
      </trkpt>
      <trkpt lat="49.44791" lon="0.97313">
        <ele>39</ele>
        <time>2020-06-21T07:53:20Z</time>
      </trkpt>
      <trkpt lat="49.4479" lon="0.97316">
        <ele>39.2</ele>
        <time>2020-06-21T07:53:21Z</time>
      </trkpt>
      <trkpt lat="49.44789" lon="0.9732">
        <ele>39.5</ele>
        <time>2020-06-21T07:53:23Z</time>
      </trkpt>
      <trkpt lat="49.44789" lon="0.97321">
        <ele>39.6</ele>
        <time>2020-06-21T07:53:24Z</time>
      </trkpt>
      <trkpt lat="49.44789" lon="0.97322">
        <ele>39.6</ele>
        <time>2020-06-21T07:53:25Z</time>
      </trkpt>
      <trkpt lat="49.44788" lon="0.97326">
        <ele>39.9</ele>
        <time>2020-06-21T07:53:27Z</time>
      </trkpt>
      <trkpt lat="49.44787" lon="0.97331">
        <ele>40.2</ele>
        <time>2020-06-21T07:53:29Z</time>
      </trkpt>
      <trkpt lat="49.44787" lon="0.97331">
        <ele>40.3</ele>
        <time>2020-06-21T07:53:30Z</time>
      </trkpt>
      <trkpt lat="49.44787" lon="0.97335">
        <ele>40.5</ele>
        <time>2020-06-21T07:53:32Z</time>
      </trkpt>
      <trkpt lat="49.44786" lon="0.97337">
        <ele>40.6</ele>
        <time>2020-06-21T07:53:33Z</time>
      </trkpt>
      <trkpt lat="49.44786" lon="0.9734">
        <ele>40.9</ele>
        <time>2020-06-21T07:53:34Z</time>
      </trkpt>
      <trkpt lat="49.44786" lon="0.97342">
        <ele>41</ele>
        <time>2020-06-21T07:53:35Z</time>
      </trkpt>
      <trkpt lat="49.44785" lon="0.97346">
        <ele>41.2</ele>
        <time>2020-06-21T07:53:36Z</time>
      </trkpt>
      <trkpt lat="49.44784" lon="0.9735">
        <ele>41.5</ele>
        <time>2020-06-21T07:53:38Z</time>
      </trkpt>
      <trkpt lat="49.44783" lon="0.97353">
        <ele>41.8</ele>
        <time>2020-06-21T07:53:39Z</time>
      </trkpt>
      <trkpt lat="49.44782" lon="0.97358">
        <ele>42.1</ele>
        <time>2020-06-21T07:53:41Z</time>
      </trkpt>
      <trkpt lat="49.44782" lon="0.97361">
        <ele>42.3</ele>
        <time>2020-06-21T07:53:42Z</time>
      </trkpt>
      <trkpt lat="49.44782" lon="0.97363">
        <ele>42.5</ele>
        <time>2020-06-21T07:53:43Z</time>
      </trkpt>
      <trkpt lat="49.44782" lon="0.97366">
        <ele>42.7</ele>
        <time>2020-06-21T07:53:45Z</time>
      </trkpt>
      <trkpt lat="49.44782" lon="0.97368">
        <ele>42.8</ele>
        <time>2020-06-21T07:53:46Z</time>
      </trkpt>
      <trkpt lat="49.44781" lon="0.97372">
        <ele>43.1</ele>
        <time>2020-06-21T07:53:47Z</time>
      </trkpt>
      <trkpt lat="49.44781" lon="0.97376">
        <ele>43.3</ele>
        <time>2020-06-21T07:53:49Z</time>
      </trkpt>
      <trkpt lat="49.44779" lon="0.97381">
        <ele>43.6</ele>
        <time>2020-06-21T07:53:51Z</time>
      </trkpt>
      <trkpt lat="49.44778" lon="0.97382">
        <ele>43.7</ele>
        <time>2020-06-21T07:53:52Z</time>
      </trkpt>
      <trkpt lat="49.44778" lon="0.97384">
        <ele>43.9</ele>
        <time>2020-06-21T07:53:53Z</time>
      </trkpt>
      <trkpt lat="49.44777" lon="0.97388">
        <ele>44.1</ele>
        <time>2020-06-21T07:53:55Z</time>
      </trkpt>
      <trkpt lat="49.44776" lon="0.97392">
        <ele>44.3</ele>
        <time>2020-06-21T07:53:57Z</time>
      </trkpt>
      <trkpt lat="49.44776" lon="0.97393">
        <ele>44.4</ele>
        <time>2020-06-21T07:53:58Z</time>
      </trkpt>
      <trkpt lat="49.44774" lon="0.97397">
        <ele>44.7</ele>
        <time>2020-06-21T07:54:00Z</time>
      </trkpt>
      <trkpt lat="49.44773" lon="0.97399">
        <ele>44.8</ele>
        <time>2020-06-21T07:54:01Z</time>
      </trkpt>
      <trkpt lat="49.44771" lon="0.97403">
        <ele>45</ele>
        <time>2020-06-21T07:54:03Z</time>
      </trkpt>
      <trkpt lat="49.4477" lon="0.97406">
        <ele>45.2</ele>
        <time>2020-06-21T07:54:04Z</time>
      </trkpt>
      <trkpt lat="49.44768" lon="0.97409">
        <ele>45.5</ele>
        <time>2020-06-21T07:54:06Z</time>
      </trkpt>
      <trkpt lat="49.44767" lon="0.97411">
        <ele>45.6</ele>
        <time>2020-06-21T07:54:07Z</time>
      </trkpt>
      <trkpt lat="49.44766" lon="0.97414">
        <ele>45.8</ele>
        <time>2020-06-21T07:54:09Z</time>
      </trkpt>
      <trkpt lat="49.44766" lon="0.97417">
        <ele>45.9</ele>
        <time>2020-06-21T07:54:10Z</time>
      </trkpt>
      <trkpt lat="49.44766" lon="0.9742">
        <ele>46.1</ele>
        <time>2020-06-21T07:54:12Z</time>
      </trkpt>
      <trkpt lat="49.44765" lon="0.97425">
        <ele>46.4</ele>
        <time>2020-06-21T07:54:14Z</time>
      </trkpt>
      <trkpt lat="49.44764" lon="0.97427">
        <ele>46.5</ele>
        <time>2020-06-21T07:54:15Z</time>
      </trkpt>
      <trkpt lat="49.44764" lon="0.9743">
        <ele>46.7</ele>
        <time>2020-06-21T07:54:16Z</time>
      </trkpt>
      <trkpt lat="49.44763" lon="0.97432">
        <ele>46.8</ele>
        <time>2020-06-21T07:54:17Z</time>
      </trkpt>
      <trkpt lat="49.44763" lon="0.97436">
        <ele>47</ele>
        <time>2020-06-21T07:54:19Z</time>
      </trkpt>
      <trkpt lat="49.44762" lon="0.97441">
        <ele>47.3</ele>
        <time>2020-06-21T07:54:21Z</time>
      </trkpt>
      <trkpt lat="49.44762" lon="0.97442">
        <ele>47.3</ele>
        <time>2020-06-21T07:54:22Z</time>
      </trkpt>
      <trkpt lat="49.44761" lon="0.97446">
        <ele>47.5</ele>
        <time>2020-06-21T07:54:23Z</time>
      </trkpt>
      <trkpt lat="49.44761" lon="0.9745">
        <ele>47.8</ele>
        <time>2020-06-21T07:54:25Z</time>
      </trkpt>
      <trkpt lat="49.44761" lon="0.97452">
        <ele>47.9</ele>
        <time>2020-06-21T07:54:26Z</time>
      </trkpt>
      <trkpt lat="49.4476" lon="0.97456">
        <ele>48.1</ele>
        <time>2020-06-21T07:54:28Z</time>
      </trkpt>
      <trkpt lat="49.4476" lon="0.97458">
        <ele>48.2</ele>
        <time>2020-06-21T07:54:29Z</time>
      </trkpt>
      <trkpt lat="49.44759" lon="0.97461">
        <ele>48.3</ele>
        <time>2020-06-21T07:54:30Z</time>
      </trkpt>
      <trkpt lat="49.44759" lon="0.97465">
        <ele>48.6</ele>
        <time>2020-06-21T07:54:32Z</time>
      </trkpt>
      <trkpt lat="49.44758" lon="0.97468">
        <ele>48.7</ele>
        <time>2020-06-21T07:54:33Z</time>
      </trkpt>
      <trkpt lat="49.44758" lon="0.97473">
        <ele>48.9</ele>
        <time>2020-06-21T07:54:35Z</time>
      </trkpt>
      <trkpt lat="49.44758" lon="0.97474">
        <ele>49</ele>
        <time>2020-06-21T07:54:36Z</time>
      </trkpt>
      <trkpt lat="49.44758" lon="0.97475">
        <ele>49</ele>
        <time>2020-06-21T07:54:38Z</time>
      </trkpt>
      <trkpt lat="49.44758" lon="0.97478">
        <ele>49.2</ele>
        <time>2020-06-21T07:54:39Z</time>
      </trkpt>
      <trkpt lat="49.44757" lon="0.97483">
        <ele>49.4</ele>
        <time>2020-06-21T07:54:40Z</time>
      </trkpt>
      <trkpt lat="49.44757" lon="0.97484">
        <ele>49.5</ele>
        <time>2020-06-21T07:54:41Z</time>
      </trkpt>
      <trkpt lat="49.44758" lon="0.9749">
        <ele>49.7</ele>
        <time>2020-06-21T07:54:43Z</time>
      </trkpt>
      <trkpt lat="49.44757" lon="0.97494">
        <ele>49.9</ele>
        <time>2020-06-21T07:54:44Z</time>
      </trkpt>
      <trkpt lat="49.44757" lon="0.97498">
        <ele>50</ele>
        <time>2020-06-21T07:54:46Z</time>
      </trkpt>
      <trkpt lat="49.44757" lon="0.97503">
        <ele>50.2</ele>
        <time>2020-06-21T07:54:47Z</time>
      </trkpt>
      <trkpt lat="49.44758" lon="0.97505">
        <ele>50.3</ele>
        <time>2020-06-21T07:54:48Z</time>
      </trkpt>
      <trkpt lat="49.44758" lon="0.9751">
        <ele>50.5</ele>
        <time>2020-06-21T07:54:49Z</time>
      </trkpt>
      <trkpt lat="49.44759" lon="0.97515">
        <ele>50.7</ele>
        <time>2020-06-21T07:54:51Z</time>
      </trkpt>
      <trkpt lat="49.44759" lon="0.97518">
        <ele>50.8</ele>
        <time>2020-06-21T07:54:52Z</time>
      </trkpt>
      <trkpt lat="49.4476" lon="0.97522">
        <ele>51</ele>
        <time>2020-06-21T07:54:54Z</time>
      </trkpt>
      <trkpt lat="49.44761" lon="0.97527">
        <ele>51.2</ele>
        <time>2020-06-21T07:54:56Z</time>
      </trkpt>
      <trkpt lat="49.44761" lon="0.97528">
        <ele>51.2</ele>
        <time>2020-06-21T07:54:57Z</time>
      </trkpt>
      <trkpt lat="49.44761" lon="0.97532">
        <ele>51.4</ele>
        <time>2020-06-21T07:54:59Z</time>
      </trkpt>
      <trkpt lat="49.44761" lon="0.97535">
        <ele>51.6</ele>
        <time>2020-06-21T07:55:00Z</time>
      </trkpt>
      <trkpt lat="49.44761" lon="0.97538">
        <ele>51.8</ele>
        <time>2020-06-21T07:55:02Z</time>
      </trkpt>
      <trkpt lat="49.44761" lon="0.97541">
        <ele>51.9</ele>
        <time>2020-06-21T07:55:03Z</time>
      </trkpt>
      <trkpt lat="49.44761" lon="0.97544">
        <ele>52.1</ele>
        <time>2020-06-21T07:55:04Z</time>
      </trkpt>
      <trkpt lat="49.44761" lon="0.97547">
        <ele>52.2</ele>
        <time>2020-06-21T07:55:06Z</time>
      </trkpt>
      <trkpt lat="49.44761" lon="0.97549">
        <ele>52.4</ele>
        <time>2020-06-21T07:55:07Z</time>
      </trkpt>
      <trkpt lat="49.44761" lon="0.97554">
        <ele>52.7</ele>
        <time>2020-06-21T07:55:09Z</time>
      </trkpt>
      <trkpt lat="49.4476" lon="0.97558">
        <ele>52.9</ele>
        <time>2020-06-21T07:55:10Z</time>
      </trkpt>
      <trkpt lat="49.4476" lon="0.97563">
        <ele>53.2</ele>
        <time>2020-06-21T07:55:12Z</time>
      </trkpt>
      <trkpt lat="49.4476" lon="0.97567">
        <ele>53.5</ele>
        <time>2020-06-21T07:55:13Z</time>
      </trkpt>
      <trkpt lat="49.4476" lon="0.97568">
        <ele>53.6</ele>
        <time>2020-06-21T07:55:14Z</time>
      </trkpt>
      <trkpt lat="49.4476" lon="0.97571">
        <ele>53.8</ele>
        <time>2020-06-21T07:55:15Z</time>
      </trkpt>
      <trkpt lat="49.4476" lon="0.97574">
        <ele>54</ele>
        <time>2020-06-21T07:55:17Z</time>
      </trkpt>
      <trkpt lat="49.4476" lon="0.97576">
        <ele>54.1</ele>
        <time>2020-06-21T07:55:18Z</time>
      </trkpt>
      <trkpt lat="49.4476" lon="0.97578">
        <ele>54.3</ele>
        <time>2020-06-21T07:55:19Z</time>
      </trkpt>
      <trkpt lat="49.4476" lon="0.97583">
        <ele>54.5</ele>
        <time>2020-06-21T07:55:21Z</time>
      </trkpt>
      <trkpt lat="49.4476" lon="0.97586">
        <ele>54.7</ele>
        <time>2020-06-21T07:55:22Z</time>
      </trkpt>
      <trkpt lat="49.4476" lon="0.97589">
        <ele>54.9</ele>
        <time>2020-06-21T07:55:24Z</time>
      </trkpt>
      <trkpt lat="49.44759" lon="0.97595">
        <ele>55.2</ele>
        <time>2020-06-21T07:55:26Z</time>
      </trkpt>
      <trkpt lat="49.44759" lon="0.97597">
        <ele>55.3</ele>
        <time>2020-06-21T07:55:27Z</time>
      </trkpt>
      <trkpt lat="49.44759" lon="0.97602">
        <ele>55.6</ele>
        <time>2020-06-21T07:55:28Z</time>
      </trkpt>
      <trkpt lat="49.44759" lon="0.97604">
        <ele>55.7</ele>
        <time>2020-06-21T07:55:30Z</time>
      </trkpt>
      <trkpt lat="49.44759" lon="0.97606">
        <ele>55.9</ele>
        <time>2020-06-21T07:55:31Z</time>
      </trkpt>
      <trkpt lat="49.44759" lon="0.97609">
        <ele>56</ele>
        <time>2020-06-21T07:55:32Z</time>
      </trkpt>
      <trkpt lat="49.4476" lon="0.97614">
        <ele>56.2</ele>
        <time>2020-06-21T07:55:34Z</time>
      </trkpt>
      <trkpt lat="49.4476" lon="0.97617">
        <ele>56.3</ele>
        <time>2020-06-21T07:55:35Z</time>
      </trkpt>
      <trkpt lat="49.4476" lon="0.97619">
        <ele>56.4</ele>
        <time>2020-06-21T07:55:37Z</time>
      </trkpt>
      <trkpt lat="49.4476" lon="0.97621">
        <ele>56.6</ele>
        <time>2020-06-21T07:55:38Z</time>
      </trkpt>
      <trkpt lat="49.4476" lon="0.97625">
        <ele>56.7</ele>
        <time>2020-06-21T07:55:39Z</time>
      </trkpt>
      <trkpt lat="49.44761" lon="0.97629">
        <ele>56.9</ele>
        <time>2020-06-21T07:55:41Z</time>
      </trkpt>
      <trkpt lat="49.44762" lon="0.97634">
        <ele>57.1</ele>
        <time>2020-06-21T07:55:42Z</time>
      </trkpt>
      <trkpt lat="49.44762" lon="0.97636">
        <ele>57.2</ele>
        <time>2020-06-21T07:55:43Z</time>
      </trkpt>
      <trkpt lat="49.44763" lon="0.97639">
        <ele>57.4</ele>
        <time>2020-06-21T07:55:45Z</time>
      </trkpt>
      <trkpt lat="49.44763" lon="0.97641">
        <ele>57.5</ele>
        <time>2020-06-21T07:55:46Z</time>
      </trkpt>
      <trkpt lat="49.44763" lon="0.97645">
        <ele>57.7</ele>
        <time>2020-06-21T07:55:47Z</time>
      </trkpt>
      <trkpt lat="49.44764" lon="0.97649">
        <ele>57.9</ele>
        <time>2020-06-21T07:55:49Z</time>
      </trkpt>
      <trkpt lat="49.44764" lon="0.97652">
        <ele>58.1</ele>
        <time>2020-06-21T07:55:50Z</time>
      </trkpt>
      <trkpt lat="49.44764" lon="0.97654">
        <ele>58.2</ele>
        <time>2020-06-21T07:55:51Z</time>
      </trkpt>
      <trkpt lat="49.44764" lon="0.97657">
        <ele>58.3</ele>
        <time>2020-06-21T07:55:53Z</time>
      </trkpt>
      <trkpt lat="49.44764" lon="0.9766">
        <ele>58.4</ele>
        <time>2020-06-21T07:55:54Z</time>
      </trkpt>
      <trkpt lat="49.44764" lon="0.97662">
        <ele>58.6</ele>
        <time>2020-06-21T07:55:55Z</time>
      </trkpt>
      <trkpt lat="49.44764" lon="0.97664">
        <ele>58.7</ele>
        <time>2020-06-21T07:55:56Z</time>
      </trkpt>
      <trkpt lat="49.44765" lon="0.97667">
        <ele>58.8</ele>
        <time>2020-06-21T07:55:58Z</time>
      </trkpt>
      <trkpt lat="49.44765" lon="0.9767">
        <ele>59</ele>
        <time>2020-06-21T07:55:59Z</time>
      </trkpt>
      <trkpt lat="49.44765" lon="0.97675">
        <ele>59.2</ele>
        <time>2020-06-21T07:56:01Z</time>
      </trkpt>
      <trkpt lat="49.44765" lon="0.97676">
        <ele>59.2</ele>
        <time>2020-06-21T07:56:02Z</time>
      </trkpt>
      <trkpt lat="49.44765" lon="0.97678">
        <ele>59.4</ele>
        <time>2020-06-21T07:56:03Z</time>
      </trkpt>
      <trkpt lat="49.44764" lon="0.97683">
        <ele>59.6</ele>
        <time>2020-06-21T07:56:05Z</time>
      </trkpt>
      <trkpt lat="49.44764" lon="0.97685">
        <ele>59.7</ele>
        <time>2020-06-21T07:56:06Z</time>
      </trkpt>
      <trkpt lat="49.44763" lon="0.97688">
        <ele>59.8</ele>
        <time>2020-06-21T07:56:07Z</time>
      </trkpt>
      <trkpt lat="49.44763" lon="0.97692">
        <ele>60</ele>
        <time>2020-06-21T07:56:08Z</time>
      </trkpt>
      <trkpt lat="49.44763" lon="0.97696">
        <ele>60.2</ele>
        <time>2020-06-21T07:56:10Z</time>
      </trkpt>
      <trkpt lat="49.44763" lon="0.977">
        <ele>60.4</ele>
        <time>2020-06-21T07:56:12Z</time>
      </trkpt>
      <trkpt lat="49.44763" lon="0.97702">
        <ele>60.5</ele>
        <time>2020-06-21T07:56:13Z</time>
      </trkpt>
      <trkpt lat="49.44763" lon="0.97705">
        <ele>60.7</ele>
        <time>2020-06-21T07:56:14Z</time>
      </trkpt>
      <trkpt lat="49.44763" lon="0.97706">
        <ele>60.8</ele>
        <time>2020-06-21T07:56:15Z</time>
      </trkpt>
      <trkpt lat="49.44763" lon="0.97708">
        <ele>60.9</ele>
        <time>2020-06-21T07:56:16Z</time>
      </trkpt>
      <trkpt lat="49.44763" lon="0.97713">
        <ele>61.2</ele>
        <time>2020-06-21T07:56:18Z</time>
      </trkpt>
      <trkpt lat="49.44762" lon="0.97714">
        <ele>61.3</ele>
        <time>2020-06-21T07:56:19Z</time>
      </trkpt>
      <trkpt lat="49.44762" lon="0.97717">
        <ele>61.4</ele>
        <time>2020-06-21T07:56:20Z</time>
      </trkpt>
      <trkpt lat="49.44761" lon="0.97722">
        <ele>61.7</ele>
        <time>2020-06-21T07:56:22Z</time>
      </trkpt>
      <trkpt lat="49.4476" lon="0.97726">
        <ele>61.9</ele>
        <time>2020-06-21T07:56:23Z</time>
      </trkpt>
      <trkpt lat="49.44759" lon="0.9773">
        <ele>62.2</ele>
        <time>2020-06-21T07:56:25Z</time>
      </trkpt>
      <trkpt lat="49.44759" lon="0.97735">
        <ele>62.5</ele>
        <time>2020-06-21T07:56:26Z</time>
      </trkpt>
      <trkpt lat="49.44758" lon="0.97736">
        <ele>62.6</ele>
        <time>2020-06-21T07:56:27Z</time>
      </trkpt>
      <trkpt lat="49.44756" lon="0.97741">
        <ele>62.9</ele>
        <time>2020-06-21T07:56:29Z</time>
      </trkpt>
      <trkpt lat="49.44756" lon="0.97742">
        <ele>63</ele>
        <time>2020-06-21T07:56:30Z</time>
      </trkpt>
      <trkpt lat="49.44756" lon="0.97746">
        <ele>63.2</ele>
        <time>2020-06-21T07:56:31Z</time>
      </trkpt>
      <trkpt lat="49.44756" lon="0.97751">
        <ele>63.4</ele>
        <time>2020-06-21T07:56:33Z</time>
      </trkpt>
      <trkpt lat="49.44755" lon="0.97753">
        <ele>63.6</ele>
        <time>2020-06-21T07:56:34Z</time>
      </trkpt>
      <trkpt lat="49.44755" lon="0.97755">
        <ele>63.7</ele>
        <time>2020-06-21T07:56:35Z</time>
      </trkpt>
      <trkpt lat="49.44755" lon="0.97762">
        <ele>64</ele>
        <time>2020-06-21T07:56:37Z</time>
      </trkpt>
      <trkpt lat="49.44754" lon="0.97764">
        <ele>64.1</ele>
        <time>2020-06-21T07:56:38Z</time>
      </trkpt>
      <trkpt lat="49.44754" lon="0.97767">
        <ele>64.3</ele>
        <time>2020-06-21T07:56:40Z</time>
      </trkpt>
      <trkpt lat="49.44754" lon="0.97769">
        <ele>64.4</ele>
        <time>2020-06-21T07:56:42Z</time>
      </trkpt>
      <trkpt lat="49.44754" lon="0.97771">
        <ele>64.5</ele>
        <time>2020-06-21T07:56:43Z</time>
      </trkpt>
      <trkpt lat="49.44753" lon="0.97773">
        <ele>64.6</ele>
        <time>2020-06-21T07:56:44Z</time>
      </trkpt>
      <trkpt lat="49.44753" lon="0.97777">
        <ele>64.9</ele>
        <time>2020-06-21T07:56:46Z</time>
      </trkpt>
      <trkpt lat="49.44752" lon="0.9778">
        <ele>65</ele>
        <time>2020-06-21T07:56:47Z</time>
      </trkpt>
      <trkpt lat="49.44751" lon="0.97783">
        <ele>65.2</ele>
        <time>2020-06-21T07:56:49Z</time>
      </trkpt>
      <trkpt lat="49.44751" lon="0.97786">
        <ele>65.4</ele>
        <time>2020-06-21T07:56:50Z</time>
      </trkpt>
      <trkpt lat="49.4475" lon="0.97788">
        <ele>65.5</ele>
        <time>2020-06-21T07:56:51Z</time>
      </trkpt>
      <trkpt lat="49.4475" lon="0.9779">
        <ele>65.7</ele>
        <time>2020-06-21T07:56:52Z</time>
      </trkpt>
      <trkpt lat="49.4475" lon="0.97793">
        <ele>65.8</ele>
        <time>2020-06-21T07:56:53Z</time>
      </trkpt>
      <trkpt lat="49.44749" lon="0.97798">
        <ele>66.1</ele>
        <time>2020-06-21T07:56:55Z</time>
      </trkpt>
      <trkpt lat="49.44749" lon="0.97799">
        <ele>66.2</ele>
        <time>2020-06-21T07:56:56Z</time>
      </trkpt>
      <trkpt lat="49.44749" lon="0.97802">
        <ele>66.4</ele>
        <time>2020-06-21T07:56:57Z</time>
      </trkpt>
      <trkpt lat="49.44749" lon="0.97803">
        <ele>66.5</ele>
        <time>2020-06-21T07:56:58Z</time>
      </trkpt>
      <trkpt lat="49.44749" lon="0.97805">
        <ele>66.6</ele>
        <time>2020-06-21T07:56:59Z</time>
      </trkpt>
      <trkpt lat="49.44749" lon="0.97808">
        <ele>66.8</ele>
        <time>2020-06-21T07:57:01Z</time>
      </trkpt>
      <trkpt lat="49.44748" lon="0.9781">
        <ele>66.9</ele>
        <time>2020-06-21T07:57:02Z</time>
      </trkpt>
      <trkpt lat="49.44748" lon="0.97813">
        <ele>67.2</ele>
        <time>2020-06-21T07:57:04Z</time>
      </trkpt>
      <trkpt lat="49.44748" lon="0.97813">
        <ele>67.3</ele>
        <time>2020-06-21T07:57:06Z</time>
      </trkpt>
      <trkpt lat="49.44748" lon="0.97815">
        <ele>67.4</ele>
        <time>2020-06-21T07:57:07Z</time>
      </trkpt>
      <trkpt lat="49.44747" lon="0.97818">
        <ele>67.6</ele>
        <time>2020-06-21T07:57:09Z</time>
      </trkpt>
      <trkpt lat="49.44747" lon="0.9782">
        <ele>67.7</ele>
        <time>2020-06-21T07:57:10Z</time>
      </trkpt>
      <trkpt lat="49.44746" lon="0.97823">
        <ele>67.9</ele>
        <time>2020-06-21T07:57:11Z</time>
      </trkpt>
      <trkpt lat="49.44745" lon="0.97827">
        <ele>67.7</ele>
        <time>2020-06-21T07:57:13Z</time>
      </trkpt>
      <trkpt lat="49.44745" lon="0.97829">
        <ele>67.6</ele>
        <time>2020-06-21T07:57:14Z</time>
      </trkpt>
      <trkpt lat="49.44745" lon="0.97832">
        <ele>67.4</ele>
        <time>2020-06-21T07:57:16Z</time>
      </trkpt>
      <trkpt lat="49.44746" lon="0.97834">
        <ele>67.3</ele>
        <time>2020-06-21T07:57:18Z</time>
      </trkpt>
      <trkpt lat="49.44746" lon="0.97832">
        <ele>67.2</ele>
        <time>2020-06-21T07:57:20Z</time>
      </trkpt>
      <trkpt lat="49.44746" lon="0.97831">
        <ele>67.1</ele>
        <time>2020-06-21T07:57:21Z</time>
      </trkpt>
      <trkpt lat="49.44748" lon="0.97827">
        <ele>66.9</ele>
        <time>2020-06-21T07:57:23Z</time>
      </trkpt>
      <trkpt lat="49.44748" lon="0.97825">
        <ele>66.7</ele>
        <time>2020-06-21T07:57:24Z</time>
      </trkpt>
      <trkpt lat="49.4475" lon="0.97823">
        <ele>66.6</ele>
        <time>2020-06-21T07:57:25Z</time>
      </trkpt>
      <trkpt lat="49.4475" lon="0.97821">
        <ele>66.4</ele>
        <time>2020-06-21T07:57:26Z</time>
      </trkpt>
      <trkpt lat="49.44753" lon="0.97817">
        <ele>66.1</ele>
        <time>2020-06-21T07:57:28Z</time>
      </trkpt>
      <trkpt lat="49.44755" lon="0.97813">
        <ele>65.8</ele>
        <time>2020-06-21T07:57:30Z</time>
      </trkpt>
      <trkpt lat="49.44756" lon="0.97812">
        <ele>65.7</ele>
        <time>2020-06-21T07:57:31Z</time>
      </trkpt>
      <trkpt lat="49.44757" lon="0.97809">
        <ele>65.6</ele>
        <time>2020-06-21T07:57:32Z</time>
      </trkpt>
      <trkpt lat="49.44758" lon="0.97807">
        <ele>65.4</ele>
        <time>2020-06-21T07:57:33Z</time>
      </trkpt>
      <trkpt lat="49.44759" lon="0.97806">
        <ele>65.3</ele>
        <time>2020-06-21T07:57:34Z</time>
      </trkpt>
      <trkpt lat="49.4476" lon="0.97804">
        <ele>65.2</ele>
        <time>2020-06-21T07:57:35Z</time>
      </trkpt>
      <trkpt lat="49.44762" lon="0.97801">
        <ele>65</ele>
        <time>2020-06-21T07:57:37Z</time>
      </trkpt>
      <trkpt lat="49.44764" lon="0.97797">
        <ele>64.7</ele>
        <time>2020-06-21T07:57:38Z</time>
      </trkpt>
      <trkpt lat="49.44765" lon="0.97795">
        <ele>64.6</ele>
        <time>2020-06-21T07:57:39Z</time>
      </trkpt>
      <trkpt lat="49.44767" lon="0.97793">
        <ele>64.4</ele>
        <time>2020-06-21T07:57:41Z</time>
      </trkpt>
      <trkpt lat="49.4477" lon="0.97789">
        <ele>64.2</ele>
        <time>2020-06-21T07:57:42Z</time>
      </trkpt>
      <trkpt lat="49.44771" lon="0.97786">
        <ele>64</ele>
        <time>2020-06-21T07:57:43Z</time>
      </trkpt>
      <trkpt lat="49.44773" lon="0.97783">
        <ele>63.8</ele>
        <time>2020-06-21T07:57:45Z</time>
      </trkpt>
      <trkpt lat="49.44774" lon="0.97781">
        <ele>63.7</ele>
        <time>2020-06-21T07:57:46Z</time>
      </trkpt>
      <trkpt lat="49.44776" lon="0.97777">
        <ele>63.5</ele>
        <time>2020-06-21T07:57:47Z</time>
      </trkpt>
      <trkpt lat="49.44777" lon="0.97775">
        <ele>63.4</ele>
        <time>2020-06-21T07:57:48Z</time>
      </trkpt>
      <trkpt lat="49.44779" lon="0.97772">
        <ele>63.2</ele>
        <time>2020-06-21T07:57:49Z</time>
      </trkpt>
      <trkpt lat="49.44781" lon="0.97768">
        <ele>63</ele>
        <time>2020-06-21T07:57:51Z</time>
      </trkpt>
      <trkpt lat="49.44784" lon="0.97762">
        <ele>62.6</ele>
        <time>2020-06-21T07:57:52Z</time>
      </trkpt>
      <trkpt lat="49.44786" lon="0.97758">
        <ele>62.3</ele>
        <time>2020-06-21T07:57:53Z</time>
      </trkpt>
      <trkpt lat="49.44788" lon="0.97754">
        <ele>62</ele>
        <time>2020-06-21T07:57:54Z</time>
      </trkpt>
      <trkpt lat="49.4479" lon="0.97751">
        <ele>61.8</ele>
        <time>2020-06-21T07:57:55Z</time>
      </trkpt>
      <trkpt lat="49.44792" lon="0.97747">
        <ele>61.6</ele>
        <time>2020-06-21T07:57:57Z</time>
      </trkpt>
      <trkpt lat="49.44794" lon="0.97742">
        <ele>61.3</ele>
        <time>2020-06-21T07:57:58Z</time>
      </trkpt>
      <trkpt lat="49.44794" lon="0.9774">
        <ele>61.2</ele>
        <time>2020-06-21T07:57:59Z</time>
      </trkpt>
      <trkpt lat="49.44796" lon="0.97735">
        <ele>60.9</ele>
        <time>2020-06-21T07:58:01Z</time>
      </trkpt>
      <trkpt lat="49.44797" lon="0.97734">
        <ele>60.8</ele>
        <time>2020-06-21T07:58:02Z</time>
      </trkpt>
      <trkpt lat="49.44798" lon="0.97729">
        <ele>60.5</ele>
        <time>2020-06-21T07:58:04Z</time>
      </trkpt>
      <trkpt lat="49.44799" lon="0.97726">
        <ele>60.4</ele>
        <time>2020-06-21T07:58:05Z</time>
      </trkpt>
      <trkpt lat="49.448" lon="0.97724">
        <ele>60.3</ele>
        <time>2020-06-21T07:58:06Z</time>
      </trkpt>
      <trkpt lat="49.44802" lon="0.97719">
        <ele>60.1</ele>
        <time>2020-06-21T07:58:07Z</time>
      </trkpt>
      <trkpt lat="49.44802" lon="0.97718">
        <ele>60</ele>
        <time>2020-06-21T07:58:08Z</time>
      </trkpt>
      <trkpt lat="49.44804" lon="0.97711">
        <ele>59.7</ele>
        <time>2020-06-21T07:58:10Z</time>
      </trkpt>
      <trkpt lat="49.44804" lon="0.97709">
        <ele>60</ele>
        <time>2020-06-21T07:58:11Z</time>
      </trkpt>
      <trkpt lat="49.44805" lon="0.97706">
        <ele>60</ele>
        <time>2020-06-21T07:58:12Z</time>
      </trkpt>
      <trkpt lat="49.44806" lon="0.97701">
        <ele>59.6</ele>
        <time>2020-06-21T07:58:13Z</time>
      </trkpt>
      <trkpt lat="49.44806" lon="0.97699">
        <ele>59.7</ele>
        <time>2020-06-21T07:58:14Z</time>
      </trkpt>
      <trkpt lat="49.44807" lon="0.97697">
        <ele>60.2</ele>
        <time>2020-06-21T07:58:15Z</time>
      </trkpt>
      <trkpt lat="49.44808" lon="0.97691">
        <ele>59.7</ele>
        <time>2020-06-21T07:58:17Z</time>
      </trkpt>
      <trkpt lat="49.44809" lon="0.97687">
        <ele>59.5</ele>
        <time>2020-06-21T07:58:18Z</time>
      </trkpt>
      <trkpt lat="49.4481" lon="0.97684">
        <ele>60</ele>
        <time>2020-06-21T07:58:19Z</time>
      </trkpt>
      <trkpt lat="49.44811" lon="0.97681">
        <ele>59.8</ele>
        <time>2020-06-21T07:58:21Z</time>
      </trkpt>
      <trkpt lat="49.44811" lon="0.97676">
        <ele>59.6</ele>
        <time>2020-06-21T07:58:22Z</time>
      </trkpt>
      <trkpt lat="49.44812" lon="0.97672">
        <ele>59.4</ele>
        <time>2020-06-21T07:58:23Z</time>
      </trkpt>
      <trkpt lat="49.44813" lon="0.97667">
        <ele>59.6</ele>
        <time>2020-06-21T07:58:25Z</time>
      </trkpt>
      <trkpt lat="49.44813" lon="0.97665">
        <ele>59.4</ele>
        <time>2020-06-21T07:58:26Z</time>
      </trkpt>
      <trkpt lat="49.44815" lon="0.97659">
        <ele>59.2</ele>
        <time>2020-06-21T07:58:27Z</time>
      </trkpt>
      <trkpt lat="49.44815" lon="0.97657">
        <ele>59.1</ele>
        <time>2020-06-21T07:58:28Z</time>
      </trkpt>
      <trkpt lat="49.44816" lon="0.97653">
        <ele>59.2</ele>
        <time>2020-06-21T07:58:29Z</time>
      </trkpt>
      <trkpt lat="49.44817" lon="0.97645">
        <ele>58.8</ele>
        <time>2020-06-21T07:58:31Z</time>
      </trkpt>
      <trkpt lat="49.44817" lon="0.97643">
        <ele>58.9</ele>
        <time>2020-06-21T07:58:32Z</time>
      </trkpt>
      <trkpt lat="49.44818" lon="0.9764">
        <ele>58.7</ele>
        <time>2020-06-21T07:58:33Z</time>
      </trkpt>
      <trkpt lat="49.44818" lon="0.97636">
        <ele>58.9</ele>
        <time>2020-06-21T07:58:34Z</time>
      </trkpt>
      <trkpt lat="49.44818" lon="0.97629">
        <ele>58.6</ele>
        <time>2020-06-21T07:58:36Z</time>
      </trkpt>
      <trkpt lat="49.44818" lon="0.97626">
        <ele>58.4</ele>
        <time>2020-06-21T07:58:37Z</time>
      </trkpt>
      <trkpt lat="49.44819" lon="0.97622">
        <ele>58.1</ele>
        <time>2020-06-21T07:58:38Z</time>
      </trkpt>
      <trkpt lat="49.44819" lon="0.97616">
        <ele>57.8</ele>
        <time>2020-06-21T07:58:39Z</time>
      </trkpt>
      <trkpt lat="49.44819" lon="0.97614">
        <ele>57.5</ele>
        <time>2020-06-21T07:58:40Z</time>
      </trkpt>
      <trkpt lat="49.44819" lon="0.9761">
        <ele>57.1</ele>
        <time>2020-06-21T07:58:42Z</time>
      </trkpt>
      <trkpt lat="49.44819" lon="0.97605">
        <ele>56.8</ele>
        <time>2020-06-21T07:58:43Z</time>
      </trkpt>
      <trkpt lat="49.4482" lon="0.97601">
        <ele>56.6</ele>
        <time>2020-06-21T07:58:44Z</time>
      </trkpt>
      <trkpt lat="49.44821" lon="0.97595">
        <ele>56.4</ele>
        <time>2020-06-21T07:58:46Z</time>
      </trkpt>
      <trkpt lat="49.44822" lon="0.97591">
        <ele>56.7</ele>
        <time>2020-06-21T07:58:47Z</time>
      </trkpt>
      <trkpt lat="49.44822" lon="0.97587">
        <ele>56.7</ele>
        <time>2020-06-21T07:58:48Z</time>
      </trkpt>
      <trkpt lat="49.44824" lon="0.9758">
        <ele>57</ele>
        <time>2020-06-21T07:58:50Z</time>
      </trkpt>
      <trkpt lat="49.44826" lon="0.97572">
        <ele>56.9</ele>
        <time>2020-06-21T07:58:52Z</time>
      </trkpt>
      <trkpt lat="49.44827" lon="0.97567">
        <ele>57.2</ele>
        <time>2020-06-21T07:58:53Z</time>
      </trkpt>
      <trkpt lat="49.44828" lon="0.97562">
        <ele>57.1</ele>
        <time>2020-06-21T07:58:54Z</time>
      </trkpt>
      <trkpt lat="49.4483" lon="0.97556">
        <ele>57.3</ele>
        <time>2020-06-21T07:58:56Z</time>
      </trkpt>
      <trkpt lat="49.44832" lon="0.9755">
        <ele>57</ele>
        <time>2020-06-21T07:58:57Z</time>
      </trkpt>
      <trkpt lat="49.44833" lon="0.97545">
        <ele>57.3</ele>
        <time>2020-06-21T07:58:59Z</time>
      </trkpt>
      <trkpt lat="49.44835" lon="0.97541">
        <ele>57.3</ele>
        <time>2020-06-21T07:59:00Z</time>
      </trkpt>
      <trkpt lat="49.44837" lon="0.97536">
        <ele>57.7</ele>
        <time>2020-06-21T07:59:01Z</time>
      </trkpt>
      <trkpt lat="49.44838" lon="0.97532">
        <ele>58.2</ele>
        <time>2020-06-21T07:59:03Z</time>
      </trkpt>
      <trkpt lat="49.4484" lon="0.97527">
        <ele>58.6</ele>
        <time>2020-06-21T07:59:04Z</time>
      </trkpt>
      <trkpt lat="49.44843" lon="0.97521">
        <ele>59</ele>
        <time>2020-06-21T07:59:06Z</time>
      </trkpt>
      <trkpt lat="49.44845" lon="0.97517">
        <ele>58.9</ele>
        <time>2020-06-21T07:59:07Z</time>
      </trkpt>
      <trkpt lat="49.44847" lon="0.97513">
        <ele>59.2</ele>
        <time>2020-06-21T07:59:08Z</time>
      </trkpt>
      <trkpt lat="49.4485" lon="0.9751">
        <ele>59.4</ele>
        <time>2020-06-21T07:59:09Z</time>
      </trkpt>
      <trkpt lat="49.44852" lon="0.97507">
        <ele>59.6</ele>
        <time>2020-06-21T07:59:10Z</time>
      </trkpt>
      <trkpt lat="49.44855" lon="0.97503">
        <ele>59.8</ele>
        <time>2020-06-21T07:59:11Z</time>
      </trkpt>
      <trkpt lat="49.44858" lon="0.97499">
        <ele>60.2</ele>
        <time>2020-06-21T07:59:12Z</time>
      </trkpt>
      <trkpt lat="49.4486" lon="0.97496">
        <ele>60.5</ele>
        <time>2020-06-21T07:59:13Z</time>
      </trkpt>
      <trkpt lat="49.44863" lon="0.97491">
        <ele>60.8</ele>
        <time>2020-06-21T07:59:15Z</time>
      </trkpt>
      <trkpt lat="49.44867" lon="0.97485">
        <ele>61</ele>
        <time>2020-06-21T07:59:17Z</time>
      </trkpt>
      <trkpt lat="49.44868" lon="0.97483">
        <ele>61.1</ele>
        <time>2020-06-21T07:59:18Z</time>
      </trkpt>
      <trkpt lat="49.44869" lon="0.97479">
        <ele>61.4</ele>
        <time>2020-06-21T07:59:20Z</time>
      </trkpt>
      <trkpt lat="49.44871" lon="0.97476">
        <ele>61.4</ele>
        <time>2020-06-21T07:59:21Z</time>
      </trkpt>
      <trkpt lat="49.44872" lon="0.97474">
        <ele>61.7</ele>
        <time>2020-06-21T07:59:22Z</time>
      </trkpt>
      <trkpt lat="49.44873" lon="0.9747">
        <ele>61.7</ele>
        <time>2020-06-21T07:59:24Z</time>
      </trkpt>
      <trkpt lat="49.44874" lon="0.97468">
        <ele>61.8</ele>
        <time>2020-06-21T07:59:25Z</time>
      </trkpt>
      <trkpt lat="49.44877" lon="0.97463">
        <ele>61.9</ele>
        <time>2020-06-21T07:59:27Z</time>
      </trkpt>
      <trkpt lat="49.44877" lon="0.97462">
        <ele>62</ele>
        <time>2020-06-21T07:59:28Z</time>
      </trkpt>
      <trkpt lat="49.44878" lon="0.97459">
        <ele>61.9</ele>
        <time>2020-06-21T07:59:30Z</time>
      </trkpt>
      <trkpt lat="49.44878" lon="0.97459">
        <ele>62</ele>
        <time>2020-06-21T07:59:31Z</time>
      </trkpt>
      <trkpt lat="49.44877" lon="0.97459">
        <ele>62.1</ele>
        <time>2020-06-21T07:59:33Z</time>
      </trkpt>
      <trkpt lat="49.44877" lon="0.97459">
        <ele>62.2</ele>
        <time>2020-06-21T07:59:35Z</time>
      </trkpt>
      <trkpt lat="49.44877" lon="0.97459">
        <ele>62.2</ele>
        <time>2020-06-21T07:59:36Z</time>
      </trkpt>
      <trkpt lat="49.44877" lon="0.97459">
        <ele>62.3</ele>
        <time>2020-06-21T07:59:38Z</time>
      </trkpt>
      <trkpt lat="49.44877" lon="0.97459">
        <ele>62.4</ele>
        <time>2020-06-21T07:59:40Z</time>
      </trkpt>
      <trkpt lat="49.44877" lon="0.97459">
        <ele>62.5</ele>
        <time>2020-06-21T07:59:41Z</time>
      </trkpt>
      <trkpt lat="49.44877" lon="0.97459">
        <ele>62.6</ele>
        <time>2020-06-21T07:59:43Z</time>
      </trkpt>
      <trkpt lat="49.44877" lon="0.97459">
        <ele>62.7</ele>
        <time>2020-06-21T07:59:45Z</time>
      </trkpt>
      <trkpt lat="49.44877" lon="0.97459">
        <ele>62.7</ele>
        <time>2020-06-21T07:59:46Z</time>
      </trkpt>
      <trkpt lat="49.44877" lon="0.97458">
        <ele>62.8</ele>
        <time>2020-06-21T07:59:48Z</time>
      </trkpt>
      <trkpt lat="49.44877" lon="0.97458">
        <ele>62.9</ele>
        <time>2020-06-21T07:59:50Z</time>
      </trkpt>
      <trkpt lat="49.44877" lon="0.97458">
        <ele>63</ele>
        <time>2020-06-21T07:59:51Z</time>
      </trkpt>
      <trkpt lat="49.44877" lon="0.97458">
        <ele>63.1</ele>
        <time>2020-06-21T07:59:52Z</time>
      </trkpt>
      <trkpt lat="49.44877" lon="0.97458">
        <ele>63.1</ele>
        <time>2020-06-21T07:59:53Z</time>
      </trkpt>
      <trkpt lat="49.44877" lon="0.97458">
        <ele>63.2</ele>
        <time>2020-06-21T07:59:55Z</time>
      </trkpt>
      <trkpt lat="49.44877" lon="0.97458">
        <ele>63.3</ele>
        <time>2020-06-21T07:59:56Z</time>
      </trkpt>
      <trkpt lat="49.44877" lon="0.97458">
        <ele>63.4</ele>
        <time>2020-06-21T07:59:58Z</time>
      </trkpt>
      <trkpt lat="49.44877" lon="0.97458">
        <ele>63.5</ele>
        <time>2020-06-21T08:00:00Z</time>
      </trkpt>
      <trkpt lat="49.44877" lon="0.97458">
        <ele>63.6</ele>
        <time>2020-06-21T08:00:01Z</time>
      </trkpt>
      <trkpt lat="49.44877" lon="0.97458">
        <ele>63.6</ele>
        <time>2020-06-21T08:00:03Z</time>
      </trkpt>
      <trkpt lat="49.44877" lon="0.97458">
        <ele>63.7</ele>
        <time>2020-06-21T08:00:04Z</time>
      </trkpt>
      <trkpt lat="49.44877" lon="0.97458">
        <ele>63.8</ele>
        <time>2020-06-21T08:00:06Z</time>
      </trkpt>
      <trkpt lat="49.44877" lon="0.97458">
        <ele>63.9</ele>
        <time>2020-06-21T08:00:08Z</time>
      </trkpt>
      <trkpt lat="49.44877" lon="0.97458">
        <ele>64</ele>
        <time>2020-06-21T08:00:10Z</time>
      </trkpt>
      <trkpt lat="49.44878" lon="0.97457">
        <ele>64.1</ele>
        <time>2020-06-21T08:00:12Z</time>
      </trkpt>
      <trkpt lat="49.44878" lon="0.97457">
        <ele>64.1</ele>
        <time>2020-06-21T08:00:14Z</time>
      </trkpt>
      <trkpt lat="49.44878" lon="0.97457">
        <ele>64.2</ele>
        <time>2020-06-21T08:00:15Z</time>
      </trkpt>
      <trkpt lat="49.44878" lon="0.97457">
        <ele>64.3</ele>
        <time>2020-06-21T08:00:16Z</time>
      </trkpt>
      <trkpt lat="49.44878" lon="0.97456">
        <ele>64.2</ele>
        <time>2020-06-21T08:00:18Z</time>
      </trkpt>
      <trkpt lat="49.44879" lon="0.97456">
        <ele>64.3</ele>
        <time>2020-06-21T08:00:19Z</time>
      </trkpt>
      <trkpt lat="49.44879" lon="0.97456">
        <ele>64.4</ele>
        <time>2020-06-21T08:00:20Z</time>
      </trkpt>
      <trkpt lat="49.44879" lon="0.97456">
        <ele>64.4</ele>
        <time>2020-06-21T08:00:22Z</time>
      </trkpt>
      <trkpt lat="49.44879" lon="0.97456">
        <ele>64.5</ele>
        <time>2020-06-21T08:00:24Z</time>
      </trkpt>
      <trkpt lat="49.44879" lon="0.97456">
        <ele>64.8</ele>
        <time>2020-06-21T08:00:25Z</time>
      </trkpt>
      <trkpt lat="49.44879" lon="0.97455">
        <ele>64.9</ele>
        <time>2020-06-21T08:00:27Z</time>
      </trkpt>
      <trkpt lat="49.4488" lon="0.97455">
        <ele>65</ele>
        <time>2020-06-21T08:00:28Z</time>
      </trkpt>
      <trkpt lat="49.4488" lon="0.97455">
        <ele>65.1</ele>
        <time>2020-06-21T08:00:30Z</time>
      </trkpt>
      <trkpt lat="49.4488" lon="0.97455">
        <ele>65.2</ele>
        <time>2020-06-21T08:00:32Z</time>
      </trkpt>
      <trkpt lat="49.4488" lon="0.97455">
        <ele>65.2</ele>
        <time>2020-06-21T08:00:33Z</time>
      </trkpt>
      <trkpt lat="49.4488" lon="0.97454">
        <ele>65.3</ele>
        <time>2020-06-21T08:00:35Z</time>
      </trkpt>
      <trkpt lat="49.44881" lon="0.97454">
        <ele>65.4</ele>
        <time>2020-06-21T08:00:37Z</time>
      </trkpt>
      <trkpt lat="49.44881" lon="0.97455">
        <ele>65.5</ele>
        <time>2020-06-21T08:00:38Z</time>
      </trkpt>
      <trkpt lat="49.44881" lon="0.97455">
        <ele>65.6</ele>
        <time>2020-06-21T08:00:40Z</time>
      </trkpt>
      <trkpt lat="49.44881" lon="0.97455">
        <ele>65.7</ele>
        <time>2020-06-21T08:00:41Z</time>
      </trkpt>
      <trkpt lat="49.44882" lon="0.97454">
        <ele>65.7</ele>
        <time>2020-06-21T08:00:43Z</time>
      </trkpt>
      <trkpt lat="49.44882" lon="0.97454">
        <ele>65.8</ele>
        <time>2020-06-21T08:00:45Z</time>
      </trkpt>
      <trkpt lat="49.44882" lon="0.97455">
        <ele>65.9</ele>
        <time>2020-06-21T08:00:47Z</time>
      </trkpt>
      <trkpt lat="49.44882" lon="0.97455">
        <ele>66.2</ele>
        <time>2020-06-21T08:00:49Z</time>
      </trkpt>
      <trkpt lat="49.44882" lon="0.97455">
        <ele>66.3</ele>
        <time>2020-06-21T08:00:50Z</time>
      </trkpt>
      <trkpt lat="49.44883" lon="0.97454">
        <ele>66.4</ele>
        <time>2020-06-21T08:00:52Z</time>
      </trkpt>
      <trkpt lat="49.44883" lon="0.97454">
        <ele>66.5</ele>
        <time>2020-06-21T08:00:53Z</time>
      </trkpt>
      <trkpt lat="49.44883" lon="0.97454">
        <ele>66.5</ele>
        <time>2020-06-21T08:00:55Z</time>
      </trkpt>
      <trkpt lat="49.44883" lon="0.97453">
        <ele>66.6</ele>
        <time>2020-06-21T08:00:57Z</time>
      </trkpt>
      <trkpt lat="49.44882" lon="0.97453">
        <ele>66.7</ele>
        <time>2020-06-21T08:00:58Z</time>
      </trkpt>
      <trkpt lat="49.44882" lon="0.97453">
        <ele>66.8</ele>
        <time>2020-06-21T08:00:59Z</time>
      </trkpt>
      <trkpt lat="49.44882" lon="0.97453">
        <ele>66.9</ele>
        <time>2020-06-21T08:01:01Z</time>
      </trkpt>
      <trkpt lat="49.44882" lon="0.97453">
        <ele>66.9</ele>
        <time>2020-06-21T08:01:03Z</time>
      </trkpt>
      <trkpt lat="49.44882" lon="0.97453">
        <ele>67</ele>
        <time>2020-06-21T08:01:05Z</time>
      </trkpt>
      <trkpt lat="49.44883" lon="0.97453">
        <ele>67.1</ele>
        <time>2020-06-21T08:01:06Z</time>
      </trkpt>
      <trkpt lat="49.44883" lon="0.97453">
        <ele>67.2</ele>
        <time>2020-06-21T08:01:07Z</time>
      </trkpt>
      <trkpt lat="49.44883" lon="0.97452">
        <ele>67.1</ele>
        <time>2020-06-21T08:01:09Z</time>
      </trkpt>
      <trkpt lat="49.44884" lon="0.97449">
        <ele>67.2</ele>
        <time>2020-06-21T08:01:11Z</time>
      </trkpt>
      <trkpt lat="49.44884" lon="0.97447">
        <ele>67</ele>
        <time>2020-06-21T08:01:12Z</time>
      </trkpt>
      <trkpt lat="49.44884" lon="0.97446">
        <ele>67.1</ele>
        <time>2020-06-21T08:01:14Z</time>
      </trkpt>
      <trkpt lat="49.44884" lon="0.97445">
        <ele>67.2</ele>
        <time>2020-06-21T08:01:15Z</time>
      </trkpt>
      <trkpt lat="49.44884" lon="0.97444">
        <ele>67.3</ele>
        <time>2020-06-21T08:01:16Z</time>
      </trkpt>
      <trkpt lat="49.44884" lon="0.97443">
        <ele>67.1</ele>
        <time>2020-06-21T08:01:17Z</time>
      </trkpt>
      <trkpt lat="49.44884" lon="0.97441">
        <ele>67.2</ele>
        <time>2020-06-21T08:01:18Z</time>
      </trkpt>
      <trkpt lat="49.44884" lon="0.97438">
        <ele>67</ele>
        <time>2020-06-21T08:01:20Z</time>
      </trkpt>
      <trkpt lat="49.44885" lon="0.97433">
        <ele>66.8</ele>
        <time>2020-06-21T08:01:21Z</time>
      </trkpt>
      <trkpt lat="49.44886" lon="0.97428">
        <ele>66.7</ele>
        <time>2020-06-21T08:01:22Z</time>
      </trkpt>
      <trkpt lat="49.44887" lon="0.97424">
        <ele>66.3</ele>
        <time>2020-06-21T08:01:23Z</time>
      </trkpt>
      <trkpt lat="49.44888" lon="0.97418">
        <ele>65.4</ele>
        <time>2020-06-21T08:01:25Z</time>
      </trkpt>
      <trkpt lat="49.4489" lon="0.97411">
        <ele>64.9</ele>
        <time>2020-06-21T08:01:26Z</time>
      </trkpt>
      <trkpt lat="49.44891" lon="0.97401">
        <ele>64.1</ele>
        <time>2020-06-21T08:01:27Z</time>
      </trkpt>
      <trkpt lat="49.44893" lon="0.97384">
        <ele>62.4</ele>
        <time>2020-06-21T08:01:29Z</time>
      </trkpt>
      <trkpt lat="49.44895" lon="0.97371">
        <ele>60</ele>
        <time>2020-06-21T08:01:30Z</time>
      </trkpt>
      <trkpt lat="49.44897" lon="0.97356">
        <ele>57.8</ele>
        <time>2020-06-21T08:01:32Z</time>
      </trkpt>
      <trkpt lat="49.44899" lon="0.97346">
        <ele>56.3</ele>
        <time>2020-06-21T08:01:33Z</time>
      </trkpt>
      <trkpt lat="49.44899" lon="0.9734">
        <ele>54.8</ele>
        <time>2020-06-21T08:01:34Z</time>
      </trkpt>
      <trkpt lat="49.44899" lon="0.97334">
        <ele>54.2</ele>
        <time>2020-06-21T08:01:35Z</time>
      </trkpt>
      <trkpt lat="49.449" lon="0.97326">
        <ele>52.6</ele>
        <time>2020-06-21T08:01:37Z</time>
      </trkpt>
      <trkpt lat="49.44902" lon="0.97321">
        <ele>52</ele>
        <time>2020-06-21T08:01:38Z</time>
      </trkpt>
      <trkpt lat="49.44904" lon="0.97316">
        <ele>51.3</ele>
        <time>2020-06-21T08:01:39Z</time>
      </trkpt>
      <trkpt lat="49.44906" lon="0.97311">
        <ele>50.6</ele>
        <time>2020-06-21T08:01:40Z</time>
      </trkpt>
      <trkpt lat="49.4491" lon="0.97302">
        <ele>48.5</ele>
        <time>2020-06-21T08:01:42Z</time>
      </trkpt>
      <trkpt lat="49.44913" lon="0.97292">
        <ele>47</ele>
        <time>2020-06-21T08:01:43Z</time>
      </trkpt>
      <trkpt lat="49.44914" lon="0.97286">
        <ele>46.2</ele>
        <time>2020-06-21T08:01:44Z</time>
      </trkpt>
      <trkpt lat="49.44914" lon="0.97277">
        <ele>44.7</ele>
        <time>2020-06-21T08:01:46Z</time>
      </trkpt>
      <trkpt lat="49.44913" lon="0.97272">
        <ele>43.2</ele>
        <time>2020-06-21T08:01:47Z</time>
      </trkpt>
      <trkpt lat="49.4491" lon="0.97265">
        <ele>42.6</ele>
        <time>2020-06-21T08:01:48Z</time>
      </trkpt>
      <trkpt lat="49.44908" lon="0.97258">
        <ele>41.2</ele>
        <time>2020-06-21T08:01:50Z</time>
      </trkpt>
      <trkpt lat="49.44908" lon="0.97251">
        <ele>40.5</ele>
        <time>2020-06-21T08:01:51Z</time>
      </trkpt>
      <trkpt lat="49.44909" lon="0.97244">
        <ele>39.1</ele>
        <time>2020-06-21T08:01:52Z</time>
      </trkpt>
      <trkpt lat="49.44911" lon="0.9724">
        <ele>38.5</ele>
        <time>2020-06-21T08:01:53Z</time>
      </trkpt>
      <trkpt lat="49.44914" lon="0.97237">
        <ele>37.9</ele>
        <time>2020-06-21T08:01:55Z</time>
      </trkpt>
      <trkpt lat="49.44916" lon="0.97238">
        <ele>38.8</ele>
        <time>2020-06-21T08:01:56Z</time>
      </trkpt>
      <trkpt lat="49.44918" lon="0.97241">
        <ele>38.9</ele>
        <time>2020-06-21T08:01:58Z</time>
      </trkpt>
      <trkpt lat="49.44918" lon="0.97241">
        <ele>39</ele>
        <time>2020-06-21T08:01:59Z</time>
      </trkpt>
      <trkpt lat="49.4492" lon="0.97242">
        <ele>39.8</ele>
        <time>2020-06-21T08:02:00Z</time>
      </trkpt>
      <trkpt lat="49.44921" lon="0.97245">
        <ele>39.9</ele>
        <time>2020-06-21T08:02:02Z</time>
      </trkpt>
      <trkpt lat="49.44924" lon="0.97247">
        <ele>40.7</ele>
        <time>2020-06-21T08:02:03Z</time>
      </trkpt>
      <trkpt lat="49.44927" lon="0.9725">
        <ele>40.7</ele>
        <time>2020-06-21T08:02:05Z</time>
      </trkpt>
      <trkpt lat="49.44928" lon="0.97251">
        <ele>41.4</ele>
        <time>2020-06-21T08:02:06Z</time>
      </trkpt>
      <trkpt lat="49.44932" lon="0.97253">
        <ele>41.4</ele>
        <time>2020-06-21T08:02:07Z</time>
      </trkpt>
      <trkpt lat="49.44934" lon="0.97254">
        <ele>41.4</ele>
        <time>2020-06-21T08:02:08Z</time>
      </trkpt>
      <trkpt lat="49.44936" lon="0.97256">
        <ele>41.9</ele>
        <time>2020-06-21T08:02:09Z</time>
      </trkpt>
      <trkpt lat="49.44941" lon="0.97257">
        <ele>41.7</ele>
        <time>2020-06-21T08:02:11Z</time>
      </trkpt>
      <trkpt lat="49.44946" lon="0.97256">
        <ele>41.6</ele>
        <time>2020-06-21T08:02:13Z</time>
      </trkpt>
      <trkpt lat="49.4495" lon="0.97253">
        <ele>40.8</ele>
        <time>2020-06-21T08:02:14Z</time>
      </trkpt>
      <trkpt lat="49.44953" lon="0.97249">
        <ele>40.1</ele>
        <time>2020-06-21T08:02:16Z</time>
      </trkpt>
      <trkpt lat="49.44959" lon="0.9724">
        <ele>38.5</ele>
        <time>2020-06-21T08:02:18Z</time>
      </trkpt>
      <trkpt lat="49.44963" lon="0.97235">
        <ele>37.7</ele>
        <time>2020-06-21T08:02:19Z</time>
      </trkpt>
      <trkpt lat="49.44967" lon="0.97226">
        <ele>36</ele>
        <time>2020-06-21T08:02:20Z</time>
      </trkpt>
      <trkpt lat="49.44971" lon="0.97217">
        <ele>34.6</ele>
        <time>2020-06-21T08:02:21Z</time>
      </trkpt>
      <trkpt lat="49.44974" lon="0.97209">
        <ele>33</ele>
        <time>2020-06-21T08:02:22Z</time>
      </trkpt>
      <trkpt lat="49.44978" lon="0.97201">
        <ele>31.6</ele>
        <time>2020-06-21T08:02:23Z</time>
      </trkpt>
      <trkpt lat="49.44983" lon="0.97192">
        <ele>29.7</ele>
        <time>2020-06-21T08:02:24Z</time>
      </trkpt>
      <trkpt lat="49.44989" lon="0.9718">
        <ele>27.5</ele>
        <time>2020-06-21T08:02:25Z</time>
      </trkpt>
      <trkpt lat="49.44995" lon="0.97171">
        <ele>26.1</ele>
        <time>2020-06-21T08:02:27Z</time>
      </trkpt>
      <trkpt lat="49.44998" lon="0.97166">
        <ele>25.4</ele>
        <time>2020-06-21T08:02:28Z</time>
      </trkpt>
      <trkpt lat="49.45005" lon="0.97159">
        <ele>24</ele>
        <time>2020-06-21T08:02:30Z</time>
      </trkpt>
      <trkpt lat="49.45011" lon="0.97157">
        <ele>22.7</ele>
        <time>2020-06-21T08:02:31Z</time>
      </trkpt>
      <trkpt lat="49.45016" lon="0.97157">
        <ele>22</ele>
        <time>2020-06-21T08:02:32Z</time>
      </trkpt>
      <trkpt lat="49.45023" lon="0.97158">
        <ele>21.3</ele>
        <time>2020-06-21T08:02:34Z</time>
      </trkpt>
      <trkpt lat="49.45027" lon="0.9716">
        <ele>20.6</ele>
        <time>2020-06-21T08:02:35Z</time>
      </trkpt>
      <trkpt lat="49.45033" lon="0.97162">
        <ele>20.8</ele>
        <time>2020-06-21T08:02:37Z</time>
      </trkpt>
      <trkpt lat="49.45047" lon="0.97169">
        <ele>20.7</ele>
        <time>2020-06-21T08:02:38Z</time>
      </trkpt>
      <trkpt lat="49.45058" lon="0.97174">
        <ele>21</ele>
        <time>2020-06-21T08:02:39Z</time>
      </trkpt>
      <trkpt lat="49.45077" lon="0.97183">
        <ele>22.8</ele>
        <time>2020-06-21T08:02:41Z</time>
      </trkpt>
      <trkpt lat="49.45087" lon="0.97188">
        <ele>24.2</ele>
        <time>2020-06-21T08:02:43Z</time>
      </trkpt>
      <trkpt lat="49.45096" lon="0.97192">
        <ele>25.6</ele>
        <time>2020-06-21T08:02:44Z</time>
      </trkpt>
      <trkpt lat="49.45102" lon="0.97194">
        <ele>26.3</ele>
        <time>2020-06-21T08:02:45Z</time>
      </trkpt>
      <trkpt lat="49.45111" lon="0.97197">
        <ele>28</ele>
        <time>2020-06-21T08:02:47Z</time>
      </trkpt>
      <trkpt lat="49.45115" lon="0.97198">
        <ele>28.3</ele>
        <time>2020-06-21T08:02:48Z</time>
      </trkpt>
      <trkpt lat="49.4512" lon="0.972">
        <ele>29.4</ele>
        <time>2020-06-21T08:02:49Z</time>
      </trkpt>
      <trkpt lat="49.4513" lon="0.97204">
        <ele>30.5</ele>
        <time>2020-06-21T08:02:51Z</time>
      </trkpt>
      <trkpt lat="49.45142" lon="0.9721">
        <ele>31.4</ele>
        <time>2020-06-21T08:02:53Z</time>
      </trkpt>
      <trkpt lat="49.45147" lon="0.97213">
        <ele>32.1</ele>
        <time>2020-06-21T08:02:54Z</time>
      </trkpt>
      <trkpt lat="49.45156" lon="0.97217">
        <ele>32.6</ele>
        <time>2020-06-21T08:02:56Z</time>
      </trkpt>
      <trkpt lat="49.45159" lon="0.97219">
        <ele>32.6</ele>
        <time>2020-06-21T08:02:57Z</time>
      </trkpt>
      <trkpt lat="49.45161" lon="0.9722">
        <ele>32.6</ele>
        <time>2020-06-21T08:02:58Z</time>
      </trkpt>
      <trkpt lat="49.45165" lon="0.97224">
        <ele>33.2</ele>
        <time>2020-06-21T08:03:00Z</time>
      </trkpt>
      <trkpt lat="49.45171" lon="0.97228">
        <ele>33.7</ele>
        <time>2020-06-21T08:03:02Z</time>
      </trkpt>
      <trkpt lat="49.45173" lon="0.9723">
        <ele>34.4</ele>
        <time>2020-06-21T08:03:03Z</time>
      </trkpt>
      <trkpt lat="49.45178" lon="0.97234">
        <ele>34.9</ele>
        <time>2020-06-21T08:03:05Z</time>
      </trkpt>
      <trkpt lat="49.45182" lon="0.97237">
        <ele>34.9</ele>
        <time>2020-06-21T08:03:06Z</time>
      </trkpt>
      <trkpt lat="49.45183" lon="0.97238">
        <ele>35.5</ele>
        <time>2020-06-21T08:03:07Z</time>
      </trkpt>
      <trkpt lat="49.45189" lon="0.97241">
        <ele>35.3</ele>
        <time>2020-06-21T08:03:09Z</time>
      </trkpt>
      <trkpt lat="49.45194" lon="0.97244">
        <ele>35.6</ele>
        <time>2020-06-21T08:03:11Z</time>
      </trkpt>
      <trkpt lat="49.45197" lon="0.97245">
        <ele>35.5</ele>
        <time>2020-06-21T08:03:12Z</time>
      </trkpt>
      <trkpt lat="49.452" lon="0.97246">
        <ele>35.4</ele>
        <time>2020-06-21T08:03:13Z</time>
      </trkpt>
      <trkpt lat="49.45205" lon="0.97248">
        <ele>35.4</ele>
        <time>2020-06-21T08:03:15Z</time>
      </trkpt>
      <trkpt lat="49.45211" lon="0.97252">
        <ele>35.3</ele>
        <time>2020-06-21T08:03:17Z</time>
      </trkpt>
      <trkpt lat="49.45219" lon="0.97255">
        <ele>34.5</ele>
        <time>2020-06-21T08:03:19Z</time>
      </trkpt>
      <trkpt lat="49.45223" lon="0.97257">
        <ele>34.1</ele>
        <time>2020-06-21T08:03:20Z</time>
      </trkpt>
      <trkpt lat="49.4523" lon="0.97261">
        <ele>33.6</ele>
        <time>2020-06-21T08:03:21Z</time>
      </trkpt>
      <trkpt lat="49.45244" lon="0.97267">
        <ele>32.1</ele>
        <time>2020-06-21T08:03:23Z</time>
      </trkpt>
      <trkpt lat="49.45252" lon="0.97269">
        <ele>31.2</ele>
        <time>2020-06-21T08:03:25Z</time>
      </trkpt>
      <trkpt lat="49.45256" lon="0.9727">
        <ele>30.9</ele>
        <time>2020-06-21T08:03:26Z</time>
      </trkpt>
      <trkpt lat="49.45262" lon="0.97272">
        <ele>30.1</ele>
        <time>2020-06-21T08:03:27Z</time>
      </trkpt>
      <trkpt lat="49.45269" lon="0.97274">
        <ele>29.5</ele>
        <time>2020-06-21T08:03:29Z</time>
      </trkpt>
      <trkpt lat="49.45273" lon="0.97274">
        <ele>28.9</ele>
        <time>2020-06-21T08:03:30Z</time>
      </trkpt>
      <trkpt lat="49.45277" lon="0.97275">
        <ele>28.6</ele>
        <time>2020-06-21T08:03:31Z</time>
      </trkpt>
      <trkpt lat="49.45281" lon="0.97275">
        <ele>28.3</ele>
        <time>2020-06-21T08:03:32Z</time>
      </trkpt>
      <trkpt lat="49.45284" lon="0.97276">
        <ele>28.1</ele>
        <time>2020-06-21T08:03:33Z</time>
      </trkpt>
      <trkpt lat="49.45288" lon="0.97277">
        <ele>27.9</ele>
        <time>2020-06-21T08:03:35Z</time>
      </trkpt>
      <trkpt lat="49.45294" lon="0.97279">
        <ele>27.4</ele>
        <time>2020-06-21T08:03:36Z</time>
      </trkpt>
      <trkpt lat="49.45307" lon="0.97283">
        <ele>26.4</ele>
        <time>2020-06-21T08:03:38Z</time>
      </trkpt>
      <trkpt lat="49.45313" lon="0.97282">
        <ele>25.9</ele>
        <time>2020-06-21T08:03:39Z</time>
      </trkpt>
      <trkpt lat="49.4532" lon="0.97284">
        <ele>25.4</ele>
        <time>2020-06-21T08:03:41Z</time>
      </trkpt>
      <trkpt lat="49.45335" lon="0.97282">
        <ele>25</ele>
        <time>2020-06-21T08:03:42Z</time>
      </trkpt>
      <trkpt lat="49.45344" lon="0.97277">
        <ele>24.3</ele>
        <time>2020-06-21T08:03:43Z</time>
      </trkpt>
      <trkpt lat="49.45349" lon="0.97273">
        <ele>23.5</ele>
        <time>2020-06-21T08:03:44Z</time>
      </trkpt>
      <trkpt lat="49.45353" lon="0.97271">
        <ele>22.8</ele>
        <time>2020-06-21T08:03:45Z</time>
      </trkpt>
      <trkpt lat="49.45358" lon="0.97268">
        <ele>22.5</ele>
        <time>2020-06-21T08:03:47Z</time>
      </trkpt>
      <trkpt lat="49.45361" lon="0.97265">
        <ele>21.8</ele>
        <time>2020-06-21T08:03:48Z</time>
      </trkpt>
      <trkpt lat="49.45365" lon="0.97259">
        <ele>21.1</ele>
        <time>2020-06-21T08:03:49Z</time>
      </trkpt>
      <trkpt lat="49.45369" lon="0.97257">
        <ele>20.5</ele>
        <time>2020-06-21T08:03:50Z</time>
      </trkpt>
      <trkpt lat="49.45372" lon="0.97258">
        <ele>20.5</ele>
        <time>2020-06-21T08:03:51Z</time>
      </trkpt>
      <trkpt lat="49.45373" lon="0.97259">
        <ele>20.7</ele>
        <time>2020-06-21T08:03:52Z</time>
      </trkpt>
      <trkpt lat="49.45374" lon="0.97263">
        <ele>21.1</ele>
        <time>2020-06-21T08:03:54Z</time>
      </trkpt>
      <trkpt lat="49.45374" lon="0.97264">
        <ele>21.2</ele>
        <time>2020-06-21T08:03:55Z</time>
      </trkpt>
      <trkpt lat="49.45375" lon="0.97268">
        <ele>21.5</ele>
        <time>2020-06-21T08:03:56Z</time>
      </trkpt>
      <trkpt lat="49.45375" lon="0.9727">
        <ele>21.7</ele>
        <time>2020-06-21T08:03:58Z</time>
      </trkpt>
      <trkpt lat="49.45374" lon="0.97272">
        <ele>21.9</ele>
        <time>2020-06-21T08:04:00Z</time>
      </trkpt>
      <trkpt lat="49.45374" lon="0.97274">
        <ele>22.1</ele>
        <time>2020-06-21T08:04:01Z</time>
      </trkpt>
      <trkpt lat="49.45374" lon="0.97276">
        <ele>22.2</ele>
        <time>2020-06-21T08:04:02Z</time>
      </trkpt>
      <trkpt lat="49.45374" lon="0.97281">
        <ele>22.6</ele>
        <time>2020-06-21T08:04:04Z</time>
      </trkpt>
      <trkpt lat="49.45374" lon="0.97283">
        <ele>22.8</ele>
        <time>2020-06-21T08:04:05Z</time>
      </trkpt>
      <trkpt lat="49.45375" lon="0.97285">
        <ele>23</ele>
        <time>2020-06-21T08:04:07Z</time>
      </trkpt>
      <trkpt lat="49.45375" lon="0.97289">
        <ele>23.3</ele>
        <time>2020-06-21T08:04:08Z</time>
      </trkpt>
      <trkpt lat="49.45376" lon="0.97292">
        <ele>23.6</ele>
        <time>2020-06-21T08:04:10Z</time>
      </trkpt>
      <trkpt lat="49.45376" lon="0.97295">
        <ele>23.8</ele>
        <time>2020-06-21T08:04:11Z</time>
      </trkpt>
      <trkpt lat="49.45377" lon="0.97298">
        <ele>24.2</ele>
        <time>2020-06-21T08:04:13Z</time>
      </trkpt>
      <trkpt lat="49.45377" lon="0.97303">
        <ele>24.6</ele>
        <time>2020-06-21T08:04:14Z</time>
      </trkpt>
      <trkpt lat="49.45377" lon="0.97304">
        <ele>24.6</ele>
        <time>2020-06-21T08:04:15Z</time>
      </trkpt>
      <trkpt lat="49.45377" lon="0.97306">
        <ele>24.8</ele>
        <time>2020-06-21T08:04:16Z</time>
      </trkpt>
      <trkpt lat="49.45377" lon="0.97309">
        <ele>25.1</ele>
        <time>2020-06-21T08:04:18Z</time>
      </trkpt>
      <trkpt lat="49.45377" lon="0.97311">
        <ele>25.2</ele>
        <time>2020-06-21T08:04:20Z</time>
      </trkpt>
      <trkpt lat="49.45377" lon="0.97314">
        <ele>25.5</ele>
        <time>2020-06-21T08:04:21Z</time>
      </trkpt>
      <trkpt lat="49.45377" lon="0.97319">
        <ele>26.1</ele>
        <time>2020-06-21T08:04:22Z</time>
      </trkpt>
      <trkpt lat="49.45377" lon="0.9732">
        <ele>26.2</ele>
        <time>2020-06-21T08:04:23Z</time>
      </trkpt>
      <trkpt lat="49.45376" lon="0.97323">
        <ele>26.3</ele>
        <time>2020-06-21T08:04:25Z</time>
      </trkpt>
      <trkpt lat="49.45376" lon="0.97325">
        <ele>26.4</ele>
        <time>2020-06-21T08:04:26Z</time>
      </trkpt>
      <trkpt lat="49.45376" lon="0.97327">
        <ele>26.5</ele>
        <time>2020-06-21T08:04:27Z</time>
      </trkpt>
      <trkpt lat="49.45375" lon="0.97331">
        <ele>26.7</ele>
        <time>2020-06-21T08:04:29Z</time>
      </trkpt>
      <trkpt lat="49.45374" lon="0.97332">
        <ele>26.8</ele>
        <time>2020-06-21T08:04:30Z</time>
      </trkpt>
      <trkpt lat="49.45374" lon="0.97335">
        <ele>26.9</ele>
        <time>2020-06-21T08:04:31Z</time>
      </trkpt>
      <trkpt lat="49.45373" lon="0.9734">
        <ele>27.1</ele>
        <time>2020-06-21T08:04:33Z</time>
      </trkpt>
      <trkpt lat="49.45373" lon="0.97342">
        <ele>27.2</ele>
        <time>2020-06-21T08:04:34Z</time>
      </trkpt>
      <trkpt lat="49.45373" lon="0.97345">
        <ele>27.4</ele>
        <time>2020-06-21T08:04:35Z</time>
      </trkpt>
      <trkpt lat="49.45373" lon="0.97349">
        <ele>27.5</ele>
        <time>2020-06-21T08:04:37Z</time>
      </trkpt>
      <trkpt lat="49.45373" lon="0.97354">
        <ele>27.7</ele>
        <time>2020-06-21T08:04:38Z</time>
      </trkpt>
      <trkpt lat="49.45373" lon="0.97356">
        <ele>27.8</ele>
        <time>2020-06-21T08:04:39Z</time>
      </trkpt>
      <trkpt lat="49.45373" lon="0.97359">
        <ele>27.9</ele>
        <time>2020-06-21T08:04:40Z</time>
      </trkpt>
      <trkpt lat="49.45372" lon="0.97362">
        <ele>28.1</ele>
        <time>2020-06-21T08:04:42Z</time>
      </trkpt>
      <trkpt lat="49.45372" lon="0.97367">
        <ele>28.3</ele>
        <time>2020-06-21T08:04:43Z</time>
      </trkpt>
      <trkpt lat="49.45371" lon="0.9737">
        <ele>28.4</ele>
        <time>2020-06-21T08:04:44Z</time>
      </trkpt>
      <trkpt lat="49.45371" lon="0.97373">
        <ele>28.6</ele>
        <time>2020-06-21T08:04:45Z</time>
      </trkpt>
      <trkpt lat="49.45371" lon="0.97376">
        <ele>28.7</ele>
        <time>2020-06-21T08:04:47Z</time>
      </trkpt>
      <trkpt lat="49.45371" lon="0.97378">
        <ele>28.9</ele>
        <time>2020-06-21T08:04:48Z</time>
      </trkpt>
      <trkpt lat="49.4537" lon="0.97382">
        <ele>29.1</ele>
        <time>2020-06-21T08:04:50Z</time>
      </trkpt>
      <trkpt lat="49.45369" lon="0.97387">
        <ele>29.3</ele>
        <time>2020-06-21T08:04:51Z</time>
      </trkpt>
      <trkpt lat="49.45369" lon="0.97388">
        <ele>29.4</ele>
        <time>2020-06-21T08:04:52Z</time>
      </trkpt>
      <trkpt lat="49.45368" lon="0.97394">
        <ele>29.7</ele>
        <time>2020-06-21T08:04:54Z</time>
      </trkpt>
      <trkpt lat="49.45368" lon="0.97395">
        <ele>29.8</ele>
        <time>2020-06-21T08:04:55Z</time>
      </trkpt>
      <trkpt lat="49.45368" lon="0.97404">
        <ele>30.2</ele>
        <time>2020-06-21T08:04:57Z</time>
      </trkpt>
      <trkpt lat="49.45368" lon="0.97407">
        <ele>30.3</ele>
        <time>2020-06-21T08:04:58Z</time>
      </trkpt>
      <trkpt lat="49.45368" lon="0.97409">
        <ele>30.5</ele>
        <time>2020-06-21T08:04:59Z</time>
      </trkpt>
      <trkpt lat="49.45368" lon="0.97415">
        <ele>30.7</ele>
        <time>2020-06-21T08:05:01Z</time>
      </trkpt>
      <trkpt lat="49.45368" lon="0.97416">
        <ele>30.8</ele>
        <time>2020-06-21T08:05:02Z</time>
      </trkpt>
      <trkpt lat="49.45367" lon="0.97422">
        <ele>31.1</ele>
        <time>2020-06-21T08:05:03Z</time>
      </trkpt>
      <trkpt lat="49.45367" lon="0.97424">
        <ele>31.2</ele>
        <time>2020-06-21T08:05:04Z</time>
      </trkpt>
      <trkpt lat="49.45367" lon="0.97427">
        <ele>31.4</ele>
        <time>2020-06-21T08:05:05Z</time>
      </trkpt>
      <trkpt lat="49.45367" lon="0.9743">
        <ele>31.6</ele>
        <time>2020-06-21T08:05:07Z</time>
      </trkpt>
      <trkpt lat="49.45367" lon="0.97435">
        <ele>31.8</ele>
        <time>2020-06-21T08:05:08Z</time>
      </trkpt>
      <trkpt lat="49.45367" lon="0.97436">
        <ele>31.9</ele>
        <time>2020-06-21T08:05:09Z</time>
      </trkpt>
      <trkpt lat="49.45367" lon="0.9744">
        <ele>32.1</ele>
        <time>2020-06-21T08:05:11Z</time>
      </trkpt>
      <trkpt lat="49.45367" lon="0.97441">
        <ele>32.2</ele>
        <time>2020-06-21T08:05:12Z</time>
      </trkpt>
      <trkpt lat="49.45367" lon="0.97443">
        <ele>32.3</ele>
        <time>2020-06-21T08:05:13Z</time>
      </trkpt>
      <trkpt lat="49.45367" lon="0.97444">
        <ele>32.4</ele>
        <time>2020-06-21T08:05:15Z</time>
      </trkpt>
      <trkpt lat="49.45366" lon="0.97446">
        <ele>32.5</ele>
        <time>2020-06-21T08:05:16Z</time>
      </trkpt>
      <trkpt lat="49.45366" lon="0.97449">
        <ele>32.6</ele>
        <time>2020-06-21T08:05:18Z</time>
      </trkpt>
      <trkpt lat="49.45366" lon="0.97452">
        <ele>32.8</ele>
        <time>2020-06-21T08:05:20Z</time>
      </trkpt>
      <trkpt lat="49.45366" lon="0.97453">
        <ele>32.9</ele>
        <time>2020-06-21T08:05:21Z</time>
      </trkpt>
      <trkpt lat="49.45365" lon="0.97455">
        <ele>33</ele>
        <time>2020-06-21T08:05:22Z</time>
      </trkpt>
      <trkpt lat="49.45365" lon="0.97458">
        <ele>33.2</ele>
        <time>2020-06-21T08:05:24Z</time>
      </trkpt>
      <trkpt lat="49.45365" lon="0.97459">
        <ele>33.3</ele>
        <time>2020-06-21T08:05:25Z</time>
      </trkpt>
      <trkpt lat="49.45364" lon="0.9746">
        <ele>33.4</ele>
        <time>2020-06-21T08:05:26Z</time>
      </trkpt>
      <trkpt lat="49.45364" lon="0.97462">
        <ele>33.5</ele>
        <time>2020-06-21T08:05:27Z</time>
      </trkpt>
      <trkpt lat="49.45364" lon="0.97464">
        <ele>33.6</ele>
        <time>2020-06-21T08:05:28Z</time>
      </trkpt>
      <trkpt lat="49.45363" lon="0.97467">
        <ele>33.7</ele>
        <time>2020-06-21T08:05:29Z</time>
      </trkpt>
      <trkpt lat="49.45363" lon="0.97471">
        <ele>34</ele>
        <time>2020-06-21T08:05:30Z</time>
      </trkpt>
      <trkpt lat="49.45362" lon="0.97473">
        <ele>34.2</ele>
        <time>2020-06-21T08:05:32Z</time>
      </trkpt>
      <trkpt lat="49.45361" lon="0.97477">
        <ele>34.4</ele>
        <time>2020-06-21T08:05:33Z</time>
      </trkpt>
      <trkpt lat="49.4536" lon="0.97479">
        <ele>34.6</ele>
        <time>2020-06-21T08:05:35Z</time>
      </trkpt>
      <trkpt lat="49.45359" lon="0.9748">
        <ele>34.7</ele>
        <time>2020-06-21T08:05:36Z</time>
      </trkpt>
      <trkpt lat="49.45359" lon="0.97482">
        <ele>34.8</ele>
        <time>2020-06-21T08:05:37Z</time>
      </trkpt>
      <trkpt lat="49.45357" lon="0.97489">
        <ele>35.2</ele>
        <time>2020-06-21T08:05:39Z</time>
      </trkpt>
      <trkpt lat="49.45356" lon="0.97492">
        <ele>35.4</ele>
        <time>2020-06-21T08:05:40Z</time>
      </trkpt>
      <trkpt lat="49.45356" lon="0.97498">
        <ele>35.8</ele>
        <time>2020-06-21T08:05:42Z</time>
      </trkpt>
      <trkpt lat="49.45356" lon="0.97507">
        <ele>36.4</ele>
        <time>2020-06-21T08:05:44Z</time>
      </trkpt>
      <trkpt lat="49.45355" lon="0.97514">
        <ele>36.8</ele>
        <time>2020-06-21T08:05:46Z</time>
      </trkpt>
      <trkpt lat="49.45355" lon="0.97523">
        <ele>37.3</ele>
        <time>2020-06-21T08:05:47Z</time>
      </trkpt>
      <trkpt lat="49.45356" lon="0.97531">
        <ele>37.8</ele>
        <time>2020-06-21T08:05:48Z</time>
      </trkpt>
      <trkpt lat="49.45356" lon="0.97538">
        <ele>38.2</ele>
        <time>2020-06-21T08:05:50Z</time>
      </trkpt>
      <trkpt lat="49.45355" lon="0.97542">
        <ele>38.4</ele>
        <time>2020-06-21T08:05:51Z</time>
      </trkpt>
      <trkpt lat="49.45355" lon="0.97545">
        <ele>38.6</ele>
        <time>2020-06-21T08:05:52Z</time>
      </trkpt>
      <trkpt lat="49.45354" lon="0.9755">
        <ele>38.9</ele>
        <time>2020-06-21T08:05:54Z</time>
      </trkpt>
      <trkpt lat="49.45354" lon="0.97555">
        <ele>39.2</ele>
        <time>2020-06-21T08:05:56Z</time>
      </trkpt>
      <trkpt lat="49.45354" lon="0.97556">
        <ele>39.3</ele>
        <time>2020-06-21T08:05:57Z</time>
      </trkpt>
      <trkpt lat="49.45354" lon="0.9756">
        <ele>39.5</ele>
        <time>2020-06-21T08:05:58Z</time>
      </trkpt>
      <trkpt lat="49.45354" lon="0.97562">
        <ele>39.6</ele>
        <time>2020-06-21T08:05:59Z</time>
      </trkpt>
      <trkpt lat="49.45354" lon="0.97563">
        <ele>39.7</ele>
        <time>2020-06-21T08:06:00Z</time>
      </trkpt>
      <trkpt lat="49.45354" lon="0.97566">
        <ele>39.9</ele>
        <time>2020-06-21T08:06:02Z</time>
      </trkpt>
      <trkpt lat="49.45354" lon="0.97572">
        <ele>40.2</ele>
        <time>2020-06-21T08:06:04Z</time>
      </trkpt>
      <trkpt lat="49.45355" lon="0.97576">
        <ele>40.4</ele>
        <time>2020-06-21T08:06:05Z</time>
      </trkpt>
      <trkpt lat="49.45355" lon="0.97577">
        <ele>40.5</ele>
        <time>2020-06-21T08:06:06Z</time>
      </trkpt>
      <trkpt lat="49.45355" lon="0.97583">
        <ele>40.9</ele>
        <time>2020-06-21T08:06:08Z</time>
      </trkpt>
      <trkpt lat="49.45356" lon="0.97585">
        <ele>41</ele>
        <time>2020-06-21T08:06:09Z</time>
      </trkpt>
      <trkpt lat="49.45356" lon="0.97587">
        <ele>41.1</ele>
        <time>2020-06-21T08:06:10Z</time>
      </trkpt>
      <trkpt lat="49.45357" lon="0.97591">
        <ele>41.3</ele>
        <time>2020-06-21T08:06:12Z</time>
      </trkpt>
      <trkpt lat="49.45358" lon="0.97595">
        <ele>41.5</ele>
        <time>2020-06-21T08:06:13Z</time>
      </trkpt>
      <trkpt lat="49.4536" lon="0.976">
        <ele>41.9</ele>
        <time>2020-06-21T08:06:15Z</time>
      </trkpt>
      <trkpt lat="49.45361" lon="0.97604">
        <ele>42.1</ele>
        <time>2020-06-21T08:06:17Z</time>
      </trkpt>
      <trkpt lat="49.45361" lon="0.97609">
        <ele>42.4</ele>
        <time>2020-06-21T08:06:19Z</time>
      </trkpt>
      <trkpt lat="49.45361" lon="0.97612">
        <ele>42.5</ele>
        <time>2020-06-21T08:06:20Z</time>
      </trkpt>
      <trkpt lat="49.45362" lon="0.97614">
        <ele>42.7</ele>
        <time>2020-06-21T08:06:21Z</time>
      </trkpt>
      <trkpt lat="49.45363" lon="0.97619">
        <ele>42.9</ele>
        <time>2020-06-21T08:06:23Z</time>
      </trkpt>
      <trkpt lat="49.45363" lon="0.97621">
        <ele>43</ele>
        <time>2020-06-21T08:06:24Z</time>
      </trkpt>
      <trkpt lat="49.45363" lon="0.97624">
        <ele>43.2</ele>
        <time>2020-06-21T08:06:25Z</time>
      </trkpt>
      <trkpt lat="49.45363" lon="0.97626">
        <ele>43.3</ele>
        <time>2020-06-21T08:06:26Z</time>
      </trkpt>
      <trkpt lat="49.45364" lon="0.97631">
        <ele>43.6</ele>
        <time>2020-06-21T08:06:28Z</time>
      </trkpt>
      <trkpt lat="49.45365" lon="0.97635">
        <ele>43.8</ele>
        <time>2020-06-21T08:06:29Z</time>
      </trkpt>
      <trkpt lat="49.45366" lon="0.97638">
        <ele>44</ele>
        <time>2020-06-21T08:06:30Z</time>
      </trkpt>
      <trkpt lat="49.45366" lon="0.97642">
        <ele>44.3</ele>
        <time>2020-06-21T08:06:32Z</time>
      </trkpt>
      <trkpt lat="49.45367" lon="0.97647">
        <ele>44.6</ele>
        <time>2020-06-21T08:06:33Z</time>
      </trkpt>
      <trkpt lat="49.45368" lon="0.97649">
        <ele>44.7</ele>
        <time>2020-06-21T08:06:34Z</time>
      </trkpt>
      <trkpt lat="49.45369" lon="0.97653">
        <ele>45</ele>
        <time>2020-06-21T08:06:36Z</time>
      </trkpt>
      <trkpt lat="49.4537" lon="0.97656">
        <ele>45.2</ele>
        <time>2020-06-21T08:06:37Z</time>
      </trkpt>
      <trkpt lat="49.45371" lon="0.97662">
        <ele>45.6</ele>
        <time>2020-06-21T08:06:39Z</time>
      </trkpt>
      <trkpt lat="49.45372" lon="0.97665">
        <ele>45.9</ele>
        <time>2020-06-21T08:06:40Z</time>
      </trkpt>
      <trkpt lat="49.45373" lon="0.97669">
        <ele>46.2</ele>
        <time>2020-06-21T08:06:42Z</time>
      </trkpt>
      <trkpt lat="49.45374" lon="0.97673">
        <ele>46.5</ele>
        <time>2020-06-21T08:06:43Z</time>
      </trkpt>
      <trkpt lat="49.45374" lon="0.97675">
        <ele>46.6</ele>
        <time>2020-06-21T08:06:44Z</time>
      </trkpt>
      <trkpt lat="49.45374" lon="0.97678">
        <ele>46.8</ele>
        <time>2020-06-21T08:06:45Z</time>
      </trkpt>
      <trkpt lat="49.45375" lon="0.9768">
        <ele>46.9</ele>
        <time>2020-06-21T08:06:46Z</time>
      </trkpt>
      <trkpt lat="49.45375" lon="0.97682">
        <ele>47.1</ele>
        <time>2020-06-21T08:06:47Z</time>
      </trkpt>
      <trkpt lat="49.45376" lon="0.97686">
        <ele>47.3</ele>
        <time>2020-06-21T08:06:49Z</time>
      </trkpt>
      <trkpt lat="49.45376" lon="0.97688">
        <ele>47.5</ele>
        <time>2020-06-21T08:06:50Z</time>
      </trkpt>
      <trkpt lat="49.45377" lon="0.97692">
        <ele>47.7</ele>
        <time>2020-06-21T08:06:52Z</time>
      </trkpt>
      <trkpt lat="49.45377" lon="0.97697">
        <ele>48</ele>
        <time>2020-06-21T08:06:53Z</time>
      </trkpt>
      <trkpt lat="49.45378" lon="0.97699">
        <ele>48.1</ele>
        <time>2020-06-21T08:06:54Z</time>
      </trkpt>
      <trkpt lat="49.45378" lon="0.97701">
        <ele>48.3</ele>
        <time>2020-06-21T08:06:56Z</time>
      </trkpt>
      <trkpt lat="49.45378" lon="0.97703">
        <ele>48.4</ele>
        <time>2020-06-21T08:06:57Z</time>
      </trkpt>
      <trkpt lat="49.45378" lon="0.97705">
        <ele>48.5</ele>
        <time>2020-06-21T08:06:58Z</time>
      </trkpt>
      <trkpt lat="49.45378" lon="0.97708">
        <ele>48.7</ele>
        <time>2020-06-21T08:06:59Z</time>
      </trkpt>
      <trkpt lat="49.45378" lon="0.9771">
        <ele>48.8</ele>
        <time>2020-06-21T08:07:00Z</time>
      </trkpt>
      <trkpt lat="49.45379" lon="0.97712">
        <ele>48.9</ele>
        <time>2020-06-21T08:07:01Z</time>
      </trkpt>
      <trkpt lat="49.45379" lon="0.97717">
        <ele>49.2</ele>
        <time>2020-06-21T08:07:03Z</time>
      </trkpt>
      <trkpt lat="49.4538" lon="0.97718">
        <ele>49.3</ele>
        <time>2020-06-21T08:07:04Z</time>
      </trkpt>
      <trkpt lat="49.45381" lon="0.97723">
        <ele>49.6</ele>
        <time>2020-06-21T08:07:06Z</time>
      </trkpt>
      <trkpt lat="49.45381" lon="0.97725">
        <ele>49.6</ele>
        <time>2020-06-21T08:07:07Z</time>
      </trkpt>
      <trkpt lat="49.45382" lon="0.97731">
        <ele>50</ele>
        <time>2020-06-21T08:07:09Z</time>
      </trkpt>
      <trkpt lat="49.45383" lon="0.97733">
        <ele>50.2</ele>
        <time>2020-06-21T08:07:10Z</time>
      </trkpt>
      <trkpt lat="49.45383" lon="0.97736">
        <ele>50.3</ele>
        <time>2020-06-21T08:07:11Z</time>
      </trkpt>
      <trkpt lat="49.45384" lon="0.97742">
        <ele>50.6</ele>
        <time>2020-06-21T08:07:13Z</time>
      </trkpt>
      <trkpt lat="49.45384" lon="0.97744">
        <ele>50.8</ele>
        <time>2020-06-21T08:07:14Z</time>
      </trkpt>
      <trkpt lat="49.45384" lon="0.97747">
        <ele>50.9</ele>
        <time>2020-06-21T08:07:15Z</time>
      </trkpt>
      <trkpt lat="49.45384" lon="0.97751">
        <ele>51.2</ele>
        <time>2020-06-21T08:07:17Z</time>
      </trkpt>
      <trkpt lat="49.45385" lon="0.97754">
        <ele>51.4</ele>
        <time>2020-06-21T08:07:18Z</time>
      </trkpt>
      <trkpt lat="49.45385" lon="0.9776">
        <ele>51.7</ele>
        <time>2020-06-21T08:07:20Z</time>
      </trkpt>
      <trkpt lat="49.45386" lon="0.97764">
        <ele>51.9</ele>
        <time>2020-06-21T08:07:21Z</time>
      </trkpt>
      <trkpt lat="49.45387" lon="0.97765">
        <ele>52</ele>
        <time>2020-06-21T08:07:22Z</time>
      </trkpt>
      <trkpt lat="49.45389" lon="0.97772">
        <ele>52.4</ele>
        <time>2020-06-21T08:07:24Z</time>
      </trkpt>
      <trkpt lat="49.45389" lon="0.97774">
        <ele>52.6</ele>
        <time>2020-06-21T08:07:26Z</time>
      </trkpt>
      <trkpt lat="49.4539" lon="0.97776">
        <ele>52.7</ele>
        <time>2020-06-21T08:07:27Z</time>
      </trkpt>
      <trkpt lat="49.45391" lon="0.97781">
        <ele>53</ele>
        <time>2020-06-21T08:07:28Z</time>
      </trkpt>
      <trkpt lat="49.45391" lon="0.97783">
        <ele>53.1</ele>
        <time>2020-06-21T08:07:29Z</time>
      </trkpt>
      <trkpt lat="49.45392" lon="0.97787">
        <ele>53.3</ele>
        <time>2020-06-21T08:07:31Z</time>
      </trkpt>
      <trkpt lat="49.45392" lon="0.97788">
        <ele>53.4</ele>
        <time>2020-06-21T08:07:32Z</time>
      </trkpt>
      <trkpt lat="49.45392" lon="0.97791">
        <ele>53.6</ele>
        <time>2020-06-21T08:07:33Z</time>
      </trkpt>
      <trkpt lat="49.45392" lon="0.97796">
        <ele>53.9</ele>
        <time>2020-06-21T08:07:35Z</time>
      </trkpt>
      <trkpt lat="49.45391" lon="0.97799">
        <ele>54</ele>
        <time>2020-06-21T08:07:36Z</time>
      </trkpt>
      <trkpt lat="49.45391" lon="0.978">
        <ele>54.1</ele>
        <time>2020-06-21T08:07:37Z</time>
      </trkpt>
      <trkpt lat="49.45391" lon="0.97804">
        <ele>54.4</ele>
        <time>2020-06-21T08:07:39Z</time>
      </trkpt>
      <trkpt lat="49.4539" lon="0.97806">
        <ele>54.5</ele>
        <time>2020-06-21T08:07:41Z</time>
      </trkpt>
      <trkpt lat="49.4539" lon="0.97808">
        <ele>54.7</ele>
        <time>2020-06-21T08:07:42Z</time>
      </trkpt>
      <trkpt lat="49.45389" lon="0.97812">
        <ele>54.9</ele>
        <time>2020-06-21T08:07:44Z</time>
      </trkpt>
      <trkpt lat="49.45389" lon="0.97815">
        <ele>55.1</ele>
        <time>2020-06-21T08:07:45Z</time>
      </trkpt>
      <trkpt lat="49.45388" lon="0.97817">
        <ele>55.2</ele>
        <time>2020-06-21T08:07:46Z</time>
      </trkpt>
      <trkpt lat="49.45388" lon="0.97818">
        <ele>55.3</ele>
        <time>2020-06-21T08:07:47Z</time>
      </trkpt>
      <trkpt lat="49.45387" lon="0.97822">
        <ele>55.6</ele>
        <time>2020-06-21T08:07:49Z</time>
      </trkpt>
      <trkpt lat="49.45386" lon="0.97825">
        <ele>55.8</ele>
        <time>2020-06-21T08:07:50Z</time>
      </trkpt>
      <trkpt lat="49.45384" lon="0.97829">
        <ele>56.2</ele>
        <time>2020-06-21T08:07:52Z</time>
      </trkpt>
      <trkpt lat="49.45383" lon="0.97831">
        <ele>56.3</ele>
        <time>2020-06-21T08:07:53Z</time>
      </trkpt>
      <trkpt lat="49.45382" lon="0.97836">
        <ele>56.7</ele>
        <time>2020-06-21T08:07:55Z</time>
      </trkpt>
      <trkpt lat="49.45381" lon="0.97838">
        <ele>56.8</ele>
        <time>2020-06-21T08:07:56Z</time>
      </trkpt>
      <trkpt lat="49.4538" lon="0.97841">
        <ele>57</ele>
        <time>2020-06-21T08:07:57Z</time>
      </trkpt>
      <trkpt lat="49.45378" lon="0.97845">
        <ele>57.4</ele>
        <time>2020-06-21T08:07:59Z</time>
      </trkpt>
      <trkpt lat="49.45376" lon="0.97848">
        <ele>57.6</ele>
        <time>2020-06-21T08:08:01Z</time>
      </trkpt>
      <trkpt lat="49.45376" lon="0.97851">
        <ele>57.8</ele>
        <time>2020-06-21T08:08:02Z</time>
      </trkpt>
      <trkpt lat="49.45374" lon="0.97856">
        <ele>58.1</ele>
        <time>2020-06-21T08:08:04Z</time>
      </trkpt>
      <trkpt lat="49.45374" lon="0.97858">
        <ele>58.3</ele>
        <time>2020-06-21T08:08:05Z</time>
      </trkpt>
      <trkpt lat="49.45373" lon="0.97862">
        <ele>58.6</ele>
        <time>2020-06-21T08:08:07Z</time>
      </trkpt>
      <trkpt lat="49.45373" lon="0.97865">
        <ele>58.8</ele>
        <time>2020-06-21T08:08:08Z</time>
      </trkpt>
      <trkpt lat="49.45373" lon="0.97869">
        <ele>59</ele>
        <time>2020-06-21T08:08:10Z</time>
      </trkpt>
      <trkpt lat="49.45373" lon="0.97873">
        <ele>59.2</ele>
        <time>2020-06-21T08:08:11Z</time>
      </trkpt>
      <trkpt lat="49.45373" lon="0.97874">
        <ele>59.4</ele>
        <time>2020-06-21T08:08:12Z</time>
      </trkpt>
      <trkpt lat="49.45373" lon="0.97876">
        <ele>59.5</ele>
        <time>2020-06-21T08:08:13Z</time>
      </trkpt>
      <trkpt lat="49.45373" lon="0.97879">
        <ele>59.7</ele>
        <time>2020-06-21T08:08:15Z</time>
      </trkpt>
      <trkpt lat="49.45373" lon="0.97881">
        <ele>59.8</ele>
        <time>2020-06-21T08:08:16Z</time>
      </trkpt>
      <trkpt lat="49.45374" lon="0.97883">
        <ele>60</ele>
        <time>2020-06-21T08:08:17Z</time>
      </trkpt>
      <trkpt lat="49.45374" lon="0.97885">
        <ele>60.2</ele>
        <time>2020-06-21T08:08:18Z</time>
      </trkpt>
      <trkpt lat="49.45375" lon="0.9789">
        <ele>60.5</ele>
        <time>2020-06-21T08:08:19Z</time>
      </trkpt>
      <trkpt lat="49.45375" lon="0.97891">
        <ele>60.6</ele>
        <time>2020-06-21T08:08:20Z</time>
      </trkpt>
      <trkpt lat="49.45376" lon="0.97896">
        <ele>61</ele>
        <time>2020-06-21T08:08:22Z</time>
      </trkpt>
      <trkpt lat="49.45376" lon="0.97898">
        <ele>61.1</ele>
        <time>2020-06-21T08:08:23Z</time>
      </trkpt>
      <trkpt lat="49.45377" lon="0.97903">
        <ele>61.6</ele>
        <time>2020-06-21T08:08:24Z</time>
      </trkpt>
      <trkpt lat="49.45379" lon="0.97908">
        <ele>62</ele>
        <time>2020-06-21T08:08:26Z</time>
      </trkpt>
      <trkpt lat="49.45379" lon="0.97909">
        <ele>62.1</ele>
        <time>2020-06-21T08:08:27Z</time>
      </trkpt>
      <trkpt lat="49.45381" lon="0.97916">
        <ele>62.7</ele>
        <time>2020-06-21T08:08:29Z</time>
      </trkpt>
      <trkpt lat="49.45381" lon="0.97919">
        <ele>62.9</ele>
        <time>2020-06-21T08:08:31Z</time>
      </trkpt>
      <trkpt lat="49.45381" lon="0.97921">
        <ele>63</ele>
        <time>2020-06-21T08:08:32Z</time>
      </trkpt>
      <trkpt lat="49.45382" lon="0.97923">
        <ele>63.2</ele>
        <time>2020-06-21T08:08:33Z</time>
      </trkpt>
      <trkpt lat="49.45383" lon="0.97928">
        <ele>63.6</ele>
        <time>2020-06-21T08:08:35Z</time>
      </trkpt>
      <trkpt lat="49.45385" lon="0.97932">
        <ele>64</ele>
        <time>2020-06-21T08:08:37Z</time>
      </trkpt>
      <trkpt lat="49.45385" lon="0.97935">
        <ele>64.2</ele>
        <time>2020-06-21T08:08:38Z</time>
      </trkpt>
      <trkpt lat="49.45386" lon="0.97941">
        <ele>64.6</ele>
        <time>2020-06-21T08:08:40Z</time>
      </trkpt>
      <trkpt lat="49.45386" lon="0.97943">
        <ele>64.7</ele>
        <time>2020-06-21T08:08:41Z</time>
      </trkpt>
      <trkpt lat="49.45386" lon="0.97945">
        <ele>64.9</ele>
        <time>2020-06-21T08:08:42Z</time>
      </trkpt>
      <trkpt lat="49.45386" lon="0.97947">
        <ele>65.1</ele>
        <time>2020-06-21T08:08:44Z</time>
      </trkpt>
      <trkpt lat="49.45387" lon="0.9795">
        <ele>65.3</ele>
        <time>2020-06-21T08:08:45Z</time>
      </trkpt>
      <trkpt lat="49.45387" lon="0.97951">
        <ele>65.4</ele>
        <time>2020-06-21T08:08:46Z</time>
      </trkpt>
      <trkpt lat="49.45389" lon="0.97957">
        <ele>65.8</ele>
        <time>2020-06-21T08:08:48Z</time>
      </trkpt>
      <trkpt lat="49.4539" lon="0.97959">
        <ele>66</ele>
        <time>2020-06-21T08:08:49Z</time>
      </trkpt>
      <trkpt lat="49.45391" lon="0.97961">
        <ele>66.2</ele>
        <time>2020-06-21T08:08:51Z</time>
      </trkpt>
      <trkpt lat="49.45391" lon="0.97963">
        <ele>66.3</ele>
        <time>2020-06-21T08:08:52Z</time>
      </trkpt>
      <trkpt lat="49.45392" lon="0.97965">
        <ele>66.5</ele>
        <time>2020-06-21T08:08:54Z</time>
      </trkpt>
      <trkpt lat="49.45393" lon="0.97967">
        <ele>66.6</ele>
        <time>2020-06-21T08:08:55Z</time>
      </trkpt>
      <trkpt lat="49.45394" lon="0.97969">
        <ele>66.7</ele>
        <time>2020-06-21T08:08:56Z</time>
      </trkpt>
      <trkpt lat="49.45395" lon="0.97971">
        <ele>66.9</ele>
        <time>2020-06-21T08:08:57Z</time>
      </trkpt>
      <trkpt lat="49.45396" lon="0.97974">
        <ele>67.2</ele>
        <time>2020-06-21T08:08:59Z</time>
      </trkpt>
      <trkpt lat="49.45398" lon="0.97979">
        <ele>67.5</ele>
        <time>2020-06-21T08:09:00Z</time>
      </trkpt>
      <trkpt lat="49.45398" lon="0.9798">
        <ele>67.6</ele>
        <time>2020-06-21T08:09:01Z</time>
      </trkpt>
      <trkpt lat="49.454" lon="0.97984">
        <ele>67.9</ele>
        <time>2020-06-21T08:09:03Z</time>
      </trkpt>
      <trkpt lat="49.454" lon="0.97986">
        <ele>68</ele>
        <time>2020-06-21T08:09:04Z</time>
      </trkpt>
      <trkpt lat="49.45401" lon="0.9799">
        <ele>68.3</ele>
        <time>2020-06-21T08:09:05Z</time>
      </trkpt>
      <trkpt lat="49.45401" lon="0.97992">
        <ele>68.4</ele>
        <time>2020-06-21T08:09:06Z</time>
      </trkpt>
      <trkpt lat="49.45402" lon="0.97995">
        <ele>68.6</ele>
        <time>2020-06-21T08:09:07Z</time>
      </trkpt>
      <trkpt lat="49.45403" lon="0.97998">
        <ele>68.8</ele>
        <time>2020-06-21T08:09:09Z</time>
      </trkpt>
      <trkpt lat="49.45405" lon="0.98001">
        <ele>69.1</ele>
        <time>2020-06-21T08:09:10Z</time>
      </trkpt>
      <trkpt lat="49.45406" lon="0.98004">
        <ele>69.3</ele>
        <time>2020-06-21T08:09:12Z</time>
      </trkpt>
      <trkpt lat="49.45407" lon="0.98007">
        <ele>69.5</ele>
        <time>2020-06-21T08:09:13Z</time>
      </trkpt>
      <trkpt lat="49.45407" lon="0.98009">
        <ele>69.7</ele>
        <time>2020-06-21T08:09:15Z</time>
      </trkpt>
      <trkpt lat="49.45408" lon="0.98012">
        <ele>69.8</ele>
        <time>2020-06-21T08:09:16Z</time>
      </trkpt>
      <trkpt lat="49.45408" lon="0.98014">
        <ele>70</ele>
        <time>2020-06-21T08:09:17Z</time>
      </trkpt>
      <trkpt lat="49.45409" lon="0.98016">
        <ele>70.1</ele>
        <time>2020-06-21T08:09:18Z</time>
      </trkpt>
      <trkpt lat="49.45411" lon="0.98019">
        <ele>70.4</ele>
        <time>2020-06-21T08:09:20Z</time>
      </trkpt>
      <trkpt lat="49.45411" lon="0.98021">
        <ele>70.5</ele>
        <time>2020-06-21T08:09:21Z</time>
      </trkpt>
      <trkpt lat="49.45413" lon="0.98024">
        <ele>70.8</ele>
        <time>2020-06-21T08:09:23Z</time>
      </trkpt>
      <trkpt lat="49.45415" lon="0.98029">
        <ele>71.1</ele>
        <time>2020-06-21T08:09:25Z</time>
      </trkpt>
      <trkpt lat="49.45415" lon="0.9803">
        <ele>71.2</ele>
        <time>2020-06-21T08:09:26Z</time>
      </trkpt>
      <trkpt lat="49.45416" lon="0.98032">
        <ele>71.4</ele>
        <time>2020-06-21T08:09:27Z</time>
      </trkpt>
      <trkpt lat="49.45417" lon="0.98034">
        <ele>71.5</ele>
        <time>2020-06-21T08:09:28Z</time>
      </trkpt>
      <trkpt lat="49.45419" lon="0.98038">
        <ele>71.9</ele>
        <time>2020-06-21T08:09:30Z</time>
      </trkpt>
      <trkpt lat="49.45419" lon="0.9804">
        <ele>72</ele>
        <time>2020-06-21T08:09:31Z</time>
      </trkpt>
      <trkpt lat="49.45421" lon="0.98043">
        <ele>72.3</ele>
        <time>2020-06-21T08:09:33Z</time>
      </trkpt>
      <trkpt lat="49.45422" lon="0.98048">
        <ele>72.7</ele>
        <time>2020-06-21T08:09:35Z</time>
      </trkpt>
      <trkpt lat="49.45424" lon="0.98051">
        <ele>73</ele>
        <time>2020-06-21T08:09:36Z</time>
      </trkpt>
      <trkpt lat="49.45424" lon="0.98053">
        <ele>73.1</ele>
        <time>2020-06-21T08:09:37Z</time>
      </trkpt>
      <trkpt lat="49.45426" lon="0.98058">
        <ele>73.6</ele>
        <time>2020-06-21T08:09:39Z</time>
      </trkpt>
      <trkpt lat="49.45427" lon="0.9806">
        <ele>73.8</ele>
        <time>2020-06-21T08:09:40Z</time>
      </trkpt>
      <trkpt lat="49.45429" lon="0.98064">
        <ele>74.1</ele>
        <time>2020-06-21T08:09:41Z</time>
      </trkpt>
      <trkpt lat="49.45429" lon="0.98065">
        <ele>74.2</ele>
        <time>2020-06-21T08:09:42Z</time>
      </trkpt>
      <trkpt lat="49.45431" lon="0.9807">
        <ele>74.5</ele>
        <time>2020-06-21T08:09:44Z</time>
      </trkpt>
      <trkpt lat="49.45431" lon="0.98071">
        <ele>74.6</ele>
        <time>2020-06-21T08:09:45Z</time>
      </trkpt>
      <trkpt lat="49.45433" lon="0.98075">
        <ele>75</ele>
        <time>2020-06-21T08:09:46Z</time>
      </trkpt>
      <trkpt lat="49.45433" lon="0.98076">
        <ele>75.1</ele>
        <time>2020-06-21T08:09:47Z</time>
      </trkpt>
      <trkpt lat="49.45435" lon="0.98081">
        <ele>75.5</ele>
        <time>2020-06-21T08:09:49Z</time>
      </trkpt>
      <trkpt lat="49.45435" lon="0.98082">
        <ele>75.6</ele>
        <time>2020-06-21T08:09:50Z</time>
      </trkpt>
      <trkpt lat="49.45437" lon="0.98086">
        <ele>75.9</ele>
        <time>2020-06-21T08:09:51Z</time>
      </trkpt>
      <trkpt lat="49.45438" lon="0.98091">
        <ele>76.2</ele>
        <time>2020-06-21T08:09:53Z</time>
      </trkpt>
      <trkpt lat="49.45439" lon="0.98095">
        <ele>76.6</ele>
        <time>2020-06-21T08:09:54Z</time>
      </trkpt>
      <trkpt lat="49.4544" lon="0.98096">
        <ele>76.7</ele>
        <time>2020-06-21T08:09:55Z</time>
      </trkpt>
      <trkpt lat="49.45441" lon="0.98101">
        <ele>77</ele>
        <time>2020-06-21T08:09:58Z</time>
      </trkpt>
      <trkpt lat="49.45441" lon="0.98104">
        <ele>77.2</ele>
        <time>2020-06-21T08:09:59Z</time>
      </trkpt>
      <trkpt lat="49.45442" lon="0.98106">
        <ele>77.4</ele>
        <time>2020-06-21T08:10:01Z</time>
      </trkpt>
      <trkpt lat="49.45443" lon="0.98111">
        <ele>77.7</ele>
        <time>2020-06-21T08:10:03Z</time>
      </trkpt>
      <trkpt lat="49.45443" lon="0.98112">
        <ele>77.8</ele>
        <time>2020-06-21T08:10:04Z</time>
      </trkpt>
      <trkpt lat="49.45442" lon="0.98114">
        <ele>78</ele>
        <time>2020-06-21T08:10:06Z</time>
      </trkpt>
      <trkpt lat="49.45441" lon="0.98116">
        <ele>78.1</ele>
        <time>2020-06-21T08:10:08Z</time>
      </trkpt>
      <trkpt lat="49.45441" lon="0.98116">
        <ele>78.1</ele>
        <time>2020-06-21T08:10:09Z</time>
      </trkpt>
      <trkpt lat="49.45442" lon="0.98114">
        <ele>78.3</ele>
        <time>2020-06-21T08:10:11Z</time>
      </trkpt>
      <trkpt lat="49.45443" lon="0.98114">
        <ele>78.4</ele>
        <time>2020-06-21T08:10:12Z</time>
      </trkpt>
      <trkpt lat="49.45444" lon="0.98113">
        <ele>78.6</ele>
        <time>2020-06-21T08:10:14Z</time>
      </trkpt>
      <trkpt lat="49.45445" lon="0.98113">
        <ele>78.6</ele>
        <time>2020-06-21T08:10:16Z</time>
      </trkpt>
      <trkpt lat="49.45445" lon="0.98112">
        <ele>78.6</ele>
        <time>2020-06-21T08:10:17Z</time>
      </trkpt>
      <trkpt lat="49.45445" lon="0.98112">
        <ele>78.7</ele>
        <time>2020-06-21T08:10:19Z</time>
      </trkpt>
      <trkpt lat="49.45446" lon="0.98111">
        <ele>78.8</ele>
        <time>2020-06-21T08:10:20Z</time>
      </trkpt>
      <trkpt lat="49.45447" lon="0.98111">
        <ele>78.9</ele>
        <time>2020-06-21T08:10:21Z</time>
      </trkpt>
      <trkpt lat="49.45449" lon="0.9811">
        <ele>79.1</ele>
        <time>2020-06-21T08:10:22Z</time>
      </trkpt>
      <trkpt lat="49.4545" lon="0.98109">
        <ele>79.2</ele>
        <time>2020-06-21T08:10:24Z</time>
      </trkpt>
      <trkpt lat="49.4545" lon="0.98108">
        <ele>79.2</ele>
        <time>2020-06-21T08:10:25Z</time>
      </trkpt>
      <trkpt lat="49.45451" lon="0.98107">
        <ele>79.3</ele>
        <time>2020-06-21T08:10:27Z</time>
      </trkpt>
      <trkpt lat="49.45451" lon="0.98107">
        <ele>79.3</ele>
        <time>2020-06-21T08:10:28Z</time>
      </trkpt>
      <trkpt lat="49.4545" lon="0.98108">
        <ele>79.3</ele>
        <time>2020-06-21T08:10:29Z</time>
      </trkpt>
      <trkpt lat="49.4545" lon="0.98108">
        <ele>79.4</ele>
        <time>2020-06-21T08:10:31Z</time>
      </trkpt>
      <trkpt lat="49.4545" lon="0.98108">
        <ele>79.4</ele>
        <time>2020-06-21T08:10:32Z</time>
      </trkpt>
      <trkpt lat="49.4545" lon="0.98108">
        <ele>79.4</ele>
        <time>2020-06-21T08:10:33Z</time>
      </trkpt>
      <trkpt lat="49.4545" lon="0.98108">
        <ele>79.4</ele>
        <time>2020-06-21T08:10:34Z</time>
      </trkpt>
      <trkpt lat="49.4545" lon="0.98108">
        <ele>79.4</ele>
        <time>2020-06-21T08:10:35Z</time>
      </trkpt>
      <trkpt lat="49.4545" lon="0.98108">
        <ele>79.4</ele>
        <time>2020-06-21T08:10:37Z</time>
      </trkpt>
      <trkpt lat="49.4545" lon="0.98109">
        <ele>79.4</ele>
        <time>2020-06-21T08:10:38Z</time>
      </trkpt>
      <trkpt lat="49.4545" lon="0.98109">
        <ele>79.4</ele>
        <time>2020-06-21T08:10:40Z</time>
      </trkpt>
      <trkpt lat="49.4545" lon="0.98109">
        <ele>79.4</ele>
        <time>2020-06-21T08:10:41Z</time>
      </trkpt>
      <trkpt lat="49.4545" lon="0.98109">
        <ele>79.5</ele>
        <time>2020-06-21T08:10:43Z</time>
      </trkpt>
      <trkpt lat="49.4545" lon="0.98109">
        <ele>79.5</ele>
        <time>2020-06-21T08:10:44Z</time>
      </trkpt>
      <trkpt lat="49.4545" lon="0.98109">
        <ele>79.5</ele>
        <time>2020-06-21T08:10:45Z</time>
      </trkpt>
      <trkpt lat="49.4545" lon="0.98109">
        <ele>79.5</ele>
        <time>2020-06-21T08:10:47Z</time>
      </trkpt>
      <trkpt lat="49.4545" lon="0.98109">
        <ele>79.5</ele>
        <time>2020-06-21T08:10:48Z</time>
      </trkpt>
      <trkpt lat="49.4545" lon="0.9811">
        <ele>79.5</ele>
        <time>2020-06-21T08:10:49Z</time>
      </trkpt>
      <trkpt lat="49.45449" lon="0.9811">
        <ele>79.5</ele>
        <time>2020-06-21T08:10:51Z</time>
      </trkpt>
      <trkpt lat="49.45449" lon="0.9811">
        <ele>79.5</ele>
        <time>2020-06-21T08:10:52Z</time>
      </trkpt>
      <trkpt lat="49.45449" lon="0.9811">
        <ele>79.6</ele>
        <time>2020-06-21T08:10:54Z</time>
      </trkpt>
      <trkpt lat="49.45449" lon="0.9811">
        <ele>79.6</ele>
        <time>2020-06-21T08:10:55Z</time>
      </trkpt>
      <trkpt lat="49.45449" lon="0.9811">
        <ele>79.6</ele>
        <time>2020-06-21T08:10:56Z</time>
      </trkpt>
      <trkpt lat="49.45449" lon="0.9811">
        <ele>79.6</ele>
        <time>2020-06-21T08:10:57Z</time>
      </trkpt>
      <trkpt lat="49.45447" lon="0.9811">
        <ele>79.8</ele>
        <time>2020-06-21T08:10:58Z</time>
      </trkpt>
      <trkpt lat="49.45446" lon="0.98111">
        <ele>79.9</ele>
        <time>2020-06-21T08:10:59Z</time>
      </trkpt>
      <trkpt lat="49.45445" lon="0.98111">
        <ele>80</ele>
        <time>2020-06-21T08:11:00Z</time>
      </trkpt>
      <trkpt lat="49.45445" lon="0.98111">
        <ele>80</ele>
        <time>2020-06-21T08:11:01Z</time>
      </trkpt>
      <trkpt lat="49.45445" lon="0.98112">
        <ele>80</ele>
        <time>2020-06-21T08:11:02Z</time>
      </trkpt>
      <trkpt lat="49.45445" lon="0.98112">
        <ele>80.1</ele>
        <time>2020-06-21T08:11:04Z</time>
      </trkpt>
      <trkpt lat="49.45446" lon="0.98112">
        <ele>80.1</ele>
        <time>2020-06-21T08:11:05Z</time>
      </trkpt>
      <trkpt lat="49.45446" lon="0.98113">
        <ele>80.2</ele>
        <time>2020-06-21T08:11:06Z</time>
      </trkpt>
      <trkpt lat="49.45447" lon="0.98113">
        <ele>80.3</ele>
        <time>2020-06-21T08:11:07Z</time>
      </trkpt>
      <trkpt lat="49.45448" lon="0.98113">
        <ele>80.4</ele>
        <time>2020-06-21T08:11:09Z</time>
      </trkpt>
      <trkpt lat="49.4545" lon="0.98115">
        <ele>80.6</ele>
        <time>2020-06-21T08:11:11Z</time>
      </trkpt>
      <trkpt lat="49.4545" lon="0.98116">
        <ele>80.7</ele>
        <time>2020-06-21T08:11:12Z</time>
      </trkpt>
      <trkpt lat="49.45451" lon="0.98115">
        <ele>80.8</ele>
        <time>2020-06-21T08:11:14Z</time>
      </trkpt>
      <trkpt lat="49.45451" lon="0.98114">
        <ele>80.8</ele>
        <time>2020-06-21T08:11:15Z</time>
      </trkpt>
      <trkpt lat="49.45451" lon="0.98113">
        <ele>80.9</ele>
        <time>2020-06-21T08:11:17Z</time>
      </trkpt>
      <trkpt lat="49.45451" lon="0.98113">
        <ele>80.9</ele>
        <time>2020-06-21T08:11:18Z</time>
      </trkpt>
      <trkpt lat="49.45451" lon="0.98113">
        <ele>81</ele>
        <time>2020-06-21T08:11:20Z</time>
      </trkpt>
      <trkpt lat="49.45452" lon="0.98113">
        <ele>81</ele>
        <time>2020-06-21T08:11:21Z</time>
      </trkpt>
      <trkpt lat="49.45452" lon="0.98113">
        <ele>81.1</ele>
        <time>2020-06-21T08:11:22Z</time>
      </trkpt>
      <trkpt lat="49.45451" lon="0.98113">
        <ele>81.2</ele>
        <time>2020-06-21T08:11:24Z</time>
      </trkpt>
      <trkpt lat="49.45451" lon="0.98113">
        <ele>81.2</ele>
        <time>2020-06-21T08:11:25Z</time>
      </trkpt>
      <trkpt lat="49.4545" lon="0.98113">
        <ele>81.3</ele>
        <time>2020-06-21T08:11:27Z</time>
      </trkpt>
      <trkpt lat="49.4545" lon="0.98114">
        <ele>81.4</ele>
        <time>2020-06-21T08:11:29Z</time>
      </trkpt>
      <trkpt lat="49.45449" lon="0.98115">
        <ele>81.5</ele>
        <time>2020-06-21T08:11:30Z</time>
      </trkpt>
      <trkpt lat="49.45448" lon="0.98116">
        <ele>81.5</ele>
        <time>2020-06-21T08:11:31Z</time>
      </trkpt>
      <trkpt lat="49.45447" lon="0.98116">
        <ele>81.7</ele>
        <time>2020-06-21T08:11:33Z</time>
      </trkpt>
      <trkpt lat="49.45448" lon="0.98115">
        <ele>81.8</ele>
        <time>2020-06-21T08:11:35Z</time>
      </trkpt>
      <trkpt lat="49.45448" lon="0.98115">
        <ele>81.9</ele>
        <time>2020-06-21T08:11:36Z</time>
      </trkpt>
      <trkpt lat="49.45449" lon="0.98116">
        <ele>82</ele>
        <time>2020-06-21T08:11:38Z</time>
      </trkpt>
      <trkpt lat="49.45449" lon="0.98116">
        <ele>82</ele>
        <time>2020-06-21T08:11:39Z</time>
      </trkpt>
      <trkpt lat="49.45449" lon="0.98117">
        <ele>82.1</ele>
        <time>2020-06-21T08:11:41Z</time>
      </trkpt>
      <trkpt lat="49.45449" lon="0.98118">
        <ele>82.1</ele>
        <time>2020-06-21T08:11:43Z</time>
      </trkpt>
      <trkpt lat="49.45449" lon="0.98118">
        <ele>82.1</ele>
        <time>2020-06-21T08:11:45Z</time>
      </trkpt>
      <trkpt lat="49.45449" lon="0.98118">
        <ele>82.1</ele>
        <time>2020-06-21T08:11:46Z</time>
      </trkpt>
      <trkpt lat="49.45449" lon="0.98118">
        <ele>82.1</ele>
        <time>2020-06-21T08:11:48Z</time>
      </trkpt>
      <trkpt lat="49.45449" lon="0.98118">
        <ele>82.2</ele>
        <time>2020-06-21T08:11:49Z</time>
      </trkpt>
      <trkpt lat="49.45449" lon="0.98118">
        <ele>82.2</ele>
        <time>2020-06-21T08:11:50Z</time>
      </trkpt>
      <trkpt lat="49.45449" lon="0.98118">
        <ele>82.2</ele>
        <time>2020-06-21T08:11:51Z</time>
      </trkpt>
      <trkpt lat="49.45451" lon="0.98122">
        <ele>82.5</ele>
        <time>2020-06-21T08:11:53Z</time>
      </trkpt>
      <trkpt lat="49.45452" lon="0.98124">
        <ele>82.7</ele>
        <time>2020-06-21T08:11:55Z</time>
      </trkpt>
      <trkpt lat="49.45452" lon="0.98124">
        <ele>82.7</ele>
        <time>2020-06-21T08:11:57Z</time>
      </trkpt>
      <trkpt lat="49.45452" lon="0.98124">
        <ele>82.8</ele>
        <time>2020-06-21T08:11:59Z</time>
      </trkpt>
      <trkpt lat="49.45452" lon="0.98124">
        <ele>82.8</ele>
        <time>2020-06-21T08:12:00Z</time>
      </trkpt>
      <trkpt lat="49.45452" lon="0.98124">
        <ele>82.8</ele>
        <time>2020-06-21T08:12:02Z</time>
      </trkpt>
      <trkpt lat="49.45452" lon="0.98124">
        <ele>82.8</ele>
        <time>2020-06-21T08:12:03Z</time>
      </trkpt>
      <trkpt lat="49.45452" lon="0.98124">
        <ele>82.8</ele>
        <time>2020-06-21T08:12:04Z</time>
      </trkpt>
      <trkpt lat="49.45452" lon="0.98124">
        <ele>82.8</ele>
        <time>2020-06-21T08:12:06Z</time>
      </trkpt>
      <trkpt lat="49.45452" lon="0.98124">
        <ele>82.8</ele>
        <time>2020-06-21T08:12:08Z</time>
      </trkpt>
      <trkpt lat="49.45452" lon="0.98124">
        <ele>82.8</ele>
        <time>2020-06-21T08:12:10Z</time>
      </trkpt>
      <trkpt lat="49.45452" lon="0.98124">
        <ele>82.8</ele>
        <time>2020-06-21T08:12:11Z</time>
      </trkpt>
      <trkpt lat="49.45452" lon="0.98124">
        <ele>82.8</ele>
        <time>2020-06-21T08:12:12Z</time>
      </trkpt>
      <trkpt lat="49.45452" lon="0.98124">
        <ele>82.8</ele>
        <time>2020-06-21T08:12:14Z</time>
      </trkpt>
      <trkpt lat="49.45452" lon="0.98124">
        <ele>82.8</ele>
        <time>2020-06-21T08:12:16Z</time>
      </trkpt>
      <trkpt lat="49.45452" lon="0.98125">
        <ele>82.8</ele>
        <time>2020-06-21T08:12:17Z</time>
      </trkpt>
      <trkpt lat="49.45453" lon="0.98127">
        <ele>83</ele>
        <time>2020-06-21T08:12:19Z</time>
      </trkpt>
      <trkpt lat="49.45453" lon="0.98127">
        <ele>83</ele>
        <time>2020-06-21T08:12:21Z</time>
      </trkpt>
      <trkpt lat="49.45453" lon="0.98127">
        <ele>83</ele>
        <time>2020-06-21T08:12:22Z</time>
      </trkpt>
      <trkpt lat="49.45453" lon="0.98127">
        <ele>83</ele>
        <time>2020-06-21T08:12:24Z</time>
      </trkpt>
      <trkpt lat="49.45453" lon="0.98127">
        <ele>83</ele>
        <time>2020-06-21T08:12:26Z</time>
      </trkpt>
      <trkpt lat="49.45453" lon="0.98127">
        <ele>83</ele>
        <time>2020-06-21T08:12:28Z</time>
      </trkpt>
      <trkpt lat="49.45453" lon="0.98127">
        <ele>83</ele>
        <time>2020-06-21T08:12:29Z</time>
      </trkpt>
      <trkpt lat="49.45453" lon="0.98127">
        <ele>83</ele>
        <time>2020-06-21T08:12:30Z</time>
      </trkpt>
      <trkpt lat="49.45453" lon="0.98127">
        <ele>83</ele>
        <time>2020-06-21T08:12:31Z</time>
      </trkpt>
      <trkpt lat="49.45453" lon="0.98127">
        <ele>83</ele>
        <time>2020-06-21T08:12:33Z</time>
      </trkpt>
      <trkpt lat="49.45453" lon="0.98127">
        <ele>83</ele>
        <time>2020-06-21T08:12:34Z</time>
      </trkpt>
      <trkpt lat="49.45453" lon="0.98127">
        <ele>83</ele>
        <time>2020-06-21T08:12:36Z</time>
      </trkpt>
      <trkpt lat="49.45453" lon="0.98127">
        <ele>83</ele>
        <time>2020-06-21T08:12:37Z</time>
      </trkpt>
      <trkpt lat="49.45453" lon="0.98127">
        <ele>83</ele>
        <time>2020-06-21T08:12:39Z</time>
      </trkpt>
      <trkpt lat="49.45453" lon="0.98127">
        <ele>83</ele>
        <time>2020-06-21T08:12:40Z</time>
      </trkpt>
      <trkpt lat="49.45453" lon="0.98127">
        <ele>83</ele>
        <time>2020-06-21T08:12:41Z</time>
      </trkpt>
      <trkpt lat="49.45453" lon="0.98127">
        <ele>83</ele>
        <time>2020-06-21T08:12:43Z</time>
      </trkpt>
      <trkpt lat="49.45453" lon="0.98127">
        <ele>83</ele>
        <time>2020-06-21T08:12:44Z</time>
      </trkpt>
      <trkpt lat="49.45453" lon="0.98127">
        <ele>83</ele>
        <time>2020-06-21T08:12:45Z</time>
      </trkpt>
      <trkpt lat="49.45453" lon="0.98127">
        <ele>83</ele>
        <time>2020-06-21T08:12:46Z</time>
      </trkpt>
      <trkpt lat="49.45453" lon="0.98127">
        <ele>83</ele>
        <time>2020-06-21T08:12:47Z</time>
      </trkpt>
      <trkpt lat="49.45453" lon="0.98127">
        <ele>83</ele>
        <time>2020-06-21T08:12:49Z</time>
      </trkpt>
      <trkpt lat="49.45453" lon="0.98127">
        <ele>83</ele>
        <time>2020-06-21T08:12:50Z</time>
      </trkpt>
      <trkpt lat="49.45453" lon="0.98127">
        <ele>83</ele>
        <time>2020-06-21T08:12:51Z</time>
      </trkpt>
      <trkpt lat="49.45453" lon="0.98127">
        <ele>83</ele>
        <time>2020-06-21T08:12:52Z</time>
      </trkpt>
      <trkpt lat="49.45453" lon="0.98127">
        <ele>83</ele>
        <time>2020-06-21T08:12:53Z</time>
      </trkpt>
      <trkpt lat="49.45453" lon="0.98127">
        <ele>83</ele>
        <time>2020-06-21T08:12:54Z</time>
      </trkpt>
      <trkpt lat="49.45453" lon="0.98127">
        <ele>83</ele>
        <time>2020-06-21T08:12:56Z</time>
      </trkpt>
      <trkpt lat="49.45453" lon="0.98127">
        <ele>83</ele>
        <time>2020-06-21T08:12:57Z</time>
      </trkpt>
      <trkpt lat="49.45453" lon="0.98127">
        <ele>83</ele>
        <time>2020-06-21T08:12:58Z</time>
      </trkpt>
      <trkpt lat="49.45453" lon="0.98127">
        <ele>83</ele>
        <time>2020-06-21T08:12:59Z</time>
      </trkpt>
      <trkpt lat="49.45453" lon="0.98127">
        <ele>83</ele>
        <time>2020-06-21T08:13:01Z</time>
      </trkpt>
      <trkpt lat="49.45453" lon="0.98127">
        <ele>83</ele>
        <time>2020-06-21T08:13:03Z</time>
      </trkpt>
      <trkpt lat="49.45453" lon="0.98127">
        <ele>83</ele>
        <time>2020-06-21T08:13:04Z</time>
      </trkpt>
      <trkpt lat="49.45453" lon="0.98127">
        <ele>83</ele>
        <time>2020-06-21T08:13:06Z</time>
      </trkpt>
      <trkpt lat="49.45453" lon="0.98127">
        <ele>83</ele>
        <time>2020-06-21T08:13:08Z</time>
      </trkpt>
      <trkpt lat="49.45453" lon="0.98127">
        <ele>83</ele>
        <time>2020-06-21T08:13:09Z</time>
      </trkpt>
      <trkpt lat="49.45453" lon="0.98127">
        <ele>83</ele>
        <time>2020-06-21T08:13:10Z</time>
      </trkpt>
      <trkpt lat="49.45453" lon="0.98127">
        <ele>83</ele>
        <time>2020-06-21T08:13:11Z</time>
      </trkpt>
      <trkpt lat="49.45453" lon="0.98127">
        <ele>83</ele>
        <time>2020-06-21T08:13:12Z</time>
      </trkpt>
      <trkpt lat="49.45453" lon="0.98127">
        <ele>83</ele>
        <time>2020-06-21T08:13:13Z</time>
      </trkpt>
      <trkpt lat="49.45453" lon="0.98127">
        <ele>83</ele>
        <time>2020-06-21T08:13:14Z</time>
      </trkpt>
      <trkpt lat="49.45453" lon="0.98127">
        <ele>83</ele>
        <time>2020-06-21T08:13:16Z</time>
      </trkpt>
      <trkpt lat="49.45453" lon="0.98127">
        <ele>83</ele>
        <time>2020-06-21T08:13:18Z</time>
      </trkpt>
      <trkpt lat="49.45453" lon="0.98127">
        <ele>83</ele>
        <time>2020-06-21T08:13:19Z</time>
      </trkpt>
      <trkpt lat="49.45453" lon="0.98127">
        <ele>83</ele>
        <time>2020-06-21T08:13:21Z</time>
      </trkpt>
      <trkpt lat="49.45453" lon="0.98127">
        <ele>83</ele>
        <time>2020-06-21T08:13:22Z</time>
      </trkpt>
      <trkpt lat="49.45453" lon="0.98127">
        <ele>83</ele>
        <time>2020-06-21T08:13:23Z</time>
      </trkpt>
      <trkpt lat="49.45453" lon="0.98127">
        <ele>83</ele>
        <time>2020-06-21T08:13:25Z</time>
      </trkpt>
      <trkpt lat="49.45452" lon="0.98127">
        <ele>83.1</ele>
        <time>2020-06-21T08:13:26Z</time>
      </trkpt>
      <trkpt lat="49.45451" lon="0.98127">
        <ele>83.3</ele>
        <time>2020-06-21T08:13:28Z</time>
      </trkpt>
      <trkpt lat="49.4545" lon="0.98127">
        <ele>83.3</ele>
        <time>2020-06-21T08:13:29Z</time>
      </trkpt>
      <trkpt lat="49.4545" lon="0.98127">
        <ele>83.3</ele>
        <time>2020-06-21T08:13:30Z</time>
      </trkpt>
      <trkpt lat="49.4545" lon="0.98127">
        <ele>83.3</ele>
        <time>2020-06-21T08:13:31Z</time>
      </trkpt>
      <trkpt lat="49.4545" lon="0.98127">
        <ele>83.3</ele>
        <time>2020-06-21T08:13:32Z</time>
      </trkpt>
      <trkpt lat="49.4545" lon="0.98127">
        <ele>83.3</ele>
        <time>2020-06-21T08:13:34Z</time>
      </trkpt>
      <trkpt lat="49.4545" lon="0.98127">
        <ele>83.3</ele>
        <time>2020-06-21T08:13:35Z</time>
      </trkpt>
      <trkpt lat="49.4545" lon="0.98127">
        <ele>83.3</ele>
        <time>2020-06-21T08:13:37Z</time>
      </trkpt>
      <trkpt lat="49.4545" lon="0.98127">
        <ele>83.3</ele>
        <time>2020-06-21T08:13:38Z</time>
      </trkpt>
      <trkpt lat="49.4545" lon="0.98127">
        <ele>83.3</ele>
        <time>2020-06-21T08:13:40Z</time>
      </trkpt>
      <trkpt lat="49.4545" lon="0.98127">
        <ele>83.3</ele>
        <time>2020-06-21T08:13:42Z</time>
      </trkpt>
      <trkpt lat="49.4545" lon="0.98127">
        <ele>83.3</ele>
        <time>2020-06-21T08:13:43Z</time>
      </trkpt>
      <trkpt lat="49.4545" lon="0.98127">
        <ele>83.3</ele>
        <time>2020-06-21T08:13:45Z</time>
      </trkpt>
      <trkpt lat="49.4545" lon="0.98127">
        <ele>83.3</ele>
        <time>2020-06-21T08:13:47Z</time>
      </trkpt>
      <trkpt lat="49.4545" lon="0.98127">
        <ele>83.3</ele>
        <time>2020-06-21T08:13:48Z</time>
      </trkpt>
      <trkpt lat="49.4545" lon="0.98127">
        <ele>83.3</ele>
        <time>2020-06-21T08:13:50Z</time>
      </trkpt>
      <trkpt lat="49.4545" lon="0.98127">
        <ele>83.3</ele>
        <time>2020-06-21T08:13:52Z</time>
      </trkpt>
      <trkpt lat="49.4545" lon="0.98127">
        <ele>83.3</ele>
        <time>2020-06-21T08:13:53Z</time>
      </trkpt>
      <trkpt lat="49.4545" lon="0.98127">
        <ele>83.3</ele>
        <time>2020-06-21T08:13:55Z</time>
      </trkpt>
      <trkpt lat="49.4545" lon="0.98127">
        <ele>83.3</ele>
        <time>2020-06-21T08:13:56Z</time>
      </trkpt>
      <trkpt lat="49.4545" lon="0.98127">
        <ele>83.3</ele>
        <time>2020-06-21T08:13:57Z</time>
      </trkpt>
      <trkpt lat="49.4545" lon="0.98127">
        <ele>83.3</ele>
        <time>2020-06-21T08:13:59Z</time>
      </trkpt>
      <trkpt lat="49.4545" lon="0.98127">
        <ele>83.3</ele>
        <time>2020-06-21T08:14:00Z</time>
      </trkpt>
      <trkpt lat="49.4545" lon="0.98127">
        <ele>83.3</ele>
        <time>2020-06-21T08:14:02Z</time>
      </trkpt>
      <trkpt lat="49.4545" lon="0.98127">
        <ele>83.3</ele>
        <time>2020-06-21T08:14:04Z</time>
      </trkpt>
      <trkpt lat="49.4545" lon="0.98127">
        <ele>83.3</ele>
        <time>2020-06-21T08:14:06Z</time>
      </trkpt>
      <trkpt lat="49.4545" lon="0.98127">
        <ele>83.3</ele>
        <time>2020-06-21T08:14:07Z</time>
      </trkpt>
      <trkpt lat="49.4545" lon="0.98127">
        <ele>83.3</ele>
        <time>2020-06-21T08:14:08Z</time>
      </trkpt>
      <trkpt lat="49.4545" lon="0.98127">
        <ele>83.3</ele>
        <time>2020-06-21T08:14:10Z</time>
      </trkpt>
      <trkpt lat="49.4545" lon="0.98127">
        <ele>83.3</ele>
        <time>2020-06-21T08:14:11Z</time>
      </trkpt>
      <trkpt lat="49.4545" lon="0.98127">
        <ele>83.3</ele>
        <time>2020-06-21T08:14:12Z</time>
      </trkpt>
      <trkpt lat="49.4545" lon="0.98127">
        <ele>83.3</ele>
        <time>2020-06-21T08:14:14Z</time>
      </trkpt>
      <trkpt lat="49.4545" lon="0.98127">
        <ele>83.3</ele>
        <time>2020-06-21T08:14:16Z</time>
      </trkpt>
      <trkpt lat="49.4545" lon="0.98127">
        <ele>83.3</ele>
        <time>2020-06-21T08:14:17Z</time>
      </trkpt>
      <trkpt lat="49.4545" lon="0.98127">
        <ele>83.3</ele>
        <time>2020-06-21T08:14:18Z</time>
      </trkpt>
      <trkpt lat="49.4545" lon="0.98127">
        <ele>83.3</ele>
        <time>2020-06-21T08:14:20Z</time>
      </trkpt>
      <trkpt lat="49.4545" lon="0.98127">
        <ele>83.3</ele>
        <time>2020-06-21T08:14:22Z</time>
      </trkpt>
      <trkpt lat="49.45451" lon="0.98128">
        <ele>83.4</ele>
        <time>2020-06-21T08:14:24Z</time>
      </trkpt>
      <trkpt lat="49.45451" lon="0.98128">
        <ele>83.4</ele>
        <time>2020-06-21T08:14:25Z</time>
      </trkpt>
      <trkpt lat="49.45451" lon="0.98128">
        <ele>83.4</ele>
        <time>2020-06-21T08:14:26Z</time>
      </trkpt>
      <trkpt lat="49.45452" lon="0.98126">
        <ele>83.6</ele>
        <time>2020-06-21T08:14:28Z</time>
      </trkpt>
      <trkpt lat="49.45453" lon="0.98127">
        <ele>83.8</ele>
        <time>2020-06-21T08:14:29Z</time>
      </trkpt>
      <trkpt lat="49.45454" lon="0.98128">
        <ele>83.8</ele>
        <time>2020-06-21T08:14:31Z</time>
      </trkpt>
      <trkpt lat="49.45454" lon="0.98127">
        <ele>83.9</ele>
        <time>2020-06-21T08:14:32Z</time>
      </trkpt>
      <trkpt lat="49.45453" lon="0.98126">
        <ele>84</ele>
        <time>2020-06-21T08:14:34Z</time>
      </trkpt>
      <trkpt lat="49.45453" lon="0.98126">
        <ele>84.1</ele>
        <time>2020-06-21T08:14:36Z</time>
      </trkpt>
      <trkpt lat="49.45453" lon="0.98123">
        <ele>84.2</ele>
        <time>2020-06-21T08:14:37Z</time>
      </trkpt>
      <trkpt lat="49.45453" lon="0.98121">
        <ele>84.3</ele>
        <time>2020-06-21T08:14:39Z</time>
      </trkpt>
      <trkpt lat="49.45453" lon="0.98121">
        <ele>84.4</ele>
        <time>2020-06-21T08:14:40Z</time>
      </trkpt>
      <trkpt lat="49.45453" lon="0.9812">
        <ele>84.4</ele>
        <time>2020-06-21T08:14:41Z</time>
      </trkpt>
      <trkpt lat="49.45453" lon="0.98119">
        <ele>84.5</ele>
        <time>2020-06-21T08:14:43Z</time>
      </trkpt>
      <trkpt lat="49.45453" lon="0.98119">
        <ele>84.5</ele>
        <time>2020-06-21T08:14:44Z</time>
      </trkpt>
      <trkpt lat="49.45453" lon="0.98119">
        <ele>84.5</ele>
        <time>2020-06-21T08:14:45Z</time>
      </trkpt>
      <trkpt lat="49.45453" lon="0.98119">
        <ele>84.5</ele>
        <time>2020-06-21T08:14:47Z</time>
      </trkpt>
      <trkpt lat="49.45453" lon="0.9812">
        <ele>84.5</ele>
        <time>2020-06-21T08:14:49Z</time>
      </trkpt>
      <trkpt lat="49.45453" lon="0.98119">
        <ele>84.5</ele>
        <time>2020-06-21T08:14:50Z</time>
      </trkpt>
      <trkpt lat="49.45453" lon="0.98119">
        <ele>84.6</ele>
        <time>2020-06-21T08:14:52Z</time>
      </trkpt>
      <trkpt lat="49.45453" lon="0.98119">
        <ele>84.6</ele>
        <time>2020-06-21T08:14:53Z</time>
      </trkpt>
      <trkpt lat="49.45452" lon="0.9812">
        <ele>84.6</ele>
        <time>2020-06-21T08:14:55Z</time>
      </trkpt>
      <trkpt lat="49.45452" lon="0.9812">
        <ele>84.6</ele>
        <time>2020-06-21T08:14:56Z</time>
      </trkpt>
      <trkpt lat="49.45452" lon="0.98119">
        <ele>84.6</ele>
        <time>2020-06-21T08:14:58Z</time>
      </trkpt>
      <trkpt lat="49.45452" lon="0.98119">
        <ele>84.7</ele>
        <time>2020-06-21T08:14:59Z</time>
      </trkpt>
      <trkpt lat="49.45453" lon="0.98119">
        <ele>84.7</ele>
        <time>2020-06-21T08:15:00Z</time>
      </trkpt>
      <trkpt lat="49.45452" lon="0.98119">
        <ele>84.7</ele>
        <time>2020-06-21T08:15:01Z</time>
      </trkpt>
      <trkpt lat="49.45452" lon="0.98118">
        <ele>84.7</ele>
        <time>2020-06-21T08:15:03Z</time>
      </trkpt>
      <trkpt lat="49.45452" lon="0.98118">
        <ele>84.8</ele>
        <time>2020-06-21T08:15:04Z</time>
      </trkpt>
      <trkpt lat="49.4545" lon="0.98118">
        <ele>84.9</ele>
        <time>2020-06-21T08:15:06Z</time>
      </trkpt>
      <trkpt lat="49.45449" lon="0.98119">
        <ele>85</ele>
        <time>2020-06-21T08:15:07Z</time>
      </trkpt>
      <trkpt lat="49.45448" lon="0.98119">
        <ele>85.1</ele>
        <time>2020-06-21T08:15:09Z</time>
      </trkpt>
      <trkpt lat="49.45447" lon="0.98119">
        <ele>85.2</ele>
        <time>2020-06-21T08:15:10Z</time>
      </trkpt>
      <trkpt lat="49.45445" lon="0.98122">
        <ele>85.3</ele>
        <time>2020-06-21T08:15:12Z</time>
      </trkpt>
      <trkpt lat="49.45444" lon="0.98123">
        <ele>85.4</ele>
        <time>2020-06-21T08:15:13Z</time>
      </trkpt>
      <trkpt lat="49.45442" lon="0.98127">
        <ele>85.4</ele>
        <time>2020-06-21T08:15:15Z</time>
      </trkpt>
      <trkpt lat="49.45442" lon="0.98128">
        <ele>85.5</ele>
        <time>2020-06-21T08:15:16Z</time>
      </trkpt>
      <trkpt lat="49.45441" lon="0.98129">
        <ele>85.5</ele>
        <time>2020-06-21T08:15:17Z</time>
      </trkpt>
      <trkpt lat="49.4544" lon="0.98131">
        <ele>85.6</ele>
        <time>2020-06-21T08:15:18Z</time>
      </trkpt>
      <trkpt lat="49.45438" lon="0.98134">
        <ele>85.7</ele>
        <time>2020-06-21T08:15:19Z</time>
      </trkpt>
      <trkpt lat="49.45435" lon="0.98137">
        <ele>85.8</ele>
        <time>2020-06-21T08:15:21Z</time>
      </trkpt>
      <trkpt lat="49.45434" lon="0.98138">
        <ele>85.9</ele>
        <time>2020-06-21T08:15:22Z</time>
      </trkpt>
      <trkpt lat="49.45431" lon="0.9814">
        <ele>86.1</ele>
        <time>2020-06-21T08:15:24Z</time>
      </trkpt>
      <trkpt lat="49.45427" lon="0.98144">
        <ele>86.3</ele>
        <time>2020-06-21T08:15:26Z</time>
      </trkpt>
      <trkpt lat="49.45421" lon="0.9815">
        <ele>86.6</ele>
        <time>2020-06-21T08:15:28Z</time>
      </trkpt>
      <trkpt lat="49.45417" lon="0.98154">
        <ele>86.9</ele>
        <time>2020-06-21T08:15:29Z</time>
      </trkpt>
      <trkpt lat="49.45414" lon="0.98157">
        <ele>87</ele>
        <time>2020-06-21T08:15:30Z</time>
      </trkpt>
      <trkpt lat="49.45411" lon="0.9816">
        <ele>87.2</ele>
        <time>2020-06-21T08:15:32Z</time>
      </trkpt>
      <trkpt lat="49.45408" lon="0.98162">
        <ele>87.4</ele>
        <time>2020-06-21T08:15:33Z</time>
      </trkpt>
      <trkpt lat="49.45407" lon="0.98163">
        <ele>87.4</ele>
        <time>2020-06-21T08:15:34Z</time>
      </trkpt>
      <trkpt lat="49.45405" lon="0.98165">
        <ele>87.5</ele>
        <time>2020-06-21T08:15:35Z</time>
      </trkpt>
      <trkpt lat="49.45402" lon="0.98167">
        <ele>87.6</ele>
        <time>2020-06-21T08:15:37Z</time>
      </trkpt>
      <trkpt lat="49.45399" lon="0.9817">
        <ele>87.7</ele>
        <time>2020-06-21T08:15:38Z</time>
      </trkpt>
      <trkpt lat="49.45399" lon="0.9817">
        <ele>87.8</ele>
        <time>2020-06-21T08:15:39Z</time>
      </trkpt>
      <trkpt lat="49.45396" lon="0.98173">
        <ele>87.9</ele>
        <time>2020-06-21T08:15:41Z</time>
      </trkpt>
      <trkpt lat="49.45394" lon="0.98179">
        <ele>87.3</ele>
        <time>2020-06-21T08:15:43Z</time>
      </trkpt>
      <trkpt lat="49.45395" lon="0.98181">
        <ele>87.3</ele>
        <time>2020-06-21T08:15:44Z</time>
      </trkpt>
      <trkpt lat="49.45397" lon="0.98186">
        <ele>86.8</ele>
        <time>2020-06-21T08:15:46Z</time>
      </trkpt>
      <trkpt lat="49.45399" lon="0.98189">
        <ele>86.9</ele>
        <time>2020-06-21T08:15:47Z</time>
      </trkpt>
      <trkpt lat="49.454" lon="0.98191">
        <ele>86.6</ele>
        <time>2020-06-21T08:15:48Z</time>
      </trkpt>
      <trkpt lat="49.45402" lon="0.98193">
        <ele>86.7</ele>
        <time>2020-06-21T08:15:50Z</time>
      </trkpt>
      <trkpt lat="49.45405" lon="0.98194">
        <ele>86.8</ele>
        <time>2020-06-21T08:15:51Z</time>
      </trkpt>
      <trkpt lat="49.45406" lon="0.98194">
        <ele>86.8</ele>
        <time>2020-06-21T08:15:52Z</time>
      </trkpt>
      <trkpt lat="49.45409" lon="0.98193">
        <ele>86.9</ele>
        <time>2020-06-21T08:15:53Z</time>
      </trkpt>
      <trkpt lat="49.45411" lon="0.98194">
        <ele>87.1</ele>
        <time>2020-06-21T08:15:55Z</time>
      </trkpt>
      <trkpt lat="49.45413" lon="0.98195">
        <ele>87</ele>
        <time>2020-06-21T08:15:56Z</time>
      </trkpt>
      <trkpt lat="49.45414" lon="0.98198">
        <ele>87</ele>
        <time>2020-06-21T08:15:58Z</time>
      </trkpt>
      <trkpt lat="49.45415" lon="0.982">
        <ele>86.7</ele>
        <time>2020-06-21T08:15:59Z</time>
      </trkpt>
      <trkpt lat="49.45415" lon="0.98203">
        <ele>86.9</ele>
        <time>2020-06-21T08:16:00Z</time>
      </trkpt>
      <trkpt lat="49.45417" lon="0.98209">
        <ele>86.4</ele>
        <time>2020-06-21T08:16:02Z</time>
      </trkpt>
      <trkpt lat="49.45417" lon="0.9821">
        <ele>86.4</ele>
        <time>2020-06-21T08:16:03Z</time>
      </trkpt>
      <trkpt lat="49.45418" lon="0.98212">
        <ele>86.1</ele>
        <time>2020-06-21T08:16:04Z</time>
      </trkpt>
      <trkpt lat="49.45419" lon="0.98217">
        <ele>86.2</ele>
        <time>2020-06-21T08:16:05Z</time>
      </trkpt>
      <trkpt lat="49.45419" lon="0.98219">
        <ele>86.2</ele>
        <time>2020-06-21T08:16:06Z</time>
      </trkpt>
      <trkpt lat="49.45421" lon="0.98223">
        <ele>86.3</ele>
        <time>2020-06-21T08:16:08Z</time>
      </trkpt>
      <trkpt lat="49.45422" lon="0.98225">
        <ele>86.1</ele>
        <time>2020-06-21T08:16:09Z</time>
      </trkpt>
      <trkpt lat="49.45424" lon="0.98228">
        <ele>86.5</ele>
        <time>2020-06-21T08:16:10Z</time>
      </trkpt>
      <trkpt lat="49.45425" lon="0.98231">
        <ele>86.3</ele>
        <time>2020-06-21T08:16:11Z</time>
      </trkpt>
      <trkpt lat="49.45427" lon="0.98234">
        <ele>86.5</ele>
        <time>2020-06-21T08:16:13Z</time>
      </trkpt>
      <trkpt lat="49.45429" lon="0.98237">
        <ele>86.9</ele>
        <time>2020-06-21T08:16:14Z</time>
      </trkpt>
      <trkpt lat="49.45431" lon="0.98239">
        <ele>86.8</ele>
        <time>2020-06-21T08:16:15Z</time>
      </trkpt>
      <trkpt lat="49.45432" lon="0.98242">
        <ele>87.1</ele>
        <time>2020-06-21T08:16:17Z</time>
      </trkpt>
      <trkpt lat="49.45434" lon="0.98247">
        <ele>86.9</ele>
        <time>2020-06-21T08:16:19Z</time>
      </trkpt>
      <trkpt lat="49.45434" lon="0.98249">
        <ele>86.9</ele>
        <time>2020-06-21T08:16:20Z</time>
      </trkpt>
      <trkpt lat="49.45435" lon="0.98252">
        <ele>87.2</ele>
        <time>2020-06-21T08:16:22Z</time>
      </trkpt>
      <trkpt lat="49.45436" lon="0.98254">
        <ele>87.1</ele>
        <time>2020-06-21T08:16:23Z</time>
      </trkpt>
      <trkpt lat="49.45436" lon="0.98256">
        <ele>87</ele>
        <time>2020-06-21T08:16:24Z</time>
      </trkpt>
      <trkpt lat="49.45437" lon="0.98262">
        <ele>86.8</ele>
        <time>2020-06-21T08:16:26Z</time>
      </trkpt>
      <trkpt lat="49.45438" lon="0.98267">
        <ele>87.1</ele>
        <time>2020-06-21T08:16:27Z</time>
      </trkpt>
      <trkpt lat="49.45439" lon="0.98268">
        <ele>86.9</ele>
        <time>2020-06-21T08:16:28Z</time>
      </trkpt>
      <trkpt lat="49.45441" lon="0.98274">
        <ele>87.3</ele>
        <time>2020-06-21T08:16:30Z</time>
      </trkpt>
      <trkpt lat="49.45441" lon="0.98276">
        <ele>87.2</ele>
        <time>2020-06-21T08:16:31Z</time>
      </trkpt>
      <trkpt lat="49.45442" lon="0.98278">
        <ele>87.2</ele>
        <time>2020-06-21T08:16:32Z</time>
      </trkpt>
      <trkpt lat="49.45444" lon="0.9828">
        <ele>87.7</ele>
        <time>2020-06-21T08:16:33Z</time>
      </trkpt>
      <trkpt lat="49.45445" lon="0.98281">
        <ele>87.6</ele>
        <time>2020-06-21T08:16:34Z</time>
      </trkpt>
      <trkpt lat="49.45447" lon="0.98283">
        <ele>88.2</ele>
        <time>2020-06-21T08:16:36Z</time>
      </trkpt>
      <trkpt lat="49.45448" lon="0.98284">
        <ele>88.2</ele>
        <time>2020-06-21T08:16:37Z</time>
      </trkpt>
      <trkpt lat="49.45449" lon="0.98285">
        <ele>88.7</ele>
        <time>2020-06-21T08:16:38Z</time>
      </trkpt>
      <trkpt lat="49.45451" lon="0.98287">
        <ele>88.7</ele>
        <time>2020-06-21T08:16:40Z</time>
      </trkpt>
      <trkpt lat="49.45452" lon="0.98289">
        <ele>89.3</ele>
        <time>2020-06-21T08:16:41Z</time>
      </trkpt>
      <trkpt lat="49.45453" lon="0.98293">
        <ele>89.3</ele>
        <time>2020-06-21T08:16:43Z</time>
      </trkpt>
      <trkpt lat="49.45455" lon="0.98298">
        <ele>90</ele>
        <time>2020-06-21T08:16:45Z</time>
      </trkpt>
      <trkpt lat="49.45455" lon="0.983">
        <ele>89.9</ele>
        <time>2020-06-21T08:16:46Z</time>
      </trkpt>
      <trkpt lat="49.45456" lon="0.98302">
        <ele>90</ele>
        <time>2020-06-21T08:16:48Z</time>
      </trkpt>
      <trkpt lat="49.45457" lon="0.98304">
        <ele>90.5</ele>
        <time>2020-06-21T08:16:49Z</time>
      </trkpt>
      <trkpt lat="49.45458" lon="0.98308">
        <ele>90.5</ele>
        <time>2020-06-21T08:16:50Z</time>
      </trkpt>
      <trkpt lat="49.45459" lon="0.98309">
        <ele>90.5</ele>
        <time>2020-06-21T08:16:51Z</time>
      </trkpt>
      <trkpt lat="49.4546" lon="0.9831">
        <ele>91</ele>
        <time>2020-06-21T08:16:52Z</time>
      </trkpt>
      <trkpt lat="49.4546" lon="0.98309">
        <ele>91</ele>
        <time>2020-06-21T08:16:54Z</time>
      </trkpt>
      <trkpt lat="49.45461" lon="0.98309">
        <ele>90.9</ele>
        <time>2020-06-21T08:16:55Z</time>
      </trkpt>
      <trkpt lat="49.45461" lon="0.98308">
        <ele>90.9</ele>
        <time>2020-06-21T08:16:57Z</time>
      </trkpt>
      <trkpt lat="49.45461" lon="0.98308">
        <ele>90.9</ele>
        <time>2020-06-21T08:16:58Z</time>
      </trkpt>
      <trkpt lat="49.45462" lon="0.98307">
        <ele>90.8</ele>
        <time>2020-06-21T08:17:00Z</time>
      </trkpt>
      <trkpt lat="49.45462" lon="0.98307">
        <ele>90.8</ele>
        <time>2020-06-21T08:17:01Z</time>
      </trkpt>
      <trkpt lat="49.45463" lon="0.98306">
        <ele>91.2</ele>
        <time>2020-06-21T08:17:02Z</time>
      </trkpt>
      <trkpt lat="49.45463" lon="0.98305">
        <ele>91.2</ele>
        <time>2020-06-21T08:17:04Z</time>
      </trkpt>
      <trkpt lat="49.45464" lon="0.98305">
        <ele>91.2</ele>
        <time>2020-06-21T08:17:05Z</time>
      </trkpt>
      <trkpt lat="49.45464" lon="0.98304">
        <ele>91.1</ele>
        <time>2020-06-21T08:17:06Z</time>
      </trkpt>
      <trkpt lat="49.45465" lon="0.98304">
        <ele>91.1</ele>
        <time>2020-06-21T08:17:07Z</time>
      </trkpt>
      <trkpt lat="49.45466" lon="0.98302">
        <ele>91.6</ele>
        <time>2020-06-21T08:17:08Z</time>
      </trkpt>
      <trkpt lat="49.45469" lon="0.98301">
        <ele>92.1</ele>
        <time>2020-06-21T08:17:10Z</time>
      </trkpt>
      <trkpt lat="49.45473" lon="0.98301">
        <ele>92.6</ele>
        <time>2020-06-21T08:17:12Z</time>
      </trkpt>
      <trkpt lat="49.45475" lon="0.983">
        <ele>93</ele>
        <time>2020-06-21T08:17:13Z</time>
      </trkpt>
      <trkpt lat="49.45476" lon="0.98299">
        <ele>93</ele>
        <time>2020-06-21T08:17:14Z</time>
      </trkpt>
      <trkpt lat="49.45478" lon="0.98296">
        <ele>93.4</ele>
        <time>2020-06-21T08:17:16Z</time>
      </trkpt>
      <trkpt lat="49.45479" lon="0.98296">
        <ele>93.4</ele>
        <time>2020-06-21T08:17:17Z</time>
      </trkpt>
      <trkpt lat="49.45483" lon="0.98295">
        <ele>94.1</ele>
        <time>2020-06-21T08:17:18Z</time>
      </trkpt>
      <trkpt lat="49.45485" lon="0.98294">
        <ele>94.1</ele>
        <time>2020-06-21T08:17:19Z</time>
      </trkpt>
      <trkpt lat="49.45486" lon="0.98294">
        <ele>94.4</ele>
        <time>2020-06-21T08:17:20Z</time>
      </trkpt>
      <trkpt lat="49.45488" lon="0.98293">
        <ele>94.6</ele>
        <time>2020-06-21T08:17:22Z</time>
      </trkpt>
      <trkpt lat="49.4549" lon="0.98292">
        <ele>94.6</ele>
        <time>2020-06-21T08:17:23Z</time>
      </trkpt>
      <trkpt lat="49.45491" lon="0.98291">
        <ele>94.8</ele>
        <time>2020-06-21T08:17:24Z</time>
      </trkpt>
      <trkpt lat="49.45494" lon="0.98288">
        <ele>95.1</ele>
        <time>2020-06-21T08:17:26Z</time>
      </trkpt>
      <trkpt lat="49.45497" lon="0.98286">
        <ele>95.3</ele>
        <time>2020-06-21T08:17:27Z</time>
      </trkpt>
      <trkpt lat="49.45498" lon="0.98285">
        <ele>95.3</ele>
        <time>2020-06-21T08:17:28Z</time>
      </trkpt>
      <trkpt lat="49.455" lon="0.98281">
        <ele>95.5</ele>
        <time>2020-06-21T08:17:29Z</time>
      </trkpt>
      <trkpt lat="49.45501" lon="0.98279">
        <ele>95.5</ele>
        <time>2020-06-21T08:17:30Z</time>
      </trkpt>
      <trkpt lat="49.45503" lon="0.98275">
        <ele>95.7</ele>
        <time>2020-06-21T08:17:32Z</time>
      </trkpt>
      <trkpt lat="49.45504" lon="0.98274">
        <ele>95.7</ele>
        <time>2020-06-21T08:17:33Z</time>
      </trkpt>
      <trkpt lat="49.45506" lon="0.9827">
        <ele>95.9</ele>
        <time>2020-06-21T08:17:35Z</time>
      </trkpt>
      <trkpt lat="49.45507" lon="0.98269">
        <ele>95.8</ele>
        <time>2020-06-21T08:17:36Z</time>
      </trkpt>
      <trkpt lat="49.45509" lon="0.98269">
        <ele>96</ele>
        <time>2020-06-21T08:17:37Z</time>
      </trkpt>
      <trkpt lat="49.4551" lon="0.98269">
        <ele>96</ele>
        <time>2020-06-21T08:17:39Z</time>
      </trkpt>
      <trkpt lat="49.4551" lon="0.9827">
        <ele>96.1</ele>
        <time>2020-06-21T08:17:41Z</time>
      </trkpt>
      <trkpt lat="49.45511" lon="0.9827">
        <ele>96.1</ele>
        <time>2020-06-21T08:17:42Z</time>
      </trkpt>
      <trkpt lat="49.45512" lon="0.98271">
        <ele>96</ele>
        <time>2020-06-21T08:17:43Z</time>
      </trkpt>
      <trkpt lat="49.45513" lon="0.98272">
        <ele>96.2</ele>
        <time>2020-06-21T08:17:44Z</time>
      </trkpt>
      <trkpt lat="49.45514" lon="0.98272">
        <ele>96.1</ele>
        <time>2020-06-21T08:17:46Z</time>
      </trkpt>
      <trkpt lat="49.45515" lon="0.98272">
        <ele>96.1</ele>
        <time>2020-06-21T08:17:47Z</time>
      </trkpt>
      <trkpt lat="49.45515" lon="0.98272">
        <ele>96.2</ele>
        <time>2020-06-21T08:17:48Z</time>
      </trkpt>
      <trkpt lat="49.45517" lon="0.98274">
        <ele>96.2</ele>
        <time>2020-06-21T08:17:49Z</time>
      </trkpt>
      <trkpt lat="49.45517" lon="0.98275">
        <ele>96.2</ele>
        <time>2020-06-21T08:17:50Z</time>
      </trkpt>
      <trkpt lat="49.45517" lon="0.98277">
        <ele>96.1</ele>
        <time>2020-06-21T08:17:51Z</time>
      </trkpt>
      <trkpt lat="49.45518" lon="0.98278">
        <ele>96.1</ele>
        <time>2020-06-21T08:17:53Z</time>
      </trkpt>
      <trkpt lat="49.45518" lon="0.9828">
        <ele>96</ele>
        <time>2020-06-21T08:17:54Z</time>
      </trkpt>
      <trkpt lat="49.45518" lon="0.98281">
        <ele>96.1</ele>
        <time>2020-06-21T08:17:55Z</time>
      </trkpt>
      <trkpt lat="49.45521" lon="0.98284">
        <ele>96.1</ele>
        <time>2020-06-21T08:17:56Z</time>
      </trkpt>
      <trkpt lat="49.45522" lon="0.98285">
        <ele>96.2</ele>
        <time>2020-06-21T08:17:57Z</time>
      </trkpt>
      <trkpt lat="49.45523" lon="0.98285">
        <ele>96.1</ele>
        <time>2020-06-21T08:17:59Z</time>
      </trkpt>
      <trkpt lat="49.45525" lon="0.98285">
        <ele>96.3</ele>
        <time>2020-06-21T08:18:00Z</time>
      </trkpt>
      <trkpt lat="49.45526" lon="0.98285">
        <ele>96.3</ele>
        <time>2020-06-21T08:18:01Z</time>
      </trkpt>
      <trkpt lat="49.45527" lon="0.98285">
        <ele>96.6</ele>
        <time>2020-06-21T08:18:02Z</time>
      </trkpt>
      <trkpt lat="49.45528" lon="0.98284">
        <ele>96.5</ele>
        <time>2020-06-21T08:18:03Z</time>
      </trkpt>
      <trkpt lat="49.45529" lon="0.98283">
        <ele>96.8</ele>
        <time>2020-06-21T08:18:05Z</time>
      </trkpt>
      <trkpt lat="49.45531" lon="0.98281">
        <ele>96.7</ele>
        <time>2020-06-21T08:18:06Z</time>
      </trkpt>
      <trkpt lat="49.45532" lon="0.9828">
        <ele>97.1</ele>
        <time>2020-06-21T08:18:07Z</time>
      </trkpt>
      <trkpt lat="49.45535" lon="0.98278">
        <ele>97</ele>
        <time>2020-06-21T08:18:09Z</time>
      </trkpt>
      <trkpt lat="49.45536" lon="0.98278">
        <ele>97.2</ele>
        <time>2020-06-21T08:18:10Z</time>
      </trkpt>
      <trkpt lat="49.45538" lon="0.98276">
        <ele>97.5</ele>
        <time>2020-06-21T08:18:11Z</time>
      </trkpt>
      <trkpt lat="49.45539" lon="0.98275">
        <ele>97.5</ele>
        <time>2020-06-21T08:18:12Z</time>
      </trkpt>
      <trkpt lat="49.45539" lon="0.98275">
        <ele>97.4</ele>
        <time>2020-06-21T08:18:13Z</time>
      </trkpt>
      <trkpt lat="49.45542" lon="0.98273">
        <ele>97.6</ele>
        <time>2020-06-21T08:18:15Z</time>
      </trkpt>
      <trkpt lat="49.45543" lon="0.98273">
        <ele>97.8</ele>
        <time>2020-06-21T08:18:16Z</time>
      </trkpt>
      <trkpt lat="49.45546" lon="0.98273">
        <ele>98.1</ele>
        <time>2020-06-21T08:18:18Z</time>
      </trkpt>
      <trkpt lat="49.45548" lon="0.98273">
        <ele>98</ele>
        <time>2020-06-21T08:18:19Z</time>
      </trkpt>
      <trkpt lat="49.4555" lon="0.98275">
        <ele>98.3</ele>
        <time>2020-06-21T08:18:21Z</time>
      </trkpt>
      <trkpt lat="49.45551" lon="0.98276">
        <ele>98.3</ele>
        <time>2020-06-21T08:18:22Z</time>
      </trkpt>
      <trkpt lat="49.45553" lon="0.98278">
        <ele>98.5</ele>
        <time>2020-06-21T08:18:24Z</time>
      </trkpt>
      <trkpt lat="49.45554" lon="0.98282">
        <ele>98.5</ele>
        <time>2020-06-21T08:18:25Z</time>
      </trkpt>
      <trkpt lat="49.45557" lon="0.98285">
        <ele>98.8</ele>
        <time>2020-06-21T08:18:26Z</time>
      </trkpt>
      <trkpt lat="49.45558" lon="0.98287">
        <ele>99.1</ele>
        <time>2020-06-21T08:18:28Z</time>
      </trkpt>
      <trkpt lat="49.45559" lon="0.98288">
        <ele>99.1</ele>
        <time>2020-06-21T08:18:29Z</time>
      </trkpt>
      <trkpt lat="49.4556" lon="0.9829">
        <ele>99</ele>
        <time>2020-06-21T08:18:30Z</time>
      </trkpt>
      <trkpt lat="49.45561" lon="0.98291">
        <ele>99.4</ele>
        <time>2020-06-21T08:18:31Z</time>
      </trkpt>
      <trkpt lat="49.45562" lon="0.98291">
        <ele>99.3</ele>
        <time>2020-06-21T08:18:33Z</time>
      </trkpt>
      <trkpt lat="49.45563" lon="0.98291">
        <ele>99.6</ele>
        <time>2020-06-21T08:18:34Z</time>
      </trkpt>
      <trkpt lat="49.45565" lon="0.98291">
        <ele>99.6</ele>
        <time>2020-06-21T08:18:36Z</time>
      </trkpt>
      <trkpt lat="49.45566" lon="0.98291">
        <ele>99.9</ele>
        <time>2020-06-21T08:18:38Z</time>
      </trkpt>
      <trkpt lat="49.45566" lon="0.98292">
        <ele>99.9</ele>
        <time>2020-06-21T08:18:39Z</time>
      </trkpt>
      <trkpt lat="49.45567" lon="0.98293">
        <ele>99.8</ele>
        <time>2020-06-21T08:18:41Z</time>
      </trkpt>
      <trkpt lat="49.45567" lon="0.98293">
        <ele>99.8</ele>
        <time>2020-06-21T08:18:42Z</time>
      </trkpt>
      <trkpt lat="49.45567" lon="0.98293">
        <ele>99.8</ele>
        <time>2020-06-21T08:18:44Z</time>
      </trkpt>
      <trkpt lat="49.45567" lon="0.98294">
        <ele>99.8</ele>
        <time>2020-06-21T08:18:45Z</time>
      </trkpt>
      <trkpt lat="49.45567" lon="0.98295">
        <ele>99.7</ele>
        <time>2020-06-21T08:18:46Z</time>
      </trkpt>
      <trkpt lat="49.45567" lon="0.98296">
        <ele>99.7</ele>
        <time>2020-06-21T08:18:48Z</time>
      </trkpt>
      <trkpt lat="49.45566" lon="0.98299">
        <ele>99.7</ele>
        <time>2020-06-21T08:18:50Z</time>
      </trkpt>
      <trkpt lat="49.45566" lon="0.98302">
        <ele>99.6</ele>
        <time>2020-06-21T08:18:51Z</time>
      </trkpt>
      <trkpt lat="49.45566" lon="0.98304">
        <ele>99.6</ele>
        <time>2020-06-21T08:18:53Z</time>
      </trkpt>
      <trkpt lat="49.45566" lon="0.98305">
        <ele>99.6</ele>
        <time>2020-06-21T08:18:54Z</time>
      </trkpt>
      <trkpt lat="49.45567" lon="0.98312">
        <ele>99.5</ele>
        <time>2020-06-21T08:18:55Z</time>
      </trkpt>
      <trkpt lat="49.45567" lon="0.98318">
        <ele>99.4</ele>
        <time>2020-06-21T08:18:56Z</time>
      </trkpt>
      <trkpt lat="49.45567" lon="0.9832">
        <ele>99.4</ele>
        <time>2020-06-21T08:18:57Z</time>
      </trkpt>
      <trkpt lat="49.45567" lon="0.98325">
        <ele>99.3</ele>
        <time>2020-06-21T08:18:58Z</time>
      </trkpt>
      <trkpt lat="49.45567" lon="0.9833">
        <ele>99.3</ele>
        <time>2020-06-21T08:19:00Z</time>
      </trkpt>
      <trkpt lat="49.45567" lon="0.98332">
        <ele>99.2</ele>
        <time>2020-06-21T08:19:01Z</time>
      </trkpt>
      <trkpt lat="49.45566" lon="0.98337">
        <ele>99.2</ele>
        <time>2020-06-21T08:19:02Z</time>
      </trkpt>
      <trkpt lat="49.45565" lon="0.98343">
        <ele>98.8</ele>
        <time>2020-06-21T08:19:03Z</time>
      </trkpt>
      <trkpt lat="49.45565" lon="0.98348">
        <ele>98.8</ele>
        <time>2020-06-21T08:19:05Z</time>
      </trkpt>
      <trkpt lat="49.45563" lon="0.98353">
        <ele>98.8</ele>
        <time>2020-06-21T08:19:06Z</time>
      </trkpt>
      <trkpt lat="49.45562" lon="0.98357">
        <ele>98.4</ele>
        <time>2020-06-21T08:19:07Z</time>
      </trkpt>
      <trkpt lat="49.4556" lon="0.98363">
        <ele>98.1</ele>
        <time>2020-06-21T08:19:08Z</time>
      </trkpt>
      <trkpt lat="49.45559" lon="0.98366">
        <ele>98.1</ele>
        <time>2020-06-21T08:19:09Z</time>
      </trkpt>
      <trkpt lat="49.45558" lon="0.9837">
        <ele>98.2</ele>
        <time>2020-06-21T08:19:11Z</time>
      </trkpt>
      <trkpt lat="49.45556" lon="0.98375">
        <ele>97.9</ele>
        <time>2020-06-21T08:19:12Z</time>
      </trkpt>
      <trkpt lat="49.45555" lon="0.98381">
        <ele>97.9</ele>
        <time>2020-06-21T08:19:13Z</time>
      </trkpt>
      <trkpt lat="49.45554" lon="0.98386">
        <ele>97.5</ele>
        <time>2020-06-21T08:19:15Z</time>
      </trkpt>
      <trkpt lat="49.45554" lon="0.98388">
        <ele>97.6</ele>
        <time>2020-06-21T08:19:16Z</time>
      </trkpt>
      <trkpt lat="49.45555" lon="0.98391">
        <ele>98</ele>
        <time>2020-06-21T08:19:18Z</time>
      </trkpt>
      <trkpt lat="49.45556" lon="0.98393">
        <ele>98</ele>
        <time>2020-06-21T08:19:19Z</time>
      </trkpt>
      <trkpt lat="49.45557" lon="0.98398">
        <ele>98</ele>
        <time>2020-06-21T08:19:20Z</time>
      </trkpt>
      <trkpt lat="49.45557" lon="0.984">
        <ele>98.4</ele>
        <time>2020-06-21T08:19:21Z</time>
      </trkpt>
      <trkpt lat="49.45558" lon="0.98407">
        <ele>98.5</ele>
        <time>2020-06-21T08:19:23Z</time>
      </trkpt>
      <trkpt lat="49.45559" lon="0.9841">
        <ele>98.6</ele>
        <time>2020-06-21T08:19:24Z</time>
      </trkpt>
      <trkpt lat="49.45559" lon="0.98413">
        <ele>98.6</ele>
        <time>2020-06-21T08:19:25Z</time>
      </trkpt>
      <trkpt lat="49.45559" lon="0.98416">
        <ele>98.6</ele>
        <time>2020-06-21T08:19:27Z</time>
      </trkpt>
      <trkpt lat="49.4556" lon="0.9842">
        <ele>99</ele>
        <time>2020-06-21T08:19:29Z</time>
      </trkpt>
      <trkpt lat="49.45563" lon="0.98425">
        <ele>99.4</ele>
        <time>2020-06-21T08:19:30Z</time>
      </trkpt>
      <trkpt lat="49.45564" lon="0.98427">
        <ele>99.5</ele>
        <time>2020-06-21T08:19:31Z</time>
      </trkpt>
      <trkpt lat="49.45566" lon="0.9843">
        <ele>99.8</ele>
        <time>2020-06-21T08:19:33Z</time>
      </trkpt>
      <trkpt lat="49.45566" lon="0.98431">
        <ele>99.9</ele>
        <time>2020-06-21T08:19:34Z</time>
      </trkpt>
      <trkpt lat="49.45567" lon="0.98434">
        <ele>99.8</ele>
        <time>2020-06-21T08:19:35Z</time>
      </trkpt>
      <trkpt lat="49.45568" lon="0.98439">
        <ele>99.9</ele>
        <time>2020-06-21T08:19:37Z</time>
      </trkpt>
      <trkpt lat="49.45568" lon="0.98443">
        <ele>100</ele>
        <time>2020-06-21T08:19:38Z</time>
      </trkpt>
      <trkpt lat="49.45568" lon="0.98449">
        <ele>100.2</ele>
        <time>2020-06-21T08:19:40Z</time>
      </trkpt>
      <trkpt lat="49.45568" lon="0.98451">
        <ele>100.2</ele>
        <time>2020-06-21T08:19:41Z</time>
      </trkpt>
      <trkpt lat="49.45567" lon="0.98456">
        <ele>100.3</ele>
        <time>2020-06-21T08:19:43Z</time>
      </trkpt>
      <trkpt lat="49.45567" lon="0.98458">
        <ele>100.3</ele>
        <time>2020-06-21T08:19:44Z</time>
      </trkpt>
      <trkpt lat="49.45569" lon="0.98471">
        <ele>100.9</ele>
        <time>2020-06-21T08:19:45Z</time>
      </trkpt>
      <trkpt lat="49.4557" lon="0.9848">
        <ele>100.9</ele>
        <time>2020-06-21T08:19:47Z</time>
      </trkpt>
      <trkpt lat="49.4557" lon="0.98484">
        <ele>100.9</ele>
        <time>2020-06-21T08:19:48Z</time>
      </trkpt>
      <trkpt lat="49.4557" lon="0.98489">
        <ele>100.9</ele>
        <time>2020-06-21T08:19:50Z</time>
      </trkpt>
      <trkpt lat="49.4557" lon="0.98492">
        <ele>101</ele>
        <time>2020-06-21T08:19:51Z</time>
      </trkpt>
      <trkpt lat="49.45569" lon="0.98499">
        <ele>101.1</ele>
        <time>2020-06-21T08:19:53Z</time>
      </trkpt>
      <trkpt lat="49.45568" lon="0.98506">
        <ele>101.3</ele>
        <time>2020-06-21T08:19:55Z</time>
      </trkpt>
      <trkpt lat="49.45568" lon="0.98509">
        <ele>100.9</ele>
        <time>2020-06-21T08:19:56Z</time>
      </trkpt>
      <trkpt lat="49.45568" lon="0.98514">
        <ele>100.9</ele>
        <time>2020-06-21T08:19:58Z</time>
      </trkpt>
      <trkpt lat="49.45567" lon="0.9852">
        <ele>101</ele>
        <time>2020-06-21T08:20:00Z</time>
      </trkpt>
      <trkpt lat="49.45566" lon="0.98528">
        <ele>101.1</ele>
        <time>2020-06-21T08:20:02Z</time>
      </trkpt>
      <trkpt lat="49.45565" lon="0.98531">
        <ele>100.5</ele>
        <time>2020-06-21T08:20:03Z</time>
      </trkpt>
      <trkpt lat="49.45565" lon="0.98537">
        <ele>100.5</ele>
        <time>2020-06-21T08:20:05Z</time>
      </trkpt>
      <trkpt lat="49.45565" lon="0.9854">
        <ele>100.5</ele>
        <time>2020-06-21T08:20:06Z</time>
      </trkpt>
      <trkpt lat="49.45566" lon="0.98543">
        <ele>100.5</ele>
        <time>2020-06-21T08:20:08Z</time>
      </trkpt>
      <trkpt lat="49.45566" lon="0.98546">
        <ele>101.1</ele>
        <time>2020-06-21T08:20:10Z</time>
      </trkpt>
      <trkpt lat="49.45566" lon="0.98547">
        <ele>101.1</ele>
        <time>2020-06-21T08:20:11Z</time>
      </trkpt>
      <trkpt lat="49.45567" lon="0.98546">
        <ele>101.1</ele>
        <time>2020-06-21T08:20:13Z</time>
      </trkpt>
      <trkpt lat="49.45568" lon="0.98543">
        <ele>101</ele>
        <time>2020-06-21T08:20:15Z</time>
      </trkpt>
      <trkpt lat="49.45569" lon="0.98542">
        <ele>101.6</ele>
        <time>2020-06-21T08:20:16Z</time>
      </trkpt>
      <trkpt lat="49.45571" lon="0.98544">
        <ele>101.6</ele>
        <time>2020-06-21T08:20:18Z</time>
      </trkpt>
      <trkpt lat="49.45573" lon="0.98546">
        <ele>102.2</ele>
        <time>2020-06-21T08:20:20Z</time>
      </trkpt>
      <trkpt lat="49.45577" lon="0.98552">
        <ele>103</ele>
        <time>2020-06-21T08:20:22Z</time>
      </trkpt>
      <trkpt lat="49.45579" lon="0.98556">
        <ele>103.7</ele>
        <time>2020-06-21T08:20:23Z</time>
      </trkpt>
      <trkpt lat="49.4558" lon="0.98558">
        <ele>104.5</ele>
        <time>2020-06-21T08:20:24Z</time>
      </trkpt>
      <trkpt lat="49.45582" lon="0.98563">
        <ele>104.5</ele>
        <time>2020-06-21T08:20:25Z</time>
      </trkpt>
      <trkpt lat="49.45582" lon="0.98564">
        <ele>104.6</ele>
        <time>2020-06-21T08:20:26Z</time>
      </trkpt>
      <trkpt lat="49.45582" lon="0.98567">
        <ele>105.4</ele>
        <time>2020-06-21T08:20:27Z</time>
      </trkpt>
      <trkpt lat="49.45584" lon="0.98572">
        <ele>105.5</ele>
        <time>2020-06-21T08:20:29Z</time>
      </trkpt>
      <trkpt lat="49.45584" lon="0.98575">
        <ele>105.5</ele>
        <time>2020-06-21T08:20:30Z</time>
      </trkpt>
      <trkpt lat="49.45585" lon="0.98577">
        <ele>105.5</ele>
        <time>2020-06-21T08:20:31Z</time>
      </trkpt>
      <trkpt lat="49.45585" lon="0.98581">
        <ele>106.5</ele>
        <time>2020-06-21T08:20:33Z</time>
      </trkpt>
      <trkpt lat="49.45586" lon="0.98586">
        <ele>106.6</ele>
        <time>2020-06-21T08:20:35Z</time>
      </trkpt>
      <trkpt lat="49.45587" lon="0.98588">
        <ele>106.6</ele>
        <time>2020-06-21T08:20:36Z</time>
      </trkpt>
      <trkpt lat="49.45587" lon="0.98588">
        <ele>106.5</ele>
        <time>2020-06-21T08:20:37Z</time>
      </trkpt>
      <trkpt lat="49.45588" lon="0.98588">
        <ele>107.4</ele>
        <time>2020-06-21T08:20:38Z</time>
      </trkpt>
      <trkpt lat="49.45589" lon="0.98589">
        <ele>107.4</ele>
        <time>2020-06-21T08:20:40Z</time>
      </trkpt>
      <trkpt lat="49.4559" lon="0.98588">
        <ele>107.4</ele>
        <time>2020-06-21T08:20:41Z</time>
      </trkpt>
      <trkpt lat="49.4559" lon="0.98588">
        <ele>107.3</ele>
        <time>2020-06-21T08:20:42Z</time>
      </trkpt>
      <trkpt lat="49.45591" lon="0.98587">
        <ele>107.3</ele>
        <time>2020-06-21T08:20:44Z</time>
      </trkpt>
      <trkpt lat="49.45591" lon="0.98587">
        <ele>107.3</ele>
        <time>2020-06-21T08:20:46Z</time>
      </trkpt>
      <trkpt lat="49.45591" lon="0.98587">
        <ele>108.2</ele>
        <time>2020-06-21T08:20:47Z</time>
      </trkpt>
      <trkpt lat="49.45593" lon="0.98587">
        <ele>108.2</ele>
        <time>2020-06-21T08:20:49Z</time>
      </trkpt>
      <trkpt lat="49.45597" lon="0.98587">
        <ele>110.1</ele>
        <time>2020-06-21T08:20:50Z</time>
      </trkpt>
      <trkpt lat="49.45601" lon="0.98586">
        <ele>111.1</ele>
        <time>2020-06-21T08:20:51Z</time>
      </trkpt>
      <trkpt lat="49.45601" lon="0.98585">
        <ele>111.1</ele>
        <time>2020-06-21T08:20:52Z</time>
      </trkpt>
      <trkpt lat="49.45605" lon="0.98584">
        <ele>113.2</ele>
        <time>2020-06-21T08:20:54Z</time>
      </trkpt>
      <trkpt lat="49.45608" lon="0.98582">
        <ele>114.4</ele>
        <time>2020-06-21T08:20:56Z</time>
      </trkpt>
      <trkpt lat="49.45609" lon="0.98581">
        <ele>114.3</ele>
        <time>2020-06-21T08:20:57Z</time>
      </trkpt>
      <trkpt lat="49.45611" lon="0.98579">
        <ele>115.4</ele>
        <time>2020-06-21T08:20:59Z</time>
      </trkpt>
      <trkpt lat="49.45614" lon="0.98576">
        <ele>116.3</ele>
        <time>2020-06-21T08:21:01Z</time>
      </trkpt>
      <trkpt lat="49.45616" lon="0.98573">
        <ele>117.2</ele>
        <time>2020-06-21T08:21:03Z</time>
      </trkpt>
      <trkpt lat="49.45617" lon="0.98571">
        <ele>116.9</ele>
        <time>2020-06-21T08:21:04Z</time>
      </trkpt>
      <trkpt lat="49.45619" lon="0.98569">
        <ele>116.9</ele>
        <time>2020-06-21T08:21:05Z</time>
      </trkpt>
      <trkpt lat="49.4562" lon="0.98566">
        <ele>117.3</ele>
        <time>2020-06-21T08:21:06Z</time>
      </trkpt>
      <trkpt lat="49.45624" lon="0.9856">
        <ele>117.9</ele>
        <time>2020-06-21T08:21:08Z</time>
      </trkpt>
      <trkpt lat="49.45626" lon="0.98558">
        <ele>117.2</ele>
        <time>2020-06-21T08:21:09Z</time>
      </trkpt>
      <trkpt lat="49.4563" lon="0.98555">
        <ele>117.8</ele>
        <time>2020-06-21T08:21:11Z</time>
      </trkpt>
      <trkpt lat="49.45632" lon="0.98556">
        <ele>117.8</ele>
        <time>2020-06-21T08:21:13Z</time>
      </trkpt>
      <trkpt lat="49.45633" lon="0.98558">
        <ele>118</ele>
        <time>2020-06-21T08:21:14Z</time>
      </trkpt>
      <trkpt lat="49.45633" lon="0.9856">
        <ele>118.7</ele>
        <time>2020-06-21T08:21:15Z</time>
      </trkpt>
      <trkpt lat="49.45634" lon="0.98562">
        <ele>118.7</ele>
        <time>2020-06-21T08:21:16Z</time>
      </trkpt>
      <trkpt lat="49.45634" lon="0.98565">
        <ele>119.2</ele>
        <time>2020-06-21T08:21:18Z</time>
      </trkpt>
      <trkpt lat="49.45635" lon="0.98567">
        <ele>119.2</ele>
        <time>2020-06-21T08:21:19Z</time>
      </trkpt>
      <trkpt lat="49.45636" lon="0.9857">
        <ele>119.8</ele>
        <time>2020-06-21T08:21:21Z</time>
      </trkpt>
      <trkpt lat="49.45638" lon="0.98572">
        <ele>119.8</ele>
        <time>2020-06-21T08:21:23Z</time>
      </trkpt>
      <trkpt lat="49.45639" lon="0.98574">
        <ele>120.3</ele>
        <time>2020-06-21T08:21:25Z</time>
      </trkpt>
      <trkpt lat="49.4564" lon="0.98575">
        <ele>120.3</ele>
        <time>2020-06-21T08:21:26Z</time>
      </trkpt>
      <trkpt lat="49.45644" lon="0.98577">
        <ele>120.7</ele>
        <time>2020-06-21T08:21:28Z</time>
      </trkpt>
      <trkpt lat="49.45645" lon="0.98576">
        <ele>120.3</ele>
        <time>2020-06-21T08:21:29Z</time>
      </trkpt>
      <trkpt lat="49.45647" lon="0.98574">
        <ele>120.3</ele>
        <time>2020-06-21T08:21:31Z</time>
      </trkpt>
      <trkpt lat="49.45648" lon="0.98572">
        <ele>119.8</ele>
        <time>2020-06-21T08:21:32Z</time>
      </trkpt>
      <trkpt lat="49.45648" lon="0.98569">
        <ele>119.8</ele>
        <time>2020-06-21T08:21:34Z</time>
      </trkpt>
      <trkpt lat="49.45649" lon="0.98568">
        <ele>119.7</ele>
        <time>2020-06-21T08:21:36Z</time>
      </trkpt>
      <trkpt lat="49.45649" lon="0.98569">
        <ele>119.7</ele>
        <time>2020-06-21T08:21:38Z</time>
      </trkpt>
      <trkpt lat="49.45649" lon="0.98568">
        <ele>119.7</ele>
        <time>2020-06-21T08:21:39Z</time>
      </trkpt>
      <trkpt lat="49.45649" lon="0.98568">
        <ele>119.6</ele>
        <time>2020-06-21T08:21:41Z</time>
      </trkpt>
      <trkpt lat="49.4565" lon="0.98568">
        <ele>119.6</ele>
        <time>2020-06-21T08:21:42Z</time>
      </trkpt>
      <trkpt lat="49.4565" lon="0.98567">
        <ele>119</ele>
        <time>2020-06-21T08:21:43Z</time>
      </trkpt>
      <trkpt lat="49.45653" lon="0.98565">
        <ele>119</ele>
        <time>2020-06-21T08:21:45Z</time>
      </trkpt>
      <trkpt lat="49.45657" lon="0.98564">
        <ele>118.3</ele>
        <time>2020-06-21T08:21:47Z</time>
      </trkpt>
      <trkpt lat="49.4566" lon="0.98563">
        <ele>118.3</ele>
        <time>2020-06-21T08:21:49Z</time>
      </trkpt>
      <trkpt lat="49.45662" lon="0.98563">
        <ele>118.4</ele>
        <time>2020-06-21T08:21:50Z</time>
      </trkpt>
      <trkpt lat="49.45665" lon="0.98564">
        <ele>119.3</ele>
        <time>2020-06-21T08:21:52Z</time>
      </trkpt>
      <trkpt lat="49.45667" lon="0.98565">
        <ele>119.4</ele>
        <time>2020-06-21T08:21:53Z</time>
      </trkpt>
      <trkpt lat="49.45668" lon="0.98565">
        <ele>119.4</ele>
        <time>2020-06-21T08:21:54Z</time>
      </trkpt>
      <trkpt lat="49.45669" lon="0.98565">
        <ele>119.4</ele>
        <time>2020-06-21T08:21:55Z</time>
      </trkpt>
      <trkpt lat="49.45673" lon="0.98567">
        <ele>119.7</ele>
        <time>2020-06-21T08:21:57Z</time>
      </trkpt>
      <trkpt lat="49.45679" lon="0.9857">
        <ele>120.6</ele>
        <time>2020-06-21T08:21:59Z</time>
      </trkpt>
      <trkpt lat="49.45683" lon="0.98571">
        <ele>120.7</ele>
        <time>2020-06-21T08:22:01Z</time>
      </trkpt>
      <trkpt lat="49.45684" lon="0.98571">
        <ele>120.6</ele>
        <time>2020-06-21T08:22:02Z</time>
      </trkpt>
      <trkpt lat="49.45686" lon="0.98571">
        <ele>120.6</ele>
        <time>2020-06-21T08:22:03Z</time>
      </trkpt>
      <trkpt lat="49.45686" lon="0.9857">
        <ele>120.6</ele>
        <time>2020-06-21T08:22:04Z</time>
      </trkpt>
      <trkpt lat="49.45689" lon="0.98569">
        <ele>120.5</ele>
        <time>2020-06-21T08:22:06Z</time>
      </trkpt>
      <trkpt lat="49.45692" lon="0.98568">
        <ele>120.4</ele>
        <time>2020-06-21T08:22:08Z</time>
      </trkpt>
      <trkpt lat="49.45693" lon="0.98568">
        <ele>120.4</ele>
        <time>2020-06-21T08:22:10Z</time>
      </trkpt>
      <trkpt lat="49.45695" lon="0.98567">
        <ele>119.5</ele>
        <time>2020-06-21T08:22:11Z</time>
      </trkpt>
      <trkpt lat="49.45698" lon="0.98565">
        <ele>119.4</ele>
        <time>2020-06-21T08:22:12Z</time>
      </trkpt>
      <trkpt lat="49.45699" lon="0.98564">
        <ele>119.4</ele>
        <time>2020-06-21T08:22:13Z</time>
      </trkpt>
      <trkpt lat="49.45701" lon="0.98562">
        <ele>118.5</ele>
        <time>2020-06-21T08:22:15Z</time>
      </trkpt>
      <trkpt lat="49.45704" lon="0.98562">
        <ele>118.4</ele>
        <time>2020-06-21T08:22:17Z</time>
      </trkpt>
      <trkpt lat="49.45709" lon="0.98563">
        <ele>118.1</ele>
        <time>2020-06-21T08:22:19Z</time>
      </trkpt>
      <trkpt lat="49.45712" lon="0.98564">
        <ele>118.8</ele>
        <time>2020-06-21T08:22:21Z</time>
      </trkpt>
      <trkpt lat="49.45714" lon="0.98565">
        <ele>118.6</ele>
        <time>2020-06-21T08:22:23Z</time>
      </trkpt>
      <trkpt lat="49.45717" lon="0.98566">
        <ele>118.5</ele>
        <time>2020-06-21T08:22:25Z</time>
      </trkpt>
      <trkpt lat="49.45719" lon="0.98566">
        <ele>118.5</ele>
        <time>2020-06-21T08:22:27Z</time>
      </trkpt>
      <trkpt lat="49.45721" lon="0.98565">
        <ele>118.4</ele>
        <time>2020-06-21T08:22:28Z</time>
      </trkpt>
      <trkpt lat="49.45726" lon="0.98564">
        <ele>118.3</ele>
        <time>2020-06-21T08:22:30Z</time>
      </trkpt>
      <trkpt lat="49.45729" lon="0.98564">
        <ele>118.3</ele>
        <time>2020-06-21T08:22:31Z</time>
      </trkpt>
      <trkpt lat="49.45733" lon="0.98562">
        <ele>118.4</ele>
        <time>2020-06-21T08:22:33Z</time>
      </trkpt>
      <trkpt lat="49.45736" lon="0.9856">
        <ele>118.5</ele>
        <time>2020-06-21T08:22:34Z</time>
      </trkpt>
      <trkpt lat="49.45736" lon="0.98559">
        <ele>118.5</ele>
        <time>2020-06-21T08:22:35Z</time>
      </trkpt>
      <trkpt lat="49.45737" lon="0.98556">
        <ele>118.5</ele>
        <time>2020-06-21T08:22:37Z</time>
      </trkpt>
      <trkpt lat="49.45736" lon="0.98554">
        <ele>118.5</ele>
        <time>2020-06-21T08:22:38Z</time>
      </trkpt>
      <trkpt lat="49.45736" lon="0.98552">
        <ele>118.5</ele>
        <time>2020-06-21T08:22:40Z</time>
      </trkpt>
      <trkpt lat="49.45737" lon="0.98549">
        <ele>118.6</ele>
        <time>2020-06-21T08:22:41Z</time>
      </trkpt>
      <trkpt lat="49.45738" lon="0.98544">
        <ele>118.6</ele>
        <time>2020-06-21T08:22:43Z</time>
      </trkpt>
      <trkpt lat="49.45739" lon="0.98542">
        <ele>118.6</ele>
        <time>2020-06-21T08:22:44Z</time>
      </trkpt>
      <trkpt lat="49.45739" lon="0.98539">
        <ele>118.7</ele>
        <time>2020-06-21T08:22:45Z</time>
      </trkpt>
      <trkpt lat="49.4574" lon="0.98534">
        <ele>118.7</ele>
        <time>2020-06-21T08:22:47Z</time>
      </trkpt>
      <trkpt lat="49.45741" lon="0.98532">
        <ele>118.7</ele>
        <time>2020-06-21T08:22:48Z</time>
      </trkpt>
      <trkpt lat="49.45742" lon="0.98528">
        <ele>118.8</ele>
        <time>2020-06-21T08:22:50Z</time>
      </trkpt>
      <trkpt lat="49.45742" lon="0.98526">
        <ele>118.8</ele>
        <time>2020-06-21T08:22:51Z</time>
      </trkpt>
      <trkpt lat="49.45743" lon="0.98523">
        <ele>118.8</ele>
        <time>2020-06-21T08:22:52Z</time>
      </trkpt>
      <trkpt lat="49.45743" lon="0.9852">
        <ele>118.8</ele>
        <time>2020-06-21T08:22:54Z</time>
      </trkpt>
      <trkpt lat="49.45744" lon="0.98516">
        <ele>118.9</ele>
        <time>2020-06-21T08:22:55Z</time>
      </trkpt>
      <trkpt lat="49.45745" lon="0.98515">
        <ele>118.9</ele>
        <time>2020-06-21T08:22:56Z</time>
      </trkpt>
      <trkpt lat="49.45745" lon="0.98511">
        <ele>118.9</ele>
        <time>2020-06-21T08:22:57Z</time>
      </trkpt>
      <trkpt lat="49.45746" lon="0.98506">
        <ele>119</ele>
        <time>2020-06-21T08:22:58Z</time>
      </trkpt>
      <trkpt lat="49.45747" lon="0.98504">
        <ele>119</ele>
        <time>2020-06-21T08:22:59Z</time>
      </trkpt>
      <trkpt lat="49.45747" lon="0.985">
        <ele>119</ele>
        <time>2020-06-21T08:23:00Z</time>
      </trkpt>
      <trkpt lat="49.45748" lon="0.98495">
        <ele>119.1</ele>
        <time>2020-06-21T08:23:02Z</time>
      </trkpt>
      <trkpt lat="49.45748" lon="0.98491">
        <ele>119.2</ele>
        <time>2020-06-21T08:23:03Z</time>
      </trkpt>
      <trkpt lat="49.45749" lon="0.98486">
        <ele>119.2</ele>
        <time>2020-06-21T08:23:04Z</time>
      </trkpt>
      <trkpt lat="49.45749" lon="0.98485">
        <ele>119.2</ele>
        <time>2020-06-21T08:23:05Z</time>
      </trkpt>
      <trkpt lat="49.45749" lon="0.98479">
        <ele>119.3</ele>
        <time>2020-06-21T08:23:07Z</time>
      </trkpt>
      <trkpt lat="49.4575" lon="0.98474">
        <ele>119.3</ele>
        <time>2020-06-21T08:23:08Z</time>
      </trkpt>
      <trkpt lat="49.4575" lon="0.98472">
        <ele>119.3</ele>
        <time>2020-06-21T08:23:09Z</time>
      </trkpt>
      <trkpt lat="49.4575" lon="0.98466">
        <ele>119.3</ele>
        <time>2020-06-21T08:23:11Z</time>
      </trkpt>
      <trkpt lat="49.45751" lon="0.98461">
        <ele>119.4</ele>
        <time>2020-06-21T08:23:12Z</time>
      </trkpt>
      <trkpt lat="49.45751" lon="0.9846">
        <ele>119.4</ele>
        <time>2020-06-21T08:23:13Z</time>
      </trkpt>
      <trkpt lat="49.45752" lon="0.98457">
        <ele>119.4</ele>
        <time>2020-06-21T08:23:14Z</time>
      </trkpt>
      <trkpt lat="49.45752" lon="0.98455">
        <ele>119.4</ele>
        <time>2020-06-21T08:23:15Z</time>
      </trkpt>
      <trkpt lat="49.45753" lon="0.98449">
        <ele>119.4</ele>
        <time>2020-06-21T08:23:17Z</time>
      </trkpt>
      <trkpt lat="49.45753" lon="0.98444">
        <ele>119.5</ele>
        <time>2020-06-21T08:23:18Z</time>
      </trkpt>
      <trkpt lat="49.45753" lon="0.98438">
        <ele>119.5</ele>
        <time>2020-06-21T08:23:20Z</time>
      </trkpt>
      <trkpt lat="49.45754" lon="0.98434">
        <ele>119.5</ele>
        <time>2020-06-21T08:23:21Z</time>
      </trkpt>
      <trkpt lat="49.45754" lon="0.98427">
        <ele>119.6</ele>
        <time>2020-06-21T08:23:23Z</time>
      </trkpt>
      <trkpt lat="49.45755" lon="0.98417">
        <ele>119.6</ele>
        <time>2020-06-21T08:23:25Z</time>
      </trkpt>
      <trkpt lat="49.45756" lon="0.98411">
        <ele>119.7</ele>
        <time>2020-06-21T08:23:26Z</time>
      </trkpt>
      <trkpt lat="49.45757" lon="0.98406">
        <ele>119.8</ele>
        <time>2020-06-21T08:23:27Z</time>
      </trkpt>
      <trkpt lat="49.45758" lon="0.98394">
        <ele>119.9</ele>
        <time>2020-06-21T08:23:29Z</time>
      </trkpt>
      <trkpt lat="49.4576" lon="0.98385">
        <ele>120.1</ele>
        <time>2020-06-21T08:23:30Z</time>
      </trkpt>
      <trkpt lat="49.45761" lon="0.98376">
        <ele>120.2</ele>
        <time>2020-06-21T08:23:31Z</time>
      </trkpt>
      <trkpt lat="49.45762" lon="0.98367">
        <ele>120.4</ele>
        <time>2020-06-21T08:23:33Z</time>
      </trkpt>
      <trkpt lat="49.45763" lon="0.98361">
        <ele>120.6</ele>
        <time>2020-06-21T08:23:34Z</time>
      </trkpt>
      <trkpt lat="49.45763" lon="0.98354">
        <ele>120.7</ele>
        <time>2020-06-21T08:23:35Z</time>
      </trkpt>
      <trkpt lat="49.45763" lon="0.98349">
        <ele>120.9</ele>
        <time>2020-06-21T08:23:36Z</time>
      </trkpt>
      <trkpt lat="49.45764" lon="0.98341">
        <ele>121.1</ele>
        <time>2020-06-21T08:23:38Z</time>
      </trkpt>
      <trkpt lat="49.45765" lon="0.98336">
        <ele>121.1</ele>
        <time>2020-06-21T08:23:39Z</time>
      </trkpt>
      <trkpt lat="49.45765" lon="0.98333">
        <ele>121.2</ele>
        <time>2020-06-21T08:23:40Z</time>
      </trkpt>
      <trkpt lat="49.45764" lon="0.98327">
        <ele>121.3</ele>
        <time>2020-06-21T08:23:42Z</time>
      </trkpt>
      <trkpt lat="49.45764" lon="0.98323">
        <ele>121.4</ele>
        <time>2020-06-21T08:23:43Z</time>
      </trkpt>
      <trkpt lat="49.45765" lon="0.98318">
        <ele>121.4</ele>
        <time>2020-06-21T08:23:45Z</time>
      </trkpt>
      <trkpt lat="49.45765" lon="0.98313">
        <ele>121.5</ele>
        <time>2020-06-21T08:23:46Z</time>
      </trkpt>
      <trkpt lat="49.45766" lon="0.98309">
        <ele>121.5</ele>
        <time>2020-06-21T08:23:47Z</time>
      </trkpt>
      <trkpt lat="49.45767" lon="0.98304">
        <ele>121.6</ele>
        <time>2020-06-21T08:23:48Z</time>
      </trkpt>
      <trkpt lat="49.45768" lon="0.98301">
        <ele>121.7</ele>
        <time>2020-06-21T08:23:49Z</time>
      </trkpt>
      <trkpt lat="49.45769" lon="0.98295">
        <ele>121.7</ele>
        <time>2020-06-21T08:23:50Z</time>
      </trkpt>
      <trkpt lat="49.4577" lon="0.98289">
        <ele>121.8</ele>
        <time>2020-06-21T08:23:52Z</time>
      </trkpt>
      <trkpt lat="49.45771" lon="0.98284">
        <ele>121.9</ele>
        <time>2020-06-21T08:23:53Z</time>
      </trkpt>
      <trkpt lat="49.45772" lon="0.9828">
        <ele>122</ele>
        <time>2020-06-21T08:23:54Z</time>
      </trkpt>
      <trkpt lat="49.45772" lon="0.98276">
        <ele>122</ele>
        <time>2020-06-21T08:23:55Z</time>
      </trkpt>
      <trkpt lat="49.45772" lon="0.98267">
        <ele>122.1</ele>
        <time>2020-06-21T08:23:57Z</time>
      </trkpt>
      <trkpt lat="49.45773" lon="0.98262">
        <ele>122.2</ele>
        <time>2020-06-21T08:23:58Z</time>
      </trkpt>
      <trkpt lat="49.45773" lon="0.98261">
        <ele>122.2</ele>
        <time>2020-06-21T08:23:59Z</time>
      </trkpt>
      <trkpt lat="49.45773" lon="0.98258">
        <ele>122.3</ele>
        <time>2020-06-21T08:24:00Z</time>
      </trkpt>
      <trkpt lat="49.45774" lon="0.98253">
        <ele>122.4</ele>
        <time>2020-06-21T08:24:02Z</time>
      </trkpt>
      <trkpt lat="49.45775" lon="0.98248">
        <ele>122.4</ele>
        <time>2020-06-21T08:24:03Z</time>
      </trkpt>
      <trkpt lat="49.45775" lon="0.98247">
        <ele>122.5</ele>
        <time>2020-06-21T08:24:04Z</time>
      </trkpt>
      <trkpt lat="49.45776" lon="0.98242">
        <ele>122.5</ele>
        <time>2020-06-21T08:24:05Z</time>
      </trkpt>
      <trkpt lat="49.45776" lon="0.98238">
        <ele>122.6</ele>
        <time>2020-06-21T08:24:06Z</time>
      </trkpt>
      <trkpt lat="49.45777" lon="0.98233">
        <ele>122.7</ele>
        <time>2020-06-21T08:24:08Z</time>
      </trkpt>
      <trkpt lat="49.45777" lon="0.98229">
        <ele>122.7</ele>
        <time>2020-06-21T08:24:09Z</time>
      </trkpt>
      <trkpt lat="49.45777" lon="0.98224">
        <ele>122.8</ele>
        <time>2020-06-21T08:24:10Z</time>
      </trkpt>
      <trkpt lat="49.45779" lon="0.98216">
        <ele>122.9</ele>
        <time>2020-06-21T08:24:12Z</time>
      </trkpt>
      <trkpt lat="49.45781" lon="0.98206">
        <ele>123.1</ele>
        <time>2020-06-21T08:24:13Z</time>
      </trkpt>
      <trkpt lat="49.45782" lon="0.98199">
        <ele>123.2</ele>
        <time>2020-06-21T08:24:14Z</time>
      </trkpt>
      <trkpt lat="49.45784" lon="0.98189">
        <ele>123.3</ele>
        <time>2020-06-21T08:24:16Z</time>
      </trkpt>
      <trkpt lat="49.45785" lon="0.98183">
        <ele>123.5</ele>
        <time>2020-06-21T08:24:17Z</time>
      </trkpt>
      <trkpt lat="49.45786" lon="0.98178">
        <ele>123.6</ele>
        <time>2020-06-21T08:24:18Z</time>
      </trkpt>
      <trkpt lat="49.45788" lon="0.98173">
        <ele>123.7</ele>
        <time>2020-06-21T08:24:19Z</time>
      </trkpt>
      <trkpt lat="49.45788" lon="0.98169">
        <ele>123.7</ele>
        <time>2020-06-21T08:24:20Z</time>
      </trkpt>
      <trkpt lat="49.4579" lon="0.98161">
        <ele>123.9</ele>
        <time>2020-06-21T08:24:22Z</time>
      </trkpt>
      <trkpt lat="49.4579" lon="0.98154">
        <ele>124</ele>
        <time>2020-06-21T08:24:24Z</time>
      </trkpt>
      <trkpt lat="49.4579" lon="0.9815">
        <ele>124</ele>
        <time>2020-06-21T08:24:25Z</time>
      </trkpt>
      <trkpt lat="49.45791" lon="0.98146">
        <ele>124.1</ele>
        <time>2020-06-21T08:24:26Z</time>
      </trkpt>
      <trkpt lat="49.45792" lon="0.98141">
        <ele>124.2</ele>
        <time>2020-06-21T08:24:27Z</time>
      </trkpt>
      <trkpt lat="49.45793" lon="0.98139">
        <ele>124.2</ele>
        <time>2020-06-21T08:24:28Z</time>
      </trkpt>
      <trkpt lat="49.45796" lon="0.98131">
        <ele>124.3</ele>
        <time>2020-06-21T08:24:30Z</time>
      </trkpt>
      <trkpt lat="49.45797" lon="0.98127">
        <ele>124.4</ele>
        <time>2020-06-21T08:24:31Z</time>
      </trkpt>
      <trkpt lat="49.45798" lon="0.98122">
        <ele>124.5</ele>
        <time>2020-06-21T08:24:32Z</time>
      </trkpt>
      <trkpt lat="49.458" lon="0.98117">
        <ele>124.6</ele>
        <time>2020-06-21T08:24:34Z</time>
      </trkpt>
      <trkpt lat="49.45803" lon="0.98111">
        <ele>124.7</ele>
        <time>2020-06-21T08:24:36Z</time>
      </trkpt>
      <trkpt lat="49.45804" lon="0.98107">
        <ele>124.8</ele>
        <time>2020-06-21T08:24:37Z</time>
      </trkpt>
      <trkpt lat="49.45806" lon="0.98102">
        <ele>124.9</ele>
        <time>2020-06-21T08:24:39Z</time>
      </trkpt>
      <trkpt lat="49.45808" lon="0.98097">
        <ele>125</ele>
        <time>2020-06-21T08:24:40Z</time>
      </trkpt>
      <trkpt lat="49.45809" lon="0.98091">
        <ele>125.1</ele>
        <time>2020-06-21T08:24:41Z</time>
      </trkpt>
      <trkpt lat="49.45809" lon="0.98089">
        <ele>125.2</ele>
        <time>2020-06-21T08:24:42Z</time>
      </trkpt>
      <trkpt lat="49.4581" lon="0.98082">
        <ele>125.3</ele>
        <time>2020-06-21T08:24:43Z</time>
      </trkpt>
      <trkpt lat="49.45811" lon="0.98074">
        <ele>125.4</ele>
        <time>2020-06-21T08:24:45Z</time>
      </trkpt>
      <trkpt lat="49.45812" lon="0.98069">
        <ele>125.5</ele>
        <time>2020-06-21T08:24:46Z</time>
      </trkpt>
      <trkpt lat="49.45812" lon="0.98064">
        <ele>125.6</ele>
        <time>2020-06-21T08:24:47Z</time>
      </trkpt>
      <trkpt lat="49.45812" lon="0.98059">
        <ele>125.6</ele>
        <time>2020-06-21T08:24:48Z</time>
      </trkpt>
      <trkpt lat="49.45813" lon="0.98054">
        <ele>125.7</ele>
        <time>2020-06-21T08:24:49Z</time>
      </trkpt>
      <trkpt lat="49.45813" lon="0.9805">
        <ele>125.8</ele>
        <time>2020-06-21T08:24:50Z</time>
      </trkpt>
      <trkpt lat="49.45814" lon="0.98043">
        <ele>125.9</ele>
        <time>2020-06-21T08:24:52Z</time>
      </trkpt>
      <trkpt lat="49.45814" lon="0.98037">
        <ele>125.9</ele>
        <time>2020-06-21T08:24:53Z</time>
      </trkpt>
      <trkpt lat="49.45815" lon="0.98026">
        <ele>126</ele>
        <time>2020-06-21T08:24:55Z</time>
      </trkpt>
      <trkpt lat="49.45816" lon="0.98018">
        <ele>126.1</ele>
        <time>2020-06-21T08:24:56Z</time>
      </trkpt>
      <trkpt lat="49.45817" lon="0.98011">
        <ele>126.2</ele>
        <time>2020-06-21T08:24:58Z</time>
      </trkpt>
      <trkpt lat="49.45819" lon="0.98001">
        <ele>126.3</ele>
        <time>2020-06-21T08:25:00Z</time>
      </trkpt>
      <trkpt lat="49.4582" lon="0.97994">
        <ele>126.3</ele>
        <time>2020-06-21T08:25:01Z</time>
      </trkpt>
      <trkpt lat="49.45821" lon="0.97988">
        <ele>126.4</ele>
        <time>2020-06-21T08:25:02Z</time>
      </trkpt>
      <trkpt lat="49.45822" lon="0.97982">
        <ele>126.4</ele>
        <time>2020-06-21T08:25:03Z</time>
      </trkpt>
      <trkpt lat="49.45824" lon="0.97976">
        <ele>126.5</ele>
        <time>2020-06-21T08:25:05Z</time>
      </trkpt>
      <trkpt lat="49.45826" lon="0.9797">
        <ele>126.5</ele>
        <time>2020-06-21T08:25:06Z</time>
      </trkpt>
      <trkpt lat="49.45827" lon="0.97964">
        <ele>126.6</ele>
        <time>2020-06-21T08:25:07Z</time>
      </trkpt>
      <trkpt lat="49.45828" lon="0.97956">
        <ele>126.6</ele>
        <time>2020-06-21T08:25:09Z</time>
      </trkpt>
      <trkpt lat="49.45829" lon="0.9795">
        <ele>126.6</ele>
        <time>2020-06-21T08:25:10Z</time>
      </trkpt>
      <trkpt lat="49.45828" lon="0.97941">
        <ele>126.7</ele>
        <time>2020-06-21T08:25:12Z</time>
      </trkpt>
      <trkpt lat="49.45829" lon="0.97935">
        <ele>126.7</ele>
        <time>2020-06-21T08:25:13Z</time>
      </trkpt>
      <trkpt lat="49.45829" lon="0.9793">
        <ele>126.8</ele>
        <time>2020-06-21T08:25:14Z</time>
      </trkpt>
      <trkpt lat="49.45829" lon="0.97924">
        <ele>126.8</ele>
        <time>2020-06-21T08:25:15Z</time>
      </trkpt>
      <trkpt lat="49.45829" lon="0.97919">
        <ele>126.9</ele>
        <time>2020-06-21T08:25:16Z</time>
      </trkpt>
      <trkpt lat="49.4583" lon="0.97914">
        <ele>126.9</ele>
        <time>2020-06-21T08:25:17Z</time>
      </trkpt>
      <trkpt lat="49.4583" lon="0.97908">
        <ele>127</ele>
        <time>2020-06-21T08:25:18Z</time>
      </trkpt>
      <trkpt lat="49.4583" lon="0.97903">
        <ele>127</ele>
        <time>2020-06-21T08:25:19Z</time>
      </trkpt>
      <trkpt lat="49.45831" lon="0.97898">
        <ele>127.1</ele>
        <time>2020-06-21T08:25:20Z</time>
      </trkpt>
      <trkpt lat="49.45831" lon="0.97891">
        <ele>127.2</ele>
        <time>2020-06-21T08:25:22Z</time>
      </trkpt>
      <trkpt lat="49.45831" lon="0.97887">
        <ele>127.2</ele>
        <time>2020-06-21T08:25:23Z</time>
      </trkpt>
      <trkpt lat="49.45832" lon="0.97881">
        <ele>127.2</ele>
        <time>2020-06-21T08:25:24Z</time>
      </trkpt>
      <trkpt lat="49.45833" lon="0.97875">
        <ele>127.3</ele>
        <time>2020-06-21T08:25:25Z</time>
      </trkpt>
      <trkpt lat="49.45833" lon="0.97867">
        <ele>127.4</ele>
        <time>2020-06-21T08:25:27Z</time>
      </trkpt>
      <trkpt lat="49.45833" lon="0.97862">
        <ele>127.4</ele>
        <time>2020-06-21T08:25:28Z</time>
      </trkpt>
      <trkpt lat="49.45833" lon="0.97854">
        <ele>127.5</ele>
        <time>2020-06-21T08:25:30Z</time>
      </trkpt>
      <trkpt lat="49.45833" lon="0.9785">
        <ele>127.5</ele>
        <time>2020-06-21T08:25:31Z</time>
      </trkpt>
      <trkpt lat="49.45834" lon="0.97845">
        <ele>127.5</ele>
        <time>2020-06-21T08:25:33Z</time>
      </trkpt>
      <trkpt lat="49.45835" lon="0.97841">
        <ele>127.6</ele>
        <time>2020-06-21T08:25:34Z</time>
      </trkpt>
      <trkpt lat="49.45836" lon="0.97836">
        <ele>127.6</ele>
        <time>2020-06-21T08:25:35Z</time>
      </trkpt>
      <trkpt lat="49.45836" lon="0.97834">
        <ele>127.6</ele>
        <time>2020-06-21T08:25:36Z</time>
      </trkpt>
      <trkpt lat="49.45837" lon="0.9783">
        <ele>127.6</ele>
        <time>2020-06-21T08:25:38Z</time>
      </trkpt>
      <trkpt lat="49.45837" lon="0.97828">
        <ele>127.6</ele>
        <time>2020-06-21T08:25:39Z</time>
      </trkpt>
      <trkpt lat="49.45838" lon="0.97822">
        <ele>127.6</ele>
        <time>2020-06-21T08:25:41Z</time>
      </trkpt>
      <trkpt lat="49.4584" lon="0.97817">
        <ele>127.7</ele>
        <time>2020-06-21T08:25:43Z</time>
      </trkpt>
      <trkpt lat="49.4584" lon="0.97816">
        <ele>127.7</ele>
        <time>2020-06-21T08:25:44Z</time>
      </trkpt>
      <trkpt lat="49.45841" lon="0.97812">
        <ele>127.7</ele>
        <time>2020-06-21T08:25:45Z</time>
      </trkpt>
      <trkpt lat="49.45841" lon="0.9781">
        <ele>127.7</ele>
        <time>2020-06-21T08:25:46Z</time>
      </trkpt>
      <trkpt lat="49.45841" lon="0.97805">
        <ele>127.7</ele>
        <time>2020-06-21T08:25:47Z</time>
      </trkpt>
      <trkpt lat="49.45841" lon="0.97803">
        <ele>127.7</ele>
        <time>2020-06-21T08:25:48Z</time>
      </trkpt>
      <trkpt lat="49.4584" lon="0.97798">
        <ele>127.7</ele>
        <time>2020-06-21T08:25:50Z</time>
      </trkpt>
      <trkpt lat="49.45839" lon="0.97797">
        <ele>127.7</ele>
        <time>2020-06-21T08:25:51Z</time>
      </trkpt>
      <trkpt lat="49.45839" lon="0.97796">
        <ele>127.7</ele>
        <time>2020-06-21T08:25:52Z</time>
      </trkpt>
      <trkpt lat="49.45837" lon="0.97792">
        <ele>127.7</ele>
        <time>2020-06-21T08:25:54Z</time>
      </trkpt>
      <trkpt lat="49.45834" lon="0.97789">
        <ele>127.6</ele>
        <time>2020-06-21T08:25:55Z</time>
      </trkpt>
      <trkpt lat="49.45833" lon="0.97788">
        <ele>127.6</ele>
        <time>2020-06-21T08:25:56Z</time>
      </trkpt>
      <trkpt lat="49.45832" lon="0.97787">
        <ele>127.6</ele>
        <time>2020-06-21T08:25:57Z</time>
      </trkpt>
      <trkpt lat="49.45829" lon="0.97783">
        <ele>127.5</ele>
        <time>2020-06-21T08:25:59Z</time>
      </trkpt>
      <trkpt lat="49.45826" lon="0.9778">
        <ele>127.5</ele>
        <time>2020-06-21T08:26:00Z</time>
      </trkpt>
      <trkpt lat="49.45822" lon="0.97775">
        <ele>127.3</ele>
        <time>2020-06-21T08:26:02Z</time>
      </trkpt>
      <trkpt lat="49.45818" lon="0.97772">
        <ele>127.2</ele>
        <time>2020-06-21T08:26:03Z</time>
      </trkpt>
      <trkpt lat="49.45813" lon="0.97768">
        <ele>127.1</ele>
        <time>2020-06-21T08:26:05Z</time>
      </trkpt>
      <trkpt lat="49.45812" lon="0.97765">
        <ele>127</ele>
        <time>2020-06-21T08:26:06Z</time>
      </trkpt>
      <trkpt lat="49.4581" lon="0.97762">
        <ele>126.9</ele>
        <time>2020-06-21T08:26:08Z</time>
      </trkpt>
      <trkpt lat="49.45808" lon="0.97756">
        <ele>126.8</ele>
        <time>2020-06-21T08:26:09Z</time>
      </trkpt>
      <trkpt lat="49.45805" lon="0.97741">
        <ele>126.4</ele>
        <time>2020-06-21T08:26:11Z</time>
      </trkpt>
      <trkpt lat="49.45806" lon="0.97731">
        <ele>125.9</ele>
        <time>2020-06-21T08:26:13Z</time>
      </trkpt>
      <trkpt lat="49.45807" lon="0.97724">
        <ele>125.9</ele>
        <time>2020-06-21T08:26:14Z</time>
      </trkpt>
      <trkpt lat="49.45809" lon="0.97718">
        <ele>125.9</ele>
        <time>2020-06-21T08:26:15Z</time>
      </trkpt>
      <trkpt lat="49.45811" lon="0.97713">
        <ele>126</ele>
        <time>2020-06-21T08:26:17Z</time>
      </trkpt>
      <trkpt lat="49.45813" lon="0.97709">
        <ele>126</ele>
        <time>2020-06-21T08:26:18Z</time>
      </trkpt>
      <trkpt lat="49.45814" lon="0.97706">
        <ele>126</ele>
        <time>2020-06-21T08:26:19Z</time>
      </trkpt>
      <trkpt lat="49.45816" lon="0.97702">
        <ele>126</ele>
        <time>2020-06-21T08:26:21Z</time>
      </trkpt>
      <trkpt lat="49.45819" lon="0.97698">
        <ele>126</ele>
        <time>2020-06-21T08:26:22Z</time>
      </trkpt>
      <trkpt lat="49.4582" lon="0.97696">
        <ele>126</ele>
        <time>2020-06-21T08:26:23Z</time>
      </trkpt>
      <trkpt lat="49.45822" lon="0.97692">
        <ele>126</ele>
        <time>2020-06-21T08:26:25Z</time>
      </trkpt>
      <trkpt lat="49.45825" lon="0.97688">
        <ele>126</ele>
        <time>2020-06-21T08:26:26Z</time>
      </trkpt>
      <trkpt lat="49.45826" lon="0.97687">
        <ele>126</ele>
        <time>2020-06-21T08:26:27Z</time>
      </trkpt>
      <trkpt lat="49.4583" lon="0.97682">
        <ele>126</ele>
        <time>2020-06-21T08:26:29Z</time>
      </trkpt>
      <trkpt lat="49.45832" lon="0.9768">
        <ele>126</ele>
        <time>2020-06-21T08:26:30Z</time>
      </trkpt>
      <trkpt lat="49.45835" lon="0.97677">
        <ele>126</ele>
        <time>2020-06-21T08:26:32Z</time>
      </trkpt>
      <trkpt lat="49.45837" lon="0.97674">
        <ele>126</ele>
        <time>2020-06-21T08:26:33Z</time>
      </trkpt>
      <trkpt lat="49.45839" lon="0.97671">
        <ele>126</ele>
        <time>2020-06-21T08:26:34Z</time>
      </trkpt>
      <trkpt lat="49.45842" lon="0.97669">
        <ele>126</ele>
        <time>2020-06-21T08:26:35Z</time>
      </trkpt>
      <trkpt lat="49.45844" lon="0.97665">
        <ele>126.1</ele>
        <time>2020-06-21T08:26:36Z</time>
      </trkpt>
      <trkpt lat="49.45847" lon="0.97661">
        <ele>126.1</ele>
        <time>2020-06-21T08:26:37Z</time>
      </trkpt>
      <trkpt lat="49.45849" lon="0.97659">
        <ele>126.1</ele>
        <time>2020-06-21T08:26:38Z</time>
      </trkpt>
      <trkpt lat="49.45852" lon="0.97655">
        <ele>126.1</ele>
        <time>2020-06-21T08:26:40Z</time>
      </trkpt>
      <trkpt lat="49.45855" lon="0.97651">
        <ele>126.1</ele>
        <time>2020-06-21T08:26:41Z</time>
      </trkpt>
      <trkpt lat="49.45858" lon="0.97647">
        <ele>126.1</ele>
        <time>2020-06-21T08:26:42Z</time>
      </trkpt>
      <trkpt lat="49.45863" lon="0.97643">
        <ele>126.2</ele>
        <time>2020-06-21T08:26:44Z</time>
      </trkpt>
      <trkpt lat="49.45866" lon="0.9764">
        <ele>126.2</ele>
        <time>2020-06-21T08:26:45Z</time>
      </trkpt>
      <trkpt lat="49.4587" lon="0.97636">
        <ele>126.3</ele>
        <time>2020-06-21T08:26:46Z</time>
      </trkpt>
      <trkpt lat="49.45871" lon="0.97635">
        <ele>126.3</ele>
        <time>2020-06-21T08:26:47Z</time>
      </trkpt>
      <trkpt lat="49.45875" lon="0.97631">
        <ele>126.3</ele>
        <time>2020-06-21T08:26:49Z</time>
      </trkpt>
      <trkpt lat="49.45878" lon="0.97628">
        <ele>126.4</ele>
        <time>2020-06-21T08:26:50Z</time>
      </trkpt>
      <trkpt lat="49.45881" lon="0.97626">
        <ele>126.4</ele>
        <time>2020-06-21T08:26:52Z</time>
      </trkpt>
      <trkpt lat="49.45884" lon="0.97623">
        <ele>126.4</ele>
        <time>2020-06-21T08:26:53Z</time>
      </trkpt>
      <trkpt lat="49.45889" lon="0.97618">
        <ele>126.3</ele>
        <time>2020-06-21T08:26:54Z</time>
      </trkpt>
      <trkpt lat="49.45892" lon="0.97615">
        <ele>126.3</ele>
        <time>2020-06-21T08:26:56Z</time>
      </trkpt>
      <trkpt lat="49.45895" lon="0.97611">
        <ele>126.3</ele>
        <time>2020-06-21T08:26:57Z</time>
      </trkpt>
      <trkpt lat="49.45898" lon="0.97608">
        <ele>126.2</ele>
        <time>2020-06-21T08:26:58Z</time>
      </trkpt>
      <trkpt lat="49.45902" lon="0.97603">
        <ele>126.2</ele>
        <time>2020-06-21T08:26:59Z</time>
      </trkpt>
      <trkpt lat="49.45905" lon="0.97599">
        <ele>126.2</ele>
        <time>2020-06-21T08:27:01Z</time>
      </trkpt>
      <trkpt lat="49.45907" lon="0.97595">
        <ele>126.1</ele>
        <time>2020-06-21T08:27:03Z</time>
      </trkpt>
      <trkpt lat="49.45909" lon="0.97593">
        <ele>126.1</ele>
        <time>2020-06-21T08:27:05Z</time>
      </trkpt>
      <trkpt lat="49.45909" lon="0.97592">
        <ele>126.1</ele>
        <time>2020-06-21T08:27:06Z</time>
      </trkpt>
      <trkpt lat="49.4591" lon="0.97592">
        <ele>126.1</ele>
        <time>2020-06-21T08:27:08Z</time>
      </trkpt>
      <trkpt lat="49.4591" lon="0.97591">
        <ele>126.1</ele>
        <time>2020-06-21T08:27:09Z</time>
      </trkpt>
      <trkpt lat="49.45911" lon="0.9759">
        <ele>126.1</ele>
        <time>2020-06-21T08:27:10Z</time>
      </trkpt>
      <trkpt lat="49.45912" lon="0.97589">
        <ele>126.1</ele>
        <time>2020-06-21T08:27:11Z</time>
      </trkpt>
      <trkpt lat="49.45913" lon="0.97587">
        <ele>126.1</ele>
        <time>2020-06-21T08:27:13Z</time>
      </trkpt>
      <trkpt lat="49.45916" lon="0.97585">
        <ele>126</ele>
        <time>2020-06-21T08:27:15Z</time>
      </trkpt>
      <trkpt lat="49.45917" lon="0.97584">
        <ele>126</ele>
        <time>2020-06-21T08:27:16Z</time>
      </trkpt>
      <trkpt lat="49.45919" lon="0.97583">
        <ele>126</ele>
        <time>2020-06-21T08:27:17Z</time>
      </trkpt>
      <trkpt lat="49.4592" lon="0.97583">
        <ele>126</ele>
        <time>2020-06-21T08:27:18Z</time>
      </trkpt>
      <trkpt lat="49.45922" lon="0.97584">
        <ele>126</ele>
        <time>2020-06-21T08:27:20Z</time>
      </trkpt>
      <trkpt lat="49.45922" lon="0.97585">
        <ele>126</ele>
        <time>2020-06-21T08:27:21Z</time>
      </trkpt>
      <trkpt lat="49.45922" lon="0.97584">
        <ele>126</ele>
        <time>2020-06-21T08:27:22Z</time>
      </trkpt>
      <trkpt lat="49.45922" lon="0.97584">
        <ele>126</ele>
        <time>2020-06-21T08:27:24Z</time>
      </trkpt>
      <trkpt lat="49.45921" lon="0.97583">
        <ele>125.9</ele>
        <time>2020-06-21T08:27:25Z</time>
      </trkpt>
      <trkpt lat="49.45921" lon="0.97582">
        <ele>125.9</ele>
        <time>2020-06-21T08:27:27Z</time>
      </trkpt>
      <trkpt lat="49.45921" lon="0.97582">
        <ele>125.9</ele>
        <time>2020-06-21T08:27:28Z</time>
      </trkpt>
      <trkpt lat="49.4592" lon="0.97581">
        <ele>125.9</ele>
        <time>2020-06-21T08:27:29Z</time>
      </trkpt>
      <trkpt lat="49.4592" lon="0.9758">
        <ele>125.9</ele>
        <time>2020-06-21T08:27:30Z</time>
      </trkpt>
      <trkpt lat="49.45918" lon="0.97579">
        <ele>125.9</ele>
        <time>2020-06-21T08:27:32Z</time>
      </trkpt>
      <trkpt lat="49.45917" lon="0.97578">
        <ele>125.9</ele>
        <time>2020-06-21T08:27:33Z</time>
      </trkpt>
      <trkpt lat="49.45914" lon="0.97575">
        <ele>125.8</ele>
        <time>2020-06-21T08:27:35Z</time>
      </trkpt>
      <trkpt lat="49.45911" lon="0.97572">
        <ele>125</ele>
        <time>2020-06-21T08:27:36Z</time>
      </trkpt>
      <trkpt lat="49.45909" lon="0.97571">
        <ele>125</ele>
        <time>2020-06-21T08:27:37Z</time>
      </trkpt>
      <trkpt lat="49.45906" lon="0.97568">
        <ele>123.8</ele>
        <time>2020-06-21T08:27:38Z</time>
      </trkpt>
      <trkpt lat="49.45905" lon="0.97567">
        <ele>123.8</ele>
        <time>2020-06-21T08:27:39Z</time>
      </trkpt>
      <trkpt lat="49.45902" lon="0.97564">
        <ele>123.3</ele>
        <time>2020-06-21T08:27:41Z</time>
      </trkpt>
      <trkpt lat="49.45898" lon="0.97562">
        <ele>122.5</ele>
        <time>2020-06-21T08:27:43Z</time>
      </trkpt>
      <trkpt lat="49.45895" lon="0.97561">
        <ele>122.5</ele>
        <time>2020-06-21T08:27:44Z</time>
      </trkpt>
      <trkpt lat="49.45891" lon="0.9756">
        <ele>122</ele>
        <time>2020-06-21T08:27:46Z</time>
      </trkpt>
      <trkpt lat="49.45886" lon="0.9756">
        <ele>121.8</ele>
        <time>2020-06-21T08:27:48Z</time>
      </trkpt>
      <trkpt lat="49.45884" lon="0.97558">
        <ele>121.7</ele>
        <time>2020-06-21T08:27:49Z</time>
      </trkpt>
      <trkpt lat="49.45882" lon="0.97556">
        <ele>121.6</ele>
        <time>2020-06-21T08:27:50Z</time>
      </trkpt>
      <trkpt lat="49.45878" lon="0.97552">
        <ele>121.6</ele>
        <time>2020-06-21T08:27:52Z</time>
      </trkpt>
      <trkpt lat="49.45875" lon="0.97549">
        <ele>121.7</ele>
        <time>2020-06-21T08:27:53Z</time>
      </trkpt>
      <trkpt lat="49.45874" lon="0.97548">
        <ele>121.7</ele>
        <time>2020-06-21T08:27:54Z</time>
      </trkpt>
      <trkpt lat="49.45871" lon="0.97544">
        <ele>121.8</ele>
        <time>2020-06-21T08:27:56Z</time>
      </trkpt>
      <trkpt lat="49.45868" lon="0.97538">
        <ele>121.9</ele>
        <time>2020-06-21T08:27:57Z</time>
      </trkpt>
      <trkpt lat="49.45866" lon="0.97535">
        <ele>122</ele>
        <time>2020-06-21T08:27:58Z</time>
      </trkpt>
      <trkpt lat="49.45865" lon="0.97533">
        <ele>122</ele>
        <time>2020-06-21T08:28:00Z</time>
      </trkpt>
      <trkpt lat="49.45864" lon="0.97531">
        <ele>122</ele>
        <time>2020-06-21T08:28:01Z</time>
      </trkpt>
      <trkpt lat="49.45863" lon="0.9753">
        <ele>122.1</ele>
        <time>2020-06-21T08:28:02Z</time>
      </trkpt>
      <trkpt lat="49.45862" lon="0.97528">
        <ele>122.1</ele>
        <time>2020-06-21T08:28:04Z</time>
      </trkpt>
      <trkpt lat="49.45858" lon="0.97524">
        <ele>122.3</ele>
        <time>2020-06-21T08:28:05Z</time>
      </trkpt>
      <trkpt lat="49.45853" lon="0.97516">
        <ele>122.4</ele>
        <time>2020-06-21T08:28:07Z</time>
      </trkpt>
      <trkpt lat="49.4585" lon="0.97514">
        <ele>122.4</ele>
        <time>2020-06-21T08:28:09Z</time>
      </trkpt>
      <trkpt lat="49.45847" lon="0.97513">
        <ele>122.4</ele>
        <time>2020-06-21T08:28:10Z</time>
      </trkpt>
      <trkpt lat="49.45842" lon="0.97514">
        <ele>122.4</ele>
        <time>2020-06-21T08:28:12Z</time>
      </trkpt>
      <trkpt lat="49.45839" lon="0.97515">
        <ele>122.3</ele>
        <time>2020-06-21T08:28:14Z</time>
      </trkpt>
      <trkpt lat="49.45835" lon="0.97515">
        <ele>122.3</ele>
        <time>2020-06-21T08:28:15Z</time>
      </trkpt>
      <trkpt lat="49.45831" lon="0.97514">
        <ele>122.2</ele>
        <time>2020-06-21T08:28:17Z</time>
      </trkpt>
      <trkpt lat="49.45828" lon="0.97515">
        <ele>122</ele>
        <time>2020-06-21T08:28:18Z</time>
      </trkpt>
      <trkpt lat="49.45825" lon="0.97515">
        <ele>121.9</ele>
        <time>2020-06-21T08:28:19Z</time>
      </trkpt>
      <trkpt lat="49.4582" lon="0.97515">
        <ele>121.8</ele>
        <time>2020-06-21T08:28:20Z</time>
      </trkpt>
      <trkpt lat="49.45799" lon="0.97523">
        <ele>121.1</ele>
        <time>2020-06-21T08:28:21Z</time>
      </trkpt>
      <trkpt lat="49.45795" lon="0.97524">
        <ele>120.9</ele>
        <time>2020-06-21T08:28:22Z</time>
      </trkpt>
      <trkpt lat="49.45792" lon="0.97526">
        <ele>121</ele>
        <time>2020-06-21T08:28:23Z</time>
      </trkpt>
      <trkpt lat="49.45783" lon="0.97528">
        <ele>120.1</ele>
        <time>2020-06-21T08:28:25Z</time>
      </trkpt>
      <trkpt lat="49.45776" lon="0.97529">
        <ele>119.5</ele>
        <time>2020-06-21T08:28:27Z</time>
      </trkpt>
      <trkpt lat="49.45772" lon="0.97529">
        <ele>118.8</ele>
        <time>2020-06-21T08:28:28Z</time>
      </trkpt>
      <trkpt lat="49.45768" lon="0.97528">
        <ele>118.5</ele>
        <time>2020-06-21T08:28:30Z</time>
      </trkpt>
      <trkpt lat="49.45766" lon="0.97526">
        <ele>118.2</ele>
        <time>2020-06-21T08:28:31Z</time>
      </trkpt>
      <trkpt lat="49.45762" lon="0.97522">
        <ele>117.4</ele>
        <time>2020-06-21T08:28:33Z</time>
      </trkpt>
      <trkpt lat="49.45759" lon="0.9752">
        <ele>116.6</ele>
        <time>2020-06-21T08:28:34Z</time>
      </trkpt>
      <trkpt lat="49.45747" lon="0.97509">
        <ele>113.9</ele>
        <time>2020-06-21T08:28:35Z</time>
      </trkpt>
      <trkpt lat="49.45739" lon="0.97503">
        <ele>111.4</ele>
        <time>2020-06-21T08:28:37Z</time>
      </trkpt>
      <trkpt lat="49.45734" lon="0.97501">
        <ele>110.5</ele>
        <time>2020-06-21T08:28:38Z</time>
      </trkpt>
      <trkpt lat="49.4573" lon="0.97499">
        <ele>109.1</ele>
        <time>2020-06-21T08:28:39Z</time>
      </trkpt>
      <trkpt lat="49.45726" lon="0.97498">
        <ele>108.7</ele>
        <time>2020-06-21T08:28:41Z</time>
      </trkpt>
      <trkpt lat="49.4572" lon="0.975">
        <ele>108.5</ele>
        <time>2020-06-21T08:28:43Z</time>
      </trkpt>
      <trkpt lat="49.45716" lon="0.975">
        <ele>108.2</ele>
        <time>2020-06-21T08:28:44Z</time>
      </trkpt>
      <trkpt lat="49.45713" lon="0.975">
        <ele>107.5</ele>
        <time>2020-06-21T08:28:46Z</time>
      </trkpt>
      <trkpt lat="49.45711" lon="0.97498">
        <ele>106.5</ele>
        <time>2020-06-21T08:28:47Z</time>
      </trkpt>
      <trkpt lat="49.45709" lon="0.97496">
        <ele>106.5</ele>
        <time>2020-06-21T08:28:48Z</time>
      </trkpt>
      <trkpt lat="49.45707" lon="0.97496">
        <ele>106.2</ele>
        <time>2020-06-21T08:28:50Z</time>
      </trkpt>
      <trkpt lat="49.45706" lon="0.97495">
        <ele>105.6</ele>
        <time>2020-06-21T08:28:51Z</time>
      </trkpt>
      <trkpt lat="49.45705" lon="0.97493">
        <ele>105.2</ele>
        <time>2020-06-21T08:28:52Z</time>
      </trkpt>
      <trkpt lat="49.45703" lon="0.97488">
        <ele>104.6</ele>
        <time>2020-06-21T08:28:54Z</time>
      </trkpt>
      <trkpt lat="49.45703" lon="0.97486">
        <ele>104</ele>
        <time>2020-06-21T08:28:55Z</time>
      </trkpt>
      <trkpt lat="49.45702" lon="0.9748">
        <ele>103.1</ele>
        <time>2020-06-21T08:28:57Z</time>
      </trkpt>
      <trkpt lat="49.45701" lon="0.97471">
        <ele>101.9</ele>
        <time>2020-06-21T08:28:58Z</time>
      </trkpt>
      <trkpt lat="49.45702" lon="0.97465">
        <ele>100.8</ele>
        <time>2020-06-21T08:29:00Z</time>
      </trkpt>
      <trkpt lat="49.45702" lon="0.97459">
        <ele>100.3</ele>
        <time>2020-06-21T08:29:01Z</time>
      </trkpt>
      <trkpt lat="49.45702" lon="0.97452">
        <ele>99.9</ele>
        <time>2020-06-21T08:29:02Z</time>
      </trkpt>
      <trkpt lat="49.45703" lon="0.97446">
        <ele>99.7</ele>
        <time>2020-06-21T08:29:03Z</time>
      </trkpt>
      <trkpt lat="49.45703" lon="0.9744">
        <ele>99.3</ele>
        <time>2020-06-21T08:29:05Z</time>
      </trkpt>
      <trkpt lat="49.45703" lon="0.97435">
        <ele>98.7</ele>
        <time>2020-06-21T08:29:06Z</time>
      </trkpt>
      <trkpt lat="49.45703" lon="0.97422">
        <ele>97.9</ele>
        <time>2020-06-21T08:29:08Z</time>
      </trkpt>
      <trkpt lat="49.45703" lon="0.97418">
        <ele>97.1</ele>
        <time>2020-06-21T08:29:09Z</time>
      </trkpt>
      <trkpt lat="49.45704" lon="0.97412">
        <ele>96.8</ele>
        <time>2020-06-21T08:29:11Z</time>
      </trkpt>
      <trkpt lat="49.45703" lon="0.97408">
        <ele>96.4</ele>
        <time>2020-06-21T08:29:12Z</time>
      </trkpt>
      <trkpt lat="49.45702" lon="0.97403">
        <ele>96.2</ele>
        <time>2020-06-21T08:29:13Z</time>
      </trkpt>
      <trkpt lat="49.457" lon="0.97397">
        <ele>95.2</ele>
        <time>2020-06-21T08:29:15Z</time>
      </trkpt>
      <trkpt lat="49.45698" lon="0.97393">
        <ele>94.3</ele>
        <time>2020-06-21T08:29:16Z</time>
      </trkpt>
      <trkpt lat="49.45695" lon="0.97389">
        <ele>93.4</ele>
        <time>2020-06-21T08:29:18Z</time>
      </trkpt>
      <trkpt lat="49.45693" lon="0.97386">
        <ele>92.4</ele>
        <time>2020-06-21T08:29:19Z</time>
      </trkpt>
      <trkpt lat="49.4569" lon="0.97384">
        <ele>91.7</ele>
        <time>2020-06-21T08:29:20Z</time>
      </trkpt>
      <trkpt lat="49.45686" lon="0.97382">
        <ele>90.8</ele>
        <time>2020-06-21T08:29:21Z</time>
      </trkpt>
      <trkpt lat="49.45683" lon="0.97382">
        <ele>89.7</ele>
        <time>2020-06-21T08:29:23Z</time>
      </trkpt>
      <trkpt lat="49.45679" lon="0.97381">
        <ele>89.2</ele>
        <time>2020-06-21T08:29:24Z</time>
      </trkpt>
      <trkpt lat="49.45675" lon="0.97382">
        <ele>88.7</ele>
        <time>2020-06-21T08:29:25Z</time>
      </trkpt>
      <trkpt lat="49.4567" lon="0.97381">
        <ele>87.7</ele>
        <time>2020-06-21T08:29:26Z</time>
      </trkpt>
      <trkpt lat="49.45663" lon="0.9738">
        <ele>86.5</ele>
        <time>2020-06-21T08:29:28Z</time>
      </trkpt>
      <trkpt lat="49.45655" lon="0.97379">
        <ele>85.4</ele>
        <time>2020-06-21T08:29:29Z</time>
      </trkpt>
      <trkpt lat="49.4565" lon="0.97379">
        <ele>85</ele>
        <time>2020-06-21T08:29:30Z</time>
      </trkpt>
      <trkpt lat="49.45645" lon="0.97378">
        <ele>84.6</ele>
        <time>2020-06-21T08:29:31Z</time>
      </trkpt>
      <trkpt lat="49.45641" lon="0.97378">
        <ele>84.4</ele>
        <time>2020-06-21T08:29:32Z</time>
      </trkpt>
      <trkpt lat="49.45637" lon="0.97378">
        <ele>84.1</ele>
        <time>2020-06-21T08:29:33Z</time>
      </trkpt>
      <trkpt lat="49.45629" lon="0.97378">
        <ele>84</ele>
        <time>2020-06-21T08:29:35Z</time>
      </trkpt>
      <trkpt lat="49.45626" lon="0.97377">
        <ele>84</ele>
        <time>2020-06-21T08:29:36Z</time>
      </trkpt>
      <trkpt lat="49.45622" lon="0.97376">
        <ele>84</ele>
        <time>2020-06-21T08:29:37Z</time>
      </trkpt>
      <trkpt lat="49.45617" lon="0.97375">
        <ele>84.1</ele>
        <time>2020-06-21T08:29:38Z</time>
      </trkpt>
      <trkpt lat="49.45608" lon="0.97373">
        <ele>83.6</ele>
        <time>2020-06-21T08:29:39Z</time>
      </trkpt>
      <trkpt lat="49.456" lon="0.97371">
        <ele>83.9</ele>
        <time>2020-06-21T08:29:41Z</time>
      </trkpt>
      <trkpt lat="49.45594" lon="0.97368">
        <ele>83.5</ele>
        <time>2020-06-21T08:29:42Z</time>
      </trkpt>
      <trkpt lat="49.45588" lon="0.97364">
        <ele>83</ele>
        <time>2020-06-21T08:29:44Z</time>
      </trkpt>
      <trkpt lat="49.45584" lon="0.9736">
        <ele>82.3</ele>
        <time>2020-06-21T08:29:45Z</time>
      </trkpt>
      <trkpt lat="49.45577" lon="0.97354">
        <ele>81.5</ele>
        <time>2020-06-21T08:29:47Z</time>
      </trkpt>
      <trkpt lat="49.45571" lon="0.9735">
        <ele>80.6</ele>
        <time>2020-06-21T08:29:48Z</time>
      </trkpt>
      <trkpt lat="49.45566" lon="0.97347">
        <ele>79.6</ele>
        <time>2020-06-21T08:29:49Z</time>
      </trkpt>
      <trkpt lat="49.4556" lon="0.97343">
        <ele>78.3</ele>
        <time>2020-06-21T08:29:50Z</time>
      </trkpt>
      <trkpt lat="49.45553" lon="0.97338">
        <ele>76.5</ele>
        <time>2020-06-21T08:29:51Z</time>
      </trkpt>
      <trkpt lat="49.45548" lon="0.97333">
        <ele>74.6</ele>
        <time>2020-06-21T08:29:53Z</time>
      </trkpt>
      <trkpt lat="49.45545" lon="0.97327">
        <ele>72</ele>
        <time>2020-06-21T08:29:54Z</time>
      </trkpt>
      <trkpt lat="49.45542" lon="0.97321">
        <ele>70.5</ele>
        <time>2020-06-21T08:29:56Z</time>
      </trkpt>
      <trkpt lat="49.45539" lon="0.97315">
        <ele>68.1</ele>
        <time>2020-06-21T08:29:58Z</time>
      </trkpt>
      <trkpt lat="49.45535" lon="0.97313">
        <ele>67.1</ele>
        <time>2020-06-21T08:29:59Z</time>
      </trkpt>
      <trkpt lat="49.45529" lon="0.97311">
        <ele>64.6</ele>
        <time>2020-06-21T08:30:00Z</time>
      </trkpt>
      <trkpt lat="49.45524" lon="0.9731">
        <ele>63.8</ele>
        <time>2020-06-21T08:30:02Z</time>
      </trkpt>
      <trkpt lat="49.4552" lon="0.97309">
        <ele>62.1</ele>
        <time>2020-06-21T08:30:03Z</time>
      </trkpt>
      <trkpt lat="49.45516" lon="0.97308">
        <ele>61.3</ele>
        <time>2020-06-21T08:30:04Z</time>
      </trkpt>
      <trkpt lat="49.45512" lon="0.97308">
        <ele>59.5</ele>
        <time>2020-06-21T08:30:05Z</time>
      </trkpt>
      <trkpt lat="49.45507" lon="0.97308">
        <ele>58.6</ele>
        <time>2020-06-21T08:30:06Z</time>
      </trkpt>
      <trkpt lat="49.45503" lon="0.97307">
        <ele>56.6</ele>
        <time>2020-06-21T08:30:08Z</time>
      </trkpt>
      <trkpt lat="49.45499" lon="0.97307">
        <ele>55.5</ele>
        <time>2020-06-21T08:30:09Z</time>
      </trkpt>
      <trkpt lat="49.45495" lon="0.97305">
        <ele>52.2</ele>
        <time>2020-06-21T08:30:10Z</time>
      </trkpt>
      <trkpt lat="49.45491" lon="0.97304">
        <ele>51.1</ele>
        <time>2020-06-21T08:30:12Z</time>
      </trkpt>
      <trkpt lat="49.45488" lon="0.97302">
        <ele>48.9</ele>
        <time>2020-06-21T08:30:13Z</time>
      </trkpt>
      <trkpt lat="49.45485" lon="0.97299">
        <ele>47</ele>
        <time>2020-06-21T08:30:14Z</time>
      </trkpt>
      <trkpt lat="49.4548" lon="0.97295">
        <ele>45</ele>
        <time>2020-06-21T08:30:16Z</time>
      </trkpt>
      <trkpt lat="49.45479" lon="0.97293">
        <ele>43.9</ele>
        <time>2020-06-21T08:30:17Z</time>
      </trkpt>
      <trkpt lat="49.45478" lon="0.97289">
        <ele>41.8</ele>
        <time>2020-06-21T08:30:19Z</time>
      </trkpt>
      <trkpt lat="49.45478" lon="0.97288">
        <ele>41.8</ele>
        <time>2020-06-21T08:30:20Z</time>
      </trkpt>
      <trkpt lat="49.45477" lon="0.97287">
        <ele>41.8</ele>
        <time>2020-06-21T08:30:22Z</time>
      </trkpt>
      <trkpt lat="49.45477" lon="0.97286">
        <ele>41.8</ele>
        <time>2020-06-21T08:30:23Z</time>
      </trkpt>
      <trkpt lat="49.45477" lon="0.97285">
        <ele>41.8</ele>
        <time>2020-06-21T08:30:24Z</time>
      </trkpt>
      <trkpt lat="49.45476" lon="0.97284">
        <ele>39.7</ele>
        <time>2020-06-21T08:30:25Z</time>
      </trkpt>
      <trkpt lat="49.45476" lon="0.97284">
        <ele>39.7</ele>
        <time>2020-06-21T08:30:26Z</time>
      </trkpt>
      <trkpt lat="49.45477" lon="0.97284">
        <ele>40.7</ele>
        <time>2020-06-21T08:30:28Z</time>
      </trkpt>
      <trkpt lat="49.45477" lon="0.97284">
        <ele>40.7</ele>
        <time>2020-06-21T08:30:29Z</time>
      </trkpt>
      <trkpt lat="49.45478" lon="0.97284">
        <ele>40.7</ele>
        <time>2020-06-21T08:30:30Z</time>
      </trkpt>
      <trkpt lat="49.45478" lon="0.97282">
        <ele>40.7</ele>
        <time>2020-06-21T08:30:32Z</time>
      </trkpt>
      <trkpt lat="49.45479" lon="0.9728">
        <ele>39.6</ele>
        <time>2020-06-21T08:30:34Z</time>
      </trkpt>
      <trkpt lat="49.45479" lon="0.97278">
        <ele>39.6</ele>
        <time>2020-06-21T08:30:35Z</time>
      </trkpt>
      <trkpt lat="49.45478" lon="0.97278">
        <ele>39.6</ele>
        <time>2020-06-21T08:30:37Z</time>
      </trkpt>
      <trkpt lat="49.45477" lon="0.97277">
        <ele>39.6</ele>
        <time>2020-06-21T08:30:39Z</time>
      </trkpt>
      <trkpt lat="49.45477" lon="0.97276">
        <ele>38.5</ele>
        <time>2020-06-21T08:30:40Z</time>
      </trkpt>
      <trkpt lat="49.45476" lon="0.97275">
        <ele>37.5</ele>
        <time>2020-06-21T08:30:41Z</time>
      </trkpt>
      <trkpt lat="49.45475" lon="0.97274">
        <ele>37.5</ele>
        <time>2020-06-21T08:30:43Z</time>
      </trkpt>
      <trkpt lat="49.45475" lon="0.97274">
        <ele>37.5</ele>
        <time>2020-06-21T08:30:45Z</time>
      </trkpt>
      <trkpt lat="49.45474" lon="0.97273">
        <ele>37.5</ele>
        <time>2020-06-21T08:30:46Z</time>
      </trkpt>
      <trkpt lat="49.45473" lon="0.97272">
        <ele>36.5</ele>
        <time>2020-06-21T08:30:47Z</time>
      </trkpt>
      <trkpt lat="49.45472" lon="0.9727">
        <ele>35.5</ele>
        <time>2020-06-21T08:30:49Z</time>
      </trkpt>
      <trkpt lat="49.4547" lon="0.97268">
        <ele>33.5</ele>
        <time>2020-06-21T08:30:51Z</time>
      </trkpt>
      <trkpt lat="49.45469" lon="0.97267">
        <ele>33.5</ele>
        <time>2020-06-21T08:30:52Z</time>
      </trkpt>
      <trkpt lat="49.45468" lon="0.97266">
        <ele>32.6</ele>
        <time>2020-06-21T08:30:53Z</time>
      </trkpt>
      <trkpt lat="49.45467" lon="0.97265">
        <ele>32.6</ele>
        <time>2020-06-21T08:30:54Z</time>
      </trkpt>
      <trkpt lat="49.45466" lon="0.97264">
        <ele>32.5</ele>
        <time>2020-06-21T08:30:56Z</time>
      </trkpt>
      <trkpt lat="49.45464" lon="0.97264">
        <ele>31.7</ele>
        <time>2020-06-21T08:30:58Z</time>
      </trkpt>
      <trkpt lat="49.45461" lon="0.97263">
        <ele>30</ele>
        <time>2020-06-21T08:30:59Z</time>
      </trkpt>
      <trkpt lat="49.45459" lon="0.97263">
        <ele>29.3</ele>
        <time>2020-06-21T08:31:00Z</time>
      </trkpt>
      <trkpt lat="49.45457" lon="0.97262">
        <ele>28.6</ele>
        <time>2020-06-21T08:31:02Z</time>
      </trkpt>
      <trkpt lat="49.45454" lon="0.97262">
        <ele>28</ele>
        <time>2020-06-21T08:31:03Z</time>
      </trkpt>
      <trkpt lat="49.45451" lon="0.97262">
        <ele>27.4</ele>
        <time>2020-06-21T08:31:04Z</time>
      </trkpt>
      <trkpt lat="49.45449" lon="0.97261">
        <ele>27.3</ele>
        <time>2020-06-21T08:31:06Z</time>
      </trkpt>
      <trkpt lat="49.45448" lon="0.97261">
        <ele>26.7</ele>
        <time>2020-06-21T08:31:07Z</time>
      </trkpt>
      <trkpt lat="49.45447" lon="0.9726">
        <ele>26.7</ele>
        <time>2020-06-21T08:31:08Z</time>
      </trkpt>
      <trkpt lat="49.45446" lon="0.97259">
        <ele>25.4</ele>
        <time>2020-06-21T08:31:10Z</time>
      </trkpt>
      <trkpt lat="49.45445" lon="0.97259">
        <ele>25.4</ele>
        <time>2020-06-21T08:31:11Z</time>
      </trkpt>
      <trkpt lat="49.45445" lon="0.97259">
        <ele>25.4</ele>
        <time>2020-06-21T08:31:12Z</time>
      </trkpt>
      <trkpt lat="49.45444" lon="0.97259">
        <ele>25.3</ele>
        <time>2020-06-21T08:31:13Z</time>
      </trkpt>
      <trkpt lat="49.45443" lon="0.97259">
        <ele>25.3</ele>
        <time>2020-06-21T08:31:15Z</time>
      </trkpt>
      <trkpt lat="49.45443" lon="0.97258">
        <ele>25.3</ele>
        <time>2020-06-21T08:31:17Z</time>
      </trkpt>
      <trkpt lat="49.45443" lon="0.97258">
        <ele>25.3</ele>
        <time>2020-06-21T08:31:18Z</time>
      </trkpt>
      <trkpt lat="49.45443" lon="0.97257">
        <ele>25.3</ele>
        <time>2020-06-21T08:31:19Z</time>
      </trkpt>
      <trkpt lat="49.45443" lon="0.97257">
        <ele>25.3</ele>
        <time>2020-06-21T08:31:20Z</time>
      </trkpt>
      <trkpt lat="49.45443" lon="0.97257">
        <ele>25.3</ele>
        <time>2020-06-21T08:31:21Z</time>
      </trkpt>
      <trkpt lat="49.45443" lon="0.97257">
        <ele>25.3</ele>
        <time>2020-06-21T08:31:22Z</time>
      </trkpt>
      <trkpt lat="49.45443" lon="0.97257">
        <ele>24.8</ele>
        <time>2020-06-21T08:31:23Z</time>
      </trkpt>
      <trkpt lat="49.45443" lon="0.97256">
        <ele>24.8</ele>
        <time>2020-06-21T08:31:25Z</time>
      </trkpt>
      <trkpt lat="49.45442" lon="0.97255">
        <ele>24.7</ele>
        <time>2020-06-21T08:31:27Z</time>
      </trkpt>
      <trkpt lat="49.45444" lon="0.97253">
        <ele>24.5</ele>
        <time>2020-06-21T08:31:29Z</time>
      </trkpt>
      <trkpt lat="49.45446" lon="0.9725">
        <ele>24.2</ele>
        <time>2020-06-21T08:31:30Z</time>
      </trkpt>
      <trkpt lat="49.45449" lon="0.97246">
        <ele>24</ele>
        <time>2020-06-21T08:31:32Z</time>
      </trkpt>
      <trkpt lat="49.4545" lon="0.97245">
        <ele>24</ele>
        <time>2020-06-21T08:31:33Z</time>
      </trkpt>
      <trkpt lat="49.45452" lon="0.97245">
        <ele>24.5</ele>
        <time>2020-06-21T08:31:34Z</time>
      </trkpt>
      <trkpt lat="49.45453" lon="0.97245">
        <ele>24.5</ele>
        <time>2020-06-21T08:31:35Z</time>
      </trkpt>
      <trkpt lat="49.45453" lon="0.97245">
        <ele>24.5</ele>
        <time>2020-06-21T08:31:36Z</time>
      </trkpt>
      <trkpt lat="49.45454" lon="0.97244">
        <ele>24.5</ele>
        <time>2020-06-21T08:31:37Z</time>
      </trkpt>
      <trkpt lat="49.45454" lon="0.97241">
        <ele>23.7</ele>
        <time>2020-06-21T08:31:39Z</time>
      </trkpt>
      <trkpt lat="49.45454" lon="0.97238">
        <ele>23.7</ele>
        <time>2020-06-21T08:31:41Z</time>
      </trkpt>
      <trkpt lat="49.45454" lon="0.97236">
        <ele>23.5</ele>
        <time>2020-06-21T08:31:42Z</time>
      </trkpt>
      <trkpt lat="49.45455" lon="0.97231">
        <ele>22.9</ele>
        <time>2020-06-21T08:31:43Z</time>
      </trkpt>
      <trkpt lat="49.45456" lon="0.97229">
        <ele>22.8</ele>
        <time>2020-06-21T08:31:44Z</time>
      </trkpt>
      <trkpt lat="49.45458" lon="0.97222">
        <ele>22.1</ele>
        <time>2020-06-21T08:31:46Z</time>
      </trkpt>
      <trkpt lat="49.45461" lon="0.97215">
        <ele>21.6</ele>
        <time>2020-06-21T08:31:47Z</time>
      </trkpt>
      <trkpt lat="49.45463" lon="0.97208">
        <ele>21.5</ele>
        <time>2020-06-21T08:31:49Z</time>
      </trkpt>
      <trkpt lat="49.45465" lon="0.97198">
        <ele>20.4</ele>
        <time>2020-06-21T08:31:51Z</time>
      </trkpt>
      <trkpt lat="49.45466" lon="0.97192">
        <ele>20.3</ele>
        <time>2020-06-21T08:31:52Z</time>
      </trkpt>
      <trkpt lat="49.45468" lon="0.97187">
        <ele>20</ele>
        <time>2020-06-21T08:31:54Z</time>
      </trkpt>
      <trkpt lat="49.45468" lon="0.9718">
        <ele>19.7</ele>
        <time>2020-06-21T08:31:55Z</time>
      </trkpt>
      <trkpt lat="49.45467" lon="0.97174">
        <ele>19.3</ele>
        <time>2020-06-21T08:31:57Z</time>
      </trkpt>
      <trkpt lat="49.45466" lon="0.97169">
        <ele>19.1</ele>
        <time>2020-06-21T08:31:59Z</time>
      </trkpt>
      <trkpt lat="49.45466" lon="0.97167">
        <ele>19.1</ele>
        <time>2020-06-21T08:32:00Z</time>
      </trkpt>
      <trkpt lat="49.45465" lon="0.97166">
        <ele>19.1</ele>
        <time>2020-06-21T08:32:01Z</time>
      </trkpt>
      <trkpt lat="49.45464" lon="0.97167">
        <ele>19.1</ele>
        <time>2020-06-21T08:32:03Z</time>
      </trkpt>
      <trkpt lat="49.45464" lon="0.97166">
        <ele>19.1</ele>
        <time>2020-06-21T08:32:05Z</time>
      </trkpt>
      <trkpt lat="49.45464" lon="0.97166">
        <ele>19.1</ele>
        <time>2020-06-21T08:32:07Z</time>
      </trkpt>
      <trkpt lat="49.45464" lon="0.97166">
        <ele>19.1</ele>
        <time>2020-06-21T08:32:08Z</time>
      </trkpt>
      <trkpt lat="49.45464" lon="0.97166">
        <ele>19.1</ele>
        <time>2020-06-21T08:32:09Z</time>
      </trkpt>
      <trkpt lat="49.45465" lon="0.97166">
        <ele>19.1</ele>
        <time>2020-06-21T08:32:11Z</time>
      </trkpt>
      <trkpt lat="49.45464" lon="0.97166">
        <ele>19.1</ele>
        <time>2020-06-21T08:32:12Z</time>
      </trkpt>
      <trkpt lat="49.45464" lon="0.97165">
        <ele>19.1</ele>
        <time>2020-06-21T08:32:13Z</time>
      </trkpt>
      <trkpt lat="49.45464" lon="0.97166">
        <ele>19.1</ele>
        <time>2020-06-21T08:32:15Z</time>
      </trkpt>
      <trkpt lat="49.45464" lon="0.97166">
        <ele>19.1</ele>
        <time>2020-06-21T08:32:16Z</time>
      </trkpt>
      <trkpt lat="49.45464" lon="0.97166">
        <ele>19.2</ele>
        <time>2020-06-21T08:32:17Z</time>
      </trkpt>
      <trkpt lat="49.45464" lon="0.97165">
        <ele>19.2</ele>
        <time>2020-06-21T08:32:19Z</time>
      </trkpt>
      <trkpt lat="49.45463" lon="0.97165">
        <ele>19.2</ele>
        <time>2020-06-21T08:32:21Z</time>
      </trkpt>
      <trkpt lat="49.45462" lon="0.97165">
        <ele>19.2</ele>
        <time>2020-06-21T08:32:22Z</time>
      </trkpt>
      <trkpt lat="49.45462" lon="0.97166">
        <ele>19.2</ele>
        <time>2020-06-21T08:32:23Z</time>
      </trkpt>
      <trkpt lat="49.45463" lon="0.97168">
        <ele>19.2</ele>
        <time>2020-06-21T08:32:25Z</time>
      </trkpt>
      <trkpt lat="49.45465" lon="0.97169">
        <ele>19.3</ele>
        <time>2020-06-21T08:32:26Z</time>
      </trkpt>
      <trkpt lat="49.45466" lon="0.97169">
        <ele>19.3</ele>
        <time>2020-06-21T08:32:27Z</time>
      </trkpt>
      <trkpt lat="49.45467" lon="0.97169">
        <ele>19.3</ele>
        <time>2020-06-21T08:32:29Z</time>
      </trkpt>
      <trkpt lat="49.45469" lon="0.97169">
        <ele>19.4</ele>
        <time>2020-06-21T08:32:30Z</time>
      </trkpt>
      <trkpt lat="49.4547" lon="0.9717">
        <ele>19.4</ele>
        <time>2020-06-21T08:32:32Z</time>
      </trkpt>
      <trkpt lat="49.45471" lon="0.97171">
        <ele>19.4</ele>
        <time>2020-06-21T08:32:33Z</time>
      </trkpt>
      <trkpt lat="49.45472" lon="0.97171">
        <ele>19.5</ele>
        <time>2020-06-21T08:32:35Z</time>
      </trkpt>
      <trkpt lat="49.45473" lon="0.97171">
        <ele>19.5</ele>
        <time>2020-06-21T08:32:36Z</time>
      </trkpt>
      <trkpt lat="49.45474" lon="0.97169">
        <ele>19.6</ele>
        <time>2020-06-21T08:32:38Z</time>
      </trkpt>
      <trkpt lat="49.45476" lon="0.97167">
        <ele>19.6</ele>
        <time>2020-06-21T08:32:40Z</time>
      </trkpt>
      <trkpt lat="49.45477" lon="0.97163">
        <ele>19.7</ele>
        <time>2020-06-21T08:32:41Z</time>
      </trkpt>
      <trkpt lat="49.45479" lon="0.97161">
        <ele>19.8</ele>
        <time>2020-06-21T08:32:43Z</time>
      </trkpt>
      <trkpt lat="49.45481" lon="0.97159">
        <ele>19.9</ele>
        <time>2020-06-21T08:32:45Z</time>
      </trkpt>
      <trkpt lat="49.45483" lon="0.97155">
        <ele>20.1</ele>
        <time>2020-06-21T08:32:47Z</time>
      </trkpt>
      <trkpt lat="49.45484" lon="0.97153">
        <ele>20.1</ele>
        <time>2020-06-21T08:32:48Z</time>
      </trkpt>
      <trkpt lat="49.45486" lon="0.9715">
        <ele>20.3</ele>
        <time>2020-06-21T08:32:50Z</time>
      </trkpt>
      <trkpt lat="49.45489" lon="0.97147">
        <ele>20.4</ele>
        <time>2020-06-21T08:32:52Z</time>
      </trkpt>
      <trkpt lat="49.45491" lon="0.97144">
        <ele>20.5</ele>
        <time>2020-06-21T08:32:54Z</time>
      </trkpt>
      <trkpt lat="49.45492" lon="0.97143">
        <ele>20.6</ele>
        <time>2020-06-21T08:32:55Z</time>
      </trkpt>
      <trkpt lat="49.455" lon="0.97134">
        <ele>21</ele>
        <time>2020-06-21T08:32:57Z</time>
      </trkpt>
      <trkpt lat="49.45504" lon="0.9713">
        <ele>21.2</ele>
        <time>2020-06-21T08:32:58Z</time>
      </trkpt>
      <trkpt lat="49.45509" lon="0.97125">
        <ele>21.4</ele>
        <time>2020-06-21T08:33:00Z</time>
      </trkpt>
      <trkpt lat="49.45505" lon="0.97131">
        <ele>21.6</ele>
        <time>2020-06-21T08:33:01Z</time>
      </trkpt>
      <trkpt lat="49.45506" lon="0.97132">
        <ele>21.6</ele>
        <time>2020-06-21T08:33:03Z</time>
      </trkpt>
      <trkpt lat="49.45506" lon="0.97131">
        <ele>21.6</ele>
        <time>2020-06-21T08:33:04Z</time>
      </trkpt>
      <trkpt lat="49.45508" lon="0.9713">
        <ele>21.7</ele>
        <time>2020-06-21T08:33:05Z</time>
      </trkpt>
      <trkpt lat="49.45511" lon="0.97127">
        <ele>21.8</ele>
        <time>2020-06-21T08:33:07Z</time>
      </trkpt>
      <trkpt lat="49.45513" lon="0.97125">
        <ele>21.9</ele>
        <time>2020-06-21T08:33:08Z</time>
      </trkpt>
      <trkpt lat="49.45515" lon="0.97124">
        <ele>21.9</ele>
        <time>2020-06-21T08:33:09Z</time>
      </trkpt>
      <trkpt lat="49.45519" lon="0.9712">
        <ele>22</ele>
        <time>2020-06-21T08:33:11Z</time>
      </trkpt>
      <trkpt lat="49.45522" lon="0.97116">
        <ele>22.1</ele>
        <time>2020-06-21T08:33:12Z</time>
      </trkpt>
      <trkpt lat="49.45523" lon="0.97113">
        <ele>22.1</ele>
        <time>2020-06-21T08:33:13Z</time>
      </trkpt>
      <trkpt lat="49.45528" lon="0.97109">
        <ele>22.1</ele>
        <time>2020-06-21T08:33:15Z</time>
      </trkpt>
      <trkpt lat="49.4553" lon="0.97106">
        <ele>22.1</ele>
        <time>2020-06-21T08:33:16Z</time>
      </trkpt>
      <trkpt lat="49.45539" lon="0.97095">
        <ele>22</ele>
        <time>2020-06-21T08:33:18Z</time>
      </trkpt>
      <trkpt lat="49.45544" lon="0.9709">
        <ele>21.9</ele>
        <time>2020-06-21T08:33:19Z</time>
      </trkpt>
      <trkpt lat="49.45548" lon="0.97085">
        <ele>21.8</ele>
        <time>2020-06-21T08:33:20Z</time>
      </trkpt>
      <trkpt lat="49.45552" lon="0.97081">
        <ele>21.7</ele>
        <time>2020-06-21T08:33:22Z</time>
      </trkpt>
      <trkpt lat="49.45557" lon="0.97075">
        <ele>21.6</ele>
        <time>2020-06-21T08:33:24Z</time>
      </trkpt>
      <trkpt lat="49.4556" lon="0.97072">
        <ele>21.5</ele>
        <time>2020-06-21T08:33:25Z</time>
      </trkpt>
      <trkpt lat="49.45563" lon="0.97069">
        <ele>21.5</ele>
        <time>2020-06-21T08:33:26Z</time>
      </trkpt>
      <trkpt lat="49.45565" lon="0.97066">
        <ele>21.4</ele>
        <time>2020-06-21T08:33:27Z</time>
      </trkpt>
      <trkpt lat="49.45569" lon="0.97062">
        <ele>21.3</ele>
        <time>2020-06-21T08:33:29Z</time>
      </trkpt>
      <trkpt lat="49.45573" lon="0.97058">
        <ele>21.3</ele>
        <time>2020-06-21T08:33:30Z</time>
      </trkpt>
      <trkpt lat="49.45577" lon="0.97054">
        <ele>21.2</ele>
        <time>2020-06-21T08:33:31Z</time>
      </trkpt>
      <trkpt lat="49.45582" lon="0.97048">
        <ele>21.1</ele>
        <time>2020-06-21T08:33:32Z</time>
      </trkpt>
      <trkpt lat="49.45587" lon="0.97043">
        <ele>21.1</ele>
        <time>2020-06-21T08:33:34Z</time>
      </trkpt>
      <trkpt lat="49.45594" lon="0.97037">
        <ele>21</ele>
        <time>2020-06-21T08:33:36Z</time>
      </trkpt>
      <trkpt lat="49.45598" lon="0.97033">
        <ele>21</ele>
        <time>2020-06-21T08:33:37Z</time>
      </trkpt>
      <trkpt lat="49.45602" lon="0.9703">
        <ele>21</ele>
        <time>2020-06-21T08:33:38Z</time>
      </trkpt>
      <trkpt lat="49.45609" lon="0.97023">
        <ele>21</ele>
        <time>2020-06-21T08:33:40Z</time>
      </trkpt>
      <trkpt lat="49.45612" lon="0.9702">
        <ele>21</ele>
        <time>2020-06-21T08:33:41Z</time>
      </trkpt>
      <trkpt lat="49.45618" lon="0.97015">
        <ele>21</ele>
        <time>2020-06-21T08:33:43Z</time>
      </trkpt>
      <trkpt lat="49.45622" lon="0.97012">
        <ele>21</ele>
        <time>2020-06-21T08:33:44Z</time>
      </trkpt>
      <trkpt lat="49.45625" lon="0.97008">
        <ele>21.1</ele>
        <time>2020-06-21T08:33:45Z</time>
      </trkpt>
      <trkpt lat="49.4563" lon="0.97004">
        <ele>21.1</ele>
        <time>2020-06-21T08:33:46Z</time>
      </trkpt>
      <trkpt lat="49.45634" lon="0.97">
        <ele>21.2</ele>
        <time>2020-06-21T08:33:48Z</time>
      </trkpt>
      <trkpt lat="49.45639" lon="0.96995">
        <ele>21.3</ele>
        <time>2020-06-21T08:33:49Z</time>
      </trkpt>
      <trkpt lat="49.45646" lon="0.96988">
        <ele>21.3</ele>
        <time>2020-06-21T08:33:51Z</time>
      </trkpt>
      <trkpt lat="49.45649" lon="0.96986">
        <ele>21.4</ele>
        <time>2020-06-21T08:33:52Z</time>
      </trkpt>
      <trkpt lat="49.45653" lon="0.96982">
        <ele>21.4</ele>
        <time>2020-06-21T08:33:53Z</time>
      </trkpt>
      <trkpt lat="49.45658" lon="0.96975">
        <ele>21.5</ele>
        <time>2020-06-21T08:33:55Z</time>
      </trkpt>
      <trkpt lat="49.45662" lon="0.96972">
        <ele>21.6</ele>
        <time>2020-06-21T08:33:56Z</time>
      </trkpt>
      <trkpt lat="49.45666" lon="0.96967">
        <ele>21.6</ele>
        <time>2020-06-21T08:33:57Z</time>
      </trkpt>
      <trkpt lat="49.4567" lon="0.96963">
        <ele>21.7</ele>
        <time>2020-06-21T08:33:59Z</time>
      </trkpt>
      <trkpt lat="49.45673" lon="0.9696">
        <ele>21.8</ele>
        <time>2020-06-21T08:34:00Z</time>
      </trkpt>
      <trkpt lat="49.45676" lon="0.96957">
        <ele>21.8</ele>
        <time>2020-06-21T08:34:01Z</time>
      </trkpt>
      <trkpt lat="49.45681" lon="0.96951">
        <ele>21.9</ele>
        <time>2020-06-21T08:34:03Z</time>
      </trkpt>
      <trkpt lat="49.45684" lon="0.96948">
        <ele>22</ele>
        <time>2020-06-21T08:34:04Z</time>
      </trkpt>
      <trkpt lat="49.45686" lon="0.96945">
        <ele>22.1</ele>
        <time>2020-06-21T08:34:05Z</time>
      </trkpt>
      <trkpt lat="49.45691" lon="0.96942">
        <ele>22.2</ele>
        <time>2020-06-21T08:34:07Z</time>
      </trkpt>
      <trkpt lat="49.45698" lon="0.96936">
        <ele>22.4</ele>
        <time>2020-06-21T08:34:09Z</time>
      </trkpt>
      <trkpt lat="49.45702" lon="0.96932">
        <ele>22.5</ele>
        <time>2020-06-21T08:34:11Z</time>
      </trkpt>
      <trkpt lat="49.45705" lon="0.9693">
        <ele>22.6</ele>
        <time>2020-06-21T08:34:12Z</time>
      </trkpt>
      <trkpt lat="49.45708" lon="0.96927">
        <ele>22.7</ele>
        <time>2020-06-21T08:34:13Z</time>
      </trkpt>
      <trkpt lat="49.45711" lon="0.96925">
        <ele>22.7</ele>
        <time>2020-06-21T08:34:14Z</time>
      </trkpt>
      <trkpt lat="49.45716" lon="0.96921">
        <ele>22.8</ele>
        <time>2020-06-21T08:34:16Z</time>
      </trkpt>
      <trkpt lat="49.4572" lon="0.96917">
        <ele>22.9</ele>
        <time>2020-06-21T08:34:18Z</time>
      </trkpt>
      <trkpt lat="49.45722" lon="0.96915">
        <ele>22.9</ele>
        <time>2020-06-21T08:34:19Z</time>
      </trkpt>
      <trkpt lat="49.45726" lon="0.96911">
        <ele>23</ele>
        <time>2020-06-21T08:34:20Z</time>
      </trkpt>
      <trkpt lat="49.45729" lon="0.96909">
        <ele>23</ele>
        <time>2020-06-21T08:34:21Z</time>
      </trkpt>
      <trkpt lat="49.45732" lon="0.96907">
        <ele>23</ele>
        <time>2020-06-21T08:34:22Z</time>
      </trkpt>
      <trkpt lat="49.45736" lon="0.96904">
        <ele>23.1</ele>
        <time>2020-06-21T08:34:23Z</time>
      </trkpt>
      <trkpt lat="49.45739" lon="0.96901">
        <ele>23.1</ele>
        <time>2020-06-21T08:34:25Z</time>
      </trkpt>
      <trkpt lat="49.45743" lon="0.96897">
        <ele>23.1</ele>
        <time>2020-06-21T08:34:26Z</time>
      </trkpt>
      <trkpt lat="49.45747" lon="0.96891">
        <ele>23.2</ele>
        <time>2020-06-21T08:34:28Z</time>
      </trkpt>
      <trkpt lat="49.45751" lon="0.96889">
        <ele>23.2</ele>
        <time>2020-06-21T08:34:29Z</time>
      </trkpt>
      <trkpt lat="49.45755" lon="0.96886">
        <ele>23.3</ele>
        <time>2020-06-21T08:34:31Z</time>
      </trkpt>
      <trkpt lat="49.45759" lon="0.96884">
        <ele>23.3</ele>
        <time>2020-06-21T08:34:32Z</time>
      </trkpt>
      <trkpt lat="49.45763" lon="0.96881">
        <ele>23.4</ele>
        <time>2020-06-21T08:34:33Z</time>
      </trkpt>
      <trkpt lat="49.45769" lon="0.96877">
        <ele>23.5</ele>
        <time>2020-06-21T08:34:35Z</time>
      </trkpt>
      <trkpt lat="49.45772" lon="0.96875">
        <ele>23.5</ele>
        <time>2020-06-21T08:34:36Z</time>
      </trkpt>
      <trkpt lat="49.45775" lon="0.96872">
        <ele>23.5</ele>
        <time>2020-06-21T08:34:37Z</time>
      </trkpt>
      <trkpt lat="49.45778" lon="0.9687">
        <ele>23.6</ele>
        <time>2020-06-21T08:34:38Z</time>
      </trkpt>
      <trkpt lat="49.45782" lon="0.96868">
        <ele>23.6</ele>
        <time>2020-06-21T08:34:39Z</time>
      </trkpt>
      <trkpt lat="49.45786" lon="0.96865">
        <ele>23.6</ele>
        <time>2020-06-21T08:34:41Z</time>
      </trkpt>
      <trkpt lat="49.45789" lon="0.96863">
        <ele>23.7</ele>
        <time>2020-06-21T08:34:42Z</time>
      </trkpt>
      <trkpt lat="49.45792" lon="0.9686">
        <ele>23.7</ele>
        <time>2020-06-21T08:34:43Z</time>
      </trkpt>
      <trkpt lat="49.45798" lon="0.96856">
        <ele>23.8</ele>
        <time>2020-06-21T08:34:45Z</time>
      </trkpt>
      <trkpt lat="49.45803" lon="0.96852">
        <ele>23.9</ele>
        <time>2020-06-21T08:34:47Z</time>
      </trkpt>
      <trkpt lat="49.45807" lon="0.9685">
        <ele>24</ele>
        <time>2020-06-21T08:34:48Z</time>
      </trkpt>
      <trkpt lat="49.4581" lon="0.96848">
        <ele>24.1</ele>
        <time>2020-06-21T08:34:49Z</time>
      </trkpt>
      <trkpt lat="49.45815" lon="0.96844">
        <ele>24.2</ele>
        <time>2020-06-21T08:34:51Z</time>
      </trkpt>
      <trkpt lat="49.4582" lon="0.9684">
        <ele>24.3</ele>
        <time>2020-06-21T08:34:53Z</time>
      </trkpt>
      <trkpt lat="49.45825" lon="0.96837">
        <ele>24.4</ele>
        <time>2020-06-21T08:34:54Z</time>
      </trkpt>
      <trkpt lat="49.45828" lon="0.96835">
        <ele>24.5</ele>
        <time>2020-06-21T08:34:55Z</time>
      </trkpt>
      <trkpt lat="49.45831" lon="0.96832">
        <ele>24.6</ele>
        <time>2020-06-21T08:34:56Z</time>
      </trkpt>
      <trkpt lat="49.45836" lon="0.96829">
        <ele>24.7</ele>
        <time>2020-06-21T08:34:58Z</time>
      </trkpt>
      <trkpt lat="49.45838" lon="0.96827">
        <ele>24.7</ele>
        <time>2020-06-21T08:34:59Z</time>
      </trkpt>
      <trkpt lat="49.45843" lon="0.96824">
        <ele>24.9</ele>
        <time>2020-06-21T08:35:01Z</time>
      </trkpt>
      <trkpt lat="49.45845" lon="0.96823">
        <ele>24.9</ele>
        <time>2020-06-21T08:35:02Z</time>
      </trkpt>
      <trkpt lat="49.4585" lon="0.9682">
        <ele>25</ele>
        <time>2020-06-21T08:35:04Z</time>
      </trkpt>
      <trkpt lat="49.45853" lon="0.96818">
        <ele>25.1</ele>
        <time>2020-06-21T08:35:05Z</time>
      </trkpt>
      <trkpt lat="49.45856" lon="0.96816">
        <ele>25.2</ele>
        <time>2020-06-21T08:35:06Z</time>
      </trkpt>
      <trkpt lat="49.45861" lon="0.96814">
        <ele>25.3</ele>
        <time>2020-06-21T08:35:08Z</time>
      </trkpt>
      <trkpt lat="49.45864" lon="0.96812">
        <ele>25.4</ele>
        <time>2020-06-21T08:35:09Z</time>
      </trkpt>
      <trkpt lat="49.45869" lon="0.96809">
        <ele>25.5</ele>
        <time>2020-06-21T08:35:11Z</time>
      </trkpt>
      <trkpt lat="49.45872" lon="0.96807">
        <ele>25.6</ele>
        <time>2020-06-21T08:35:12Z</time>
      </trkpt>
      <trkpt lat="49.45875" lon="0.96805">
        <ele>25.6</ele>
        <time>2020-06-21T08:35:13Z</time>
      </trkpt>
      <trkpt lat="49.4588" lon="0.968">
        <ele>25.8</ele>
        <time>2020-06-21T08:35:15Z</time>
      </trkpt>
      <trkpt lat="49.45884" lon="0.96797">
        <ele>25.8</ele>
        <time>2020-06-21T08:35:16Z</time>
      </trkpt>
      <trkpt lat="49.45886" lon="0.96794">
        <ele>25.9</ele>
        <time>2020-06-21T08:35:17Z</time>
      </trkpt>
      <trkpt lat="49.45892" lon="0.9679">
        <ele>26</ele>
        <time>2020-06-21T08:35:19Z</time>
      </trkpt>
      <trkpt lat="49.45897" lon="0.96786">
        <ele>26.1</ele>
        <time>2020-06-21T08:35:21Z</time>
      </trkpt>
      <trkpt lat="49.45902" lon="0.96783">
        <ele>26.1</ele>
        <time>2020-06-21T08:35:23Z</time>
      </trkpt>
      <trkpt lat="49.45906" lon="0.96781">
        <ele>26.2</ele>
        <time>2020-06-21T08:35:24Z</time>
      </trkpt>
      <trkpt lat="49.45913" lon="0.96778">
        <ele>26.2</ele>
        <time>2020-06-21T08:35:26Z</time>
      </trkpt>
      <trkpt lat="49.45919" lon="0.96776">
        <ele>26.2</ele>
        <time>2020-06-21T08:35:28Z</time>
      </trkpt>
      <trkpt lat="49.45925" lon="0.96774">
        <ele>26.2</ele>
        <time>2020-06-21T08:35:30Z</time>
      </trkpt>
      <trkpt lat="49.45929" lon="0.96774">
        <ele>26.2</ele>
        <time>2020-06-21T08:35:31Z</time>
      </trkpt>
      <trkpt lat="49.45937" lon="0.96774">
        <ele>26.2</ele>
        <time>2020-06-21T08:35:33Z</time>
      </trkpt>
      <trkpt lat="49.45946" lon="0.96775">
        <ele>26.3</ele>
        <time>2020-06-21T08:35:35Z</time>
      </trkpt>
      <trkpt lat="49.4595" lon="0.96776">
        <ele>26.3</ele>
        <time>2020-06-21T08:35:36Z</time>
      </trkpt>
      <trkpt lat="49.45955" lon="0.96777">
        <ele>26.3</ele>
        <time>2020-06-21T08:35:37Z</time>
      </trkpt>
      <trkpt lat="49.4596" lon="0.96778">
        <ele>26.4</ele>
        <time>2020-06-21T08:35:39Z</time>
      </trkpt>
      <trkpt lat="49.45963" lon="0.9678">
        <ele>26.4</ele>
        <time>2020-06-21T08:35:40Z</time>
      </trkpt>
      <trkpt lat="49.45967" lon="0.96781">
        <ele>26.5</ele>
        <time>2020-06-21T08:35:41Z</time>
      </trkpt>
      <trkpt lat="49.45971" lon="0.96783">
        <ele>26.5</ele>
        <time>2020-06-21T08:35:43Z</time>
      </trkpt>
      <trkpt lat="49.45975" lon="0.96785">
        <ele>26.5</ele>
        <time>2020-06-21T08:35:44Z</time>
      </trkpt>
      <trkpt lat="49.45976" lon="0.96786">
        <ele>26.6</ele>
        <time>2020-06-21T08:35:45Z</time>
      </trkpt>
      <trkpt lat="49.45981" lon="0.96789">
        <ele>26.6</ele>
        <time>2020-06-21T08:35:47Z</time>
      </trkpt>
      <trkpt lat="49.45987" lon="0.96792">
        <ele>26.6</ele>
        <time>2020-06-21T08:35:49Z</time>
      </trkpt>
      <trkpt lat="49.4599" lon="0.96794">
        <ele>26.7</ele>
        <time>2020-06-21T08:35:50Z</time>
      </trkpt>
      <trkpt lat="49.45997" lon="0.96798">
        <ele>26.7</ele>
        <time>2020-06-21T08:35:52Z</time>
      </trkpt>
      <trkpt lat="49.46" lon="0.968">
        <ele>26.7</ele>
        <time>2020-06-21T08:35:53Z</time>
      </trkpt>
      <trkpt lat="49.46006" lon="0.96804">
        <ele>26.7</ele>
        <time>2020-06-21T08:35:55Z</time>
      </trkpt>
      <trkpt lat="49.46009" lon="0.96806">
        <ele>26.8</ele>
        <time>2020-06-21T08:35:56Z</time>
      </trkpt>
      <trkpt lat="49.46013" lon="0.96809">
        <ele>26.8</ele>
        <time>2020-06-21T08:35:57Z</time>
      </trkpt>
      <trkpt lat="49.46016" lon="0.96812">
        <ele>26.8</ele>
        <time>2020-06-21T08:35:58Z</time>
      </trkpt>
      <trkpt lat="49.46028" lon="0.9682">
        <ele>26.9</ele>
        <time>2020-06-21T08:36:00Z</time>
      </trkpt>
      <trkpt lat="49.46036" lon="0.96826">
        <ele>27</ele>
        <time>2020-06-21T08:36:02Z</time>
      </trkpt>
      <trkpt lat="49.46042" lon="0.9683">
        <ele>27</ele>
        <time>2020-06-21T08:36:04Z</time>
      </trkpt>
      <trkpt lat="49.46047" lon="0.96834">
        <ele>27</ele>
        <time>2020-06-21T08:36:06Z</time>
      </trkpt>
      <trkpt lat="49.4605" lon="0.96836">
        <ele>27.1</ele>
        <time>2020-06-21T08:36:07Z</time>
      </trkpt>
      <trkpt lat="49.46058" lon="0.96842">
        <ele>27.1</ele>
        <time>2020-06-21T08:36:09Z</time>
      </trkpt>
      <trkpt lat="49.46062" lon="0.96844">
        <ele>27.1</ele>
        <time>2020-06-21T08:36:10Z</time>
      </trkpt>
      <trkpt lat="49.46065" lon="0.96847">
        <ele>27.2</ele>
        <time>2020-06-21T08:36:11Z</time>
      </trkpt>
      <trkpt lat="49.46073" lon="0.96853">
        <ele>27.3</ele>
        <time>2020-06-21T08:36:13Z</time>
      </trkpt>
      <trkpt lat="49.4608" lon="0.96857">
        <ele>27.4</ele>
        <time>2020-06-21T08:36:15Z</time>
      </trkpt>
      <trkpt lat="49.46087" lon="0.96862">
        <ele>27.5</ele>
        <time>2020-06-21T08:36:17Z</time>
      </trkpt>
      <trkpt lat="49.46094" lon="0.96867">
        <ele>27.6</ele>
        <time>2020-06-21T08:36:19Z</time>
      </trkpt>
      <trkpt lat="49.46097" lon="0.96869">
        <ele>27.7</ele>
        <time>2020-06-21T08:36:20Z</time>
      </trkpt>
      <trkpt lat="49.46101" lon="0.96872">
        <ele>27.8</ele>
        <time>2020-06-21T08:36:21Z</time>
      </trkpt>
      <trkpt lat="49.46103" lon="0.96874">
        <ele>27.8</ele>
        <time>2020-06-21T08:36:22Z</time>
      </trkpt>
      <trkpt lat="49.46109" lon="0.96878">
        <ele>27.9</ele>
        <time>2020-06-21T08:36:24Z</time>
      </trkpt>
      <trkpt lat="49.46112" lon="0.9688">
        <ele>28</ele>
        <time>2020-06-21T08:36:25Z</time>
      </trkpt>
      <trkpt lat="49.46118" lon="0.96884">
        <ele>28.1</ele>
        <time>2020-06-21T08:36:27Z</time>
      </trkpt>
      <trkpt lat="49.46121" lon="0.96886">
        <ele>28.1</ele>
        <time>2020-06-21T08:36:28Z</time>
      </trkpt>
      <trkpt lat="49.46125" lon="0.9689">
        <ele>28.2</ele>
        <time>2020-06-21T08:36:30Z</time>
      </trkpt>
      <trkpt lat="49.46128" lon="0.96892">
        <ele>28.3</ele>
        <time>2020-06-21T08:36:31Z</time>
      </trkpt>
      <trkpt lat="49.46134" lon="0.96896">
        <ele>28.4</ele>
        <time>2020-06-21T08:36:33Z</time>
      </trkpt>
      <trkpt lat="49.4614" lon="0.969">
        <ele>28.4</ele>
        <time>2020-06-21T08:36:35Z</time>
      </trkpt>
      <trkpt lat="49.46145" lon="0.96904">
        <ele>28.5</ele>
        <time>2020-06-21T08:36:37Z</time>
      </trkpt>
      <trkpt lat="49.46149" lon="0.96907">
        <ele>28.6</ele>
        <time>2020-06-21T08:36:38Z</time>
      </trkpt>
      <trkpt lat="49.46152" lon="0.96909">
        <ele>28.7</ele>
        <time>2020-06-21T08:36:39Z</time>
      </trkpt>
      <trkpt lat="49.46155" lon="0.96911">
        <ele>28.8</ele>
        <time>2020-06-21T08:36:40Z</time>
      </trkpt>
      <trkpt lat="49.46162" lon="0.96915">
        <ele>28.9</ele>
        <time>2020-06-21T08:36:42Z</time>
      </trkpt>
      <trkpt lat="49.46164" lon="0.96916">
        <ele>29</ele>
        <time>2020-06-21T08:36:43Z</time>
      </trkpt>
      <trkpt lat="49.46167" lon="0.96918">
        <ele>29.1</ele>
        <time>2020-06-21T08:36:44Z</time>
      </trkpt>
      <trkpt lat="49.46172" lon="0.96921">
        <ele>29.2</ele>
        <time>2020-06-21T08:36:46Z</time>
      </trkpt>
      <trkpt lat="49.46176" lon="0.96923">
        <ele>29.3</ele>
        <time>2020-06-21T08:36:47Z</time>
      </trkpt>
      <trkpt lat="49.46178" lon="0.96925">
        <ele>29.4</ele>
        <time>2020-06-21T08:36:48Z</time>
      </trkpt>
      <trkpt lat="49.46185" lon="0.96929">
        <ele>29.5</ele>
        <time>2020-06-21T08:36:50Z</time>
      </trkpt>
      <trkpt lat="49.4619" lon="0.96932">
        <ele>29.6</ele>
        <time>2020-06-21T08:36:52Z</time>
      </trkpt>
      <trkpt lat="49.46194" lon="0.96936">
        <ele>29.6</ele>
        <time>2020-06-21T08:36:54Z</time>
      </trkpt>
      <trkpt lat="49.462" lon="0.9694">
        <ele>29.7</ele>
        <time>2020-06-21T08:36:56Z</time>
      </trkpt>
      <trkpt lat="49.46203" lon="0.96942">
        <ele>29.8</ele>
        <time>2020-06-21T08:36:57Z</time>
      </trkpt>
      <trkpt lat="49.46204" lon="0.96943">
        <ele>29.8</ele>
        <time>2020-06-21T08:36:58Z</time>
      </trkpt>
      <trkpt lat="49.46206" lon="0.96944">
        <ele>29.8</ele>
        <time>2020-06-21T08:36:59Z</time>
      </trkpt>
      <trkpt lat="49.46207" lon="0.96945">
        <ele>29.8</ele>
        <time>2020-06-21T08:37:00Z</time>
      </trkpt>
      <trkpt lat="49.46209" lon="0.96946">
        <ele>29.8</ele>
        <time>2020-06-21T08:37:02Z</time>
      </trkpt>
      <trkpt lat="49.46223" lon="0.96954">
        <ele>30</ele>
        <time>2020-06-21T08:37:04Z</time>
      </trkpt>
      <trkpt lat="49.46226" lon="0.96956">
        <ele>30.1</ele>
        <time>2020-06-21T08:37:05Z</time>
      </trkpt>
      <trkpt lat="49.4623" lon="0.96957">
        <ele>30.2</ele>
        <time>2020-06-21T08:37:06Z</time>
      </trkpt>
      <trkpt lat="49.46237" lon="0.96962">
        <ele>30.3</ele>
        <time>2020-06-21T08:37:08Z</time>
      </trkpt>
      <trkpt lat="49.46244" lon="0.96965">
        <ele>30.3</ele>
        <time>2020-06-21T08:37:10Z</time>
      </trkpt>
      <trkpt lat="49.46248" lon="0.96967">
        <ele>30.4</ele>
        <time>2020-06-21T08:37:11Z</time>
      </trkpt>
      <trkpt lat="49.46253" lon="0.96971">
        <ele>30.4</ele>
        <time>2020-06-21T08:37:13Z</time>
      </trkpt>
      <trkpt lat="49.46259" lon="0.96975">
        <ele>30.5</ele>
        <time>2020-06-21T08:37:15Z</time>
      </trkpt>
      <trkpt lat="49.46267" lon="0.96979">
        <ele>30.5</ele>
        <time>2020-06-21T08:37:17Z</time>
      </trkpt>
      <trkpt lat="49.46273" lon="0.96983">
        <ele>30.6</ele>
        <time>2020-06-21T08:37:19Z</time>
      </trkpt>
      <trkpt lat="49.46277" lon="0.96984">
        <ele>30.6</ele>
        <time>2020-06-21T08:37:20Z</time>
      </trkpt>
      <trkpt lat="49.46282" lon="0.96987">
        <ele>30.7</ele>
        <time>2020-06-21T08:37:22Z</time>
      </trkpt>
      <trkpt lat="49.46285" lon="0.96989">
        <ele>30.8</ele>
        <time>2020-06-21T08:37:23Z</time>
      </trkpt>
      <trkpt lat="49.46288" lon="0.96991">
        <ele>30.8</ele>
        <time>2020-06-21T08:37:24Z</time>
      </trkpt>
      <trkpt lat="49.46294" lon="0.96995">
        <ele>30.9</ele>
        <time>2020-06-21T08:37:26Z</time>
      </trkpt>
      <trkpt lat="49.46296" lon="0.96997">
        <ele>30.9</ele>
        <time>2020-06-21T08:37:27Z</time>
      </trkpt>
      <trkpt lat="49.46302" lon="0.97">
        <ele>31</ele>
        <time>2020-06-21T08:37:29Z</time>
      </trkpt>
      <trkpt lat="49.46307" lon="0.97005">
        <ele>31</ele>
        <time>2020-06-21T08:37:31Z</time>
      </trkpt>
      <trkpt lat="49.46313" lon="0.9701">
        <ele>31.1</ele>
        <time>2020-06-21T08:37:33Z</time>
      </trkpt>
      <trkpt lat="49.46319" lon="0.97017">
        <ele>31.2</ele>
        <time>2020-06-21T08:37:35Z</time>
      </trkpt>
      <trkpt lat="49.46322" lon="0.9702">
        <ele>31.2</ele>
        <time>2020-06-21T08:37:36Z</time>
      </trkpt>
      <trkpt lat="49.46326" lon="0.97025">
        <ele>31.3</ele>
        <time>2020-06-21T08:37:37Z</time>
      </trkpt>
      <trkpt lat="49.46331" lon="0.97034">
        <ele>31.4</ele>
        <time>2020-06-21T08:37:39Z</time>
      </trkpt>
      <trkpt lat="49.46333" lon="0.97039">
        <ele>31.5</ele>
        <time>2020-06-21T08:37:40Z</time>
      </trkpt>
      <trkpt lat="49.46336" lon="0.97046">
        <ele>31.6</ele>
        <time>2020-06-21T08:37:42Z</time>
      </trkpt>
      <trkpt lat="49.46337" lon="0.9705">
        <ele>31.7</ele>
        <time>2020-06-21T08:37:43Z</time>
      </trkpt>
      <trkpt lat="49.46338" lon="0.97055">
        <ele>31.8</ele>
        <time>2020-06-21T08:37:44Z</time>
      </trkpt>
      <trkpt lat="49.4634" lon="0.97065">
        <ele>31.9</ele>
        <time>2020-06-21T08:37:46Z</time>
      </trkpt>
      <trkpt lat="49.46342" lon="0.97074">
        <ele>32</ele>
        <time>2020-06-21T08:37:48Z</time>
      </trkpt>
      <trkpt lat="49.46343" lon="0.97085">
        <ele>32.1</ele>
        <time>2020-06-21T08:37:50Z</time>
      </trkpt>
      <trkpt lat="49.46344" lon="0.9709">
        <ele>32.2</ele>
        <time>2020-06-21T08:37:51Z</time>
      </trkpt>
      <trkpt lat="49.46344" lon="0.97099">
        <ele>32.3</ele>
        <time>2020-06-21T08:37:53Z</time>
      </trkpt>
      <trkpt lat="49.46345" lon="0.97108">
        <ele>32.5</ele>
        <time>2020-06-21T08:37:55Z</time>
      </trkpt>
      <trkpt lat="49.46346" lon="0.97113">
        <ele>32.6</ele>
        <time>2020-06-21T08:37:56Z</time>
      </trkpt>
      <trkpt lat="49.46346" lon="0.97121">
        <ele>32.7</ele>
        <time>2020-06-21T08:37:58Z</time>
      </trkpt>
      <trkpt lat="49.46347" lon="0.97136">
        <ele>33.1</ele>
        <time>2020-06-21T08:38:00Z</time>
      </trkpt>
      <trkpt lat="49.46347" lon="0.97142">
        <ele>33.2</ele>
        <time>2020-06-21T08:38:01Z</time>
      </trkpt>
      <trkpt lat="49.46347" lon="0.97151">
        <ele>33.4</ele>
        <time>2020-06-21T08:38:03Z</time>
      </trkpt>
      <trkpt lat="49.46348" lon="0.97155">
        <ele>33.5</ele>
        <time>2020-06-21T08:38:04Z</time>
      </trkpt>
      <trkpt lat="49.46349" lon="0.97159">
        <ele>33.5</ele>
        <time>2020-06-21T08:38:05Z</time>
      </trkpt>
      <trkpt lat="49.46349" lon="0.97163">
        <ele>33.6</ele>
        <time>2020-06-21T08:38:06Z</time>
      </trkpt>
      <trkpt lat="49.4635" lon="0.97169">
        <ele>33.7</ele>
        <time>2020-06-21T08:38:08Z</time>
      </trkpt>
      <trkpt lat="49.46351" lon="0.97174">
        <ele>33.8</ele>
        <time>2020-06-21T08:38:09Z</time>
      </trkpt>
      <trkpt lat="49.46351" lon="0.9718">
        <ele>34</ele>
        <time>2020-06-21T08:38:11Z</time>
      </trkpt>
      <trkpt lat="49.46351" lon="0.97185">
        <ele>34.1</ele>
        <time>2020-06-21T08:38:12Z</time>
      </trkpt>
      <trkpt lat="49.46351" lon="0.97189">
        <ele>34.1</ele>
        <time>2020-06-21T08:38:13Z</time>
      </trkpt>
      <trkpt lat="49.46351" lon="0.97196">
        <ele>34.2</ele>
        <time>2020-06-21T08:38:14Z</time>
      </trkpt>
      <trkpt lat="49.46351" lon="0.972">
        <ele>34.3</ele>
        <time>2020-06-21T08:38:15Z</time>
      </trkpt>
      <trkpt lat="49.46353" lon="0.97209">
        <ele>34.4</ele>
        <time>2020-06-21T08:38:17Z</time>
      </trkpt>
      <trkpt lat="49.46354" lon="0.97219">
        <ele>34.5</ele>
        <time>2020-06-21T08:38:19Z</time>
      </trkpt>
      <trkpt lat="49.46355" lon="0.97228">
        <ele>34.6</ele>
        <time>2020-06-21T08:38:21Z</time>
      </trkpt>
      <trkpt lat="49.46355" lon="0.97232">
        <ele>34.7</ele>
        <time>2020-06-21T08:38:22Z</time>
      </trkpt>
      <trkpt lat="49.46355" lon="0.97237">
        <ele>34.7</ele>
        <time>2020-06-21T08:38:23Z</time>
      </trkpt>
      <trkpt lat="49.46356" lon="0.97246">
        <ele>34.8</ele>
        <time>2020-06-21T08:38:25Z</time>
      </trkpt>
      <trkpt lat="49.46356" lon="0.9725">
        <ele>34.8</ele>
        <time>2020-06-21T08:38:26Z</time>
      </trkpt>
      <trkpt lat="49.46359" lon="0.97259">
        <ele>34.9</ele>
        <time>2020-06-21T08:38:28Z</time>
      </trkpt>
      <trkpt lat="49.4636" lon="0.97264">
        <ele>34.9</ele>
        <time>2020-06-21T08:38:29Z</time>
      </trkpt>
      <trkpt lat="49.46363" lon="0.97272">
        <ele>35</ele>
        <time>2020-06-21T08:38:31Z</time>
      </trkpt>
      <trkpt lat="49.46364" lon="0.97277">
        <ele>35.1</ele>
        <time>2020-06-21T08:38:32Z</time>
      </trkpt>
      <trkpt lat="49.46366" lon="0.97282">
        <ele>35.1</ele>
        <time>2020-06-21T08:38:33Z</time>
      </trkpt>
      <trkpt lat="49.46369" lon="0.97289">
        <ele>35.2</ele>
        <time>2020-06-21T08:38:35Z</time>
      </trkpt>
      <trkpt lat="49.4637" lon="0.97293">
        <ele>35.3</ele>
        <time>2020-06-21T08:38:36Z</time>
      </trkpt>
      <trkpt lat="49.46372" lon="0.97297">
        <ele>35.4</ele>
        <time>2020-06-21T08:38:37Z</time>
      </trkpt>
      <trkpt lat="49.46375" lon="0.97304">
        <ele>35.5</ele>
        <time>2020-06-21T08:38:39Z</time>
      </trkpt>
      <trkpt lat="49.46378" lon="0.9731">
        <ele>35.6</ele>
        <time>2020-06-21T08:38:41Z</time>
      </trkpt>
      <trkpt lat="49.4638" lon="0.97315">
        <ele>35.7</ele>
        <time>2020-06-21T08:38:42Z</time>
      </trkpt>
      <trkpt lat="49.46383" lon="0.9732">
        <ele>35.8</ele>
        <time>2020-06-21T08:38:44Z</time>
      </trkpt>
      <trkpt lat="49.46384" lon="0.97323">
        <ele>35.9</ele>
        <time>2020-06-21T08:38:45Z</time>
      </trkpt>
      <trkpt lat="49.46389" lon="0.9733">
        <ele>36</ele>
        <time>2020-06-21T08:38:47Z</time>
      </trkpt>
      <trkpt lat="49.46391" lon="0.97334">
        <ele>36</ele>
        <time>2020-06-21T08:38:48Z</time>
      </trkpt>
      <trkpt lat="49.46395" lon="0.97341">
        <ele>36.1</ele>
        <time>2020-06-21T08:38:49Z</time>
      </trkpt>
      <trkpt lat="49.46399" lon="0.97346">
        <ele>36.1</ele>
        <time>2020-06-21T08:38:51Z</time>
      </trkpt>
      <trkpt lat="49.46403" lon="0.97353">
        <ele>36.1</ele>
        <time>2020-06-21T08:38:53Z</time>
      </trkpt>
      <trkpt lat="49.46406" lon="0.97358">
        <ele>36.1</ele>
        <time>2020-06-21T08:38:54Z</time>
      </trkpt>
      <trkpt lat="49.46408" lon="0.97361">
        <ele>36.2</ele>
        <time>2020-06-21T08:38:55Z</time>
      </trkpt>
      <trkpt lat="49.46414" lon="0.9737">
        <ele>36.2</ele>
        <time>2020-06-21T08:38:57Z</time>
      </trkpt>
      <trkpt lat="49.46418" lon="0.97377">
        <ele>36.3</ele>
        <time>2020-06-21T08:38:59Z</time>
      </trkpt>
      <trkpt lat="49.46421" lon="0.97383">
        <ele>36.3</ele>
        <time>2020-06-21T08:39:00Z</time>
      </trkpt>
      <trkpt lat="49.46426" lon="0.97391">
        <ele>36.4</ele>
        <time>2020-06-21T08:39:02Z</time>
      </trkpt>
      <trkpt lat="49.4643" lon="0.97399">
        <ele>36.4</ele>
        <time>2020-06-21T08:39:04Z</time>
      </trkpt>
      <trkpt lat="49.46433" lon="0.97404">
        <ele>36.5</ele>
        <time>2020-06-21T08:39:06Z</time>
      </trkpt>
      <trkpt lat="49.46436" lon="0.97408">
        <ele>36.6</ele>
        <time>2020-06-21T08:39:07Z</time>
      </trkpt>
      <trkpt lat="49.46437" lon="0.97411">
        <ele>36.6</ele>
        <time>2020-06-21T08:39:08Z</time>
      </trkpt>
      <trkpt lat="49.46441" lon="0.97418">
        <ele>36.7</ele>
        <time>2020-06-21T08:39:10Z</time>
      </trkpt>
      <trkpt lat="49.46447" lon="0.97424">
        <ele>36.9</ele>
        <time>2020-06-21T08:39:12Z</time>
      </trkpt>
      <trkpt lat="49.4645" lon="0.97428">
        <ele>36.9</ele>
        <time>2020-06-21T08:39:13Z</time>
      </trkpt>
      <trkpt lat="49.46455" lon="0.97434">
        <ele>37</ele>
        <time>2020-06-21T08:39:15Z</time>
      </trkpt>
      <trkpt lat="49.46459" lon="0.97438">
        <ele>37.1</ele>
        <time>2020-06-21T08:39:16Z</time>
      </trkpt>
      <trkpt lat="49.46463" lon="0.97442">
        <ele>37.2</ele>
        <time>2020-06-21T08:39:18Z</time>
      </trkpt>
      <trkpt lat="49.46466" lon="0.97445">
        <ele>37.2</ele>
        <time>2020-06-21T08:39:19Z</time>
      </trkpt>
      <trkpt lat="49.46469" lon="0.97447">
        <ele>37.2</ele>
        <time>2020-06-21T08:39:20Z</time>
      </trkpt>
      <trkpt lat="49.46472" lon="0.9745">
        <ele>37.2</ele>
        <time>2020-06-21T08:39:22Z</time>
      </trkpt>
      <trkpt lat="49.46474" lon="0.97452">
        <ele>37.2</ele>
        <time>2020-06-21T08:39:23Z</time>
      </trkpt>
      <trkpt lat="49.46478" lon="0.97458">
        <ele>37.3</ele>
        <time>2020-06-21T08:39:25Z</time>
      </trkpt>
      <trkpt lat="49.46481" lon="0.97461">
        <ele>37.3</ele>
        <time>2020-06-21T08:39:26Z</time>
      </trkpt>
      <trkpt lat="49.46483" lon="0.97464">
        <ele>37.3</ele>
        <time>2020-06-21T08:39:27Z</time>
      </trkpt>
      <trkpt lat="49.46486" lon="0.97466">
        <ele>37.3</ele>
        <time>2020-06-21T08:39:28Z</time>
      </trkpt>
      <trkpt lat="49.4649" lon="0.97468">
        <ele>37.3</ele>
        <time>2020-06-21T08:39:30Z</time>
      </trkpt>
      <trkpt lat="49.46492" lon="0.9747">
        <ele>37.3</ele>
        <time>2020-06-21T08:39:31Z</time>
      </trkpt>
      <trkpt lat="49.46493" lon="0.9747">
        <ele>37.3</ele>
        <time>2020-06-21T08:39:32Z</time>
      </trkpt>
      <trkpt lat="49.46494" lon="0.97471">
        <ele>37.3</ele>
        <time>2020-06-21T08:39:34Z</time>
      </trkpt>
      <trkpt lat="49.46495" lon="0.97472">
        <ele>37.3</ele>
        <time>2020-06-21T08:39:35Z</time>
      </trkpt>
      <trkpt lat="49.46495" lon="0.97473">
        <ele>37.3</ele>
        <time>2020-06-21T08:39:36Z</time>
      </trkpt>
      <trkpt lat="49.46496" lon="0.97473">
        <ele>37.3</ele>
        <time>2020-06-21T08:39:38Z</time>
      </trkpt>
      <trkpt lat="49.46496" lon="0.97473">
        <ele>37.3</ele>
        <time>2020-06-21T08:39:40Z</time>
      </trkpt>
      <trkpt lat="49.46496" lon="0.97473">
        <ele>37.3</ele>
        <time>2020-06-21T08:39:41Z</time>
      </trkpt>
      <trkpt lat="49.46496" lon="0.97473">
        <ele>37.3</ele>
        <time>2020-06-21T08:39:42Z</time>
      </trkpt>
      <trkpt lat="49.46495" lon="0.97472">
        <ele>37.3</ele>
        <time>2020-06-21T08:39:43Z</time>
      </trkpt>
      <trkpt lat="49.46493" lon="0.97472">
        <ele>37.4</ele>
        <time>2020-06-21T08:39:45Z</time>
      </trkpt>
      <trkpt lat="49.46491" lon="0.9747">
        <ele>37.4</ele>
        <time>2020-06-21T08:39:46Z</time>
      </trkpt>
      <trkpt lat="49.46489" lon="0.97469">
        <ele>37.4</ele>
        <time>2020-06-21T08:39:48Z</time>
      </trkpt>
      <trkpt lat="49.46487" lon="0.97468">
        <ele>37.4</ele>
        <time>2020-06-21T08:39:49Z</time>
      </trkpt>
      <trkpt lat="49.46484" lon="0.97464">
        <ele>37.4</ele>
        <time>2020-06-21T08:39:51Z</time>
      </trkpt>
      <trkpt lat="49.46481" lon="0.97461">
        <ele>37.4</ele>
        <time>2020-06-21T08:39:52Z</time>
      </trkpt>
      <trkpt lat="49.46475" lon="0.97454">
        <ele>37.3</ele>
        <time>2020-06-21T08:39:53Z</time>
      </trkpt>
      <trkpt lat="49.46468" lon="0.97445">
        <ele>37.3</ele>
        <time>2020-06-21T08:39:55Z</time>
      </trkpt>
      <trkpt lat="49.46465" lon="0.97441">
        <ele>37.3</ele>
        <time>2020-06-21T08:39:56Z</time>
      </trkpt>
      <trkpt lat="49.46462" lon="0.97436">
        <ele>37.2</ele>
        <time>2020-06-21T08:39:57Z</time>
      </trkpt>
      <trkpt lat="49.46459" lon="0.97431">
        <ele>37.2</ele>
        <time>2020-06-21T08:39:59Z</time>
      </trkpt>
      <trkpt lat="49.46456" lon="0.97429">
        <ele>37.2</ele>
        <time>2020-06-21T08:40:00Z</time>
      </trkpt>
      <trkpt lat="49.46451" lon="0.97423">
        <ele>37.1</ele>
        <time>2020-06-21T08:40:02Z</time>
      </trkpt>
      <trkpt lat="49.46448" lon="0.9742">
        <ele>37.1</ele>
        <time>2020-06-21T08:40:03Z</time>
      </trkpt>
      <trkpt lat="49.46441" lon="0.97411">
        <ele>36.9</ele>
        <time>2020-06-21T08:40:05Z</time>
      </trkpt>
      <trkpt lat="49.46439" lon="0.97407">
        <ele>36.9</ele>
        <time>2020-06-21T08:40:06Z</time>
      </trkpt>
      <trkpt lat="49.46436" lon="0.97404">
        <ele>36.8</ele>
        <time>2020-06-21T08:40:07Z</time>
      </trkpt>
      <trkpt lat="49.46429" lon="0.97395">
        <ele>36.6</ele>
        <time>2020-06-21T08:40:09Z</time>
      </trkpt>
      <trkpt lat="49.46423" lon="0.97385">
        <ele>36.4</ele>
        <time>2020-06-21T08:40:11Z</time>
      </trkpt>
      <trkpt lat="49.46419" lon="0.97378">
        <ele>36.3</ele>
        <time>2020-06-21T08:40:12Z</time>
      </trkpt>
      <trkpt lat="49.46414" lon="0.97369">
        <ele>36.3</ele>
        <time>2020-06-21T08:40:14Z</time>
      </trkpt>
      <trkpt lat="49.46411" lon="0.97364">
        <ele>36.2</ele>
        <time>2020-06-21T08:40:15Z</time>
      </trkpt>
      <trkpt lat="49.46407" lon="0.97357">
        <ele>36.2</ele>
        <time>2020-06-21T08:40:17Z</time>
      </trkpt>
      <trkpt lat="49.46405" lon="0.97353">
        <ele>36.2</ele>
        <time>2020-06-21T08:40:18Z</time>
      </trkpt>
      <trkpt lat="49.46403" lon="0.97349">
        <ele>36.1</ele>
        <time>2020-06-21T08:40:20Z</time>
      </trkpt>
      <trkpt lat="49.46402" lon="0.97346">
        <ele>36.1</ele>
        <time>2020-06-21T08:40:21Z</time>
      </trkpt>
      <trkpt lat="49.46402" lon="0.97344">
        <ele>36.1</ele>
        <time>2020-06-21T08:40:22Z</time>
      </trkpt>
      <trkpt lat="49.46402" lon="0.97341">
        <ele>36.1</ele>
        <time>2020-06-21T08:40:23Z</time>
      </trkpt>
      <trkpt lat="49.46402" lon="0.97336">
        <ele>36.1</ele>
        <time>2020-06-21T08:40:25Z</time>
      </trkpt>
      <trkpt lat="49.46403" lon="0.97334">
        <ele>36.1</ele>
        <time>2020-06-21T08:40:26Z</time>
      </trkpt>
      <trkpt lat="49.46403" lon="0.97331">
        <ele>37.7</ele>
        <time>2020-06-21T08:40:28Z</time>
      </trkpt>
      <trkpt lat="49.46402" lon="0.9733">
        <ele>37.9</ele>
        <time>2020-06-21T08:40:29Z</time>
      </trkpt>
      <trkpt lat="49.46402" lon="0.97328">
        <ele>38</ele>
        <time>2020-06-21T08:40:30Z</time>
      </trkpt>
      <trkpt lat="49.46402" lon="0.97326">
        <ele>38.1</ele>
        <time>2020-06-21T08:40:32Z</time>
      </trkpt>
      <trkpt lat="49.46402" lon="0.97325">
        <ele>38.2</ele>
        <time>2020-06-21T08:40:33Z</time>
      </trkpt>
      <trkpt lat="49.46403" lon="0.97323">
        <ele>38.3</ele>
        <time>2020-06-21T08:40:35Z</time>
      </trkpt>
      <trkpt lat="49.46403" lon="0.97321">
        <ele>38.5</ele>
        <time>2020-06-21T08:40:36Z</time>
      </trkpt>
      <trkpt lat="49.46404" lon="0.97318">
        <ele>38.7</ele>
        <time>2020-06-21T08:40:37Z</time>
      </trkpt>
      <trkpt lat="49.46404" lon="0.97316">
        <ele>38.8</ele>
        <time>2020-06-21T08:40:38Z</time>
      </trkpt>
      <trkpt lat="49.46404" lon="0.97315">
        <ele>38.9</ele>
        <time>2020-06-21T08:40:39Z</time>
      </trkpt>
      <trkpt lat="49.46405" lon="0.9731">
        <ele>39.3</ele>
        <time>2020-06-21T08:40:41Z</time>
      </trkpt>
      <trkpt lat="49.46406" lon="0.97309">
        <ele>39.4</ele>
        <time>2020-06-21T08:40:42Z</time>
      </trkpt>
      <trkpt lat="49.46407" lon="0.97305">
        <ele>39.7</ele>
        <time>2020-06-21T08:40:43Z</time>
      </trkpt>
      <trkpt lat="49.46407" lon="0.97303">
        <ele>39.8</ele>
        <time>2020-06-21T08:40:44Z</time>
      </trkpt>
      <trkpt lat="49.46408" lon="0.973">
        <ele>40.1</ele>
        <time>2020-06-21T08:40:45Z</time>
      </trkpt>
      <trkpt lat="49.4641" lon="0.97294">
        <ele>40.6</ele>
        <time>2020-06-21T08:40:48Z</time>
      </trkpt>
      <trkpt lat="49.46412" lon="0.97291">
        <ele>40.9</ele>
        <time>2020-06-21T08:40:49Z</time>
      </trkpt>
      <trkpt lat="49.46413" lon="0.97289">
        <ele>41.1</ele>
        <time>2020-06-21T08:40:50Z</time>
      </trkpt>
      <trkpt lat="49.46415" lon="0.97286">
        <ele>41.4</ele>
        <time>2020-06-21T08:40:52Z</time>
      </trkpt>
      <trkpt lat="49.46416" lon="0.97285">
        <ele>41.5</ele>
        <time>2020-06-21T08:40:53Z</time>
      </trkpt>
      <trkpt lat="49.46418" lon="0.97281">
        <ele>42</ele>
        <time>2020-06-21T08:40:55Z</time>
      </trkpt>
      <trkpt lat="49.4642" lon="0.97277">
        <ele>42.4</ele>
        <time>2020-06-21T08:40:56Z</time>
      </trkpt>
      <trkpt lat="49.46421" lon="0.97275">
        <ele>42.6</ele>
        <time>2020-06-21T08:40:58Z</time>
      </trkpt>
      <trkpt lat="49.46422" lon="0.97274">
        <ele>42.7</ele>
        <time>2020-06-21T08:40:59Z</time>
      </trkpt>
      <trkpt lat="49.46423" lon="0.97272">
        <ele>42.9</ele>
        <time>2020-06-21T08:41:00Z</time>
      </trkpt>
      <trkpt lat="49.46425" lon="0.9727">
        <ele>43.1</ele>
        <time>2020-06-21T08:41:01Z</time>
      </trkpt>
      <trkpt lat="49.46426" lon="0.97267">
        <ele>43.4</ele>
        <time>2020-06-21T08:41:03Z</time>
      </trkpt>
      <trkpt lat="49.46428" lon="0.97264">
        <ele>43.7</ele>
        <time>2020-06-21T08:41:05Z</time>
      </trkpt>
      <trkpt lat="49.4643" lon="0.97261">
        <ele>44.1</ele>
        <time>2020-06-21T08:41:06Z</time>
      </trkpt>
      <trkpt lat="49.46433" lon="0.97258">
        <ele>44.4</ele>
        <time>2020-06-21T08:41:08Z</time>
      </trkpt>
      <trkpt lat="49.46435" lon="0.97257">
        <ele>44.7</ele>
        <time>2020-06-21T08:41:09Z</time>
      </trkpt>
      <trkpt lat="49.46437" lon="0.97255">
        <ele>45</ele>
        <time>2020-06-21T08:41:11Z</time>
      </trkpt>
      <trkpt lat="49.46441" lon="0.97251">
        <ele>45.5</ele>
        <time>2020-06-21T08:41:12Z</time>
      </trkpt>
      <trkpt lat="49.46443" lon="0.9725">
        <ele>45.8</ele>
        <time>2020-06-21T08:41:13Z</time>
      </trkpt>
      <trkpt lat="49.46446" lon="0.97247">
        <ele>46.2</ele>
        <time>2020-06-21T08:41:15Z</time>
      </trkpt>
      <trkpt lat="49.46447" lon="0.97246">
        <ele>46.3</ele>
        <time>2020-06-21T08:41:16Z</time>
      </trkpt>
      <trkpt lat="49.4645" lon="0.97244">
        <ele>46.7</ele>
        <time>2020-06-21T08:41:18Z</time>
      </trkpt>
      <trkpt lat="49.46452" lon="0.97242">
        <ele>46.9</ele>
        <time>2020-06-21T08:41:19Z</time>
      </trkpt>
      <trkpt lat="49.46453" lon="0.9724">
        <ele>47.1</ele>
        <time>2020-06-21T08:41:21Z</time>
      </trkpt>
      <trkpt lat="49.46455" lon="0.97239">
        <ele>48</ele>
        <time>2020-06-21T08:41:22Z</time>
      </trkpt>
      <trkpt lat="49.46458" lon="0.97235">
        <ele>48.6</ele>
        <time>2020-06-21T08:41:24Z</time>
      </trkpt>
      <trkpt lat="49.4646" lon="0.97233">
        <ele>49</ele>
        <time>2020-06-21T08:41:25Z</time>
      </trkpt>
      <trkpt lat="49.4646" lon="0.97231">
        <ele>49.2</ele>
        <time>2020-06-21T08:41:27Z</time>
      </trkpt>
      <trkpt lat="49.46461" lon="0.9723">
        <ele>49.4</ele>
        <time>2020-06-21T08:41:28Z</time>
      </trkpt>
      <trkpt lat="49.46463" lon="0.97226">
        <ele>49.9</ele>
        <time>2020-06-21T08:41:30Z</time>
      </trkpt>
      <trkpt lat="49.46464" lon="0.97224">
        <ele>50.1</ele>
        <time>2020-06-21T08:41:31Z</time>
      </trkpt>
      <trkpt lat="49.46466" lon="0.9722">
        <ele>50.5</ele>
        <time>2020-06-21T08:41:33Z</time>
      </trkpt>
      <trkpt lat="49.46466" lon="0.97218">
        <ele>50.8</ele>
        <time>2020-06-21T08:41:34Z</time>
      </trkpt>
      <trkpt lat="49.46468" lon="0.97214">
        <ele>51.2</ele>
        <time>2020-06-21T08:41:36Z</time>
      </trkpt>
      <trkpt lat="49.46469" lon="0.97211">
        <ele>51.6</ele>
        <time>2020-06-21T08:41:37Z</time>
      </trkpt>
      <trkpt lat="49.4647" lon="0.97209">
        <ele>51.8</ele>
        <time>2020-06-21T08:41:38Z</time>
      </trkpt>
      <trkpt lat="49.46471" lon="0.97205">
        <ele>52.2</ele>
        <time>2020-06-21T08:41:40Z</time>
      </trkpt>
      <trkpt lat="49.46471" lon="0.97203">
        <ele>52.4</ele>
        <time>2020-06-21T08:41:41Z</time>
      </trkpt>
      <trkpt lat="49.46474" lon="0.97195">
        <ele>53.3</ele>
        <time>2020-06-21T08:41:43Z</time>
      </trkpt>
      <trkpt lat="49.46476" lon="0.97192">
        <ele>53.7</ele>
        <time>2020-06-21T08:41:44Z</time>
      </trkpt>
      <trkpt lat="49.46477" lon="0.97191">
        <ele>53.8</ele>
        <time>2020-06-21T08:41:45Z</time>
      </trkpt>
      <trkpt lat="49.46479" lon="0.97187">
        <ele>54.3</ele>
        <time>2020-06-21T08:41:47Z</time>
      </trkpt>
      <trkpt lat="49.46479" lon="0.97186">
        <ele>54.5</ele>
        <time>2020-06-21T08:41:48Z</time>
      </trkpt>
      <trkpt lat="49.4648" lon="0.97183">
        <ele>54.7</ele>
        <time>2020-06-21T08:41:50Z</time>
      </trkpt>
      <trkpt lat="49.46481" lon="0.97181">
        <ele>55</ele>
        <time>2020-06-21T08:41:51Z</time>
      </trkpt>
      <trkpt lat="49.46484" lon="0.97177">
        <ele>55.5</ele>
        <time>2020-06-21T08:41:53Z</time>
      </trkpt>
      <trkpt lat="49.46485" lon="0.97175">
        <ele>55.7</ele>
        <time>2020-06-21T08:41:54Z</time>
      </trkpt>
      <trkpt lat="49.46488" lon="0.97172">
        <ele>56.2</ele>
        <time>2020-06-21T08:41:56Z</time>
      </trkpt>
      <trkpt lat="49.4649" lon="0.97169">
        <ele>56.7</ele>
        <time>2020-06-21T08:41:58Z</time>
      </trkpt>
      <trkpt lat="49.46493" lon="0.97167">
        <ele>57.1</ele>
        <time>2020-06-21T08:42:00Z</time>
      </trkpt>
      <trkpt lat="49.46494" lon="0.97165">
        <ele>57.3</ele>
        <time>2020-06-21T08:42:01Z</time>
      </trkpt>
      <trkpt lat="49.46496" lon="0.97162">
        <ele>57.8</ele>
        <time>2020-06-21T08:42:03Z</time>
      </trkpt>
      <trkpt lat="49.46497" lon="0.97161">
        <ele>58</ele>
        <time>2020-06-21T08:42:04Z</time>
      </trkpt>
      <trkpt lat="49.46498" lon="0.9716">
        <ele>58.2</ele>
        <time>2020-06-21T08:42:05Z</time>
      </trkpt>
      <trkpt lat="49.46501" lon="0.97157">
        <ele>58.7</ele>
        <time>2020-06-21T08:42:07Z</time>
      </trkpt>
      <trkpt lat="49.46502" lon="0.97156">
        <ele>58.9</ele>
        <time>2020-06-21T08:42:08Z</time>
      </trkpt>
      <trkpt lat="49.46503" lon="0.97153">
        <ele>59.3</ele>
        <time>2020-06-21T08:42:10Z</time>
      </trkpt>
      <trkpt lat="49.46505" lon="0.97151">
        <ele>59.6</ele>
        <time>2020-06-21T08:42:11Z</time>
      </trkpt>
      <trkpt lat="49.46506" lon="0.9715">
        <ele>59.8</ele>
        <time>2020-06-21T08:42:12Z</time>
      </trkpt>
      <trkpt lat="49.46507" lon="0.97149">
        <ele>60</ele>
        <time>2020-06-21T08:42:13Z</time>
      </trkpt>
      <trkpt lat="49.46507" lon="0.97148">
        <ele>60.2</ele>
        <time>2020-06-21T08:42:14Z</time>
      </trkpt>
      <trkpt lat="49.46508" lon="0.97145">
        <ele>60.4</ele>
        <time>2020-06-21T08:42:16Z</time>
      </trkpt>
      <trkpt lat="49.46508" lon="0.97143">
        <ele>60.7</ele>
        <time>2020-06-21T08:42:17Z</time>
      </trkpt>
      <trkpt lat="49.46509" lon="0.97141">
        <ele>60.9</ele>
        <time>2020-06-21T08:42:18Z</time>
      </trkpt>
      <trkpt lat="49.46509" lon="0.9714">
        <ele>61.1</ele>
        <time>2020-06-21T08:42:19Z</time>
      </trkpt>
      <trkpt lat="49.4651" lon="0.97136">
        <ele>61.5</ele>
        <time>2020-06-21T08:42:21Z</time>
      </trkpt>
      <trkpt lat="49.46511" lon="0.97131">
        <ele>62</ele>
        <time>2020-06-21T08:42:23Z</time>
      </trkpt>
      <trkpt lat="49.46511" lon="0.9713">
        <ele>62.1</ele>
        <time>2020-06-21T08:42:24Z</time>
      </trkpt>
      <trkpt lat="49.46512" lon="0.97124">
        <ele>62.8</ele>
        <time>2020-06-21T08:42:26Z</time>
      </trkpt>
      <trkpt lat="49.46514" lon="0.97117">
        <ele>63.5</ele>
        <time>2020-06-21T08:42:28Z</time>
      </trkpt>
      <trkpt lat="49.46515" lon="0.97112">
        <ele>64.1</ele>
        <time>2020-06-21T08:42:30Z</time>
      </trkpt>
      <trkpt lat="49.46515" lon="0.97108">
        <ele>64.4</ele>
        <time>2020-06-21T08:42:32Z</time>
      </trkpt>
      <trkpt lat="49.46517" lon="0.97106">
        <ele>64.8</ele>
        <time>2020-06-21T08:42:34Z</time>
      </trkpt>
      <trkpt lat="49.46518" lon="0.97102">
        <ele>65.1</ele>
        <time>2020-06-21T08:42:36Z</time>
      </trkpt>
      <trkpt lat="49.46518" lon="0.97101">
        <ele>65.3</ele>
        <time>2020-06-21T08:42:37Z</time>
      </trkpt>
      <trkpt lat="49.4652" lon="0.97099">
        <ele>65.6</ele>
        <time>2020-06-21T08:42:39Z</time>
      </trkpt>
      <trkpt lat="49.46521" lon="0.97097">
        <ele>65.9</ele>
        <time>2020-06-21T08:42:40Z</time>
      </trkpt>
      <trkpt lat="49.46524" lon="0.97093">
        <ele>66.5</ele>
        <time>2020-06-21T08:42:42Z</time>
      </trkpt>
      <trkpt lat="49.46526" lon="0.97089">
        <ele>67</ele>
        <time>2020-06-21T08:42:44Z</time>
      </trkpt>
      <trkpt lat="49.46527" lon="0.97088">
        <ele>67.2</ele>
        <time>2020-06-21T08:42:45Z</time>
      </trkpt>
      <trkpt lat="49.46529" lon="0.97085">
        <ele>67.6</ele>
        <time>2020-06-21T08:42:47Z</time>
      </trkpt>
      <trkpt lat="49.46529" lon="0.97084">
        <ele>67.7</ele>
        <time>2020-06-21T08:42:48Z</time>
      </trkpt>
      <trkpt lat="49.4653" lon="0.97082">
        <ele>67.9</ele>
        <time>2020-06-21T08:42:50Z</time>
      </trkpt>
      <trkpt lat="49.4653" lon="0.97079">
        <ele>68.2</ele>
        <time>2020-06-21T08:42:52Z</time>
      </trkpt>
      <trkpt lat="49.4653" lon="0.97077">
        <ele>68.5</ele>
        <time>2020-06-21T08:42:53Z</time>
      </trkpt>
      <trkpt lat="49.46531" lon="0.97074">
        <ele>68.7</ele>
        <time>2020-06-21T08:42:54Z</time>
      </trkpt>
      <trkpt lat="49.46532" lon="0.97069">
        <ele>69.3</ele>
        <time>2020-06-21T08:42:56Z</time>
      </trkpt>
      <trkpt lat="49.46533" lon="0.97067">
        <ele>69.5</ele>
        <time>2020-06-21T08:42:57Z</time>
      </trkpt>
      <trkpt lat="49.46534" lon="0.97064">
        <ele>69.8</ele>
        <time>2020-06-21T08:42:58Z</time>
      </trkpt>
      <trkpt lat="49.46534" lon="0.97062">
        <ele>70</ele>
        <time>2020-06-21T08:42:59Z</time>
      </trkpt>
      <trkpt lat="49.46535" lon="0.97057">
        <ele>70.5</ele>
        <time>2020-06-21T08:43:01Z</time>
      </trkpt>
      <trkpt lat="49.46536" lon="0.97055">
        <ele>70.8</ele>
        <time>2020-06-21T08:43:02Z</time>
      </trkpt>
      <trkpt lat="49.46537" lon="0.97051">
        <ele>71.2</ele>
        <time>2020-06-21T08:43:04Z</time>
      </trkpt>
      <trkpt lat="49.46539" lon="0.97047">
        <ele>71.7</ele>
        <time>2020-06-21T08:43:06Z</time>
      </trkpt>
      <trkpt lat="49.46539" lon="0.97046">
        <ele>71.8</ele>
        <time>2020-06-21T08:43:08Z</time>
      </trkpt>
      <trkpt lat="49.4654" lon="0.97045">
        <ele>72</ele>
        <time>2020-06-21T08:43:09Z</time>
      </trkpt>
      <trkpt lat="49.4654" lon="0.97043">
        <ele>72.1</ele>
        <time>2020-06-21T08:43:11Z</time>
      </trkpt>
      <trkpt lat="49.4654" lon="0.97042">
        <ele>72.3</ele>
        <time>2020-06-21T08:43:12Z</time>
      </trkpt>
      <trkpt lat="49.46542" lon="0.97036">
        <ele>72.9</ele>
        <time>2020-06-21T08:43:14Z</time>
      </trkpt>
      <trkpt lat="49.46543" lon="0.97031">
        <ele>73.4</ele>
        <time>2020-06-21T08:43:15Z</time>
      </trkpt>
      <trkpt lat="49.46543" lon="0.9703">
        <ele>73.5</ele>
        <time>2020-06-21T08:43:16Z</time>
      </trkpt>
      <trkpt lat="49.46543" lon="0.97027">
        <ele>73.8</ele>
        <time>2020-06-21T08:43:17Z</time>
      </trkpt>
      <trkpt lat="49.46545" lon="0.97021">
        <ele>74.4</ele>
        <time>2020-06-21T08:43:19Z</time>
      </trkpt>
      <trkpt lat="49.46548" lon="0.97015">
        <ele>75.2</ele>
        <time>2020-06-21T08:43:21Z</time>
      </trkpt>
      <trkpt lat="49.46551" lon="0.9701">
        <ele>75.9</ele>
        <time>2020-06-21T08:43:23Z</time>
      </trkpt>
      <trkpt lat="49.46554" lon="0.97006">
        <ele>76.4</ele>
        <time>2020-06-21T08:43:24Z</time>
      </trkpt>
      <trkpt lat="49.46555" lon="0.97003">
        <ele>76.8</ele>
        <time>2020-06-21T08:43:26Z</time>
      </trkpt>
      <trkpt lat="49.46555" lon="0.97001">
        <ele>76.9</ele>
        <time>2020-06-21T08:43:27Z</time>
      </trkpt>
      <trkpt lat="49.46556" lon="0.96998">
        <ele>77.2</ele>
        <time>2020-06-21T08:43:29Z</time>
      </trkpt>
      <trkpt lat="49.46556" lon="0.96996">
        <ele>77.4</ele>
        <time>2020-06-21T08:43:30Z</time>
      </trkpt>
      <trkpt lat="49.46556" lon="0.96995">
        <ele>77.5</ele>
        <time>2020-06-21T08:43:31Z</time>
      </trkpt>
      <trkpt lat="49.46557" lon="0.96992">
        <ele>77.9</ele>
        <time>2020-06-21T08:43:33Z</time>
      </trkpt>
      <trkpt lat="49.46558" lon="0.96991">
        <ele>78</ele>
        <time>2020-06-21T08:43:34Z</time>
      </trkpt>
      <trkpt lat="49.46558" lon="0.96987">
        <ele>78.3</ele>
        <time>2020-06-21T08:43:36Z</time>
      </trkpt>
      <trkpt lat="49.46558" lon="0.96985">
        <ele>78.6</ele>
        <time>2020-06-21T08:43:37Z</time>
      </trkpt>
      <trkpt lat="49.46559" lon="0.96982">
        <ele>78.9</ele>
        <time>2020-06-21T08:43:39Z</time>
      </trkpt>
      <trkpt lat="49.4656" lon="0.96979">
        <ele>79.2</ele>
        <time>2020-06-21T08:43:41Z</time>
      </trkpt>
      <trkpt lat="49.46561" lon="0.96976">
        <ele>79.5</ele>
        <time>2020-06-21T08:43:43Z</time>
      </trkpt>
      <trkpt lat="49.46563" lon="0.96972">
        <ele>80</ele>
        <time>2020-06-21T08:43:44Z</time>
      </trkpt>
      <trkpt lat="49.46563" lon="0.96971">
        <ele>80.1</ele>
        <time>2020-06-21T08:43:45Z</time>
      </trkpt>
      <trkpt lat="49.46564" lon="0.96969">
        <ele>80.3</ele>
        <time>2020-06-21T08:43:46Z</time>
      </trkpt>
      <trkpt lat="49.46565" lon="0.96966">
        <ele>80.6</ele>
        <time>2020-06-21T08:43:47Z</time>
      </trkpt>
      <trkpt lat="49.46566" lon="0.96959">
        <ele>81.2</ele>
        <time>2020-06-21T08:43:49Z</time>
      </trkpt>
      <trkpt lat="49.46567" lon="0.96957">
        <ele>81.5</ele>
        <time>2020-06-21T08:43:51Z</time>
      </trkpt>
      <trkpt lat="49.46568" lon="0.96955">
        <ele>81.7</ele>
        <time>2020-06-21T08:43:53Z</time>
      </trkpt>
      <trkpt lat="49.46568" lon="0.96952">
        <ele>81.9</ele>
        <time>2020-06-21T08:43:54Z</time>
      </trkpt>
      <trkpt lat="49.46569" lon="0.9695">
        <ele>82.2</ele>
        <time>2020-06-21T08:43:55Z</time>
      </trkpt>
      <trkpt lat="49.46568" lon="0.96943">
        <ele>82.8</ele>
        <time>2020-06-21T08:43:57Z</time>
      </trkpt>
      <trkpt lat="49.46568" lon="0.96939">
        <ele>83.1</ele>
        <time>2020-06-21T08:43:58Z</time>
      </trkpt>
      <trkpt lat="49.46569" lon="0.96934">
        <ele>84.1</ele>
        <time>2020-06-21T08:44:00Z</time>
      </trkpt>
      <trkpt lat="49.46572" lon="0.96929">
        <ele>84.3</ele>
        <time>2020-06-21T08:44:02Z</time>
      </trkpt>
      <trkpt lat="49.46574" lon="0.96926">
        <ele>84.5</ele>
        <time>2020-06-21T08:44:04Z</time>
      </trkpt>
      <trkpt lat="49.46576" lon="0.96922">
        <ele>84.7</ele>
        <time>2020-06-21T08:44:06Z</time>
      </trkpt>
      <trkpt lat="49.46577" lon="0.9692">
        <ele>84.8</ele>
        <time>2020-06-21T08:44:08Z</time>
      </trkpt>
      <trkpt lat="49.46577" lon="0.96919">
        <ele>84.8</ele>
        <time>2020-06-21T08:44:09Z</time>
      </trkpt>
      <trkpt lat="49.46577" lon="0.96919">
        <ele>84.8</ele>
        <time>2020-06-21T08:44:10Z</time>
      </trkpt>
      <trkpt lat="49.46577" lon="0.96918">
        <ele>84.9</ele>
        <time>2020-06-21T08:44:11Z</time>
      </trkpt>
      <trkpt lat="49.46577" lon="0.96917">
        <ele>84.9</ele>
        <time>2020-06-21T08:44:12Z</time>
      </trkpt>
      <trkpt lat="49.46576" lon="0.96915">
        <ele>85</ele>
        <time>2020-06-21T08:44:14Z</time>
      </trkpt>
      <trkpt lat="49.46575" lon="0.96911">
        <ele>85.2</ele>
        <time>2020-06-21T08:44:16Z</time>
      </trkpt>
      <trkpt lat="49.46575" lon="0.96909">
        <ele>85.2</ele>
        <time>2020-06-21T08:44:17Z</time>
      </trkpt>
      <trkpt lat="49.46574" lon="0.96907">
        <ele>85.3</ele>
        <time>2020-06-21T08:44:18Z</time>
      </trkpt>
      <trkpt lat="49.46574" lon="0.96903">
        <ele>85.4</ele>
        <time>2020-06-21T08:44:20Z</time>
      </trkpt>
      <trkpt lat="49.46574" lon="0.96898">
        <ele>85.5</ele>
        <time>2020-06-21T08:44:22Z</time>
      </trkpt>
      <trkpt lat="49.46578" lon="0.96896">
        <ele>85.7</ele>
        <time>2020-06-21T08:44:24Z</time>
      </trkpt>
      <trkpt lat="49.46579" lon="0.96895">
        <ele>85.7</ele>
        <time>2020-06-21T08:44:25Z</time>
      </trkpt>
      <trkpt lat="49.46582" lon="0.96893">
        <ele>85.8</ele>
        <time>2020-06-21T08:44:27Z</time>
      </trkpt>
      <trkpt lat="49.46583" lon="0.96891">
        <ele>85.8</ele>
        <time>2020-06-21T08:44:29Z</time>
      </trkpt>
      <trkpt lat="49.46584" lon="0.96889">
        <ele>85.8</ele>
        <time>2020-06-21T08:44:31Z</time>
      </trkpt>
      <trkpt lat="49.46584" lon="0.96888">
        <ele>85.8</ele>
        <time>2020-06-21T08:44:32Z</time>
      </trkpt>
      <trkpt lat="49.46587" lon="0.96885">
        <ele>85.9</ele>
        <time>2020-06-21T08:44:34Z</time>
      </trkpt>
      <trkpt lat="49.46588" lon="0.96883">
        <ele>85.9</ele>
        <time>2020-06-21T08:44:35Z</time>
      </trkpt>
      <trkpt lat="49.4659" lon="0.96881">
        <ele>86</ele>
        <time>2020-06-21T08:44:37Z</time>
      </trkpt>
      <trkpt lat="49.46592" lon="0.96878">
        <ele>86.1</ele>
        <time>2020-06-21T08:44:39Z</time>
      </trkpt>
      <trkpt lat="49.46594" lon="0.96875">
        <ele>86.1</ele>
        <time>2020-06-21T08:44:40Z</time>
      </trkpt>
      <trkpt lat="49.46595" lon="0.96869">
        <ele>86.3</ele>
        <time>2020-06-21T08:44:42Z</time>
      </trkpt>
      <trkpt lat="49.46596" lon="0.96867">
        <ele>86.3</ele>
        <time>2020-06-21T08:44:43Z</time>
      </trkpt>
      <trkpt lat="49.46597" lon="0.96863">
        <ele>86.4</ele>
        <time>2020-06-21T08:44:45Z</time>
      </trkpt>
      <trkpt lat="49.46598" lon="0.96861">
        <ele>86.5</ele>
        <time>2020-06-21T08:44:47Z</time>
      </trkpt>
      <trkpt lat="49.46599" lon="0.96859">
        <ele>86.5</ele>
        <time>2020-06-21T08:44:48Z</time>
      </trkpt>
      <trkpt lat="49.46601" lon="0.96856">
        <ele>86.6</ele>
        <time>2020-06-21T08:44:50Z</time>
      </trkpt>
      <trkpt lat="49.46601" lon="0.96854">
        <ele>86.7</ele>
        <time>2020-06-21T08:44:51Z</time>
      </trkpt>
      <trkpt lat="49.46602" lon="0.96853">
        <ele>86.7</ele>
        <time>2020-06-21T08:44:52Z</time>
      </trkpt>
      <trkpt lat="49.46602" lon="0.96851">
        <ele>86.8</ele>
        <time>2020-06-21T08:44:53Z</time>
      </trkpt>
      <trkpt lat="49.46602" lon="0.96849">
        <ele>86.8</ele>
        <time>2020-06-21T08:44:54Z</time>
      </trkpt>
      <trkpt lat="49.46603" lon="0.96843">
        <ele>87</ele>
        <time>2020-06-21T08:44:56Z</time>
      </trkpt>
      <trkpt lat="49.46603" lon="0.96839">
        <ele>87.1</ele>
        <time>2020-06-21T08:44:57Z</time>
      </trkpt>
      <trkpt lat="49.46605" lon="0.96835">
        <ele>87.3</ele>
        <time>2020-06-21T08:44:59Z</time>
      </trkpt>
      <trkpt lat="49.46606" lon="0.96834">
        <ele>87.4</ele>
        <time>2020-06-21T08:45:00Z</time>
      </trkpt>
      <trkpt lat="49.46608" lon="0.9683">
        <ele>87.6</ele>
        <time>2020-06-21T08:45:02Z</time>
      </trkpt>
      <trkpt lat="49.4661" lon="0.96826">
        <ele>87.8</ele>
        <time>2020-06-21T08:45:04Z</time>
      </trkpt>
      <trkpt lat="49.46611" lon="0.96824">
        <ele>87.9</ele>
        <time>2020-06-21T08:45:05Z</time>
      </trkpt>
      <trkpt lat="49.46613" lon="0.96823">
        <ele>88</ele>
        <time>2020-06-21T08:45:07Z</time>
      </trkpt>
      <trkpt lat="49.46614" lon="0.96823">
        <ele>88.1</ele>
        <time>2020-06-21T08:45:08Z</time>
      </trkpt>
      <trkpt lat="49.46618" lon="0.96821">
        <ele>88.3</ele>
        <time>2020-06-21T08:45:10Z</time>
      </trkpt>
      <trkpt lat="49.4662" lon="0.96819">
        <ele>88.4</ele>
        <time>2020-06-21T08:45:12Z</time>
      </trkpt>
      <trkpt lat="49.46622" lon="0.96818">
        <ele>88.5</ele>
        <time>2020-06-21T08:45:14Z</time>
      </trkpt>
      <trkpt lat="49.46624" lon="0.96816">
        <ele>88.6</ele>
        <time>2020-06-21T08:45:16Z</time>
      </trkpt>
      <trkpt lat="49.46626" lon="0.96813">
        <ele>88.7</ele>
        <time>2020-06-21T08:45:18Z</time>
      </trkpt>
      <trkpt lat="49.46628" lon="0.96811">
        <ele>88.8</ele>
        <time>2020-06-21T08:45:20Z</time>
      </trkpt>
      <trkpt lat="49.4663" lon="0.96807">
        <ele>88.9</ele>
        <time>2020-06-21T08:45:22Z</time>
      </trkpt>
      <trkpt lat="49.46632" lon="0.96805">
        <ele>89</ele>
        <time>2020-06-21T08:45:23Z</time>
      </trkpt>
      <trkpt lat="49.46632" lon="0.968">
        <ele>89.1</ele>
        <time>2020-06-21T08:45:25Z</time>
      </trkpt>
      <trkpt lat="49.46631" lon="0.96798">
        <ele>89.2</ele>
        <time>2020-06-21T08:45:26Z</time>
      </trkpt>
      <trkpt lat="49.4663" lon="0.96794">
        <ele>89.3</ele>
        <time>2020-06-21T08:45:28Z</time>
      </trkpt>
      <trkpt lat="49.46629" lon="0.96792">
        <ele>89.4</ele>
        <time>2020-06-21T08:45:29Z</time>
      </trkpt>
      <trkpt lat="49.4663" lon="0.96788">
        <ele>89.5</ele>
        <time>2020-06-21T08:45:31Z</time>
      </trkpt>
      <trkpt lat="49.4663" lon="0.96786">
        <ele>89.5</ele>
        <time>2020-06-21T08:45:32Z</time>
      </trkpt>
      <trkpt lat="49.4663" lon="0.96781">
        <ele>89.7</ele>
        <time>2020-06-21T08:45:34Z</time>
      </trkpt>
      <trkpt lat="49.4663" lon="0.96779">
        <ele>89.7</ele>
        <time>2020-06-21T08:45:35Z</time>
      </trkpt>
      <trkpt lat="49.4663" lon="0.96778">
        <ele>89.7</ele>
        <time>2020-06-21T08:45:36Z</time>
      </trkpt>
      <trkpt lat="49.46629" lon="0.96775">
        <ele>89.8</ele>
        <time>2020-06-21T08:45:38Z</time>
      </trkpt>
      <trkpt lat="49.4663" lon="0.96771">
        <ele>89.9</ele>
        <time>2020-06-21T08:45:39Z</time>
      </trkpt>
      <trkpt lat="49.4663" lon="0.96769">
        <ele>90</ele>
        <time>2020-06-21T08:45:41Z</time>
      </trkpt>
      <trkpt lat="49.4663" lon="0.96767">
        <ele>90</ele>
        <time>2020-06-21T08:45:43Z</time>
      </trkpt>
      <trkpt lat="49.46631" lon="0.96764">
        <ele>90.1</ele>
        <time>2020-06-21T08:45:44Z</time>
      </trkpt>
      <trkpt lat="49.46631" lon="0.96763">
        <ele>90.1</ele>
        <time>2020-06-21T08:45:46Z</time>
      </trkpt>
      <trkpt lat="49.46632" lon="0.96762">
        <ele>90.2</ele>
        <time>2020-06-21T08:45:47Z</time>
      </trkpt>
      <trkpt lat="49.46635" lon="0.96761">
        <ele>90.3</ele>
        <time>2020-06-21T08:45:49Z</time>
      </trkpt>
      <trkpt lat="49.46637" lon="0.9676">
        <ele>90.3</ele>
        <time>2020-06-21T08:45:50Z</time>
      </trkpt>
      <trkpt lat="49.46638" lon="0.9676">
        <ele>90.3</ele>
        <time>2020-06-21T08:45:51Z</time>
      </trkpt>
      <trkpt lat="49.46639" lon="0.96759">
        <ele>90.4</ele>
        <time>2020-06-21T08:45:52Z</time>
      </trkpt>
      <trkpt lat="49.46642" lon="0.96757">
        <ele>90.5</ele>
        <time>2020-06-21T08:45:53Z</time>
      </trkpt>
      <trkpt lat="49.46642" lon="0.96756">
        <ele>90.5</ele>
        <time>2020-06-21T08:45:54Z</time>
      </trkpt>
      <trkpt lat="49.46646" lon="0.96755">
        <ele>90.6</ele>
        <time>2020-06-21T08:45:56Z</time>
      </trkpt>
      <trkpt lat="49.46649" lon="0.96753">
        <ele>90.7</ele>
        <time>2020-06-21T08:45:58Z</time>
      </trkpt>
      <trkpt lat="49.46652" lon="0.9675">
        <ele>90.9</ele>
        <time>2020-06-21T08:45:59Z</time>
      </trkpt>
      <trkpt lat="49.46653" lon="0.96749">
        <ele>90.9</ele>
        <time>2020-06-21T08:46:00Z</time>
      </trkpt>
      <trkpt lat="49.46655" lon="0.96748">
        <ele>90.9</ele>
        <time>2020-06-21T08:46:01Z</time>
      </trkpt>
      <trkpt lat="49.46656" lon="0.96746">
        <ele>91</ele>
        <time>2020-06-21T08:46:02Z</time>
      </trkpt>
      <trkpt lat="49.46658" lon="0.96744">
        <ele>91</ele>
        <time>2020-06-21T08:46:04Z</time>
      </trkpt>
      <trkpt lat="49.46659" lon="0.96744">
        <ele>91</ele>
        <time>2020-06-21T08:46:05Z</time>
      </trkpt>
      <trkpt lat="49.4666" lon="0.96743">
        <ele>91.1</ele>
        <time>2020-06-21T08:46:06Z</time>
      </trkpt>
      <trkpt lat="49.46664" lon="0.9674">
        <ele>91.1</ele>
        <time>2020-06-21T08:46:08Z</time>
      </trkpt>
      <trkpt lat="49.46666" lon="0.96737">
        <ele>91.1</ele>
        <time>2020-06-21T08:46:10Z</time>
      </trkpt>
      <trkpt lat="49.46667" lon="0.96735">
        <ele>91.1</ele>
        <time>2020-06-21T08:46:11Z</time>
      </trkpt>
      <trkpt lat="49.46668" lon="0.96733">
        <ele>91.1</ele>
        <time>2020-06-21T08:46:12Z</time>
      </trkpt>
      <trkpt lat="49.46672" lon="0.96728">
        <ele>91.1</ele>
        <time>2020-06-21T08:46:14Z</time>
      </trkpt>
      <trkpt lat="49.46673" lon="0.96727">
        <ele>91.1</ele>
        <time>2020-06-21T08:46:16Z</time>
      </trkpt>
      <trkpt lat="49.46674" lon="0.96726">
        <ele>91.1</ele>
        <time>2020-06-21T08:46:17Z</time>
      </trkpt>
      <trkpt lat="49.46675" lon="0.96725">
        <ele>91.1</ele>
        <time>2020-06-21T08:46:18Z</time>
      </trkpt>
      <trkpt lat="49.46676" lon="0.96725">
        <ele>91.1</ele>
        <time>2020-06-21T08:46:19Z</time>
      </trkpt>
      <trkpt lat="49.46678" lon="0.96727">
        <ele>90.8</ele>
        <time>2020-06-21T08:46:20Z</time>
      </trkpt>
      <trkpt lat="49.46685" lon="0.96732">
        <ele>91.6</ele>
        <time>2020-06-21T08:46:22Z</time>
      </trkpt>
      <trkpt lat="49.46692" lon="0.96735">
        <ele>92</ele>
        <time>2020-06-21T08:46:24Z</time>
      </trkpt>
      <trkpt lat="49.46697" lon="0.96736">
        <ele>92.6</ele>
        <time>2020-06-21T08:46:26Z</time>
      </trkpt>
      <trkpt lat="49.46698" lon="0.96736">
        <ele>92.3</ele>
        <time>2020-06-21T08:46:27Z</time>
      </trkpt>
      <trkpt lat="49.46701" lon="0.96736">
        <ele>92.7</ele>
        <time>2020-06-21T08:46:29Z</time>
      </trkpt>
      <trkpt lat="49.46705" lon="0.96737">
        <ele>92.8</ele>
        <time>2020-06-21T08:46:31Z</time>
      </trkpt>
      <trkpt lat="49.46705" lon="0.96738">
        <ele>92.6</ele>
        <time>2020-06-21T08:46:32Z</time>
      </trkpt>
      <trkpt lat="49.46704" lon="0.96743">
        <ele>92.8</ele>
        <time>2020-06-21T08:46:34Z</time>
      </trkpt>
      <trkpt lat="49.46704" lon="0.96744">
        <ele>92.8</ele>
        <time>2020-06-21T08:46:35Z</time>
      </trkpt>
      <trkpt lat="49.46703" lon="0.96747">
        <ele>92.9</ele>
        <time>2020-06-21T08:46:36Z</time>
      </trkpt>
      <trkpt lat="49.46703" lon="0.96753">
        <ele>93.2</ele>
        <time>2020-06-21T08:46:38Z</time>
      </trkpt>
      <trkpt lat="49.46703" lon="0.96757">
        <ele>93.4</ele>
        <time>2020-06-21T08:46:40Z</time>
      </trkpt>
      <trkpt lat="49.46702" lon="0.96762">
        <ele>93.7</ele>
        <time>2020-06-21T08:46:42Z</time>
      </trkpt>
      <trkpt lat="49.46701" lon="0.96765">
        <ele>93.8</ele>
        <time>2020-06-21T08:46:43Z</time>
      </trkpt>
      <trkpt lat="49.46699" lon="0.96769">
        <ele>94</ele>
        <time>2020-06-21T08:46:45Z</time>
      </trkpt>
      <trkpt lat="49.46696" lon="0.96773">
        <ele>94.3</ele>
        <time>2020-06-21T08:46:47Z</time>
      </trkpt>
      <trkpt lat="49.46695" lon="0.96776">
        <ele>94.6</ele>
        <time>2020-06-21T08:46:49Z</time>
      </trkpt>
      <trkpt lat="49.46692" lon="0.96781">
        <ele>94.8</ele>
        <time>2020-06-21T08:46:51Z</time>
      </trkpt>
      <trkpt lat="49.4669" lon="0.96786">
        <ele>95.2</ele>
        <time>2020-06-21T08:46:53Z</time>
      </trkpt>
      <trkpt lat="49.46686" lon="0.9679">
        <ele>95.5</ele>
        <time>2020-06-21T08:46:55Z</time>
      </trkpt>
      <trkpt lat="49.46685" lon="0.96791">
        <ele>95.7</ele>
        <time>2020-06-21T08:46:56Z</time>
      </trkpt>
      <trkpt lat="49.46682" lon="0.96795">
        <ele>96</ele>
        <time>2020-06-21T08:46:58Z</time>
      </trkpt>
      <trkpt lat="49.46681" lon="0.96798">
        <ele>96.2</ele>
        <time>2020-06-21T08:46:59Z</time>
      </trkpt>
      <trkpt lat="49.46678" lon="0.96801">
        <ele>96.5</ele>
        <time>2020-06-21T08:47:01Z</time>
      </trkpt>
      <trkpt lat="49.46676" lon="0.96804">
        <ele>96.8</ele>
        <time>2020-06-21T08:47:03Z</time>
      </trkpt>
      <trkpt lat="49.46673" lon="0.96807">
        <ele>97.1</ele>
        <time>2020-06-21T08:47:05Z</time>
      </trkpt>
      <trkpt lat="49.46671" lon="0.96811">
        <ele>97.4</ele>
        <time>2020-06-21T08:47:07Z</time>
      </trkpt>
      <trkpt lat="49.4667" lon="0.96815">
        <ele>97.7</ele>
        <time>2020-06-21T08:47:09Z</time>
      </trkpt>
      <trkpt lat="49.46669" lon="0.96818">
        <ele>97.9</ele>
        <time>2020-06-21T08:47:10Z</time>
      </trkpt>
      <trkpt lat="49.46668" lon="0.9682">
        <ele>98.1</ele>
        <time>2020-06-21T08:47:11Z</time>
      </trkpt>
      <trkpt lat="49.46666" lon="0.96826">
        <ele>98.5</ele>
        <time>2020-06-21T08:47:13Z</time>
      </trkpt>
      <trkpt lat="49.46664" lon="0.96834">
        <ele>99.2</ele>
        <time>2020-06-21T08:47:15Z</time>
      </trkpt>
      <trkpt lat="49.46663" lon="0.96838">
        <ele>99.5</ele>
        <time>2020-06-21T08:47:16Z</time>
      </trkpt>
      <trkpt lat="49.46663" lon="0.96842">
        <ele>99.8</ele>
        <time>2020-06-21T08:47:18Z</time>
      </trkpt>
      <trkpt lat="49.46663" lon="0.96844">
        <ele>100</ele>
        <time>2020-06-21T08:47:19Z</time>
      </trkpt>
      <trkpt lat="49.46663" lon="0.96847">
        <ele>100.2</ele>
        <time>2020-06-21T08:47:20Z</time>
      </trkpt>
      <trkpt lat="49.46664" lon="0.96849">
        <ele>100.4</ele>
        <time>2020-06-21T08:47:21Z</time>
      </trkpt>
      <trkpt lat="49.46665" lon="0.96854">
        <ele>100.8</ele>
        <time>2020-06-21T08:47:23Z</time>
      </trkpt>
      <trkpt lat="49.46665" lon="0.96857">
        <ele>101.1</ele>
        <time>2020-06-21T08:47:24Z</time>
      </trkpt>
      <trkpt lat="49.46665" lon="0.96862">
        <ele>101.5</ele>
        <time>2020-06-21T08:47:26Z</time>
      </trkpt>
      <trkpt lat="49.46666" lon="0.96867">
        <ele>101.9</ele>
        <time>2020-06-21T08:47:28Z</time>
      </trkpt>
      <trkpt lat="49.46667" lon="0.96869">
        <ele>102.1</ele>
        <time>2020-06-21T08:47:29Z</time>
      </trkpt>
      <trkpt lat="49.46667" lon="0.96872">
        <ele>102.4</ele>
        <time>2020-06-21T08:47:31Z</time>
      </trkpt>
      <trkpt lat="49.46668" lon="0.96875">
        <ele>102.6</ele>
        <time>2020-06-21T08:47:32Z</time>
      </trkpt>
      <trkpt lat="49.46668" lon="0.96877">
        <ele>102.8</ele>
        <time>2020-06-21T08:47:33Z</time>
      </trkpt>
      <trkpt lat="49.46669" lon="0.96881">
        <ele>103.2</ele>
        <time>2020-06-21T08:47:35Z</time>
      </trkpt>
      <trkpt lat="49.4667" lon="0.96883">
        <ele>103.3</ele>
        <time>2020-06-21T08:47:36Z</time>
      </trkpt>
      <trkpt lat="49.4667" lon="0.96885">
        <ele>103.5</ele>
        <time>2020-06-21T08:47:37Z</time>
      </trkpt>
      <trkpt lat="49.46671" lon="0.96887">
        <ele>103.7</ele>
        <time>2020-06-21T08:47:38Z</time>
      </trkpt>
      <trkpt lat="49.46672" lon="0.96892">
        <ele>104.1</ele>
        <time>2020-06-21T08:47:40Z</time>
      </trkpt>
      <trkpt lat="49.46672" lon="0.96894">
        <ele>104.3</ele>
        <time>2020-06-21T08:47:41Z</time>
      </trkpt>
      <trkpt lat="49.46672" lon="0.96896">
        <ele>104.4</ele>
        <time>2020-06-21T08:47:42Z</time>
      </trkpt>
      <trkpt lat="49.46673" lon="0.969">
        <ele>104.7</ele>
        <time>2020-06-21T08:47:44Z</time>
      </trkpt>
      <trkpt lat="49.46673" lon="0.96903">
        <ele>104.9</ele>
        <time>2020-06-21T08:47:45Z</time>
      </trkpt>
      <trkpt lat="49.46673" lon="0.96908">
        <ele>105.2</ele>
        <time>2020-06-21T08:47:47Z</time>
      </trkpt>
      <trkpt lat="49.46673" lon="0.96915">
        <ele>105.7</ele>
        <time>2020-06-21T08:47:49Z</time>
      </trkpt>
      <trkpt lat="49.46673" lon="0.96917">
        <ele>105.8</ele>
        <time>2020-06-21T08:47:51Z</time>
      </trkpt>
      <trkpt lat="49.46673" lon="0.96919">
        <ele>105.9</ele>
        <time>2020-06-21T08:47:52Z</time>
      </trkpt>
      <trkpt lat="49.46673" lon="0.96921">
        <ele>106</ele>
        <time>2020-06-21T08:47:54Z</time>
      </trkpt>
      <trkpt lat="49.46673" lon="0.96923">
        <ele>106.1</ele>
        <time>2020-06-21T08:47:55Z</time>
      </trkpt>
      <trkpt lat="49.46674" lon="0.96927">
        <ele>106.4</ele>
        <time>2020-06-21T08:47:57Z</time>
      </trkpt>
      <trkpt lat="49.46675" lon="0.96932">
        <ele>106.7</ele>
        <time>2020-06-21T08:47:59Z</time>
      </trkpt>
      <trkpt lat="49.46676" lon="0.96935">
        <ele>106.8</ele>
        <time>2020-06-21T08:48:00Z</time>
      </trkpt>
      <trkpt lat="49.46677" lon="0.9694">
        <ele>107.1</ele>
        <time>2020-06-21T08:48:02Z</time>
      </trkpt>
      <trkpt lat="49.46678" lon="0.96945">
        <ele>107.4</ele>
        <time>2020-06-21T08:48:04Z</time>
      </trkpt>
      <trkpt lat="49.46678" lon="0.96948">
        <ele>107.6</ele>
        <time>2020-06-21T08:48:05Z</time>
      </trkpt>
      <trkpt lat="49.46678" lon="0.96955">
        <ele>107.9</ele>
        <time>2020-06-21T08:48:07Z</time>
      </trkpt>
      <trkpt lat="49.46677" lon="0.96959">
        <ele>108.2</ele>
        <time>2020-06-21T08:48:09Z</time>
      </trkpt>
      <trkpt lat="49.46677" lon="0.96961">
        <ele>108.3</ele>
        <time>2020-06-21T08:48:10Z</time>
      </trkpt>
      <trkpt lat="49.46677" lon="0.96962">
        <ele>108.3</ele>
        <time>2020-06-21T08:48:12Z</time>
      </trkpt>
      <trkpt lat="49.46677" lon="0.96964">
        <ele>108.4</ele>
        <time>2020-06-21T08:48:13Z</time>
      </trkpt>
      <trkpt lat="49.46677" lon="0.96969">
        <ele>108.7</ele>
        <time>2020-06-21T08:48:14Z</time>
      </trkpt>
      <trkpt lat="49.46677" lon="0.96972">
        <ele>108.8</ele>
        <time>2020-06-21T08:48:15Z</time>
      </trkpt>
      <trkpt lat="49.46678" lon="0.96976">
        <ele>109.1</ele>
        <time>2020-06-21T08:48:17Z</time>
      </trkpt>
      <trkpt lat="49.46678" lon="0.96978">
        <ele>109.1</ele>
        <time>2020-06-21T08:48:18Z</time>
      </trkpt>
      <trkpt lat="49.46679" lon="0.96983">
        <ele>109.4</ele>
        <time>2020-06-21T08:48:19Z</time>
      </trkpt>
      <trkpt lat="49.46679" lon="0.96984">
        <ele>109.5</ele>
        <time>2020-06-21T08:48:20Z</time>
      </trkpt>
      <trkpt lat="49.46679" lon="0.96987">
        <ele>109.7</ele>
        <time>2020-06-21T08:48:21Z</time>
      </trkpt>
      <trkpt lat="49.46679" lon="0.9699">
        <ele>109.8</ele>
        <time>2020-06-21T08:48:23Z</time>
      </trkpt>
      <trkpt lat="49.4668" lon="0.96992">
        <ele>109.9</ele>
        <time>2020-06-21T08:48:24Z</time>
      </trkpt>
      <trkpt lat="49.4668" lon="0.96997">
        <ele>110.2</ele>
        <time>2020-06-21T08:48:26Z</time>
      </trkpt>
      <trkpt lat="49.4668" lon="0.97003">
        <ele>110.5</ele>
        <time>2020-06-21T08:48:28Z</time>
      </trkpt>
      <trkpt lat="49.46679" lon="0.97004">
        <ele>110.5</ele>
        <time>2020-06-21T08:48:29Z</time>
      </trkpt>
      <trkpt lat="49.46678" lon="0.9701">
        <ele>110.8</ele>
        <time>2020-06-21T08:48:31Z</time>
      </trkpt>
      <trkpt lat="49.46678" lon="0.97013">
        <ele>110.9</ele>
        <time>2020-06-21T08:48:32Z</time>
      </trkpt>
      <trkpt lat="49.46677" lon="0.97016">
        <ele>111.1</ele>
        <time>2020-06-21T08:48:34Z</time>
      </trkpt>
      <trkpt lat="49.46677" lon="0.97022">
        <ele>111.2</ele>
        <time>2020-06-21T08:48:35Z</time>
      </trkpt>
      <trkpt lat="49.46676" lon="0.97025">
        <ele>111.3</ele>
        <time>2020-06-21T08:48:36Z</time>
      </trkpt>
      <trkpt lat="49.46676" lon="0.9703">
        <ele>111.5</ele>
        <time>2020-06-21T08:48:38Z</time>
      </trkpt>
      <trkpt lat="49.46675" lon="0.97034">
        <ele>111.6</ele>
        <time>2020-06-21T08:48:39Z</time>
      </trkpt>
      <trkpt lat="49.46675" lon="0.9704">
        <ele>111.7</ele>
        <time>2020-06-21T08:48:41Z</time>
      </trkpt>
      <trkpt lat="49.46675" lon="0.97046">
        <ele>111.7</ele>
        <time>2020-06-21T08:48:42Z</time>
      </trkpt>
      <trkpt lat="49.46675" lon="0.97048">
        <ele>111.8</ele>
        <time>2020-06-21T08:48:43Z</time>
      </trkpt>
      <trkpt lat="49.46675" lon="0.97053">
        <ele>111.8</ele>
        <time>2020-06-21T08:48:45Z</time>
      </trkpt>
      <trkpt lat="49.46675" lon="0.97059">
        <ele>111.8</ele>
        <time>2020-06-21T08:48:46Z</time>
      </trkpt>
      <trkpt lat="49.46673" lon="0.97064">
        <ele>111.8</ele>
        <time>2020-06-21T08:48:48Z</time>
      </trkpt>
      <trkpt lat="49.4667" lon="0.97073">
        <ele>111.8</ele>
        <time>2020-06-21T08:48:50Z</time>
      </trkpt>
      <trkpt lat="49.46668" lon="0.97079">
        <ele>111.7</ele>
        <time>2020-06-21T08:48:51Z</time>
      </trkpt>
      <trkpt lat="49.46663" lon="0.9709">
        <ele>111.4</ele>
        <time>2020-06-21T08:48:53Z</time>
      </trkpt>
      <trkpt lat="49.46659" lon="0.97102">
        <ele>111</ele>
        <time>2020-06-21T08:48:54Z</time>
      </trkpt>
      <trkpt lat="49.46657" lon="0.97109">
        <ele>110.8</ele>
        <time>2020-06-21T08:48:55Z</time>
      </trkpt>
      <trkpt lat="49.46655" lon="0.97118">
        <ele>110.5</ele>
        <time>2020-06-21T08:48:56Z</time>
      </trkpt>
      <trkpt lat="49.46653" lon="0.97125">
        <ele>110.3</ele>
        <time>2020-06-21T08:48:58Z</time>
      </trkpt>
      <trkpt lat="49.46651" lon="0.97132">
        <ele>110.2</ele>
        <time>2020-06-21T08:48:59Z</time>
      </trkpt>
      <trkpt lat="49.4665" lon="0.97139">
        <ele>110</ele>
        <time>2020-06-21T08:49:00Z</time>
      </trkpt>
      <trkpt lat="49.46646" lon="0.97152">
        <ele>109.6</ele>
        <time>2020-06-21T08:49:02Z</time>
      </trkpt>
      <trkpt lat="49.46644" lon="0.97159">
        <ele>109.4</ele>
        <time>2020-06-21T08:49:03Z</time>
      </trkpt>
      <trkpt lat="49.4664" lon="0.97169">
        <ele>109</ele>
        <time>2020-06-21T08:49:05Z</time>
      </trkpt>
      <trkpt lat="49.46638" lon="0.97177">
        <ele>108.7</ele>
        <time>2020-06-21T08:49:06Z</time>
      </trkpt>
      <trkpt lat="49.46635" lon="0.97186">
        <ele>108.2</ele>
        <time>2020-06-21T08:49:07Z</time>
      </trkpt>
      <trkpt lat="49.46632" lon="0.97192">
        <ele>107.9</ele>
        <time>2020-06-21T08:49:08Z</time>
      </trkpt>
      <trkpt lat="49.46631" lon="0.97198">
        <ele>107.6</ele>
        <time>2020-06-21T08:49:09Z</time>
      </trkpt>
      <trkpt lat="49.46628" lon="0.97206">
        <ele>107.2</ele>
        <time>2020-06-21T08:49:11Z</time>
      </trkpt>
      <trkpt lat="49.46625" lon="0.97216">
        <ele>106.8</ele>
        <time>2020-06-21T08:49:13Z</time>
      </trkpt>
      <trkpt lat="49.46623" lon="0.97223">
        <ele>106.6</ele>
        <time>2020-06-21T08:49:14Z</time>
      </trkpt>
      <trkpt lat="49.46622" lon="0.97229">
        <ele>106.3</ele>
        <time>2020-06-21T08:49:15Z</time>
      </trkpt>
      <trkpt lat="49.46621" lon="0.97238">
        <ele>106</ele>
        <time>2020-06-21T08:49:17Z</time>
      </trkpt>
      <trkpt lat="49.46621" lon="0.97245">
        <ele>105.8</ele>
        <time>2020-06-21T08:49:18Z</time>
      </trkpt>
      <trkpt lat="49.46621" lon="0.97251">
        <ele>105.6</ele>
        <time>2020-06-21T08:49:19Z</time>
      </trkpt>
      <trkpt lat="49.46623" lon="0.97264">
        <ele>105.2</ele>
        <time>2020-06-21T08:49:21Z</time>
      </trkpt>
      <trkpt lat="49.46626" lon="0.97272">
        <ele>105</ele>
        <time>2020-06-21T08:49:22Z</time>
      </trkpt>
      <trkpt lat="49.46629" lon="0.97283">
        <ele>104.8</ele>
        <time>2020-06-21T08:49:24Z</time>
      </trkpt>
      <trkpt lat="49.46634" lon="0.97293">
        <ele>104.6</ele>
        <time>2020-06-21T08:49:26Z</time>
      </trkpt>
      <trkpt lat="49.46637" lon="0.97297">
        <ele>104.6</ele>
        <time>2020-06-21T08:49:27Z</time>
      </trkpt>
      <trkpt lat="49.46643" lon="0.97302">
        <ele>104.7</ele>
        <time>2020-06-21T08:49:29Z</time>
      </trkpt>
      <trkpt lat="49.46645" lon="0.97303">
        <ele>104.8</ele>
        <time>2020-06-21T08:49:30Z</time>
      </trkpt>
      <trkpt lat="49.46647" lon="0.97305">
        <ele>105</ele>
        <time>2020-06-21T08:49:32Z</time>
      </trkpt>
      <trkpt lat="49.4665" lon="0.97305">
        <ele>105.2</ele>
        <time>2020-06-21T08:49:33Z</time>
      </trkpt>
      <trkpt lat="49.46651" lon="0.97304">
        <ele>105.3</ele>
        <time>2020-06-21T08:49:34Z</time>
      </trkpt>
      <trkpt lat="49.46656" lon="0.97303">
        <ele>105.7</ele>
        <time>2020-06-21T08:49:36Z</time>
      </trkpt>
      <trkpt lat="49.46658" lon="0.97302">
        <ele>105.9</ele>
        <time>2020-06-21T08:49:38Z</time>
      </trkpt>
      <trkpt lat="49.46659" lon="0.97302">
        <ele>106</ele>
        <time>2020-06-21T08:49:39Z</time>
      </trkpt>
      <trkpt lat="49.46663" lon="0.97304">
        <ele>106.3</ele>
        <time>2020-06-21T08:49:41Z</time>
      </trkpt>
      <trkpt lat="49.46664" lon="0.97304">
        <ele>106.5</ele>
        <time>2020-06-21T08:49:43Z</time>
      </trkpt>
      <trkpt lat="49.46666" lon="0.97304">
        <ele>106.6</ele>
        <time>2020-06-21T08:49:44Z</time>
      </trkpt>
      <trkpt lat="49.46668" lon="0.97305">
        <ele>106.9</ele>
        <time>2020-06-21T08:49:46Z</time>
      </trkpt>
      <trkpt lat="49.46671" lon="0.97305">
        <ele>107.1</ele>
        <time>2020-06-21T08:49:48Z</time>
      </trkpt>
      <trkpt lat="49.46675" lon="0.97306">
        <ele>107.4</ele>
        <time>2020-06-21T08:49:49Z</time>
      </trkpt>
      <trkpt lat="49.46677" lon="0.97309">
        <ele>107.7</ele>
        <time>2020-06-21T08:49:51Z</time>
      </trkpt>
      <trkpt lat="49.4668" lon="0.9731">
        <ele>107.9</ele>
        <time>2020-06-21T08:49:53Z</time>
      </trkpt>
      <trkpt lat="49.46683" lon="0.97312">
        <ele>108.2</ele>
        <time>2020-06-21T08:49:54Z</time>
      </trkpt>
      <trkpt lat="49.46687" lon="0.97315">
        <ele>108.5</ele>
        <time>2020-06-21T08:49:56Z</time>
      </trkpt>
      <trkpt lat="49.46693" lon="0.97318">
        <ele>109</ele>
        <time>2020-06-21T08:49:58Z</time>
      </trkpt>
      <trkpt lat="49.46696" lon="0.9732">
        <ele>109.3</ele>
        <time>2020-06-21T08:49:59Z</time>
      </trkpt>
      <trkpt lat="49.46699" lon="0.97321">
        <ele>109.5</ele>
        <time>2020-06-21T08:50:00Z</time>
      </trkpt>
      <trkpt lat="49.46703" lon="0.97323">
        <ele>109.9</ele>
        <time>2020-06-21T08:50:02Z</time>
      </trkpt>
      <trkpt lat="49.46706" lon="0.97324">
        <ele>110.1</ele>
        <time>2020-06-21T08:50:03Z</time>
      </trkpt>
      <trkpt lat="49.46709" lon="0.97324">
        <ele>110.3</ele>
        <time>2020-06-21T08:50:04Z</time>
      </trkpt>
      <trkpt lat="49.4671" lon="0.97325">
        <ele>110.4</ele>
        <time>2020-06-21T08:50:05Z</time>
      </trkpt>
      <trkpt lat="49.46713" lon="0.97325">
        <ele>110.6</ele>
        <time>2020-06-21T08:50:07Z</time>
      </trkpt>
      <trkpt lat="49.46717" lon="0.97325">
        <ele>110.8</ele>
        <time>2020-06-21T08:50:09Z</time>
      </trkpt>
      <trkpt lat="49.4672" lon="0.97327">
        <ele>110.9</ele>
        <time>2020-06-21T08:50:11Z</time>
      </trkpt>
      <trkpt lat="49.46723" lon="0.97328">
        <ele>111</ele>
        <time>2020-06-21T08:50:13Z</time>
      </trkpt>
      <trkpt lat="49.46725" lon="0.97331">
        <ele>111</ele>
        <time>2020-06-21T08:50:14Z</time>
      </trkpt>
      <trkpt lat="49.46726" lon="0.97331">
        <ele>111.1</ele>
        <time>2020-06-21T08:50:15Z</time>
      </trkpt>
      <trkpt lat="49.46728" lon="0.97334">
        <ele>111.1</ele>
        <time>2020-06-21T08:50:17Z</time>
      </trkpt>
      <trkpt lat="49.46732" lon="0.97337">
        <ele>111.1</ele>
        <time>2020-06-21T08:50:19Z</time>
      </trkpt>
      <trkpt lat="49.46734" lon="0.9734">
        <ele>111.2</ele>
        <time>2020-06-21T08:50:21Z</time>
      </trkpt>
      <trkpt lat="49.46738" lon="0.97343">
        <ele>111.1</ele>
        <time>2020-06-21T08:50:23Z</time>
      </trkpt>
      <trkpt lat="49.46744" lon="0.97347">
        <ele>111.1</ele>
        <time>2020-06-21T08:50:25Z</time>
      </trkpt>
      <trkpt lat="49.46747" lon="0.97351">
        <ele>110.9</ele>
        <time>2020-06-21T08:50:27Z</time>
      </trkpt>
      <trkpt lat="49.4675" lon="0.97355">
        <ele>110.8</ele>
        <time>2020-06-21T08:50:28Z</time>
      </trkpt>
      <trkpt lat="49.46754" lon="0.97357">
        <ele>110.7</ele>
        <time>2020-06-21T08:50:30Z</time>
      </trkpt>
      <trkpt lat="49.46759" lon="0.97361">
        <ele>110.5</ele>
        <time>2020-06-21T08:50:32Z</time>
      </trkpt>
      <trkpt lat="49.4676" lon="0.97363">
        <ele>110.4</ele>
        <time>2020-06-21T08:50:33Z</time>
      </trkpt>
      <trkpt lat="49.46764" lon="0.97367">
        <ele>110.2</ele>
        <time>2020-06-21T08:50:35Z</time>
      </trkpt>
      <trkpt lat="49.46766" lon="0.97369">
        <ele>110.1</ele>
        <time>2020-06-21T08:50:36Z</time>
      </trkpt>
      <trkpt lat="49.46768" lon="0.97374">
        <ele>109.9</ele>
        <time>2020-06-21T08:50:38Z</time>
      </trkpt>
      <trkpt lat="49.46772" lon="0.97379">
        <ele>109.7</ele>
        <time>2020-06-21T08:50:40Z</time>
      </trkpt>
      <trkpt lat="49.46778" lon="0.97386">
        <ele>109.5</ele>
        <time>2020-06-21T08:50:42Z</time>
      </trkpt>
      <trkpt lat="49.46781" lon="0.97389">
        <ele>109.3</ele>
        <time>2020-06-21T08:50:43Z</time>
      </trkpt>
      <trkpt lat="49.46785" lon="0.97395">
        <ele>109.1</ele>
        <time>2020-06-21T08:50:45Z</time>
      </trkpt>
      <trkpt lat="49.46787" lon="0.97398">
        <ele>109</ele>
        <time>2020-06-21T08:50:46Z</time>
      </trkpt>
      <trkpt lat="49.46791" lon="0.97403">
        <ele>108.9</ele>
        <time>2020-06-21T08:50:48Z</time>
      </trkpt>
      <trkpt lat="49.46793" lon="0.97406">
        <ele>108.8</ele>
        <time>2020-06-21T08:50:49Z</time>
      </trkpt>
      <trkpt lat="49.46798" lon="0.97411">
        <ele>108.7</ele>
        <time>2020-06-21T08:50:51Z</time>
      </trkpt>
      <trkpt lat="49.46803" lon="0.97418">
        <ele>108.6</ele>
        <time>2020-06-21T08:50:53Z</time>
      </trkpt>
      <trkpt lat="49.46808" lon="0.97426">
        <ele>108.5</ele>
        <time>2020-06-21T08:50:55Z</time>
      </trkpt>
      <trkpt lat="49.4681" lon="0.97432">
        <ele>108.4</ele>
        <time>2020-06-21T08:50:56Z</time>
      </trkpt>
      <trkpt lat="49.46815" lon="0.97448">
        <ele>108.2</ele>
        <time>2020-06-21T08:50:58Z</time>
      </trkpt>
      <trkpt lat="49.46819" lon="0.97463">
        <ele>108.1</ele>
        <time>2020-06-21T08:51:00Z</time>
      </trkpt>
      <trkpt lat="49.46824" lon="0.97474">
        <ele>108.2</ele>
        <time>2020-06-21T08:51:02Z</time>
      </trkpt>
      <trkpt lat="49.46826" lon="0.97481">
        <ele>108.3</ele>
        <time>2020-06-21T08:51:04Z</time>
      </trkpt>
      <trkpt lat="49.46827" lon="0.97484">
        <ele>108.4</ele>
        <time>2020-06-21T08:51:05Z</time>
      </trkpt>
      <trkpt lat="49.46829" lon="0.9749">
        <ele>108.7</ele>
        <time>2020-06-21T08:51:07Z</time>
      </trkpt>
      <trkpt lat="49.46832" lon="0.97496">
        <ele>108.9</ele>
        <time>2020-06-21T08:51:09Z</time>
      </trkpt>
      <trkpt lat="49.46833" lon="0.97498">
        <ele>109.1</ele>
        <time>2020-06-21T08:51:10Z</time>
      </trkpt>
      <trkpt lat="49.46835" lon="0.97505">
        <ele>109.4</ele>
        <time>2020-06-21T08:51:12Z</time>
      </trkpt>
      <trkpt lat="49.46836" lon="0.97507">
        <ele>109.5</ele>
        <time>2020-06-21T08:51:13Z</time>
      </trkpt>
      <trkpt lat="49.46837" lon="0.97511">
        <ele>109.6</ele>
        <time>2020-06-21T08:51:15Z</time>
      </trkpt>
      <trkpt lat="49.46838" lon="0.97515">
        <ele>109.7</ele>
        <time>2020-06-21T08:51:16Z</time>
      </trkpt>
      <trkpt lat="49.46841" lon="0.97525">
        <ele>109.9</ele>
        <time>2020-06-21T08:51:18Z</time>
      </trkpt>
      <trkpt lat="49.46845" lon="0.97534">
        <ele>109.9</ele>
        <time>2020-06-21T08:51:20Z</time>
      </trkpt>
      <trkpt lat="49.46847" lon="0.97541">
        <ele>109.9</ele>
        <time>2020-06-21T08:51:22Z</time>
      </trkpt>
      <trkpt lat="49.46848" lon="0.97543">
        <ele>109.9</ele>
        <time>2020-06-21T08:51:23Z</time>
      </trkpt>
      <trkpt lat="49.46848" lon="0.97545">
        <ele>109.9</ele>
        <time>2020-06-21T08:51:24Z</time>
      </trkpt>
      <trkpt lat="49.46849" lon="0.9755">
        <ele>109.9</ele>
        <time>2020-06-21T08:51:26Z</time>
      </trkpt>
      <trkpt lat="49.4685" lon="0.97553">
        <ele>109.8</ele>
        <time>2020-06-21T08:51:27Z</time>
      </trkpt>
      <trkpt lat="49.46852" lon="0.9756">
        <ele>109.7</ele>
        <time>2020-06-21T08:51:29Z</time>
      </trkpt>
      <trkpt lat="49.46853" lon="0.97565">
        <ele>109.7</ele>
        <time>2020-06-21T08:51:30Z</time>
      </trkpt>
      <trkpt lat="49.46854" lon="0.97568">
        <ele>109.6</ele>
        <time>2020-06-21T08:51:32Z</time>
      </trkpt>
      <trkpt lat="49.46854" lon="0.97568">
        <ele>109.6</ele>
        <time>2020-06-21T08:51:34Z</time>
      </trkpt>
      <trkpt lat="49.46854" lon="0.97568">
        <ele>109.6</ele>
        <time>2020-06-21T08:51:36Z</time>
      </trkpt>
      <trkpt lat="49.46854" lon="0.97568">
        <ele>109.6</ele>
        <time>2020-06-21T08:51:37Z</time>
      </trkpt>
      <trkpt lat="49.46854" lon="0.97568">
        <ele>109.6</ele>
        <time>2020-06-21T08:51:39Z</time>
      </trkpt>
      <trkpt lat="49.46854" lon="0.97568">
        <ele>109.6</ele>
        <time>2020-06-21T08:51:41Z</time>
      </trkpt>
      <trkpt lat="49.46854" lon="0.97567">
        <ele>109.6</ele>
        <time>2020-06-21T08:51:43Z</time>
      </trkpt>
      <trkpt lat="49.46854" lon="0.97566">
        <ele>109.6</ele>
        <time>2020-06-21T08:51:44Z</time>
      </trkpt>
      <trkpt lat="49.46853" lon="0.97566">
        <ele>109.6</ele>
        <time>2020-06-21T08:51:46Z</time>
      </trkpt>
      <trkpt lat="49.46853" lon="0.97567">
        <ele>109.6</ele>
        <time>2020-06-21T08:51:47Z</time>
      </trkpt>
      <trkpt lat="49.46853" lon="0.97568">
        <ele>109.6</ele>
        <time>2020-06-21T08:51:49Z</time>
      </trkpt>
      <trkpt lat="49.46853" lon="0.9757">
        <ele>109.6</ele>
        <time>2020-06-21T08:51:50Z</time>
      </trkpt>
      <trkpt lat="49.46853" lon="0.97572">
        <ele>109.5</ele>
        <time>2020-06-21T08:51:52Z</time>
      </trkpt>
      <trkpt lat="49.46853" lon="0.97577">
        <ele>109.5</ele>
        <time>2020-06-21T08:51:53Z</time>
      </trkpt>
      <trkpt lat="49.46854" lon="0.97579">
        <ele>109.4</ele>
        <time>2020-06-21T08:51:54Z</time>
      </trkpt>
      <trkpt lat="49.46854" lon="0.97583">
        <ele>109.4</ele>
        <time>2020-06-21T08:51:56Z</time>
      </trkpt>
      <trkpt lat="49.46856" lon="0.97588">
        <ele>109.3</ele>
        <time>2020-06-21T08:51:57Z</time>
      </trkpt>
      <trkpt lat="49.46857" lon="0.97593">
        <ele>109.1</ele>
        <time>2020-06-21T08:51:59Z</time>
      </trkpt>
      <trkpt lat="49.46859" lon="0.97598">
        <ele>109</ele>
        <time>2020-06-21T08:52:01Z</time>
      </trkpt>
      <trkpt lat="49.4686" lon="0.97603">
        <ele>108.9</ele>
        <time>2020-06-21T08:52:02Z</time>
      </trkpt>
      <trkpt lat="49.46862" lon="0.97607">
        <ele>108.8</ele>
        <time>2020-06-21T08:52:04Z</time>
      </trkpt>
      <trkpt lat="49.46863" lon="0.97612">
        <ele>108.7</ele>
        <time>2020-06-21T08:52:05Z</time>
      </trkpt>
      <trkpt lat="49.46865" lon="0.97616">
        <ele>108.5</ele>
        <time>2020-06-21T08:52:06Z</time>
      </trkpt>
      <trkpt lat="49.46868" lon="0.97622">
        <ele>108.4</ele>
        <time>2020-06-21T08:52:07Z</time>
      </trkpt>
      <trkpt lat="49.4687" lon="0.97627">
        <ele>108.2</ele>
        <time>2020-06-21T08:52:08Z</time>
      </trkpt>
      <trkpt lat="49.4687" lon="0.97629">
        <ele>108.2</ele>
        <time>2020-06-21T08:52:09Z</time>
      </trkpt>
      <trkpt lat="49.46872" lon="0.97635">
        <ele>108.1</ele>
        <time>2020-06-21T08:52:10Z</time>
      </trkpt>
      <trkpt lat="49.46874" lon="0.97641">
        <ele>108</ele>
        <time>2020-06-21T08:52:11Z</time>
      </trkpt>
      <trkpt lat="49.46876" lon="0.97649">
        <ele>107.8</ele>
        <time>2020-06-21T08:52:13Z</time>
      </trkpt>
      <trkpt lat="49.46877" lon="0.97654">
        <ele>107.8</ele>
        <time>2020-06-21T08:52:14Z</time>
      </trkpt>
      <trkpt lat="49.4688" lon="0.9767">
        <ele>107.7</ele>
        <time>2020-06-21T08:52:16Z</time>
      </trkpt>
      <trkpt lat="49.46882" lon="0.97677">
        <ele>107.6</ele>
        <time>2020-06-21T08:52:17Z</time>
      </trkpt>
      <trkpt lat="49.46884" lon="0.97684">
        <ele>107.6</ele>
        <time>2020-06-21T08:52:18Z</time>
      </trkpt>
      <trkpt lat="49.46885" lon="0.97689">
        <ele>107.6</ele>
        <time>2020-06-21T08:52:19Z</time>
      </trkpt>
      <trkpt lat="49.46887" lon="0.97695">
        <ele>107.5</ele>
        <time>2020-06-21T08:52:20Z</time>
      </trkpt>
      <trkpt lat="49.4689" lon="0.97701">
        <ele>107.5</ele>
        <time>2020-06-21T08:52:22Z</time>
      </trkpt>
      <trkpt lat="49.46893" lon="0.97705">
        <ele>107.6</ele>
        <time>2020-06-21T08:52:23Z</time>
      </trkpt>
      <trkpt lat="49.46894" lon="0.97707">
        <ele>107.7</ele>
        <time>2020-06-21T08:52:24Z</time>
      </trkpt>
      <trkpt lat="49.46898" lon="0.97711">
        <ele>107.8</ele>
        <time>2020-06-21T08:52:26Z</time>
      </trkpt>
      <trkpt lat="49.469" lon="0.97714">
        <ele>108</ele>
        <time>2020-06-21T08:52:27Z</time>
      </trkpt>
      <trkpt lat="49.46901" lon="0.97715">
        <ele>108.1</ele>
        <time>2020-06-21T08:52:28Z</time>
      </trkpt>
      <trkpt lat="49.46905" lon="0.97717">
        <ele>108.4</ele>
        <time>2020-06-21T08:52:30Z</time>
      </trkpt>
      <trkpt lat="49.46906" lon="0.97718">
        <ele>108.5</ele>
        <time>2020-06-21T08:52:31Z</time>
      </trkpt>
      <trkpt lat="49.46909" lon="0.9772">
        <ele>108.8</ele>
        <time>2020-06-21T08:52:32Z</time>
      </trkpt>
      <trkpt lat="49.46911" lon="0.97721">
        <ele>109</ele>
        <time>2020-06-21T08:52:33Z</time>
      </trkpt>
      <trkpt lat="49.46914" lon="0.97722">
        <ele>109.3</ele>
        <time>2020-06-21T08:52:35Z</time>
      </trkpt>
      <trkpt lat="49.46915" lon="0.97723">
        <ele>109.4</ele>
        <time>2020-06-21T08:52:36Z</time>
      </trkpt>
      <trkpt lat="49.46918" lon="0.97724">
        <ele>109.7</ele>
        <time>2020-06-21T08:52:37Z</time>
      </trkpt>
      <trkpt lat="49.46919" lon="0.97725">
        <ele>109.9</ele>
        <time>2020-06-21T08:52:38Z</time>
      </trkpt>
      <trkpt lat="49.4692" lon="0.97725">
        <ele>110</ele>
        <time>2020-06-21T08:52:39Z</time>
      </trkpt>
      <trkpt lat="49.46922" lon="0.97727">
        <ele>110.2</ele>
        <time>2020-06-21T08:52:41Z</time>
      </trkpt>
      <trkpt lat="49.46923" lon="0.97728">
        <ele>110.3</ele>
        <time>2020-06-21T08:52:42Z</time>
      </trkpt>
      <trkpt lat="49.46925" lon="0.9773">
        <ele>110.6</ele>
        <time>2020-06-21T08:52:44Z</time>
      </trkpt>
      <trkpt lat="49.46928" lon="0.97732">
        <ele>110.9</ele>
        <time>2020-06-21T08:52:45Z</time>
      </trkpt>
      <trkpt lat="49.46929" lon="0.97733">
        <ele>111</ele>
        <time>2020-06-21T08:52:46Z</time>
      </trkpt>
      <trkpt lat="49.4693" lon="0.97734">
        <ele>111.1</ele>
        <time>2020-06-21T08:52:48Z</time>
      </trkpt>
      <trkpt lat="49.46931" lon="0.97735">
        <ele>111.2</ele>
        <time>2020-06-21T08:52:49Z</time>
      </trkpt>
      <trkpt lat="49.46932" lon="0.97736">
        <ele>111.4</ele>
        <time>2020-06-21T08:52:50Z</time>
      </trkpt>
      <trkpt lat="49.46934" lon="0.97737">
        <ele>111.6</ele>
        <time>2020-06-21T08:52:52Z</time>
      </trkpt>
      <trkpt lat="49.46936" lon="0.9774">
        <ele>111.8</ele>
        <time>2020-06-21T08:52:54Z</time>
      </trkpt>
      <trkpt lat="49.46937" lon="0.97741">
        <ele>112</ele>
        <time>2020-06-21T08:52:55Z</time>
      </trkpt>
      <trkpt lat="49.4694" lon="0.97742">
        <ele>112.2</ele>
        <time>2020-06-21T08:52:57Z</time>
      </trkpt>
      <trkpt lat="49.46942" lon="0.97744">
        <ele>112.4</ele>
        <time>2020-06-21T08:52:58Z</time>
      </trkpt>
      <trkpt lat="49.46943" lon="0.97745">
        <ele>112.5</ele>
        <time>2020-06-21T08:52:59Z</time>
      </trkpt>
      <trkpt lat="49.46947" lon="0.97747">
        <ele>112.7</ele>
        <time>2020-06-21T08:53:01Z</time>
      </trkpt>
      <trkpt lat="49.46947" lon="0.97747">
        <ele>112.7</ele>
        <time>2020-06-21T08:53:02Z</time>
      </trkpt>
      <trkpt lat="49.46949" lon="0.97749">
        <ele>112.8</ele>
        <time>2020-06-21T08:53:03Z</time>
      </trkpt>
      <trkpt lat="49.46953" lon="0.97751">
        <ele>112.9</ele>
        <time>2020-06-21T08:53:05Z</time>
      </trkpt>
      <trkpt lat="49.46955" lon="0.97752">
        <ele>113</ele>
        <time>2020-06-21T08:53:06Z</time>
      </trkpt>
      <trkpt lat="49.46956" lon="0.97753">
        <ele>113</ele>
        <time>2020-06-21T08:53:08Z</time>
      </trkpt>
      <trkpt lat="49.46956" lon="0.97753">
        <ele>113.1</ele>
        <time>2020-06-21T08:53:09Z</time>
      </trkpt>
      <trkpt lat="49.46958" lon="0.97756">
        <ele>113.1</ele>
        <time>2020-06-21T08:53:11Z</time>
      </trkpt>
      <trkpt lat="49.46959" lon="0.97757">
        <ele>113.2</ele>
        <time>2020-06-21T08:53:12Z</time>
      </trkpt>
      <trkpt lat="49.46962" lon="0.97762">
        <ele>113.2</ele>
        <time>2020-06-21T08:53:13Z</time>
      </trkpt>
      <trkpt lat="49.46963" lon="0.97764">
        <ele>113.2</ele>
        <time>2020-06-21T08:53:14Z</time>
      </trkpt>
      <trkpt lat="49.46962" lon="0.97765">
        <ele>113.2</ele>
        <time>2020-06-21T08:53:16Z</time>
      </trkpt>
      <trkpt lat="49.46961" lon="0.97765">
        <ele>113.2</ele>
        <time>2020-06-21T08:53:17Z</time>
      </trkpt>
      <trkpt lat="49.46961" lon="0.97766">
        <ele>113.2</ele>
        <time>2020-06-21T08:53:19Z</time>
      </trkpt>
      <trkpt lat="49.46962" lon="0.97766">
        <ele>113.2</ele>
        <time>2020-06-21T08:53:21Z</time>
      </trkpt>
      <trkpt lat="49.46962" lon="0.97765">
        <ele>113.2</ele>
        <time>2020-06-21T08:53:22Z</time>
      </trkpt>
      <trkpt lat="49.46963" lon="0.97766">
        <ele>113.2</ele>
        <time>2020-06-21T08:53:23Z</time>
      </trkpt>
      <trkpt lat="49.46964" lon="0.97767">
        <ele>113.2</ele>
        <time>2020-06-21T08:53:25Z</time>
      </trkpt>
      <trkpt lat="49.46965" lon="0.97768">
        <ele>113.2</ele>
        <time>2020-06-21T08:53:27Z</time>
      </trkpt>
      <trkpt lat="49.46965" lon="0.97768">
        <ele>113.2</ele>
        <time>2020-06-21T08:53:28Z</time>
      </trkpt>
      <trkpt lat="49.46965" lon="0.97768">
        <ele>113.2</ele>
        <time>2020-06-21T08:53:30Z</time>
      </trkpt>
      <trkpt lat="49.46966" lon="0.97769">
        <ele>113.2</ele>
        <time>2020-06-21T08:53:32Z</time>
      </trkpt>
      <trkpt lat="49.46966" lon="0.97769">
        <ele>113.2</ele>
        <time>2020-06-21T08:53:33Z</time>
      </trkpt>
      <trkpt lat="49.46967" lon="0.97769">
        <ele>113.2</ele>
        <time>2020-06-21T08:53:35Z</time>
      </trkpt>
      <trkpt lat="49.46967" lon="0.97768">
        <ele>113.1</ele>
        <time>2020-06-21T08:53:37Z</time>
      </trkpt>
      <trkpt lat="49.46967" lon="0.97768">
        <ele>113.1</ele>
        <time>2020-06-21T08:53:38Z</time>
      </trkpt>
      <trkpt lat="49.46967" lon="0.97768">
        <ele>113.1</ele>
        <time>2020-06-21T08:53:40Z</time>
      </trkpt>
      <trkpt lat="49.46968" lon="0.97768">
        <ele>113.1</ele>
        <time>2020-06-21T08:53:42Z</time>
      </trkpt>
      <trkpt lat="49.46968" lon="0.97768">
        <ele>113.1</ele>
        <time>2020-06-21T08:53:43Z</time>
      </trkpt>
      <trkpt lat="49.4697" lon="0.97766">
        <ele>113</ele>
        <time>2020-06-21T08:53:45Z</time>
      </trkpt>
      <trkpt lat="49.46971" lon="0.97765">
        <ele>113</ele>
        <time>2020-06-21T08:53:47Z</time>
      </trkpt>
      <trkpt lat="49.46971" lon="0.97765">
        <ele>112.9</ele>
        <time>2020-06-21T08:53:48Z</time>
      </trkpt>
      <trkpt lat="49.46972" lon="0.97765">
        <ele>112.9</ele>
        <time>2020-06-21T08:53:50Z</time>
      </trkpt>
      <trkpt lat="49.46972" lon="0.97766">
        <ele>112.9</ele>
        <time>2020-06-21T08:53:51Z</time>
      </trkpt>
      <trkpt lat="49.46973" lon="0.97766">
        <ele>112.9</ele>
        <time>2020-06-21T08:53:53Z</time>
      </trkpt>
      <trkpt lat="49.46973" lon="0.97766">
        <ele>112.8</ele>
        <time>2020-06-21T08:53:54Z</time>
      </trkpt>
      <trkpt lat="49.46974" lon="0.97766">
        <ele>112.8</ele>
        <time>2020-06-21T08:53:55Z</time>
      </trkpt>
      <trkpt lat="49.46975" lon="0.97768">
        <ele>112.7</ele>
        <time>2020-06-21T08:53:57Z</time>
      </trkpt>
      <trkpt lat="49.46975" lon="0.97769">
        <ele>112.6</ele>
        <time>2020-06-21T08:53:58Z</time>
      </trkpt>
      <trkpt lat="49.46975" lon="0.97769">
        <ele>112.6</ele>
        <time>2020-06-21T08:53:59Z</time>
      </trkpt>
      <trkpt lat="49.46976" lon="0.97769">
        <ele>112.6</ele>
        <time>2020-06-21T08:54:01Z</time>
      </trkpt>
      <trkpt lat="49.46977" lon="0.97767">
        <ele>112.5</ele>
        <time>2020-06-21T08:54:02Z</time>
      </trkpt>
      <trkpt lat="49.46978" lon="0.97764">
        <ele>113</ele>
        <time>2020-06-21T08:54:04Z</time>
      </trkpt>
      <trkpt lat="49.46978" lon="0.97761">
        <ele>113.2</ele>
        <time>2020-06-21T08:54:06Z</time>
      </trkpt>
      <trkpt lat="49.4698" lon="0.97757">
        <ele>113.5</ele>
        <time>2020-06-21T08:54:08Z</time>
      </trkpt>
      <trkpt lat="49.46983" lon="0.97752">
        <ele>114.1</ele>
        <time>2020-06-21T08:54:09Z</time>
      </trkpt>
      <trkpt lat="49.46985" lon="0.9775">
        <ele>114.3</ele>
        <time>2020-06-21T08:54:10Z</time>
      </trkpt>
      <trkpt lat="49.46988" lon="0.97746">
        <ele>114.7</ele>
        <time>2020-06-21T08:54:12Z</time>
      </trkpt>
      <trkpt lat="49.46992" lon="0.97743">
        <ele>115.2</ele>
        <time>2020-06-21T08:54:13Z</time>
      </trkpt>
      <trkpt lat="49.46996" lon="0.9774">
        <ele>115.7</ele>
        <time>2020-06-21T08:54:15Z</time>
      </trkpt>
      <trkpt lat="49.46999" lon="0.97738">
        <ele>115.9</ele>
        <time>2020-06-21T08:54:16Z</time>
      </trkpt>
      <trkpt lat="49.47002" lon="0.97736">
        <ele>116.2</ele>
        <time>2020-06-21T08:54:17Z</time>
      </trkpt>
      <trkpt lat="49.47005" lon="0.97734">
        <ele>116.5</ele>
        <time>2020-06-21T08:54:18Z</time>
      </trkpt>
      <trkpt lat="49.47009" lon="0.97731">
        <ele>116.9</ele>
        <time>2020-06-21T08:54:20Z</time>
      </trkpt>
      <trkpt lat="49.47014" lon="0.97728">
        <ele>117.3</ele>
        <time>2020-06-21T08:54:21Z</time>
      </trkpt>
      <trkpt lat="49.47018" lon="0.97724">
        <ele>117.6</ele>
        <time>2020-06-21T08:54:23Z</time>
      </trkpt>
      <trkpt lat="49.47021" lon="0.9772">
        <ele>117.9</ele>
        <time>2020-06-21T08:54:25Z</time>
      </trkpt>
      <trkpt lat="49.47021" lon="0.97719">
        <ele>117.9</ele>
        <time>2020-06-21T08:54:26Z</time>
      </trkpt>
      <trkpt lat="49.47022" lon="0.97717">
        <ele>118</ele>
        <time>2020-06-21T08:54:28Z</time>
      </trkpt>
      <trkpt lat="49.47022" lon="0.97716">
        <ele>118</ele>
        <time>2020-06-21T08:54:29Z</time>
      </trkpt>
      <trkpt lat="49.47022" lon="0.97716">
        <ele>118.1</ele>
        <time>2020-06-21T08:54:30Z</time>
      </trkpt>
      <trkpt lat="49.47022" lon="0.97716">
        <ele>118.1</ele>
        <time>2020-06-21T08:54:31Z</time>
      </trkpt>
      <trkpt lat="49.47022" lon="0.97716">
        <ele>118.1</ele>
        <time>2020-06-21T08:54:32Z</time>
      </trkpt>
      <trkpt lat="49.47022" lon="0.97715">
        <ele>118.1</ele>
        <time>2020-06-21T08:54:34Z</time>
      </trkpt>
      <trkpt lat="49.47023" lon="0.97715">
        <ele>118.1</ele>
        <time>2020-06-21T08:54:35Z</time>
      </trkpt>
      <trkpt lat="49.47023" lon="0.97715">
        <ele>118.1</ele>
        <time>2020-06-21T08:54:36Z</time>
      </trkpt>
      <trkpt lat="49.47023" lon="0.97715">
        <ele>118.2</ele>
        <time>2020-06-21T08:54:37Z</time>
      </trkpt>
      <trkpt lat="49.47022" lon="0.97716">
        <ele>118.2</ele>
        <time>2020-06-21T08:54:39Z</time>
      </trkpt>
      <trkpt lat="49.47022" lon="0.97716">
        <ele>118.2</ele>
        <time>2020-06-21T08:54:41Z</time>
      </trkpt>
      <trkpt lat="49.47022" lon="0.97717">
        <ele>118.2</ele>
        <time>2020-06-21T08:54:43Z</time>
      </trkpt>
      <trkpt lat="49.47022" lon="0.97717">
        <ele>118.2</ele>
        <time>2020-06-21T08:54:44Z</time>
      </trkpt>
      <trkpt lat="49.47022" lon="0.97717">
        <ele>118.2</ele>
        <time>2020-06-21T08:54:45Z</time>
      </trkpt>
      <trkpt lat="49.47022" lon="0.97717">
        <ele>118.2</ele>
        <time>2020-06-21T08:54:46Z</time>
      </trkpt>
      <trkpt lat="49.47022" lon="0.97717">
        <ele>118.2</ele>
        <time>2020-06-21T08:54:47Z</time>
      </trkpt>
      <trkpt lat="49.47021" lon="0.9772">
        <ele>118.4</ele>
        <time>2020-06-21T08:54:49Z</time>
      </trkpt>
      <trkpt lat="49.47021" lon="0.97721">
        <ele>118.4</ele>
        <time>2020-06-21T08:54:51Z</time>
      </trkpt>
      <trkpt lat="49.47021" lon="0.97721">
        <ele>118.4</ele>
        <time>2020-06-21T08:54:52Z</time>
      </trkpt>
      <trkpt lat="49.47021" lon="0.97721">
        <ele>118.4</ele>
        <time>2020-06-21T08:54:53Z</time>
      </trkpt>
      <trkpt lat="49.47021" lon="0.97721">
        <ele>118.4</ele>
        <time>2020-06-21T08:54:55Z</time>
      </trkpt>
      <trkpt lat="49.47021" lon="0.97721">
        <ele>118.4</ele>
        <time>2020-06-21T08:54:57Z</time>
      </trkpt>
      <trkpt lat="49.47021" lon="0.97721">
        <ele>118.4</ele>
        <time>2020-06-21T08:54:58Z</time>
      </trkpt>
      <trkpt lat="49.47021" lon="0.97721">
        <ele>118.4</ele>
        <time>2020-06-21T08:55:00Z</time>
      </trkpt>
      <trkpt lat="49.47021" lon="0.97721">
        <ele>118.4</ele>
        <time>2020-06-21T08:55:02Z</time>
      </trkpt>
      <trkpt lat="49.47021" lon="0.97721">
        <ele>118.4</ele>
        <time>2020-06-21T08:55:04Z</time>
      </trkpt>
      <trkpt lat="49.47021" lon="0.97721">
        <ele>118.4</ele>
        <time>2020-06-21T08:55:06Z</time>
      </trkpt>
      <trkpt lat="49.47021" lon="0.97721">
        <ele>118.4</ele>
        <time>2020-06-21T08:55:08Z</time>
      </trkpt>
      <trkpt lat="49.47021" lon="0.97721">
        <ele>118.4</ele>
        <time>2020-06-21T08:55:09Z</time>
      </trkpt>
      <trkpt lat="49.47021" lon="0.97721">
        <ele>118.4</ele>
        <time>2020-06-21T08:55:10Z</time>
      </trkpt>
      <trkpt lat="49.47022" lon="0.97724">
        <ele>118.5</ele>
        <time>2020-06-21T08:55:12Z</time>
      </trkpt>
      <trkpt lat="49.47022" lon="0.97724">
        <ele>118.6</ele>
        <time>2020-06-21T08:55:14Z</time>
      </trkpt>
      <trkpt lat="49.47022" lon="0.97724">
        <ele>118.6</ele>
        <time>2020-06-21T08:55:16Z</time>
      </trkpt>
      <trkpt lat="49.47022" lon="0.97724">
        <ele>118.6</ele>
        <time>2020-06-21T08:55:17Z</time>
      </trkpt>
      <trkpt lat="49.47022" lon="0.97724">
        <ele>118.6</ele>
        <time>2020-06-21T08:55:19Z</time>
      </trkpt>
      <trkpt lat="49.47021" lon="0.97724">
        <ele>118.6</ele>
        <time>2020-06-21T08:55:21Z</time>
      </trkpt>
      <trkpt lat="49.47021" lon="0.97724">
        <ele>118.6</ele>
        <time>2020-06-21T08:55:22Z</time>
      </trkpt>
      <trkpt lat="49.47021" lon="0.97724">
        <ele>118.6</ele>
        <time>2020-06-21T08:55:24Z</time>
      </trkpt>
      <trkpt lat="49.47021" lon="0.97724">
        <ele>118.6</ele>
        <time>2020-06-21T08:55:26Z</time>
      </trkpt>
      <trkpt lat="49.47021" lon="0.97724">
        <ele>118.6</ele>
        <time>2020-06-21T08:55:27Z</time>
      </trkpt>
      <trkpt lat="49.47021" lon="0.97724">
        <ele>118.6</ele>
        <time>2020-06-21T08:55:28Z</time>
      </trkpt>
      <trkpt lat="49.47021" lon="0.97724">
        <ele>118.6</ele>
        <time>2020-06-21T08:55:30Z</time>
      </trkpt>
      <trkpt lat="49.47021" lon="0.97724">
        <ele>118.6</ele>
        <time>2020-06-21T08:55:31Z</time>
      </trkpt>
      <trkpt lat="49.47021" lon="0.97724">
        <ele>118.6</ele>
        <time>2020-06-21T08:55:33Z</time>
      </trkpt>
      <trkpt lat="49.47021" lon="0.97724">
        <ele>118.6</ele>
        <time>2020-06-21T08:55:35Z</time>
      </trkpt>
      <trkpt lat="49.47021" lon="0.97723">
        <ele>118.6</ele>
        <time>2020-06-21T08:55:37Z</time>
      </trkpt>
      <trkpt lat="49.47021" lon="0.97723">
        <ele>118.7</ele>
        <time>2020-06-21T08:55:39Z</time>
      </trkpt>
      <trkpt lat="49.47021" lon="0.97723">
        <ele>118.7</ele>
        <time>2020-06-21T08:55:41Z</time>
      </trkpt>
      <trkpt lat="49.47021" lon="0.97723">
        <ele>118.7</ele>
        <time>2020-06-21T08:55:42Z</time>
      </trkpt>
      <trkpt lat="49.47021" lon="0.97721">
        <ele>118.8</ele>
        <time>2020-06-21T08:55:44Z</time>
      </trkpt>
      <trkpt lat="49.47018" lon="0.97717">
        <ele>119</ele>
        <time>2020-06-21T08:55:46Z</time>
      </trkpt>
      <trkpt lat="49.47017" lon="0.97716">
        <ele>119</ele>
        <time>2020-06-21T08:55:47Z</time>
      </trkpt>
      <trkpt lat="49.47014" lon="0.97711">
        <ele>119.2</ele>
        <time>2020-06-21T08:55:49Z</time>
      </trkpt>
      <trkpt lat="49.47013" lon="0.97708">
        <ele>119.3</ele>
        <time>2020-06-21T08:55:50Z</time>
      </trkpt>
      <trkpt lat="49.47009" lon="0.97701">
        <ele>119.7</ele>
        <time>2020-06-21T08:55:52Z</time>
      </trkpt>
      <trkpt lat="49.47007" lon="0.97697">
        <ele>119.5</ele>
        <time>2020-06-21T08:55:53Z</time>
      </trkpt>
      <trkpt lat="49.47002" lon="0.97688">
        <ele>119.5</ele>
        <time>2020-06-21T08:55:55Z</time>
      </trkpt>
      <trkpt lat="49.46998" lon="0.97681">
        <ele>119.6</ele>
        <time>2020-06-21T08:55:57Z</time>
      </trkpt>
      <trkpt lat="49.46995" lon="0.97677">
        <ele>119.5</ele>
        <time>2020-06-21T08:55:58Z</time>
      </trkpt>
      <trkpt lat="49.46991" lon="0.97669">
        <ele>119.4</ele>
        <time>2020-06-21T08:56:00Z</time>
      </trkpt>
      <trkpt lat="49.46988" lon="0.97664">
        <ele>119.3</ele>
        <time>2020-06-21T08:56:01Z</time>
      </trkpt>
      <trkpt lat="49.46982" lon="0.97654">
        <ele>119.4</ele>
        <time>2020-06-21T08:56:03Z</time>
      </trkpt>
      <trkpt lat="49.46976" lon="0.97644">
        <ele>120.3</ele>
        <time>2020-06-21T08:56:04Z</time>
      </trkpt>
      <trkpt lat="49.46972" lon="0.97637">
        <ele>120.5</ele>
        <time>2020-06-21T08:56:05Z</time>
      </trkpt>
      <trkpt lat="49.46966" lon="0.97626">
        <ele>122</ele>
        <time>2020-06-21T08:56:07Z</time>
      </trkpt>
      <trkpt lat="49.46961" lon="0.97617">
        <ele>122.8</ele>
        <time>2020-06-21T08:56:09Z</time>
      </trkpt>
      <trkpt lat="49.46955" lon="0.97608">
        <ele>123.7</ele>
        <time>2020-06-21T08:56:11Z</time>
      </trkpt>
      <trkpt lat="49.46953" lon="0.97604">
        <ele>124</ele>
        <time>2020-06-21T08:56:12Z</time>
      </trkpt>
      <trkpt lat="49.46951" lon="0.97601">
        <ele>124.2</ele>
        <time>2020-06-21T08:56:13Z</time>
      </trkpt>
      <trkpt lat="49.46949" lon="0.97597">
        <ele>124.2</ele>
        <time>2020-06-21T08:56:14Z</time>
      </trkpt>
      <trkpt lat="49.46944" lon="0.97589">
        <ele>124.7</ele>
        <time>2020-06-21T08:56:16Z</time>
      </trkpt>
      <trkpt lat="49.46938" lon="0.97579">
        <ele>125</ele>
        <time>2020-06-21T08:56:18Z</time>
      </trkpt>
      <trkpt lat="49.46932" lon="0.97568">
        <ele>125.2</ele>
        <time>2020-06-21T08:56:20Z</time>
      </trkpt>
      <trkpt lat="49.46929" lon="0.97562">
        <ele>125.4</ele>
        <time>2020-06-21T08:56:21Z</time>
      </trkpt>
      <trkpt lat="49.46926" lon="0.97556">
        <ele>125.6</ele>
        <time>2020-06-21T08:56:22Z</time>
      </trkpt>
      <trkpt lat="49.46921" lon="0.97546">
        <ele>125.7</ele>
        <time>2020-06-21T08:56:24Z</time>
      </trkpt>
      <trkpt lat="49.46919" lon="0.97542">
        <ele>125.7</ele>
        <time>2020-06-21T08:56:25Z</time>
      </trkpt>
      <trkpt lat="49.46917" lon="0.97538">
        <ele>125.8</ele>
        <time>2020-06-21T08:56:26Z</time>
      </trkpt>
      <trkpt lat="49.46914" lon="0.97531">
        <ele>125.8</ele>
        <time>2020-06-21T08:56:28Z</time>
      </trkpt>
      <trkpt lat="49.4691" lon="0.97525">
        <ele>125.9</ele>
        <time>2020-06-21T08:56:30Z</time>
      </trkpt>
      <trkpt lat="49.46905" lon="0.9752">
        <ele>126</ele>
        <time>2020-06-21T08:56:32Z</time>
      </trkpt>
      <trkpt lat="49.46902" lon="0.97516">
        <ele>126.1</ele>
        <time>2020-06-21T08:56:33Z</time>
      </trkpt>
      <trkpt lat="49.46901" lon="0.97514">
        <ele>126.1</ele>
        <time>2020-06-21T08:56:34Z</time>
      </trkpt>
      <trkpt lat="49.46897" lon="0.97507">
        <ele>126.2</ele>
        <time>2020-06-21T08:56:36Z</time>
      </trkpt>
      <trkpt lat="49.46896" lon="0.97501">
        <ele>126.3</ele>
        <time>2020-06-21T08:56:37Z</time>
      </trkpt>
      <trkpt lat="49.46891" lon="0.97491">
        <ele>126.4</ele>
        <time>2020-06-21T08:56:39Z</time>
      </trkpt>
      <trkpt lat="49.46888" lon="0.97483">
        <ele>126.4</ele>
        <time>2020-06-21T08:56:41Z</time>
      </trkpt>
      <trkpt lat="49.46882" lon="0.97476">
        <ele>126.4</ele>
        <time>2020-06-21T08:56:43Z</time>
      </trkpt>
      <trkpt lat="49.46874" lon="0.97465">
        <ele>126.5</ele>
        <time>2020-06-21T08:56:45Z</time>
      </trkpt>
      <trkpt lat="49.4687" lon="0.97459">
        <ele>126.6</ele>
        <time>2020-06-21T08:56:46Z</time>
      </trkpt>
      <trkpt lat="49.46864" lon="0.97448">
        <ele>126.7</ele>
        <time>2020-06-21T08:56:48Z</time>
      </trkpt>
      <trkpt lat="49.46856" lon="0.97434">
        <ele>126.9</ele>
        <time>2020-06-21T08:56:50Z</time>
      </trkpt>
      <trkpt lat="49.46852" lon="0.97426">
        <ele>127</ele>
        <time>2020-06-21T08:56:51Z</time>
      </trkpt>
      <trkpt lat="49.46847" lon="0.97418">
        <ele>127.2</ele>
        <time>2020-06-21T08:56:52Z</time>
      </trkpt>
      <trkpt lat="49.46839" lon="0.97401">
        <ele>127.4</ele>
        <time>2020-06-21T08:56:54Z</time>
      </trkpt>
      <trkpt lat="49.46835" lon="0.97393">
        <ele>127.6</ele>
        <time>2020-06-21T08:56:55Z</time>
      </trkpt>
      <trkpt lat="49.46827" lon="0.97378">
        <ele>127.9</ele>
        <time>2020-06-21T08:56:57Z</time>
      </trkpt>
      <trkpt lat="49.46823" lon="0.97372">
        <ele>128</ele>
        <time>2020-06-21T08:56:58Z</time>
      </trkpt>
      <trkpt lat="49.4682" lon="0.97365">
        <ele>128</ele>
        <time>2020-06-21T08:56:59Z</time>
      </trkpt>
      <trkpt lat="49.46815" lon="0.97353">
        <ele>128.2</ele>
        <time>2020-06-21T08:57:01Z</time>
      </trkpt>
      <trkpt lat="49.46812" lon="0.97346">
        <ele>128.3</ele>
        <time>2020-06-21T08:57:03Z</time>
      </trkpt>
      <trkpt lat="49.46809" lon="0.97338">
        <ele>128.5</ele>
        <time>2020-06-21T08:57:05Z</time>
      </trkpt>
      <trkpt lat="49.46806" lon="0.9733">
        <ele>128.6</ele>
        <time>2020-06-21T08:57:07Z</time>
      </trkpt>
      <trkpt lat="49.46804" lon="0.97327">
        <ele>128.7</ele>
        <time>2020-06-21T08:57:08Z</time>
      </trkpt>
      <trkpt lat="49.46802" lon="0.97322">
        <ele>128.8</ele>
        <time>2020-06-21T08:57:09Z</time>
      </trkpt>
      <trkpt lat="49.46797" lon="0.97314">
        <ele>129</ele>
        <time>2020-06-21T08:57:11Z</time>
      </trkpt>
      <trkpt lat="49.46791" lon="0.97304">
        <ele>129.4</ele>
        <time>2020-06-21T08:57:13Z</time>
      </trkpt>
      <trkpt lat="49.46788" lon="0.973">
        <ele>129.5</ele>
        <time>2020-06-21T08:57:14Z</time>
      </trkpt>
      <trkpt lat="49.46784" lon="0.97291">
        <ele>129.7</ele>
        <time>2020-06-21T08:57:16Z</time>
      </trkpt>
      <trkpt lat="49.46781" lon="0.97287">
        <ele>129.8</ele>
        <time>2020-06-21T08:57:17Z</time>
      </trkpt>
      <trkpt lat="49.46775" lon="0.97277">
        <ele>129.9</ele>
        <time>2020-06-21T08:57:19Z</time>
      </trkpt>
      <trkpt lat="49.46769" lon="0.9727">
        <ele>130.1</ele>
        <time>2020-06-21T08:57:21Z</time>
      </trkpt>
      <trkpt lat="49.46767" lon="0.97267">
        <ele>130.1</ele>
        <time>2020-06-21T08:57:22Z</time>
      </trkpt>
      <trkpt lat="49.46762" lon="0.97259">
        <ele>130.3</ele>
        <time>2020-06-21T08:57:24Z</time>
      </trkpt>
      <trkpt lat="49.46759" lon="0.97254">
        <ele>130.3</ele>
        <time>2020-06-21T08:57:25Z</time>
      </trkpt>
      <trkpt lat="49.46753" lon="0.97246">
        <ele>130.4</ele>
        <time>2020-06-21T08:57:27Z</time>
      </trkpt>
      <trkpt lat="49.46751" lon="0.97242">
        <ele>130.5</ele>
        <time>2020-06-21T08:57:28Z</time>
      </trkpt>
      <trkpt lat="49.46747" lon="0.97235">
        <ele>130.6</ele>
        <time>2020-06-21T08:57:30Z</time>
      </trkpt>
      <trkpt lat="49.46744" lon="0.97228">
        <ele>130.7</ele>
        <time>2020-06-21T08:57:32Z</time>
      </trkpt>
      <trkpt lat="49.46743" lon="0.97225">
        <ele>130.8</ele>
        <time>2020-06-21T08:57:33Z</time>
      </trkpt>
      <trkpt lat="49.46742" lon="0.97223">
        <ele>130.8</ele>
        <time>2020-06-21T08:57:35Z</time>
      </trkpt>
      <trkpt lat="49.46741" lon="0.97221">
        <ele>130.9</ele>
        <time>2020-06-21T08:57:36Z</time>
      </trkpt>
      <trkpt lat="49.46741" lon="0.9722">
        <ele>130.9</ele>
        <time>2020-06-21T08:57:37Z</time>
      </trkpt>
      <trkpt lat="49.4674" lon="0.97219">
        <ele>130.9</ele>
        <time>2020-06-21T08:57:39Z</time>
      </trkpt>
      <trkpt lat="49.4674" lon="0.97218">
        <ele>130.9</ele>
        <time>2020-06-21T08:57:40Z</time>
      </trkpt>
      <trkpt lat="49.4674" lon="0.97218">
        <ele>130.9</ele>
        <time>2020-06-21T08:57:42Z</time>
      </trkpt>
      <trkpt lat="49.4674" lon="0.97218">
        <ele>130.9</ele>
        <time>2020-06-21T08:57:43Z</time>
      </trkpt>
      <trkpt lat="49.4674" lon="0.97218">
        <ele>130.9</ele>
        <time>2020-06-21T08:57:44Z</time>
      </trkpt>
      <trkpt lat="49.4674" lon="0.97217">
        <ele>130.9</ele>
        <time>2020-06-21T08:57:45Z</time>
      </trkpt>
      <trkpt lat="49.4674" lon="0.97217">
        <ele>130.9</ele>
        <time>2020-06-21T08:57:47Z</time>
      </trkpt>
      <trkpt lat="49.4674" lon="0.97216">
        <ele>130.9</ele>
        <time>2020-06-21T08:57:48Z</time>
      </trkpt>
      <trkpt lat="49.4674" lon="0.97216">
        <ele>131</ele>
        <time>2020-06-21T08:57:50Z</time>
      </trkpt>
      <trkpt lat="49.4674" lon="0.97215">
        <ele>131</ele>
        <time>2020-06-21T08:57:52Z</time>
      </trkpt>
      <trkpt lat="49.4674" lon="0.97214">
        <ele>131</ele>
        <time>2020-06-21T08:57:53Z</time>
      </trkpt>
      <trkpt lat="49.4674" lon="0.97214">
        <ele>131</ele>
        <time>2020-06-21T08:57:54Z</time>
      </trkpt>
      <trkpt lat="49.4674" lon="0.97214">
        <ele>131</ele>
        <time>2020-06-21T08:57:56Z</time>
      </trkpt>
      <trkpt lat="49.4674" lon="0.97214">
        <ele>131</ele>
        <time>2020-06-21T08:57:57Z</time>
      </trkpt>
      <trkpt lat="49.4674" lon="0.97214">
        <ele>131</ele>
        <time>2020-06-21T08:57:58Z</time>
      </trkpt>
      <trkpt lat="49.4674" lon="0.97213">
        <ele>131</ele>
        <time>2020-06-21T08:58:00Z</time>
      </trkpt>
      <trkpt lat="49.4674" lon="0.97212">
        <ele>131</ele>
        <time>2020-06-21T08:58:02Z</time>
      </trkpt>
      <trkpt lat="49.46739" lon="0.9721">
        <ele>131.4</ele>
        <time>2020-06-21T08:58:04Z</time>
      </trkpt>
      <trkpt lat="49.4674" lon="0.97208">
        <ele>131.5</ele>
        <time>2020-06-21T08:58:05Z</time>
      </trkpt>
      <trkpt lat="49.46741" lon="0.97201">
        <ele>131.7</ele>
        <time>2020-06-21T08:58:07Z</time>
      </trkpt>
      <trkpt lat="49.46741" lon="0.97197">
        <ele>131.8</ele>
        <time>2020-06-21T08:58:08Z</time>
      </trkpt>
      <trkpt lat="49.46744" lon="0.97194">
        <ele>132</ele>
        <time>2020-06-21T08:58:10Z</time>
      </trkpt>
      <trkpt lat="49.46745" lon="0.97192">
        <ele>132.1</ele>
        <time>2020-06-21T08:58:11Z</time>
      </trkpt>
      <trkpt lat="49.46748" lon="0.97189">
        <ele>132.2</ele>
        <time>2020-06-21T08:58:13Z</time>
      </trkpt>
      <trkpt lat="49.46752" lon="0.97187">
        <ele>132.4</ele>
        <time>2020-06-21T08:58:15Z</time>
      </trkpt>
      <trkpt lat="49.46754" lon="0.97186">
        <ele>132.5</ele>
        <time>2020-06-21T08:58:16Z</time>
      </trkpt>
      <trkpt lat="49.46757" lon="0.97184">
        <ele>132.6</ele>
        <time>2020-06-21T08:58:18Z</time>
      </trkpt>
      <trkpt lat="49.4676" lon="0.97181">
        <ele>132.7</ele>
        <time>2020-06-21T08:58:20Z</time>
      </trkpt>
      <trkpt lat="49.46762" lon="0.97179">
        <ele>132.8</ele>
        <time>2020-06-21T08:58:21Z</time>
      </trkpt>
      <trkpt lat="49.46766" lon="0.97175">
        <ele>132.9</ele>
        <time>2020-06-21T08:58:23Z</time>
      </trkpt>
      <trkpt lat="49.46768" lon="0.97172">
        <ele>133</ele>
        <time>2020-06-21T08:58:24Z</time>
      </trkpt>
      <trkpt lat="49.46772" lon="0.97168">
        <ele>133</ele>
        <time>2020-06-21T08:58:26Z</time>
      </trkpt>
      <trkpt lat="49.46774" lon="0.97164">
        <ele>133.1</ele>
        <time>2020-06-21T08:58:28Z</time>
      </trkpt>
      <trkpt lat="49.46777" lon="0.97159">
        <ele>133.1</ele>
        <time>2020-06-21T08:58:30Z</time>
      </trkpt>
      <trkpt lat="49.46778" lon="0.97157">
        <ele>133.1</ele>
        <time>2020-06-21T08:58:31Z</time>
      </trkpt>
      <trkpt lat="49.46782" lon="0.97153">
        <ele>133.1</ele>
        <time>2020-06-21T08:58:33Z</time>
      </trkpt>
      <trkpt lat="49.46785" lon="0.97147">
        <ele>133.1</ele>
        <time>2020-06-21T08:58:35Z</time>
      </trkpt>
      <trkpt lat="49.46788" lon="0.97143">
        <ele>133</ele>
        <time>2020-06-21T08:58:37Z</time>
      </trkpt>
      <trkpt lat="49.4679" lon="0.97141">
        <ele>133</ele>
        <time>2020-06-21T08:58:38Z</time>
      </trkpt>
      <trkpt lat="49.46794" lon="0.97138">
        <ele>133</ele>
        <time>2020-06-21T08:58:40Z</time>
      </trkpt>
      <trkpt lat="49.46796" lon="0.97135">
        <ele>133</ele>
        <time>2020-06-21T08:58:41Z</time>
      </trkpt>
      <trkpt lat="49.468" lon="0.97131">
        <ele>133</ele>
        <time>2020-06-21T08:58:43Z</time>
      </trkpt>
      <trkpt lat="49.46804" lon="0.97129">
        <ele>132.9</ele>
        <time>2020-06-21T08:58:45Z</time>
      </trkpt>
      <trkpt lat="49.46808" lon="0.97124">
        <ele>132.9</ele>
        <time>2020-06-21T08:58:47Z</time>
      </trkpt>
      <trkpt lat="49.4681" lon="0.97121">
        <ele>132.9</ele>
        <time>2020-06-21T08:58:48Z</time>
      </trkpt>
      <trkpt lat="49.46816" lon="0.97114">
        <ele>132.8</ele>
        <time>2020-06-21T08:58:50Z</time>
      </trkpt>
      <trkpt lat="49.4682" lon="0.97109">
        <ele>132.7</ele>
        <time>2020-06-21T08:58:52Z</time>
      </trkpt>
      <trkpt lat="49.46822" lon="0.97106">
        <ele>132.6</ele>
        <time>2020-06-21T08:58:53Z</time>
      </trkpt>
      <trkpt lat="49.46826" lon="0.97099">
        <ele>132.5</ele>
        <time>2020-06-21T08:58:55Z</time>
      </trkpt>
      <trkpt lat="49.46828" lon="0.97096">
        <ele>132.5</ele>
        <time>2020-06-21T08:58:56Z</time>
      </trkpt>
      <trkpt lat="49.46831" lon="0.97093">
        <ele>132.5</ele>
        <time>2020-06-21T08:58:57Z</time>
      </trkpt>
      <trkpt lat="49.46837" lon="0.97087">
        <ele>132.4</ele>
        <time>2020-06-21T08:58:59Z</time>
      </trkpt>
      <trkpt lat="49.4684" lon="0.97083">
        <ele>132.3</ele>
        <time>2020-06-21T08:59:00Z</time>
      </trkpt>
      <trkpt lat="49.46845" lon="0.97073">
        <ele>132.3</ele>
        <time>2020-06-21T08:59:02Z</time>
      </trkpt>
      <trkpt lat="49.4685" lon="0.97063">
        <ele>132.3</ele>
        <time>2020-06-21T08:59:04Z</time>
      </trkpt>
      <trkpt lat="49.46853" lon="0.97059">
        <ele>132.3</ele>
        <time>2020-06-21T08:59:05Z</time>
      </trkpt>
      <trkpt lat="49.46855" lon="0.97055">
        <ele>132.3</ele>
        <time>2020-06-21T08:59:06Z</time>
      </trkpt>
      <trkpt lat="49.4686" lon="0.97049">
        <ele>132.2</ele>
        <time>2020-06-21T08:59:08Z</time>
      </trkpt>
      <trkpt lat="49.46862" lon="0.97046">
        <ele>132.2</ele>
        <time>2020-06-21T08:59:09Z</time>
      </trkpt>
      <trkpt lat="49.46864" lon="0.97043">
        <ele>132.2</ele>
        <time>2020-06-21T08:59:10Z</time>
      </trkpt>
      <trkpt lat="49.46867" lon="0.97039">
        <ele>132.2</ele>
        <time>2020-06-21T08:59:11Z</time>
      </trkpt>
      <trkpt lat="49.46871" lon="0.97034">
        <ele>132.2</ele>
        <time>2020-06-21T08:59:13Z</time>
      </trkpt>
      <trkpt lat="49.46874" lon="0.9703">
        <ele>132.2</ele>
        <time>2020-06-21T08:59:14Z</time>
      </trkpt>
      <trkpt lat="49.4688" lon="0.97021">
        <ele>132.2</ele>
        <time>2020-06-21T08:59:16Z</time>
      </trkpt>
      <trkpt lat="49.46886" lon="0.97013">
        <ele>132.1</ele>
        <time>2020-06-21T08:59:18Z</time>
      </trkpt>
      <trkpt lat="49.46892" lon="0.97005">
        <ele>132</ele>
        <time>2020-06-21T08:59:20Z</time>
      </trkpt>
      <trkpt lat="49.46894" lon="0.97003">
        <ele>131.9</ele>
        <time>2020-06-21T08:59:21Z</time>
      </trkpt>
      <trkpt lat="49.46899" lon="0.96997">
        <ele>131.9</ele>
        <time>2020-06-21T08:59:23Z</time>
      </trkpt>
      <trkpt lat="49.46902" lon="0.96995">
        <ele>131.8</ele>
        <time>2020-06-21T08:59:24Z</time>
      </trkpt>
      <trkpt lat="49.46908" lon="0.96988">
        <ele>131.8</ele>
        <time>2020-06-21T08:59:26Z</time>
      </trkpt>
      <trkpt lat="49.46914" lon="0.96981">
        <ele>131.7</ele>
        <time>2020-06-21T08:59:28Z</time>
      </trkpt>
      <trkpt lat="49.46916" lon="0.96978">
        <ele>131.7</ele>
        <time>2020-06-21T08:59:29Z</time>
      </trkpt>
      <trkpt lat="49.46921" lon="0.96972">
        <ele>131.6</ele>
        <time>2020-06-21T08:59:31Z</time>
      </trkpt>
      <trkpt lat="49.46923" lon="0.96969">
        <ele>131.6</ele>
        <time>2020-06-21T08:59:32Z</time>
      </trkpt>
      <trkpt lat="49.46926" lon="0.96965">
        <ele>131.5</ele>
        <time>2020-06-21T08:59:33Z</time>
      </trkpt>
      <trkpt lat="49.46932" lon="0.96959">
        <ele>131.4</ele>
        <time>2020-06-21T08:59:35Z</time>
      </trkpt>
      <trkpt lat="49.46936" lon="0.96953">
        <ele>131.3</ele>
        <time>2020-06-21T08:59:37Z</time>
      </trkpt>
      <trkpt lat="49.46939" lon="0.96949">
        <ele>131.2</ele>
        <time>2020-06-21T08:59:38Z</time>
      </trkpt>
      <trkpt lat="49.46944" lon="0.9694">
        <ele>131</ele>
        <time>2020-06-21T08:59:40Z</time>
      </trkpt>
      <trkpt lat="49.46947" lon="0.96936">
        <ele>131</ele>
        <time>2020-06-21T08:59:41Z</time>
      </trkpt>
      <trkpt lat="49.46952" lon="0.96929">
        <ele>130.9</ele>
        <time>2020-06-21T08:59:43Z</time>
      </trkpt>
      <trkpt lat="49.46956" lon="0.96923">
        <ele>130.9</ele>
        <time>2020-06-21T08:59:45Z</time>
      </trkpt>
      <trkpt lat="49.46961" lon="0.96918">
        <ele>130.8</ele>
        <time>2020-06-21T08:59:47Z</time>
      </trkpt>
      <trkpt lat="49.46963" lon="0.96915">
        <ele>130.8</ele>
        <time>2020-06-21T08:59:48Z</time>
      </trkpt>
      <trkpt lat="49.46966" lon="0.9691">
        <ele>130.8</ele>
        <time>2020-06-21T08:59:50Z</time>
      </trkpt>
      <trkpt lat="49.46969" lon="0.96907">
        <ele>130.8</ele>
        <time>2020-06-21T08:59:51Z</time>
      </trkpt>
      <trkpt lat="49.46974" lon="0.96899">
        <ele>130.8</ele>
        <time>2020-06-21T08:59:53Z</time>
      </trkpt>
      <trkpt lat="49.4698" lon="0.96893">
        <ele>130.6</ele>
        <time>2020-06-21T08:59:55Z</time>
      </trkpt>
      <trkpt lat="49.46986" lon="0.96888">
        <ele>130.5</ele>
        <time>2020-06-21T08:59:57Z</time>
      </trkpt>
      <trkpt lat="49.46988" lon="0.96885">
        <ele>130.4</ele>
        <time>2020-06-21T08:59:58Z</time>
      </trkpt>
      <trkpt lat="49.46992" lon="0.96875">
        <ele>130.3</ele>
        <time>2020-06-21T09:00:00Z</time>
      </trkpt>
      <trkpt lat="49.46994" lon="0.9687">
        <ele>130.2</ele>
        <time>2020-06-21T09:00:01Z</time>
      </trkpt>
      <trkpt lat="49.46995" lon="0.96865">
        <ele>130.2</ele>
        <time>2020-06-21T09:00:02Z</time>
      </trkpt>
      <trkpt lat="49.46995" lon="0.96852">
        <ele>129.9</ele>
        <time>2020-06-21T09:00:04Z</time>
      </trkpt>
      <trkpt lat="49.46993" lon="0.96841">
        <ele>129.5</ele>
        <time>2020-06-21T09:00:06Z</time>
      </trkpt>
      <trkpt lat="49.46991" lon="0.96831">
        <ele>129.3</ele>
        <time>2020-06-21T09:00:08Z</time>
      </trkpt>
      <trkpt lat="49.46991" lon="0.96828">
        <ele>129.2</ele>
        <time>2020-06-21T09:00:09Z</time>
      </trkpt>
      <trkpt lat="49.46993" lon="0.96823">
        <ele>129.1</ele>
        <time>2020-06-21T09:00:11Z</time>
      </trkpt>
      <trkpt lat="49.46994" lon="0.96818">
        <ele>129</ele>
        <time>2020-06-21T09:00:13Z</time>
      </trkpt>
      <trkpt lat="49.46995" lon="0.96814">
        <ele>128.9</ele>
        <time>2020-06-21T09:00:14Z</time>
      </trkpt>
      <trkpt lat="49.46994" lon="0.96812">
        <ele>128.9</ele>
        <time>2020-06-21T09:00:15Z</time>
      </trkpt>
      <trkpt lat="49.46992" lon="0.96805">
        <ele>128.8</ele>
        <time>2020-06-21T09:00:17Z</time>
      </trkpt>
      <trkpt lat="49.4699" lon="0.96798">
        <ele>128.7</ele>
        <time>2020-06-21T09:00:19Z</time>
      </trkpt>
      <trkpt lat="49.46989" lon="0.96794">
        <ele>128.6</ele>
        <time>2020-06-21T09:00:20Z</time>
      </trkpt>
      <trkpt lat="49.46985" lon="0.96786">
        <ele>128.5</ele>
        <time>2020-06-21T09:00:22Z</time>
      </trkpt>
      <trkpt lat="49.46981" lon="0.96779">
        <ele>128.4</ele>
        <time>2020-06-21T09:00:24Z</time>
      </trkpt>
      <trkpt lat="49.46977" lon="0.96773">
        <ele>128.2</ele>
        <time>2020-06-21T09:00:26Z</time>
      </trkpt>
      <trkpt lat="49.46973" lon="0.96766">
        <ele>128.1</ele>
        <time>2020-06-21T09:00:28Z</time>
      </trkpt>
      <trkpt lat="49.46969" lon="0.96756">
        <ele>127.9</ele>
        <time>2020-06-21T09:00:30Z</time>
      </trkpt>
      <trkpt lat="49.46966" lon="0.96748">
        <ele>127.8</ele>
        <time>2020-06-21T09:00:32Z</time>
      </trkpt>
      <trkpt lat="49.46962" lon="0.9674">
        <ele>127.7</ele>
        <time>2020-06-21T09:00:34Z</time>
      </trkpt>
      <trkpt lat="49.4696" lon="0.96737">
        <ele>127.6</ele>
        <time>2020-06-21T09:00:35Z</time>
      </trkpt>
      <trkpt lat="49.46958" lon="0.96733">
        <ele>127.6</ele>
        <time>2020-06-21T09:00:36Z</time>
      </trkpt>
      <trkpt lat="49.46955" lon="0.96725">
        <ele>127.4</ele>
        <time>2020-06-21T09:00:38Z</time>
      </trkpt>
      <trkpt lat="49.46953" lon="0.96721">
        <ele>127.3</ele>
        <time>2020-06-21T09:00:39Z</time>
      </trkpt>
      <trkpt lat="49.4695" lon="0.96714">
        <ele>127</ele>
        <time>2020-06-21T09:00:41Z</time>
      </trkpt>
      <trkpt lat="49.46947" lon="0.96706">
        <ele>126.7</ele>
        <time>2020-06-21T09:00:43Z</time>
      </trkpt>
      <trkpt lat="49.46945" lon="0.96701">
        <ele>126.5</ele>
        <time>2020-06-21T09:00:44Z</time>
      </trkpt>
      <trkpt lat="49.46942" lon="0.96696">
        <ele>126.3</ele>
        <time>2020-06-21T09:00:45Z</time>
      </trkpt>
      <trkpt lat="49.46939" lon="0.9669">
        <ele>126</ele>
        <time>2020-06-21T09:00:46Z</time>
      </trkpt>
      <trkpt lat="49.46936" lon="0.96686">
        <ele>125.8</ele>
        <time>2020-06-21T09:00:47Z</time>
      </trkpt>
      <trkpt lat="49.46929" lon="0.96677">
        <ele>125.5</ele>
        <time>2020-06-21T09:00:49Z</time>
      </trkpt>
      <trkpt lat="49.46927" lon="0.96672">
        <ele>125.3</ele>
        <time>2020-06-21T09:00:50Z</time>
      </trkpt>
      <trkpt lat="49.46924" lon="0.96667">
        <ele>125.2</ele>
        <time>2020-06-21T09:00:51Z</time>
      </trkpt>
      <trkpt lat="49.46921" lon="0.96663">
        <ele>125.1</ele>
        <time>2020-06-21T09:00:52Z</time>
      </trkpt>
      <trkpt lat="49.46919" lon="0.96658">
        <ele>124.9</ele>
        <time>2020-06-21T09:00:53Z</time>
      </trkpt>
      <trkpt lat="49.46912" lon="0.96646">
        <ele>124.6</ele>
        <time>2020-06-21T09:00:55Z</time>
      </trkpt>
      <trkpt lat="49.4691" lon="0.96641">
        <ele>124.5</ele>
        <time>2020-06-21T09:00:56Z</time>
      </trkpt>
      <trkpt lat="49.46905" lon="0.96633">
        <ele>124.2</ele>
        <time>2020-06-21T09:00:58Z</time>
      </trkpt>
      <trkpt lat="49.46903" lon="0.96629">
        <ele>124.1</ele>
        <time>2020-06-21T09:00:59Z</time>
      </trkpt>
      <trkpt lat="49.46899" lon="0.96621">
        <ele>123.9</ele>
        <time>2020-06-21T09:01:01Z</time>
      </trkpt>
      <trkpt lat="49.46896" lon="0.96616">
        <ele>123.8</ele>
        <time>2020-06-21T09:01:02Z</time>
      </trkpt>
      <trkpt lat="49.46891" lon="0.96607">
        <ele>123.6</ele>
        <time>2020-06-21T09:01:04Z</time>
      </trkpt>
      <trkpt lat="49.46889" lon="0.96603">
        <ele>123.5</ele>
        <time>2020-06-21T09:01:05Z</time>
      </trkpt>
      <trkpt lat="49.46887" lon="0.96599">
        <ele>123.4</ele>
        <time>2020-06-21T09:01:06Z</time>
      </trkpt>
      <trkpt lat="49.46882" lon="0.96591">
        <ele>123.2</ele>
        <time>2020-06-21T09:01:08Z</time>
      </trkpt>
      <trkpt lat="49.46879" lon="0.96586">
        <ele>123</ele>
        <time>2020-06-21T09:01:09Z</time>
      </trkpt>
      <trkpt lat="49.46877" lon="0.96581">
        <ele>122.9</ele>
        <time>2020-06-21T09:01:10Z</time>
      </trkpt>
      <trkpt lat="49.46872" lon="0.96573">
        <ele>122.6</ele>
        <time>2020-06-21T09:01:12Z</time>
      </trkpt>
      <trkpt lat="49.4687" lon="0.96569">
        <ele>122.4</ele>
        <time>2020-06-21T09:01:13Z</time>
      </trkpt>
      <trkpt lat="49.46868" lon="0.96565">
        <ele>122.3</ele>
        <time>2020-06-21T09:01:14Z</time>
      </trkpt>
      <trkpt lat="49.46862" lon="0.96554">
        <ele>121.9</ele>
        <time>2020-06-21T09:01:16Z</time>
      </trkpt>
      <trkpt lat="49.46855" lon="0.96542">
        <ele>121.4</ele>
        <time>2020-06-21T09:01:18Z</time>
      </trkpt>
      <trkpt lat="49.46852" lon="0.96535">
        <ele>121.2</ele>
        <time>2020-06-21T09:01:19Z</time>
      </trkpt>
      <trkpt lat="49.46849" lon="0.96529">
        <ele>120.9</ele>
        <time>2020-06-21T09:01:20Z</time>
      </trkpt>
      <trkpt lat="49.46844" lon="0.96517">
        <ele>120.6</ele>
        <time>2020-06-21T09:01:22Z</time>
      </trkpt>
      <trkpt lat="49.46841" lon="0.96511">
        <ele>120.4</ele>
        <time>2020-06-21T09:01:23Z</time>
      </trkpt>
      <trkpt lat="49.46835" lon="0.96501">
        <ele>120.1</ele>
        <time>2020-06-21T09:01:25Z</time>
      </trkpt>
      <trkpt lat="49.46833" lon="0.96496">
        <ele>120</ele>
        <time>2020-06-21T09:01:26Z</time>
      </trkpt>
      <trkpt lat="49.46827" lon="0.96487">
        <ele>119.7</ele>
        <time>2020-06-21T09:01:28Z</time>
      </trkpt>
      <trkpt lat="49.46824" lon="0.96482">
        <ele>119.6</ele>
        <time>2020-06-21T09:01:29Z</time>
      </trkpt>
      <trkpt lat="49.46819" lon="0.96472">
        <ele>119.3</ele>
        <time>2020-06-21T09:01:31Z</time>
      </trkpt>
      <trkpt lat="49.46814" lon="0.96464">
        <ele>119</ele>
        <time>2020-06-21T09:01:33Z</time>
      </trkpt>
      <trkpt lat="49.46811" lon="0.96459">
        <ele>118.8</ele>
        <time>2020-06-21T09:01:34Z</time>
      </trkpt>
      <trkpt lat="49.46806" lon="0.96448">
        <ele>118.4</ele>
        <time>2020-06-21T09:01:36Z</time>
      </trkpt>
      <trkpt lat="49.46801" lon="0.96436">
        <ele>118.4</ele>
        <time>2020-06-21T09:01:38Z</time>
      </trkpt>
      <trkpt lat="49.46798" lon="0.96423">
        <ele>118.6</ele>
        <time>2020-06-21T09:01:40Z</time>
      </trkpt>
      <trkpt lat="49.46796" lon="0.96414">
        <ele>118.7</ele>
        <time>2020-06-21T09:01:42Z</time>
      </trkpt>
      <trkpt lat="49.46795" lon="0.96407">
        <ele>118.8</ele>
        <time>2020-06-21T09:01:43Z</time>
      </trkpt>
      <trkpt lat="49.46793" lon="0.96395">
        <ele>119.1</ele>
        <time>2020-06-21T09:01:45Z</time>
      </trkpt>
      <trkpt lat="49.46793" lon="0.96387">
        <ele>119.2</ele>
        <time>2020-06-21T09:01:46Z</time>
      </trkpt>
      <trkpt lat="49.46792" lon="0.96381">
        <ele>119.4</ele>
        <time>2020-06-21T09:01:47Z</time>
      </trkpt>
      <trkpt lat="49.46792" lon="0.96374">
        <ele>119.6</ele>
        <time>2020-06-21T09:01:48Z</time>
      </trkpt>
      <trkpt lat="49.46791" lon="0.96366">
        <ele>119.8</ele>
        <time>2020-06-21T09:01:50Z</time>
      </trkpt>
      <trkpt lat="49.46791" lon="0.96359">
        <ele>120.1</ele>
        <time>2020-06-21T09:01:51Z</time>
      </trkpt>
      <trkpt lat="49.46791" lon="0.96352">
        <ele>120.3</ele>
        <time>2020-06-21T09:01:52Z</time>
      </trkpt>
      <trkpt lat="49.4679" lon="0.96344">
        <ele>120.6</ele>
        <time>2020-06-21T09:01:53Z</time>
      </trkpt>
      <trkpt lat="49.4679" lon="0.96337">
        <ele>120.8</ele>
        <time>2020-06-21T09:01:55Z</time>
      </trkpt>
      <trkpt lat="49.4679" lon="0.9633">
        <ele>121</ele>
        <time>2020-06-21T09:01:56Z</time>
      </trkpt>
      <trkpt lat="49.4679" lon="0.96322">
        <ele>121.3</ele>
        <time>2020-06-21T09:01:57Z</time>
      </trkpt>
      <trkpt lat="49.46789" lon="0.96315">
        <ele>121.5</ele>
        <time>2020-06-21T09:01:59Z</time>
      </trkpt>
      <trkpt lat="49.46789" lon="0.9631">
        <ele>121.7</ele>
        <time>2020-06-21T09:02:00Z</time>
      </trkpt>
      <trkpt lat="49.46788" lon="0.96305">
        <ele>121.8</ele>
        <time>2020-06-21T09:02:01Z</time>
      </trkpt>
      <trkpt lat="49.46788" lon="0.96301">
        <ele>121.9</ele>
        <time>2020-06-21T09:02:02Z</time>
      </trkpt>
      <trkpt lat="49.46786" lon="0.96295">
        <ele>122.2</ele>
        <time>2020-06-21T09:02:04Z</time>
      </trkpt>
      <trkpt lat="49.46785" lon="0.9629">
        <ele>122.3</ele>
        <time>2020-06-21T09:02:05Z</time>
      </trkpt>
      <trkpt lat="49.46783" lon="0.96281">
        <ele>122.5</ele>
        <time>2020-06-21T09:02:07Z</time>
      </trkpt>
      <trkpt lat="49.46781" lon="0.96273">
        <ele>122.8</ele>
        <time>2020-06-21T09:02:08Z</time>
      </trkpt>
      <trkpt lat="49.46779" lon="0.96265">
        <ele>123</ele>
        <time>2020-06-21T09:02:10Z</time>
      </trkpt>
      <trkpt lat="49.46778" lon="0.96259">
        <ele>123.2</ele>
        <time>2020-06-21T09:02:11Z</time>
      </trkpt>
      <trkpt lat="49.46776" lon="0.96252">
        <ele>123.3</ele>
        <time>2020-06-21T09:02:12Z</time>
      </trkpt>
      <trkpt lat="49.46773" lon="0.96244">
        <ele>123.4</ele>
        <time>2020-06-21T09:02:14Z</time>
      </trkpt>
      <trkpt lat="49.46771" lon="0.96238">
        <ele>123.5</ele>
        <time>2020-06-21T09:02:15Z</time>
      </trkpt>
      <trkpt lat="49.46767" lon="0.96229">
        <ele>123.7</ele>
        <time>2020-06-21T09:02:17Z</time>
      </trkpt>
      <trkpt lat="49.46765" lon="0.96223">
        <ele>123.9</ele>
        <time>2020-06-21T09:02:18Z</time>
      </trkpt>
      <trkpt lat="49.46763" lon="0.96219">
        <ele>124</ele>
        <time>2020-06-21T09:02:19Z</time>
      </trkpt>
      <trkpt lat="49.4676" lon="0.96213">
        <ele>124.1</ele>
        <time>2020-06-21T09:02:20Z</time>
      </trkpt>
      <trkpt lat="49.46757" lon="0.96208">
        <ele>124.2</ele>
        <time>2020-06-21T09:02:22Z</time>
      </trkpt>
      <trkpt lat="49.46753" lon="0.96202">
        <ele>124.4</ele>
        <time>2020-06-21T09:02:24Z</time>
      </trkpt>
      <trkpt lat="49.46749" lon="0.96197">
        <ele>124.5</ele>
        <time>2020-06-21T09:02:25Z</time>
      </trkpt>
      <trkpt lat="49.46745" lon="0.96193">
        <ele>124.7</ele>
        <time>2020-06-21T09:02:26Z</time>
      </trkpt>
      <trkpt lat="49.46741" lon="0.96191">
        <ele>124.7</ele>
        <time>2020-06-21T09:02:28Z</time>
      </trkpt>
      <trkpt lat="49.46737" lon="0.96189">
        <ele>124.8</ele>
        <time>2020-06-21T09:02:29Z</time>
      </trkpt>
      <trkpt lat="49.46732" lon="0.96188">
        <ele>124.9</ele>
        <time>2020-06-21T09:02:30Z</time>
      </trkpt>
      <trkpt lat="49.46727" lon="0.96187">
        <ele>125</ele>
        <time>2020-06-21T09:02:31Z</time>
      </trkpt>
      <trkpt lat="49.46722" lon="0.96188">
        <ele>125.1</ele>
        <time>2020-06-21T09:02:33Z</time>
      </trkpt>
      <trkpt lat="49.46719" lon="0.96189">
        <ele>125.2</ele>
        <time>2020-06-21T09:02:34Z</time>
      </trkpt>
      <trkpt lat="49.46715" lon="0.96189">
        <ele>125.4</ele>
        <time>2020-06-21T09:02:36Z</time>
      </trkpt>
      <trkpt lat="49.46712" lon="0.96189">
        <ele>125.5</ele>
        <time>2020-06-21T09:02:37Z</time>
      </trkpt>
      <trkpt lat="49.46709" lon="0.96189">
        <ele>125.6</ele>
        <time>2020-06-21T09:02:38Z</time>
      </trkpt>
      <trkpt lat="49.46704" lon="0.96189">
        <ele>125.7</ele>
        <time>2020-06-21T09:02:39Z</time>
      </trkpt>
      <trkpt lat="49.46703" lon="0.96188">
        <ele>125.8</ele>
        <time>2020-06-21T09:02:40Z</time>
      </trkpt>
      <trkpt lat="49.46699" lon="0.96188">
        <ele>125.9</ele>
        <time>2020-06-21T09:02:42Z</time>
      </trkpt>
      <trkpt lat="49.46695" lon="0.96189">
        <ele>126</ele>
        <time>2020-06-21T09:02:43Z</time>
      </trkpt>
      <trkpt lat="49.4669" lon="0.96189">
        <ele>126.2</ele>
        <time>2020-06-21T09:02:45Z</time>
      </trkpt>
      <trkpt lat="49.46686" lon="0.9619">
        <ele>126.3</ele>
        <time>2020-06-21T09:02:46Z</time>
      </trkpt>
      <trkpt lat="49.4668" lon="0.9619">
        <ele>126.5</ele>
        <time>2020-06-21T09:02:48Z</time>
      </trkpt>
      <trkpt lat="49.46675" lon="0.96191">
        <ele>126.6</ele>
        <time>2020-06-21T09:02:49Z</time>
      </trkpt>
      <trkpt lat="49.4667" lon="0.96193">
        <ele>126.7</ele>
        <time>2020-06-21T09:02:50Z</time>
      </trkpt>
      <trkpt lat="49.46664" lon="0.96194">
        <ele>126.9</ele>
        <time>2020-06-21T09:02:51Z</time>
      </trkpt>
      <trkpt lat="49.4666" lon="0.96196">
        <ele>127</ele>
        <time>2020-06-21T09:02:53Z</time>
      </trkpt>
      <trkpt lat="49.46656" lon="0.96198">
        <ele>127.1</ele>
        <time>2020-06-21T09:02:54Z</time>
      </trkpt>
      <trkpt lat="49.46652" lon="0.96199">
        <ele>127.2</ele>
        <time>2020-06-21T09:02:55Z</time>
      </trkpt>
      <trkpt lat="49.46648" lon="0.96201">
        <ele>127.3</ele>
        <time>2020-06-21T09:02:56Z</time>
      </trkpt>
      <trkpt lat="49.46644" lon="0.96201">
        <ele>127.3</ele>
        <time>2020-06-21T09:02:58Z</time>
      </trkpt>
      <trkpt lat="49.4664" lon="0.96202">
        <ele>127.4</ele>
        <time>2020-06-21T09:02:59Z</time>
      </trkpt>
      <trkpt lat="49.46635" lon="0.96204">
        <ele>127.4</ele>
        <time>2020-06-21T09:03:00Z</time>
      </trkpt>
      <trkpt lat="49.4663" lon="0.96205">
        <ele>127.5</ele>
        <time>2020-06-21T09:03:02Z</time>
      </trkpt>
      <trkpt lat="49.46627" lon="0.96206">
        <ele>127.6</ele>
        <time>2020-06-21T09:03:03Z</time>
      </trkpt>
      <trkpt lat="49.46621" lon="0.96209">
        <ele>127.7</ele>
        <time>2020-06-21T09:03:05Z</time>
      </trkpt>
      <trkpt lat="49.46614" lon="0.96211">
        <ele>127.8</ele>
        <time>2020-06-21T09:03:07Z</time>
      </trkpt>
      <trkpt lat="49.46609" lon="0.96212">
        <ele>127.8</ele>
        <time>2020-06-21T09:03:08Z</time>
      </trkpt>
      <trkpt lat="49.46604" lon="0.96214">
        <ele>127.8</ele>
        <time>2020-06-21T09:03:09Z</time>
      </trkpt>
      <trkpt lat="49.46598" lon="0.96216">
        <ele>127.8</ele>
        <time>2020-06-21T09:03:11Z</time>
      </trkpt>
      <trkpt lat="49.46594" lon="0.96218">
        <ele>127.8</ele>
        <time>2020-06-21T09:03:12Z</time>
      </trkpt>
      <trkpt lat="49.46589" lon="0.96221">
        <ele>127.9</ele>
        <time>2020-06-21T09:03:13Z</time>
      </trkpt>
      <trkpt lat="49.46584" lon="0.96224">
        <ele>127.9</ele>
        <time>2020-06-21T09:03:15Z</time>
      </trkpt>
      <trkpt lat="49.46578" lon="0.96227">
        <ele>127.9</ele>
        <time>2020-06-21T09:03:17Z</time>
      </trkpt>
      <trkpt lat="49.46574" lon="0.96228">
        <ele>127.9</ele>
        <time>2020-06-21T09:03:18Z</time>
      </trkpt>
      <trkpt lat="49.46571" lon="0.9623">
        <ele>128</ele>
        <time>2020-06-21T09:03:19Z</time>
      </trkpt>
      <trkpt lat="49.46566" lon="0.96233">
        <ele>128</ele>
        <time>2020-06-21T09:03:21Z</time>
      </trkpt>
      <trkpt lat="49.46561" lon="0.96236">
        <ele>127.9</ele>
        <time>2020-06-21T09:03:22Z</time>
      </trkpt>
      <trkpt lat="49.46557" lon="0.96237">
        <ele>127.9</ele>
        <time>2020-06-21T09:03:23Z</time>
      </trkpt>
      <trkpt lat="49.46553" lon="0.96239">
        <ele>127.8</ele>
        <time>2020-06-21T09:03:24Z</time>
      </trkpt>
      <trkpt lat="49.4655" lon="0.96241">
        <ele>127.8</ele>
        <time>2020-06-21T09:03:25Z</time>
      </trkpt>
      <trkpt lat="49.46544" lon="0.96244">
        <ele>127.7</ele>
        <time>2020-06-21T09:03:26Z</time>
      </trkpt>
      <trkpt lat="49.46539" lon="0.96247">
        <ele>127.7</ele>
        <time>2020-06-21T09:03:28Z</time>
      </trkpt>
      <trkpt lat="49.46533" lon="0.9625">
        <ele>127.6</ele>
        <time>2020-06-21T09:03:29Z</time>
      </trkpt>
      <trkpt lat="49.46526" lon="0.96255">
        <ele>127.5</ele>
        <time>2020-06-21T09:03:31Z</time>
      </trkpt>
      <trkpt lat="49.46522" lon="0.96257">
        <ele>127.4</ele>
        <time>2020-06-21T09:03:32Z</time>
      </trkpt>
      <trkpt lat="49.46517" lon="0.96261">
        <ele>127.3</ele>
        <time>2020-06-21T09:03:33Z</time>
      </trkpt>
      <trkpt lat="49.4651" lon="0.96264">
        <ele>127.3</ele>
        <time>2020-06-21T09:03:35Z</time>
      </trkpt>
      <trkpt lat="49.46506" lon="0.96265">
        <ele>127.3</ele>
        <time>2020-06-21T09:03:36Z</time>
      </trkpt>
      <trkpt lat="49.465" lon="0.96269">
        <ele>127.3</ele>
        <time>2020-06-21T09:03:38Z</time>
      </trkpt>
      <trkpt lat="49.46496" lon="0.96271">
        <ele>127.3</ele>
        <time>2020-06-21T09:03:39Z</time>
      </trkpt>
      <trkpt lat="49.4649" lon="0.96273">
        <ele>127.3</ele>
        <time>2020-06-21T09:03:41Z</time>
      </trkpt>
      <trkpt lat="49.46484" lon="0.96276">
        <ele>127.3</ele>
        <time>2020-06-21T09:03:42Z</time>
      </trkpt>
      <trkpt lat="49.46481" lon="0.96277">
        <ele>127.2</ele>
        <time>2020-06-21T09:03:44Z</time>
      </trkpt>
      <trkpt lat="49.46477" lon="0.96278">
        <ele>127.2</ele>
        <time>2020-06-21T09:03:45Z</time>
      </trkpt>
      <trkpt lat="49.46474" lon="0.96279">
        <ele>127.2</ele>
        <time>2020-06-21T09:03:46Z</time>
      </trkpt>
      <trkpt lat="49.46471" lon="0.9628">
        <ele>127.1</ele>
        <time>2020-06-21T09:03:47Z</time>
      </trkpt>
      <trkpt lat="49.46467" lon="0.96281">
        <ele>127.1</ele>
        <time>2020-06-21T09:03:49Z</time>
      </trkpt>
      <trkpt lat="49.46463" lon="0.96281">
        <ele>127.1</ele>
        <time>2020-06-21T09:03:50Z</time>
      </trkpt>
      <trkpt lat="49.46459" lon="0.96281">
        <ele>127.1</ele>
        <time>2020-06-21T09:03:52Z</time>
      </trkpt>
      <trkpt lat="49.46456" lon="0.96281">
        <ele>127.1</ele>
        <time>2020-06-21T09:03:53Z</time>
      </trkpt>
      <trkpt lat="49.46451" lon="0.96281">
        <ele>127.1</ele>
        <time>2020-06-21T09:03:55Z</time>
      </trkpt>
      <trkpt lat="49.46447" lon="0.9628">
        <ele>127.1</ele>
        <time>2020-06-21T09:03:57Z</time>
      </trkpt>
      <trkpt lat="49.46443" lon="0.9628">
        <ele>127.1</ele>
        <time>2020-06-21T09:03:58Z</time>
      </trkpt>
      <trkpt lat="49.4644" lon="0.9628">
        <ele>127.1</ele>
        <time>2020-06-21T09:03:59Z</time>
      </trkpt>
      <trkpt lat="49.46436" lon="0.9628">
        <ele>127.1</ele>
        <time>2020-06-21T09:04:01Z</time>
      </trkpt>
      <trkpt lat="49.46433" lon="0.9628">
        <ele>127.1</ele>
        <time>2020-06-21T09:04:02Z</time>
      </trkpt>
      <trkpt lat="49.4643" lon="0.9628">
        <ele>127.1</ele>
        <time>2020-06-21T09:04:03Z</time>
      </trkpt>
      <trkpt lat="49.46428" lon="0.9628">
        <ele>127.1</ele>
        <time>2020-06-21T09:04:04Z</time>
      </trkpt>
      <trkpt lat="49.46425" lon="0.9628">
        <ele>127.1</ele>
        <time>2020-06-21T09:04:05Z</time>
      </trkpt>
      <trkpt lat="49.46423" lon="0.9628">
        <ele>127.1</ele>
        <time>2020-06-21T09:04:06Z</time>
      </trkpt>
      <trkpt lat="49.4642" lon="0.96279">
        <ele>127.1</ele>
        <time>2020-06-21T09:04:08Z</time>
      </trkpt>
      <trkpt lat="49.46418" lon="0.9628">
        <ele>127.1</ele>
        <time>2020-06-21T09:04:09Z</time>
      </trkpt>
      <trkpt lat="49.46415" lon="0.96279">
        <ele>127.1</ele>
        <time>2020-06-21T09:04:11Z</time>
      </trkpt>
      <trkpt lat="49.46413" lon="0.9628">
        <ele>127.1</ele>
        <time>2020-06-21T09:04:13Z</time>
      </trkpt>
      <trkpt lat="49.46412" lon="0.96279">
        <ele>127.1</ele>
        <time>2020-06-21T09:04:14Z</time>
      </trkpt>
      <trkpt lat="49.46412" lon="0.9628">
        <ele>127.1</ele>
        <time>2020-06-21T09:04:15Z</time>
      </trkpt>
      <trkpt lat="49.46411" lon="0.96279">
        <ele>127.1</ele>
        <time>2020-06-21T09:04:16Z</time>
      </trkpt>
      <trkpt lat="49.46412" lon="0.96279">
        <ele>127.1</ele>
        <time>2020-06-21T09:04:18Z</time>
      </trkpt>
      <trkpt lat="49.46411" lon="0.96279">
        <ele>127.1</ele>
        <time>2020-06-21T09:04:20Z</time>
      </trkpt>
      <trkpt lat="49.46411" lon="0.96278">
        <ele>127.1</ele>
        <time>2020-06-21T09:04:22Z</time>
      </trkpt>
      <trkpt lat="49.46411" lon="0.96278">
        <ele>127.1</ele>
        <time>2020-06-21T09:04:24Z</time>
      </trkpt>
      <trkpt lat="49.46411" lon="0.96278">
        <ele>127.1</ele>
        <time>2020-06-21T09:04:25Z</time>
      </trkpt>
      <trkpt lat="49.46411" lon="0.96278">
        <ele>127.1</ele>
        <time>2020-06-21T09:04:26Z</time>
      </trkpt>
      <trkpt lat="49.46411" lon="0.96278">
        <ele>127.1</ele>
        <time>2020-06-21T09:04:28Z</time>
      </trkpt>
      <trkpt lat="49.46411" lon="0.96278">
        <ele>127.1</ele>
        <time>2020-06-21T09:04:30Z</time>
      </trkpt>
      <trkpt lat="49.46411" lon="0.96278">
        <ele>127.1</ele>
        <time>2020-06-21T09:04:32Z</time>
      </trkpt>
      <trkpt lat="49.46411" lon="0.96279">
        <ele>127.1</ele>
        <time>2020-06-21T09:04:34Z</time>
      </trkpt>
      <trkpt lat="49.46411" lon="0.9628">
        <ele>127.1</ele>
        <time>2020-06-21T09:04:35Z</time>
      </trkpt>
      <trkpt lat="49.46411" lon="0.9628">
        <ele>127.1</ele>
        <time>2020-06-21T09:04:37Z</time>
      </trkpt>
      <trkpt lat="49.46411" lon="0.9628">
        <ele>127.1</ele>
        <time>2020-06-21T09:04:39Z</time>
      </trkpt>
      <trkpt lat="49.46411" lon="0.9628">
        <ele>127.1</ele>
        <time>2020-06-21T09:04:40Z</time>
      </trkpt>
      <trkpt lat="49.46411" lon="0.9628">
        <ele>127.1</ele>
        <time>2020-06-21T09:04:42Z</time>
      </trkpt>
      <trkpt lat="49.46411" lon="0.9628">
        <ele>127.1</ele>
        <time>2020-06-21T09:04:43Z</time>
      </trkpt>
      <trkpt lat="49.46411" lon="0.96281">
        <ele>124.2</ele>
        <time>2020-06-21T09:04:45Z</time>
      </trkpt>
      <trkpt lat="49.46411" lon="0.96281">
        <ele>124.2</ele>
        <time>2020-06-21T09:04:46Z</time>
      </trkpt>
      <trkpt lat="49.46411" lon="0.96281">
        <ele>124.2</ele>
        <time>2020-06-21T09:04:47Z</time>
      </trkpt>
      <trkpt lat="49.46411" lon="0.96281">
        <ele>124.2</ele>
        <time>2020-06-21T09:04:49Z</time>
      </trkpt>
      <trkpt lat="49.46411" lon="0.9628">
        <ele>127.1</ele>
        <time>2020-06-21T09:04:50Z</time>
      </trkpt>
      <trkpt lat="49.46411" lon="0.9628">
        <ele>127.1</ele>
        <time>2020-06-21T09:04:51Z</time>
      </trkpt>
      <trkpt lat="49.4641" lon="0.9628">
        <ele>127.1</ele>
        <time>2020-06-21T09:04:53Z</time>
      </trkpt>
      <trkpt lat="49.4641" lon="0.96279">
        <ele>127.1</ele>
        <time>2020-06-21T09:04:54Z</time>
      </trkpt>
      <trkpt lat="49.4641" lon="0.96278">
        <ele>127.1</ele>
        <time>2020-06-21T09:04:56Z</time>
      </trkpt>
      <trkpt lat="49.4641" lon="0.96278">
        <ele>127.1</ele>
        <time>2020-06-21T09:04:58Z</time>
      </trkpt>
      <trkpt lat="49.4641" lon="0.96278">
        <ele>127.1</ele>
        <time>2020-06-21T09:04:59Z</time>
      </trkpt>
      <trkpt lat="49.4641" lon="0.96277">
        <ele>127</ele>
        <time>2020-06-21T09:05:01Z</time>
      </trkpt>
      <trkpt lat="49.46409" lon="0.96277">
        <ele>127</ele>
        <time>2020-06-21T09:05:02Z</time>
      </trkpt>
      <trkpt lat="49.46409" lon="0.96276">
        <ele>127</ele>
        <time>2020-06-21T09:05:04Z</time>
      </trkpt>
      <trkpt lat="49.46409" lon="0.96276">
        <ele>127</ele>
        <time>2020-06-21T09:05:06Z</time>
      </trkpt>
      <trkpt lat="49.46408" lon="0.96276">
        <ele>127</ele>
        <time>2020-06-21T09:05:07Z</time>
      </trkpt>
      <trkpt lat="49.46408" lon="0.96275">
        <ele>127</ele>
        <time>2020-06-21T09:05:08Z</time>
      </trkpt>
      <trkpt lat="49.46407" lon="0.96275">
        <ele>127</ele>
        <time>2020-06-21T09:05:10Z</time>
      </trkpt>
      <trkpt lat="49.46405" lon="0.96275">
        <ele>126.9</ele>
        <time>2020-06-21T09:05:11Z</time>
      </trkpt>
      <trkpt lat="49.46403" lon="0.96276">
        <ele>126.9</ele>
        <time>2020-06-21T09:05:13Z</time>
      </trkpt>
      <trkpt lat="49.46399" lon="0.96277">
        <ele>126.7</ele>
        <time>2020-06-21T09:05:14Z</time>
      </trkpt>
      <trkpt lat="49.46397" lon="0.96278">
        <ele>126.7</ele>
        <time>2020-06-21T09:05:15Z</time>
      </trkpt>
      <trkpt lat="49.46394" lon="0.96281">
        <ele>126.5</ele>
        <time>2020-06-21T09:05:17Z</time>
      </trkpt>
      <trkpt lat="49.46391" lon="0.96284">
        <ele>126.4</ele>
        <time>2020-06-21T09:05:18Z</time>
      </trkpt>
      <trkpt lat="49.46387" lon="0.96288">
        <ele>126.1</ele>
        <time>2020-06-21T09:05:19Z</time>
      </trkpt>
      <trkpt lat="49.46384" lon="0.96292">
        <ele>125.9</ele>
        <time>2020-06-21T09:05:21Z</time>
      </trkpt>
      <trkpt lat="49.46381" lon="0.96296">
        <ele>125.7</ele>
        <time>2020-06-21T09:05:22Z</time>
      </trkpt>
      <trkpt lat="49.46379" lon="0.96299">
        <ele>125.5</ele>
        <time>2020-06-21T09:05:23Z</time>
      </trkpt>
      <trkpt lat="49.46375" lon="0.96303">
        <ele>125.2</ele>
        <time>2020-06-21T09:05:24Z</time>
      </trkpt>
      <trkpt lat="49.46371" lon="0.96308">
        <ele>124.1</ele>
        <time>2020-06-21T09:05:26Z</time>
      </trkpt>
      <trkpt lat="49.46367" lon="0.96313">
        <ele>123.3</ele>
        <time>2020-06-21T09:05:27Z</time>
      </trkpt>
      <trkpt lat="49.46365" lon="0.96317">
        <ele>122.8</ele>
        <time>2020-06-21T09:05:28Z</time>
      </trkpt>
      <trkpt lat="49.46364" lon="0.96321">
        <ele>122.3</ele>
        <time>2020-06-21T09:05:29Z</time>
      </trkpt>
      <trkpt lat="49.46366" lon="0.96332">
        <ele>121.1</ele>
        <time>2020-06-21T09:05:31Z</time>
      </trkpt>
      <trkpt lat="49.46367" lon="0.96343">
        <ele>120</ele>
        <time>2020-06-21T09:05:33Z</time>
      </trkpt>
      <trkpt lat="49.46367" lon="0.96352">
        <ele>119.1</ele>
        <time>2020-06-21T09:05:34Z</time>
      </trkpt>
      <trkpt lat="49.46367" lon="0.96364">
        <ele>117.9</ele>
        <time>2020-06-21T09:05:35Z</time>
      </trkpt>
      <trkpt lat="49.46365" lon="0.9637">
        <ele>117.2</ele>
        <time>2020-06-21T09:05:36Z</time>
      </trkpt>
      <trkpt lat="49.46363" lon="0.96377">
        <ele>116.4</ele>
        <time>2020-06-21T09:05:37Z</time>
      </trkpt>
      <trkpt lat="49.46361" lon="0.96381">
        <ele>115.9</ele>
        <time>2020-06-21T09:05:38Z</time>
      </trkpt>
      <trkpt lat="49.46356" lon="0.96382">
        <ele>115.1</ele>
        <time>2020-06-21T09:05:39Z</time>
      </trkpt>
      <trkpt lat="49.46351" lon="0.96382">
        <ele>114.3</ele>
        <time>2020-06-21T09:05:41Z</time>
      </trkpt>
      <trkpt lat="49.46347" lon="0.96383">
        <ele>113.6</ele>
        <time>2020-06-21T09:05:42Z</time>
      </trkpt>
      <trkpt lat="49.46345" lon="0.96385">
        <ele>113.2</ele>
        <time>2020-06-21T09:05:44Z</time>
      </trkpt>
      <trkpt lat="49.46345" lon="0.96386">
        <ele>113.1</ele>
        <time>2020-06-21T09:05:45Z</time>
      </trkpt>
      <trkpt lat="49.46346" lon="0.96388">
        <ele>112.8</ele>
        <time>2020-06-21T09:05:47Z</time>
      </trkpt>
      <trkpt lat="49.46347" lon="0.9639">
        <ele>112.5</ele>
        <time>2020-06-21T09:05:48Z</time>
      </trkpt>
      <trkpt lat="49.46347" lon="0.96395">
        <ele>112</ele>
        <time>2020-06-21T09:05:49Z</time>
      </trkpt>
      <trkpt lat="49.46347" lon="0.96397">
        <ele>111.8</ele>
        <time>2020-06-21T09:05:50Z</time>
      </trkpt>
      <trkpt lat="49.46346" lon="0.96403">
        <ele>111.2</ele>
        <time>2020-06-21T09:05:52Z</time>
      </trkpt>
      <trkpt lat="49.46347" lon="0.96408">
        <ele>110.6</ele>
        <time>2020-06-21T09:05:53Z</time>
      </trkpt>
      <trkpt lat="49.46347" lon="0.96417">
        <ele>109.7</ele>
        <time>2020-06-21T09:05:55Z</time>
      </trkpt>
      <trkpt lat="49.46346" lon="0.96421">
        <ele>109.2</ele>
        <time>2020-06-21T09:05:56Z</time>
      </trkpt>
      <trkpt lat="49.46343" lon="0.96435">
        <ele>107.8</ele>
        <time>2020-06-21T09:05:58Z</time>
      </trkpt>
      <trkpt lat="49.46343" lon="0.96439">
        <ele>107.4</ele>
        <time>2020-06-21T09:05:59Z</time>
      </trkpt>
      <trkpt lat="49.46346" lon="0.96443">
        <ele>106.8</ele>
        <time>2020-06-21T09:06:00Z</time>
      </trkpt>
      <trkpt lat="49.46347" lon="0.96444">
        <ele>106.6</ele>
        <time>2020-06-21T09:06:01Z</time>
      </trkpt>
      <trkpt lat="49.46349" lon="0.96445">
        <ele>106.3</ele>
        <time>2020-06-21T09:06:02Z</time>
      </trkpt>
      <trkpt lat="49.4635" lon="0.96447">
        <ele>106</ele>
        <time>2020-06-21T09:06:04Z</time>
      </trkpt>
      <trkpt lat="49.46351" lon="0.96448">
        <ele>105.8</ele>
        <time>2020-06-21T09:06:05Z</time>
      </trkpt>
      <trkpt lat="49.46351" lon="0.96449">
        <ele>105.7</ele>
        <time>2020-06-21T09:06:07Z</time>
      </trkpt>
      <trkpt lat="49.46352" lon="0.96451">
        <ele>105.5</ele>
        <time>2020-06-21T09:06:08Z</time>
      </trkpt>
      <trkpt lat="49.46353" lon="0.96454">
        <ele>105.1</ele>
        <time>2020-06-21T09:06:09Z</time>
      </trkpt>
      <trkpt lat="49.46353" lon="0.96459">
        <ele>104.6</ele>
        <time>2020-06-21T09:06:12Z</time>
      </trkpt>
      <trkpt lat="49.46352" lon="0.96464">
        <ele>104</ele>
        <time>2020-06-21T09:06:13Z</time>
      </trkpt>
      <trkpt lat="49.46351" lon="0.96466">
        <ele>103.8</ele>
        <time>2020-06-21T09:06:14Z</time>
      </trkpt>
      <trkpt lat="49.46349" lon="0.96469">
        <ele>103.3</ele>
        <time>2020-06-21T09:06:15Z</time>
      </trkpt>
      <trkpt lat="49.46346" lon="0.96471">
        <ele>102.8</ele>
        <time>2020-06-21T09:06:17Z</time>
      </trkpt>
      <trkpt lat="49.46345" lon="0.96472">
        <ele>102.6</ele>
        <time>2020-06-21T09:06:18Z</time>
      </trkpt>
      <trkpt lat="49.46343" lon="0.96475">
        <ele>102.1</ele>
        <time>2020-06-21T09:06:20Z</time>
      </trkpt>
      <trkpt lat="49.46342" lon="0.96476">
        <ele>102</ele>
        <time>2020-06-21T09:06:21Z</time>
      </trkpt>
      <trkpt lat="49.46341" lon="0.96478">
        <ele>101.7</ele>
        <time>2020-06-21T09:06:23Z</time>
      </trkpt>
      <trkpt lat="49.4634" lon="0.9648">
        <ele>101.5</ele>
        <time>2020-06-21T09:06:24Z</time>
      </trkpt>
      <trkpt lat="49.46339" lon="0.96481">
        <ele>101.3</ele>
        <time>2020-06-21T09:06:26Z</time>
      </trkpt>
      <trkpt lat="49.46338" lon="0.96481">
        <ele>101.2</ele>
        <time>2020-06-21T09:06:27Z</time>
      </trkpt>
      <trkpt lat="49.46338" lon="0.96481">
        <ele>101.1</ele>
        <time>2020-06-21T09:06:29Z</time>
      </trkpt>
      <trkpt lat="49.46337" lon="0.96481">
        <ele>101</ele>
        <time>2020-06-21T09:06:30Z</time>
      </trkpt>
      <trkpt lat="49.46336" lon="0.96481">
        <ele>100.9</ele>
        <time>2020-06-21T09:06:31Z</time>
      </trkpt>
      <trkpt lat="49.46336" lon="0.96482">
        <ele>100.7</ele>
        <time>2020-06-21T09:06:33Z</time>
      </trkpt>
      <trkpt lat="49.46335" lon="0.96484">
        <ele>100.5</ele>
        <time>2020-06-21T09:06:34Z</time>
      </trkpt>
      <trkpt lat="49.46335" lon="0.96486">
        <ele>100.2</ele>
        <time>2020-06-21T09:06:36Z</time>
      </trkpt>
      <trkpt lat="49.46335" lon="0.96492">
        <ele>99.7</ele>
        <time>2020-06-21T09:06:37Z</time>
      </trkpt>
      <trkpt lat="49.46335" lon="0.96493">
        <ele>99.5</ele>
        <time>2020-06-21T09:06:38Z</time>
      </trkpt>
      <trkpt lat="49.46334" lon="0.96496">
        <ele>99.2</ele>
        <time>2020-06-21T09:06:40Z</time>
      </trkpt>
      <trkpt lat="49.46333" lon="0.96501">
        <ele>98.7</ele>
        <time>2020-06-21T09:06:42Z</time>
      </trkpt>
      <trkpt lat="49.46331" lon="0.96505">
        <ele>98.1</ele>
        <time>2020-06-21T09:06:43Z</time>
      </trkpt>
      <trkpt lat="49.46329" lon="0.9651">
        <ele>97.6</ele>
        <time>2020-06-21T09:06:45Z</time>
      </trkpt>
      <trkpt lat="49.46328" lon="0.96516">
        <ele>96.9</ele>
        <time>2020-06-21T09:06:47Z</time>
      </trkpt>
      <trkpt lat="49.46325" lon="0.96521">
        <ele>96.3</ele>
        <time>2020-06-21T09:06:48Z</time>
      </trkpt>
      <trkpt lat="49.46325" lon="0.96523">
        <ele>96.1</ele>
        <time>2020-06-21T09:06:49Z</time>
      </trkpt>
      <trkpt lat="49.46323" lon="0.96526">
        <ele>95.6</ele>
        <time>2020-06-21T09:06:50Z</time>
      </trkpt>
      <trkpt lat="49.4632" lon="0.9653">
        <ele>95</ele>
        <time>2020-06-21T09:06:52Z</time>
      </trkpt>
      <trkpt lat="49.46318" lon="0.96531">
        <ele>94.7</ele>
        <time>2020-06-21T09:06:53Z</time>
      </trkpt>
      <trkpt lat="49.46317" lon="0.96531">
        <ele>94.5</ele>
        <time>2020-06-21T09:06:54Z</time>
      </trkpt>
      <trkpt lat="49.46314" lon="0.96533">
        <ele>93.9</ele>
        <time>2020-06-21T09:06:56Z</time>
      </trkpt>
      <trkpt lat="49.46312" lon="0.96534">
        <ele>93.7</ele>
        <time>2020-06-21T09:06:57Z</time>
      </trkpt>
      <trkpt lat="49.4631" lon="0.96534">
        <ele>93.4</ele>
        <time>2020-06-21T09:06:58Z</time>
      </trkpt>
      <trkpt lat="49.46307" lon="0.96536">
        <ele>92.9</ele>
        <time>2020-06-21T09:07:00Z</time>
      </trkpt>
      <trkpt lat="49.463" lon="0.96539">
        <ele>91.6</ele>
        <time>2020-06-21T09:07:02Z</time>
      </trkpt>
      <trkpt lat="49.46296" lon="0.96541">
        <ele>91.1</ele>
        <time>2020-06-21T09:07:03Z</time>
      </trkpt>
      <trkpt lat="49.4629" lon="0.96543">
        <ele>90.1</ele>
        <time>2020-06-21T09:07:04Z</time>
      </trkpt>
      <trkpt lat="49.4628" lon="0.96549">
        <ele>88.3</ele>
        <time>2020-06-21T09:07:06Z</time>
      </trkpt>
      <trkpt lat="49.46272" lon="0.96555">
        <ele>87</ele>
        <time>2020-06-21T09:07:08Z</time>
      </trkpt>
      <trkpt lat="49.46267" lon="0.96559">
        <ele>86.1</ele>
        <time>2020-06-21T09:07:09Z</time>
      </trkpt>
      <trkpt lat="49.46264" lon="0.96562">
        <ele>85.6</ele>
        <time>2020-06-21T09:07:10Z</time>
      </trkpt>
      <trkpt lat="49.46264" lon="0.96564">
        <ele>85.3</ele>
        <time>2020-06-21T09:07:11Z</time>
      </trkpt>
      <trkpt lat="49.46264" lon="0.96568">
        <ele>84.9</ele>
        <time>2020-06-21T09:07:13Z</time>
      </trkpt>
      <trkpt lat="49.46266" lon="0.96571">
        <ele>84.4</ele>
        <time>2020-06-21T09:07:14Z</time>
      </trkpt>
      <trkpt lat="49.46269" lon="0.96576">
        <ele>83.6</ele>
        <time>2020-06-21T09:07:16Z</time>
      </trkpt>
      <trkpt lat="49.46272" lon="0.96585">
        <ele>83.5</ele>
        <time>2020-06-21T09:07:17Z</time>
      </trkpt>
      <trkpt lat="49.46273" lon="0.96592">
        <ele>82.4</ele>
        <time>2020-06-21T09:07:19Z</time>
      </trkpt>
      <trkpt lat="49.46273" lon="0.96594">
        <ele>81.8</ele>
        <time>2020-06-21T09:07:20Z</time>
      </trkpt>
      <trkpt lat="49.46271" lon="0.96595">
        <ele>80.9</ele>
        <time>2020-06-21T09:07:21Z</time>
      </trkpt>
      <trkpt lat="49.46267" lon="0.96591">
        <ele>80.5</ele>
        <time>2020-06-21T09:07:23Z</time>
      </trkpt>
      <trkpt lat="49.46262" lon="0.96587">
        <ele>79.2</ele>
        <time>2020-06-21T09:07:24Z</time>
      </trkpt>
      <trkpt lat="49.46258" lon="0.96585">
        <ele>78.5</ele>
        <time>2020-06-21T09:07:25Z</time>
      </trkpt>
      <trkpt lat="49.46253" lon="0.96586">
        <ele>75.7</ele>
        <time>2020-06-21T09:07:27Z</time>
      </trkpt>
      <trkpt lat="49.4625" lon="0.96591">
        <ele>73.9</ele>
        <time>2020-06-21T09:07:28Z</time>
      </trkpt>
      <trkpt lat="49.46246" lon="0.96596">
        <ele>70.4</ele>
        <time>2020-06-21T09:07:29Z</time>
      </trkpt>
      <trkpt lat="49.46242" lon="0.966">
        <ele>68.3</ele>
        <time>2020-06-21T09:07:30Z</time>
      </trkpt>
      <trkpt lat="49.46236" lon="0.96604">
        <ele>64.6</ele>
        <time>2020-06-21T09:07:31Z</time>
      </trkpt>
      <trkpt lat="49.46229" lon="0.96603">
        <ele>59.9</ele>
        <time>2020-06-21T09:07:33Z</time>
      </trkpt>
      <trkpt lat="49.46225" lon="0.96598">
        <ele>58.9</ele>
        <time>2020-06-21T09:07:35Z</time>
      </trkpt>
      <trkpt lat="49.46224" lon="0.96594">
        <ele>57.3</ele>
        <time>2020-06-21T09:07:36Z</time>
      </trkpt>
      <trkpt lat="49.4622" lon="0.96589">
        <ele>55.7</ele>
        <time>2020-06-21T09:07:37Z</time>
      </trkpt>
      <trkpt lat="49.46218" lon="0.96586">
        <ele>54</ele>
        <time>2020-06-21T09:07:38Z</time>
      </trkpt>
      <trkpt lat="49.46216" lon="0.96583">
        <ele>54</ele>
        <time>2020-06-21T09:07:40Z</time>
      </trkpt>
      <trkpt lat="49.46214" lon="0.9658">
        <ele>52.4</ele>
        <time>2020-06-21T09:07:41Z</time>
      </trkpt>
      <trkpt lat="49.46211" lon="0.96575">
        <ele>51</ele>
        <time>2020-06-21T09:07:42Z</time>
      </trkpt>
      <trkpt lat="49.4621" lon="0.96574">
        <ele>49.6</ele>
        <time>2020-06-21T09:07:43Z</time>
      </trkpt>
      <trkpt lat="49.46208" lon="0.96571">
        <ele>49.5</ele>
        <time>2020-06-21T09:07:44Z</time>
      </trkpt>
      <trkpt lat="49.46205" lon="0.96566">
        <ele>48.3</ele>
        <time>2020-06-21T09:07:46Z</time>
      </trkpt>
      <trkpt lat="49.46202" lon="0.96565">
        <ele>47.2</ele>
        <time>2020-06-21T09:07:47Z</time>
      </trkpt>
      <trkpt lat="49.46197" lon="0.96563">
        <ele>45.4</ele>
        <time>2020-06-21T09:07:49Z</time>
      </trkpt>
      <trkpt lat="49.46194" lon="0.96561">
        <ele>44.7</ele>
        <time>2020-06-21T09:07:50Z</time>
      </trkpt>
      <trkpt lat="49.46191" lon="0.9656">
        <ele>44.2</ele>
        <time>2020-06-21T09:07:51Z</time>
      </trkpt>
      <trkpt lat="49.46189" lon="0.9656">
        <ele>43.9</ele>
        <time>2020-06-21T09:07:52Z</time>
      </trkpt>
      <trkpt lat="49.46186" lon="0.96564">
        <ele>43.7</ele>
        <time>2020-06-21T09:07:54Z</time>
      </trkpt>
      <trkpt lat="49.46183" lon="0.96566">
        <ele>43.7</ele>
        <time>2020-06-21T09:07:55Z</time>
      </trkpt>
      <trkpt lat="49.4618" lon="0.96565">
        <ele>43.9</ele>
        <time>2020-06-21T09:07:57Z</time>
      </trkpt>
      <trkpt lat="49.46178" lon="0.96563">
        <ele>44</ele>
        <time>2020-06-21T09:07:58Z</time>
      </trkpt>
      <trkpt lat="49.46177" lon="0.96563">
        <ele>43.9</ele>
        <time>2020-06-21T09:07:59Z</time>
      </trkpt>
      <trkpt lat="49.46176" lon="0.96562">
        <ele>44.2</ele>
        <time>2020-06-21T09:08:00Z</time>
      </trkpt>
      <trkpt lat="49.46174" lon="0.96561">
        <ele>44.5</ele>
        <time>2020-06-21T09:08:02Z</time>
      </trkpt>
      <trkpt lat="49.46172" lon="0.9656">
        <ele>44.4</ele>
        <time>2020-06-21T09:08:03Z</time>
      </trkpt>
      <trkpt lat="49.46171" lon="0.96561">
        <ele>44.9</ele>
        <time>2020-06-21T09:08:04Z</time>
      </trkpt>
      <trkpt lat="49.46168" lon="0.96564">
        <ele>45.4</ele>
        <time>2020-06-21T09:08:06Z</time>
      </trkpt>
      <trkpt lat="49.46167" lon="0.96567">
        <ele>45.3</ele>
        <time>2020-06-21T09:08:07Z</time>
      </trkpt>
      <trkpt lat="49.46164" lon="0.96569">
        <ele>45.9</ele>
        <time>2020-06-21T09:08:09Z</time>
      </trkpt>
      <trkpt lat="49.46162" lon="0.96572">
        <ele>46.5</ele>
        <time>2020-06-21T09:08:10Z</time>
      </trkpt>
      <trkpt lat="49.4616" lon="0.96577">
        <ele>47</ele>
        <time>2020-06-21T09:08:12Z</time>
      </trkpt>
      <trkpt lat="49.46158" lon="0.9658">
        <ele>46.9</ele>
        <time>2020-06-21T09:08:13Z</time>
      </trkpt>
      <trkpt lat="49.46155" lon="0.96582">
        <ele>47.5</ele>
        <time>2020-06-21T09:08:14Z</time>
      </trkpt>
      <trkpt lat="49.46147" lon="0.96591">
        <ele>49.2</ele>
        <time>2020-06-21T09:08:16Z</time>
      </trkpt>
      <trkpt lat="49.46142" lon="0.96594">
        <ele>50.1</ele>
        <time>2020-06-21T09:08:17Z</time>
      </trkpt>
      <trkpt lat="49.4614" lon="0.96597">
        <ele>50.4</ele>
        <time>2020-06-21T09:08:18Z</time>
      </trkpt>
      <trkpt lat="49.46137" lon="0.96601">
        <ele>50.5</ele>
        <time>2020-06-21T09:08:20Z</time>
      </trkpt>
      <trkpt lat="49.46135" lon="0.96606">
        <ele>50.3</ele>
        <time>2020-06-21T09:08:21Z</time>
      </trkpt>
      <trkpt lat="49.46133" lon="0.9661">
        <ele>50.2</ele>
        <time>2020-06-21T09:08:23Z</time>
      </trkpt>
      <trkpt lat="49.46131" lon="0.96614">
        <ele>49.9</ele>
        <time>2020-06-21T09:08:24Z</time>
      </trkpt>
      <trkpt lat="49.46129" lon="0.96617">
        <ele>49.4</ele>
        <time>2020-06-21T09:08:25Z</time>
      </trkpt>
      <trkpt lat="49.46127" lon="0.9662">
        <ele>49</ele>
        <time>2020-06-21T09:08:26Z</time>
      </trkpt>
      <trkpt lat="49.46123" lon="0.96622">
        <ele>48.8</ele>
        <time>2020-06-21T09:08:27Z</time>
      </trkpt>
      <trkpt lat="49.46122" lon="0.96623">
        <ele>48.7</ele>
        <time>2020-06-21T09:08:28Z</time>
      </trkpt>
      <trkpt lat="49.4612" lon="0.96624">
        <ele>48.5</ele>
        <time>2020-06-21T09:08:29Z</time>
      </trkpt>
      <trkpt lat="49.46116" lon="0.96626">
        <ele>47.9</ele>
        <time>2020-06-21T09:08:31Z</time>
      </trkpt>
      <trkpt lat="49.46113" lon="0.96628">
        <ele>47.7</ele>
        <time>2020-06-21T09:08:33Z</time>
      </trkpt>
      <trkpt lat="49.46111" lon="0.96629">
        <ele>47.1</ele>
        <time>2020-06-21T09:08:34Z</time>
      </trkpt>
      <trkpt lat="49.4611" lon="0.9663">
        <ele>46.9</ele>
        <time>2020-06-21T09:08:35Z</time>
      </trkpt>
      <trkpt lat="49.46109" lon="0.96634">
        <ele>46.3</ele>
        <time>2020-06-21T09:08:37Z</time>
      </trkpt>
      <trkpt lat="49.46106" lon="0.96638">
        <ele>45.7</ele>
        <time>2020-06-21T09:08:38Z</time>
      </trkpt>
      <trkpt lat="49.46105" lon="0.9664">
        <ele>45.5</ele>
        <time>2020-06-21T09:08:39Z</time>
      </trkpt>
      <trkpt lat="49.46103" lon="0.96642">
        <ele>44.9</ele>
        <time>2020-06-21T09:08:40Z</time>
      </trkpt>
      <trkpt lat="49.461" lon="0.96646">
        <ele>44.3</ele>
        <time>2020-06-21T09:08:42Z</time>
      </trkpt>
      <trkpt lat="49.46099" lon="0.96651">
        <ele>43.7</ele>
        <time>2020-06-21T09:08:44Z</time>
      </trkpt>
      <trkpt lat="49.46096" lon="0.96655">
        <ele>43.1</ele>
        <time>2020-06-21T09:08:45Z</time>
      </trkpt>
      <trkpt lat="49.46092" lon="0.96658">
        <ele>42.6</ele>
        <time>2020-06-21T09:08:46Z</time>
      </trkpt>
      <trkpt lat="49.46091" lon="0.9666">
        <ele>42.5</ele>
        <time>2020-06-21T09:08:47Z</time>
      </trkpt>
      <trkpt lat="49.46088" lon="0.96663">
        <ele>41.9</ele>
        <time>2020-06-21T09:08:48Z</time>
      </trkpt>
      <trkpt lat="49.46084" lon="0.96665">
        <ele>41.8</ele>
        <time>2020-06-21T09:08:50Z</time>
      </trkpt>
      <trkpt lat="49.46079" lon="0.96669">
        <ele>41.2</ele>
        <time>2020-06-21T09:08:51Z</time>
      </trkpt>
      <trkpt lat="49.46076" lon="0.96673">
        <ele>40.7</ele>
        <time>2020-06-21T09:08:52Z</time>
      </trkpt>
      <trkpt lat="49.46074" lon="0.96677">
        <ele>40.1</ele>
        <time>2020-06-21T09:08:54Z</time>
      </trkpt>
      <trkpt lat="49.46071" lon="0.96679">
        <ele>40</ele>
        <time>2020-06-21T09:08:55Z</time>
      </trkpt>
      <trkpt lat="49.46066" lon="0.96681">
        <ele>39</ele>
        <time>2020-06-21T09:08:57Z</time>
      </trkpt>
      <trkpt lat="49.46063" lon="0.96684">
        <ele>38.4</ele>
        <time>2020-06-21T09:08:58Z</time>
      </trkpt>
      <trkpt lat="49.46061" lon="0.96688">
        <ele>38.3</ele>
        <time>2020-06-21T09:08:59Z</time>
      </trkpt>
      <trkpt lat="49.46057" lon="0.96693">
        <ele>37</ele>
        <time>2020-06-21T09:09:02Z</time>
      </trkpt>
      <trkpt lat="49.46053" lon="0.96697">
        <ele>36.3</ele>
        <time>2020-06-21T09:09:03Z</time>
      </trkpt>
      <trkpt lat="49.4605" lon="0.967">
        <ele>36.3</ele>
        <time>2020-06-21T09:09:05Z</time>
      </trkpt>
      <trkpt lat="49.46045" lon="0.96703">
        <ele>35.7</ele>
        <time>2020-06-21T09:09:07Z</time>
      </trkpt>
      <trkpt lat="49.46042" lon="0.96706">
        <ele>35.2</ele>
        <time>2020-06-21T09:09:08Z</time>
      </trkpt>
      <trkpt lat="49.46038" lon="0.96708">
        <ele>35.2</ele>
        <time>2020-06-21T09:09:09Z</time>
      </trkpt>
      <trkpt lat="49.46035" lon="0.96709">
        <ele>35</ele>
        <time>2020-06-21T09:09:10Z</time>
      </trkpt>
      <trkpt lat="49.46031" lon="0.96708">
        <ele>34.9</ele>
        <time>2020-06-21T09:09:12Z</time>
      </trkpt>
      <trkpt lat="49.46026" lon="0.96709">
        <ele>34.7</ele>
        <time>2020-06-21T09:09:14Z</time>
      </trkpt>
      <trkpt lat="49.46023" lon="0.96711">
        <ele>34.3</ele>
        <time>2020-06-21T09:09:16Z</time>
      </trkpt>
      <trkpt lat="49.46019" lon="0.96713">
        <ele>34.1</ele>
        <time>2020-06-21T09:09:17Z</time>
      </trkpt>
      <trkpt lat="49.46016" lon="0.96716">
        <ele>33.8</ele>
        <time>2020-06-21T09:09:18Z</time>
      </trkpt>
      <trkpt lat="49.46015" lon="0.96717">
        <ele>33.7</ele>
        <time>2020-06-21T09:09:19Z</time>
      </trkpt>
      <trkpt lat="49.46011" lon="0.9672">
        <ele>33.5</ele>
        <time>2020-06-21T09:09:21Z</time>
      </trkpt>
      <trkpt lat="49.46007" lon="0.96723">
        <ele>33.4</ele>
        <time>2020-06-21T09:09:22Z</time>
      </trkpt>
      <trkpt lat="49.46004" lon="0.96726">
        <ele>33.3</ele>
        <time>2020-06-21T09:09:24Z</time>
      </trkpt>
      <trkpt lat="49.46004" lon="0.96727">
        <ele>33.2</ele>
        <time>2020-06-21T09:09:25Z</time>
      </trkpt>
      <trkpt lat="49.46003" lon="0.96728">
        <ele>33</ele>
        <time>2020-06-21T09:09:26Z</time>
      </trkpt>
      <trkpt lat="49.46" lon="0.96731">
        <ele>32.8</ele>
        <time>2020-06-21T09:09:28Z</time>
      </trkpt>
      <trkpt lat="49.46" lon="0.96732">
        <ele>32.7</ele>
        <time>2020-06-21T09:09:29Z</time>
      </trkpt>
      <trkpt lat="49.45999" lon="0.96734">
        <ele>32.6</ele>
        <time>2020-06-21T09:09:30Z</time>
      </trkpt>
      <trkpt lat="49.45999" lon="0.96736">
        <ele>32.4</ele>
        <time>2020-06-21T09:09:32Z</time>
      </trkpt>
      <trkpt lat="49.45997" lon="0.9674">
        <ele>32.1</ele>
        <time>2020-06-21T09:09:33Z</time>
      </trkpt>
      <trkpt lat="49.45996" lon="0.96742">
        <ele>31.9</ele>
        <time>2020-06-21T09:09:35Z</time>
      </trkpt>
      <trkpt lat="49.45995" lon="0.96743">
        <ele>31.6</ele>
        <time>2020-06-21T09:09:37Z</time>
      </trkpt>
      <trkpt lat="49.45994" lon="0.96745">
        <ele>31.4</ele>
        <time>2020-06-21T09:09:38Z</time>
      </trkpt>
      <trkpt lat="49.45992" lon="0.96749">
        <ele>30.9</ele>
        <time>2020-06-21T09:09:40Z</time>
      </trkpt>
      <trkpt lat="49.45991" lon="0.9675">
        <ele>30.8</ele>
        <time>2020-06-21T09:09:41Z</time>
      </trkpt>
      <trkpt lat="49.45988" lon="0.96755">
        <ele>30.2</ele>
        <time>2020-06-21T09:09:42Z</time>
      </trkpt>
      <trkpt lat="49.45986" lon="0.96758">
        <ele>29.6</ele>
        <time>2020-06-21T09:09:43Z</time>
      </trkpt>
      <trkpt lat="49.45985" lon="0.96761">
        <ele>29.5</ele>
        <time>2020-06-21T09:09:44Z</time>
      </trkpt>
      <trkpt lat="49.45984" lon="0.96763">
        <ele>29.4</ele>
        <time>2020-06-21T09:09:46Z</time>
      </trkpt>
      <trkpt lat="49.45983" lon="0.96765">
        <ele>28.9</ele>
        <time>2020-06-21T09:09:48Z</time>
      </trkpt>
      <trkpt lat="49.45983" lon="0.96768">
        <ele>28.9</ele>
        <time>2020-06-21T09:09:49Z</time>
      </trkpt>
      <trkpt lat="49.45982" lon="0.96769">
        <ele>28.8</ele>
        <time>2020-06-21T09:09:51Z</time>
      </trkpt>
      <trkpt lat="49.45982" lon="0.96769">
        <ele>28.7</ele>
        <time>2020-06-21T09:09:52Z</time>
      </trkpt>
      <trkpt lat="49.45982" lon="0.9677">
        <ele>28.7</ele>
        <time>2020-06-21T09:09:54Z</time>
      </trkpt>
      <trkpt lat="49.45982" lon="0.96771">
        <ele>28.6</ele>
        <time>2020-06-21T09:09:55Z</time>
      </trkpt>
      <trkpt lat="49.45982" lon="0.96771">
        <ele>28.5</ele>
        <time>2020-06-21T09:09:57Z</time>
      </trkpt>
      <trkpt lat="49.45981" lon="0.96772">
        <ele>28</ele>
        <time>2020-06-21T09:09:59Z</time>
      </trkpt>
      <trkpt lat="49.4598" lon="0.96774">
        <ele>27.9</ele>
        <time>2020-06-21T09:10:00Z</time>
      </trkpt>
      <trkpt lat="49.45979" lon="0.96774">
        <ele>27.8</ele>
        <time>2020-06-21T09:10:02Z</time>
      </trkpt>
      <trkpt lat="49.45977" lon="0.96774">
        <ele>27.5</ele>
        <time>2020-06-21T09:10:04Z</time>
      </trkpt>
      <trkpt lat="49.45975" lon="0.96774">
        <ele>27</ele>
        <time>2020-06-21T09:10:05Z</time>
      </trkpt>
      <trkpt lat="49.45973" lon="0.96774">
        <ele>26.5</ele>
        <time>2020-06-21T09:10:07Z</time>
      </trkpt>
      <trkpt lat="49.45971" lon="0.96773">
        <ele>26.5</ele>
        <time>2020-06-21T09:10:09Z</time>
      </trkpt>
      <trkpt lat="49.45968" lon="0.96773">
        <ele>26.4</ele>
        <time>2020-06-21T09:10:11Z</time>
      </trkpt>
      <trkpt lat="49.45967" lon="0.96772">
        <ele>26.4</ele>
        <time>2020-06-21T09:10:12Z</time>
      </trkpt>
      <trkpt lat="49.4596" lon="0.96772">
        <ele>26.3</ele>
        <time>2020-06-21T09:10:14Z</time>
      </trkpt>
      <trkpt lat="49.4595" lon="0.96773">
        <ele>26.2</ele>
        <time>2020-06-21T09:10:16Z</time>
      </trkpt>
      <trkpt lat="49.45946" lon="0.96773">
        <ele>26.2</ele>
        <time>2020-06-21T09:10:17Z</time>
      </trkpt>
      <trkpt lat="49.45943" lon="0.96773">
        <ele>26.2</ele>
        <time>2020-06-21T09:10:18Z</time>
      </trkpt>
      <trkpt lat="49.45935" lon="0.96774">
        <ele>26.2</ele>
        <time>2020-06-21T09:10:20Z</time>
      </trkpt>
      <trkpt lat="49.45932" lon="0.96775">
        <ele>26.2</ele>
        <time>2020-06-21T09:10:21Z</time>
      </trkpt>
      <trkpt lat="49.45926" lon="0.96776">
        <ele>26.2</ele>
        <time>2020-06-21T09:10:23Z</time>
      </trkpt>
      <trkpt lat="49.45921" lon="0.96777">
        <ele>26.2</ele>
        <time>2020-06-21T09:10:24Z</time>
      </trkpt>
      <trkpt lat="49.45917" lon="0.96779">
        <ele>26.2</ele>
        <time>2020-06-21T09:10:26Z</time>
      </trkpt>
      <trkpt lat="49.4591" lon="0.96783">
        <ele>26.1</ele>
        <time>2020-06-21T09:10:28Z</time>
      </trkpt>
      <trkpt lat="49.45905" lon="0.96784">
        <ele>26.1</ele>
        <time>2020-06-21T09:10:29Z</time>
      </trkpt>
      <trkpt lat="49.459" lon="0.96786">
        <ele>26</ele>
        <time>2020-06-21T09:10:31Z</time>
      </trkpt>
      <trkpt lat="49.45896" lon="0.96788">
        <ele>25.9</ele>
        <time>2020-06-21T09:10:32Z</time>
      </trkpt>
      <trkpt lat="49.45893" lon="0.9679">
        <ele>25.9</ele>
        <time>2020-06-21T09:10:34Z</time>
      </trkpt>
      <trkpt lat="49.4589" lon="0.96792">
        <ele>25.8</ele>
        <time>2020-06-21T09:10:35Z</time>
      </trkpt>
      <trkpt lat="49.45886" lon="0.96793">
        <ele>25.7</ele>
        <time>2020-06-21T09:10:36Z</time>
      </trkpt>
      <trkpt lat="49.45883" lon="0.96794">
        <ele>25.7</ele>
        <time>2020-06-21T09:10:37Z</time>
      </trkpt>
      <trkpt lat="49.45877" lon="0.96798">
        <ele>25.5</ele>
        <time>2020-06-21T09:10:39Z</time>
      </trkpt>
      <trkpt lat="49.45874" lon="0.968">
        <ele>25.5</ele>
        <time>2020-06-21T09:10:40Z</time>
      </trkpt>
      <trkpt lat="49.4587" lon="0.96802">
        <ele>25.4</ele>
        <time>2020-06-21T09:10:41Z</time>
      </trkpt>
      <trkpt lat="49.45868" lon="0.96804">
        <ele>25.3</ele>
        <time>2020-06-21T09:10:42Z</time>
      </trkpt>
      <trkpt lat="49.45863" lon="0.96807">
        <ele>25.2</ele>
        <time>2020-06-21T09:10:44Z</time>
      </trkpt>
      <trkpt lat="49.45859" lon="0.9681">
        <ele>25.1</ele>
        <time>2020-06-21T09:10:45Z</time>
      </trkpt>
      <trkpt lat="49.45854" lon="0.96814">
        <ele>24.9</ele>
        <time>2020-06-21T09:10:47Z</time>
      </trkpt>
      <trkpt lat="49.45851" lon="0.96817">
        <ele>24.8</ele>
        <time>2020-06-21T09:10:48Z</time>
      </trkpt>
      <trkpt lat="49.45845" lon="0.96822">
        <ele>24.7</ele>
        <time>2020-06-21T09:10:50Z</time>
      </trkpt>
      <trkpt lat="49.45841" lon="0.96824">
        <ele>24.6</ele>
        <time>2020-06-21T09:10:51Z</time>
      </trkpt>
      <trkpt lat="49.45836" lon="0.96827">
        <ele>24.5</ele>
        <time>2020-06-21T09:10:53Z</time>
      </trkpt>
      <trkpt lat="49.45832" lon="0.9683">
        <ele>24.4</ele>
        <time>2020-06-21T09:10:54Z</time>
      </trkpt>
      <trkpt lat="49.45828" lon="0.96833">
        <ele>24.3</ele>
        <time>2020-06-21T09:10:55Z</time>
      </trkpt>
      <trkpt lat="49.45823" lon="0.96838">
        <ele>24.1</ele>
        <time>2020-06-21T09:10:57Z</time>
      </trkpt>
      <trkpt lat="49.45818" lon="0.96842">
        <ele>24</ele>
        <time>2020-06-21T09:10:58Z</time>
      </trkpt>
      <trkpt lat="49.45815" lon="0.96844">
        <ele>24</ele>
        <time>2020-06-21T09:10:59Z</time>
      </trkpt>
      <trkpt lat="49.4581" lon="0.96849">
        <ele>23.8</ele>
        <time>2020-06-21T09:11:01Z</time>
      </trkpt>
      <trkpt lat="49.45805" lon="0.96853">
        <ele>23.8</ele>
        <time>2020-06-21T09:11:02Z</time>
      </trkpt>
      <trkpt lat="49.45802" lon="0.96855">
        <ele>23.7</ele>
        <time>2020-06-21T09:11:03Z</time>
      </trkpt>
      <trkpt lat="49.45799" lon="0.96858">
        <ele>23.7</ele>
        <time>2020-06-21T09:11:04Z</time>
      </trkpt>
      <trkpt lat="49.45796" lon="0.9686">
        <ele>23.6</ele>
        <time>2020-06-21T09:11:05Z</time>
      </trkpt>
      <trkpt lat="49.4579" lon="0.96865">
        <ele>23.6</ele>
        <time>2020-06-21T09:11:07Z</time>
      </trkpt>
      <trkpt lat="49.45784" lon="0.9687">
        <ele>23.5</ele>
        <time>2020-06-21T09:11:09Z</time>
      </trkpt>
      <trkpt lat="49.45781" lon="0.96873">
        <ele>23.4</ele>
        <time>2020-06-21T09:11:10Z</time>
      </trkpt>
      <trkpt lat="49.45777" lon="0.96876">
        <ele>23.4</ele>
        <time>2020-06-21T09:11:11Z</time>
      </trkpt>
      <trkpt lat="49.45771" lon="0.96882">
        <ele>23.3</ele>
        <time>2020-06-21T09:11:13Z</time>
      </trkpt>
      <trkpt lat="49.45766" lon="0.96886">
        <ele>23.2</ele>
        <time>2020-06-21T09:11:15Z</time>
      </trkpt>
      <trkpt lat="49.45763" lon="0.96889">
        <ele>23.2</ele>
        <time>2020-06-21T09:11:16Z</time>
      </trkpt>
      <trkpt lat="49.45759" lon="0.96892">
        <ele>23.1</ele>
        <time>2020-06-21T09:11:17Z</time>
      </trkpt>
      <trkpt lat="49.45756" lon="0.96895">
        <ele>23.1</ele>
        <time>2020-06-21T09:11:18Z</time>
      </trkpt>
      <trkpt lat="49.45752" lon="0.96897">
        <ele>23.1</ele>
        <time>2020-06-21T09:11:19Z</time>
      </trkpt>
      <trkpt lat="49.45748" lon="0.969">
        <ele>23.1</ele>
        <time>2020-06-21T09:11:20Z</time>
      </trkpt>
      <trkpt lat="49.45744" lon="0.96902">
        <ele>23</ele>
        <time>2020-06-21T09:11:22Z</time>
      </trkpt>
      <trkpt lat="49.45739" lon="0.96905">
        <ele>23</ele>
        <time>2020-06-21T09:11:24Z</time>
      </trkpt>
      <trkpt lat="49.45736" lon="0.96907">
        <ele>22.9</ele>
        <time>2020-06-21T09:11:25Z</time>
      </trkpt>
      <trkpt lat="49.45733" lon="0.96909">
        <ele>22.9</ele>
        <time>2020-06-21T09:11:26Z</time>
      </trkpt>
      <trkpt lat="49.45728" lon="0.96913">
        <ele>22.8</ele>
        <time>2020-06-21T09:11:28Z</time>
      </trkpt>
      <trkpt lat="49.45724" lon="0.96917">
        <ele>22.7</ele>
        <time>2020-06-21T09:11:29Z</time>
      </trkpt>
      <trkpt lat="49.45718" lon="0.96922">
        <ele>22.6</ele>
        <time>2020-06-21T09:11:31Z</time>
      </trkpt>
      <trkpt lat="49.45715" lon="0.96924">
        <ele>22.5</ele>
        <time>2020-06-21T09:11:32Z</time>
      </trkpt>
      <trkpt lat="49.45712" lon="0.96927">
        <ele>22.4</ele>
        <time>2020-06-21T09:11:33Z</time>
      </trkpt>
      <trkpt lat="49.45706" lon="0.96933">
        <ele>22.2</ele>
        <time>2020-06-21T09:11:35Z</time>
      </trkpt>
      <trkpt lat="49.457" lon="0.96938">
        <ele>22.1</ele>
        <time>2020-06-21T09:11:36Z</time>
      </trkpt>
      <trkpt lat="49.45697" lon="0.96941">
        <ele>22</ele>
        <time>2020-06-21T09:11:38Z</time>
      </trkpt>
      <trkpt lat="49.45692" lon="0.96945">
        <ele>21.8</ele>
        <time>2020-06-21T09:11:39Z</time>
      </trkpt>
      <trkpt lat="49.45688" lon="0.96948">
        <ele>21.8</ele>
        <time>2020-06-21T09:11:40Z</time>
      </trkpt>
      <trkpt lat="49.45684" lon="0.96951">
        <ele>21.7</ele>
        <time>2020-06-21T09:11:41Z</time>
      </trkpt>
      <trkpt lat="49.4568" lon="0.96955">
        <ele>21.6</ele>
        <time>2020-06-21T09:11:42Z</time>
      </trkpt>
      <trkpt lat="49.45675" lon="0.96959">
        <ele>21.5</ele>
        <time>2020-06-21T09:11:44Z</time>
      </trkpt>
      <trkpt lat="49.45668" lon="0.96965">
        <ele>21.4</ele>
        <time>2020-06-21T09:11:46Z</time>
      </trkpt>
      <trkpt lat="49.45665" lon="0.96969">
        <ele>21.4</ele>
        <time>2020-06-21T09:11:47Z</time>
      </trkpt>
      <trkpt lat="49.45662" lon="0.96972">
        <ele>21.4</ele>
        <time>2020-06-21T09:11:48Z</time>
      </trkpt>
      <trkpt lat="49.45655" lon="0.96978">
        <ele>21.3</ele>
        <time>2020-06-21T09:11:50Z</time>
      </trkpt>
      <trkpt lat="49.4565" lon="0.96982">
        <ele>21.2</ele>
        <time>2020-06-21T09:11:51Z</time>
      </trkpt>
      <trkpt lat="49.45647" lon="0.96985">
        <ele>21.2</ele>
        <time>2020-06-21T09:11:52Z</time>
      </trkpt>
      <trkpt lat="49.45642" lon="0.9699">
        <ele>21.1</ele>
        <time>2020-06-21T09:11:54Z</time>
      </trkpt>
      <trkpt lat="49.45639" lon="0.96993">
        <ele>21.1</ele>
        <time>2020-06-21T09:11:55Z</time>
      </trkpt>
      <trkpt lat="49.45635" lon="0.96996">
        <ele>21</ele>
        <time>2020-06-21T09:11:56Z</time>
      </trkpt>
      <trkpt lat="49.4563" lon="0.97001">
        <ele>21</ele>
        <time>2020-06-21T09:11:58Z</time>
      </trkpt>
      <trkpt lat="49.45625" lon="0.97006">
        <ele>21</ele>
        <time>2020-06-21T09:11:59Z</time>
      </trkpt>
      <trkpt lat="49.45621" lon="0.97009">
        <ele>21</ele>
        <time>2020-06-21T09:12:00Z</time>
      </trkpt>
      <trkpt lat="49.45615" lon="0.97013">
        <ele>21</ele>
        <time>2020-06-21T09:12:02Z</time>
      </trkpt>
      <trkpt lat="49.45611" lon="0.97016">
        <ele>21</ele>
        <time>2020-06-21T09:12:03Z</time>
      </trkpt>
      <trkpt lat="49.45608" lon="0.97019">
        <ele>21.1</ele>
        <time>2020-06-21T09:12:04Z</time>
      </trkpt>
      <trkpt lat="49.45602" lon="0.97025">
        <ele>21.1</ele>
        <time>2020-06-21T09:12:06Z</time>
      </trkpt>
      <trkpt lat="49.45598" lon="0.97029">
        <ele>21.1</ele>
        <time>2020-06-21T09:12:07Z</time>
      </trkpt>
      <trkpt lat="49.45592" lon="0.97035">
        <ele>21.2</ele>
        <time>2020-06-21T09:12:09Z</time>
      </trkpt>
      <trkpt lat="49.45587" lon="0.9704">
        <ele>21.3</ele>
        <time>2020-06-21T09:12:10Z</time>
      </trkpt>
      <trkpt lat="49.45584" lon="0.97042">
        <ele>21.4</ele>
        <time>2020-06-21T09:12:12Z</time>
      </trkpt>
      <trkpt lat="49.45581" lon="0.97045">
        <ele>21.4</ele>
        <time>2020-06-21T09:12:13Z</time>
      </trkpt>
      <trkpt lat="49.45577" lon="0.97047">
        <ele>21.5</ele>
        <time>2020-06-21T09:12:14Z</time>
      </trkpt>
      <trkpt lat="49.45573" lon="0.97051">
        <ele>21.6</ele>
        <time>2020-06-21T09:12:16Z</time>
      </trkpt>
      <trkpt lat="49.45569" lon="0.97054">
        <ele>21.7</ele>
        <time>2020-06-21T09:12:17Z</time>
      </trkpt>
      <trkpt lat="49.45564" lon="0.97058">
        <ele>21.8</ele>
        <time>2020-06-21T09:12:19Z</time>
      </trkpt>
      <trkpt lat="49.45562" lon="0.97059">
        <ele>21.8</ele>
        <time>2020-06-21T09:12:20Z</time>
      </trkpt>
      <trkpt lat="49.45558" lon="0.97062">
        <ele>21.9</ele>
        <time>2020-06-21T09:12:22Z</time>
      </trkpt>
      <trkpt lat="49.45555" lon="0.97066">
        <ele>22</ele>
        <time>2020-06-21T09:12:23Z</time>
      </trkpt>
      <trkpt lat="49.4555" lon="0.97069">
        <ele>22</ele>
        <time>2020-06-21T09:12:25Z</time>
      </trkpt>
      <trkpt lat="49.45547" lon="0.97072">
        <ele>22.1</ele>
        <time>2020-06-21T09:12:26Z</time>
      </trkpt>
      <trkpt lat="49.45543" lon="0.97077">
        <ele>22.1</ele>
        <time>2020-06-21T09:12:28Z</time>
      </trkpt>
      <trkpt lat="49.4554" lon="0.97081">
        <ele>22.1</ele>
        <time>2020-06-21T09:12:29Z</time>
      </trkpt>
      <trkpt lat="49.45537" lon="0.97084">
        <ele>22.1</ele>
        <time>2020-06-21T09:12:30Z</time>
      </trkpt>
      <trkpt lat="49.45532" lon="0.97091">
        <ele>22</ele>
        <time>2020-06-21T09:12:32Z</time>
      </trkpt>
      <trkpt lat="49.45527" lon="0.97098">
        <ele>21.8</ele>
        <time>2020-06-21T09:12:33Z</time>
      </trkpt>
      <trkpt lat="49.45523" lon="0.97102">
        <ele>21.7</ele>
        <time>2020-06-21T09:12:34Z</time>
      </trkpt>
      <trkpt lat="49.45518" lon="0.97107">
        <ele>21.5</ele>
        <time>2020-06-21T09:12:36Z</time>
      </trkpt>
      <trkpt lat="49.45513" lon="0.97112">
        <ele>21.3</ele>
        <time>2020-06-21T09:12:37Z</time>
      </trkpt>
      <trkpt lat="49.45506" lon="0.97121">
        <ele>20.9</ele>
        <time>2020-06-21T09:12:39Z</time>
      </trkpt>
      <trkpt lat="49.45501" lon="0.97128">
        <ele>20.6</ele>
        <time>2020-06-21T09:12:40Z</time>
      </trkpt>
      <trkpt lat="49.45494" lon="0.97138">
        <ele>20.1</ele>
        <time>2020-06-21T09:12:42Z</time>
      </trkpt>
      <trkpt lat="49.45481" lon="0.97153">
        <ele>19.5</ele>
        <time>2020-06-21T09:12:44Z</time>
      </trkpt>
      <trkpt lat="49.45476" lon="0.97159">
        <ele>19.3</ele>
        <time>2020-06-21T09:12:45Z</time>
      </trkpt>
      <trkpt lat="49.45471" lon="0.97165">
        <ele>19.2</ele>
        <time>2020-06-21T09:12:46Z</time>
      </trkpt>
      <trkpt lat="49.45463" lon="0.97176">
        <ele>19</ele>
        <time>2020-06-21T09:12:48Z</time>
      </trkpt>
      <trkpt lat="49.45459" lon="0.97181">
        <ele>19</ele>
        <time>2020-06-21T09:12:49Z</time>
      </trkpt>
      <trkpt lat="49.45455" lon="0.97185">
        <ele>18.9</ele>
        <time>2020-06-21T09:12:50Z</time>
      </trkpt>
      <trkpt lat="49.45452" lon="0.97185">
        <ele>18.9</ele>
        <time>2020-06-21T09:12:51Z</time>
      </trkpt>
      <trkpt lat="49.45443" lon="0.972">
        <ele>18.8</ele>
        <time>2020-06-21T09:12:53Z</time>
      </trkpt>
      <trkpt lat="49.45435" lon="0.9721">
        <ele>18.8</ele>
        <time>2020-06-21T09:12:55Z</time>
      </trkpt>
      <trkpt lat="49.45432" lon="0.97214">
        <ele>18.9</ele>
        <time>2020-06-21T09:12:56Z</time>
      </trkpt>
      <trkpt lat="49.45433" lon="0.97218">
        <ele>18.9</ele>
        <time>2020-06-21T09:12:57Z</time>
      </trkpt>
      <trkpt lat="49.45424" lon="0.97224">
        <ele>18.9</ele>
        <time>2020-06-21T09:12:59Z</time>
      </trkpt>
      <trkpt lat="49.45415" lon="0.97229">
        <ele>19</ele>
        <time>2020-06-21T09:13:01Z</time>
      </trkpt>
      <trkpt lat="49.45408" lon="0.97233">
        <ele>19</ele>
        <time>2020-06-21T09:13:02Z</time>
      </trkpt>
      <trkpt lat="49.45403" lon="0.97236">
        <ele>19</ele>
        <time>2020-06-21T09:13:03Z</time>
      </trkpt>
      <trkpt lat="49.45394" lon="0.97239">
        <ele>19.1</ele>
        <time>2020-06-21T09:13:05Z</time>
      </trkpt>
      <trkpt lat="49.4539" lon="0.9724">
        <ele>19.1</ele>
        <time>2020-06-21T09:13:06Z</time>
      </trkpt>
      <trkpt lat="49.45384" lon="0.9724">
        <ele>19.1</ele>
        <time>2020-06-21T09:13:07Z</time>
      </trkpt>
      <trkpt lat="49.45374" lon="0.97242">
        <ele>19.1</ele>
        <time>2020-06-21T09:13:09Z</time>
      </trkpt>
      <trkpt lat="49.45368" lon="0.97242">
        <ele>19.1</ele>
        <time>2020-06-21T09:13:10Z</time>
      </trkpt>
      <trkpt lat="49.45358" lon="0.97242">
        <ele>18.8</ele>
        <time>2020-06-21T09:13:12Z</time>
      </trkpt>
      <trkpt lat="49.45351" lon="0.9724">
        <ele>18.6</ele>
        <time>2020-06-21T09:13:13Z</time>
      </trkpt>
      <trkpt lat="49.45336" lon="0.97237">
        <ele>18.3</ele>
        <time>2020-06-21T09:13:15Z</time>
      </trkpt>
      <trkpt lat="49.45325" lon="0.97236">
        <ele>18</ele>
        <time>2020-06-21T09:13:17Z</time>
      </trkpt>
      <trkpt lat="49.45316" lon="0.97234">
        <ele>17.8</ele>
        <time>2020-06-21T09:13:19Z</time>
      </trkpt>
      <trkpt lat="49.45307" lon="0.97228">
        <ele>17.6</ele>
        <time>2020-06-21T09:13:21Z</time>
      </trkpt>
      <trkpt lat="49.45302" lon="0.97224">
        <ele>17.6</ele>
        <time>2020-06-21T09:13:22Z</time>
      </trkpt>
      <trkpt lat="49.45293" lon="0.97219">
        <ele>17.4</ele>
        <time>2020-06-21T09:13:24Z</time>
      </trkpt>
      <trkpt lat="49.45286" lon="0.97213">
        <ele>17.3</ele>
        <time>2020-06-21T09:13:26Z</time>
      </trkpt>
      <trkpt lat="49.45282" lon="0.97209">
        <ele>17.3</ele>
        <time>2020-06-21T09:13:27Z</time>
      </trkpt>
      <trkpt lat="49.45277" lon="0.97205">
        <ele>17.2</ele>
        <time>2020-06-21T09:13:28Z</time>
      </trkpt>
      <trkpt lat="49.45273" lon="0.972">
        <ele>17.1</ele>
        <time>2020-06-21T09:13:29Z</time>
      </trkpt>
      <trkpt lat="49.45265" lon="0.9719">
        <ele>17</ele>
        <time>2020-06-21T09:13:31Z</time>
      </trkpt>
      <trkpt lat="49.45261" lon="0.97185">
        <ele>16.9</ele>
        <time>2020-06-21T09:13:32Z</time>
      </trkpt>
      <trkpt lat="49.45258" lon="0.97181">
        <ele>16.8</ele>
        <time>2020-06-21T09:13:33Z</time>
      </trkpt>
      <trkpt lat="49.45253" lon="0.97174">
        <ele>16.7</ele>
        <time>2020-06-21T09:13:35Z</time>
      </trkpt>
      <trkpt lat="49.45249" lon="0.97169">
        <ele>16.7</ele>
        <time>2020-06-21T09:13:36Z</time>
      </trkpt>
      <trkpt lat="49.45245" lon="0.97163">
        <ele>16.6</ele>
        <time>2020-06-21T09:13:37Z</time>
      </trkpt>
      <trkpt lat="49.45241" lon="0.97157">
        <ele>16.6</ele>
        <time>2020-06-21T09:13:38Z</time>
      </trkpt>
      <trkpt lat="49.45233" lon="0.97144">
        <ele>16.5</ele>
        <time>2020-06-21T09:13:40Z</time>
      </trkpt>
      <trkpt lat="49.45226" lon="0.97131">
        <ele>16.4</ele>
        <time>2020-06-21T09:13:42Z</time>
      </trkpt>
      <trkpt lat="49.45223" lon="0.97125">
        <ele>16.4</ele>
        <time>2020-06-21T09:13:43Z</time>
      </trkpt>
      <trkpt lat="49.45216" lon="0.97113">
        <ele>16.3</ele>
        <time>2020-06-21T09:13:45Z</time>
      </trkpt>
      <trkpt lat="49.45209" lon="0.97099">
        <ele>16.3</ele>
        <time>2020-06-21T09:13:47Z</time>
      </trkpt>
      <trkpt lat="49.45206" lon="0.97092">
        <ele>16.3</ele>
        <time>2020-06-21T09:13:48Z</time>
      </trkpt>
      <trkpt lat="49.45203" lon="0.97085">
        <ele>16.3</ele>
        <time>2020-06-21T09:13:49Z</time>
      </trkpt>
      <trkpt lat="49.45197" lon="0.97078">
        <ele>16.3</ele>
        <time>2020-06-21T09:13:51Z</time>
      </trkpt>
      <trkpt lat="49.45194" lon="0.97076">
        <ele>16.3</ele>
        <time>2020-06-21T09:13:52Z</time>
      </trkpt>
      <trkpt lat="49.45186" lon="0.97071">
        <ele>16.3</ele>
        <time>2020-06-21T09:13:54Z</time>
      </trkpt>
      <trkpt lat="49.45183" lon="0.97069">
        <ele>16.3</ele>
        <time>2020-06-21T09:13:56Z</time>
      </trkpt>
      <trkpt lat="49.45181" lon="0.9707">
        <ele>16.3</ele>
        <time>2020-06-21T09:13:57Z</time>
      </trkpt>
      <trkpt lat="49.4517" lon="0.97063">
        <ele>16.2</ele>
        <time>2020-06-21T09:13:58Z</time>
      </trkpt>
      <trkpt lat="49.45163" lon="0.97058">
        <ele>16.2</ele>
        <time>2020-06-21T09:13:59Z</time>
      </trkpt>
      <trkpt lat="49.45153" lon="0.97051">
        <ele>16.1</ele>
        <time>2020-06-21T09:14:01Z</time>
      </trkpt>
      <trkpt lat="49.45148" lon="0.97049">
        <ele>16</ele>
        <time>2020-06-21T09:14:02Z</time>
      </trkpt>
      <trkpt lat="49.45143" lon="0.97046">
        <ele>15.9</ele>
        <time>2020-06-21T09:14:03Z</time>
      </trkpt>
      <trkpt lat="49.4514" lon="0.97043">
        <ele>15.9</ele>
        <time>2020-06-21T09:14:04Z</time>
      </trkpt>
      <trkpt lat="49.45136" lon="0.9704">
        <ele>15.8</ele>
        <time>2020-06-21T09:14:05Z</time>
      </trkpt>
      <trkpt lat="49.45128" lon="0.97035">
        <ele>15.7</ele>
        <time>2020-06-21T09:14:07Z</time>
      </trkpt>
      <trkpt lat="49.45124" lon="0.97031">
        <ele>15.6</ele>
        <time>2020-06-21T09:14:08Z</time>
      </trkpt>
      <trkpt lat="49.45116" lon="0.97023">
        <ele>15.3</ele>
        <time>2020-06-21T09:14:10Z</time>
      </trkpt>
      <trkpt lat="49.45111" lon="0.97019">
        <ele>15.2</ele>
        <time>2020-06-21T09:14:11Z</time>
      </trkpt>
      <trkpt lat="49.45107" lon="0.97015">
        <ele>15.1</ele>
        <time>2020-06-21T09:14:12Z</time>
      </trkpt>
      <trkpt lat="49.45098" lon="0.97007">
        <ele>14.9</ele>
        <time>2020-06-21T09:14:14Z</time>
      </trkpt>
      <trkpt lat="49.4509" lon="0.97">
        <ele>14.7</ele>
        <time>2020-06-21T09:14:16Z</time>
      </trkpt>
      <trkpt lat="49.45082" lon="0.96992">
        <ele>14.5</ele>
        <time>2020-06-21T09:14:18Z</time>
      </trkpt>
      <trkpt lat="49.45076" lon="0.96988">
        <ele>14.4</ele>
        <time>2020-06-21T09:14:19Z</time>
      </trkpt>
      <trkpt lat="49.45072" lon="0.96984">
        <ele>14.2</ele>
        <time>2020-06-21T09:14:20Z</time>
      </trkpt>
      <trkpt lat="49.45063" lon="0.96977">
        <ele>14</ele>
        <time>2020-06-21T09:14:22Z</time>
      </trkpt>
      <trkpt lat="49.45057" lon="0.96972">
        <ele>13.9</ele>
        <time>2020-06-21T09:14:23Z</time>
      </trkpt>
      <trkpt lat="49.4505" lon="0.96966">
        <ele>13.8</ele>
        <time>2020-06-21T09:14:25Z</time>
      </trkpt>
      <trkpt lat="49.45043" lon="0.96958">
        <ele>13.7</ele>
        <time>2020-06-21T09:14:27Z</time>
      </trkpt>
      <trkpt lat="49.45034" lon="0.96949">
        <ele>13.5</ele>
        <time>2020-06-21T09:14:29Z</time>
      </trkpt>
      <trkpt lat="49.45029" lon="0.96945">
        <ele>13.4</ele>
        <time>2020-06-21T09:14:30Z</time>
      </trkpt>
      <trkpt lat="49.4502" lon="0.96936">
        <ele>13.2</ele>
        <time>2020-06-21T09:14:32Z</time>
      </trkpt>
      <trkpt lat="49.45011" lon="0.96926">
        <ele>13</ele>
        <time>2020-06-21T09:14:34Z</time>
      </trkpt>
      <trkpt lat="49.45002" lon="0.96916">
        <ele>12.8</ele>
        <time>2020-06-21T09:14:36Z</time>
      </trkpt>
      <trkpt lat="49.44993" lon="0.96906">
        <ele>12.6</ele>
        <time>2020-06-21T09:14:38Z</time>
      </trkpt>
      <trkpt lat="49.44984" lon="0.96896">
        <ele>12.5</ele>
        <time>2020-06-21T09:14:40Z</time>
      </trkpt>
      <trkpt lat="49.44981" lon="0.96892">
        <ele>12.4</ele>
        <time>2020-06-21T09:14:41Z</time>
      </trkpt>
      <trkpt lat="49.44977" lon="0.96887">
        <ele>12.3</ele>
        <time>2020-06-21T09:14:42Z</time>
      </trkpt>
      <trkpt lat="49.44968" lon="0.96876">
        <ele>12.2</ele>
        <time>2020-06-21T09:14:44Z</time>
      </trkpt>
      <trkpt lat="49.44961" lon="0.96868">
        <ele>12.1</ele>
        <time>2020-06-21T09:14:46Z</time>
      </trkpt>
      <trkpt lat="49.44954" lon="0.96858">
        <ele>12.1</ele>
        <time>2020-06-21T09:14:48Z</time>
      </trkpt>
      <trkpt lat="49.4495" lon="0.96854">
        <ele>12</ele>
        <time>2020-06-21T09:14:49Z</time>
      </trkpt>
      <trkpt lat="49.44943" lon="0.96845">
        <ele>11.8</ele>
        <time>2020-06-21T09:14:51Z</time>
      </trkpt>
      <trkpt lat="49.44936" lon="0.96836">
        <ele>11.8</ele>
        <time>2020-06-21T09:14:53Z</time>
      </trkpt>
      <trkpt lat="49.44933" lon="0.96832">
        <ele>11.8</ele>
        <time>2020-06-21T09:14:54Z</time>
      </trkpt>
      <trkpt lat="49.44926" lon="0.96824">
        <ele>12</ele>
        <time>2020-06-21T09:14:56Z</time>
      </trkpt>
      <trkpt lat="49.44919" lon="0.96816">
        <ele>12.2</ele>
        <time>2020-06-21T09:14:58Z</time>
      </trkpt>
      <trkpt lat="49.44913" lon="0.9681">
        <ele>12.4</ele>
        <time>2020-06-21T09:15:00Z</time>
      </trkpt>
      <trkpt lat="49.4491" lon="0.9681">
        <ele>12.5</ele>
        <time>2020-06-21T09:15:01Z</time>
      </trkpt>
      <trkpt lat="49.44908" lon="0.96805">
        <ele>12.6</ele>
        <time>2020-06-21T09:15:03Z</time>
      </trkpt>
      <trkpt lat="49.44905" lon="0.96799">
        <ele>12.7</ele>
        <time>2020-06-21T09:15:04Z</time>
      </trkpt>
      <trkpt lat="49.44904" lon="0.96797">
        <ele>12.8</ele>
        <time>2020-06-21T09:15:05Z</time>
      </trkpt>
      <trkpt lat="49.44901" lon="0.96791">
        <ele>13</ele>
        <time>2020-06-21T09:15:07Z</time>
      </trkpt>
      <trkpt lat="49.44898" lon="0.96787">
        <ele>12.8</ele>
        <time>2020-06-21T09:15:08Z</time>
      </trkpt>
      <trkpt lat="49.44893" lon="0.96783">
        <ele>12.6</ele>
        <time>2020-06-21T09:15:10Z</time>
      </trkpt>
      <trkpt lat="49.44889" lon="0.96778">
        <ele>12.3</ele>
        <time>2020-06-21T09:15:12Z</time>
      </trkpt>
      <trkpt lat="49.44886" lon="0.96773">
        <ele>12.1</ele>
        <time>2020-06-21T09:15:14Z</time>
      </trkpt>
      <trkpt lat="49.44882" lon="0.96768">
        <ele>12</ele>
        <time>2020-06-21T09:15:16Z</time>
      </trkpt>
      <trkpt lat="49.4488" lon="0.96764">
        <ele>11.8</ele>
        <time>2020-06-21T09:15:17Z</time>
      </trkpt>
      <trkpt lat="49.44875" lon="0.96758">
        <ele>11.6</ele>
        <time>2020-06-21T09:15:19Z</time>
      </trkpt>
      <trkpt lat="49.44871" lon="0.96752">
        <ele>11.5</ele>
        <time>2020-06-21T09:15:20Z</time>
      </trkpt>
      <trkpt lat="49.44865" lon="0.96746">
        <ele>11.3</ele>
        <time>2020-06-21T09:15:22Z</time>
      </trkpt>
      <trkpt lat="49.44859" lon="0.96737">
        <ele>11</ele>
        <time>2020-06-21T09:15:24Z</time>
      </trkpt>
      <trkpt lat="49.44853" lon="0.96728">
        <ele>10.7</ele>
        <time>2020-06-21T09:15:25Z</time>
      </trkpt>
      <trkpt lat="49.44847" lon="0.9672">
        <ele>10.5</ele>
        <time>2020-06-21T09:15:26Z</time>
      </trkpt>
      <trkpt lat="49.44842" lon="0.96712">
        <ele>10.3</ele>
        <time>2020-06-21T09:15:28Z</time>
      </trkpt>
      <trkpt lat="49.44836" lon="0.96704">
        <ele>10.1</ele>
        <time>2020-06-21T09:15:29Z</time>
      </trkpt>
      <trkpt lat="49.44833" lon="0.96699">
        <ele>9.9</ele>
        <time>2020-06-21T09:15:30Z</time>
      </trkpt>
      <trkpt lat="49.44831" lon="0.96693">
        <ele>9.9</ele>
        <time>2020-06-21T09:15:31Z</time>
      </trkpt>
      <trkpt lat="49.44824" lon="0.96683">
        <ele>9.7</ele>
        <time>2020-06-21T09:15:33Z</time>
      </trkpt>
      <trkpt lat="49.44823" lon="0.96679">
        <ele>9.6</ele>
        <time>2020-06-21T09:15:34Z</time>
      </trkpt>
      <trkpt lat="49.44814" lon="0.96668">
        <ele>9.4</ele>
        <time>2020-06-21T09:15:36Z</time>
      </trkpt>
      <trkpt lat="49.4481" lon="0.96662">
        <ele>9.4</ele>
        <time>2020-06-21T09:15:37Z</time>
      </trkpt>
      <trkpt lat="49.44806" lon="0.96654">
        <ele>9.2</ele>
        <time>2020-06-21T09:15:39Z</time>
      </trkpt>
      <trkpt lat="49.44801" lon="0.96647">
        <ele>9.1</ele>
        <time>2020-06-21T09:15:40Z</time>
      </trkpt>
      <trkpt lat="49.44799" lon="0.96643">
        <ele>9.1</ele>
        <time>2020-06-21T09:15:41Z</time>
      </trkpt>
      <trkpt lat="49.44795" lon="0.96635">
        <ele>8.9</ele>
        <time>2020-06-21T09:15:43Z</time>
      </trkpt>
      <trkpt lat="49.44792" lon="0.96627">
        <ele>8.8</ele>
        <time>2020-06-21T09:15:44Z</time>
      </trkpt>
      <trkpt lat="49.44789" lon="0.96621">
        <ele>8.8</ele>
        <time>2020-06-21T09:15:45Z</time>
      </trkpt>
      <trkpt lat="49.44787" lon="0.96614">
        <ele>8.7</ele>
        <time>2020-06-21T09:15:46Z</time>
      </trkpt>
      <trkpt lat="49.44784" lon="0.96608">
        <ele>8.6</ele>
        <time>2020-06-21T09:15:47Z</time>
      </trkpt>
      <trkpt lat="49.44781" lon="0.966">
        <ele>8.5</ele>
        <time>2020-06-21T09:15:49Z</time>
      </trkpt>
      <trkpt lat="49.44777" lon="0.9659">
        <ele>8.4</ele>
        <time>2020-06-21T09:15:50Z</time>
      </trkpt>
      <trkpt lat="49.44772" lon="0.96577">
        <ele>8.3</ele>
        <time>2020-06-21T09:15:52Z</time>
      </trkpt>
      <trkpt lat="49.44767" lon="0.96565">
        <ele>8.2</ele>
        <time>2020-06-21T09:15:54Z</time>
      </trkpt>
      <trkpt lat="49.44762" lon="0.96553">
        <ele>8.1</ele>
        <time>2020-06-21T09:15:56Z</time>
      </trkpt>
      <trkpt lat="49.44759" lon="0.96546">
        <ele>8</ele>
        <time>2020-06-21T09:15:57Z</time>
      </trkpt>
      <trkpt lat="49.44753" lon="0.96534">
        <ele>7.9</ele>
        <time>2020-06-21T09:15:59Z</time>
      </trkpt>
      <trkpt lat="49.4475" lon="0.96528">
        <ele>7.9</ele>
        <time>2020-06-21T09:16:00Z</time>
      </trkpt>
      <trkpt lat="49.44749" lon="0.96522">
        <ele>7.9</ele>
        <time>2020-06-21T09:16:01Z</time>
      </trkpt>
      <trkpt lat="49.44744" lon="0.96512">
        <ele>7.9</ele>
        <time>2020-06-21T09:16:03Z</time>
      </trkpt>
      <trkpt lat="49.4474" lon="0.96505">
        <ele>7.9</ele>
        <time>2020-06-21T09:16:05Z</time>
      </trkpt>
      <trkpt lat="49.44738" lon="0.96501">
        <ele>7.9</ele>
        <time>2020-06-21T09:16:06Z</time>
      </trkpt>
      <trkpt lat="49.44735" lon="0.96496">
        <ele>7.9</ele>
        <time>2020-06-21T09:16:07Z</time>
      </trkpt>
      <trkpt lat="49.44733" lon="0.96494">
        <ele>7.9</ele>
        <time>2020-06-21T09:16:08Z</time>
      </trkpt>
      <trkpt lat="49.44732" lon="0.96492">
        <ele>7.9</ele>
        <time>2020-06-21T09:16:10Z</time>
      </trkpt>
      <trkpt lat="49.44732" lon="0.96492">
        <ele>7.9</ele>
        <time>2020-06-21T09:16:12Z</time>
      </trkpt>
      <trkpt lat="49.44731" lon="0.9649">
        <ele>7.9</ele>
        <time>2020-06-21T09:16:13Z</time>
      </trkpt>
      <trkpt lat="49.4473" lon="0.96489">
        <ele>7.9</ele>
        <time>2020-06-21T09:16:15Z</time>
      </trkpt>
      <trkpt lat="49.4473" lon="0.96488">
        <ele>7.9</ele>
        <time>2020-06-21T09:16:17Z</time>
      </trkpt>
      <trkpt lat="49.44729" lon="0.96487">
        <ele>7.9</ele>
        <time>2020-06-21T09:16:18Z</time>
      </trkpt>
      <trkpt lat="49.44725" lon="0.96483">
        <ele>8</ele>
        <time>2020-06-21T09:16:20Z</time>
      </trkpt>
      <trkpt lat="49.44723" lon="0.96482">
        <ele>8</ele>
        <time>2020-06-21T09:16:22Z</time>
      </trkpt>
      <trkpt lat="49.44722" lon="0.96481">
        <ele>8</ele>
        <time>2020-06-21T09:16:23Z</time>
      </trkpt>
      <trkpt lat="49.44719" lon="0.9648">
        <ele>8</ele>
        <time>2020-06-21T09:16:24Z</time>
      </trkpt>
      <trkpt lat="49.44714" lon="0.96478">
        <ele>8</ele>
        <time>2020-06-21T09:16:25Z</time>
      </trkpt>
      <trkpt lat="49.44695" lon="0.96472">
        <ele>8.1</ele>
        <time>2020-06-21T09:16:27Z</time>
      </trkpt>
      <trkpt lat="49.44688" lon="0.96471">
        <ele>8.1</ele>
        <time>2020-06-21T09:16:28Z</time>
      </trkpt>
      <trkpt lat="49.44682" lon="0.96469">
        <ele>8.1</ele>
        <time>2020-06-21T09:16:29Z</time>
      </trkpt>
      <trkpt lat="49.44672" lon="0.96466">
        <ele>8.2</ele>
        <time>2020-06-21T09:16:31Z</time>
      </trkpt>
      <trkpt lat="49.44667" lon="0.96464">
        <ele>8.2</ele>
        <time>2020-06-21T09:16:32Z</time>
      </trkpt>
      <trkpt lat="49.4466" lon="0.96462">
        <ele>8.3</ele>
        <time>2020-06-21T09:16:34Z</time>
      </trkpt>
      <trkpt lat="49.44658" lon="0.96462">
        <ele>8.3</ele>
        <time>2020-06-21T09:16:35Z</time>
      </trkpt>
      <trkpt lat="49.44652" lon="0.96461">
        <ele>8.4</ele>
        <time>2020-06-21T09:16:37Z</time>
      </trkpt>
      <trkpt lat="49.44649" lon="0.9646">
        <ele>8.4</ele>
        <time>2020-06-21T09:16:38Z</time>
      </trkpt>
      <trkpt lat="49.44641" lon="0.96457">
        <ele>8.5</ele>
        <time>2020-06-21T09:16:40Z</time>
      </trkpt>
      <trkpt lat="49.44637" lon="0.96456">
        <ele>8.5</ele>
        <time>2020-06-21T09:16:41Z</time>
      </trkpt>
      <trkpt lat="49.4463" lon="0.96452">
        <ele>8.6</ele>
        <time>2020-06-21T09:16:43Z</time>
      </trkpt>
      <trkpt lat="49.44626" lon="0.96452">
        <ele>8.7</ele>
        <time>2020-06-21T09:16:44Z</time>
      </trkpt>
      <trkpt lat="49.44624" lon="0.9645">
        <ele>8.7</ele>
        <time>2020-06-21T09:16:45Z</time>
      </trkpt>
      <trkpt lat="49.44619" lon="0.96447">
        <ele>8.8</ele>
        <time>2020-06-21T09:16:46Z</time>
      </trkpt>
      <trkpt lat="49.44615" lon="0.96444">
        <ele>8.9</ele>
        <time>2020-06-21T09:16:48Z</time>
      </trkpt>
      <trkpt lat="49.44609" lon="0.9644">
        <ele>9</ele>
        <time>2020-06-21T09:16:49Z</time>
      </trkpt>
      <trkpt lat="49.44603" lon="0.96436">
        <ele>9.1</ele>
        <time>2020-06-21T09:16:51Z</time>
      </trkpt>
      <trkpt lat="49.44598" lon="0.96431">
        <ele>9.2</ele>
        <time>2020-06-21T09:16:52Z</time>
      </trkpt>
      <trkpt lat="49.44594" lon="0.96427">
        <ele>9.3</ele>
        <time>2020-06-21T09:16:53Z</time>
      </trkpt>
      <trkpt lat="49.44588" lon="0.96421">
        <ele>9.5</ele>
        <time>2020-06-21T09:16:55Z</time>
      </trkpt>
      <trkpt lat="49.44583" lon="0.96416">
        <ele>9.6</ele>
        <time>2020-06-21T09:16:56Z</time>
      </trkpt>
      <trkpt lat="49.44577" lon="0.9641">
        <ele>9.8</ele>
        <time>2020-06-21T09:16:58Z</time>
      </trkpt>
      <trkpt lat="49.44574" lon="0.96408">
        <ele>9.9</ele>
        <time>2020-06-21T09:16:59Z</time>
      </trkpt>
      <trkpt lat="49.4457" lon="0.96404">
        <ele>10.2</ele>
        <time>2020-06-21T09:17:01Z</time>
      </trkpt>
      <trkpt lat="49.44565" lon="0.96399">
        <ele>10.2</ele>
        <time>2020-06-21T09:17:02Z</time>
      </trkpt>
      <trkpt lat="49.44558" lon="0.96392">
        <ele>10.3</ele>
        <time>2020-06-21T09:17:03Z</time>
      </trkpt>
      <trkpt lat="49.44549" lon="0.96384">
        <ele>10.5</ele>
        <time>2020-06-21T09:17:05Z</time>
      </trkpt>
      <trkpt lat="49.44545" lon="0.9638">
        <ele>10.6</ele>
        <time>2020-06-21T09:17:06Z</time>
      </trkpt>
      <trkpt lat="49.44543" lon="0.96378">
        <ele>10.6</ele>
        <time>2020-06-21T09:17:07Z</time>
      </trkpt>
      <trkpt lat="49.44539" lon="0.96374">
        <ele>10.7</ele>
        <time>2020-06-21T09:17:09Z</time>
      </trkpt>
      <trkpt lat="49.44535" lon="0.96371">
        <ele>10.8</ele>
        <time>2020-06-21T09:17:10Z</time>
      </trkpt>
      <trkpt lat="49.44529" lon="0.96366">
        <ele>10.9</ele>
        <time>2020-06-21T09:17:11Z</time>
      </trkpt>
      <trkpt lat="49.44526" lon="0.96363">
        <ele>11</ele>
        <time>2020-06-21T09:17:12Z</time>
      </trkpt>
      <trkpt lat="49.44519" lon="0.96359">
        <ele>11.2</ele>
        <time>2020-06-21T09:17:14Z</time>
      </trkpt>
      <trkpt lat="49.44514" lon="0.96357">
        <ele>11.3</ele>
        <time>2020-06-21T09:17:15Z</time>
      </trkpt>
      <trkpt lat="49.44509" lon="0.96355">
        <ele>11.4</ele>
        <time>2020-06-21T09:17:16Z</time>
      </trkpt>
      <trkpt lat="49.44504" lon="0.96352">
        <ele>11.6</ele>
        <time>2020-06-21T09:17:17Z</time>
      </trkpt>
      <trkpt lat="49.44499" lon="0.96349">
        <ele>11.7</ele>
        <time>2020-06-21T09:17:18Z</time>
      </trkpt>
      <trkpt lat="49.44493" lon="0.96346">
        <ele>11.9</ele>
        <time>2020-06-21T09:17:20Z</time>
      </trkpt>
      <trkpt lat="49.44489" lon="0.96344">
        <ele>12</ele>
        <time>2020-06-21T09:17:21Z</time>
      </trkpt>
      <trkpt lat="49.44484" lon="0.96341">
        <ele>12.1</ele>
        <time>2020-06-21T09:17:22Z</time>
      </trkpt>
      <trkpt lat="49.4448" lon="0.96339">
        <ele>12.2</ele>
        <time>2020-06-21T09:17:23Z</time>
      </trkpt>
      <trkpt lat="49.44476" lon="0.96338">
        <ele>12.3</ele>
        <time>2020-06-21T09:17:24Z</time>
      </trkpt>
      <trkpt lat="49.44473" lon="0.96336">
        <ele>12.4</ele>
        <time>2020-06-21T09:17:25Z</time>
      </trkpt>
      <trkpt lat="49.44467" lon="0.96331">
        <ele>12.5</ele>
        <time>2020-06-21T09:17:27Z</time>
      </trkpt>
      <trkpt lat="49.44464" lon="0.96326">
        <ele>12.6</ele>
        <time>2020-06-21T09:17:28Z</time>
      </trkpt>
      <trkpt lat="49.44462" lon="0.96324">
        <ele>12.7</ele>
        <time>2020-06-21T09:17:29Z</time>
      </trkpt>
      <trkpt lat="49.4446" lon="0.9632">
        <ele>12.7</ele>
        <time>2020-06-21T09:17:30Z</time>
      </trkpt>
      <trkpt lat="49.44459" lon="0.96315">
        <ele>12.1</ele>
        <time>2020-06-21T09:17:32Z</time>
      </trkpt>
      <trkpt lat="49.44459" lon="0.96313">
        <ele>12</ele>
        <time>2020-06-21T09:17:33Z</time>
      </trkpt>
      <trkpt lat="49.44459" lon="0.96311">
        <ele>12</ele>
        <time>2020-06-21T09:17:34Z</time>
      </trkpt>
      <trkpt lat="49.44459" lon="0.96309">
        <ele>11.9</ele>
        <time>2020-06-21T09:17:35Z</time>
      </trkpt>
      <trkpt lat="49.4446" lon="0.96306">
        <ele>11.8</ele>
        <time>2020-06-21T09:17:36Z</time>
      </trkpt>
      <trkpt lat="49.44461" lon="0.96299">
        <ele>11.6</ele>
        <time>2020-06-21T09:17:38Z</time>
      </trkpt>
      <trkpt lat="49.44461" lon="0.96296">
        <ele>11.5</ele>
        <time>2020-06-21T09:17:39Z</time>
      </trkpt>
      <trkpt lat="49.44462" lon="0.9629">
        <ele>11.3</ele>
        <time>2020-06-21T09:17:41Z</time>
      </trkpt>
      <trkpt lat="49.44463" lon="0.96284">
        <ele>11</ele>
        <time>2020-06-21T09:17:42Z</time>
      </trkpt>
      <trkpt lat="49.44465" lon="0.96274">
        <ele>10.7</ele>
        <time>2020-06-21T09:17:44Z</time>
      </trkpt>
      <trkpt lat="49.44466" lon="0.96267">
        <ele>10.4</ele>
        <time>2020-06-21T09:17:45Z</time>
      </trkpt>
      <trkpt lat="49.44467" lon="0.96262">
        <ele>10.2</ele>
        <time>2020-06-21T09:17:46Z</time>
      </trkpt>
      <trkpt lat="49.44468" lon="0.96255">
        <ele>10</ele>
        <time>2020-06-21T09:17:48Z</time>
      </trkpt>
      <trkpt lat="49.44469" lon="0.96251">
        <ele>9.8</ele>
        <time>2020-06-21T09:17:49Z</time>
      </trkpt>
      <trkpt lat="49.44469" lon="0.96248">
        <ele>9.8</ele>
        <time>2020-06-21T09:17:51Z</time>
      </trkpt>
      <trkpt lat="49.4447" lon="0.96248">
        <ele>9.8</ele>
        <time>2020-06-21T09:17:53Z</time>
      </trkpt>
      <trkpt lat="49.4447" lon="0.96247">
        <ele>9.8</ele>
        <time>2020-06-21T09:17:54Z</time>
      </trkpt>
      <trkpt lat="49.44469" lon="0.96246">
        <ele>9.8</ele>
        <time>2020-06-21T09:17:55Z</time>
      </trkpt>
      <trkpt lat="49.44468" lon="0.96246">
        <ele>9.8</ele>
        <time>2020-06-21T09:17:57Z</time>
      </trkpt>
      <trkpt lat="49.44468" lon="0.96246">
        <ele>9.8</ele>
        <time>2020-06-21T09:17:59Z</time>
      </trkpt>
      <trkpt lat="49.44468" lon="0.96246">
        <ele>9.8</ele>
        <time>2020-06-21T09:18:00Z</time>
      </trkpt>
      <trkpt lat="49.44468" lon="0.96246">
        <ele>9.8</ele>
        <time>2020-06-21T09:18:01Z</time>
      </trkpt>
      <trkpt lat="49.44468" lon="0.96243">
        <ele>9.8</ele>
        <time>2020-06-21T09:18:03Z</time>
      </trkpt>
      <trkpt lat="49.44467" lon="0.96241">
        <ele>9.8</ele>
        <time>2020-06-21T09:18:04Z</time>
      </trkpt>
      <trkpt lat="49.44466" lon="0.9624">
        <ele>9.8</ele>
        <time>2020-06-21T09:18:06Z</time>
      </trkpt>
      <trkpt lat="49.44466" lon="0.9624">
        <ele>9.8</ele>
        <time>2020-06-21T09:18:07Z</time>
      </trkpt>
      <trkpt lat="49.44468" lon="0.96243">
        <ele>9.8</ele>
        <time>2020-06-21T09:18:09Z</time>
      </trkpt>
      <trkpt lat="49.44468" lon="0.96244">
        <ele>9.8</ele>
        <time>2020-06-21T09:18:10Z</time>
      </trkpt>
      <trkpt lat="49.44468" lon="0.96244">
        <ele>9.8</ele>
        <time>2020-06-21T09:18:12Z</time>
      </trkpt>
      <trkpt lat="49.44469" lon="0.96246">
        <ele>9.8</ele>
        <time>2020-06-21T09:18:14Z</time>
      </trkpt>
      <trkpt lat="49.44469" lon="0.96246">
        <ele>9.8</ele>
        <time>2020-06-21T09:18:15Z</time>
      </trkpt>
      <trkpt lat="49.4447" lon="0.96245">
        <ele>9.8</ele>
        <time>2020-06-21T09:18:17Z</time>
      </trkpt>
      <trkpt lat="49.4447" lon="0.96247">
        <ele>9.8</ele>
        <time>2020-06-21T09:18:18Z</time>
      </trkpt>
      <trkpt lat="49.44471" lon="0.96248">
        <ele>9.8</ele>
        <time>2020-06-21T09:18:20Z</time>
      </trkpt>
      <trkpt lat="49.44472" lon="0.96248">
        <ele>9.8</ele>
        <time>2020-06-21T09:18:22Z</time>
      </trkpt>
    </trkseg>
  </trk>
</gpx>